<?xml version='1.0' encoding='UTF-8'?><gpx version="1.1" creator="JPX - https://github.com/jenetics/jpx" xmlns="http://www.topografix.com/GPX/1/1"><trk><trkseg><trkpt lat="44.4699355" lon="11.4188545"><ele>57.0</ele><time>2026-04-04T06:50:43.281Z</time></trkpt><trkpt lat="44.4699847" lon="11.4187301"><ele>57.0</ele><time>2026-04-04T06:50:45.187Z</time></trkpt><trkpt lat="44.4700474" lon="11.4187621"><ele>57.0</ele><time>2026-04-04T06:50:48.305Z</time></trkpt><trkpt lat="44.4701486" lon="11.4187086"><ele>57.0</ele><time>2026-04-04T06:50:49.311Z</time></trkpt><trkpt lat="44.4702361" lon="11.4186844"><ele>57.0</ele><time>2026-04-04T06:50:51.322Z</time></trkpt><trkpt lat="44.4703042" lon="11.4186559"><ele>57.0</ele><time>2026-04-04T06:50:54.336Z</time></trkpt><trkpt lat="44.4703223" lon="11.4185628"><ele>57.0</ele><time>2026-04-04T06:50:58.256Z</time></trkpt><trkpt lat="44.4702539" lon="11.4184951"><ele>57.0</ele><time>2026-04-04T06:51:01.288Z</time></trkpt><trkpt lat="44.470185" lon="11.4184441"><ele>57.0</ele><time>2026-04-04T06:51:02.22Z</time></trkpt><trkpt lat="44.4700978" lon="11.4183593"><ele>57.0</ele><time>2026-04-04T06:51:03.22Z</time></trkpt><trkpt lat="44.4700142" lon="11.4182886"><ele>57.0</ele><time>2026-04-04T06:51:04.22Z</time></trkpt><trkpt lat="44.4699346" lon="11.4182264"><ele>57.0</ele><time>2026-04-04T06:51:05.22Z</time></trkpt><trkpt lat="44.4698606" lon="11.4181715"><ele>57.0</ele><time>2026-04-04T06:51:06.22Z</time></trkpt><trkpt lat="44.4697839" lon="11.4181185"><ele>57.0</ele><time>2026-04-04T06:51:07.219Z</time></trkpt><trkpt lat="44.4697027" lon="11.4180646"><ele>57.0</ele><time>2026-04-04T06:51:08.22Z</time></trkpt><trkpt lat="44.4696277" lon="11.4180002"><ele>57.0</ele><time>2026-04-04T06:51:09.22Z</time></trkpt><trkpt lat="44.4695582" lon="11.4179358"><ele>57.0</ele><time>2026-04-04T06:51:10.22Z</time></trkpt><trkpt lat="44.4694896" lon="11.4178805"><ele>57.8</ele><time>2026-04-04T06:51:11.219Z</time></trkpt><trkpt lat="44.4694177" lon="11.4178227"><ele>58.6</ele><time>2026-04-04T06:51:12.219Z</time></trkpt><trkpt lat="44.4693361" lon="11.4177648"><ele>59.39999999999999</ele><time>2026-04-04T06:51:13.219Z</time></trkpt><trkpt lat="44.4692477" lon="11.4176962"><ele>60.199999999999996</ele><time>2026-04-04T06:51:14.219Z</time></trkpt><trkpt lat="44.4691485" lon="11.4176301"><ele>61.0</ele><time>2026-04-04T06:51:15.219Z</time></trkpt><trkpt lat="44.4690421" lon="11.4175546"><ele>61.0</ele><time>2026-04-04T06:51:16.22Z</time></trkpt><trkpt lat="44.468935" lon="11.4174828"><ele>60.99999999999999</ele><time>2026-04-04T06:51:17.22Z</time></trkpt><trkpt lat="44.4688361" lon="11.417412"><ele>60.99999999999999</ele><time>2026-04-04T06:51:18.22Z</time></trkpt><trkpt lat="44.4687447" lon="11.4173372"><ele>61.0</ele><time>2026-04-04T06:51:19.22Z</time></trkpt><trkpt lat="44.4686555" lon="11.417269"><ele>61.0</ele><time>2026-04-04T06:51:20.22Z</time></trkpt><trkpt lat="44.4685648" lon="11.4172003"><ele>61.8</ele><time>2026-04-04T06:51:21.22Z</time></trkpt><trkpt lat="44.4684696" lon="11.4171312"><ele>62.599999999999994</ele><time>2026-04-04T06:51:22.22Z</time></trkpt><trkpt lat="44.4683793" lon="11.4170628"><ele>63.4</ele><time>2026-04-04T06:51:23.219Z</time></trkpt><trkpt lat="44.4682867" lon="11.4169937"><ele>64.2</ele><time>2026-04-04T06:51:24.22Z</time></trkpt><trkpt lat="44.4681973" lon="11.4169272"><ele>65.0</ele><time>2026-04-04T06:51:25.22Z</time></trkpt><trkpt lat="44.4681027" lon="11.4168649"><ele>65.0</ele><time>2026-04-04T06:51:26.219Z</time></trkpt><trkpt lat="44.4680129" lon="11.4168079"><ele>65.0</ele><time>2026-04-04T06:51:27.22Z</time></trkpt><trkpt lat="44.4679333" lon="11.4167543"><ele>65.0</ele><time>2026-04-04T06:51:28.22Z</time></trkpt><trkpt lat="44.4678631" lon="11.4166955"><ele>65.0</ele><time>2026-04-04T06:51:29.219Z</time></trkpt><trkpt lat="44.4678053" lon="11.4166236"><ele>65.0</ele><time>2026-04-04T06:51:30.22Z</time></trkpt><trkpt lat="44.467756" lon="11.4165369"><ele>65.0</ele><time>2026-04-04T06:51:31.219Z</time></trkpt><trkpt lat="44.467692" lon="11.4164554"><ele>64.83333333333334</ele><time>2026-04-04T06:51:32.22Z</time></trkpt><trkpt lat="44.467617" lon="11.4164073"><ele>64.66666666666667</ele><time>2026-04-04T06:51:33.219Z</time></trkpt><trkpt lat="44.4675319" lon="11.4163989"><ele>64.5</ele><time>2026-04-04T06:51:34.22Z</time></trkpt><trkpt lat="44.4674485" lon="11.4164435"><ele>64.33333333333333</ele><time>2026-04-04T06:51:35.22Z</time></trkpt><trkpt lat="44.4673902" lon="11.4165393"><ele>64.16666666666666</ele><time>2026-04-04T06:51:36.219Z</time></trkpt><trkpt lat="44.4673563" lon="11.4166657"><ele>64.0</ele><time>2026-04-04T06:51:37.22Z</time></trkpt><trkpt lat="44.4673409" lon="11.4168194"><ele>64.0</ele><time>2026-04-04T06:51:38.22Z</time></trkpt><trkpt lat="44.4673202" lon="11.4169813"><ele>64.0</ele><time>2026-04-04T06:51:39.219Z</time></trkpt><trkpt lat="44.4672863" lon="11.4171442"><ele>64.0</ele><time>2026-04-04T06:51:40.219Z</time></trkpt><trkpt lat="44.4672401" lon="11.4173022"><ele>64.0</ele><time>2026-04-04T06:51:41.219Z</time></trkpt><trkpt lat="44.4671831" lon="11.4174618"><ele>63.75</ele><time>2026-04-04T06:51:42.221Z</time></trkpt><trkpt lat="44.4671143" lon="11.4176287"><ele>63.5</ele><time>2026-04-04T06:51:43.221Z</time></trkpt><trkpt lat="44.4670351" lon="11.4178121"><ele>63.25</ele><time>2026-04-04T06:51:44.221Z</time></trkpt><trkpt lat="44.4669621" lon="11.4179915"><ele>63.0</ele><time>2026-04-04T06:51:45.22Z</time></trkpt><trkpt lat="44.4668955" lon="11.4181528"><ele>63.0</ele><time>2026-04-04T06:51:46.221Z</time></trkpt><trkpt lat="44.4668353" lon="11.4183091"><ele>63.0</ele><time>2026-04-04T06:51:47.221Z</time></trkpt><trkpt lat="44.4667857" lon="11.4184638"><ele>63.0</ele><time>2026-04-04T06:51:48.221Z</time></trkpt><trkpt lat="44.4667312" lon="11.4186229"><ele>63.0</ele><time>2026-04-04T06:51:49.221Z</time></trkpt><trkpt lat="44.4666721" lon="11.4187723"><ele>63.0</ele><time>2026-04-04T06:51:50.221Z</time></trkpt><trkpt lat="44.4666159" lon="11.4189281"><ele>63.0</ele><time>2026-04-04T06:51:51.22Z</time></trkpt><trkpt lat="44.4665597" lon="11.4190849"><ele>63.0</ele><time>2026-04-04T06:51:52.221Z</time></trkpt><trkpt lat="44.4664968" lon="11.4192474"><ele>63.0</ele><time>2026-04-04T06:51:53.22Z</time></trkpt><trkpt lat="44.4664295" lon="11.4194076"><ele>63.0</ele><time>2026-04-04T06:51:54.221Z</time></trkpt><trkpt lat="44.4663605" lon="11.419569"><ele>63.0</ele><time>2026-04-04T06:51:55.221Z</time></trkpt><trkpt lat="44.4662945" lon="11.4197334"><ele>63.0</ele><time>2026-04-04T06:51:56.221Z</time></trkpt><trkpt lat="44.4662341" lon="11.4199047"><ele>63.0</ele><time>2026-04-04T06:51:57.22Z</time></trkpt><trkpt lat="44.4661706" lon="11.4200723"><ele>63.5</ele><time>2026-04-04T06:51:58.22Z</time></trkpt><trkpt lat="44.4661034" lon="11.4202438"><ele>64.0</ele><time>2026-04-04T06:51:59.22Z</time></trkpt><trkpt lat="44.4660362" lon="11.4204212"><ele>64.5</ele><time>2026-04-04T06:52:00.22Z</time></trkpt><trkpt lat="44.4659714" lon="11.4206023"><ele>65.0</ele><time>2026-04-04T06:52:01.22Z</time></trkpt><trkpt lat="44.4659059" lon="11.420778"><ele>65.0</ele><time>2026-04-04T06:52:02.221Z</time></trkpt><trkpt lat="44.4658435" lon="11.4209389"><ele>65.0</ele><time>2026-04-04T06:52:03.22Z</time></trkpt><trkpt lat="44.4657851" lon="11.4210854"><ele>65.0</ele><time>2026-04-04T06:52:04.221Z</time></trkpt><trkpt lat="44.465729" lon="11.4212218"><ele>65.0</ele><time>2026-04-04T06:52:05.221Z</time></trkpt><trkpt lat="44.4656751" lon="11.4213601"><ele>65.25</ele><time>2026-04-04T06:52:06.22Z</time></trkpt><trkpt lat="44.4656237" lon="11.4215064"><ele>65.5</ele><time>2026-04-04T06:52:07.221Z</time></trkpt><trkpt lat="44.4655789" lon="11.4216578"><ele>65.75</ele><time>2026-04-04T06:52:08.22Z</time></trkpt><trkpt lat="44.4655384" lon="11.4218092"><ele>66.0</ele><time>2026-04-04T06:52:09.22Z</time></trkpt><trkpt lat="44.4654947" lon="11.4219468"><ele>66.0</ele><time>2026-04-04T06:52:10.22Z</time></trkpt><trkpt lat="44.4654471" lon="11.4220783"><ele>66.0</ele><time>2026-04-04T06:52:11.22Z</time></trkpt><trkpt lat="44.4653954" lon="11.4222133"><ele>66.0</ele><time>2026-04-04T06:52:12.221Z</time></trkpt><trkpt lat="44.4653389" lon="11.4223575"><ele>66.0</ele><time>2026-04-04T06:52:13.22Z</time></trkpt><trkpt lat="44.4652823" lon="11.4225052"><ele>66.0</ele><time>2026-04-04T06:52:14.22Z</time></trkpt><trkpt lat="44.4652222" lon="11.4226556"><ele>66.0</ele><time>2026-04-04T06:52:15.221Z</time></trkpt><trkpt lat="44.4651591" lon="11.4228108"><ele>66.0</ele><time>2026-04-04T06:52:16.221Z</time></trkpt><trkpt lat="44.4650993" lon="11.4229696"><ele>66.0</ele><time>2026-04-04T06:52:17.221Z</time></trkpt><trkpt lat="44.4650374" lon="11.4231284"><ele>66.0</ele><time>2026-04-04T06:52:18.221Z</time></trkpt><trkpt lat="44.4649754" lon="11.4232921"><ele>66.0</ele><time>2026-04-04T06:52:19.221Z</time></trkpt><trkpt lat="44.4649089" lon="11.4234539"><ele>66.0</ele><time>2026-04-04T06:52:20.221Z</time></trkpt><trkpt lat="44.4648449" lon="11.4236213"><ele>66.0</ele><time>2026-04-04T06:52:21.221Z</time></trkpt><trkpt lat="44.4647796" lon="11.4237944"><ele>66.0</ele><time>2026-04-04T06:52:22.22Z</time></trkpt><trkpt lat="44.4647141" lon="11.4239685"><ele>66.0</ele><time>2026-04-04T06:52:23.22Z</time></trkpt><trkpt lat="44.4646454" lon="11.4241355"><ele>66.0</ele><time>2026-04-04T06:52:24.22Z</time></trkpt><trkpt lat="44.4645788" lon="11.4243001"><ele>66.0</ele><time>2026-04-04T06:52:25.22Z</time></trkpt><trkpt lat="44.4645099" lon="11.4244697"><ele>66.0</ele><time>2026-04-04T06:52:26.221Z</time></trkpt><trkpt lat="44.464446" lon="11.4246427"><ele>66.0</ele><time>2026-04-04T06:52:27.22Z</time></trkpt><trkpt lat="44.4643826" lon="11.4248145"><ele>66.0</ele><time>2026-04-04T06:52:28.22Z</time></trkpt><trkpt lat="44.4643172" lon="11.4249825"><ele>66.0</ele><time>2026-04-04T06:52:29.22Z</time></trkpt><trkpt lat="44.4642529" lon="11.4251468"><ele>66.0</ele><time>2026-04-04T06:52:30.221Z</time></trkpt><trkpt lat="44.4641895" lon="11.4253061"><ele>66.0</ele><time>2026-04-04T06:52:31.22Z</time></trkpt><trkpt lat="44.4641279" lon="11.4254644"><ele>66.0</ele><time>2026-04-04T06:52:32.221Z</time></trkpt><trkpt lat="44.4640653" lon="11.4256207"><ele>66.0</ele><time>2026-04-04T06:52:33.221Z</time></trkpt><trkpt lat="44.4640034" lon="11.4257756"><ele>66.0</ele><time>2026-04-04T06:52:34.221Z</time></trkpt><trkpt lat="44.463944" lon="11.4259314"><ele>66.0</ele><time>2026-04-04T06:52:35.221Z</time></trkpt><trkpt lat="44.4638829" lon="11.4260925"><ele>66.0</ele><time>2026-04-04T06:52:36.221Z</time></trkpt><trkpt lat="44.4638229" lon="11.4262574"><ele>66.0</ele><time>2026-04-04T06:52:37.221Z</time></trkpt><trkpt lat="44.4637626" lon="11.4264238"><ele>66.0</ele><time>2026-04-04T06:52:38.22Z</time></trkpt><trkpt lat="44.4636998" lon="11.4265905"><ele>66.0</ele><time>2026-04-04T06:52:39.221Z</time></trkpt><trkpt lat="44.463636" lon="11.4267585"><ele>66.0</ele><time>2026-04-04T06:52:40.22Z</time></trkpt><trkpt lat="44.4635768" lon="11.4269329"><ele>66.0</ele><time>2026-04-04T06:52:41.221Z</time></trkpt><trkpt lat="44.4635149" lon="11.4271032"><ele>65.75</ele><time>2026-04-04T06:52:42.221Z</time></trkpt><trkpt lat="44.4634521" lon="11.4272693"><ele>65.5</ele><time>2026-04-04T06:52:43.221Z</time></trkpt><trkpt lat="44.4633916" lon="11.4274272"><ele>65.25</ele><time>2026-04-04T06:52:44.22Z</time></trkpt><trkpt lat="44.4633361" lon="11.4275875"><ele>65.0</ele><time>2026-04-04T06:52:45.22Z</time></trkpt><trkpt lat="44.463277" lon="11.4277496"><ele>65.0</ele><time>2026-04-04T06:52:46.221Z</time></trkpt><trkpt lat="44.4632158" lon="11.4279103"><ele>65.0</ele><time>2026-04-04T06:52:47.221Z</time></trkpt><trkpt lat="44.4631536" lon="11.4280697"><ele>65.0</ele><time>2026-04-04T06:52:48.221Z</time></trkpt><trkpt lat="44.463088" lon="11.4282336"><ele>65.0</ele><time>2026-04-04T06:52:49.22Z</time></trkpt><trkpt lat="44.4630267" lon="11.4284002"><ele>65.25</ele><time>2026-04-04T06:52:50.22Z</time></trkpt><trkpt lat="44.4629632" lon="11.4285709"><ele>65.5</ele><time>2026-04-04T06:52:51.221Z</time></trkpt><trkpt lat="44.4628972" lon="11.4287442"><ele>65.75</ele><time>2026-04-04T06:52:52.221Z</time></trkpt><trkpt lat="44.4628304" lon="11.4289181"><ele>66.0</ele><time>2026-04-04T06:52:53.22Z</time></trkpt><trkpt lat="44.4627667" lon="11.4290906"><ele>66.0</ele><time>2026-04-04T06:52:54.221Z</time></trkpt><trkpt lat="44.462705" lon="11.4292577"><ele>66.0</ele><time>2026-04-04T06:52:55.22Z</time></trkpt><trkpt lat="44.4626425" lon="11.4294173"><ele>66.0</ele><time>2026-04-04T06:52:56.221Z</time></trkpt><trkpt lat="44.4625807" lon="11.4295733"><ele>66.0</ele><time>2026-04-04T06:52:57.221Z</time></trkpt><trkpt lat="44.4625235" lon="11.4297238"><ele>66.0</ele><time>2026-04-04T06:52:58.221Z</time></trkpt><trkpt lat="44.4624718" lon="11.4298646"><ele>66.0</ele><time>2026-04-04T06:52:59.221Z</time></trkpt><trkpt lat="44.4624211" lon="11.430002"><ele>66.0</ele><time>2026-04-04T06:53:00.221Z</time></trkpt><trkpt lat="44.4623762" lon="11.430134"><ele>66.0</ele><time>2026-04-04T06:53:01.221Z</time></trkpt><trkpt lat="44.4623347" lon="11.4302531"><ele>66.0</ele><time>2026-04-04T06:53:02.221Z</time></trkpt><trkpt lat="44.4623" lon="11.4303685"><ele>66.0</ele><time>2026-04-04T06:53:03.221Z</time></trkpt><trkpt lat="44.4622451" lon="11.4305915"><ele>66.0</ele><time>2026-04-04T06:53:05.22Z</time></trkpt><trkpt lat="44.462224" lon="11.4306897"><ele>66.0</ele><time>2026-04-04T06:53:06.221Z</time></trkpt><trkpt lat="44.4621979" lon="11.4307849"><ele>66.0</ele><time>2026-04-04T06:53:07.221Z</time></trkpt><trkpt lat="44.4621561" lon="11.4308666"><ele>66.0</ele><time>2026-04-04T06:53:08.221Z</time></trkpt><trkpt lat="44.4620979" lon="11.4309375"><ele>66.0</ele><time>2026-04-04T06:53:09.221Z</time></trkpt><trkpt lat="44.4620242" lon="11.4309838"><ele>66.0</ele><time>2026-04-04T06:53:10.221Z</time></trkpt><trkpt lat="44.4619439" lon="11.4309916"><ele>66.0</ele><time>2026-04-04T06:53:11.22Z</time></trkpt><trkpt lat="44.4618605" lon="11.4309609"><ele>66.0</ele><time>2026-04-04T06:53:12.221Z</time></trkpt><trkpt lat="44.4617828" lon="11.4309115"><ele>66.0</ele><time>2026-04-04T06:53:13.22Z</time></trkpt><trkpt lat="44.4617115" lon="11.4308582"><ele>66.0</ele><time>2026-04-04T06:53:14.221Z</time></trkpt><trkpt lat="44.4616362" lon="11.4308092"><ele>66.0</ele><time>2026-04-04T06:53:15.221Z</time></trkpt><trkpt lat="44.4615523" lon="11.4307644"><ele>66.0</ele><time>2026-04-04T06:53:16.221Z</time></trkpt><trkpt lat="44.4614665" lon="11.4307218"><ele>66.0</ele><time>2026-04-04T06:53:17.221Z</time></trkpt><trkpt lat="44.4613941" lon="11.4306828"><ele>66.0</ele><time>2026-04-04T06:53:18.221Z</time></trkpt><trkpt lat="44.4613078" lon="11.4306376"><ele>66.0</ele><time>2026-04-04T06:53:20.221Z</time></trkpt><trkpt lat="44.4612917" lon="11.43073"><ele>66.0</ele><time>2026-04-04T06:53:42.221Z</time></trkpt><trkpt lat="44.461405" lon="11.43079"><ele>66.0</ele><time>2026-04-04T06:53:44.221Z</time></trkpt><trkpt lat="44.46149" lon="11.4308233"><ele>66.0</ele><time>2026-04-04T06:53:45.22Z</time></trkpt><trkpt lat="44.4615817" lon="11.4308583"><ele>66.0</ele><time>2026-04-04T06:53:46.22Z</time></trkpt><trkpt lat="44.46168" lon="11.4309017"><ele>66.0</ele><time>2026-04-04T06:53:47.22Z</time></trkpt><trkpt lat="44.4617833" lon="11.4309633"><ele>66.0</ele><time>2026-04-04T06:53:48.221Z</time></trkpt><trkpt lat="44.46186" lon="11.4310467"><ele>66.0</ele><time>2026-04-04T06:53:49.221Z</time></trkpt><trkpt lat="44.4619133" lon="11.4311667"><ele>66.0</ele><time>2026-04-04T06:53:50.221Z</time></trkpt><trkpt lat="44.4619383" lon="11.4313133"><ele>66.0</ele><time>2026-04-04T06:53:51.221Z</time></trkpt><trkpt lat="44.461935" lon="11.4314717"><ele>66.0</ele><time>2026-04-04T06:53:52.22Z</time></trkpt><trkpt lat="44.4619033" lon="11.4316317"><ele>66.0</ele><time>2026-04-04T06:53:53.22Z</time></trkpt><trkpt lat="44.461845" lon="11.431775"><ele>66.25</ele><time>2026-04-04T06:53:54.221Z</time></trkpt><trkpt lat="44.4617717" lon="11.4319033"><ele>66.5</ele><time>2026-04-04T06:53:55.22Z</time></trkpt><trkpt lat="44.4616967" lon="11.432035"><ele>66.75</ele><time>2026-04-04T06:53:56.221Z</time></trkpt><trkpt lat="44.4616233" lon="11.43217"><ele>67.0</ele><time>2026-04-04T06:53:57.221Z</time></trkpt><trkpt lat="44.4615567" lon="11.43231"><ele>67.0</ele><time>2026-04-04T06:53:58.22Z</time></trkpt><trkpt lat="44.4614933" lon="11.4324567"><ele>67.0</ele><time>2026-04-04T06:53:59.221Z</time></trkpt><trkpt lat="44.4614317" lon="11.4326033"><ele>67.0</ele><time>2026-04-04T06:54:00.221Z</time></trkpt><trkpt lat="44.46138" lon="11.4327467"><ele>67.0</ele><time>2026-04-04T06:54:01.221Z</time></trkpt><trkpt lat="44.46133" lon="11.432875"><ele>67.2</ele><time>2026-04-04T06:54:02.221Z</time></trkpt><trkpt lat="44.4612817" lon="11.4329917"><ele>67.4</ele><time>2026-04-04T06:54:03.221Z</time></trkpt><trkpt lat="44.4612367" lon="11.4331067"><ele>67.6</ele><time>2026-04-04T06:54:04.221Z</time></trkpt><trkpt lat="44.461195" lon="11.4332183"><ele>67.8</ele><time>2026-04-04T06:54:05.221Z</time></trkpt><trkpt lat="44.4611583" lon="11.43331"><ele>68.0</ele><time>2026-04-04T06:54:06.22Z</time></trkpt><trkpt lat="44.4611117" lon="11.4334317"><ele>68.0</ele><time>2026-04-04T06:54:08.221Z</time></trkpt><trkpt lat="44.46106" lon="11.43356"><ele>68.0</ele><time>2026-04-04T06:54:54.221Z</time></trkpt><trkpt lat="44.4610267" lon="11.433665"><ele>68.0</ele><time>2026-04-04T06:54:55.22Z</time></trkpt><trkpt lat="44.46099" lon="11.4337783"><ele>68.0</ele><time>2026-04-04T06:54:56.221Z</time></trkpt><trkpt lat="44.4609467" lon="11.4339083"><ele>68.0</ele><time>2026-04-04T06:54:57.221Z</time></trkpt><trkpt lat="44.460905" lon="11.4340367"><ele>67.75</ele><time>2026-04-04T06:54:58.221Z</time></trkpt><trkpt lat="44.4608567" lon="11.43417"><ele>67.5</ele><time>2026-04-04T06:54:59.22Z</time></trkpt><trkpt lat="44.460805" lon="11.43432"><ele>67.25</ele><time>2026-04-04T06:55:00.221Z</time></trkpt><trkpt lat="44.4607533" lon="11.4344667"><ele>67.0</ele><time>2026-04-04T06:55:01.221Z</time></trkpt><trkpt lat="44.4607" lon="11.434615"><ele>66.5</ele><time>2026-04-04T06:55:02.22Z</time></trkpt><trkpt lat="44.4606483" lon="11.4347633"><ele>66.0</ele><time>2026-04-04T06:55:03.22Z</time></trkpt><trkpt lat="44.4605967" lon="11.4349167"><ele>65.5</ele><time>2026-04-04T06:55:04.221Z</time></trkpt><trkpt lat="44.4605483" lon="11.435075"><ele>65.0</ele><time>2026-04-04T06:55:05.22Z</time></trkpt><trkpt lat="44.4604967" lon="11.4352333"><ele>65.25</ele><time>2026-04-04T06:55:06.22Z</time></trkpt><trkpt lat="44.4604417" lon="11.4353917"><ele>65.5</ele><time>2026-04-04T06:55:07.221Z</time></trkpt><trkpt lat="44.4603867" lon="11.43555"><ele>65.75</ele><time>2026-04-04T06:55:08.221Z</time></trkpt><trkpt lat="44.46033" lon="11.4357033"><ele>66.0</ele><time>2026-04-04T06:55:09.221Z</time></trkpt><trkpt lat="44.4602717" lon="11.435855"><ele>65.25</ele><time>2026-04-04T06:55:10.221Z</time></trkpt><trkpt lat="44.4602217" lon="11.4360133"><ele>64.5</ele><time>2026-04-04T06:55:11.221Z</time></trkpt><trkpt lat="44.4601667" lon="11.436155"><ele>63.75</ele><time>2026-04-04T06:55:12.221Z</time></trkpt><trkpt lat="44.4600983" lon="11.4362867"><ele>63.0</ele><time>2026-04-04T06:55:13.22Z</time></trkpt><trkpt lat="44.4600333" lon="11.4364183"><ele>63.0</ele><time>2026-04-04T06:55:14.221Z</time></trkpt><trkpt lat="44.4599567" lon="11.4365467"><ele>63.0</ele><time>2026-04-04T06:55:15.22Z</time></trkpt><trkpt lat="44.4598933" lon="11.4366833"><ele>63.0</ele><time>2026-04-04T06:55:16.22Z</time></trkpt><trkpt lat="44.4598283" lon="11.4368217"><ele>63.0</ele><time>2026-04-04T06:55:17.221Z</time></trkpt><trkpt lat="44.4597583" lon="11.436965"><ele>63.0</ele><time>2026-04-04T06:55:18.22Z</time></trkpt><trkpt lat="44.45968" lon="11.4370983"><ele>63.0</ele><time>2026-04-04T06:55:19.221Z</time></trkpt><trkpt lat="44.4596117" lon="11.437235"><ele>63.0</ele><time>2026-04-04T06:55:20.221Z</time></trkpt><trkpt lat="44.4595433" lon="11.43735"><ele>63.0</ele><time>2026-04-04T06:55:21.221Z</time></trkpt><trkpt lat="44.45948" lon="11.4374617"><ele>62.5</ele><time>2026-04-04T06:55:22.221Z</time></trkpt><trkpt lat="44.45942" lon="11.437555"><ele>62.0</ele><time>2026-04-04T06:55:23.221Z</time></trkpt><trkpt lat="44.4593633" lon="11.4376383"><ele>61.5</ele><time>2026-04-04T06:55:24.22Z</time></trkpt><trkpt lat="44.4593117" lon="11.4377233"><ele>61.0</ele><time>2026-04-04T06:55:25.221Z</time></trkpt><trkpt lat="44.4592583" lon="11.4378133"><ele>60.5</ele><time>2026-04-04T06:55:26.221Z</time></trkpt><trkpt lat="44.4591983" lon="11.43792"><ele>60.0</ele><time>2026-04-04T06:55:27.221Z</time></trkpt><trkpt lat="44.4591333" lon="11.43805"><ele>59.8</ele><time>2026-04-04T06:55:28.22Z</time></trkpt><trkpt lat="44.459065" lon="11.4381667"><ele>59.6</ele><time>2026-04-04T06:55:29.221Z</time></trkpt><trkpt lat="44.459005" lon="11.43825"><ele>59.400000000000006</ele><time>2026-04-04T06:55:30.221Z</time></trkpt><trkpt lat="44.458925" lon="11.43831"><ele>59.2</ele><time>2026-04-04T06:55:32.221Z</time></trkpt><trkpt lat="44.4588333" lon="11.43826"><ele>59.0</ele><time>2026-04-04T06:55:34.22Z</time></trkpt><trkpt lat="44.4587767" lon="11.4381917"><ele>59.0</ele><time>2026-04-04T06:55:35.221Z</time></trkpt><trkpt lat="44.458705" lon="11.4381317"><ele>59.00000000000001</ele><time>2026-04-04T06:55:36.221Z</time></trkpt><trkpt lat="44.458635" lon="11.438075"><ele>59.00000000000001</ele><time>2026-04-04T06:55:37.221Z</time></trkpt><trkpt lat="44.4585506" lon="11.4380256"><ele>59.0</ele><time>2026-04-04T06:55:38.221Z</time></trkpt><trkpt lat="44.4584474" lon="11.4379946"><ele>59.0</ele><time>2026-04-04T06:55:39.221Z</time></trkpt><trkpt lat="44.4583328" lon="11.4379514"><ele>59.25</ele><time>2026-04-04T06:55:40.221Z</time></trkpt><trkpt lat="44.4582142" lon="11.4379004"><ele>59.5</ele><time>2026-04-04T06:55:41.221Z</time></trkpt><trkpt lat="44.4580966" lon="11.4378404"><ele>59.75</ele><time>2026-04-04T06:55:42.22Z</time></trkpt><trkpt lat="44.4579738" lon="11.4377922"><ele>60.0</ele><time>2026-04-04T06:55:43.221Z</time></trkpt><trkpt lat="44.4578431" lon="11.4377339"><ele>60.25</ele><time>2026-04-04T06:55:44.221Z</time></trkpt><trkpt lat="44.4577085" lon="11.4376745"><ele>60.5</ele><time>2026-04-04T06:55:45.22Z</time></trkpt><trkpt lat="44.4575803" lon="11.4376175"><ele>60.75</ele><time>2026-04-04T06:55:46.221Z</time></trkpt><trkpt lat="44.4574672" lon="11.4375699"><ele>61.0</ele><time>2026-04-04T06:55:47.221Z</time></trkpt><trkpt lat="44.4573576" lon="11.4375246"><ele>61.0</ele><time>2026-04-04T06:55:48.221Z</time></trkpt><trkpt lat="44.4572501" lon="11.4374705"><ele>61.0</ele><time>2026-04-04T06:55:49.22Z</time></trkpt><trkpt lat="44.4571361" lon="11.4374093"><ele>61.0</ele><time>2026-04-04T06:55:50.221Z</time></trkpt><trkpt lat="44.4570129" lon="11.4373491"><ele>61.0</ele><time>2026-04-04T06:55:51.22Z</time></trkpt><trkpt lat="44.4568838" lon="11.4372885"><ele>61.25</ele><time>2026-04-04T06:55:52.22Z</time></trkpt><trkpt lat="44.4567542" lon="11.4372233"><ele>61.5</ele><time>2026-04-04T06:55:53.22Z</time></trkpt><trkpt lat="44.4566212" lon="11.4371532"><ele>61.75</ele><time>2026-04-04T06:55:54.221Z</time></trkpt><trkpt lat="44.4564866" lon="11.4370785"><ele>62.0</ele><time>2026-04-04T06:55:55.22Z</time></trkpt><trkpt lat="44.4563605" lon="11.436995"><ele>61.75</ele><time>2026-04-04T06:55:56.221Z</time></trkpt><trkpt lat="44.4562292" lon="11.4369162"><ele>61.5</ele><time>2026-04-04T06:55:57.221Z</time></trkpt><trkpt lat="44.4560913" lon="11.4368664"><ele>61.25</ele><time>2026-04-04T06:55:58.221Z</time></trkpt><trkpt lat="44.4559506" lon="11.4368509"><ele>61.0</ele><time>2026-04-04T06:55:59.221Z</time></trkpt><trkpt lat="44.4558092" lon="11.4368684"><ele>61.0</ele><time>2026-04-04T06:56:00.221Z</time></trkpt><trkpt lat="44.4556678" lon="11.4369095"><ele>61.0</ele><time>2026-04-04T06:56:01.22Z</time></trkpt><trkpt lat="44.4555241" lon="11.4369608"><ele>61.0</ele><time>2026-04-04T06:56:02.221Z</time></trkpt><trkpt lat="44.4552242" lon="11.4370645"><ele>61.0</ele><time>2026-04-04T06:56:04.22Z</time></trkpt><trkpt lat="44.455076" lon="11.4371177"><ele>61.0</ele><time>2026-04-04T06:56:05.22Z</time></trkpt><trkpt lat="44.4549301" lon="11.4371851"><ele>61.0</ele><time>2026-04-04T06:56:06.221Z</time></trkpt><trkpt lat="44.4547859" lon="11.4372626"><ele>61.0</ele><time>2026-04-04T06:56:07.221Z</time></trkpt><trkpt lat="44.4546449" lon="11.4373474"><ele>61.0</ele><time>2026-04-04T06:56:08.221Z</time></trkpt><trkpt lat="44.4545017" lon="11.4374365"><ele>61.0</ele><time>2026-04-04T06:56:09.221Z</time></trkpt><trkpt lat="44.4543596" lon="11.4375299"><ele>61.0</ele><time>2026-04-04T06:56:10.221Z</time></trkpt><trkpt lat="44.4542193" lon="11.4376302"><ele>61.0</ele><time>2026-04-04T06:56:11.221Z</time></trkpt><trkpt lat="44.4540795" lon="11.4377297"><ele>61.0</ele><time>2026-04-04T06:56:12.221Z</time></trkpt><trkpt lat="44.4539302" lon="11.4378126"><ele>61.0</ele><time>2026-04-04T06:56:13.221Z</time></trkpt><trkpt lat="44.4537824" lon="11.4378907"><ele>61.0</ele><time>2026-04-04T06:56:14.221Z</time></trkpt><trkpt lat="44.4536336" lon="11.4379814"><ele>61.0</ele><time>2026-04-04T06:56:15.221Z</time></trkpt><trkpt lat="44.4534916" lon="11.4380945"><ele>60.33333333333333</ele><time>2026-04-04T06:56:16.22Z</time></trkpt><trkpt lat="44.4533667" lon="11.4382322"><ele>59.66666666666667</ele><time>2026-04-04T06:56:17.221Z</time></trkpt><trkpt lat="44.4532511" lon="11.4383753"><ele>59.0</ele><time>2026-04-04T06:56:18.22Z</time></trkpt><trkpt lat="44.4531267" lon="11.4385064"><ele>59.0</ele><time>2026-04-04T06:56:19.22Z</time></trkpt><trkpt lat="44.4529823" lon="11.438629"><ele>59.0</ele><time>2026-04-04T06:56:20.221Z</time></trkpt><trkpt lat="44.4528291" lon="11.4387441"><ele>59.0</ele><time>2026-04-04T06:56:21.221Z</time></trkpt><trkpt lat="44.4526734" lon="11.4388525"><ele>59.0</ele><time>2026-04-04T06:56:22.22Z</time></trkpt><trkpt lat="44.4525188" lon="11.4389571"><ele>59.0</ele><time>2026-04-04T06:56:23.221Z</time></trkpt><trkpt lat="44.4523606" lon="11.4390542"><ele>59.0</ele><time>2026-04-04T06:56:24.221Z</time></trkpt><trkpt lat="44.4521994" lon="11.4391415"><ele>59.66666666666667</ele><time>2026-04-04T06:56:25.221Z</time></trkpt><trkpt lat="44.4520385" lon="11.4392252"><ele>60.33333333333333</ele><time>2026-04-04T06:56:26.221Z</time></trkpt><trkpt lat="44.4518847" lon="11.439306"><ele>61.0</ele><time>2026-04-04T06:56:27.221Z</time></trkpt><trkpt lat="44.4517345" lon="11.4393847"><ele>61.0</ele><time>2026-04-04T06:56:28.221Z</time></trkpt><trkpt lat="44.4515824" lon="11.4394653"><ele>61.0</ele><time>2026-04-04T06:56:29.221Z</time></trkpt><trkpt lat="44.4514331" lon="11.4395477"><ele>61.0</ele><time>2026-04-04T06:56:30.221Z</time></trkpt><trkpt lat="44.4512794" lon="11.4396311"><ele>61.33333333333333</ele><time>2026-04-04T06:56:31.221Z</time></trkpt><trkpt lat="44.4511266" lon="11.4397195"><ele>61.66666666666667</ele><time>2026-04-04T06:56:32.221Z</time></trkpt><trkpt lat="44.4509837" lon="11.4398109"><ele>62.0</ele><time>2026-04-04T06:56:33.22Z</time></trkpt><trkpt lat="44.450854" lon="11.4398865"><ele>62.0</ele><time>2026-04-04T06:56:34.221Z</time></trkpt><trkpt lat="44.4507287" lon="11.43994"><ele>62.0</ele><time>2026-04-04T06:56:35.22Z</time></trkpt><trkpt lat="44.4506088" lon="11.439952"><ele>62.0</ele><time>2026-04-04T06:56:36.22Z</time></trkpt><trkpt lat="44.4504919" lon="11.4399269"><ele>62.0</ele><time>2026-04-04T06:56:37.221Z</time></trkpt><trkpt lat="44.4503721" lon="11.4398635"><ele>62.0</ele><time>2026-04-04T06:56:38.221Z</time></trkpt><trkpt lat="44.4502509" lon="11.4397846"><ele>62.0</ele><time>2026-04-04T06:56:39.221Z</time></trkpt><trkpt lat="44.4501269" lon="11.4397"><ele>62.0</ele><time>2026-04-04T06:56:40.221Z</time></trkpt><trkpt lat="44.4500113" lon="11.4396144"><ele>62.0</ele><time>2026-04-04T06:56:41.22Z</time></trkpt><trkpt lat="44.4499089" lon="11.43953"><ele>62.0</ele><time>2026-04-04T06:56:42.22Z</time></trkpt><trkpt lat="44.4498145" lon="11.4394429"><ele>62.0</ele><time>2026-04-04T06:56:43.221Z</time></trkpt><trkpt lat="44.4497267" lon="11.4393441"><ele>62.0</ele><time>2026-04-04T06:56:44.221Z</time></trkpt><trkpt lat="44.4496438" lon="11.4392502"><ele>62.0</ele><time>2026-04-04T06:56:45.22Z</time></trkpt><trkpt lat="44.4495635" lon="11.4391603"><ele>62.0</ele><time>2026-04-04T06:56:46.221Z</time></trkpt><trkpt lat="44.4494883" lon="11.4390545"><ele>62.25</ele><time>2026-04-04T06:56:47.22Z</time></trkpt><trkpt lat="44.4494072" lon="11.4389514"><ele>62.5</ele><time>2026-04-04T06:56:48.22Z</time></trkpt><trkpt lat="44.4493118" lon="11.4388465"><ele>62.75</ele><time>2026-04-04T06:56:49.221Z</time></trkpt><trkpt lat="44.4492125" lon="11.4387434"><ele>63.0</ele><time>2026-04-04T06:56:50.221Z</time></trkpt><trkpt lat="44.4491136" lon="11.4386302"><ele>63.5</ele><time>2026-04-04T06:56:51.221Z</time></trkpt><trkpt lat="44.4490208" lon="11.4385057"><ele>64.0</ele><time>2026-04-04T06:56:52.22Z</time></trkpt><trkpt lat="44.4489414" lon="11.4383701"><ele>64.5</ele><time>2026-04-04T06:56:53.22Z</time></trkpt><trkpt lat="44.4488684" lon="11.438232"><ele>65.0</ele><time>2026-04-04T06:56:54.221Z</time></trkpt><trkpt lat="44.4488066" lon="11.4380909"><ele>65.5</ele><time>2026-04-04T06:56:55.22Z</time></trkpt><trkpt lat="44.4487467" lon="11.4379415"><ele>66.0</ele><time>2026-04-04T06:56:56.22Z</time></trkpt><trkpt lat="44.4486997" lon="11.4377866"><ele>66.5</ele><time>2026-04-04T06:56:57.221Z</time></trkpt><trkpt lat="44.4486638" lon="11.4376324"><ele>67.0</ele><time>2026-04-04T06:56:58.221Z</time></trkpt><trkpt lat="44.4486334" lon="11.4374824"><ele>67.0</ele><time>2026-04-04T06:56:59.22Z</time></trkpt><trkpt lat="44.4486054" lon="11.4373283"><ele>67.0</ele><time>2026-04-04T06:57:00.22Z</time></trkpt><trkpt lat="44.4485851" lon="11.4371683"><ele>67.0</ele><time>2026-04-04T06:57:01.221Z</time></trkpt><trkpt lat="44.4485717" lon="11.4369994"><ele>67.0</ele><time>2026-04-04T06:57:02.221Z</time></trkpt><trkpt lat="44.4485608" lon="11.4368262"><ele>66.6</ele><time>2026-04-04T06:57:03.22Z</time></trkpt><trkpt lat="44.4485428" lon="11.4366618"><ele>66.2</ele><time>2026-04-04T06:57:04.221Z</time></trkpt><trkpt lat="44.4485235" lon="11.4365142"><ele>65.8</ele><time>2026-04-04T06:57:05.221Z</time></trkpt><trkpt lat="44.4484814" lon="11.4363791"><ele>65.4</ele><time>2026-04-04T06:57:06.22Z</time></trkpt><trkpt lat="44.4484201" lon="11.4362554"><ele>65.0</ele><time>2026-04-04T06:57:07.221Z</time></trkpt><trkpt lat="44.4483363" lon="11.4361468"><ele>65.0</ele><time>2026-04-04T06:57:08.221Z</time></trkpt><trkpt lat="44.4482314" lon="11.4360595"><ele>65.0</ele><time>2026-04-04T06:57:09.221Z</time></trkpt><trkpt lat="44.4481109" lon="11.4359878"><ele>65.0</ele><time>2026-04-04T06:57:10.22Z</time></trkpt><trkpt lat="44.4479808" lon="11.4359307"><ele>65.0</ele><time>2026-04-04T06:57:11.221Z</time></trkpt><trkpt lat="44.4478563" lon="11.4358799"><ele>64.75</ele><time>2026-04-04T06:57:12.22Z</time></trkpt><trkpt lat="44.4477403" lon="11.4358435"><ele>64.5</ele><time>2026-04-04T06:57:13.22Z</time></trkpt><trkpt lat="44.4476261" lon="11.4358139"><ele>64.25</ele><time>2026-04-04T06:57:14.221Z</time></trkpt><trkpt lat="44.4475058" lon="11.4357954"><ele>64.0</ele><time>2026-04-04T06:57:15.22Z</time></trkpt><trkpt lat="44.4473826" lon="11.4357891"><ele>64.0</ele><time>2026-04-04T06:57:16.221Z</time></trkpt><trkpt lat="44.4472554" lon="11.4357895"><ele>64.0</ele><time>2026-04-04T06:57:17.221Z</time></trkpt><trkpt lat="44.4471265" lon="11.4357677"><ele>64.0</ele><time>2026-04-04T06:57:18.221Z</time></trkpt><trkpt lat="44.4470009" lon="11.4357328"><ele>64.0</ele><time>2026-04-04T06:57:19.22Z</time></trkpt><trkpt lat="44.4468859" lon="11.4356703"><ele>64.16666666666666</ele><time>2026-04-04T06:57:20.221Z</time></trkpt><trkpt lat="44.4467853" lon="11.435609"><ele>64.33333333333333</ele><time>2026-04-04T06:57:21.221Z</time></trkpt><trkpt lat="44.4466967" lon="11.435557"><ele>64.5</ele><time>2026-04-04T06:57:22.22Z</time></trkpt><trkpt lat="44.4466232" lon="11.4355118"><ele>64.66666666666667</ele><time>2026-04-04T06:57:23.22Z</time></trkpt><trkpt lat="44.446562" lon="11.4354663"><ele>64.83333333333334</ele><time>2026-04-04T06:57:24.221Z</time></trkpt><trkpt lat="44.446485" lon="11.4353972"><ele>65.0</ele><time>2026-04-04T06:57:26.22Z</time></trkpt><trkpt lat="44.446418" lon="11.4353371"><ele>65.2</ele><time>2026-04-04T06:57:28.22Z</time></trkpt><trkpt lat="44.4462981" lon="11.4352535"><ele>65.4</ele><time>2026-04-04T06:57:30.221Z</time></trkpt><trkpt lat="44.4462134" lon="11.4351987"><ele>65.6</ele><time>2026-04-04T06:57:31.221Z</time></trkpt><trkpt lat="44.4461226" lon="11.4351333"><ele>65.8</ele><time>2026-04-04T06:57:32.22Z</time></trkpt><trkpt lat="44.4460278" lon="11.4350663"><ele>66.0</ele><time>2026-04-04T06:57:33.221Z</time></trkpt><trkpt lat="44.4459296" lon="11.4350145"><ele>66.39999999999999</ele><time>2026-04-04T06:57:34.221Z</time></trkpt><trkpt lat="44.4458156" lon="11.4349987"><ele>66.8</ele><time>2026-04-04T06:57:35.22Z</time></trkpt><trkpt lat="44.4457029" lon="11.4350145"><ele>67.19999999999999</ele><time>2026-04-04T06:57:36.221Z</time></trkpt><trkpt lat="44.4456006" lon="11.4350321"><ele>67.6</ele><time>2026-04-04T06:57:37.221Z</time></trkpt><trkpt lat="44.4455161" lon="11.4350215"><ele>68.0</ele><time>2026-04-04T06:57:38.221Z</time></trkpt><trkpt lat="44.4454438" lon="11.4349783"><ele>67.5</ele><time>2026-04-04T06:57:39.221Z</time></trkpt><trkpt lat="44.4453897" lon="11.4348749"><ele>67.0</ele><time>2026-04-04T06:57:40.221Z</time></trkpt><trkpt lat="44.4453489" lon="11.4347347"><ele>66.5</ele><time>2026-04-04T06:57:41.221Z</time></trkpt><trkpt lat="44.4453299" lon="11.4345473"><ele>66.0</ele><time>2026-04-04T06:57:42.221Z</time></trkpt><trkpt lat="44.4453097" lon="11.4343364"><ele>66.0</ele><time>2026-04-04T06:57:43.221Z</time></trkpt><trkpt lat="44.4452845" lon="11.4341255"><ele>66.0</ele><time>2026-04-04T06:57:44.22Z</time></trkpt><trkpt lat="44.4452458" lon="11.4339456"><ele>66.0</ele><time>2026-04-04T06:57:45.221Z</time></trkpt><trkpt lat="44.4451758" lon="11.4338066"><ele>66.0</ele><time>2026-04-04T06:57:46.221Z</time></trkpt><trkpt lat="44.445072" lon="11.4337084"><ele>66.75</ele><time>2026-04-04T06:57:47.221Z</time></trkpt><trkpt lat="44.4449474" lon="11.433637"><ele>67.5</ele><time>2026-04-04T06:57:48.221Z</time></trkpt><trkpt lat="44.4448106" lon="11.4335733"><ele>68.25</ele><time>2026-04-04T06:57:49.221Z</time></trkpt><trkpt lat="44.4446713" lon="11.433511"><ele>69.0</ele><time>2026-04-04T06:57:50.22Z</time></trkpt><trkpt lat="44.4445352" lon="11.4334426"><ele>70.75</ele><time>2026-04-04T06:57:51.221Z</time></trkpt><trkpt lat="44.4444086" lon="11.4333724"><ele>72.5</ele><time>2026-04-04T06:57:52.22Z</time></trkpt><trkpt lat="44.4442905" lon="11.4333232"><ele>74.25</ele><time>2026-04-04T06:57:53.22Z</time></trkpt><trkpt lat="44.4441731" lon="11.4333241"><ele>76.0</ele><time>2026-04-04T06:57:54.221Z</time></trkpt><trkpt lat="44.4440573" lon="11.4333836"><ele>76.0</ele><time>2026-04-04T06:57:55.221Z</time></trkpt><trkpt lat="44.4439496" lon="11.4334852"><ele>76.0</ele><time>2026-04-04T06:57:56.221Z</time></trkpt><trkpt lat="44.4438509" lon="11.4336044"><ele>76.0</ele><time>2026-04-04T06:57:57.221Z</time></trkpt><trkpt lat="44.4437489" lon="11.4337239"><ele>76.0</ele><time>2026-04-04T06:57:58.22Z</time></trkpt><trkpt lat="44.4436377" lon="11.4338344"><ele>77.0</ele><time>2026-04-04T06:57:59.221Z</time></trkpt><trkpt lat="44.4435194" lon="11.4339208"><ele>78.0</ele><time>2026-04-04T06:58:00.221Z</time></trkpt><trkpt lat="44.4434011" lon="11.4339871"><ele>79.0</ele><time>2026-04-04T06:58:01.22Z</time></trkpt><trkpt lat="44.4432923" lon="11.434058"><ele>80.0</ele><time>2026-04-04T06:58:02.221Z</time></trkpt><trkpt lat="44.4432013" lon="11.4341595"><ele>80.0</ele><time>2026-04-04T06:58:03.22Z</time></trkpt><trkpt lat="44.4431285" lon="11.4342931"><ele>80.0</ele><time>2026-04-04T06:58:04.221Z</time></trkpt><trkpt lat="44.4430719" lon="11.4344355"><ele>80.0</ele><time>2026-04-04T06:58:05.22Z</time></trkpt><trkpt lat="44.4430397" lon="11.4345652"><ele>80.0</ele><time>2026-04-04T06:58:06.221Z</time></trkpt><trkpt lat="44.4430134" lon="11.4346725"><ele>80.0</ele><time>2026-04-04T06:58:07.221Z</time></trkpt><trkpt lat="44.4429755" lon="11.4347441"><ele>80.8</ele><time>2026-04-04T06:58:08.22Z</time></trkpt><trkpt lat="44.4428563" lon="11.4347907"><ele>81.6</ele><time>2026-04-04T06:58:10.221Z</time></trkpt><trkpt lat="44.442775" lon="11.4347568"><ele>82.4</ele><time>2026-04-04T06:58:11.221Z</time></trkpt><trkpt lat="44.442684" lon="11.4346993"><ele>83.2</ele><time>2026-04-04T06:58:12.221Z</time></trkpt><trkpt lat="44.4425825" lon="11.4346363"><ele>84.0</ele><time>2026-04-04T06:58:13.221Z</time></trkpt><trkpt lat="44.4424837" lon="11.4345714"><ele>84.0</ele><time>2026-04-04T06:58:14.221Z</time></trkpt><trkpt lat="44.4423825" lon="11.4345045"><ele>84.0</ele><time>2026-04-04T06:58:15.221Z</time></trkpt><trkpt lat="44.4422692" lon="11.4344383"><ele>84.0</ele><time>2026-04-04T06:58:16.22Z</time></trkpt><trkpt lat="44.4421459" lon="11.4343852"><ele>84.0</ele><time>2026-04-04T06:58:17.221Z</time></trkpt><trkpt lat="44.4420137" lon="11.4343493"><ele>85.5</ele><time>2026-04-04T06:58:18.221Z</time></trkpt><trkpt lat="44.4418778" lon="11.4343161"><ele>87.0</ele><time>2026-04-04T06:58:19.22Z</time></trkpt><trkpt lat="44.4417394" lon="11.434282"><ele>88.5</ele><time>2026-04-04T06:58:20.22Z</time></trkpt><trkpt lat="44.441603" lon="11.4342396"><ele>90.0</ele><time>2026-04-04T06:58:21.221Z</time></trkpt><trkpt lat="44.4414665" lon="11.4341848"><ele>90.0</ele><time>2026-04-04T06:58:22.22Z</time></trkpt><trkpt lat="44.4413405" lon="11.4340972"><ele>90.0</ele><time>2026-04-04T06:58:23.22Z</time></trkpt><trkpt lat="44.4412227" lon="11.4339887"><ele>90.0</ele><time>2026-04-04T06:58:24.22Z</time></trkpt><trkpt lat="44.4411037" lon="11.4338693"><ele>90.0</ele><time>2026-04-04T06:58:25.22Z</time></trkpt><trkpt lat="44.4409734" lon="11.4337489"><ele>91.66666666666667</ele><time>2026-04-04T06:58:26.221Z</time></trkpt><trkpt lat="44.4408318" lon="11.4336317"><ele>93.33333333333334</ele><time>2026-04-04T06:58:27.221Z</time></trkpt><trkpt lat="44.4406878" lon="11.4335166"><ele>95.0</ele><time>2026-04-04T06:58:28.222Z</time></trkpt><trkpt lat="44.4405437" lon="11.4334082"><ele>93.66666666666667</ele><time>2026-04-04T06:58:29.222Z</time></trkpt><trkpt lat="44.4403963" lon="11.4333102"><ele>92.33333333333333</ele><time>2026-04-04T06:58:30.222Z</time></trkpt><trkpt lat="44.4402541" lon="11.4332117"><ele>91.0</ele><time>2026-04-04T06:58:31.221Z</time></trkpt><trkpt lat="44.440122" lon="11.4331007"><ele>91.0</ele><time>2026-04-04T06:58:32.221Z</time></trkpt><trkpt lat="44.4399924" lon="11.4329774"><ele>91.0</ele><time>2026-04-04T06:58:33.222Z</time></trkpt><trkpt lat="44.4398693" lon="11.4328448"><ele>91.0</ele><time>2026-04-04T06:58:34.222Z</time></trkpt><trkpt lat="44.4397477" lon="11.4327102"><ele>92.0</ele><time>2026-04-04T06:58:35.222Z</time></trkpt><trkpt lat="44.4396155" lon="11.4325904"><ele>93.0</ele><time>2026-04-04T06:58:36.221Z</time></trkpt><trkpt lat="44.4394637" lon="11.4324884"><ele>94.0</ele><time>2026-04-04T06:58:37.221Z</time></trkpt><trkpt lat="44.4393067" lon="11.4324"><ele>94.0</ele><time>2026-04-04T06:58:38.222Z</time></trkpt><trkpt lat="44.4391474" lon="11.4323194"><ele>94.0</ele><time>2026-04-04T06:58:39.222Z</time></trkpt><trkpt lat="44.4389921" lon="11.4322329"><ele>94.0</ele><time>2026-04-04T06:58:40.221Z</time></trkpt><trkpt lat="44.4388449" lon="11.4321375"><ele>95.5</ele><time>2026-04-04T06:58:41.221Z</time></trkpt><trkpt lat="44.4387143" lon="11.4320346"><ele>97.0</ele><time>2026-04-04T06:58:42.221Z</time></trkpt><trkpt lat="44.4386106" lon="11.4319305"><ele>98.5</ele><time>2026-04-04T06:58:43.222Z</time></trkpt><trkpt lat="44.4385235" lon="11.4318396"><ele>100.0</ele><time>2026-04-04T06:58:44.222Z</time></trkpt><trkpt lat="44.4384287" lon="11.4317695"><ele>100.0</ele><time>2026-04-04T06:58:45.221Z</time></trkpt><trkpt lat="44.4383173" lon="11.4317247"><ele>100.0</ele><time>2026-04-04T06:58:46.221Z</time></trkpt><trkpt lat="44.4381868" lon="11.4316995"><ele>100.0</ele><time>2026-04-04T06:58:47.221Z</time></trkpt><trkpt lat="44.4380534" lon="11.4316832"><ele>100.0</ele><time>2026-04-04T06:58:48.222Z</time></trkpt><trkpt lat="44.4379142" lon="11.4316689"><ele>99.0</ele><time>2026-04-04T06:58:49.222Z</time></trkpt><trkpt lat="44.4377716" lon="11.4316537"><ele>98.0</ele><time>2026-04-04T06:58:50.221Z</time></trkpt><trkpt lat="44.4376264" lon="11.431633"><ele>97.0</ele><time>2026-04-04T06:58:51.222Z</time></trkpt><trkpt lat="44.437477" lon="11.4316039"><ele>96.0</ele><time>2026-04-04T06:58:52.222Z</time></trkpt><trkpt lat="44.437325" lon="11.4315761"><ele>96.0</ele><time>2026-04-04T06:58:53.222Z</time></trkpt><trkpt lat="44.4371739" lon="11.4315478"><ele>96.0</ele><time>2026-04-04T06:58:54.222Z</time></trkpt><trkpt lat="44.4370279" lon="11.4315175"><ele>96.0</ele><time>2026-04-04T06:58:55.221Z</time></trkpt><trkpt lat="44.4368847" lon="11.4314898"><ele>96.0</ele><time>2026-04-04T06:58:56.221Z</time></trkpt><trkpt lat="44.4367444" lon="11.4314677"><ele>95.5</ele><time>2026-04-04T06:58:57.222Z</time></trkpt><trkpt lat="44.4366065" lon="11.4314557"><ele>95.0</ele><time>2026-04-04T06:58:58.222Z</time></trkpt><trkpt lat="44.4364625" lon="11.4314439"><ele>94.5</ele><time>2026-04-04T06:58:59.222Z</time></trkpt><trkpt lat="44.4363175" lon="11.4314423"><ele>94.0</ele><time>2026-04-04T06:59:00.222Z</time></trkpt><trkpt lat="44.4361643" lon="11.4314475"><ele>92.66666666666666</ele><time>2026-04-04T06:59:01.222Z</time></trkpt><trkpt lat="44.4360085" lon="11.4314538"><ele>91.33333333333333</ele><time>2026-04-04T06:59:02.222Z</time></trkpt><trkpt lat="44.4358544" lon="11.4314672"><ele>90.0</ele><time>2026-04-04T06:59:03.221Z</time></trkpt><trkpt lat="44.4356994" lon="11.4314818"><ele>90.0</ele><time>2026-04-04T06:59:04.222Z</time></trkpt><trkpt lat="44.4355412" lon="11.4314968"><ele>90.0</ele><time>2026-04-04T06:59:05.221Z</time></trkpt><trkpt lat="44.435384" lon="11.4315177"><ele>90.0</ele><time>2026-04-04T06:59:06.222Z</time></trkpt><trkpt lat="44.4352219" lon="11.4315495"><ele>88.66666666666667</ele><time>2026-04-04T06:59:07.222Z</time></trkpt><trkpt lat="44.4350584" lon="11.4315942"><ele>87.33333333333334</ele><time>2026-04-04T06:59:08.222Z</time></trkpt><trkpt lat="44.4348939" lon="11.4316465"><ele>86.0</ele><time>2026-04-04T06:59:09.222Z</time></trkpt><trkpt lat="44.4347209" lon="11.4316978"><ele>84.0</ele><time>2026-04-04T06:59:10.222Z</time></trkpt><trkpt lat="44.434545" lon="11.4317416"><ele>82.0</ele><time>2026-04-04T06:59:11.222Z</time></trkpt><trkpt lat="44.4343738" lon="11.4317812"><ele>80.0</ele><time>2026-04-04T06:59:12.221Z</time></trkpt><trkpt lat="44.4342051" lon="11.4318245"><ele>80.0</ele><time>2026-04-04T06:59:13.221Z</time></trkpt><trkpt lat="44.4340454" lon="11.4318685"><ele>80.0</ele><time>2026-04-04T06:59:14.222Z</time></trkpt><trkpt lat="44.4338967" lon="11.4319194"><ele>80.0</ele><time>2026-04-04T06:59:15.222Z</time></trkpt><trkpt lat="44.4337584" lon="11.4319903"><ele>78.66666666666667</ele><time>2026-04-04T06:59:16.222Z</time></trkpt><trkpt lat="44.433627" lon="11.4320833"><ele>77.33333333333333</ele><time>2026-04-04T06:59:17.222Z</time></trkpt><trkpt lat="44.4334957" lon="11.4321956"><ele>76.0</ele><time>2026-04-04T06:59:18.222Z</time></trkpt><trkpt lat="44.4333668" lon="11.4323219"><ele>76.0</ele><time>2026-04-04T06:59:19.221Z</time></trkpt><trkpt lat="44.433248" lon="11.4324381"><ele>76.0</ele><time>2026-04-04T06:59:20.221Z</time></trkpt><trkpt lat="44.4331413" lon="11.432528"><ele>76.0</ele><time>2026-04-04T06:59:21.221Z</time></trkpt><trkpt lat="44.4330347" lon="11.4325785"><ele>76.0</ele><time>2026-04-04T06:59:22.221Z</time></trkpt><trkpt lat="44.4329229" lon="11.4325903"><ele>76.0</ele><time>2026-04-04T06:59:23.222Z</time></trkpt><trkpt lat="44.4328041" lon="11.432557"><ele>76.0</ele><time>2026-04-04T06:59:24.221Z</time></trkpt><trkpt lat="44.4326788" lon="11.4324957"><ele>76.0</ele><time>2026-04-04T06:59:25.222Z</time></trkpt><trkpt lat="44.4325459" lon="11.4324154"><ele>76.0</ele><time>2026-04-04T06:59:26.222Z</time></trkpt><trkpt lat="44.432408" lon="11.4323301"><ele>76.0</ele><time>2026-04-04T06:59:27.222Z</time></trkpt><trkpt lat="44.4322652" lon="11.4322458"><ele>76.0</ele><time>2026-04-04T06:59:28.222Z</time></trkpt><trkpt lat="44.4321208" lon="11.4321591"><ele>76.0</ele><time>2026-04-04T06:59:29.221Z</time></trkpt><trkpt lat="44.4319901" lon="11.4320797"><ele>76.75</ele><time>2026-04-04T06:59:30.222Z</time></trkpt><trkpt lat="44.4318691" lon="11.4320038"><ele>77.5</ele><time>2026-04-04T06:59:31.222Z</time></trkpt><trkpt lat="44.4317551" lon="11.4319375"><ele>78.25</ele><time>2026-04-04T06:59:32.221Z</time></trkpt><trkpt lat="44.4316387" lon="11.4318696"><ele>79.0</ele><time>2026-04-04T06:59:33.221Z</time></trkpt><trkpt lat="44.4315234" lon="11.4318063"><ele>79.0</ele><time>2026-04-04T06:59:34.222Z</time></trkpt><trkpt lat="44.4314076" lon="11.4317432"><ele>79.0</ele><time>2026-04-04T06:59:35.222Z</time></trkpt><trkpt lat="44.4312917" lon="11.4316826"><ele>79.0</ele><time>2026-04-04T06:59:36.222Z</time></trkpt><trkpt lat="44.4311753" lon="11.4316187"><ele>79.0</ele><time>2026-04-04T06:59:37.222Z</time></trkpt><trkpt lat="44.4310556" lon="11.4315568"><ele>78.75</ele><time>2026-04-04T06:59:38.221Z</time></trkpt><trkpt lat="44.4309325" lon="11.4314906"><ele>78.5</ele><time>2026-04-04T06:59:39.221Z</time></trkpt><trkpt lat="44.4308034" lon="11.4314133"><ele>78.25</ele><time>2026-04-04T06:59:40.221Z</time></trkpt><trkpt lat="44.4306738" lon="11.4313341"><ele>78.0</ele><time>2026-04-04T06:59:41.221Z</time></trkpt><trkpt lat="44.4305416" lon="11.4312566"><ele>78.0</ele><time>2026-04-04T06:59:42.222Z</time></trkpt><trkpt lat="44.4304" lon="11.4311857"><ele>78.0</ele><time>2026-04-04T06:59:43.222Z</time></trkpt><trkpt lat="44.4302563" lon="11.4311154"><ele>78.0</ele><time>2026-04-04T06:59:44.221Z</time></trkpt><trkpt lat="44.430116" lon="11.4310445"><ele>78.0</ele><time>2026-04-04T06:59:45.222Z</time></trkpt><trkpt lat="44.4299886" lon="11.4309716"><ele>78.0</ele><time>2026-04-04T06:59:46.221Z</time></trkpt><trkpt lat="44.4298731" lon="11.4308832"><ele>78.0</ele><time>2026-04-04T06:59:47.222Z</time></trkpt><trkpt lat="44.4297582" lon="11.4307757"><ele>78.0</ele><time>2026-04-04T06:59:48.222Z</time></trkpt><trkpt lat="44.4296487" lon="11.4306409"><ele>77.66666666666667</ele><time>2026-04-04T06:59:49.222Z</time></trkpt><trkpt lat="44.4295453" lon="11.4304832"><ele>77.33333333333334</ele><time>2026-04-04T06:59:50.222Z</time></trkpt><trkpt lat="44.4294471" lon="11.4303089"><ele>77.0</ele><time>2026-04-04T06:59:51.222Z</time></trkpt><trkpt lat="44.4293573" lon="11.4301259"><ele>77.66666666666667</ele><time>2026-04-04T06:59:52.222Z</time></trkpt><trkpt lat="44.4292654" lon="11.4299414"><ele>78.33333333333333</ele><time>2026-04-04T06:59:53.222Z</time></trkpt><trkpt lat="44.4291725" lon="11.4297517"><ele>79.0</ele><time>2026-04-04T06:59:54.222Z</time></trkpt><trkpt lat="44.4290778" lon="11.4295595"><ele>78.66666666666666</ele><time>2026-04-04T06:59:55.221Z</time></trkpt><trkpt lat="44.42898" lon="11.4293681"><ele>78.33333333333333</ele><time>2026-04-04T06:59:56.221Z</time></trkpt><trkpt lat="44.4288789" lon="11.4291774"><ele>78.0</ele><time>2026-04-04T06:59:57.221Z</time></trkpt><trkpt lat="44.4287751" lon="11.4289912"><ele>80.33333333333333</ele><time>2026-04-04T06:59:58.222Z</time></trkpt><trkpt lat="44.4286667" lon="11.4288089"><ele>82.66666666666666</ele><time>2026-04-04T06:59:59.222Z</time></trkpt><trkpt lat="44.428553" lon="11.4286287"><ele>85.0</ele><time>2026-04-04T07:00:00.222Z</time></trkpt><trkpt lat="44.4284362" lon="11.4284566"><ele>85.0</ele><time>2026-04-04T07:00:01.222Z</time></trkpt><trkpt lat="44.4283147" lon="11.4282931"><ele>85.0</ele><time>2026-04-04T07:00:02.221Z</time></trkpt><trkpt lat="44.4281881" lon="11.4281477"><ele>85.0</ele><time>2026-04-04T07:00:03.221Z</time></trkpt><trkpt lat="44.4280597" lon="11.4280082"><ele>85.75</ele><time>2026-04-04T07:00:04.221Z</time></trkpt><trkpt lat="44.4279361" lon="11.4278842"><ele>86.5</ele><time>2026-04-04T07:00:05.222Z</time></trkpt><trkpt lat="44.4278158" lon="11.4277679"><ele>87.25</ele><time>2026-04-04T07:00:06.222Z</time></trkpt><trkpt lat="44.4276981" lon="11.4276558"><ele>88.0</ele><time>2026-04-04T07:00:07.221Z</time></trkpt><trkpt lat="44.4275757" lon="11.427557"><ele>88.0</ele><time>2026-04-04T07:00:08.222Z</time></trkpt><trkpt lat="44.4274407" lon="11.4274688"><ele>88.0</ele><time>2026-04-04T07:00:09.222Z</time></trkpt><trkpt lat="44.4273044" lon="11.4273965"><ele>88.0</ele><time>2026-04-04T07:00:10.221Z</time></trkpt><trkpt lat="44.4271507" lon="11.4273247"><ele>86.33333333333333</ele><time>2026-04-04T07:00:11.222Z</time></trkpt><trkpt lat="44.4269943" lon="11.4272477"><ele>84.66666666666667</ele><time>2026-04-04T07:00:12.221Z</time></trkpt><trkpt lat="44.4268352" lon="11.4271577"><ele>83.0</ele><time>2026-04-04T07:00:13.222Z</time></trkpt><trkpt lat="44.4266781" lon="11.4270684"><ele>83.0</ele><time>2026-04-04T07:00:14.222Z</time></trkpt><trkpt lat="44.4265186" lon="11.4269745"><ele>83.0</ele><time>2026-04-04T07:00:15.221Z</time></trkpt><trkpt lat="44.4263602" lon="11.4268829"><ele>83.0</ele><time>2026-04-04T07:00:16.221Z</time></trkpt><trkpt lat="44.4262031" lon="11.426795"><ele>83.0</ele><time>2026-04-04T07:00:17.221Z</time></trkpt><trkpt lat="44.4260468" lon="11.4267046"><ele>83.0</ele><time>2026-04-04T07:00:18.222Z</time></trkpt><trkpt lat="44.425893" lon="11.4266136"><ele>83.0</ele><time>2026-04-04T07:00:19.221Z</time></trkpt><trkpt lat="44.4257373" lon="11.4265232"><ele>83.0</ele><time>2026-04-04T07:00:20.221Z</time></trkpt><trkpt lat="44.4255822" lon="11.4264352"><ele>83.0</ele><time>2026-04-04T07:00:21.222Z</time></trkpt><trkpt lat="44.4254321" lon="11.426347"><ele>83.0</ele><time>2026-04-04T07:00:22.222Z</time></trkpt><trkpt lat="44.4252836" lon="11.4262595"><ele>84.0</ele><time>2026-04-04T07:00:23.222Z</time></trkpt><trkpt lat="44.425134" lon="11.426172"><ele>85.0</ele><time>2026-04-04T07:00:24.222Z</time></trkpt><trkpt lat="44.4249783" lon="11.4260853"><ele>86.0</ele><time>2026-04-04T07:00:25.222Z</time></trkpt><trkpt lat="44.424824" lon="11.4259998"><ele>86.0</ele><time>2026-04-04T07:00:26.221Z</time></trkpt><trkpt lat="44.4246685" lon="11.4259158"><ele>86.0</ele><time>2026-04-04T07:00:27.222Z</time></trkpt><trkpt lat="44.4245113" lon="11.4258322"><ele>86.0</ele><time>2026-04-04T07:00:28.222Z</time></trkpt><trkpt lat="44.42435" lon="11.4257447"><ele>85.33333333333334</ele><time>2026-04-04T07:00:29.221Z</time></trkpt><trkpt lat="44.4241856" lon="11.4256557"><ele>84.66666666666667</ele><time>2026-04-04T07:00:30.222Z</time></trkpt><trkpt lat="44.4240208" lon="11.4255645"><ele>84.0</ele><time>2026-04-04T07:00:31.222Z</time></trkpt><trkpt lat="44.4238589" lon="11.4254725"><ele>84.33333333333333</ele><time>2026-04-04T07:00:32.222Z</time></trkpt><trkpt lat="44.4237016" lon="11.4253822"><ele>84.66666666666666</ele><time>2026-04-04T07:00:33.221Z</time></trkpt><trkpt lat="44.4235475" lon="11.4252971"><ele>85.0</ele><time>2026-04-04T07:00:34.221Z</time></trkpt><trkpt lat="44.4233969" lon="11.42521"><ele>85.0</ele><time>2026-04-04T07:00:35.222Z</time></trkpt><trkpt lat="44.4232446" lon="11.4251172"><ele>85.0</ele><time>2026-04-04T07:00:36.222Z</time></trkpt><trkpt lat="44.4230919" lon="11.4250233"><ele>85.0</ele><time>2026-04-04T07:00:37.222Z</time></trkpt><trkpt lat="44.4229464" lon="11.4249362"><ele>85.25</ele><time>2026-04-04T07:00:38.221Z</time></trkpt><trkpt lat="44.4228076" lon="11.4248571"><ele>85.5</ele><time>2026-04-04T07:00:39.222Z</time></trkpt><trkpt lat="44.4226789" lon="11.4247796"><ele>85.75</ele><time>2026-04-04T07:00:40.221Z</time></trkpt><trkpt lat="44.422565" lon="11.42471"><ele>86.0</ele><time>2026-04-04T07:00:41.222Z</time></trkpt><trkpt lat="44.4224433" lon="11.4246433"><ele>86.0</ele><time>2026-04-04T07:00:42.221Z</time></trkpt><trkpt lat="44.4223333" lon="11.4245867"><ele>86.0</ele><time>2026-04-04T07:00:43.221Z</time></trkpt><trkpt lat="44.4222283" lon="11.4245283"><ele>86.0</ele><time>2026-04-04T07:00:44.222Z</time></trkpt><trkpt lat="44.422135" lon="11.4244733"><ele>86.0</ele><time>2026-04-04T07:00:45.221Z</time></trkpt><trkpt lat="44.42205" lon="11.4244217"><ele>86.0</ele><time>2026-04-04T07:00:46.222Z</time></trkpt><trkpt lat="44.4219683" lon="11.42437"><ele>85.8</ele><time>2026-04-04T07:00:47.221Z</time></trkpt><trkpt lat="44.4218867" lon="11.4243183"><ele>85.6</ele><time>2026-04-04T07:00:48.221Z</time></trkpt><trkpt lat="44.4218033" lon="11.4242667"><ele>85.4</ele><time>2026-04-04T07:00:49.222Z</time></trkpt><trkpt lat="44.4217183" lon="11.4242233"><ele>85.2</ele><time>2026-04-04T07:00:50.221Z</time></trkpt><trkpt lat="44.4216267" lon="11.4241717"><ele>85.0</ele><time>2026-04-04T07:00:51.222Z</time></trkpt><trkpt lat="44.4215283" lon="11.424115"><ele>85.0</ele><time>2026-04-04T07:00:52.222Z</time></trkpt><trkpt lat="44.4214167" lon="11.4240533"><ele>85.0</ele><time>2026-04-04T07:00:53.222Z</time></trkpt><trkpt lat="44.4212967" lon="11.4239833"><ele>85.0</ele><time>2026-04-04T07:00:54.222Z</time></trkpt><trkpt lat="44.421165" lon="11.4239083"><ele>85.0</ele><time>2026-04-04T07:00:55.222Z</time></trkpt><trkpt lat="44.4210283" lon="11.4238367"><ele>89.0</ele><time>2026-04-04T07:00:56.221Z</time></trkpt><trkpt lat="44.42089" lon="11.42376"><ele>93.0</ele><time>2026-04-04T07:00:57.222Z</time></trkpt><trkpt lat="44.4207417" lon="11.4236883"><ele>97.0</ele><time>2026-04-04T07:00:58.222Z</time></trkpt><trkpt lat="44.4205917" lon="11.4236117"><ele>96.33333333333334</ele><time>2026-04-04T07:00:59.222Z</time></trkpt><trkpt lat="44.4204417" lon="11.4235417"><ele>95.66666666666667</ele><time>2026-04-04T07:01:00.221Z</time></trkpt><trkpt lat="44.4202933" lon="11.4234733"><ele>95.0</ele><time>2026-04-04T07:01:01.222Z</time></trkpt><trkpt lat="44.420135" lon="11.4234083"><ele>95.0</ele><time>2026-04-04T07:01:02.222Z</time></trkpt><trkpt lat="44.41998" lon="11.423345"><ele>95.0</ele><time>2026-04-04T07:01:03.222Z</time></trkpt><trkpt lat="44.4198067" lon="11.4232917"><ele>95.0</ele><time>2026-04-04T07:01:04.222Z</time></trkpt><trkpt lat="44.4196383" lon="11.4232517"><ele>93.66666666666667</ele><time>2026-04-04T07:01:05.221Z</time></trkpt><trkpt lat="44.4194717" lon="11.4232233"><ele>92.33333333333333</ele><time>2026-04-04T07:01:06.222Z</time></trkpt><trkpt lat="44.4193083" lon="11.4231867"><ele>91.0</ele><time>2026-04-04T07:01:07.222Z</time></trkpt><trkpt lat="44.419135" lon="11.4231533"><ele>91.0</ele><time>2026-04-04T07:01:08.221Z</time></trkpt><trkpt lat="44.4189483" lon="11.4231083"><ele>91.0</ele><time>2026-04-04T07:01:09.222Z</time></trkpt><trkpt lat="44.4187517" lon="11.423075"><ele>91.0</ele><time>2026-04-04T07:01:10.221Z</time></trkpt><trkpt lat="44.418535" lon="11.4230567"><ele>90.66666666666666</ele><time>2026-04-04T07:01:11.221Z</time></trkpt><trkpt lat="44.4183233" lon="11.4230467"><ele>90.33333333333333</ele><time>2026-04-04T07:01:12.222Z</time></trkpt><trkpt lat="44.418115" lon="11.4230417"><ele>90.0</ele><time>2026-04-04T07:01:13.222Z</time></trkpt><trkpt lat="44.41791" lon="11.423055"><ele>91.0</ele><time>2026-04-04T07:01:14.222Z</time></trkpt><trkpt lat="44.4177167" lon="11.4230683"><ele>92.0</ele><time>2026-04-04T07:01:15.222Z</time></trkpt><trkpt lat="44.4175279" lon="11.4230922"><ele>93.0</ele><time>2026-04-04T07:01:16.221Z</time></trkpt><trkpt lat="44.4173564" lon="11.4231168"><ele>93.0</ele><time>2026-04-04T07:01:17.222Z</time></trkpt><trkpt lat="44.4171897" lon="11.4231508"><ele>93.0</ele><time>2026-04-04T07:01:18.222Z</time></trkpt><trkpt lat="44.4170304" lon="11.4231925"><ele>93.0</ele><time>2026-04-04T07:01:19.222Z</time></trkpt><trkpt lat="44.4168723" lon="11.4232397"><ele>92.66666666666667</ele><time>2026-04-04T07:01:20.222Z</time></trkpt><trkpt lat="44.4167094" lon="11.4232833"><ele>92.33333333333334</ele><time>2026-04-04T07:01:21.222Z</time></trkpt><trkpt lat="44.4165476" lon="11.4233362"><ele>92.0</ele><time>2026-04-04T07:01:22.221Z</time></trkpt><trkpt lat="44.4163865" lon="11.4233907"><ele>91.66666666666667</ele><time>2026-04-04T07:01:23.221Z</time></trkpt><trkpt lat="44.4162209" lon="11.4234389"><ele>91.33333333333333</ele><time>2026-04-04T07:01:24.221Z</time></trkpt><trkpt lat="44.4160555" lon="11.4234862"><ele>91.0</ele><time>2026-04-04T07:01:25.221Z</time></trkpt><trkpt lat="44.4158904" lon="11.4235331"><ele>91.0</ele><time>2026-04-04T07:01:26.222Z</time></trkpt><trkpt lat="44.4157252" lon="11.4235764"><ele>91.0</ele><time>2026-04-04T07:01:27.222Z</time></trkpt><trkpt lat="44.4155544" lon="11.4236174"><ele>91.0</ele><time>2026-04-04T07:01:28.222Z</time></trkpt><trkpt lat="44.4153849" lon="11.4236658"><ele>91.66666666666666</ele><time>2026-04-04T07:01:29.222Z</time></trkpt><trkpt lat="44.4152099" lon="11.4237109"><ele>92.33333333333333</ele><time>2026-04-04T07:01:30.221Z</time></trkpt><trkpt lat="44.4150394" lon="11.4237617"><ele>93.0</ele><time>2026-04-04T07:01:31.221Z</time></trkpt><trkpt lat="44.4148665" lon="11.423811"><ele>93.33333333333333</ele><time>2026-04-04T07:01:32.222Z</time></trkpt><trkpt lat="44.4146946" lon="11.42386"><ele>93.66666666666666</ele><time>2026-04-04T07:01:33.222Z</time></trkpt><trkpt lat="44.41452" lon="11.4239037"><ele>94.0</ele><time>2026-04-04T07:01:34.221Z</time></trkpt><trkpt lat="44.414348" lon="11.4239561"><ele>94.0</ele><time>2026-04-04T07:01:35.221Z</time></trkpt><trkpt lat="44.4141778" lon="11.4240067"><ele>94.0</ele><time>2026-04-04T07:01:36.221Z</time></trkpt><trkpt lat="44.4140061" lon="11.4240558"><ele>94.0</ele><time>2026-04-04T07:01:37.222Z</time></trkpt><trkpt lat="44.4138317" lon="11.4241022"><ele>94.33333333333333</ele><time>2026-04-04T07:01:38.222Z</time></trkpt><trkpt lat="44.4136569" lon="11.4241454"><ele>94.66666666666667</ele><time>2026-04-04T07:01:39.222Z</time></trkpt><trkpt lat="44.4134842" lon="11.4241883"><ele>95.0</ele><time>2026-04-04T07:01:40.222Z</time></trkpt><trkpt lat="44.413319" lon="11.4242359"><ele>95.0</ele><time>2026-04-04T07:01:41.222Z</time></trkpt><trkpt lat="44.4131541" lon="11.4242829"><ele>95.0</ele><time>2026-04-04T07:01:42.221Z</time></trkpt><trkpt lat="44.4129848" lon="11.4243307"><ele>95.0</ele><time>2026-04-04T07:01:43.222Z</time></trkpt><trkpt lat="44.4128155" lon="11.4243767"><ele>94.66666666666667</ele><time>2026-04-04T07:01:44.222Z</time></trkpt><trkpt lat="44.4126466" lon="11.4244267"><ele>94.33333333333333</ele><time>2026-04-04T07:01:45.221Z</time></trkpt><trkpt lat="44.4124716" lon="11.4244735"><ele>94.0</ele><time>2026-04-04T07:01:46.221Z</time></trkpt><trkpt lat="44.4123004" lon="11.4245169"><ele>94.0</ele><time>2026-04-04T07:01:47.222Z</time></trkpt><trkpt lat="44.4121287" lon="11.4245601"><ele>94.0</ele><time>2026-04-04T07:01:48.221Z</time></trkpt><trkpt lat="44.4119567" lon="11.42461"><ele>94.0</ele><time>2026-04-04T07:01:49.222Z</time></trkpt><trkpt lat="44.4117967" lon="11.42466"><ele>94.0</ele><time>2026-04-04T07:01:50.222Z</time></trkpt><trkpt lat="44.4116467" lon="11.4247"><ele>94.0</ele><time>2026-04-04T07:01:51.221Z</time></trkpt><trkpt lat="44.4115083" lon="11.4247417"><ele>94.0</ele><time>2026-04-04T07:01:52.222Z</time></trkpt><trkpt lat="44.4113783" lon="11.4247733"><ele>94.0</ele><time>2026-04-04T07:01:53.221Z</time></trkpt><trkpt lat="44.4112583" lon="11.4248067"><ele>94.2</ele><time>2026-04-04T07:01:54.222Z</time></trkpt><trkpt lat="44.4111467" lon="11.4248333"><ele>94.4</ele><time>2026-04-04T07:01:55.222Z</time></trkpt><trkpt lat="44.4110417" lon="11.424865"><ele>94.6</ele><time>2026-04-04T07:01:56.221Z</time></trkpt><trkpt lat="44.4109417" lon="11.4248983"><ele>94.8</ele><time>2026-04-04T07:01:57.222Z</time></trkpt><trkpt lat="44.4108483" lon="11.4249283"><ele>95.0</ele><time>2026-04-04T07:01:58.222Z</time></trkpt><trkpt lat="44.410755" lon="11.424955"><ele>95.0</ele><time>2026-04-04T07:01:59.222Z</time></trkpt><trkpt lat="44.4106683" lon="11.4249767"><ele>95.0</ele><time>2026-04-04T07:02:00.221Z</time></trkpt><trkpt lat="44.4105783" lon="11.4249933"><ele>95.0</ele><time>2026-04-04T07:02:01.221Z</time></trkpt><trkpt lat="44.410475" lon="11.4249983"><ele>95.0</ele><time>2026-04-04T07:02:02.222Z</time></trkpt><trkpt lat="44.4103667" lon="11.425"><ele>95.0</ele><time>2026-04-04T07:02:03.221Z</time></trkpt><trkpt lat="44.4102483" lon="11.425"><ele>95.25</ele><time>2026-04-04T07:02:04.222Z</time></trkpt><trkpt lat="44.4101167" lon="11.4249867"><ele>95.5</ele><time>2026-04-04T07:02:05.221Z</time></trkpt><trkpt lat="44.409975" lon="11.42497"><ele>95.75</ele><time>2026-04-04T07:02:06.221Z</time></trkpt><trkpt lat="44.4098283" lon="11.4249567"><ele>96.0</ele><time>2026-04-04T07:02:07.222Z</time></trkpt><trkpt lat="44.40968" lon="11.4249433"><ele>96.33333333333334</ele><time>2026-04-04T07:02:08.222Z</time></trkpt><trkpt lat="44.4095233" lon="11.4249317"><ele>96.66666666666667</ele><time>2026-04-04T07:02:09.221Z</time></trkpt><trkpt lat="44.40936" lon="11.42492"><ele>97.0</ele><time>2026-04-04T07:02:10.222Z</time></trkpt><trkpt lat="44.4091967" lon="11.4249033"><ele>97.0</ele><time>2026-04-04T07:02:11.221Z</time></trkpt><trkpt lat="44.4090267" lon="11.424885"><ele>97.0</ele><time>2026-04-04T07:02:12.222Z</time></trkpt><trkpt lat="44.4088583" lon="11.4248667"><ele>97.0</ele><time>2026-04-04T07:02:13.222Z</time></trkpt><trkpt lat="44.408685" lon="11.4248483"><ele>96.33333333333334</ele><time>2026-04-04T07:02:14.222Z</time></trkpt><trkpt lat="44.4085067" lon="11.4248283"><ele>95.66666666666667</ele><time>2026-04-04T07:02:15.221Z</time></trkpt><trkpt lat="44.4083317" lon="11.4248117"><ele>95.0</ele><time>2026-04-04T07:02:16.222Z</time></trkpt><trkpt lat="44.4081533" lon="11.4247917"><ele>95.0</ele><time>2026-04-04T07:02:17.222Z</time></trkpt><trkpt lat="44.407975" lon="11.4247783"><ele>95.0</ele><time>2026-04-04T07:02:18.221Z</time></trkpt><trkpt lat="44.4077967" lon="11.4247633"><ele>95.0</ele><time>2026-04-04T07:02:19.222Z</time></trkpt><trkpt lat="44.4076283" lon="11.42475"><ele>95.0</ele><time>2026-04-04T07:02:20.222Z</time></trkpt><trkpt lat="44.4074783" lon="11.4247367"><ele>95.0</ele><time>2026-04-04T07:02:21.221Z</time></trkpt><trkpt lat="44.4073417" lon="11.4247217"><ele>95.0</ele><time>2026-04-04T07:02:22.222Z</time></trkpt><trkpt lat="44.40722" lon="11.4247117"><ele>95.0</ele><time>2026-04-04T07:02:23.222Z</time></trkpt><trkpt lat="44.4071067" lon="11.4247017"><ele>95.4</ele><time>2026-04-04T07:02:24.222Z</time></trkpt><trkpt lat="44.4070083" lon="11.4246917"><ele>95.8</ele><time>2026-04-04T07:02:25.222Z</time></trkpt><trkpt lat="44.40692" lon="11.4246817"><ele>96.19999999999999</ele><time>2026-04-04T07:02:26.222Z</time></trkpt><trkpt lat="44.40683" lon="11.4246733"><ele>96.6</ele><time>2026-04-04T07:02:27.222Z</time></trkpt><trkpt lat="44.406735" lon="11.4246567"><ele>97.0</ele><time>2026-04-04T07:02:28.221Z</time></trkpt><trkpt lat="44.4066383" lon="11.4246433"><ele>97.25</ele><time>2026-04-04T07:02:29.221Z</time></trkpt><trkpt lat="44.406535" lon="11.4246233"><ele>97.5</ele><time>2026-04-04T07:02:30.221Z</time></trkpt><trkpt lat="44.4064233" lon="11.42459"><ele>97.75</ele><time>2026-04-04T07:02:31.222Z</time></trkpt><trkpt lat="44.4063033" lon="11.4245417"><ele>98.0</ele><time>2026-04-04T07:02:32.223Z</time></trkpt><trkpt lat="44.4061833" lon="11.42447"><ele>98.75</ele><time>2026-04-04T07:02:33.222Z</time></trkpt><trkpt lat="44.4060583" lon="11.4243783"><ele>99.5</ele><time>2026-04-04T07:02:34.223Z</time></trkpt><trkpt lat="44.4059383" lon="11.42428"><ele>100.25</ele><time>2026-04-04T07:02:35.222Z</time></trkpt><trkpt lat="44.4058233" lon="11.42416"><ele>101.0</ele><time>2026-04-04T07:02:36.223Z</time></trkpt><trkpt lat="44.4057117" lon="11.424035"><ele>101.0</ele><time>2026-04-04T07:02:37.223Z</time></trkpt><trkpt lat="44.40561" lon="11.423895"><ele>101.0</ele><time>2026-04-04T07:02:38.223Z</time></trkpt><trkpt lat="44.4055067" lon="11.4237483"><ele>101.0</ele><time>2026-04-04T07:02:39.222Z</time></trkpt><trkpt lat="44.4053967" lon="11.4235933"><ele>101.0</ele><time>2026-04-04T07:02:40.222Z</time></trkpt><trkpt lat="44.405285" lon="11.4234367"><ele>104.0</ele><time>2026-04-04T07:02:41.222Z</time></trkpt><trkpt lat="44.4051633" lon="11.4232933"><ele>107.0</ele><time>2026-04-04T07:02:42.223Z</time></trkpt><trkpt lat="44.405035" lon="11.423155"><ele>110.0</ele><time>2026-04-04T07:02:43.222Z</time></trkpt><trkpt lat="44.4049017" lon="11.4230317"><ele>113.33333333333333</ele><time>2026-04-04T07:02:44.222Z</time></trkpt><trkpt lat="44.4047583" lon="11.4229267"><ele>116.66666666666666</ele><time>2026-04-04T07:02:45.222Z</time></trkpt><trkpt lat="44.404605" lon="11.4228417"><ele>120.0</ele><time>2026-04-04T07:02:46.222Z</time></trkpt><trkpt lat="44.4044433" lon="11.4227717"><ele>120.0</ele><time>2026-04-04T07:02:47.223Z</time></trkpt><trkpt lat="44.4042717" lon="11.422735"><ele>120.0</ele><time>2026-04-04T07:02:48.223Z</time></trkpt><trkpt lat="44.404125" lon="11.42271"><ele>120.0</ele><time>2026-04-04T07:02:49.223Z</time></trkpt><trkpt lat="44.4039867" lon="11.4227017"><ele>120.0</ele><time>2026-04-04T07:02:50.223Z</time></trkpt><trkpt lat="44.4038633" lon="11.4227083"><ele>120.0</ele><time>2026-04-04T07:02:51.223Z</time></trkpt><trkpt lat="44.40375" lon="11.42272"><ele>120.0</ele><time>2026-04-04T07:02:52.223Z</time></trkpt><trkpt lat="44.4036467" lon="11.4227483"><ele>120.0</ele><time>2026-04-04T07:02:53.223Z</time></trkpt><trkpt lat="44.4035367" lon="11.4227833"><ele>120.2</ele><time>2026-04-04T07:02:54.223Z</time></trkpt><trkpt lat="44.40343" lon="11.4228317"><ele>120.4</ele><time>2026-04-04T07:02:55.222Z</time></trkpt><trkpt lat="44.40333" lon="11.42288"><ele>120.6</ele><time>2026-04-04T07:02:56.223Z</time></trkpt><trkpt lat="44.4032315" lon="11.422934"><ele>120.8</ele><time>2026-04-04T07:02:57.223Z</time></trkpt><trkpt lat="44.4031308" lon="11.42299"><ele>121.0</ele><time>2026-04-04T07:02:58.222Z</time></trkpt><trkpt lat="44.4030355" lon="11.4230549"><ele>116.5</ele><time>2026-04-04T07:02:59.223Z</time></trkpt><trkpt lat="44.4029394" lon="11.4231226"><ele>112.0</ele><time>2026-04-04T07:03:00.223Z</time></trkpt><trkpt lat="44.4028326" lon="11.4232013"><ele>107.5</ele><time>2026-04-04T07:03:01.223Z</time></trkpt><trkpt lat="44.4027216" lon="11.423278"><ele>103.0</ele><time>2026-04-04T07:03:02.223Z</time></trkpt><trkpt lat="44.4026067" lon="11.4233469"><ele>103.0</ele><time>2026-04-04T07:03:03.222Z</time></trkpt><trkpt lat="44.4024998" lon="11.4234044"><ele>103.0</ele><time>2026-04-04T07:03:04.223Z</time></trkpt><trkpt lat="44.4023973" lon="11.4234608"><ele>103.0</ele><time>2026-04-04T07:03:05.222Z</time></trkpt><trkpt lat="44.4022968" lon="11.4235186"><ele>103.0</ele><time>2026-04-04T07:03:06.223Z</time></trkpt><trkpt lat="44.4021942" lon="11.4235756"><ele>103.0</ele><time>2026-04-04T07:03:07.222Z</time></trkpt><trkpt lat="44.4020878" lon="11.4236339"><ele>102.75</ele><time>2026-04-04T07:03:08.222Z</time></trkpt><trkpt lat="44.4019765" lon="11.4237015"><ele>102.5</ele><time>2026-04-04T07:03:09.222Z</time></trkpt><trkpt lat="44.4018617" lon="11.4237693"><ele>102.25</ele><time>2026-04-04T07:03:10.222Z</time></trkpt><trkpt lat="44.4017537" lon="11.4238302"><ele>102.0</ele><time>2026-04-04T07:03:11.222Z</time></trkpt><trkpt lat="44.4016558" lon="11.4238872"><ele>102.0</ele><time>2026-04-04T07:03:12.223Z</time></trkpt><trkpt lat="44.4015664" lon="11.4239428"><ele>102.0</ele><time>2026-04-04T07:03:13.223Z</time></trkpt><trkpt lat="44.4014795" lon="11.4239931"><ele>102.0</ele><time>2026-04-04T07:03:14.223Z</time></trkpt><trkpt lat="44.4013931" lon="11.424043"><ele>102.0</ele><time>2026-04-04T07:03:15.223Z</time></trkpt><trkpt lat="44.4013088" lon="11.42409"><ele>102.0</ele><time>2026-04-04T07:03:16.222Z</time></trkpt><trkpt lat="44.4012187" lon="11.4241383"><ele>102.75</ele><time>2026-04-04T07:03:17.222Z</time></trkpt><trkpt lat="44.4011195" lon="11.4241927"><ele>103.5</ele><time>2026-04-04T07:03:18.223Z</time></trkpt><trkpt lat="44.4010165" lon="11.424254"><ele>104.25</ele><time>2026-04-04T07:03:19.222Z</time></trkpt><trkpt lat="44.4009048" lon="11.4243173"><ele>105.0</ele><time>2026-04-04T07:03:20.223Z</time></trkpt><trkpt lat="44.4007879" lon="11.4243819"><ele>105.0</ele><time>2026-04-04T07:03:21.222Z</time></trkpt><trkpt lat="44.4006641" lon="11.424452"><ele>105.0</ele><time>2026-04-04T07:03:22.222Z</time></trkpt><trkpt lat="44.4005428" lon="11.4245226"><ele>105.0</ele><time>2026-04-04T07:03:23.223Z</time></trkpt><trkpt lat="44.4004126" lon="11.4245988"><ele>105.0</ele><time>2026-04-04T07:03:24.223Z</time></trkpt><trkpt lat="44.4002843" lon="11.4246759"><ele>105.25</ele><time>2026-04-04T07:03:25.223Z</time></trkpt><trkpt lat="44.4001565" lon="11.4247553"><ele>105.5</ele><time>2026-04-04T07:03:26.222Z</time></trkpt><trkpt lat="44.4000282" lon="11.4248317"><ele>105.75</ele><time>2026-04-04T07:03:27.223Z</time></trkpt><trkpt lat="44.3998998" lon="11.4249106"><ele>106.0</ele><time>2026-04-04T07:03:28.222Z</time></trkpt><trkpt lat="44.3997674" lon="11.4249884"><ele>106.75</ele><time>2026-04-04T07:03:29.222Z</time></trkpt><trkpt lat="44.3996326" lon="11.4250624"><ele>107.5</ele><time>2026-04-04T07:03:30.222Z</time></trkpt><trkpt lat="44.3995015" lon="11.425139"><ele>108.25</ele><time>2026-04-04T07:03:31.223Z</time></trkpt><trkpt lat="44.3993727" lon="11.4252132"><ele>109.0</ele><time>2026-04-04T07:03:32.223Z</time></trkpt><trkpt lat="44.3992464" lon="11.4252872"><ele>109.0</ele><time>2026-04-04T07:03:33.223Z</time></trkpt><trkpt lat="44.3991213" lon="11.4253595"><ele>109.0</ele><time>2026-04-04T07:03:34.222Z</time></trkpt><trkpt lat="44.398994" lon="11.4254313"><ele>109.0</ele><time>2026-04-04T07:03:35.223Z</time></trkpt><trkpt lat="44.3988658" lon="11.4255021"><ele>109.0</ele><time>2026-04-04T07:03:36.223Z</time></trkpt><trkpt lat="44.398737" lon="11.4255749"><ele>109.25</ele><time>2026-04-04T07:03:37.223Z</time></trkpt><trkpt lat="44.3986081" lon="11.4256505"><ele>109.5</ele><time>2026-04-04T07:03:38.223Z</time></trkpt><trkpt lat="44.39848" lon="11.4257277"><ele>109.75</ele><time>2026-04-04T07:03:39.223Z</time></trkpt><trkpt lat="44.3983504" lon="11.4258036"><ele>110.0</ele><time>2026-04-04T07:03:40.223Z</time></trkpt><trkpt lat="44.3982193" lon="11.4258743"><ele>110.0</ele><time>2026-04-04T07:03:41.223Z</time></trkpt><trkpt lat="44.3980889" lon="11.4259457"><ele>110.0</ele><time>2026-04-04T07:03:42.222Z</time></trkpt><trkpt lat="44.3979551" lon="11.4260197"><ele>110.0</ele><time>2026-04-04T07:03:43.223Z</time></trkpt><trkpt lat="44.3978237" lon="11.4260912"><ele>110.0</ele><time>2026-04-04T07:03:44.223Z</time></trkpt><trkpt lat="44.3976956" lon="11.426165"><ele>110.0</ele><time>2026-04-04T07:03:45.223Z</time></trkpt><trkpt lat="44.3975714" lon="11.4262352"><ele>110.0</ele><time>2026-04-04T07:03:46.223Z</time></trkpt><trkpt lat="44.3974463" lon="11.4263043"><ele>110.0</ele><time>2026-04-04T07:03:47.223Z</time></trkpt><trkpt lat="44.39732" lon="11.4263729"><ele>110.0</ele><time>2026-04-04T07:03:48.223Z</time></trkpt><trkpt lat="44.3971936" lon="11.4264379"><ele>109.5</ele><time>2026-04-04T07:03:49.222Z</time></trkpt><trkpt lat="44.3970693" lon="11.4264972"><ele>109.0</ele><time>2026-04-04T07:03:50.222Z</time></trkpt><trkpt lat="44.3969385" lon="11.4265413"><ele>108.5</ele><time>2026-04-04T07:03:51.223Z</time></trkpt><trkpt lat="44.396807" lon="11.4265756"><ele>108.0</ele><time>2026-04-04T07:03:52.223Z</time></trkpt><trkpt lat="44.39667" lon="11.4266073"><ele>108.0</ele><time>2026-04-04T07:03:53.223Z</time></trkpt><trkpt lat="44.396528" lon="11.4266356"><ele>108.0</ele><time>2026-04-04T07:03:54.223Z</time></trkpt><trkpt lat="44.396389" lon="11.4266575"><ele>108.0</ele><time>2026-04-04T07:03:55.223Z</time></trkpt><trkpt lat="44.3962498" lon="11.4266794"><ele>108.0</ele><time>2026-04-04T07:03:56.222Z</time></trkpt><trkpt lat="44.3961108" lon="11.426709"><ele>108.75</ele><time>2026-04-04T07:03:57.222Z</time></trkpt><trkpt lat="44.3959708" lon="11.4267402"><ele>109.5</ele><time>2026-04-04T07:03:58.223Z</time></trkpt><trkpt lat="44.3958272" lon="11.4267694"><ele>110.25</ele><time>2026-04-04T07:03:59.222Z</time></trkpt><trkpt lat="44.3956873" lon="11.4268014"><ele>111.0</ele><time>2026-04-04T07:04:00.223Z</time></trkpt><trkpt lat="44.3955472" lon="11.4268333"><ele>111.0</ele><time>2026-04-04T07:04:01.222Z</time></trkpt><trkpt lat="44.3954015" lon="11.4268684"><ele>111.0</ele><time>2026-04-04T07:04:02.223Z</time></trkpt><trkpt lat="44.3952501" lon="11.4269001"><ele>111.0</ele><time>2026-04-04T07:04:03.223Z</time></trkpt><trkpt lat="44.3951017" lon="11.4269306"><ele>111.0</ele><time>2026-04-04T07:04:04.222Z</time></trkpt><trkpt lat="44.3949598" lon="11.4269633"><ele>111.0</ele><time>2026-04-04T07:04:05.223Z</time></trkpt><trkpt lat="44.3948094" lon="11.4269908"><ele>111.0</ele><time>2026-04-04T07:04:06.223Z</time></trkpt><trkpt lat="44.3946601" lon="11.4270202"><ele>111.0</ele><time>2026-04-04T07:04:07.223Z</time></trkpt><trkpt lat="44.3945087" lon="11.4270471"><ele>111.33333333333334</ele><time>2026-04-04T07:04:08.222Z</time></trkpt><trkpt lat="44.3943545" lon="11.4270778"><ele>111.66666666666667</ele><time>2026-04-04T07:04:09.223Z</time></trkpt><trkpt lat="44.3942058" lon="11.4271183"><ele>112.0</ele><time>2026-04-04T07:04:10.223Z</time></trkpt><trkpt lat="44.3940578" lon="11.4271484"><ele>112.0</ele><time>2026-04-04T07:04:11.222Z</time></trkpt><trkpt lat="44.3939089" lon="11.4271783"><ele>112.0</ele><time>2026-04-04T07:04:12.222Z</time></trkpt><trkpt lat="44.3937593" lon="11.4272094"><ele>112.0</ele><time>2026-04-04T07:04:13.223Z</time></trkpt><trkpt lat="44.3936095" lon="11.4272431"><ele>111.75</ele><time>2026-04-04T07:04:14.223Z</time></trkpt><trkpt lat="44.3934655" lon="11.4272766"><ele>111.5</ele><time>2026-04-04T07:04:15.222Z</time></trkpt><trkpt lat="44.3933176" lon="11.4273065"><ele>111.25</ele><time>2026-04-04T07:04:16.222Z</time></trkpt><trkpt lat="44.39317" lon="11.4273397"><ele>111.0</ele><time>2026-04-04T07:04:17.223Z</time></trkpt><trkpt lat="44.3930249" lon="11.4273706"><ele>110.5</ele><time>2026-04-04T07:04:18.222Z</time></trkpt><trkpt lat="44.3928751" lon="11.427402"><ele>110.0</ele><time>2026-04-04T07:04:19.222Z</time></trkpt><trkpt lat="44.3927293" lon="11.4274304"><ele>109.5</ele><time>2026-04-04T07:04:20.223Z</time></trkpt><trkpt lat="44.3925831" lon="11.4274575"><ele>109.0</ele><time>2026-04-04T07:04:21.223Z</time></trkpt><trkpt lat="44.3924392" lon="11.4274876"><ele>109.0</ele><time>2026-04-04T07:04:22.223Z</time></trkpt><trkpt lat="44.3922951" lon="11.4275153"><ele>109.0</ele><time>2026-04-04T07:04:23.223Z</time></trkpt><trkpt lat="44.3921556" lon="11.4275421"><ele>109.0</ele><time>2026-04-04T07:04:24.223Z</time></trkpt><trkpt lat="44.3920115" lon="11.427571"><ele>109.0</ele><time>2026-04-04T07:04:25.222Z</time></trkpt><trkpt lat="44.3918688" lon="11.4276054"><ele>109.5</ele><time>2026-04-04T07:04:26.222Z</time></trkpt><trkpt lat="44.3917295" lon="11.4276447"><ele>110.0</ele><time>2026-04-04T07:04:27.223Z</time></trkpt><trkpt lat="44.3915865" lon="11.4276839"><ele>110.5</ele><time>2026-04-04T07:04:28.223Z</time></trkpt><trkpt lat="44.3914459" lon="11.4277205"><ele>111.0</ele><time>2026-04-04T07:04:29.222Z</time></trkpt><trkpt lat="44.3913055" lon="11.4277583"><ele>111.5</ele><time>2026-04-04T07:04:30.223Z</time></trkpt><trkpt lat="44.3911598" lon="11.4277868"><ele>112.0</ele><time>2026-04-04T07:04:31.223Z</time></trkpt><trkpt lat="44.3910271" lon="11.4278068"><ele>112.5</ele><time>2026-04-04T07:04:32.223Z</time></trkpt><trkpt lat="44.3909071" lon="11.4278385"><ele>113.0</ele><time>2026-04-04T07:04:33.223Z</time></trkpt><trkpt lat="44.3907849" lon="11.4278591"><ele>113.0</ele><time>2026-04-04T07:04:34.222Z</time></trkpt><trkpt lat="44.3906591" lon="11.427884"><ele>113.0</ele><time>2026-04-04T07:04:35.222Z</time></trkpt><trkpt lat="44.3905305" lon="11.4279094"><ele>113.0</ele><time>2026-04-04T07:04:36.223Z</time></trkpt><trkpt lat="44.3902787" lon="11.4279512"><ele>116.0</ele><time>2026-04-04T07:04:38.223Z</time></trkpt><trkpt lat="44.3899095" lon="11.4280885"><ele>119.0</ele><time>2026-04-04T07:04:41.223Z</time></trkpt><trkpt lat="44.3897884" lon="11.4281793"><ele>118.25</ele><time>2026-04-04T07:04:42.223Z</time></trkpt><trkpt lat="44.3896728" lon="11.4282944"><ele>117.5</ele><time>2026-04-04T07:04:43.222Z</time></trkpt><trkpt lat="44.3895613" lon="11.4284365"><ele>116.75</ele><time>2026-04-04T07:04:44.222Z</time></trkpt><trkpt lat="44.3894563" lon="11.4285883"><ele>116.0</ele><time>2026-04-04T07:04:45.223Z</time></trkpt><trkpt lat="44.3893617" lon="11.4287336"><ele>116.0</ele><time>2026-04-04T07:04:46.223Z</time></trkpt><trkpt lat="44.3892811" lon="11.4288629"><ele>116.0</ele><time>2026-04-04T07:04:47.223Z</time></trkpt><trkpt lat="44.3892109" lon="11.4289822"><ele>116.0</ele><time>2026-04-04T07:04:48.223Z</time></trkpt><trkpt lat="44.3891492" lon="11.4290961"><ele>116.0</ele><time>2026-04-04T07:04:49.223Z</time></trkpt><trkpt lat="44.3891159" lon="11.4292108"><ele>116.0</ele><time>2026-04-04T07:04:50.223Z</time></trkpt><trkpt lat="44.3891178" lon="11.4293311"><ele>116.0</ele><time>2026-04-04T07:04:51.223Z</time></trkpt><trkpt lat="44.3891411" lon="11.4294554"><ele>116.0</ele><time>2026-04-04T07:04:52.222Z</time></trkpt><trkpt lat="44.3891966" lon="11.429577"><ele>116.0</ele><time>2026-04-04T07:04:53.223Z</time></trkpt><trkpt lat="44.3892736" lon="11.4297071"><ele>116.0</ele><time>2026-04-04T07:04:54.223Z</time></trkpt><trkpt lat="44.3893559" lon="11.4298439"><ele>116.0</ele><time>2026-04-04T07:04:55.223Z</time></trkpt><trkpt lat="44.3894428" lon="11.429989"><ele>116.0</ele><time>2026-04-04T07:04:56.223Z</time></trkpt><trkpt lat="44.3895377" lon="11.4301418"><ele>116.0</ele><time>2026-04-04T07:04:57.223Z</time></trkpt><trkpt lat="44.3896341" lon="11.4302978"><ele>116.0</ele><time>2026-04-04T07:04:58.223Z</time></trkpt><trkpt lat="44.3897316" lon="11.4304517"><ele>116.0</ele><time>2026-04-04T07:04:59.223Z</time></trkpt><trkpt lat="44.3898289" lon="11.4306009"><ele>116.6</ele><time>2026-04-04T07:05:00.223Z</time></trkpt><trkpt lat="44.389908" lon="11.4307349"><ele>117.19999999999999</ele><time>2026-04-04T07:05:01.223Z</time></trkpt><trkpt lat="44.3899806" lon="11.4308584"><ele>117.80000000000001</ele><time>2026-04-04T07:05:02.223Z</time></trkpt><trkpt lat="44.3900477" lon="11.4309746"><ele>118.4</ele><time>2026-04-04T07:05:03.223Z</time></trkpt><trkpt lat="44.3900998" lon="11.4310608"><ele>119.0</ele><time>2026-04-04T07:05:04.223Z</time></trkpt><trkpt lat="44.3901532" lon="11.4311553"><ele>118.99999999999999</ele><time>2026-04-04T07:05:06.222Z</time></trkpt><trkpt lat="44.3901605" lon="11.4312719"><ele>119.0</ele><time>2026-04-04T07:05:08.222Z</time></trkpt><trkpt lat="44.3901338" lon="11.4313556"><ele>119.0</ele><time>2026-04-04T07:05:09.223Z</time></trkpt><trkpt lat="44.3900875" lon="11.4314492"><ele>119.0</ele><time>2026-04-04T07:05:10.222Z</time></trkpt><trkpt lat="44.3900323" lon="11.431549"><ele>118.99999999999999</ele><time>2026-04-04T07:05:11.222Z</time></trkpt><trkpt lat="44.3899633" lon="11.4316513"><ele>119.0</ele><time>2026-04-04T07:05:12.222Z</time></trkpt><trkpt lat="44.3898867" lon="11.4317594"><ele>119.75</ele><time>2026-04-04T07:05:13.222Z</time></trkpt><trkpt lat="44.3898086" lon="11.4318633"><ele>120.5</ele><time>2026-04-04T07:05:14.223Z</time></trkpt><trkpt lat="44.3897266" lon="11.4319675"><ele>121.25</ele><time>2026-04-04T07:05:15.223Z</time></trkpt><trkpt lat="44.3896448" lon="11.4320815"><ele>122.0</ele><time>2026-04-04T07:05:16.222Z</time></trkpt><trkpt lat="44.3895621" lon="11.4321974"><ele>123.75</ele><time>2026-04-04T07:05:17.222Z</time></trkpt><trkpt lat="44.3894759" lon="11.4323031"><ele>125.5</ele><time>2026-04-04T07:05:18.223Z</time></trkpt><trkpt lat="44.3893863" lon="11.4324027"><ele>127.25</ele><time>2026-04-04T07:05:19.223Z</time></trkpt><trkpt lat="44.3892889" lon="11.4324935"><ele>129.0</ele><time>2026-04-04T07:05:20.222Z</time></trkpt><trkpt lat="44.3891802" lon="11.4325757"><ele>129.0</ele><time>2026-04-04T07:05:21.222Z</time></trkpt><trkpt lat="44.3890595" lon="11.4326479"><ele>129.0</ele><time>2026-04-04T07:05:22.223Z</time></trkpt><trkpt lat="44.3889291" lon="11.432706"><ele>129.0</ele><time>2026-04-04T07:05:23.223Z</time></trkpt><trkpt lat="44.388791" lon="11.4327305"><ele>129.0</ele><time>2026-04-04T07:05:24.223Z</time></trkpt><trkpt lat="44.3886467" lon="11.4327504"><ele>127.33333333333334</ele><time>2026-04-04T07:05:25.222Z</time></trkpt><trkpt lat="44.3884952" lon="11.4327515"><ele>125.66666666666667</ele><time>2026-04-04T07:05:26.223Z</time></trkpt><trkpt lat="44.3883385" lon="11.432739"><ele>124.0</ele><time>2026-04-04T07:05:27.222Z</time></trkpt><trkpt lat="44.3881788" lon="11.4327131"><ele>124.0</ele><time>2026-04-04T07:05:28.222Z</time></trkpt><trkpt lat="44.3880244" lon="11.4326624"><ele>124.0</ele><time>2026-04-04T07:05:29.223Z</time></trkpt><trkpt lat="44.3878716" lon="11.4325878"><ele>124.0</ele><time>2026-04-04T07:05:30.222Z</time></trkpt><trkpt lat="44.3877219" lon="11.432489"><ele>124.33333333333334</ele><time>2026-04-04T07:05:31.223Z</time></trkpt><trkpt lat="44.38757" lon="11.4323843"><ele>124.66666666666666</ele><time>2026-04-04T07:05:32.222Z</time></trkpt><trkpt lat="44.3874131" lon="11.4322965"><ele>125.0</ele><time>2026-04-04T07:05:33.223Z</time></trkpt><trkpt lat="44.3872552" lon="11.4322367"><ele>124.66666666666666</ele><time>2026-04-04T07:05:34.223Z</time></trkpt><trkpt lat="44.3870897" lon="11.4322239"><ele>124.33333333333334</ele><time>2026-04-04T07:05:35.223Z</time></trkpt><trkpt lat="44.3869202" lon="11.4322402"><ele>124.0</ele><time>2026-04-04T07:05:36.222Z</time></trkpt><trkpt lat="44.3867442" lon="11.4322799"><ele>124.0</ele><time>2026-04-04T07:05:37.223Z</time></trkpt><trkpt lat="44.3865599" lon="11.4323359"><ele>124.0</ele><time>2026-04-04T07:05:38.222Z</time></trkpt><trkpt lat="44.3863721" lon="11.432386"><ele>124.0</ele><time>2026-04-04T07:05:39.223Z</time></trkpt><trkpt lat="44.3861785" lon="11.4324258"><ele>123.66666666666667</ele><time>2026-04-04T07:05:40.223Z</time></trkpt><trkpt lat="44.385985" lon="11.4324529"><ele>123.33333333333334</ele><time>2026-04-04T07:05:41.223Z</time></trkpt><trkpt lat="44.3857922" lon="11.4324793"><ele>123.0</ele><time>2026-04-04T07:05:42.223Z</time></trkpt><trkpt lat="44.3856016" lon="11.4324997"><ele>122.33333333333334</ele><time>2026-04-04T07:05:43.223Z</time></trkpt><trkpt lat="44.3854105" lon="11.4325127"><ele>121.66666666666667</ele><time>2026-04-04T07:05:44.223Z</time></trkpt><trkpt lat="44.385224" lon="11.4325338"><ele>121.0</ele><time>2026-04-04T07:05:45.222Z</time></trkpt><trkpt lat="44.3850405" lon="11.4325495"><ele>121.0</ele><time>2026-04-04T07:05:46.223Z</time></trkpt><trkpt lat="44.3848584" lon="11.4325568"><ele>121.0</ele><time>2026-04-04T07:05:47.223Z</time></trkpt><trkpt lat="44.3846799" lon="11.4325492"><ele>121.0</ele><time>2026-04-04T07:05:48.223Z</time></trkpt><trkpt lat="44.3845062" lon="11.4325252"><ele>121.0</ele><time>2026-04-04T07:05:49.223Z</time></trkpt><trkpt lat="44.3843357" lon="11.4324792"><ele>121.0</ele><time>2026-04-04T07:05:50.222Z</time></trkpt><trkpt lat="44.3841707" lon="11.432417"><ele>121.0</ele><time>2026-04-04T07:05:51.223Z</time></trkpt><trkpt lat="44.3840099" lon="11.4323337"><ele>121.0</ele><time>2026-04-04T07:05:52.223Z</time></trkpt><trkpt lat="44.3838545" lon="11.4322274"><ele>121.0</ele><time>2026-04-04T07:05:53.222Z</time></trkpt><trkpt lat="44.3837056" lon="11.4321091"><ele>121.0</ele><time>2026-04-04T07:05:54.222Z</time></trkpt><trkpt lat="44.3835557" lon="11.4319883"><ele>123.66666666666667</ele><time>2026-04-04T07:05:55.223Z</time></trkpt><trkpt lat="44.3834073" lon="11.4318645"><ele>126.33333333333334</ele><time>2026-04-04T07:05:56.222Z</time></trkpt><trkpt lat="44.3832579" lon="11.4317432"><ele>129.0</ele><time>2026-04-04T07:05:57.222Z</time></trkpt><trkpt lat="44.3831085" lon="11.4316221"><ele>129.33333333333334</ele><time>2026-04-04T07:05:58.222Z</time></trkpt><trkpt lat="44.3829614" lon="11.4315043"><ele>129.66666666666669</ele><time>2026-04-04T07:05:59.222Z</time></trkpt><trkpt lat="44.382813" lon="11.4313878"><ele>130.0</ele><time>2026-04-04T07:06:00.222Z</time></trkpt><trkpt lat="44.3826687" lon="11.431266"><ele>130.0</ele><time>2026-04-04T07:06:01.223Z</time></trkpt><trkpt lat="44.3825286" lon="11.4311536"><ele>130.0</ele><time>2026-04-04T07:06:02.223Z</time></trkpt><trkpt lat="44.3823904" lon="11.4310411"><ele>130.0</ele><time>2026-04-04T07:06:03.223Z</time></trkpt><trkpt lat="44.3822505" lon="11.4309193"><ele>133.0</ele><time>2026-04-04T07:06:04.222Z</time></trkpt><trkpt lat="44.3821162" lon="11.4307899"><ele>136.0</ele><time>2026-04-04T07:06:05.222Z</time></trkpt><trkpt lat="44.3819794" lon="11.4306574"><ele>139.0</ele><time>2026-04-04T07:06:06.223Z</time></trkpt><trkpt lat="44.3818442" lon="11.4305208"><ele>135.66666666666669</ele><time>2026-04-04T07:06:07.223Z</time></trkpt><trkpt lat="44.3817029" lon="11.430381"><ele>132.33333333333334</ele><time>2026-04-04T07:06:08.222Z</time></trkpt><trkpt lat="44.3815625" lon="11.4302212"><ele>129.0</ele><time>2026-04-04T07:06:09.223Z</time></trkpt><trkpt lat="44.381422" lon="11.4300628"><ele>129.33333333333334</ele><time>2026-04-04T07:06:10.222Z</time></trkpt><trkpt lat="44.3812756" lon="11.4299011"><ele>129.66666666666669</ele><time>2026-04-04T07:06:11.222Z</time></trkpt><trkpt lat="44.381136" lon="11.4297287"><ele>130.0</ele><time>2026-04-04T07:06:12.222Z</time></trkpt><trkpt lat="44.3810108" lon="11.4295397"><ele>130.0</ele><time>2026-04-04T07:06:13.223Z</time></trkpt><trkpt lat="44.3808913" lon="11.4293436"><ele>130.0</ele><time>2026-04-04T07:06:14.223Z</time></trkpt><trkpt lat="44.3807752" lon="11.4291418"><ele>130.0</ele><time>2026-04-04T07:06:15.222Z</time></trkpt><trkpt lat="44.3806611" lon="11.428941"><ele>129.33333333333334</ele><time>2026-04-04T07:06:16.223Z</time></trkpt><trkpt lat="44.3805508" lon="11.4287375"><ele>128.66666666666666</ele><time>2026-04-04T07:06:17.223Z</time></trkpt><trkpt lat="44.3804612" lon="11.4285231"><ele>128.0</ele><time>2026-04-04T07:06:18.222Z</time></trkpt><trkpt lat="44.3803881" lon="11.4283033"><ele>129.0</ele><time>2026-04-04T07:06:19.223Z</time></trkpt><trkpt lat="44.3803178" lon="11.4280874"><ele>130.0</ele><time>2026-04-04T07:06:20.223Z</time></trkpt><trkpt lat="44.3802339" lon="11.4278837"><ele>131.0</ele><time>2026-04-04T07:06:21.223Z</time></trkpt><trkpt lat="44.3801229" lon="11.4276968"><ele>131.0</ele><time>2026-04-04T07:06:22.223Z</time></trkpt><trkpt lat="44.3799837" lon="11.4275438"><ele>131.0</ele><time>2026-04-04T07:06:23.222Z</time></trkpt><trkpt lat="44.379829" lon="11.4274164"><ele>131.0</ele><time>2026-04-04T07:06:24.222Z</time></trkpt><trkpt lat="44.37967" lon="11.4272987"><ele>132.0</ele><time>2026-04-04T07:06:25.223Z</time></trkpt><trkpt lat="44.3795085" lon="11.4271952"><ele>133.0</ele><time>2026-04-04T07:06:26.223Z</time></trkpt><trkpt lat="44.3793456" lon="11.4270966"><ele>134.0</ele><time>2026-04-04T07:06:27.222Z</time></trkpt><trkpt lat="44.3791776" lon="11.4270102"><ele>132.66666666666666</ele><time>2026-04-04T07:06:28.223Z</time></trkpt><trkpt lat="44.3790124" lon="11.4269322"><ele>131.33333333333334</ele><time>2026-04-04T07:06:29.223Z</time></trkpt><trkpt lat="44.3788398" lon="11.4268584"><ele>130.0</ele><time>2026-04-04T07:06:30.222Z</time></trkpt><trkpt lat="44.3786622" lon="11.4267885"><ele>130.0</ele><time>2026-04-04T07:06:31.223Z</time></trkpt><trkpt lat="44.3784867" lon="11.4267288"><ele>130.0</ele><time>2026-04-04T07:06:32.223Z</time></trkpt><trkpt lat="44.3783142" lon="11.4266693"><ele>130.0</ele><time>2026-04-04T07:06:33.224Z</time></trkpt><trkpt lat="44.3781416" lon="11.4266085"><ele>130.66666666666669</ele><time>2026-04-04T07:06:34.224Z</time></trkpt><trkpt lat="44.3779697" lon="11.4265506"><ele>131.33333333333334</ele><time>2026-04-04T07:06:35.223Z</time></trkpt><trkpt lat="44.3778013" lon="11.4264959"><ele>132.0</ele><time>2026-04-04T07:06:36.224Z</time></trkpt><trkpt lat="44.3776305" lon="11.4264423"><ele>132.0</ele><time>2026-04-04T07:06:37.224Z</time></trkpt><trkpt lat="44.3774588" lon="11.4263877"><ele>132.0</ele><time>2026-04-04T07:06:38.223Z</time></trkpt><trkpt lat="44.377282" lon="11.426345"><ele>132.0</ele><time>2026-04-04T07:06:39.223Z</time></trkpt><trkpt lat="44.3771143" lon="11.4263242"><ele>132.66666666666666</ele><time>2026-04-04T07:06:40.224Z</time></trkpt><trkpt lat="44.3769445" lon="11.4263288"><ele>133.33333333333331</ele><time>2026-04-04T07:06:41.224Z</time></trkpt><trkpt lat="44.3767683" lon="11.4263495"><ele>134.0</ele><time>2026-04-04T07:06:42.223Z</time></trkpt><trkpt lat="44.3765898" lon="11.4263832"><ele>134.0</ele><time>2026-04-04T07:06:43.224Z</time></trkpt><trkpt lat="44.3764052" lon="11.4264209"><ele>134.0</ele><time>2026-04-04T07:06:44.223Z</time></trkpt><trkpt lat="44.3762251" lon="11.4264565"><ele>134.0</ele><time>2026-04-04T07:06:45.224Z</time></trkpt><trkpt lat="44.3760531" lon="11.4264795"><ele>134.0</ele><time>2026-04-04T07:06:46.224Z</time></trkpt><trkpt lat="44.3758872" lon="11.4265111"><ele>134.0</ele><time>2026-04-04T07:06:47.224Z</time></trkpt><trkpt lat="44.375722" lon="11.4265504"><ele>134.0</ele><time>2026-04-04T07:06:48.223Z</time></trkpt><trkpt lat="44.3755506" lon="11.4265932"><ele>134.66666666666666</ele><time>2026-04-04T07:06:49.223Z</time></trkpt><trkpt lat="44.3753799" lon="11.4266387"><ele>135.33333333333334</ele><time>2026-04-04T07:06:50.223Z</time></trkpt><trkpt lat="44.3752072" lon="11.4266814"><ele>136.0</ele><time>2026-04-04T07:06:51.224Z</time></trkpt><trkpt lat="44.3750354" lon="11.4267308"><ele>136.0</ele><time>2026-04-04T07:06:52.224Z</time></trkpt><trkpt lat="44.3748702" lon="11.4267778"><ele>136.0</ele><time>2026-04-04T07:06:53.224Z</time></trkpt><trkpt lat="44.3747042" lon="11.4268245"><ele>136.0</ele><time>2026-04-04T07:06:54.224Z</time></trkpt><trkpt lat="44.3745375" lon="11.4268787"><ele>135.33333333333334</ele><time>2026-04-04T07:06:55.224Z</time></trkpt><trkpt lat="44.3743707" lon="11.4269432"><ele>134.66666666666666</ele><time>2026-04-04T07:06:56.224Z</time></trkpt><trkpt lat="44.374203" lon="11.4270184"><ele>134.0</ele><time>2026-04-04T07:06:57.224Z</time></trkpt><trkpt lat="44.3740313" lon="11.4270997"><ele>135.66666666666666</ele><time>2026-04-04T07:06:58.224Z</time></trkpt><trkpt lat="44.3738587" lon="11.4271908"><ele>137.33333333333334</ele><time>2026-04-04T07:06:59.223Z</time></trkpt><trkpt lat="44.3736907" lon="11.4272786"><ele>139.0</ele><time>2026-04-04T07:07:00.223Z</time></trkpt><trkpt lat="44.3735225" lon="11.4273668"><ele>139.0</ele><time>2026-04-04T07:07:01.223Z</time></trkpt><trkpt lat="44.3733552" lon="11.4274481"><ele>139.0</ele><time>2026-04-04T07:07:02.224Z</time></trkpt><trkpt lat="44.3731873" lon="11.4275125"><ele>139.0</ele><time>2026-04-04T07:07:03.223Z</time></trkpt><trkpt lat="44.3730199" lon="11.4275567"><ele>140.0</ele><time>2026-04-04T07:07:04.224Z</time></trkpt><trkpt lat="44.37285" lon="11.427572"><ele>141.0</ele><time>2026-04-04T07:07:05.223Z</time></trkpt><trkpt lat="44.3726757" lon="11.4275575"><ele>142.0</ele><time>2026-04-04T07:07:06.223Z</time></trkpt><trkpt lat="44.3725003" lon="11.4275203"><ele>142.0</ele><time>2026-04-04T07:07:07.223Z</time></trkpt><trkpt lat="44.3723241" lon="11.4274617"><ele>142.0</ele><time>2026-04-04T07:07:08.223Z</time></trkpt><trkpt lat="44.3721571" lon="11.4273918"><ele>142.0</ele><time>2026-04-04T07:07:09.224Z</time></trkpt><trkpt lat="44.3720003" lon="11.4273204"><ele>142.0</ele><time>2026-04-04T07:07:10.224Z</time></trkpt><trkpt lat="44.3718437" lon="11.4272478"><ele>142.0</ele><time>2026-04-04T07:07:11.224Z</time></trkpt><trkpt lat="44.3716949" lon="11.4271849"><ele>142.0</ele><time>2026-04-04T07:07:12.223Z</time></trkpt><trkpt lat="44.3715423" lon="11.4271186"><ele>142.0</ele><time>2026-04-04T07:07:13.223Z</time></trkpt><trkpt lat="44.3713896" lon="11.4270507"><ele>142.0</ele><time>2026-04-04T07:07:14.224Z</time></trkpt><trkpt lat="44.3712391" lon="11.4269815"><ele>142.0</ele><time>2026-04-04T07:07:15.224Z</time></trkpt><trkpt lat="44.3710856" lon="11.4269053"><ele>145.33333333333334</ele><time>2026-04-04T07:07:16.224Z</time></trkpt><trkpt lat="44.3709351" lon="11.4268193"><ele>148.66666666666666</ele><time>2026-04-04T07:07:17.224Z</time></trkpt><trkpt lat="44.3707841" lon="11.4267175"><ele>152.0</ele><time>2026-04-04T07:07:18.224Z</time></trkpt><trkpt lat="44.3706371" lon="11.4266"><ele>153.0</ele><time>2026-04-04T07:07:19.224Z</time></trkpt><trkpt lat="44.3704959" lon="11.4264687"><ele>154.0</ele><time>2026-04-04T07:07:20.224Z</time></trkpt><trkpt lat="44.3703605" lon="11.4263088"><ele>155.0</ele><time>2026-04-04T07:07:21.224Z</time></trkpt><trkpt lat="44.3702277" lon="11.4261393"><ele>153.0</ele><time>2026-04-04T07:07:22.224Z</time></trkpt><trkpt lat="44.3700951" lon="11.4259664"><ele>151.0</ele><time>2026-04-04T07:07:23.224Z</time></trkpt><trkpt lat="44.3699599" lon="11.4257926"><ele>149.0</ele><time>2026-04-04T07:07:24.224Z</time></trkpt><trkpt lat="44.3698286" lon="11.4256096"><ele>150.66666666666666</ele><time>2026-04-04T07:07:25.223Z</time></trkpt><trkpt lat="44.369702" lon="11.4254237"><ele>152.33333333333334</ele><time>2026-04-04T07:07:26.224Z</time></trkpt><trkpt lat="44.3695718" lon="11.4252386"><ele>154.0</ele><time>2026-04-04T07:07:27.224Z</time></trkpt><trkpt lat="44.369444" lon="11.425061"><ele>154.0</ele><time>2026-04-04T07:07:28.223Z</time></trkpt><trkpt lat="44.3693158" lon="11.4248803"><ele>154.0</ele><time>2026-04-04T07:07:29.224Z</time></trkpt><trkpt lat="44.369181" lon="11.4247002"><ele>154.0</ele><time>2026-04-04T07:07:30.224Z</time></trkpt><trkpt lat="44.3690498" lon="11.4245214"><ele>150.0</ele><time>2026-04-04T07:07:31.223Z</time></trkpt><trkpt lat="44.368926" lon="11.4243432"><ele>146.0</ele><time>2026-04-04T07:07:32.224Z</time></trkpt><trkpt lat="44.3687993" lon="11.4241692"><ele>142.0</ele><time>2026-04-04T07:07:33.224Z</time></trkpt><trkpt lat="44.3686719" lon="11.4239971"><ele>144.33333333333334</ele><time>2026-04-04T07:07:34.223Z</time></trkpt><trkpt lat="44.3685439" lon="11.4238274"><ele>146.66666666666666</ele><time>2026-04-04T07:07:35.224Z</time></trkpt><trkpt lat="44.3684281" lon="11.4236545"><ele>149.0</ele><time>2026-04-04T07:07:36.223Z</time></trkpt><trkpt lat="44.3683053" lon="11.4234871"><ele>149.0</ele><time>2026-04-04T07:07:37.224Z</time></trkpt><trkpt lat="44.3682067" lon="11.4233207"><ele>149.0</ele><time>2026-04-04T07:07:38.224Z</time></trkpt><trkpt lat="44.3681217" lon="11.4231431"><ele>149.0</ele><time>2026-04-04T07:07:39.224Z</time></trkpt><trkpt lat="44.3680605" lon="11.4229437"><ele>149.0</ele><time>2026-04-04T07:07:40.224Z</time></trkpt><trkpt lat="44.3680306" lon="11.4227241"><ele>149.0</ele><time>2026-04-04T07:07:41.224Z</time></trkpt><trkpt lat="44.368012" lon="11.4224968"><ele>149.0</ele><time>2026-04-04T07:07:42.224Z</time></trkpt><trkpt lat="44.3680111" lon="11.4222597"><ele>149.66666666666666</ele><time>2026-04-04T07:07:43.224Z</time></trkpt><trkpt lat="44.3679957" lon="11.4220212"><ele>150.33333333333334</ele><time>2026-04-04T07:07:44.223Z</time></trkpt><trkpt lat="44.3679642" lon="11.4217874"><ele>151.0</ele><time>2026-04-04T07:07:45.224Z</time></trkpt><trkpt lat="44.3679234" lon="11.4215619"><ele>151.0</ele><time>2026-04-04T07:07:46.224Z</time></trkpt><trkpt lat="44.3678623" lon="11.4213442"><ele>151.0</ele><time>2026-04-04T07:07:47.224Z</time></trkpt><trkpt lat="44.3677893" lon="11.4211344"><ele>151.0</ele><time>2026-04-04T07:07:48.224Z</time></trkpt><trkpt lat="44.3677037" lon="11.4209385"><ele>150.66666666666669</ele><time>2026-04-04T07:07:49.223Z</time></trkpt><trkpt lat="44.3676121" lon="11.4207483"><ele>150.33333333333334</ele><time>2026-04-04T07:07:50.223Z</time></trkpt><trkpt lat="44.3675126" lon="11.4205572"><ele>150.0</ele><time>2026-04-04T07:07:51.224Z</time></trkpt><trkpt lat="44.3674093" lon="11.4203642"><ele>150.0</ele><time>2026-04-04T07:07:52.223Z</time></trkpt><trkpt lat="44.3673154" lon="11.4201648"><ele>150.0</ele><time>2026-04-04T07:07:53.223Z</time></trkpt><trkpt lat="44.3672344" lon="11.4199585"><ele>150.0</ele><time>2026-04-04T07:07:54.224Z</time></trkpt><trkpt lat="44.3671519" lon="11.4197455"><ele>152.0</ele><time>2026-04-04T07:07:55.223Z</time></trkpt><trkpt lat="44.367068" lon="11.4195292"><ele>154.0</ele><time>2026-04-04T07:07:56.224Z</time></trkpt><trkpt lat="44.3669817" lon="11.4193097"><ele>156.0</ele><time>2026-04-04T07:07:57.224Z</time></trkpt><trkpt lat="44.3669044" lon="11.4190847"><ele>156.0</ele><time>2026-04-04T07:07:58.223Z</time></trkpt><trkpt lat="44.3668321" lon="11.4188513"><ele>156.0</ele><time>2026-04-04T07:07:59.224Z</time></trkpt><trkpt lat="44.3667577" lon="11.418623"><ele>156.0</ele><time>2026-04-04T07:08:00.224Z</time></trkpt><trkpt lat="44.3666688" lon="11.4184076"><ele>155.33333333333334</ele><time>2026-04-04T07:08:01.224Z</time></trkpt><trkpt lat="44.366558" lon="11.4182097"><ele>154.66666666666669</ele><time>2026-04-04T07:08:02.224Z</time></trkpt><trkpt lat="44.3664313" lon="11.4180394"><ele>154.0</ele><time>2026-04-04T07:08:03.223Z</time></trkpt><trkpt lat="44.3662805" lon="11.4179078"><ele>154.0</ele><time>2026-04-04T07:08:04.224Z</time></trkpt><trkpt lat="44.3661221" lon="11.4178263"><ele>154.0</ele><time>2026-04-04T07:08:05.224Z</time></trkpt><trkpt lat="44.3659494" lon="11.4177824"><ele>154.0</ele><time>2026-04-04T07:08:06.223Z</time></trkpt><trkpt lat="44.365768" lon="11.4177639"><ele>154.0</ele><time>2026-04-04T07:08:07.224Z</time></trkpt><trkpt lat="44.3655915" lon="11.4177671"><ele>154.0</ele><time>2026-04-04T07:08:08.223Z</time></trkpt><trkpt lat="44.3654116" lon="11.417783"><ele>154.0</ele><time>2026-04-04T07:08:09.224Z</time></trkpt><trkpt lat="44.3652296" lon="11.4178022"><ele>154.33333333333334</ele><time>2026-04-04T07:08:10.224Z</time></trkpt><trkpt lat="44.3650462" lon="11.4178283"><ele>154.66666666666666</ele><time>2026-04-04T07:08:11.223Z</time></trkpt><trkpt lat="44.3648592" lon="11.417856"><ele>155.0</ele><time>2026-04-04T07:08:12.224Z</time></trkpt><trkpt lat="44.3646737" lon="11.4178807"><ele>155.0</ele><time>2026-04-04T07:08:13.224Z</time></trkpt><trkpt lat="44.3644924" lon="11.4179057"><ele>155.0</ele><time>2026-04-04T07:08:14.223Z</time></trkpt><trkpt lat="44.3643167" lon="11.4179378"><ele>155.0</ele><time>2026-04-04T07:08:15.224Z</time></trkpt><trkpt lat="44.3641388" lon="11.4179805"><ele>154.66666666666666</ele><time>2026-04-04T07:08:16.223Z</time></trkpt><trkpt lat="44.3639592" lon="11.4180214"><ele>154.33333333333334</ele><time>2026-04-04T07:08:17.223Z</time></trkpt><trkpt lat="44.3637758" lon="11.4180639"><ele>154.0</ele><time>2026-04-04T07:08:18.224Z</time></trkpt><trkpt lat="44.3635912" lon="11.4181108"><ele>154.0</ele><time>2026-04-04T07:08:19.224Z</time></trkpt><trkpt lat="44.3634123" lon="11.4181528"><ele>154.0</ele><time>2026-04-04T07:08:20.224Z</time></trkpt><trkpt lat="44.3632329" lon="11.418192"><ele>154.0</ele><time>2026-04-04T07:08:21.224Z</time></trkpt><trkpt lat="44.3630508" lon="11.4182306"><ele>154.0</ele><time>2026-04-04T07:08:22.223Z</time></trkpt><trkpt lat="44.3628716" lon="11.41827"><ele>154.0</ele><time>2026-04-04T07:08:23.224Z</time></trkpt><trkpt lat="44.3626894" lon="11.4183065"><ele>154.0</ele><time>2026-04-04T07:08:24.224Z</time></trkpt><trkpt lat="44.3625112" lon="11.4183468"><ele>154.0</ele><time>2026-04-04T07:08:25.224Z</time></trkpt><trkpt lat="44.3623279" lon="11.4183862"><ele>154.0</ele><time>2026-04-04T07:08:26.224Z</time></trkpt><trkpt lat="44.362148" lon="11.4184105"><ele>154.0</ele><time>2026-04-04T07:08:27.224Z</time></trkpt><trkpt lat="44.3619679" lon="11.4183977"><ele>155.0</ele><time>2026-04-04T07:08:28.224Z</time></trkpt><trkpt lat="44.3617898" lon="11.418343"><ele>156.0</ele><time>2026-04-04T07:08:29.224Z</time></trkpt><trkpt lat="44.3616165" lon="11.4182534"><ele>157.0</ele><time>2026-04-04T07:08:30.224Z</time></trkpt><trkpt lat="44.3614483" lon="11.4181435"><ele>157.66666666666669</ele><time>2026-04-04T07:08:31.223Z</time></trkpt><trkpt lat="44.3612864" lon="11.4180333"><ele>158.33333333333334</ele><time>2026-04-04T07:08:32.224Z</time></trkpt><trkpt lat="44.3611355" lon="11.4179257"><ele>159.0</ele><time>2026-04-04T07:08:33.224Z</time></trkpt><trkpt lat="44.3609861" lon="11.4178216"><ele>159.0</ele><time>2026-04-04T07:08:34.223Z</time></trkpt><trkpt lat="44.3608327" lon="11.4177239"><ele>159.0</ele><time>2026-04-04T07:08:35.223Z</time></trkpt><trkpt lat="44.3606791" lon="11.417624"><ele>159.0</ele><time>2026-04-04T07:08:36.224Z</time></trkpt><trkpt lat="44.3605257" lon="11.4175252"><ele>164.33333333333334</ele><time>2026-04-04T07:08:37.223Z</time></trkpt><trkpt lat="44.3603761" lon="11.417421"><ele>169.66666666666669</ele><time>2026-04-04T07:08:38.223Z</time></trkpt><trkpt lat="44.3602256" lon="11.4173099"><ele>175.0</ele><time>2026-04-04T07:08:39.223Z</time></trkpt><trkpt lat="44.3600806" lon="11.4171842"><ele>175.33333333333334</ele><time>2026-04-04T07:08:40.223Z</time></trkpt><trkpt lat="44.3599445" lon="11.4170431"><ele>175.66666666666666</ele><time>2026-04-04T07:08:41.223Z</time></trkpt><trkpt lat="44.3598124" lon="11.4168827"><ele>176.0</ele><time>2026-04-04T07:08:42.223Z</time></trkpt><trkpt lat="44.3596874" lon="11.4167073"><ele>176.0</ele><time>2026-04-04T07:08:43.224Z</time></trkpt><trkpt lat="44.359583" lon="11.4165111"><ele>176.0</ele><time>2026-04-04T07:08:44.224Z</time></trkpt><trkpt lat="44.3595009" lon="11.4163147"><ele>176.0</ele><time>2026-04-04T07:08:45.223Z</time></trkpt><trkpt lat="44.3594246" lon="11.4161218"><ele>173.0</ele><time>2026-04-04T07:08:46.224Z</time></trkpt><trkpt lat="44.3593505" lon="11.4159324"><ele>170.0</ele><time>2026-04-04T07:08:47.223Z</time></trkpt><trkpt lat="44.3592656" lon="11.415767"><ele>167.0</ele><time>2026-04-04T07:08:48.223Z</time></trkpt><trkpt lat="44.3591696" lon="11.415624"><ele>164.0</ele><time>2026-04-04T07:08:49.223Z</time></trkpt><trkpt lat="44.3590605" lon="11.4155051"><ele>163.0</ele><time>2026-04-04T07:08:50.223Z</time></trkpt><trkpt lat="44.3589358" lon="11.4154024"><ele>162.0</ele><time>2026-04-04T07:08:51.224Z</time></trkpt><trkpt lat="44.3588094" lon="11.4153039"><ele>161.0</ele><time>2026-04-04T07:08:52.223Z</time></trkpt><trkpt lat="44.3586872" lon="11.4152053"><ele>160.0</ele><time>2026-04-04T07:08:53.224Z</time></trkpt><trkpt lat="44.3585624" lon="11.4150951"><ele>162.25</ele><time>2026-04-04T07:08:54.223Z</time></trkpt><trkpt lat="44.358438" lon="11.414988"><ele>164.5</ele><time>2026-04-04T07:08:55.224Z</time></trkpt><trkpt lat="44.3583112" lon="11.414881"><ele>166.75</ele><time>2026-04-04T07:08:56.223Z</time></trkpt><trkpt lat="44.3581864" lon="11.4147737"><ele>169.0</ele><time>2026-04-04T07:08:57.224Z</time></trkpt><trkpt lat="44.3580553" lon="11.4146637"><ele>170.0</ele><time>2026-04-04T07:08:58.224Z</time></trkpt><trkpt lat="44.3579234" lon="11.4145524"><ele>171.0</ele><time>2026-04-04T07:08:59.223Z</time></trkpt><trkpt lat="44.3577915" lon="11.414441"><ele>172.0</ele><time>2026-04-04T07:09:00.224Z</time></trkpt><trkpt lat="44.3576614" lon="11.4143264"><ele>172.0</ele><time>2026-04-04T07:09:01.224Z</time></trkpt><trkpt lat="44.3575343" lon="11.4142105"><ele>172.0</ele><time>2026-04-04T07:09:02.224Z</time></trkpt><trkpt lat="44.3574067" lon="11.4140954"><ele>172.0</ele><time>2026-04-04T07:09:03.223Z</time></trkpt><trkpt lat="44.3572831" lon="11.4139959"><ele>172.0</ele><time>2026-04-04T07:09:04.224Z</time></trkpt><trkpt lat="44.3571652" lon="11.4139248"><ele>174.0</ele><time>2026-04-04T07:09:05.223Z</time></trkpt><trkpt lat="44.3570455" lon="11.4138773"><ele>176.0</ele><time>2026-04-04T07:09:06.224Z</time></trkpt><trkpt lat="44.3569203" lon="11.4138508"><ele>178.0</ele><time>2026-04-04T07:09:07.224Z</time></trkpt><trkpt lat="44.3568021" lon="11.4138479"><ele>180.0</ele><time>2026-04-04T07:09:08.223Z</time></trkpt><trkpt lat="44.3567018" lon="11.4138583"><ele>180.0</ele><time>2026-04-04T07:09:09.224Z</time></trkpt><trkpt lat="44.3565935" lon="11.4138923"><ele>180.0</ele><time>2026-04-04T07:09:10.224Z</time></trkpt><trkpt lat="44.356479" lon="11.4139383"><ele>180.0</ele><time>2026-04-04T07:09:11.223Z</time></trkpt><trkpt lat="44.3563615" lon="11.4139844"><ele>180.0</ele><time>2026-04-04T07:09:12.223Z</time></trkpt><trkpt lat="44.3562553" lon="11.4140251"><ele>179.0</ele><time>2026-04-04T07:09:13.224Z</time></trkpt><trkpt lat="44.3561615" lon="11.4140666"><ele>178.0</ele><time>2026-04-04T07:09:14.223Z</time></trkpt><trkpt lat="44.3560864" lon="11.4141108"><ele>177.0</ele><time>2026-04-04T07:09:15.223Z</time></trkpt><trkpt lat="44.3560185" lon="11.414155"><ele>176.0</ele><time>2026-04-04T07:09:16.224Z</time></trkpt><trkpt lat="44.355952" lon="11.4141931"><ele>175.0</ele><time>2026-04-04T07:09:17.224Z</time></trkpt><trkpt lat="44.3558838" lon="11.4142281"><ele>174.0</ele><time>2026-04-04T07:09:18.223Z</time></trkpt><trkpt lat="44.355811" lon="11.4142593"><ele>174.0</ele><time>2026-04-04T07:09:19.223Z</time></trkpt><trkpt lat="44.3557038" lon="11.4142918"><ele>174.0</ele><time>2026-04-04T07:09:21.224Z</time></trkpt><trkpt lat="44.3556391" lon="11.4143406"><ele>174.0</ele><time>2026-04-04T07:09:26.223Z</time></trkpt><trkpt lat="44.3557609" lon="11.4143418"><ele>174.0</ele><time>2026-04-04T07:09:30.224Z</time></trkpt><trkpt lat="44.3558441" lon="11.4142971"><ele>174.0</ele><time>2026-04-04T07:09:31.224Z</time></trkpt><trkpt lat="44.3559451" lon="11.414234"><ele>174.0</ele><time>2026-04-04T07:09:32.224Z</time></trkpt><trkpt lat="44.3560562" lon="11.4141689"><ele>174.0</ele><time>2026-04-04T07:09:33.223Z</time></trkpt><trkpt lat="44.3561716" lon="11.4140959"><ele>174.0</ele><time>2026-04-04T07:09:34.223Z</time></trkpt><trkpt lat="44.3562726" lon="11.414022"><ele>174.0</ele><time>2026-04-04T07:09:35.223Z</time></trkpt><trkpt lat="44.3563585" lon="11.4139711"><ele>174.0</ele><time>2026-04-04T07:09:36.224Z</time></trkpt><trkpt lat="44.3564302" lon="11.4139486"><ele>174.0</ele><time>2026-04-04T07:09:37.224Z</time></trkpt><trkpt lat="44.3565132" lon="11.4139943"><ele>174.0</ele><time>2026-04-04T07:09:39.224Z</time></trkpt><trkpt lat="44.3564911" lon="11.4141199"><ele>174.0</ele><time>2026-04-04T07:09:41.224Z</time></trkpt><trkpt lat="44.3563053" lon="11.4142545"><ele>174.0</ele><time>2026-04-04T07:09:44.224Z</time></trkpt><trkpt lat="44.356234" lon="11.414311"><ele>174.0</ele><time>2026-04-04T07:09:45.223Z</time></trkpt><trkpt lat="44.3561835" lon="11.4143927"><ele>174.0</ele><time>2026-04-04T07:09:46.224Z</time></trkpt><trkpt lat="44.3561608" lon="11.4145044"><ele>174.0</ele><time>2026-04-04T07:09:47.224Z</time></trkpt><trkpt lat="44.3561708" lon="11.4146284"><ele>174.0</ele><time>2026-04-04T07:09:48.223Z</time></trkpt><trkpt lat="44.356202" lon="11.4147558"><ele>174.0</ele><time>2026-04-04T07:09:49.224Z</time></trkpt><trkpt lat="44.356235" lon="11.4148693"><ele>175.66666666666666</ele><time>2026-04-04T07:09:50.223Z</time></trkpt><trkpt lat="44.3562586" lon="11.4149742"><ele>177.33333333333334</ele><time>2026-04-04T07:09:51.224Z</time></trkpt><trkpt lat="44.3562697" lon="11.415077"><ele>179.0</ele><time>2026-04-04T07:09:52.224Z</time></trkpt><trkpt lat="44.3561988" lon="11.4152062"><ele>180.66666666666669</ele><time>2026-04-04T07:09:54.224Z</time></trkpt><trkpt lat="44.3561221" lon="11.4152303"><ele>182.33333333333334</ele><time>2026-04-04T07:09:55.223Z</time></trkpt><trkpt lat="44.3560424" lon="11.415262"><ele>184.0</ele><time>2026-04-04T07:09:56.223Z</time></trkpt><trkpt lat="44.3559744" lon="11.4153174"><ele>184.0</ele><time>2026-04-04T07:09:57.224Z</time></trkpt><trkpt lat="44.3559214" lon="11.4153839"><ele>184.0</ele><time>2026-04-04T07:09:58.223Z</time></trkpt><trkpt lat="44.3558949" lon="11.4154779"><ele>184.0</ele><time>2026-04-04T07:09:59.224Z</time></trkpt><trkpt lat="44.3558944" lon="11.4155706"><ele>184.0</ele><time>2026-04-04T07:10:00.224Z</time></trkpt><trkpt lat="44.3559496" lon="11.415657"><ele>184.0</ele><time>2026-04-04T07:10:02.223Z</time></trkpt><trkpt lat="44.356027" lon="11.4155352"><ele>184.0</ele><time>2026-04-04T07:10:04.223Z</time></trkpt><trkpt lat="44.3560617" lon="11.4154496"><ele>184.0</ele><time>2026-04-04T07:10:05.224Z</time></trkpt><trkpt lat="44.3561015" lon="11.415379"><ele>184.0</ele><time>2026-04-04T07:10:06.224Z</time></trkpt><trkpt lat="44.3562191" lon="11.4153353"><ele>184.0</ele><time>2026-04-04T07:10:08.223Z</time></trkpt><trkpt lat="44.3562943" lon="11.415414"><ele>184.0</ele><time>2026-04-04T07:10:09.223Z</time></trkpt><trkpt lat="44.3563528" lon="11.4155264"><ele>184.0</ele><time>2026-04-04T07:10:10.223Z</time></trkpt><trkpt lat="44.3563914" lon="11.4156603"><ele>187.79999999999998</ele><time>2026-04-04T07:10:11.223Z</time></trkpt><trkpt lat="44.3564127" lon="11.4158015"><ele>191.6</ele><time>2026-04-04T07:10:12.224Z</time></trkpt><trkpt lat="44.356425" lon="11.4159406"><ele>195.4</ele><time>2026-04-04T07:10:13.224Z</time></trkpt><trkpt lat="44.3564447" lon="11.4160821"><ele>199.2</ele><time>2026-04-04T07:10:14.224Z</time></trkpt><trkpt lat="44.3564654" lon="11.4162183"><ele>203.0</ele><time>2026-04-04T07:10:15.224Z</time></trkpt><trkpt lat="44.3564778" lon="11.4163585"><ele>205.0</ele><time>2026-04-04T07:10:16.224Z</time></trkpt><trkpt lat="44.3564786" lon="11.4165007"><ele>207.0</ele><time>2026-04-04T07:10:17.224Z</time></trkpt><trkpt lat="44.3564664" lon="11.416646"><ele>209.0</ele><time>2026-04-04T07:10:18.224Z</time></trkpt><trkpt lat="44.3564398" lon="11.4167848"><ele>211.0</ele><time>2026-04-04T07:10:19.223Z</time></trkpt><trkpt lat="44.356412" lon="11.4169073"><ele>213.0</ele><time>2026-04-04T07:10:20.224Z</time></trkpt><trkpt lat="44.3563931" lon="11.4170193"><ele>213.0</ele><time>2026-04-04T07:10:21.224Z</time></trkpt><trkpt lat="44.3563941" lon="11.4171218"><ele>213.0</ele><time>2026-04-04T07:10:22.223Z</time></trkpt><trkpt lat="44.3564184" lon="11.4172172"><ele>213.0</ele><time>2026-04-04T07:10:23.224Z</time></trkpt><trkpt lat="44.3564636" lon="11.4172966"><ele>213.0</ele><time>2026-04-04T07:10:24.224Z</time></trkpt><trkpt lat="44.3565299" lon="11.4173561"><ele>213.0</ele><time>2026-04-04T07:10:25.224Z</time></trkpt><trkpt lat="44.356596" lon="11.4174133"><ele>213.0</ele><time>2026-04-04T07:10:26.224Z</time></trkpt><trkpt lat="44.3566555" lon="11.4174797"><ele>214.0</ele><time>2026-04-04T07:10:27.223Z</time></trkpt><trkpt lat="44.35669" lon="11.4175621"><ele>215.0</ele><time>2026-04-04T07:10:28.223Z</time></trkpt><trkpt lat="44.3566952" lon="11.4176512"><ele>216.0</ele><time>2026-04-04T07:10:29.224Z</time></trkpt><trkpt lat="44.3566661" lon="11.4177392"><ele>217.0</ele><time>2026-04-04T07:10:30.224Z</time></trkpt><trkpt lat="44.3566051" lon="11.4178104"><ele>218.0</ele><time>2026-04-04T07:10:31.223Z</time></trkpt><trkpt lat="44.3565235" lon="11.4178799"><ele>219.0</ele><time>2026-04-04T07:10:32.224Z</time></trkpt><trkpt lat="44.3564269" lon="11.417943"><ele>222.5</ele><time>2026-04-04T07:10:33.224Z</time></trkpt><trkpt lat="44.3563274" lon="11.4180164"><ele>226.0</ele><time>2026-04-04T07:10:34.223Z</time></trkpt><trkpt lat="44.356228" lon="11.4180946"><ele>229.5</ele><time>2026-04-04T07:10:35.224Z</time></trkpt><trkpt lat="44.3561322" lon="11.4181832"><ele>233.0</ele><time>2026-04-04T07:10:36.224Z</time></trkpt><trkpt lat="44.3560424" lon="11.4182782"><ele>233.0</ele><time>2026-04-04T07:10:37.223Z</time></trkpt><trkpt lat="44.3559468" lon="11.4183723"><ele>233.0</ele><time>2026-04-04T07:10:38.224Z</time></trkpt><trkpt lat="44.3558406" lon="11.4184582"><ele>233.0</ele><time>2026-04-04T07:10:39.223Z</time></trkpt><trkpt lat="44.3557262" lon="11.4185203"><ele>233.0</ele><time>2026-04-04T07:10:40.223Z</time></trkpt><trkpt lat="44.3556176" lon="11.4185802"><ele>231.5</ele><time>2026-04-04T07:10:41.223Z</time></trkpt><trkpt lat="44.3555066" lon="11.418641"><ele>230.0</ele><time>2026-04-04T07:10:42.224Z</time></trkpt><trkpt lat="44.3554012" lon="11.4187051"><ele>228.5</ele><time>2026-04-04T07:10:43.224Z</time></trkpt><trkpt lat="44.3552899" lon="11.418766"><ele>227.0</ele><time>2026-04-04T07:10:44.224Z</time></trkpt><trkpt lat="44.3551768" lon="11.4188354"><ele>231.0</ele><time>2026-04-04T07:10:45.224Z</time></trkpt><trkpt lat="44.3550735" lon="11.4189001"><ele>235.0</ele><time>2026-04-04T07:10:46.224Z</time></trkpt><trkpt lat="44.3549936" lon="11.4189681"><ele>239.0</ele><time>2026-04-04T07:10:47.224Z</time></trkpt><trkpt lat="44.3549307" lon="11.4190592"><ele>243.0</ele><time>2026-04-04T07:10:48.223Z</time></trkpt><trkpt lat="44.3548823" lon="11.4191828"><ele>247.0</ele><time>2026-04-04T07:10:49.224Z</time></trkpt><trkpt lat="44.3548404" lon="11.4193294"><ele>247.0</ele><time>2026-04-04T07:10:50.224Z</time></trkpt><trkpt lat="44.3547906" lon="11.4194831"><ele>247.0</ele><time>2026-04-04T07:10:51.224Z</time></trkpt><trkpt lat="44.3547266" lon="11.4196338"><ele>247.0</ele><time>2026-04-04T07:10:52.224Z</time></trkpt><trkpt lat="44.3546502" lon="11.4197823"><ele>247.0</ele><time>2026-04-04T07:10:53.224Z</time></trkpt><trkpt lat="44.3545585" lon="11.4199298"><ele>246.75</ele><time>2026-04-04T07:10:54.223Z</time></trkpt><trkpt lat="44.3544652" lon="11.420079"><ele>246.5</ele><time>2026-04-04T07:10:55.224Z</time></trkpt><trkpt lat="44.3543664" lon="11.4202319"><ele>246.25</ele><time>2026-04-04T07:10:56.224Z</time></trkpt><trkpt lat="44.3542577" lon="11.4203866"><ele>246.0</ele><time>2026-04-04T07:10:57.223Z</time></trkpt><trkpt lat="44.3541577" lon="11.420532"><ele>248.20000000000002</ele><time>2026-04-04T07:10:58.224Z</time></trkpt><trkpt lat="44.3540814" lon="11.4206727"><ele>250.40000000000003</ele><time>2026-04-04T07:10:59.224Z</time></trkpt><trkpt lat="44.3540501" lon="11.4208088"><ele>252.6</ele><time>2026-04-04T07:11:00.224Z</time></trkpt><trkpt lat="44.3540636" lon="11.4209327"><ele>254.8</ele><time>2026-04-04T07:11:01.223Z</time></trkpt><trkpt lat="44.3541233" lon="11.4210361"><ele>257.0</ele><time>2026-04-04T07:11:02.223Z</time></trkpt><trkpt lat="44.3542101" lon="11.4210873"><ele>257.0</ele><time>2026-04-04T07:11:03.223Z</time></trkpt><trkpt lat="44.3543169" lon="11.4210678"><ele>257.0</ele><time>2026-04-04T07:11:04.224Z</time></trkpt><trkpt lat="44.3544312" lon="11.4209957"><ele>257.0</ele><time>2026-04-04T07:11:05.223Z</time></trkpt><trkpt lat="44.3545457" lon="11.4208899"><ele>257.0</ele><time>2026-04-04T07:11:06.224Z</time></trkpt><trkpt lat="44.3546637" lon="11.420767"><ele>260.5</ele><time>2026-04-04T07:11:07.224Z</time></trkpt><trkpt lat="44.354786" lon="11.4206565"><ele>264.0</ele><time>2026-04-04T07:11:08.224Z</time></trkpt><trkpt lat="44.3549063" lon="11.4205729"><ele>267.5</ele><time>2026-04-04T07:11:09.223Z</time></trkpt><trkpt lat="44.3550198" lon="11.4205293"><ele>271.0</ele><time>2026-04-04T07:11:10.223Z</time></trkpt><trkpt lat="44.3551289" lon="11.420522"><ele>271.0</ele><time>2026-04-04T07:11:11.223Z</time></trkpt><trkpt lat="44.3552362" lon="11.4205317"><ele>271.0</ele><time>2026-04-04T07:11:12.224Z</time></trkpt><trkpt lat="44.3553476" lon="11.4205263"><ele>271.0</ele><time>2026-04-04T07:11:13.223Z</time></trkpt><trkpt lat="44.3554579" lon="11.4204867"><ele>271.0</ele><time>2026-04-04T07:11:14.224Z</time></trkpt><trkpt lat="44.3555735" lon="11.4204106"><ele>270.5</ele><time>2026-04-04T07:11:15.224Z</time></trkpt><trkpt lat="44.3556954" lon="11.4203281"><ele>270.0</ele><time>2026-04-04T07:11:16.224Z</time></trkpt><trkpt lat="44.3558233" lon="11.4202482"><ele>269.5</ele><time>2026-04-04T07:11:17.223Z</time></trkpt><trkpt lat="44.3559504" lon="11.420179"><ele>269.0</ele><time>2026-04-04T07:11:18.224Z</time></trkpt><trkpt lat="44.3560746" lon="11.4201351"><ele>269.0</ele><time>2026-04-04T07:11:19.224Z</time></trkpt><trkpt lat="44.356191" lon="11.4201127"><ele>269.0</ele><time>2026-04-04T07:11:20.223Z</time></trkpt><trkpt lat="44.3562955" lon="11.4201091"><ele>269.0</ele><time>2026-04-04T07:11:21.224Z</time></trkpt><trkpt lat="44.3563851" lon="11.4201231"><ele>269.0</ele><time>2026-04-04T07:11:22.224Z</time></trkpt><trkpt lat="44.356453" lon="11.4201531"><ele>269.0</ele><time>2026-04-04T07:11:23.224Z</time></trkpt><trkpt lat="44.3565309" lon="11.4202851"><ele>269.0</ele><time>2026-04-04T07:11:25.224Z</time></trkpt><trkpt lat="44.3565275" lon="11.4203979"><ele>269.0</ele><time>2026-04-04T07:11:26.224Z</time></trkpt><trkpt lat="44.3565061" lon="11.4205229"><ele>269.0</ele><time>2026-04-04T07:11:27.225Z</time></trkpt><trkpt lat="44.3564756" lon="11.4206633"><ele>269.0</ele><time>2026-04-04T07:11:28.225Z</time></trkpt><trkpt lat="44.356435" lon="11.4208084"><ele>269.0</ele><time>2026-04-04T07:11:29.225Z</time></trkpt><trkpt lat="44.3563744" lon="11.4209431"><ele>272.0</ele><time>2026-04-04T07:11:30.225Z</time></trkpt><trkpt lat="44.3562947" lon="11.4210533"><ele>275.0</ele><time>2026-04-04T07:11:31.225Z</time></trkpt><trkpt lat="44.3562062" lon="11.4211542"><ele>278.0</ele><time>2026-04-04T07:11:32.224Z</time></trkpt><trkpt lat="44.3561134" lon="11.42125"><ele>281.0</ele><time>2026-04-04T07:11:33.224Z</time></trkpt><trkpt lat="44.3560319" lon="11.421347"><ele>284.0</ele><time>2026-04-04T07:11:34.224Z</time></trkpt><trkpt lat="44.355961" lon="11.4214495"><ele>286.59999999999997</ele><time>2026-04-04T07:11:35.224Z</time></trkpt><trkpt lat="44.3558961" lon="11.4215654"><ele>289.2</ele><time>2026-04-04T07:11:36.224Z</time></trkpt><trkpt lat="44.3558593" lon="11.4216909"><ele>291.79999999999995</ele><time>2026-04-04T07:11:37.225Z</time></trkpt><trkpt lat="44.3558282" lon="11.4218048"><ele>294.4</ele><time>2026-04-04T07:11:38.225Z</time></trkpt><trkpt lat="44.3557761" lon="11.4219035"><ele>297.0</ele><time>2026-04-04T07:11:39.225Z</time></trkpt><trkpt lat="44.3557013" lon="11.4219852"><ele>297.0</ele><time>2026-04-04T07:11:40.225Z</time></trkpt><trkpt lat="44.3556092" lon="11.4220592"><ele>297.0</ele><time>2026-04-04T07:11:41.225Z</time></trkpt><trkpt lat="44.35551" lon="11.4221346"><ele>297.0</ele><time>2026-04-04T07:11:42.224Z</time></trkpt><trkpt lat="44.3554121" lon="11.4222165"><ele>297.0</ele><time>2026-04-04T07:11:43.224Z</time></trkpt><trkpt lat="44.35531" lon="11.4223011"><ele>298.25</ele><time>2026-04-04T07:11:44.224Z</time></trkpt><trkpt lat="44.3552045" lon="11.4223938"><ele>299.5</ele><time>2026-04-04T07:11:45.224Z</time></trkpt><trkpt lat="44.355091" lon="11.4224826"><ele>300.75</ele><time>2026-04-04T07:11:46.225Z</time></trkpt><trkpt lat="44.3549782" lon="11.4225749"><ele>302.0</ele><time>2026-04-04T07:11:47.225Z</time></trkpt><trkpt lat="44.3548636" lon="11.4226636"><ele>302.0</ele><time>2026-04-04T07:11:48.225Z</time></trkpt><trkpt lat="44.3547519" lon="11.4227545"><ele>302.0</ele><time>2026-04-04T07:11:49.225Z</time></trkpt><trkpt lat="44.3546411" lon="11.4228497"><ele>302.0</ele><time>2026-04-04T07:11:50.225Z</time></trkpt><trkpt lat="44.3545335" lon="11.4229479"><ele>302.0</ele><time>2026-04-04T07:11:51.225Z</time></trkpt><trkpt lat="44.3544249" lon="11.4230473"><ele>303.5</ele><time>2026-04-04T07:11:52.224Z</time></trkpt><trkpt lat="44.3543155" lon="11.4231399"><ele>305.0</ele><time>2026-04-04T07:11:53.225Z</time></trkpt><trkpt lat="44.3542053" lon="11.4232459"><ele>306.5</ele><time>2026-04-04T07:11:54.225Z</time></trkpt><trkpt lat="44.3541011" lon="11.4233716"><ele>308.0</ele><time>2026-04-04T07:11:55.224Z</time></trkpt><trkpt lat="44.3539963" lon="11.423508"><ele>308.0</ele><time>2026-04-04T07:11:56.225Z</time></trkpt><trkpt lat="44.3538892" lon="11.4236512"><ele>308.0</ele><time>2026-04-04T07:11:57.225Z</time></trkpt><trkpt lat="44.3537795" lon="11.4237954"><ele>308.0</ele><time>2026-04-04T07:11:58.225Z</time></trkpt><trkpt lat="44.3536788" lon="11.4239398"><ele>308.0</ele><time>2026-04-04T07:11:59.225Z</time></trkpt><trkpt lat="44.3535839" lon="11.4240769"><ele>309.5</ele><time>2026-04-04T07:12:00.225Z</time></trkpt><trkpt lat="44.3534931" lon="11.4242148"><ele>311.0</ele><time>2026-04-04T07:12:01.224Z</time></trkpt><trkpt lat="44.3534079" lon="11.4243537"><ele>312.5</ele><time>2026-04-04T07:12:02.225Z</time></trkpt><trkpt lat="44.3533268" lon="11.424502"><ele>314.0</ele><time>2026-04-04T07:12:03.225Z</time></trkpt><trkpt lat="44.3532443" lon="11.4246366"><ele>314.5</ele><time>2026-04-04T07:12:04.225Z</time></trkpt><trkpt lat="44.3531665" lon="11.4247691"><ele>315.0</ele><time>2026-04-04T07:12:05.225Z</time></trkpt><trkpt lat="44.3530989" lon="11.4249148"><ele>315.5</ele><time>2026-04-04T07:12:06.224Z</time></trkpt><trkpt lat="44.3530338" lon="11.4250627"><ele>316.0</ele><time>2026-04-04T07:12:07.225Z</time></trkpt><trkpt lat="44.352966" lon="11.4252039"><ele>316.0</ele><time>2026-04-04T07:12:08.225Z</time></trkpt><trkpt lat="44.3528961" lon="11.4253508"><ele>316.0</ele><time>2026-04-04T07:12:09.225Z</time></trkpt><trkpt lat="44.3528226" lon="11.4255018"><ele>316.0</ele><time>2026-04-04T07:12:10.224Z</time></trkpt><trkpt lat="44.352758" lon="11.4256581"><ele>316.0</ele><time>2026-04-04T07:12:11.224Z</time></trkpt><trkpt lat="44.3527009" lon="11.4258145"><ele>318.75</ele><time>2026-04-04T07:12:12.224Z</time></trkpt><trkpt lat="44.3526572" lon="11.4259779"><ele>321.5</ele><time>2026-04-04T07:12:13.225Z</time></trkpt><trkpt lat="44.3526254" lon="11.4261512"><ele>324.25</ele><time>2026-04-04T07:12:14.225Z</time></trkpt><trkpt lat="44.3526057" lon="11.4263302"><ele>327.0</ele><time>2026-04-04T07:12:15.225Z</time></trkpt><trkpt lat="44.3525946" lon="11.4265076"><ele>330.6</ele><time>2026-04-04T07:12:16.225Z</time></trkpt><trkpt lat="44.3525809" lon="11.4266778"><ele>334.20000000000005</ele><time>2026-04-04T07:12:17.225Z</time></trkpt><trkpt lat="44.3525555" lon="11.4268247"><ele>337.8</ele><time>2026-04-04T07:12:18.225Z</time></trkpt><trkpt lat="44.3525149" lon="11.4269549"><ele>341.4</ele><time>2026-04-04T07:12:19.225Z</time></trkpt><trkpt lat="44.3524486" lon="11.4270731"><ele>345.0</ele><time>2026-04-04T07:12:20.225Z</time></trkpt><trkpt lat="44.3523584" lon="11.4271558"><ele>346.6</ele><time>2026-04-04T07:12:21.225Z</time></trkpt><trkpt lat="44.3522524" lon="11.4271978"><ele>348.2</ele><time>2026-04-04T07:12:22.225Z</time></trkpt><trkpt lat="44.3521498" lon="11.427218"><ele>349.79999999999995</ele><time>2026-04-04T07:12:23.225Z</time></trkpt><trkpt lat="44.3520717" lon="11.4272517"><ele>351.4</ele><time>2026-04-04T07:12:24.225Z</time></trkpt><trkpt lat="44.3520319" lon="11.4273808"><ele>353.0</ele><time>2026-04-04T07:12:26.225Z</time></trkpt><trkpt lat="44.3521115" lon="11.427463"><ele>353.0</ele><time>2026-04-04T07:12:28.225Z</time></trkpt><trkpt lat="44.3521916" lon="11.4274313"><ele>353.0</ele><time>2026-04-04T07:12:29.225Z</time></trkpt><trkpt lat="44.3522939" lon="11.4273829"><ele>353.0</ele><time>2026-04-04T07:12:30.224Z</time></trkpt><trkpt lat="44.3524035" lon="11.4273484"><ele>353.0</ele><time>2026-04-04T07:12:31.224Z</time></trkpt><trkpt lat="44.3525177" lon="11.4273141"><ele>353.0</ele><time>2026-04-04T07:12:32.225Z</time></trkpt><trkpt lat="44.3526292" lon="11.427246"><ele>351.0</ele><time>2026-04-04T07:12:33.225Z</time></trkpt><trkpt lat="44.3527411" lon="11.4271502"><ele>349.0</ele><time>2026-04-04T07:12:34.224Z</time></trkpt><trkpt lat="44.3528523" lon="11.427053"><ele>347.0</ele><time>2026-04-04T07:12:35.225Z</time></trkpt><trkpt lat="44.3529559" lon="11.4269976"><ele>345.0</ele><time>2026-04-04T07:12:36.225Z</time></trkpt><trkpt lat="44.3530613" lon="11.4269893"><ele>347.6666666666667</ele><time>2026-04-04T07:12:37.225Z</time></trkpt><trkpt lat="44.3531599" lon="11.4270082"><ele>350.3333333333333</ele><time>2026-04-04T07:12:38.225Z</time></trkpt><trkpt lat="44.3532422" lon="11.4270515"><ele>353.0</ele><time>2026-04-04T07:12:39.225Z</time></trkpt><trkpt lat="44.3532891" lon="11.4271115"><ele>355.66666666666663</ele><time>2026-04-04T07:12:40.225Z</time></trkpt><trkpt lat="44.3532283" lon="11.4272499"><ele>358.3333333333333</ele><time>2026-04-04T07:12:42.224Z</time></trkpt><trkpt lat="44.3531653" lon="11.4272889"><ele>361.0</ele><time>2026-04-04T07:12:43.225Z</time></trkpt><trkpt lat="44.3530895" lon="11.427317"><ele>361.6</ele><time>2026-04-04T07:12:44.224Z</time></trkpt><trkpt lat="44.353004" lon="11.4273628"><ele>362.20000000000005</ele><time>2026-04-04T07:12:45.224Z</time></trkpt><trkpt lat="44.3529267" lon="11.4274382"><ele>362.79999999999995</ele><time>2026-04-04T07:12:46.225Z</time></trkpt><trkpt lat="44.3528557" lon="11.4275344"><ele>363.4</ele><time>2026-04-04T07:12:47.225Z</time></trkpt><trkpt lat="44.352788" lon="11.4276529"><ele>364.0</ele><time>2026-04-04T07:12:48.225Z</time></trkpt><trkpt lat="44.3527196" lon="11.4277645"><ele>364.0</ele><time>2026-04-04T07:12:49.225Z</time></trkpt><trkpt lat="44.3526394" lon="11.4278622"><ele>364.0</ele><time>2026-04-04T07:12:50.225Z</time></trkpt><trkpt lat="44.3525456" lon="11.4279425"><ele>364.0</ele><time>2026-04-04T07:12:51.224Z</time></trkpt><trkpt lat="44.352439" lon="11.4280045"><ele>364.0</ele><time>2026-04-04T07:12:52.224Z</time></trkpt><trkpt lat="44.3523296" lon="11.4280615"><ele>364.0</ele><time>2026-04-04T07:12:53.225Z</time></trkpt><trkpt lat="44.3522139" lon="11.428111"><ele>368.75</ele><time>2026-04-04T07:12:54.225Z</time></trkpt><trkpt lat="44.3520863" lon="11.4281561"><ele>373.5</ele><time>2026-04-04T07:12:55.225Z</time></trkpt><trkpt lat="44.3519585" lon="11.4281932"><ele>378.25</ele><time>2026-04-04T07:12:56.225Z</time></trkpt><trkpt lat="44.3518289" lon="11.4282324"><ele>383.0</ele><time>2026-04-04T07:12:57.225Z</time></trkpt><trkpt lat="44.3517081" lon="11.4282858"><ele>383.0</ele><time>2026-04-04T07:12:58.225Z</time></trkpt><trkpt lat="44.3516007" lon="11.4283443"><ele>383.0</ele><time>2026-04-04T07:12:59.225Z</time></trkpt><trkpt lat="44.3515078" lon="11.4284067"><ele>383.0</ele><time>2026-04-04T07:13:00.225Z</time></trkpt><trkpt lat="44.3514365" lon="11.4284998"><ele>383.0</ele><time>2026-04-04T07:13:01.225Z</time></trkpt><trkpt lat="44.3513865" lon="11.4286323"><ele>383.0</ele><time>2026-04-04T07:13:02.225Z</time></trkpt><trkpt lat="44.3513475" lon="11.4287892"><ele>387.79999999999995</ele><time>2026-04-04T07:13:03.225Z</time></trkpt><trkpt lat="44.3513045" lon="11.4289353"><ele>392.6</ele><time>2026-04-04T07:13:04.224Z</time></trkpt><trkpt lat="44.3512351" lon="11.4290178"><ele>397.4</ele><time>2026-04-04T07:13:05.224Z</time></trkpt><trkpt lat="44.3511442" lon="11.4290397"><ele>402.20000000000005</ele><time>2026-04-04T07:13:06.225Z</time></trkpt><trkpt lat="44.3510309" lon="11.4290291"><ele>407.0</ele><time>2026-04-04T07:13:07.225Z</time></trkpt><trkpt lat="44.350899" lon="11.4290078"><ele>407.0</ele><time>2026-04-04T07:13:08.224Z</time></trkpt><trkpt lat="44.3507655" lon="11.4289949"><ele>407.0</ele><time>2026-04-04T07:13:09.225Z</time></trkpt><trkpt lat="44.3506363" lon="11.4289841"><ele>407.0</ele><time>2026-04-04T07:13:10.224Z</time></trkpt><trkpt lat="44.3505142" lon="11.4289806"><ele>407.0</ele><time>2026-04-04T07:13:11.225Z</time></trkpt><trkpt lat="44.3504082" lon="11.4289897"><ele>406.16666666666663</ele><time>2026-04-04T07:13:12.225Z</time></trkpt><trkpt lat="44.350323" lon="11.4290209"><ele>405.3333333333333</ele><time>2026-04-04T07:13:13.225Z</time></trkpt><trkpt lat="44.3502597" lon="11.4290741"><ele>404.5</ele><time>2026-04-04T07:13:14.225Z</time></trkpt><trkpt lat="44.3502234" lon="11.4292227"><ele>403.66666666666663</ele><time>2026-04-04T07:13:16.225Z</time></trkpt><trkpt lat="44.3502517" lon="11.4293039"><ele>402.8333333333333</ele><time>2026-04-04T07:13:17.225Z</time></trkpt><trkpt lat="44.3503415" lon="11.4293517"><ele>402.0</ele><time>2026-04-04T07:13:18.225Z</time></trkpt><trkpt lat="44.3504544" lon="11.4293734"><ele>403.25</ele><time>2026-04-04T07:13:19.224Z</time></trkpt><trkpt lat="44.3505739" lon="11.4293874"><ele>404.5</ele><time>2026-04-04T07:13:20.224Z</time></trkpt><trkpt lat="44.3506959" lon="11.4293942"><ele>405.75</ele><time>2026-04-04T07:13:21.224Z</time></trkpt><trkpt lat="44.3508155" lon="11.4294079"><ele>407.0</ele><time>2026-04-04T07:13:22.225Z</time></trkpt><trkpt lat="44.3509336" lon="11.4294248"><ele>407.0</ele><time>2026-04-04T07:13:23.225Z</time></trkpt><trkpt lat="44.351052" lon="11.4294454"><ele>407.0</ele><time>2026-04-04T07:13:24.225Z</time></trkpt><trkpt lat="44.3511764" lon="11.4294707"><ele>407.0</ele><time>2026-04-04T07:13:25.224Z</time></trkpt><trkpt lat="44.3513057" lon="11.4294799"><ele>407.0</ele><time>2026-04-04T07:13:26.225Z</time></trkpt><trkpt lat="44.3514313" lon="11.4294583"><ele>407.0</ele><time>2026-04-04T07:13:27.225Z</time></trkpt><trkpt lat="44.3515431" lon="11.4293895"><ele>407.0</ele><time>2026-04-04T07:13:28.225Z</time></trkpt><trkpt lat="44.3516292" lon="11.4293041"><ele>407.0</ele><time>2026-04-04T07:13:29.224Z</time></trkpt><trkpt lat="44.3517004" lon="11.4292417"><ele>407.0</ele><time>2026-04-04T07:13:30.224Z</time></trkpt><trkpt lat="44.3517993" lon="11.4292734"><ele>407.0</ele><time>2026-04-04T07:13:32.225Z</time></trkpt><trkpt lat="44.3517877" lon="11.4294389"><ele>407.0</ele><time>2026-04-04T07:13:34.225Z</time></trkpt><trkpt lat="44.3517414" lon="11.4295519"><ele>407.0</ele><time>2026-04-04T07:13:35.224Z</time></trkpt><trkpt lat="44.3516811" lon="11.4296768"><ele>407.0</ele><time>2026-04-04T07:13:36.225Z</time></trkpt><trkpt lat="44.3516147" lon="11.4298059"><ele>407.0</ele><time>2026-04-04T07:13:37.224Z</time></trkpt><trkpt lat="44.3515333" lon="11.4299223"><ele>407.0</ele><time>2026-04-04T07:13:38.225Z</time></trkpt><trkpt lat="44.3514333" lon="11.430007"><ele>413.25</ele><time>2026-04-04T07:13:39.225Z</time></trkpt><trkpt lat="44.3513191" lon="11.430053"><ele>419.5</ele><time>2026-04-04T07:13:40.225Z</time></trkpt><trkpt lat="44.3511967" lon="11.4300825"><ele>425.75</ele><time>2026-04-04T07:13:41.224Z</time></trkpt><trkpt lat="44.351067" lon="11.4301117"><ele>432.0</ele><time>2026-04-04T07:13:42.225Z</time></trkpt><trkpt lat="44.3509302" lon="11.4301423"><ele>432.0</ele><time>2026-04-04T07:13:43.225Z</time></trkpt><trkpt lat="44.3508016" lon="11.4301571"><ele>432.00000000000006</ele><time>2026-04-04T07:13:44.225Z</time></trkpt><trkpt lat="44.3506891" lon="11.4301518"><ele>432.00000000000006</ele><time>2026-04-04T07:13:45.224Z</time></trkpt><trkpt lat="44.3505897" lon="11.4301334"><ele>432.0</ele><time>2026-04-04T07:13:46.224Z</time></trkpt><trkpt lat="44.3504891" lon="11.4301124"><ele>432.0</ele><time>2026-04-04T07:13:47.225Z</time></trkpt><trkpt lat="44.3503891" lon="11.4301203"><ele>433.0</ele><time>2026-04-04T07:13:48.225Z</time></trkpt><trkpt lat="44.350275" lon="11.4301657"><ele>434.0</ele><time>2026-04-04T07:13:49.224Z</time></trkpt><trkpt lat="44.3501674" lon="11.430226"><ele>435.0</ele><time>2026-04-04T07:13:50.225Z</time></trkpt><trkpt lat="44.3500571" lon="11.4302835"><ele>436.0</ele><time>2026-04-04T07:13:51.225Z</time></trkpt><trkpt lat="44.3499489" lon="11.4303068"><ele>436.0</ele><time>2026-04-04T07:13:52.224Z</time></trkpt><trkpt lat="44.3498345" lon="11.4303138"><ele>436.0</ele><time>2026-04-04T07:13:53.224Z</time></trkpt><trkpt lat="44.349722" lon="11.4303355"><ele>436.0</ele><time>2026-04-04T07:13:54.225Z</time></trkpt><trkpt lat="44.3496246" lon="11.4303991"><ele>436.0</ele><time>2026-04-04T07:13:55.225Z</time></trkpt><trkpt lat="44.3495493" lon="11.4305009"><ele>436.0</ele><time>2026-04-04T07:13:56.225Z</time></trkpt><trkpt lat="44.349496" lon="11.4306413"><ele>439.20000000000005</ele><time>2026-04-04T07:13:57.224Z</time></trkpt><trkpt lat="44.3494544" lon="11.4308018"><ele>442.40000000000003</ele><time>2026-04-04T07:13:58.225Z</time></trkpt><trkpt lat="44.3494086" lon="11.430947"><ele>445.6</ele><time>2026-04-04T07:13:59.224Z</time></trkpt><trkpt lat="44.3493372" lon="11.4310305"><ele>448.8</ele><time>2026-04-04T07:14:00.224Z</time></trkpt><trkpt lat="44.3492577" lon="11.4310592"><ele>452.0</ele><time>2026-04-04T07:14:01.224Z</time></trkpt><trkpt lat="44.3491759" lon="11.4310751"><ele>452.0</ele><time>2026-04-04T07:14:02.225Z</time></trkpt><trkpt lat="44.3490842" lon="11.4310874"><ele>452.00000000000006</ele><time>2026-04-04T07:14:03.224Z</time></trkpt><trkpt lat="44.3489847" lon="11.4311454"><ele>452.00000000000006</ele><time>2026-04-04T07:14:04.225Z</time></trkpt><trkpt lat="44.3488956" lon="11.431251"><ele>452.0</ele><time>2026-04-04T07:14:05.225Z</time></trkpt><trkpt lat="44.3488222" lon="11.4313979"><ele>452.0</ele><time>2026-04-04T07:14:06.225Z</time></trkpt><trkpt lat="44.3487676" lon="11.4315585"><ele>452.25</ele><time>2026-04-04T07:14:07.224Z</time></trkpt><trkpt lat="44.3487248" lon="11.4317127"><ele>452.5</ele><time>2026-04-04T07:14:08.225Z</time></trkpt><trkpt lat="44.3486955" lon="11.4318662"><ele>452.75</ele><time>2026-04-04T07:14:09.225Z</time></trkpt><trkpt lat="44.3486869" lon="11.4320251"><ele>453.0</ele><time>2026-04-04T07:14:10.224Z</time></trkpt><trkpt lat="44.3486909" lon="11.4321903"><ele>453.0</ele><time>2026-04-04T07:14:11.224Z</time></trkpt><trkpt lat="44.348676" lon="11.4323543"><ele>453.0</ele><time>2026-04-04T07:14:12.224Z</time></trkpt><trkpt lat="44.3486443" lon="11.432512"><ele>453.0</ele><time>2026-04-04T07:14:13.225Z</time></trkpt><trkpt lat="44.3485948" lon="11.4326641"><ele>453.0</ele><time>2026-04-04T07:14:14.225Z</time></trkpt><trkpt lat="44.3485521" lon="11.432813"><ele>453.0</ele><time>2026-04-04T07:14:15.225Z</time></trkpt><trkpt lat="44.3485378" lon="11.4329649"><ele>453.0</ele><time>2026-04-04T07:14:16.225Z</time></trkpt><trkpt lat="44.3485404" lon="11.4331215"><ele>453.0</ele><time>2026-04-04T07:14:17.224Z</time></trkpt><trkpt lat="44.3485559" lon="11.4332872"><ele>453.0</ele><time>2026-04-04T07:14:18.224Z</time></trkpt><trkpt lat="44.3485733" lon="11.4334654"><ele>453.25</ele><time>2026-04-04T07:14:19.224Z</time></trkpt><trkpt lat="44.3485822" lon="11.4336528"><ele>453.5</ele><time>2026-04-04T07:14:20.225Z</time></trkpt><trkpt lat="44.3485758" lon="11.4338392"><ele>453.75</ele><time>2026-04-04T07:14:21.224Z</time></trkpt><trkpt lat="44.3485547" lon="11.4340154"><ele>454.0</ele><time>2026-04-04T07:14:22.225Z</time></trkpt><trkpt lat="44.3485121" lon="11.4341795"><ele>454.75</ele><time>2026-04-04T07:14:23.225Z</time></trkpt><trkpt lat="44.3484552" lon="11.4343428"><ele>455.5</ele><time>2026-04-04T07:14:24.224Z</time></trkpt><trkpt lat="44.3483951" lon="11.434503"><ele>456.25</ele><time>2026-04-04T07:14:25.224Z</time></trkpt><trkpt lat="44.3483421" lon="11.4346629"><ele>457.0</ele><time>2026-04-04T07:14:26.224Z</time></trkpt><trkpt lat="44.3482957" lon="11.4348268"><ele>459.0</ele><time>2026-04-04T07:14:27.225Z</time></trkpt><trkpt lat="44.3482556" lon="11.4349882"><ele>461.0</ele><time>2026-04-04T07:14:28.225Z</time></trkpt><trkpt lat="44.3482248" lon="11.4351457"><ele>463.0</ele><time>2026-04-04T07:14:29.225Z</time></trkpt><trkpt lat="44.3481929" lon="11.4353067"><ele>465.0</ele><time>2026-04-04T07:14:30.225Z</time></trkpt><trkpt lat="44.3481533" lon="11.4354587"><ele>463.75</ele><time>2026-04-04T07:14:31.225Z</time></trkpt><trkpt lat="44.3481045" lon="11.4356026"><ele>462.5</ele><time>2026-04-04T07:14:32.225Z</time></trkpt><trkpt lat="44.3480368" lon="11.4357258"><ele>461.25</ele><time>2026-04-04T07:14:33.225Z</time></trkpt><trkpt lat="44.3479522" lon="11.4358335"><ele>460.0</ele><time>2026-04-04T07:14:34.225Z</time></trkpt><trkpt lat="44.3478534" lon="11.4359233"><ele>462.75</ele><time>2026-04-04T07:14:35.224Z</time></trkpt><trkpt lat="44.3477343" lon="11.435991"><ele>465.5</ele><time>2026-04-04T07:14:36.225Z</time></trkpt><trkpt lat="44.3476067" lon="11.4360268"><ele>468.25</ele><time>2026-04-04T07:14:37.224Z</time></trkpt><trkpt lat="44.3474748" lon="11.4360345"><ele>471.0</ele><time>2026-04-04T07:14:38.224Z</time></trkpt><trkpt lat="44.3473416" lon="11.436024"><ele>471.0</ele><time>2026-04-04T07:14:39.225Z</time></trkpt><trkpt lat="44.3472114" lon="11.4360088"><ele>471.0</ele><time>2026-04-04T07:14:40.225Z</time></trkpt><trkpt lat="44.3470815" lon="11.4359795"><ele>471.0</ele><time>2026-04-04T07:14:41.225Z</time></trkpt><trkpt lat="44.3469606" lon="11.4359415"><ele>471.0</ele><time>2026-04-04T07:14:42.225Z</time></trkpt><trkpt lat="44.3468475" lon="11.4358901"><ele>473.5</ele><time>2026-04-04T07:14:43.224Z</time></trkpt><trkpt lat="44.3467391" lon="11.4358352"><ele>476.0</ele><time>2026-04-04T07:14:44.224Z</time></trkpt><trkpt lat="44.3466285" lon="11.4357821"><ele>478.5</ele><time>2026-04-04T07:14:45.224Z</time></trkpt><trkpt lat="44.3465164" lon="11.4357309"><ele>481.0</ele><time>2026-04-04T07:14:46.224Z</time></trkpt><trkpt lat="44.3464001" lon="11.4356933"><ele>485.5</ele><time>2026-04-04T07:14:47.224Z</time></trkpt><trkpt lat="44.3462742" lon="11.4356697"><ele>490.0</ele><time>2026-04-04T07:14:48.224Z</time></trkpt><trkpt lat="44.3461444" lon="11.4356552"><ele>494.5</ele><time>2026-04-04T07:14:49.225Z</time></trkpt><trkpt lat="44.3460092" lon="11.4356449"><ele>499.0</ele><time>2026-04-04T07:14:50.224Z</time></trkpt><trkpt lat="44.3458732" lon="11.4356523"><ele>499.0</ele><time>2026-04-04T07:14:51.225Z</time></trkpt><trkpt lat="44.3457402" lon="11.4356819"><ele>499.0</ele><time>2026-04-04T07:14:52.224Z</time></trkpt><trkpt lat="44.3456073" lon="11.4357147"><ele>499.0</ele><time>2026-04-04T07:14:53.225Z</time></trkpt><trkpt lat="44.3454852" lon="11.4357528"><ele>499.0</ele><time>2026-04-04T07:14:54.224Z</time></trkpt><trkpt lat="44.3453451" lon="11.4358047"><ele>500.25</ele><time>2026-04-04T07:14:55.224Z</time></trkpt><trkpt lat="44.345228" lon="11.4358407"><ele>501.5</ele><time>2026-04-04T07:14:56.225Z</time></trkpt><trkpt lat="44.3451063" lon="11.4358644"><ele>502.75</ele><time>2026-04-04T07:14:57.224Z</time></trkpt><trkpt lat="44.3449759" lon="11.4358708"><ele>504.0</ele><time>2026-04-04T07:14:58.225Z</time></trkpt><trkpt lat="44.3448394" lon="11.4358671"><ele>505.25</ele><time>2026-04-04T07:14:59.225Z</time></trkpt><trkpt lat="44.3447002" lon="11.4358656"><ele>506.5</ele><time>2026-04-04T07:15:00.224Z</time></trkpt><trkpt lat="44.3445799" lon="11.4358627"><ele>507.75</ele><time>2026-04-04T07:15:01.224Z</time></trkpt><trkpt lat="44.3444781" lon="11.4358596"><ele>509.0</ele><time>2026-04-04T07:15:02.225Z</time></trkpt><trkpt lat="44.3443847" lon="11.4358535"><ele>509.0</ele><time>2026-04-04T07:15:03.225Z</time></trkpt><trkpt lat="44.3442948" lon="11.4358317"><ele>509.0</ele><time>2026-04-04T07:15:04.225Z</time></trkpt><trkpt lat="44.3441986" lon="11.4357924"><ele>509.0</ele><time>2026-04-04T07:15:05.224Z</time></trkpt><trkpt lat="44.3441041" lon="11.4357495"><ele>509.0</ele><time>2026-04-04T07:15:06.224Z</time></trkpt><trkpt lat="44.3440073" lon="11.4357109"><ele>509.0</ele><time>2026-04-04T07:15:07.225Z</time></trkpt><trkpt lat="44.3438987" lon="11.435688"><ele>511.75</ele><time>2026-04-04T07:15:08.224Z</time></trkpt><trkpt lat="44.3437853" lon="11.4356692"><ele>514.5</ele><time>2026-04-04T07:15:09.225Z</time></trkpt><trkpt lat="44.343667" lon="11.4356678"><ele>517.25</ele><time>2026-04-04T07:15:10.224Z</time></trkpt><trkpt lat="44.3435494" lon="11.4356807"><ele>520.0</ele><time>2026-04-04T07:15:11.224Z</time></trkpt><trkpt lat="44.3434231" lon="11.4357094"><ele>520.0</ele><time>2026-04-04T07:15:12.225Z</time></trkpt><trkpt lat="44.3432941" lon="11.4357422"><ele>520.0</ele><time>2026-04-04T07:15:13.224Z</time></trkpt><trkpt lat="44.3431653" lon="11.4357751"><ele>520.0</ele><time>2026-04-04T07:15:14.225Z</time></trkpt><trkpt lat="44.343038" lon="11.4358095"><ele>520.0</ele><time>2026-04-04T07:15:15.224Z</time></trkpt><trkpt lat="44.3429104" lon="11.4358491"><ele>522.25</ele><time>2026-04-04T07:15:16.225Z</time></trkpt><trkpt lat="44.3427861" lon="11.4358828"><ele>524.5</ele><time>2026-04-04T07:15:17.225Z</time></trkpt><trkpt lat="44.3426615" lon="11.4359127"><ele>526.75</ele><time>2026-04-04T07:15:18.224Z</time></trkpt><trkpt lat="44.3425476" lon="11.4359211"><ele>529.0</ele><time>2026-04-04T07:15:19.225Z</time></trkpt><trkpt lat="44.3424408" lon="11.4359051"><ele>529.0</ele><time>2026-04-04T07:15:20.225Z</time></trkpt><trkpt lat="44.3423326" lon="11.4358657"><ele>529.0</ele><time>2026-04-04T07:15:21.225Z</time></trkpt><trkpt lat="44.3422186" lon="11.4358067"><ele>529.0</ele><time>2026-04-04T07:15:22.224Z</time></trkpt><trkpt lat="44.3420991" lon="11.4357339"><ele>529.0</ele><time>2026-04-04T07:15:23.225Z</time></trkpt><trkpt lat="44.3419819" lon="11.4356526"><ele>528.25</ele><time>2026-04-04T07:15:24.225Z</time></trkpt><trkpt lat="44.3418614" lon="11.4355591"><ele>527.5</ele><time>2026-04-04T07:15:25.224Z</time></trkpt><trkpt lat="44.3417483" lon="11.4354642"><ele>526.75</ele><time>2026-04-04T07:15:26.225Z</time></trkpt><trkpt lat="44.3416455" lon="11.435375"><ele>526.0</ele><time>2026-04-04T07:15:27.224Z</time></trkpt><trkpt lat="44.3415528" lon="11.4352768"><ele>526.0</ele><time>2026-04-04T07:15:28.224Z</time></trkpt><trkpt lat="44.3414568" lon="11.4351679"><ele>526.0</ele><time>2026-04-04T07:15:29.225Z</time></trkpt><trkpt lat="44.341361" lon="11.4350673"><ele>526.0</ele><time>2026-04-04T07:15:30.225Z</time></trkpt><trkpt lat="44.3412597" lon="11.4349729"><ele>526.0</ele><time>2026-04-04T07:15:31.225Z</time></trkpt><trkpt lat="44.3411624" lon="11.4348923"><ele>520.75</ele><time>2026-04-04T07:15:32.225Z</time></trkpt><trkpt lat="44.3410525" lon="11.4348359"><ele>515.5</ele><time>2026-04-04T07:15:33.224Z</time></trkpt><trkpt lat="44.3409299" lon="11.4347982"><ele>510.25</ele><time>2026-04-04T07:15:34.225Z</time></trkpt><trkpt lat="44.3407938" lon="11.4347773"><ele>505.0</ele><time>2026-04-04T07:15:35.225Z</time></trkpt><trkpt lat="44.3406626" lon="11.434775"><ele>506.75</ele><time>2026-04-04T07:15:36.224Z</time></trkpt><trkpt lat="44.3405331" lon="11.434789"><ele>508.5</ele><time>2026-04-04T07:15:37.225Z</time></trkpt><trkpt lat="44.3404063" lon="11.4348424"><ele>510.25</ele><time>2026-04-04T07:15:38.225Z</time></trkpt><trkpt lat="44.3402877" lon="11.4349119"><ele>512.0</ele><time>2026-04-04T07:15:39.224Z</time></trkpt><trkpt lat="44.3401743" lon="11.435002"><ele>512.0</ele><time>2026-04-04T07:15:40.224Z</time></trkpt><trkpt lat="44.3400684" lon="11.4351113"><ele>512.0</ele><time>2026-04-04T07:15:41.224Z</time></trkpt><trkpt lat="44.3399641" lon="11.4352284"><ele>512.0</ele><time>2026-04-04T07:15:42.225Z</time></trkpt><trkpt lat="44.339861" lon="11.4353436"><ele>512.0</ele><time>2026-04-04T07:15:43.224Z</time></trkpt><trkpt lat="44.339758" lon="11.4354609"><ele>513.5</ele><time>2026-04-04T07:15:44.225Z</time></trkpt><trkpt lat="44.3396513" lon="11.4355735"><ele>515.0</ele><time>2026-04-04T07:15:45.224Z</time></trkpt><trkpt lat="44.3395459" lon="11.4356917"><ele>516.5</ele><time>2026-04-04T07:15:46.225Z</time></trkpt><trkpt lat="44.3394382" lon="11.4358096"><ele>518.0</ele><time>2026-04-04T07:15:47.225Z</time></trkpt><trkpt lat="44.3393313" lon="11.4359037"><ele>518.0</ele><time>2026-04-04T07:15:48.224Z</time></trkpt><trkpt lat="44.339224" lon="11.4359596"><ele>518.0</ele><time>2026-04-04T07:15:49.224Z</time></trkpt><trkpt lat="44.339119" lon="11.4359774"><ele>518.0</ele><time>2026-04-04T07:15:50.224Z</time></trkpt><trkpt lat="44.3390105" lon="11.4359743"><ele>518.0</ele><time>2026-04-04T07:15:51.224Z</time></trkpt><trkpt lat="44.338892" lon="11.4359706"><ele>518.0</ele><time>2026-04-04T07:15:52.224Z</time></trkpt><trkpt lat="44.3387767" lon="11.4359733"><ele>519.5</ele><time>2026-04-04T07:15:53.225Z</time></trkpt><trkpt lat="44.3386568" lon="11.435986"><ele>521.0</ele><time>2026-04-04T07:15:54.225Z</time></trkpt><trkpt lat="44.3385321" lon="11.4360255"><ele>522.5</ele><time>2026-04-04T07:15:55.224Z</time></trkpt><trkpt lat="44.3383966" lon="11.4360863"><ele>524.0</ele><time>2026-04-04T07:15:56.225Z</time></trkpt><trkpt lat="44.33826" lon="11.4361554"><ele>524.0</ele><time>2026-04-04T07:15:57.224Z</time></trkpt><trkpt lat="44.3381308" lon="11.4362121"><ele>524.0</ele><time>2026-04-04T07:15:58.225Z</time></trkpt><trkpt lat="44.338011" lon="11.4362406"><ele>524.0</ele><time>2026-04-04T07:15:59.224Z</time></trkpt><trkpt lat="44.3379003" lon="11.4362782"><ele>524.0</ele><time>2026-04-04T07:16:00.224Z</time></trkpt><trkpt lat="44.337789" lon="11.4363212"><ele>525.6</ele><time>2026-04-04T07:16:01.225Z</time></trkpt><trkpt lat="44.3376903" lon="11.4364046"><ele>527.2</ele><time>2026-04-04T07:16:02.224Z</time></trkpt><trkpt lat="44.337607" lon="11.4365194"><ele>528.8000000000001</ele><time>2026-04-04T07:16:03.224Z</time></trkpt><trkpt lat="44.3375399" lon="11.4366402"><ele>530.4</ele><time>2026-04-04T07:16:04.225Z</time></trkpt><trkpt lat="44.3374914" lon="11.4367404"><ele>532.0</ele><time>2026-04-04T07:16:05.225Z</time></trkpt><trkpt lat="44.3374559" lon="11.4368196"><ele>532.0</ele><time>2026-04-04T07:16:06.225Z</time></trkpt><trkpt lat="44.3373684" lon="11.4369033"><ele>532.0</ele><time>2026-04-04T07:16:08.224Z</time></trkpt><trkpt lat="44.3372849" lon="11.4369212"><ele>532.0</ele><time>2026-04-04T07:16:10.224Z</time></trkpt><trkpt lat="44.3372534" lon="11.4370418"><ele>532.0</ele><time>2026-04-04T07:16:12.225Z</time></trkpt><trkpt lat="44.3372643" lon="11.4371447"><ele>532.0</ele><time>2026-04-04T07:16:13.224Z</time></trkpt><trkpt lat="44.3372866" lon="11.4372679"><ele>532.0</ele><time>2026-04-04T07:16:14.225Z</time></trkpt><trkpt lat="44.3373043" lon="11.437406"><ele>531.2</ele><time>2026-04-04T07:16:15.224Z</time></trkpt><trkpt lat="44.3373067" lon="11.4375543"><ele>530.4000000000001</ele><time>2026-04-04T07:16:16.225Z</time></trkpt><trkpt lat="44.3372995" lon="11.4377057"><ele>529.5999999999999</ele><time>2026-04-04T07:16:17.225Z</time></trkpt><trkpt lat="44.3372903" lon="11.4378599"><ele>528.8</ele><time>2026-04-04T07:16:18.225Z</time></trkpt><trkpt lat="44.3372906" lon="11.4380261"><ele>528.0</ele><time>2026-04-04T07:16:19.225Z</time></trkpt><trkpt lat="44.3373085" lon="11.4382047"><ele>530.0</ele><time>2026-04-04T07:16:20.225Z</time></trkpt><trkpt lat="44.3373479" lon="11.4383856"><ele>532.0</ele><time>2026-04-04T07:16:21.225Z</time></trkpt><trkpt lat="44.3374014" lon="11.4385604"><ele>534.0</ele><time>2026-04-04T07:16:22.224Z</time></trkpt><trkpt lat="44.3374598" lon="11.4387108"><ele>536.0</ele><time>2026-04-04T07:16:23.225Z</time></trkpt><trkpt lat="44.3375332" lon="11.4388292"><ele>540.0</ele><time>2026-04-04T07:16:24.225Z</time></trkpt><trkpt lat="44.3376212" lon="11.4389401"><ele>544.0</ele><time>2026-04-04T07:16:25.225Z</time></trkpt><trkpt lat="44.3377009" lon="11.4390664"><ele>548.0</ele><time>2026-04-04T07:16:26.225Z</time></trkpt><trkpt lat="44.3377665" lon="11.4392079"><ele>552.0</ele><time>2026-04-04T07:16:27.225Z</time></trkpt><trkpt lat="44.3378243" lon="11.4393637"><ele>552.0</ele><time>2026-04-04T07:16:28.225Z</time></trkpt><trkpt lat="44.3378677" lon="11.4395317"><ele>552.0</ele><time>2026-04-04T07:16:29.225Z</time></trkpt><trkpt lat="44.3379234" lon="11.4396945"><ele>552.0</ele><time>2026-04-04T07:16:30.224Z</time></trkpt><trkpt lat="44.3380039" lon="11.4398577"><ele>552.0</ele><time>2026-04-04T07:16:31.225Z</time></trkpt><trkpt lat="44.3380923" lon="11.4400187"><ele>547.5</ele><time>2026-04-04T07:16:32.225Z</time></trkpt><trkpt lat="44.3381804" lon="11.4401802"><ele>543.0</ele><time>2026-04-04T07:16:33.225Z</time></trkpt><trkpt lat="44.3382515" lon="11.4403437"><ele>538.5</ele><time>2026-04-04T07:16:34.224Z</time></trkpt><trkpt lat="44.3383126" lon="11.4405102"><ele>534.0</ele><time>2026-04-04T07:16:35.225Z</time></trkpt><trkpt lat="44.3383769" lon="11.4406722"><ele>534.0</ele><time>2026-04-04T07:16:36.225Z</time></trkpt><trkpt lat="44.3384413" lon="11.4408237"><ele>534.0</ele><time>2026-04-04T07:16:37.224Z</time></trkpt><trkpt lat="44.3385104" lon="11.4409634"><ele>534.0</ele><time>2026-04-04T07:16:38.225Z</time></trkpt><trkpt lat="44.3385842" lon="11.4410793"><ele>534.0</ele><time>2026-04-04T07:16:39.226Z</time></trkpt><trkpt lat="44.3386639" lon="11.4411784"><ele>534.0</ele><time>2026-04-04T07:16:40.225Z</time></trkpt><trkpt lat="44.338743" lon="11.4412787"><ele>534.0</ele><time>2026-04-04T07:16:41.226Z</time></trkpt><trkpt lat="44.3388103" lon="11.4414018"><ele>534.0</ele><time>2026-04-04T07:16:42.225Z</time></trkpt><trkpt lat="44.3388742" lon="11.4415485"><ele>534.0</ele><time>2026-04-04T07:16:43.226Z</time></trkpt><trkpt lat="44.3389514" lon="11.4416997"><ele>532.5</ele><time>2026-04-04T07:16:44.225Z</time></trkpt><trkpt lat="44.3390454" lon="11.4418264"><ele>531.0</ele><time>2026-04-04T07:16:45.225Z</time></trkpt><trkpt lat="44.3391585" lon="11.441919"><ele>529.5</ele><time>2026-04-04T07:16:46.226Z</time></trkpt><trkpt lat="44.3392862" lon="11.4419836"><ele>528.0</ele><time>2026-04-04T07:16:47.226Z</time></trkpt><trkpt lat="44.339411" lon="11.4420407"><ele>528.0</ele><time>2026-04-04T07:16:48.226Z</time></trkpt><trkpt lat="44.3395347" lon="11.4420924"><ele>528.0</ele><time>2026-04-04T07:16:49.225Z</time></trkpt><trkpt lat="44.3396545" lon="11.4421348"><ele>528.0</ele><time>2026-04-04T07:16:50.226Z</time></trkpt><trkpt lat="44.3397728" lon="11.4421476"><ele>528.0</ele><time>2026-04-04T07:16:51.226Z</time></trkpt><trkpt lat="44.3398846" lon="11.4421438"><ele>530.5</ele><time>2026-04-04T07:16:52.225Z</time></trkpt><trkpt lat="44.3399869" lon="11.4421502"><ele>533.0</ele><time>2026-04-04T07:16:53.226Z</time></trkpt><trkpt lat="44.3400871" lon="11.4421844"><ele>535.5</ele><time>2026-04-04T07:16:54.226Z</time></trkpt><trkpt lat="44.3401972" lon="11.4422503"><ele>538.0</ele><time>2026-04-04T07:16:55.226Z</time></trkpt><trkpt lat="44.3403059" lon="11.4423489"><ele>538.0</ele><time>2026-04-04T07:16:56.225Z</time></trkpt><trkpt lat="44.3404143" lon="11.4424715"><ele>538.0</ele><time>2026-04-04T07:16:57.226Z</time></trkpt><trkpt lat="44.3405172" lon="11.4425996"><ele>538.0</ele><time>2026-04-04T07:16:58.226Z</time></trkpt><trkpt lat="44.3406149" lon="11.4427196"><ele>538.0</ele><time>2026-04-04T07:16:59.226Z</time></trkpt><trkpt lat="44.3407081" lon="11.4428144"><ele>533.8</ele><time>2026-04-04T07:17:00.226Z</time></trkpt><trkpt lat="44.3408006" lon="11.4428809"><ele>529.5999999999999</ele><time>2026-04-04T07:17:01.225Z</time></trkpt><trkpt lat="44.340895" lon="11.442898"><ele>525.4000000000001</ele><time>2026-04-04T07:17:02.225Z</time></trkpt><trkpt lat="44.3409914" lon="11.4428764"><ele>521.2</ele><time>2026-04-04T07:17:03.225Z</time></trkpt><trkpt lat="44.3410868" lon="11.4428275"><ele>517.0</ele><time>2026-04-04T07:17:04.226Z</time></trkpt><trkpt lat="44.341185" lon="11.4427817"><ele>517.0</ele><time>2026-04-04T07:17:05.225Z</time></trkpt><trkpt lat="44.3412817" lon="11.44278"><ele>517.0</ele><time>2026-04-04T07:17:06.225Z</time></trkpt><trkpt lat="44.3413683" lon="11.4428317"><ele>517.0</ele><time>2026-04-04T07:17:07.226Z</time></trkpt><trkpt lat="44.341445" lon="11.442935"><ele>517.0</ele><time>2026-04-04T07:17:08.226Z</time></trkpt><trkpt lat="44.3415017" lon="11.4430683"><ele>517.0</ele><time>2026-04-04T07:17:09.226Z</time></trkpt><trkpt lat="44.3415517" lon="11.4432017"><ele>519.0</ele><time>2026-04-04T07:17:10.225Z</time></trkpt><trkpt lat="44.3416217" lon="11.4433067"><ele>521.0</ele><time>2026-04-04T07:17:11.226Z</time></trkpt><trkpt lat="44.3416983" lon="11.443395"><ele>523.0</ele><time>2026-04-04T07:17:12.226Z</time></trkpt><trkpt lat="44.3417667" lon="11.4434983"><ele>525.0</ele><time>2026-04-04T07:17:13.225Z</time></trkpt><trkpt lat="44.341815" lon="11.4436133"><ele>527.0</ele><time>2026-04-04T07:17:14.225Z</time></trkpt><trkpt lat="44.3418517" lon="11.443745"><ele>531.75</ele><time>2026-04-04T07:17:15.226Z</time></trkpt><trkpt lat="44.3419067" lon="11.4438683"><ele>536.5</ele><time>2026-04-04T07:17:16.225Z</time></trkpt><trkpt lat="44.34199" lon="11.4439767"><ele>541.25</ele><time>2026-04-04T07:17:17.225Z</time></trkpt><trkpt lat="44.3420833" lon="11.4440667"><ele>546.0</ele><time>2026-04-04T07:17:18.226Z</time></trkpt><trkpt lat="44.3421983" lon="11.4441367"><ele>541.5</ele><time>2026-04-04T07:17:19.225Z</time></trkpt><trkpt lat="44.3423217" lon="11.4442067"><ele>537.0</ele><time>2026-04-04T07:17:20.225Z</time></trkpt><trkpt lat="44.3424367" lon="11.44428"><ele>532.5</ele><time>2026-04-04T07:17:21.226Z</time></trkpt><trkpt lat="44.3425383" lon="11.4443667"><ele>528.0</ele><time>2026-04-04T07:17:22.226Z</time></trkpt><trkpt lat="44.3426233" lon="11.4444633"><ele>528.0</ele><time>2026-04-04T07:17:23.226Z</time></trkpt><trkpt lat="44.34271" lon="11.4445567"><ele>528.0</ele><time>2026-04-04T07:17:24.226Z</time></trkpt><trkpt lat="44.3427967" lon="11.4446417"><ele>528.0</ele><time>2026-04-04T07:17:25.226Z</time></trkpt><trkpt lat="44.342885" lon="11.4446867"><ele>528.0</ele><time>2026-04-04T07:17:26.226Z</time></trkpt><trkpt lat="44.342985" lon="11.44471"><ele>528.0</ele><time>2026-04-04T07:17:27.225Z</time></trkpt><trkpt lat="44.3430833" lon="11.4447367"><ele>527.1999999999999</ele><time>2026-04-04T07:17:28.225Z</time></trkpt><trkpt lat="44.3431783" lon="11.444795"><ele>526.4</ele><time>2026-04-04T07:17:29.226Z</time></trkpt><trkpt lat="44.3432583" lon="11.44488"><ele>525.5999999999999</ele><time>2026-04-04T07:17:30.225Z</time></trkpt><trkpt lat="44.34333" lon="11.44498"><ele>524.8</ele><time>2026-04-04T07:17:31.226Z</time></trkpt><trkpt lat="44.3433767" lon="11.4450917"><ele>524.0</ele><time>2026-04-04T07:17:32.225Z</time></trkpt><trkpt lat="44.343405" lon="11.4452083"><ele>524.0</ele><time>2026-04-04T07:17:33.225Z</time></trkpt><trkpt lat="44.34341" lon="11.4453433"><ele>524.0</ele><time>2026-04-04T07:17:34.226Z</time></trkpt><trkpt lat="44.34339" lon="11.4455067"><ele>524.0</ele><time>2026-04-04T07:17:35.225Z</time></trkpt><trkpt lat="44.3433567" lon="11.4456883"><ele>524.0</ele><time>2026-04-04T07:17:36.226Z</time></trkpt><trkpt lat="44.3433217" lon="11.445875"><ele>523.0</ele><time>2026-04-04T07:17:37.226Z</time></trkpt><trkpt lat="44.3433033" lon="11.44605"><ele>522.0</ele><time>2026-04-04T07:17:38.226Z</time></trkpt><trkpt lat="44.3433167" lon="11.4462"><ele>521.0</ele><time>2026-04-04T07:17:39.226Z</time></trkpt><trkpt lat="44.3433433" lon="11.44633"><ele>520.0</ele><time>2026-04-04T07:17:40.225Z</time></trkpt><trkpt lat="44.3433917" lon="11.446415"><ele>519.0</ele><time>2026-04-04T07:17:41.226Z</time></trkpt><trkpt lat="44.3434583" lon="11.4464733"><ele>516.75</ele><time>2026-04-04T07:17:42.226Z</time></trkpt><trkpt lat="44.34356" lon="11.4465067"><ele>514.5</ele><time>2026-04-04T07:17:43.226Z</time></trkpt><trkpt lat="44.3436917" lon="11.4465317"><ele>512.25</ele><time>2026-04-04T07:17:44.226Z</time></trkpt><trkpt lat="44.3438383" lon="11.44657"><ele>510.0</ele><time>2026-04-04T07:17:45.225Z</time></trkpt><trkpt lat="44.3439717" lon="11.4466333"><ele>510.0</ele><time>2026-04-04T07:17:46.226Z</time></trkpt><trkpt lat="44.3440867" lon="11.446715"><ele>510.0</ele><time>2026-04-04T07:17:47.226Z</time></trkpt><trkpt lat="44.3441733" lon="11.446815"><ele>510.0</ele><time>2026-04-04T07:17:48.226Z</time></trkpt><trkpt lat="44.3442467" lon="11.44695"><ele>510.0</ele><time>2026-04-04T07:17:49.226Z</time></trkpt><trkpt lat="44.3442983" lon="11.4470967"><ele>509.8</ele><time>2026-04-04T07:17:50.226Z</time></trkpt><trkpt lat="44.344325" lon="11.4472483"><ele>509.6</ele><time>2026-04-04T07:17:51.226Z</time></trkpt><trkpt lat="44.3443283" lon="11.4473967"><ele>509.4</ele><time>2026-04-04T07:17:52.226Z</time></trkpt><trkpt lat="44.3443267" lon="11.4475517"><ele>509.2</ele><time>2026-04-04T07:17:53.226Z</time></trkpt><trkpt lat="44.34433" lon="11.4477183"><ele>509.0</ele><time>2026-04-04T07:17:54.226Z</time></trkpt><trkpt lat="44.34435" lon="11.4478883"><ele>509.0</ele><time>2026-04-04T07:17:55.226Z</time></trkpt><trkpt lat="44.3443767" lon="11.4480733"><ele>509.0</ele><time>2026-04-04T07:17:56.226Z</time></trkpt><trkpt lat="44.3443967" lon="11.44824"><ele>509.0</ele><time>2026-04-04T07:17:57.226Z</time></trkpt><trkpt lat="44.3444017" lon="11.4483983"><ele>509.0</ele><time>2026-04-04T07:17:58.225Z</time></trkpt><trkpt lat="44.3443933" lon="11.4485583"><ele>509.0</ele><time>2026-04-04T07:17:59.226Z</time></trkpt><trkpt lat="44.344375" lon="11.4487083"><ele>509.0</ele><time>2026-04-04T07:18:00.225Z</time></trkpt><trkpt lat="44.3443517" lon="11.4488517"><ele>509.0</ele><time>2026-04-04T07:18:01.225Z</time></trkpt><trkpt lat="44.3443283" lon="11.448985"><ele>509.0</ele><time>2026-04-04T07:18:02.226Z</time></trkpt><trkpt lat="44.344315" lon="11.449115"><ele>509.0</ele><time>2026-04-04T07:18:03.226Z</time></trkpt><trkpt lat="44.3443083" lon="11.4492433"><ele>508.2</ele><time>2026-04-04T07:18:04.226Z</time></trkpt><trkpt lat="44.34431" lon="11.4493783"><ele>507.4</ele><time>2026-04-04T07:18:05.225Z</time></trkpt><trkpt lat="44.34432" lon="11.44953"><ele>506.6</ele><time>2026-04-04T07:18:06.226Z</time></trkpt><trkpt lat="44.3443483" lon="11.4496933"><ele>505.8</ele><time>2026-04-04T07:18:07.226Z</time></trkpt><trkpt lat="44.34439" lon="11.449845"><ele>505.0</ele><time>2026-04-04T07:18:08.225Z</time></trkpt><trkpt lat="44.3444267" lon="11.4499817"><ele>505.2</ele><time>2026-04-04T07:18:09.226Z</time></trkpt><trkpt lat="44.34446" lon="11.450105"><ele>505.4</ele><time>2026-04-04T07:18:10.226Z</time></trkpt><trkpt lat="44.3445017" lon="11.450215"><ele>505.6</ele><time>2026-04-04T07:18:11.225Z</time></trkpt><trkpt lat="44.3445683" lon="11.450315"><ele>505.8</ele><time>2026-04-04T07:18:12.226Z</time></trkpt><trkpt lat="44.3446483" lon="11.4503867"><ele>506.0</ele><time>2026-04-04T07:18:13.226Z</time></trkpt><trkpt lat="44.3447467" lon="11.4504183"><ele>506.0</ele><time>2026-04-04T07:18:14.225Z</time></trkpt><trkpt lat="44.34485" lon="11.4504167"><ele>506.0</ele><time>2026-04-04T07:18:15.226Z</time></trkpt><trkpt lat="44.3449417" lon="11.45039"><ele>506.0</ele><time>2026-04-04T07:18:16.226Z</time></trkpt><trkpt lat="44.34503" lon="11.4503467"><ele>506.0</ele><time>2026-04-04T07:18:17.226Z</time></trkpt><trkpt lat="44.3451117" lon="11.45027"><ele>506.0</ele><time>2026-04-04T07:18:18.226Z</time></trkpt><trkpt lat="44.3451867" lon="11.4501917"><ele>505.99999999999994</ele><time>2026-04-04T07:18:19.226Z</time></trkpt><trkpt lat="44.345245" lon="11.45012"><ele>506.0</ele><time>2026-04-04T07:18:20.225Z</time></trkpt><trkpt lat="44.3453383" lon="11.450055"><ele>506.0</ele><time>2026-04-04T07:18:22.225Z</time></trkpt><trkpt lat="44.3454083" lon="11.4500933"><ele>506.0</ele><time>2026-04-04T07:18:24.226Z</time></trkpt><trkpt lat="44.3454083" lon="11.45023"><ele>505.99999999999994</ele><time>2026-04-04T07:18:26.226Z</time></trkpt><trkpt lat="44.3453667" lon="11.4503267"><ele>506.0</ele><time>2026-04-04T07:18:27.226Z</time></trkpt><trkpt lat="44.345295" lon="11.45044"><ele>504.0</ele><time>2026-04-04T07:18:28.226Z</time></trkpt><trkpt lat="44.3452233" lon="11.4505567"><ele>502.0</ele><time>2026-04-04T07:18:29.226Z</time></trkpt><trkpt lat="44.3451617" lon="11.4506833"><ele>500.0</ele><time>2026-04-04T07:18:30.226Z</time></trkpt><trkpt lat="44.3451167" lon="11.4508233"><ele>498.0</ele><time>2026-04-04T07:18:31.225Z</time></trkpt><trkpt lat="44.34511" lon="11.4509667"><ele>496.0</ele><time>2026-04-04T07:18:32.226Z</time></trkpt><trkpt lat="44.3451" lon="11.45111"><ele>496.0</ele><time>2026-04-04T07:18:33.226Z</time></trkpt><trkpt lat="44.34509" lon="11.45124"><ele>496.0</ele><time>2026-04-04T07:18:34.226Z</time></trkpt><trkpt lat="44.3450567" lon="11.4513617"><ele>496.0</ele><time>2026-04-04T07:18:35.226Z</time></trkpt><trkpt lat="44.3450017" lon="11.4514717"><ele>496.0</ele><time>2026-04-04T07:18:36.226Z</time></trkpt><trkpt lat="44.3449317" lon="11.4515733"><ele>496.0</ele><time>2026-04-04T07:18:37.225Z</time></trkpt><trkpt lat="44.3448617" lon="11.4516583"><ele>493.20000000000005</ele><time>2026-04-04T07:18:38.226Z</time></trkpt><trkpt lat="44.3447817" lon="11.45173"><ele>490.40000000000003</ele><time>2026-04-04T07:18:39.225Z</time></trkpt><trkpt lat="44.344695" lon="11.4517717"><ele>487.6</ele><time>2026-04-04T07:18:40.226Z</time></trkpt><trkpt lat="44.34459" lon="11.4517833"><ele>484.8</ele><time>2026-04-04T07:18:41.226Z</time></trkpt><trkpt lat="44.34447" lon="11.4517667"><ele>482.0</ele><time>2026-04-04T07:18:42.226Z</time></trkpt><trkpt lat="44.344345" lon="11.45174"><ele>480.99999999999994</ele><time>2026-04-04T07:18:43.226Z</time></trkpt><trkpt lat="44.3442517" lon="11.4516883"><ele>480.0</ele><time>2026-04-04T07:18:44.226Z</time></trkpt><trkpt lat="44.344195" lon="11.4516183"><ele>479.0</ele><time>2026-04-04T07:18:45.226Z</time></trkpt><trkpt lat="44.344135" lon="11.4515533"><ele>478.0</ele><time>2026-04-04T07:18:46.225Z</time></trkpt><trkpt lat="44.344065" lon="11.4515167"><ele>476.99999999999994</ele><time>2026-04-04T07:18:47.225Z</time></trkpt><trkpt lat="44.3440001" lon="11.4515235"><ele>476.0</ele><time>2026-04-04T07:18:48.225Z</time></trkpt><trkpt lat="44.3439504" lon="11.451593"><ele>476.0</ele><time>2026-04-04T07:18:49.226Z</time></trkpt><trkpt lat="44.3439469" lon="11.4517002"><ele>476.0</ele><time>2026-04-04T07:18:50.225Z</time></trkpt><trkpt lat="44.3439817" lon="11.4518389"><ele>476.0</ele><time>2026-04-04T07:18:51.226Z</time></trkpt><trkpt lat="44.3440479" lon="11.4519778"><ele>476.0</ele><time>2026-04-04T07:18:52.225Z</time></trkpt><trkpt lat="44.344147" lon="11.4520953"><ele>476.0</ele><time>2026-04-04T07:18:53.225Z</time></trkpt><trkpt lat="44.3442624" lon="11.4521952"><ele>473.25</ele><time>2026-04-04T07:18:54.225Z</time></trkpt><trkpt lat="44.3443733" lon="11.4522922"><ele>470.5</ele><time>2026-04-04T07:18:55.226Z</time></trkpt><trkpt lat="44.3444647" lon="11.4524086"><ele>467.75</ele><time>2026-04-04T07:18:56.226Z</time></trkpt><trkpt lat="44.3445371" lon="11.4525519"><ele>465.0</ele><time>2026-04-04T07:18:57.226Z</time></trkpt><trkpt lat="44.3446124" lon="11.452717"><ele>465.0</ele><time>2026-04-04T07:18:58.225Z</time></trkpt><trkpt lat="44.3446893" lon="11.4528959"><ele>465.0</ele><time>2026-04-04T07:18:59.226Z</time></trkpt><trkpt lat="44.3447641" lon="11.4530803"><ele>465.0</ele><time>2026-04-04T07:19:00.225Z</time></trkpt><trkpt lat="44.3448476" lon="11.4532797"><ele>462.66666666666663</ele><time>2026-04-04T07:19:01.226Z</time></trkpt><trkpt lat="44.3449299" lon="11.4534874"><ele>460.3333333333333</ele><time>2026-04-04T07:19:02.226Z</time></trkpt><trkpt lat="44.3449948" lon="11.4536966"><ele>458.0</ele><time>2026-04-04T07:19:03.225Z</time></trkpt><trkpt lat="44.3450418" lon="11.4538987"><ele>457.75</ele><time>2026-04-04T07:19:04.226Z</time></trkpt><trkpt lat="44.3450809" lon="11.4541001"><ele>457.5</ele><time>2026-04-04T07:19:05.226Z</time></trkpt><trkpt lat="44.3451326" lon="11.4542917"><ele>457.25</ele><time>2026-04-04T07:19:06.225Z</time></trkpt><trkpt lat="44.3452007" lon="11.454469"><ele>457.0</ele><time>2026-04-04T07:19:07.226Z</time></trkpt><trkpt lat="44.3452968" lon="11.4546101"><ele>458.25</ele><time>2026-04-04T07:19:08.226Z</time></trkpt><trkpt lat="44.3454035" lon="11.4547238"><ele>459.5</ele><time>2026-04-04T07:19:09.225Z</time></trkpt><trkpt lat="44.3455171" lon="11.4548277"><ele>460.75</ele><time>2026-04-04T07:19:10.225Z</time></trkpt><trkpt lat="44.34562" lon="11.4549263"><ele>462.0</ele><time>2026-04-04T07:19:11.226Z</time></trkpt><trkpt lat="44.3457024" lon="11.4550295"><ele>459.40000000000003</ele><time>2026-04-04T07:19:12.225Z</time></trkpt><trkpt lat="44.3457685" lon="11.4551315"><ele>456.80000000000007</ele><time>2026-04-04T07:19:13.225Z</time></trkpt><trkpt lat="44.3458064" lon="11.4552527"><ele>454.2</ele><time>2026-04-04T07:19:14.225Z</time></trkpt><trkpt lat="44.3458058" lon="11.4553902"><ele>451.6</ele><time>2026-04-04T07:19:15.225Z</time></trkpt><trkpt lat="44.3457659" lon="11.4555397"><ele>449.0</ele><time>2026-04-04T07:19:16.225Z</time></trkpt><trkpt lat="44.3456903" lon="11.4556777"><ele>447.5</ele><time>2026-04-04T07:19:17.226Z</time></trkpt><trkpt lat="44.3455873" lon="11.4557971"><ele>446.0</ele><time>2026-04-04T07:19:18.225Z</time></trkpt><trkpt lat="44.3454707" lon="11.4559161"><ele>444.5</ele><time>2026-04-04T07:19:19.225Z</time></trkpt><trkpt lat="44.345378" lon="11.4560469"><ele>443.0</ele><time>2026-04-04T07:19:20.225Z</time></trkpt><trkpt lat="44.3453253" lon="11.4562098"><ele>443.25</ele><time>2026-04-04T07:19:21.226Z</time></trkpt><trkpt lat="44.3452993" lon="11.4564115"><ele>443.5</ele><time>2026-04-04T07:19:22.225Z</time></trkpt><trkpt lat="44.3452755" lon="11.4566184"><ele>443.75</ele><time>2026-04-04T07:19:23.225Z</time></trkpt><trkpt lat="44.3452516" lon="11.4568174"><ele>444.0</ele><time>2026-04-04T07:19:24.226Z</time></trkpt><trkpt lat="44.3452365" lon="11.4570004"><ele>441.5</ele><time>2026-04-04T07:19:25.226Z</time></trkpt><trkpt lat="44.3452542" lon="11.457172"><ele>439.0</ele><time>2026-04-04T07:19:26.226Z</time></trkpt><trkpt lat="44.3453094" lon="11.4573188"><ele>436.5</ele><time>2026-04-04T07:19:27.225Z</time></trkpt><trkpt lat="44.3453995" lon="11.4574573"><ele>434.0</ele><time>2026-04-04T07:19:28.226Z</time></trkpt><trkpt lat="44.3454948" lon="11.4575974"><ele>433.0</ele><time>2026-04-04T07:19:29.225Z</time></trkpt><trkpt lat="44.3455616" lon="11.4577449"><ele>432.0</ele><time>2026-04-04T07:19:30.226Z</time></trkpt><trkpt lat="44.3456105" lon="11.4579102"><ele>431.0</ele><time>2026-04-04T07:19:31.226Z</time></trkpt><trkpt lat="44.3456478" lon="11.4580961"><ele>430.0</ele><time>2026-04-04T07:19:32.225Z</time></trkpt><trkpt lat="44.345681" lon="11.4582823"><ele>430.0</ele><time>2026-04-04T07:19:33.225Z</time></trkpt><trkpt lat="44.3457153" lon="11.4584606"><ele>430.0</ele><time>2026-04-04T07:19:34.226Z</time></trkpt><trkpt lat="44.3457714" lon="11.4586368"><ele>430.0</ele><time>2026-04-04T07:19:35.225Z</time></trkpt><trkpt lat="44.3458606" lon="11.4587981"><ele>430.0</ele><time>2026-04-04T07:19:36.226Z</time></trkpt><trkpt lat="44.3459835" lon="11.4589419"><ele>429.0</ele><time>2026-04-04T07:19:37.226Z</time></trkpt><trkpt lat="44.3461272" lon="11.4590817"><ele>428.0</ele><time>2026-04-04T07:19:38.226Z</time></trkpt><trkpt lat="44.3462806" lon="11.4592298"><ele>427.0</ele><time>2026-04-04T07:19:39.226Z</time></trkpt><trkpt lat="44.3464306" lon="11.4593741"><ele>425.33333333333337</ele><time>2026-04-04T07:19:40.226Z</time></trkpt><trkpt lat="44.3465851" lon="11.4595186"><ele>423.66666666666663</ele><time>2026-04-04T07:19:41.226Z</time></trkpt><trkpt lat="44.3467314" lon="11.4596869"><ele>422.0</ele><time>2026-04-04T07:19:42.226Z</time></trkpt><trkpt lat="44.3468707" lon="11.459867"><ele>420.66666666666663</ele><time>2026-04-04T07:19:43.225Z</time></trkpt><trkpt lat="44.3470038" lon="11.4600549"><ele>419.33333333333337</ele><time>2026-04-04T07:19:44.225Z</time></trkpt><trkpt lat="44.3471408" lon="11.4602348"><ele>418.0</ele><time>2026-04-04T07:19:45.226Z</time></trkpt><trkpt lat="44.3472751" lon="11.4604083"><ele>420.0</ele><time>2026-04-04T07:19:46.226Z</time></trkpt><trkpt lat="44.3474111" lon="11.4605808"><ele>422.0</ele><time>2026-04-04T07:19:47.226Z</time></trkpt><trkpt lat="44.3475437" lon="11.4607468"><ele>424.0</ele><time>2026-04-04T07:19:48.226Z</time></trkpt><trkpt lat="44.3476682" lon="11.4608906"><ele>424.0</ele><time>2026-04-04T07:19:49.225Z</time></trkpt><trkpt lat="44.3477889" lon="11.4610154"><ele>424.0</ele><time>2026-04-04T07:19:50.226Z</time></trkpt><trkpt lat="44.3479072" lon="11.4611275"><ele>424.0</ele><time>2026-04-04T07:19:51.226Z</time></trkpt><trkpt lat="44.3480185" lon="11.4612515"><ele>424.0</ele><time>2026-04-04T07:19:52.226Z</time></trkpt><trkpt lat="44.3481187" lon="11.4613926"><ele>426.25</ele><time>2026-04-04T07:19:53.226Z</time></trkpt><trkpt lat="44.3482012" lon="11.4615552"><ele>428.5</ele><time>2026-04-04T07:19:54.226Z</time></trkpt><trkpt lat="44.3482657" lon="11.4617451"><ele>430.75</ele><time>2026-04-04T07:19:55.226Z</time></trkpt><trkpt lat="44.3483145" lon="11.4619516"><ele>433.0</ele><time>2026-04-04T07:19:56.226Z</time></trkpt><trkpt lat="44.3483516" lon="11.4621699"><ele>433.0</ele><time>2026-04-04T07:19:57.225Z</time></trkpt><trkpt lat="44.348382" lon="11.4623925"><ele>433.0</ele><time>2026-04-04T07:19:58.225Z</time></trkpt><trkpt lat="44.3484156" lon="11.462618"><ele>433.0</ele><time>2026-04-04T07:19:59.226Z</time></trkpt><trkpt lat="44.3484557" lon="11.4628489"><ele>431.0</ele><time>2026-04-04T07:20:00.226Z</time></trkpt><trkpt lat="44.3484874" lon="11.4630815"><ele>429.0</ele><time>2026-04-04T07:20:01.226Z</time></trkpt><trkpt lat="44.3485043" lon="11.4633084"><ele>427.0</ele><time>2026-04-04T07:20:02.225Z</time></trkpt><trkpt lat="44.3484884" lon="11.4635317"><ele>427.0</ele><time>2026-04-04T07:20:03.225Z</time></trkpt><trkpt lat="44.3484333" lon="11.4637447"><ele>427.0</ele><time>2026-04-04T07:20:04.225Z</time></trkpt><trkpt lat="44.3483509" lon="11.4639426"><ele>427.0</ele><time>2026-04-04T07:20:05.225Z</time></trkpt><trkpt lat="44.3482648" lon="11.4641236"><ele>426.75</ele><time>2026-04-04T07:20:06.226Z</time></trkpt><trkpt lat="44.3481949" lon="11.4642906"><ele>426.5</ele><time>2026-04-04T07:20:07.225Z</time></trkpt><trkpt lat="44.3481476" lon="11.4644426"><ele>426.25</ele><time>2026-04-04T07:20:08.225Z</time></trkpt><trkpt lat="44.3481367" lon="11.4645968"><ele>426.0</ele><time>2026-04-04T07:20:09.225Z</time></trkpt><trkpt lat="44.3481592" lon="11.4647596"><ele>426.5</ele><time>2026-04-04T07:20:10.226Z</time></trkpt><trkpt lat="44.3482085" lon="11.4649306"><ele>427.0</ele><time>2026-04-04T07:20:11.226Z</time></trkpt><trkpt lat="44.3482602" lon="11.4651181"><ele>427.5</ele><time>2026-04-04T07:20:12.226Z</time></trkpt><trkpt lat="44.3483069" lon="11.4653201"><ele>428.0</ele><time>2026-04-04T07:20:13.225Z</time></trkpt><trkpt lat="44.3483487" lon="11.465532"><ele>430.0</ele><time>2026-04-04T07:20:14.226Z</time></trkpt><trkpt lat="44.3483906" lon="11.4657521"><ele>432.0</ele><time>2026-04-04T07:20:15.225Z</time></trkpt><trkpt lat="44.3484232" lon="11.4659805"><ele>434.0</ele><time>2026-04-04T07:20:16.226Z</time></trkpt><trkpt lat="44.3484403" lon="11.466219"><ele>434.3333333333333</ele><time>2026-04-04T07:20:17.225Z</time></trkpt><trkpt lat="44.3484506" lon="11.4664671"><ele>434.66666666666663</ele><time>2026-04-04T07:20:18.226Z</time></trkpt><trkpt lat="44.3484477" lon="11.4667155"><ele>435.0</ele><time>2026-04-04T07:20:19.226Z</time></trkpt><trkpt lat="44.3484276" lon="11.4669475"><ele>438.66666666666663</ele><time>2026-04-04T07:20:20.226Z</time></trkpt><trkpt lat="44.3483916" lon="11.4671598"><ele>442.3333333333333</ele><time>2026-04-04T07:20:21.225Z</time></trkpt><trkpt lat="44.3483346" lon="11.4673539"><ele>446.0</ele><time>2026-04-04T07:20:22.225Z</time></trkpt><trkpt lat="44.3482519" lon="11.4675238"><ele>446.0</ele><time>2026-04-04T07:20:23.226Z</time></trkpt><trkpt lat="44.3481592" lon="11.4676928"><ele>446.0</ele><time>2026-04-04T07:20:24.226Z</time></trkpt><trkpt lat="44.3480786" lon="11.4678722"><ele>446.0</ele><time>2026-04-04T07:20:25.226Z</time></trkpt><trkpt lat="44.3480071" lon="11.4680626"><ele>445.0</ele><time>2026-04-04T07:20:26.226Z</time></trkpt><trkpt lat="44.3479274" lon="11.4682564"><ele>444.0</ele><time>2026-04-04T07:20:27.225Z</time></trkpt><trkpt lat="44.3478417" lon="11.46844"><ele>443.0</ele><time>2026-04-04T07:20:28.226Z</time></trkpt><trkpt lat="44.34778" lon="11.4686283"><ele>444.75</ele><time>2026-04-04T07:20:29.225Z</time></trkpt><trkpt lat="44.347745" lon="11.4688133"><ele>446.5</ele><time>2026-04-04T07:20:30.226Z</time></trkpt><trkpt lat="44.3477233" lon="11.468995"><ele>448.25</ele><time>2026-04-04T07:20:31.226Z</time></trkpt><trkpt lat="44.347715" lon="11.4691683"><ele>450.0</ele><time>2026-04-04T07:20:32.225Z</time></trkpt><trkpt lat="44.3477017" lon="11.4693433"><ele>450.0</ele><time>2026-04-04T07:20:33.225Z</time></trkpt><trkpt lat="44.34771" lon="11.4695183"><ele>450.0</ele><time>2026-04-04T07:20:34.225Z</time></trkpt><trkpt lat="44.347735" lon="11.469685"><ele>450.0</ele><time>2026-04-04T07:20:35.225Z</time></trkpt><trkpt lat="44.3477933" lon="11.4698433"><ele>450.0</ele><time>2026-04-04T07:20:36.226Z</time></trkpt><trkpt lat="44.3478867" lon="11.469985"><ele>449.33333333333337</ele><time>2026-04-04T07:20:37.226Z</time></trkpt><trkpt lat="44.3479967" lon="11.4701233"><ele>448.6666666666667</ele><time>2026-04-04T07:20:38.226Z</time></trkpt><trkpt lat="44.34812" lon="11.4702583"><ele>448.0</ele><time>2026-04-04T07:20:39.225Z</time></trkpt><trkpt lat="44.348245" lon="11.4704017"><ele>447.5</ele><time>2026-04-04T07:20:40.226Z</time></trkpt><trkpt lat="44.3483483" lon="11.4705567"><ele>447.0</ele><time>2026-04-04T07:20:41.226Z</time></trkpt><trkpt lat="44.34844" lon="11.470715"><ele>446.5</ele><time>2026-04-04T07:20:42.225Z</time></trkpt><trkpt lat="44.348515" lon="11.4708883"><ele>446.0</ele><time>2026-04-04T07:20:43.226Z</time></trkpt><trkpt lat="44.3485733" lon="11.4710767"><ele>446.0</ele><time>2026-04-04T07:20:44.226Z</time></trkpt><trkpt lat="44.3486067" lon="11.4712717"><ele>446.0</ele><time>2026-04-04T07:20:45.226Z</time></trkpt><trkpt lat="44.34861" lon="11.4714883"><ele>446.0</ele><time>2026-04-04T07:20:46.226Z</time></trkpt><trkpt lat="44.3486067" lon="11.4717033"><ele>445.0</ele><time>2026-04-04T07:20:47.226Z</time></trkpt><trkpt lat="44.3486083" lon="11.4719"><ele>444.0</ele><time>2026-04-04T07:20:48.226Z</time></trkpt><trkpt lat="44.3485983" lon="11.4720817"><ele>443.0</ele><time>2026-04-04T07:20:49.226Z</time></trkpt><trkpt lat="44.3485967" lon="11.47224"><ele>442.0</ele><time>2026-04-04T07:20:50.226Z</time></trkpt><trkpt lat="44.3486033" lon="11.4723933"><ele>441.75</ele><time>2026-04-04T07:20:51.226Z</time></trkpt><trkpt lat="44.3486317" lon="11.4725567"><ele>441.5</ele><time>2026-04-04T07:20:52.226Z</time></trkpt><trkpt lat="44.3486883" lon="11.472715"><ele>441.25</ele><time>2026-04-04T07:20:53.226Z</time></trkpt><trkpt lat="44.3487433" lon="11.4728883"><ele>441.0</ele><time>2026-04-04T07:20:54.225Z</time></trkpt><trkpt lat="44.3488017" lon="11.4730617"><ele>441.25</ele><time>2026-04-04T07:20:55.226Z</time></trkpt><trkpt lat="44.3488433" lon="11.4732383"><ele>441.5</ele><time>2026-04-04T07:20:56.225Z</time></trkpt><trkpt lat="44.3488783" lon="11.4734067"><ele>441.75</ele><time>2026-04-04T07:20:57.225Z</time></trkpt><trkpt lat="44.3488783" lon="11.4735733"><ele>442.0</ele><time>2026-04-04T07:20:58.226Z</time></trkpt><trkpt lat="44.3488817" lon="11.4737317"><ele>443.0</ele><time>2026-04-04T07:20:59.225Z</time></trkpt><trkpt lat="44.3488967" lon="11.4738767"><ele>444.00000000000006</ele><time>2026-04-04T07:21:00.225Z</time></trkpt><trkpt lat="44.3489517" lon="11.473985"><ele>445.00000000000006</ele><time>2026-04-04T07:21:01.225Z</time></trkpt><trkpt lat="44.3490383" lon="11.4740583"><ele>446.0</ele><time>2026-04-04T07:21:02.226Z</time></trkpt><trkpt lat="44.34916" lon="11.4740983"><ele>447.0</ele><time>2026-04-04T07:21:03.226Z</time></trkpt><trkpt lat="44.3492733" lon="11.4741383"><ele>447.0</ele><time>2026-04-04T07:21:04.226Z</time></trkpt><trkpt lat="44.3493783" lon="11.4741633"><ele>447.00000000000006</ele><time>2026-04-04T07:21:05.226Z</time></trkpt><trkpt lat="44.349475" lon="11.474205"><ele>447.00000000000006</ele><time>2026-04-04T07:21:06.226Z</time></trkpt><trkpt lat="44.34955" lon="11.4742617"><ele>447.0</ele><time>2026-04-04T07:21:07.226Z</time></trkpt><trkpt lat="44.34961" lon="11.4743433"><ele>447.0</ele><time>2026-04-04T07:21:08.226Z</time></trkpt><trkpt lat="44.34965" lon="11.474435"><ele>447.0</ele><time>2026-04-04T07:21:09.225Z</time></trkpt><trkpt lat="44.3497" lon="11.4745267"><ele>447.00000000000006</ele><time>2026-04-04T07:21:10.226Z</time></trkpt><trkpt lat="44.3497483" lon="11.4746433"><ele>447.00000000000006</ele><time>2026-04-04T07:21:11.225Z</time></trkpt><trkpt lat="44.3497867" lon="11.4747867"><ele>447.0</ele><time>2026-04-04T07:21:12.226Z</time></trkpt><trkpt lat="44.3498017" lon="11.4749483"><ele>447.0</ele><time>2026-04-04T07:21:13.226Z</time></trkpt><trkpt lat="44.3498017" lon="11.4751283"><ele>444.0</ele><time>2026-04-04T07:21:14.226Z</time></trkpt><trkpt lat="44.3497867" lon="11.475315"><ele>441.0</ele><time>2026-04-04T07:21:15.225Z</time></trkpt><trkpt lat="44.3497733" lon="11.4755117"><ele>438.0</ele><time>2026-04-04T07:21:16.226Z</time></trkpt><trkpt lat="44.34975" lon="11.4757183"><ele>435.0</ele><time>2026-04-04T07:21:17.225Z</time></trkpt><trkpt lat="44.349705" lon="11.47592"><ele>432.66666666666663</ele><time>2026-04-04T07:21:18.225Z</time></trkpt><trkpt lat="44.3496467" lon="11.4761283"><ele>430.3333333333333</ele><time>2026-04-04T07:21:19.226Z</time></trkpt><trkpt lat="44.3495867" lon="11.47633"><ele>428.0</ele><time>2026-04-04T07:21:20.226Z</time></trkpt><trkpt lat="44.3495283" lon="11.4765317"><ele>427.75</ele><time>2026-04-04T07:21:21.226Z</time></trkpt><trkpt lat="44.349475" lon="11.4767233"><ele>427.5</ele><time>2026-04-04T07:21:22.226Z</time></trkpt><trkpt lat="44.3494083" lon="11.4768933"><ele>427.25</ele><time>2026-04-04T07:21:23.226Z</time></trkpt><trkpt lat="44.349335" lon="11.47702"><ele>427.0</ele><time>2026-04-04T07:21:24.225Z</time></trkpt><trkpt lat="44.3492433" lon="11.4771267"><ele>426.75</ele><time>2026-04-04T07:21:25.226Z</time></trkpt><trkpt lat="44.3491467" lon="11.4772417"><ele>426.5</ele><time>2026-04-04T07:21:26.226Z</time></trkpt><trkpt lat="44.3490483" lon="11.4773733"><ele>426.25</ele><time>2026-04-04T07:21:27.226Z</time></trkpt><trkpt lat="44.34896" lon="11.4775167"><ele>426.0</ele><time>2026-04-04T07:21:28.226Z</time></trkpt><trkpt lat="44.3488867" lon="11.4776683"><ele>425.4</ele><time>2026-04-04T07:21:29.225Z</time></trkpt><trkpt lat="44.3488233" lon="11.477795"><ele>424.8</ele><time>2026-04-04T07:21:30.226Z</time></trkpt><trkpt lat="44.3487767" lon="11.4778967"><ele>424.2</ele><time>2026-04-04T07:21:31.225Z</time></trkpt><trkpt lat="44.348735" lon="11.4779767"><ele>423.59999999999997</ele><time>2026-04-04T07:21:32.225Z</time></trkpt><trkpt lat="44.3486867" lon="11.4780333"><ele>423.0</ele><time>2026-04-04T07:21:33.225Z</time></trkpt><trkpt lat="44.3485617" lon="11.4780367"><ele>423.0</ele><time>2026-04-04T07:21:35.225Z</time></trkpt><trkpt lat="44.348485" lon="11.4780117"><ele>423.0</ele><time>2026-04-04T07:21:36.225Z</time></trkpt><trkpt lat="44.3483983" lon="11.477995"><ele>423.0</ele><time>2026-04-04T07:21:37.226Z</time></trkpt><trkpt lat="44.34831" lon="11.4779917"><ele>423.0</ele><time>2026-04-04T07:21:38.226Z</time></trkpt><trkpt lat="44.348225" lon="11.4779917"><ele>423.0</ele><time>2026-04-04T07:21:39.225Z</time></trkpt><trkpt lat="44.3481383" lon="11.4779783"><ele>423.0</ele><time>2026-04-04T07:21:40.225Z</time></trkpt><trkpt lat="44.3480567" lon="11.4779417"><ele>420.6666666666667</ele><time>2026-04-04T07:21:41.225Z</time></trkpt><trkpt lat="44.34799" lon="11.4778883"><ele>418.33333333333337</ele><time>2026-04-04T07:21:42.225Z</time></trkpt><trkpt lat="44.3479417" lon="11.4778267"><ele>416.0</ele><time>2026-04-04T07:21:43.226Z</time></trkpt><trkpt lat="44.3479017" lon="11.4777383"><ele>413.6666666666667</ele><time>2026-04-04T07:21:44.226Z</time></trkpt><trkpt lat="44.34787" lon="11.4776417"><ele>411.33333333333337</ele><time>2026-04-04T07:21:45.226Z</time></trkpt><trkpt lat="44.3478083" lon="11.4775133"><ele>409.0</ele><time>2026-04-04T07:21:47.226Z</time></trkpt><trkpt lat="44.3477117" lon="11.4775783"><ele>409.0</ele><time>2026-04-04T07:21:49.225Z</time></trkpt><trkpt lat="44.34771" lon="11.47777"><ele>409.0</ele><time>2026-04-04T07:21:51.226Z</time></trkpt><trkpt lat="44.3477383" lon="11.4778883"><ele>409.0</ele><time>2026-04-04T07:21:52.226Z</time></trkpt><trkpt lat="44.3477817" lon="11.4780167"><ele>409.0</ele><time>2026-04-04T07:21:53.226Z</time></trkpt><trkpt lat="44.3478317" lon="11.4781517"><ele>409.0</ele><time>2026-04-04T07:21:54.226Z</time></trkpt><trkpt lat="44.3478617" lon="11.4782933"><ele>407.79999999999995</ele><time>2026-04-04T07:21:55.225Z</time></trkpt><trkpt lat="44.3478717" lon="11.47844"><ele>406.59999999999997</ele><time>2026-04-04T07:21:56.226Z</time></trkpt><trkpt lat="44.3478383" lon="11.4785833"><ele>405.4</ele><time>2026-04-04T07:21:57.225Z</time></trkpt><trkpt lat="44.347785" lon="11.47871"><ele>404.2</ele><time>2026-04-04T07:21:58.226Z</time></trkpt><trkpt lat="44.3477067" lon="11.47883"><ele>403.0</ele><time>2026-04-04T07:21:59.225Z</time></trkpt><trkpt lat="44.3476217" lon="11.47894"><ele>402.75</ele><time>2026-04-04T07:22:00.225Z</time></trkpt><trkpt lat="44.3475267" lon="11.47904"><ele>402.5</ele><time>2026-04-04T07:22:01.226Z</time></trkpt><trkpt lat="44.3474267" lon="11.47916"><ele>402.25</ele><time>2026-04-04T07:22:02.226Z</time></trkpt><trkpt lat="44.3473433" lon="11.4792883"><ele>402.0</ele><time>2026-04-04T07:22:03.225Z</time></trkpt><trkpt lat="44.3472783" lon="11.4794217"><ele>402.0</ele><time>2026-04-04T07:22:04.225Z</time></trkpt><trkpt lat="44.3472233" lon="11.479565"><ele>402.0</ele><time>2026-04-04T07:22:05.225Z</time></trkpt><trkpt lat="44.3471667" lon="11.4797217"><ele>402.0</ele><time>2026-04-04T07:22:06.226Z</time></trkpt><trkpt lat="44.3471083" lon="11.4798633"><ele>402.0</ele><time>2026-04-04T07:22:07.226Z</time></trkpt><trkpt lat="44.347045" lon="11.4799883"><ele>399.40000000000003</ele><time>2026-04-04T07:22:08.226Z</time></trkpt><trkpt lat="44.3469767" lon="11.4800883"><ele>396.8</ele><time>2026-04-04T07:22:09.226Z</time></trkpt><trkpt lat="44.3469" lon="11.4801733"><ele>394.2</ele><time>2026-04-04T07:22:10.225Z</time></trkpt><trkpt lat="44.34681" lon="11.4802317"><ele>391.6</ele><time>2026-04-04T07:22:11.225Z</time></trkpt><trkpt lat="44.34672" lon="11.4802533"><ele>389.0</ele><time>2026-04-04T07:22:12.226Z</time></trkpt><trkpt lat="44.346625" lon="11.48023"><ele>389.0</ele><time>2026-04-04T07:22:13.226Z</time></trkpt><trkpt lat="44.3465167" lon="11.4801617"><ele>389.0</ele><time>2026-04-04T07:22:14.226Z</time></trkpt><trkpt lat="44.3463967" lon="11.4800567"><ele>389.0</ele><time>2026-04-04T07:22:15.225Z</time></trkpt><trkpt lat="44.3462683" lon="11.4799617"><ele>389.0</ele><time>2026-04-04T07:22:16.226Z</time></trkpt><trkpt lat="44.3461567" lon="11.47988"><ele>389.25</ele><time>2026-04-04T07:22:17.225Z</time></trkpt><trkpt lat="44.3460417" lon="11.4798233"><ele>389.5</ele><time>2026-04-04T07:22:18.226Z</time></trkpt><trkpt lat="44.3459183" lon="11.479795"><ele>389.75</ele><time>2026-04-04T07:22:19.225Z</time></trkpt><trkpt lat="44.3457933" lon="11.47979"><ele>390.0</ele><time>2026-04-04T07:22:20.225Z</time></trkpt><trkpt lat="44.3456817" lon="11.4798233"><ele>390.0</ele><time>2026-04-04T07:22:21.225Z</time></trkpt><trkpt lat="44.3455883" lon="11.4798817"><ele>390.0</ele><time>2026-04-04T07:22:22.226Z</time></trkpt><trkpt lat="44.3455233" lon="11.4799767"><ele>390.0</ele><time>2026-04-04T07:22:23.225Z</time></trkpt><trkpt lat="44.345455" lon="11.4801083"><ele>390.0</ele><time>2026-04-04T07:22:24.226Z</time></trkpt><trkpt lat="44.3453867" lon="11.480285"><ele>384.75</ele><time>2026-04-04T07:22:25.226Z</time></trkpt><trkpt lat="44.3453233" lon="11.4804583"><ele>379.5</ele><time>2026-04-04T07:22:26.226Z</time></trkpt><trkpt lat="44.345255" lon="11.4806083"><ele>374.25</ele><time>2026-04-04T07:22:27.226Z</time></trkpt><trkpt lat="44.3451867" lon="11.4807467"><ele>369.0</ele><time>2026-04-04T07:22:28.226Z</time></trkpt><trkpt lat="44.3451283" lon="11.480885"><ele>369.0</ele><time>2026-04-04T07:22:29.225Z</time></trkpt><trkpt lat="44.3450783" lon="11.48102"><ele>369.0</ele><time>2026-04-04T07:22:30.225Z</time></trkpt><trkpt lat="44.3450233" lon="11.481145"><ele>369.0</ele><time>2026-04-04T07:22:31.226Z</time></trkpt><trkpt lat="44.3449717" lon="11.48125"><ele>369.0</ele><time>2026-04-04T07:22:32.225Z</time></trkpt><trkpt lat="44.344925" lon="11.4813533"><ele>369.0</ele><time>2026-04-04T07:22:33.226Z</time></trkpt><trkpt lat="44.344905" lon="11.4814583"><ele>367.5</ele><time>2026-04-04T07:22:34.225Z</time></trkpt><trkpt lat="44.3449083" lon="11.48156"><ele>366.0</ele><time>2026-04-04T07:22:35.225Z</time></trkpt><trkpt lat="44.3449367" lon="11.4816583"><ele>364.5</ele><time>2026-04-04T07:22:36.225Z</time></trkpt><trkpt lat="44.344985" lon="11.481745"><ele>363.0</ele><time>2026-04-04T07:22:37.225Z</time></trkpt><trkpt lat="44.34505" lon="11.4818167"><ele>361.5</ele><time>2026-04-04T07:22:38.225Z</time></trkpt><trkpt lat="44.34513" lon="11.4818617"><ele>360.0</ele><time>2026-04-04T07:22:39.226Z</time></trkpt><trkpt lat="44.3452033" lon="11.4819067"><ele>360.0</ele><time>2026-04-04T07:22:40.225Z</time></trkpt><trkpt lat="44.3452733" lon="11.481965"><ele>360.0</ele><time>2026-04-04T07:22:41.225Z</time></trkpt><trkpt lat="44.34533" lon="11.4820383"><ele>360.0</ele><time>2026-04-04T07:22:42.226Z</time></trkpt><trkpt lat="44.34537" lon="11.4821167"><ele>360.0</ele><time>2026-04-04T07:22:43.225Z</time></trkpt><trkpt lat="44.3453859" lon="11.4822122"><ele>360.0</ele><time>2026-04-04T07:22:44.225Z</time></trkpt><trkpt lat="44.345369" lon="11.482316"><ele>360.0</ele><time>2026-04-04T07:22:45.225Z</time></trkpt><trkpt lat="44.3453201" lon="11.4824033"><ele>358.0</ele><time>2026-04-04T07:22:46.225Z</time></trkpt><trkpt lat="44.3452316" lon="11.4824441"><ele>356.0</ele><time>2026-04-04T07:22:47.226Z</time></trkpt><trkpt lat="44.3451281" lon="11.4824383"><ele>354.0</ele><time>2026-04-04T07:22:48.226Z</time></trkpt><trkpt lat="44.3450151" lon="11.4824093"><ele>352.0</ele><time>2026-04-04T07:22:49.226Z</time></trkpt><trkpt lat="44.3448888" lon="11.4823464"><ele>350.0</ele><time>2026-04-04T07:22:50.226Z</time></trkpt><trkpt lat="44.3447717" lon="11.4822743"><ele>347.8</ele><time>2026-04-04T07:22:51.226Z</time></trkpt><trkpt lat="44.3446695" lon="11.4822"><ele>345.6</ele><time>2026-04-04T07:22:52.225Z</time></trkpt><trkpt lat="44.3445744" lon="11.4821273"><ele>343.4</ele><time>2026-04-04T07:22:53.225Z</time></trkpt><trkpt lat="44.3444919" lon="11.4820429"><ele>341.2</ele><time>2026-04-04T07:22:54.226Z</time></trkpt><trkpt lat="44.3444241" lon="11.4819422"><ele>339.0</ele><time>2026-04-04T07:22:55.226Z</time></trkpt><trkpt lat="44.3443599" lon="11.4818471"><ele>339.0</ele><time>2026-04-04T07:22:56.225Z</time></trkpt><trkpt lat="44.3442704" lon="11.4817658"><ele>339.0</ele><time>2026-04-04T07:22:57.226Z</time></trkpt><trkpt lat="44.3441606" lon="11.4816958"><ele>339.0</ele><time>2026-04-04T07:22:58.226Z</time></trkpt><trkpt lat="44.3440269" lon="11.4816386"><ele>339.0</ele><time>2026-04-04T07:22:59.226Z</time></trkpt><trkpt lat="44.3438998" lon="11.481576"><ele>336.0</ele><time>2026-04-04T07:23:00.226Z</time></trkpt><trkpt lat="44.3437789" lon="11.4815208"><ele>333.0</ele><time>2026-04-04T07:23:01.226Z</time></trkpt><trkpt lat="44.3436698" lon="11.4814791"><ele>330.0</ele><time>2026-04-04T07:23:02.225Z</time></trkpt><trkpt lat="44.3435739" lon="11.4814284"><ele>327.0</ele><time>2026-04-04T07:23:03.226Z</time></trkpt><trkpt lat="44.3434863" lon="11.4813406"><ele>326.75</ele><time>2026-04-04T07:23:04.226Z</time></trkpt><trkpt lat="44.3433968" lon="11.4812073"><ele>326.5</ele><time>2026-04-04T07:23:05.226Z</time></trkpt><trkpt lat="44.3433051" lon="11.4810492"><ele>326.25</ele><time>2026-04-04T07:23:06.225Z</time></trkpt><trkpt lat="44.3432096" lon="11.4808979"><ele>326.0</ele><time>2026-04-04T07:23:07.226Z</time></trkpt><trkpt lat="44.3431108" lon="11.4807573"><ele>322.75</ele><time>2026-04-04T07:23:08.226Z</time></trkpt><trkpt lat="44.342999" lon="11.4806332"><ele>319.5</ele><time>2026-04-04T07:23:09.225Z</time></trkpt><trkpt lat="44.3428921" lon="11.480514"><ele>316.25</ele><time>2026-04-04T07:23:10.226Z</time></trkpt><trkpt lat="44.3428033" lon="11.4803954"><ele>313.0</ele><time>2026-04-04T07:23:11.225Z</time></trkpt><trkpt lat="44.3427217" lon="11.4802773"><ele>312.25</ele><time>2026-04-04T07:23:12.226Z</time></trkpt><trkpt lat="44.3426386" lon="11.4801624"><ele>311.5</ele><time>2026-04-04T07:23:13.225Z</time></trkpt><trkpt lat="44.3425374" lon="11.4800616"><ele>310.75</ele><time>2026-04-04T07:23:14.226Z</time></trkpt><trkpt lat="44.3424174" lon="11.4799712"><ele>310.0</ele><time>2026-04-04T07:23:15.225Z</time></trkpt><trkpt lat="44.3422904" lon="11.4798967"><ele>307.5</ele><time>2026-04-04T07:23:16.226Z</time></trkpt><trkpt lat="44.34217" lon="11.4798267"><ele>305.0</ele><time>2026-04-04T07:23:17.225Z</time></trkpt><trkpt lat="44.342045" lon="11.4797467"><ele>302.5</ele><time>2026-04-04T07:23:18.226Z</time></trkpt><trkpt lat="44.3419367" lon="11.4796633"><ele>300.0</ele><time>2026-04-04T07:23:19.226Z</time></trkpt><trkpt lat="44.341825" lon="11.4796033"><ele>299.5</ele><time>2026-04-04T07:23:20.226Z</time></trkpt><trkpt lat="44.3417033" lon="11.479575"><ele>299.0</ele><time>2026-04-04T07:23:21.225Z</time></trkpt><trkpt lat="44.3415883" lon="11.4795817"><ele>298.5</ele><time>2026-04-04T07:23:22.226Z</time></trkpt><trkpt lat="44.3414717" lon="11.4796"><ele>298.0</ele><time>2026-04-04T07:23:23.226Z</time></trkpt><trkpt lat="44.3413583" lon="11.4795883"><ele>296.75</ele><time>2026-04-04T07:23:24.225Z</time></trkpt><trkpt lat="44.3412533" lon="11.47955"><ele>295.5</ele><time>2026-04-04T07:23:25.226Z</time></trkpt><trkpt lat="44.3411683" lon="11.4794733"><ele>294.25</ele><time>2026-04-04T07:23:26.226Z</time></trkpt><trkpt lat="44.34109" lon="11.479355"><ele>293.0</ele><time>2026-04-04T07:23:27.226Z</time></trkpt><trkpt lat="44.3410167" lon="11.4791833"><ele>293.0</ele><time>2026-04-04T07:23:28.225Z</time></trkpt><trkpt lat="44.3409517" lon="11.479005"><ele>293.0</ele><time>2026-04-04T07:23:29.226Z</time></trkpt><trkpt lat="44.3408867" lon="11.478855"><ele>293.0</ele><time>2026-04-04T07:23:30.226Z</time></trkpt><trkpt lat="44.3408133" lon="11.4787417"><ele>293.0</ele><time>2026-04-04T07:23:31.226Z</time></trkpt><trkpt lat="44.3407217" lon="11.478665"><ele>293.0</ele><time>2026-04-04T07:23:32.225Z</time></trkpt><trkpt lat="44.340615" lon="11.4786233"><ele>293.0</ele><time>2026-04-04T07:23:33.225Z</time></trkpt><trkpt lat="44.3405017" lon="11.4786183"><ele>293.0</ele><time>2026-04-04T07:23:34.225Z</time></trkpt><trkpt lat="44.3404" lon="11.47865"><ele>293.0</ele><time>2026-04-04T07:23:35.225Z</time></trkpt><trkpt lat="44.3403" lon="11.47871"><ele>293.0</ele><time>2026-04-04T07:23:36.226Z</time></trkpt><trkpt lat="44.3402267" lon="11.4788233"><ele>290.0</ele><time>2026-04-04T07:23:37.226Z</time></trkpt><trkpt lat="44.3401683" lon="11.47897"><ele>287.0</ele><time>2026-04-04T07:23:38.226Z</time></trkpt><trkpt lat="44.340135" lon="11.479125"><ele>284.0</ele><time>2026-04-04T07:23:39.225Z</time></trkpt><trkpt lat="44.3401117" lon="11.4792683"><ele>281.0</ele><time>2026-04-04T07:23:40.226Z</time></trkpt><trkpt lat="44.34007" lon="11.479385"><ele>278.0</ele><time>2026-04-04T07:23:41.226Z</time></trkpt><trkpt lat="44.340005" lon="11.47947"><ele>278.0</ele><time>2026-04-04T07:23:42.225Z</time></trkpt><trkpt lat="44.3399067" lon="11.479535"><ele>278.0</ele><time>2026-04-04T07:23:43.226Z</time></trkpt><trkpt lat="44.3397683" lon="11.4796067"><ele>278.0</ele><time>2026-04-04T07:23:44.226Z</time></trkpt><trkpt lat="44.3396367" lon="11.4796983"><ele>278.0</ele><time>2026-04-04T07:23:45.226Z</time></trkpt><trkpt lat="44.3395233" lon="11.4798167"><ele>276.0</ele><time>2026-04-04T07:23:46.225Z</time></trkpt><trkpt lat="44.3394167" lon="11.4799217"><ele>274.0</ele><time>2026-04-04T07:23:47.226Z</time></trkpt><trkpt lat="44.3393017" lon="11.4799833"><ele>272.0</ele><time>2026-04-04T07:23:48.226Z</time></trkpt><trkpt lat="44.3391733" lon="11.48002"><ele>270.0</ele><time>2026-04-04T07:23:49.226Z</time></trkpt><trkpt lat="44.3390417" lon="11.4800367"><ele>270.0</ele><time>2026-04-04T07:23:50.226Z</time></trkpt><trkpt lat="44.3389133" lon="11.4800317"><ele>270.0</ele><time>2026-04-04T07:23:51.227Z</time></trkpt><trkpt lat="44.3387967" lon="11.4799867"><ele>270.0</ele><time>2026-04-04T07:23:52.226Z</time></trkpt><trkpt lat="44.33867" lon="11.4799167"><ele>270.0</ele><time>2026-04-04T07:23:53.226Z</time></trkpt><trkpt lat="44.3385417" lon="11.4798367"><ele>267.25</ele><time>2026-04-04T07:23:54.227Z</time></trkpt><trkpt lat="44.3384017" lon="11.4797667"><ele>264.5</ele><time>2026-04-04T07:23:55.226Z</time></trkpt><trkpt lat="44.3382633" lon="11.4797033"><ele>261.75</ele><time>2026-04-04T07:23:56.226Z</time></trkpt><trkpt lat="44.3381333" lon="11.4796217"><ele>259.0</ele><time>2026-04-04T07:23:57.227Z</time></trkpt><trkpt lat="44.338015" lon="11.479545"><ele>257.2</ele><time>2026-04-04T07:23:58.227Z</time></trkpt><trkpt lat="44.3379017" lon="11.4794633"><ele>255.39999999999998</ele><time>2026-04-04T07:23:59.226Z</time></trkpt><trkpt lat="44.337795" lon="11.4793967"><ele>253.6</ele><time>2026-04-04T07:24:00.227Z</time></trkpt><trkpt lat="44.3376967" lon="11.47935"><ele>251.8</ele><time>2026-04-04T07:24:01.227Z</time></trkpt><trkpt lat="44.3376017" lon="11.4793467"><ele>250.0</ele><time>2026-04-04T07:24:02.227Z</time></trkpt><trkpt lat="44.3374883" lon="11.4793733"><ele>250.0</ele><time>2026-04-04T07:24:03.227Z</time></trkpt><trkpt lat="44.3373667" lon="11.4794233"><ele>250.0</ele><time>2026-04-04T07:24:04.226Z</time></trkpt><trkpt lat="44.3372517" lon="11.4794917"><ele>250.0</ele><time>2026-04-04T07:24:05.226Z</time></trkpt><trkpt lat="44.337125" lon="11.479545"><ele>250.0</ele><time>2026-04-04T07:24:06.227Z</time></trkpt><trkpt lat="44.3369983" lon="11.4795883"><ele>247.5</ele><time>2026-04-04T07:24:07.227Z</time></trkpt><trkpt lat="44.33686" lon="11.4796267"><ele>245.0</ele><time>2026-04-04T07:24:08.226Z</time></trkpt><trkpt lat="44.3367267" lon="11.47965"><ele>242.5</ele><time>2026-04-04T07:24:09.227Z</time></trkpt><trkpt lat="44.336595" lon="11.4796683"><ele>240.0</ele><time>2026-04-04T07:24:10.227Z</time></trkpt><trkpt lat="44.3364617" lon="11.4797033"><ele>239.5</ele><time>2026-04-04T07:24:11.226Z</time></trkpt><trkpt lat="44.3363283" lon="11.4797617"><ele>239.0</ele><time>2026-04-04T07:24:12.226Z</time></trkpt><trkpt lat="44.3361917" lon="11.4798367"><ele>238.5</ele><time>2026-04-04T07:24:13.226Z</time></trkpt><trkpt lat="44.3360633" lon="11.4799267"><ele>238.0</ele><time>2026-04-04T07:24:14.227Z</time></trkpt><trkpt lat="44.3359383" lon="11.4800217"><ele>238.0</ele><time>2026-04-04T07:24:15.227Z</time></trkpt><trkpt lat="44.3358183" lon="11.4801367"><ele>238.0</ele><time>2026-04-04T07:24:16.226Z</time></trkpt><trkpt lat="44.3357017" lon="11.4802683"><ele>238.0</ele><time>2026-04-04T07:24:17.227Z</time></trkpt><trkpt lat="44.3355667" lon="11.4803933"><ele>235.0</ele><time>2026-04-04T07:24:18.227Z</time></trkpt><trkpt lat="44.3354017" lon="11.48052"><ele>232.0</ele><time>2026-04-04T07:24:19.227Z</time></trkpt><trkpt lat="44.3352283" lon="11.4806483"><ele>229.0</ele><time>2026-04-04T07:24:20.227Z</time></trkpt><trkpt lat="44.3350467" lon="11.4808033"><ele>229.0</ele><time>2026-04-04T07:24:21.227Z</time></trkpt><trkpt lat="44.3348667" lon="11.4809617"><ele>229.0</ele><time>2026-04-04T07:24:22.227Z</time></trkpt><trkpt lat="44.3346967" lon="11.4811083"><ele>229.0</ele><time>2026-04-04T07:24:23.227Z</time></trkpt><trkpt lat="44.334535" lon="11.481255"><ele>229.0</ele><time>2026-04-04T07:24:24.227Z</time></trkpt><trkpt lat="44.334385" lon="11.4813867"><ele>229.0</ele><time>2026-04-04T07:24:25.226Z</time></trkpt><trkpt lat="44.3342378" lon="11.4814998"><ele>229.0</ele><time>2026-04-04T07:24:26.226Z</time></trkpt><trkpt lat="44.3340894" lon="11.4816019"><ele>229.0</ele><time>2026-04-04T07:24:27.227Z</time></trkpt><trkpt lat="44.3339443" lon="11.4816961"><ele>229.0</ele><time>2026-04-04T07:24:28.227Z</time></trkpt><trkpt lat="44.3338169" lon="11.4818015"><ele>229.0</ele><time>2026-04-04T07:24:29.227Z</time></trkpt><trkpt lat="44.3337023" lon="11.4819132"><ele>229.0</ele><time>2026-04-04T07:24:30.227Z</time></trkpt><trkpt lat="44.3336055" lon="11.4820498"><ele>228.33333333333331</ele><time>2026-04-04T07:24:31.227Z</time></trkpt><trkpt lat="44.3335257" lon="11.4822257"><ele>227.66666666666669</ele><time>2026-04-04T07:24:32.226Z</time></trkpt><trkpt lat="44.3334528" lon="11.4824162"><ele>227.0</ele><time>2026-04-04T07:24:33.226Z</time></trkpt><trkpt lat="44.3333816" lon="11.4826167"><ele>227.0</ele><time>2026-04-04T07:24:34.227Z</time></trkpt><trkpt lat="44.3332984" lon="11.4827951"><ele>227.0</ele><time>2026-04-04T07:24:35.226Z</time></trkpt><trkpt lat="44.3332244" lon="11.4829558"><ele>227.0</ele><time>2026-04-04T07:24:36.227Z</time></trkpt><trkpt lat="44.3331562" lon="11.4830958"><ele>227.0</ele><time>2026-04-04T07:24:37.227Z</time></trkpt><trkpt lat="44.3330997" lon="11.483191"><ele>224.39999999999998</ele><time>2026-04-04T07:24:38.227Z</time></trkpt><trkpt lat="44.3330511" lon="11.4832513"><ele>221.79999999999998</ele><time>2026-04-04T07:24:39.226Z</time></trkpt><trkpt lat="44.3329881" lon="11.4832733"><ele>219.2</ele><time>2026-04-04T07:24:40.227Z</time></trkpt><trkpt lat="44.3329035" lon="11.4832572"><ele>216.6</ele><time>2026-04-04T07:24:41.227Z</time></trkpt><trkpt lat="44.332781" lon="11.4832023"><ele>214.0</ele><time>2026-04-04T07:24:42.227Z</time></trkpt><trkpt lat="44.3326337" lon="11.4831414"><ele>214.0</ele><time>2026-04-04T07:24:43.227Z</time></trkpt><trkpt lat="44.3324622" lon="11.4830864"><ele>214.0</ele><time>2026-04-04T07:24:44.227Z</time></trkpt><trkpt lat="44.3322803" lon="11.483044"><ele>214.0</ele><time>2026-04-04T07:24:45.227Z</time></trkpt><trkpt lat="44.3320895" lon="11.4830087"><ele>214.0</ele><time>2026-04-04T07:24:46.226Z</time></trkpt><trkpt lat="44.3319047" lon="11.4829703"><ele>214.0</ele><time>2026-04-04T07:24:47.227Z</time></trkpt><trkpt lat="44.3317344" lon="11.4829439"><ele>214.0</ele><time>2026-04-04T07:24:48.227Z</time></trkpt><trkpt lat="44.3315751" lon="11.4829258"><ele>213.0</ele><time>2026-04-04T07:24:49.227Z</time></trkpt><trkpt lat="44.3314264" lon="11.4829053"><ele>212.0</ele><time>2026-04-04T07:24:50.226Z</time></trkpt><trkpt lat="44.3312827" lon="11.4828717"><ele>211.0</ele><time>2026-04-04T07:24:51.226Z</time></trkpt><trkpt lat="44.3311482" lon="11.4828186"><ele>210.0</ele><time>2026-04-04T07:24:52.227Z</time></trkpt><trkpt lat="44.3309986" lon="11.4827479"><ele>210.0</ele><time>2026-04-04T07:24:53.226Z</time></trkpt><trkpt lat="44.3308345" lon="11.4826827"><ele>210.0</ele><time>2026-04-04T07:24:54.227Z</time></trkpt><trkpt lat="44.3306589" lon="11.4826401"><ele>210.0</ele><time>2026-04-04T07:24:55.227Z</time></trkpt><trkpt lat="44.3304722" lon="11.4826239"><ele>208.66666666666669</ele><time>2026-04-04T07:24:56.227Z</time></trkpt><trkpt lat="44.3302785" lon="11.4826289"><ele>207.33333333333334</ele><time>2026-04-04T07:24:57.226Z</time></trkpt><trkpt lat="44.3301043" lon="11.4826247"><ele>206.0</ele><time>2026-04-04T07:24:58.226Z</time></trkpt><trkpt lat="44.3299468" lon="11.4825956"><ele>206.0</ele><time>2026-04-04T07:24:59.226Z</time></trkpt><trkpt lat="44.3298031" lon="11.4825425"><ele>206.0</ele><time>2026-04-04T07:25:00.227Z</time></trkpt><trkpt lat="44.3296751" lon="11.4824891"><ele>206.0</ele><time>2026-04-04T07:25:01.226Z</time></trkpt><trkpt lat="44.329548" lon="11.4824522"><ele>206.0</ele><time>2026-04-04T07:25:02.226Z</time></trkpt><trkpt lat="44.3294212" lon="11.4824457"><ele>206.25</ele><time>2026-04-04T07:25:03.226Z</time></trkpt><trkpt lat="44.3292888" lon="11.4824604"><ele>206.5</ele><time>2026-04-04T07:25:04.227Z</time></trkpt><trkpt lat="44.3291675" lon="11.482492"><ele>206.75</ele><time>2026-04-04T07:25:05.227Z</time></trkpt><trkpt lat="44.3290575" lon="11.4825399"><ele>207.0</ele><time>2026-04-04T07:25:06.227Z</time></trkpt><trkpt lat="44.3289633" lon="11.4826172"><ele>206.5</ele><time>2026-04-04T07:25:07.227Z</time></trkpt><trkpt lat="44.3288758" lon="11.4827352"><ele>206.0</ele><time>2026-04-04T07:25:08.226Z</time></trkpt><trkpt lat="44.3287877" lon="11.48287"><ele>205.5</ele><time>2026-04-04T07:25:09.226Z</time></trkpt><trkpt lat="44.3286814" lon="11.4830074"><ele>205.0</ele><time>2026-04-04T07:25:10.227Z</time></trkpt><trkpt lat="44.3285515" lon="11.4831314"><ele>203.5</ele><time>2026-04-04T07:25:11.227Z</time></trkpt><trkpt lat="44.3284191" lon="11.4832366"><ele>202.0</ele><time>2026-04-04T07:25:12.227Z</time></trkpt><trkpt lat="44.3282882" lon="11.4833116"><ele>200.5</ele><time>2026-04-04T07:25:13.227Z</time></trkpt><trkpt lat="44.3281649" lon="11.4833576"><ele>199.0</ele><time>2026-04-04T07:25:14.227Z</time></trkpt><trkpt lat="44.3280505" lon="11.4833778"><ele>198.39999999999998</ele><time>2026-04-04T07:25:15.227Z</time></trkpt><trkpt lat="44.3279411" lon="11.4833707"><ele>197.8</ele><time>2026-04-04T07:25:16.226Z</time></trkpt><trkpt lat="44.327839" lon="11.4833608"><ele>197.2</ele><time>2026-04-04T07:25:17.227Z</time></trkpt><trkpt lat="44.3277405" lon="11.4833751"><ele>196.60000000000002</ele><time>2026-04-04T07:25:18.226Z</time></trkpt><trkpt lat="44.3276346" lon="11.4834188"><ele>196.0</ele><time>2026-04-04T07:25:19.226Z</time></trkpt><trkpt lat="44.3275262" lon="11.4834858"><ele>196.0</ele><time>2026-04-04T07:25:20.227Z</time></trkpt><trkpt lat="44.3274139" lon="11.483552"><ele>196.0</ele><time>2026-04-04T07:25:21.226Z</time></trkpt><trkpt lat="44.3272971" lon="11.4835959"><ele>196.0</ele><time>2026-04-04T07:25:22.227Z</time></trkpt><trkpt lat="44.3271752" lon="11.4836204"><ele>196.0</ele><time>2026-04-04T07:25:23.227Z</time></trkpt><trkpt lat="44.3270535" lon="11.4836402"><ele>195.5</ele><time>2026-04-04T07:25:24.226Z</time></trkpt><trkpt lat="44.3269268" lon="11.4836566"><ele>195.0</ele><time>2026-04-04T07:25:25.227Z</time></trkpt><trkpt lat="44.3268186" lon="11.4836479"><ele>194.5</ele><time>2026-04-04T07:25:26.226Z</time></trkpt><trkpt lat="44.3267116" lon="11.4835979"><ele>194.0</ele><time>2026-04-04T07:25:27.227Z</time></trkpt><trkpt lat="44.3265948" lon="11.4835094"><ele>194.0</ele><time>2026-04-04T07:25:28.227Z</time></trkpt><trkpt lat="44.3264707" lon="11.4833999"><ele>194.0</ele><time>2026-04-04T07:25:29.227Z</time></trkpt><trkpt lat="44.3263412" lon="11.4832949"><ele>194.0</ele><time>2026-04-04T07:25:30.227Z</time></trkpt><trkpt lat="44.3262108" lon="11.4832057"><ele>194.0</ele><time>2026-04-04T07:25:31.226Z</time></trkpt><trkpt lat="44.3260803" lon="11.483142"><ele>193.75</ele><time>2026-04-04T07:25:32.227Z</time></trkpt><trkpt lat="44.3259468" lon="11.4831215"><ele>193.5</ele><time>2026-04-04T07:25:33.227Z</time></trkpt><trkpt lat="44.3258303" lon="11.4831372"><ele>193.25</ele><time>2026-04-04T07:25:34.226Z</time></trkpt><trkpt lat="44.3257224" lon="11.4831811"><ele>193.0</ele><time>2026-04-04T07:25:35.227Z</time></trkpt><trkpt lat="44.3256181" lon="11.4832424"><ele>192.33333333333331</ele><time>2026-04-04T07:25:36.226Z</time></trkpt><trkpt lat="44.3255267" lon="11.4833065"><ele>191.66666666666666</ele><time>2026-04-04T07:25:37.226Z</time></trkpt><trkpt lat="44.3254507" lon="11.4833439"><ele>191.0</ele><time>2026-04-04T07:25:38.227Z</time></trkpt><trkpt lat="44.3253841" lon="11.4833554"><ele>190.33333333333331</ele><time>2026-04-04T07:25:39.227Z</time></trkpt><trkpt lat="44.3253056" lon="11.4833541"><ele>189.66666666666666</ele><time>2026-04-04T07:25:40.226Z</time></trkpt><trkpt lat="44.3252186" lon="11.4833526"><ele>189.0</ele><time>2026-04-04T07:25:41.227Z</time></trkpt><trkpt lat="44.3251265" lon="11.483361"><ele>189.0</ele><time>2026-04-04T07:25:42.226Z</time></trkpt><trkpt lat="44.3250312" lon="11.4833841"><ele>189.0</ele><time>2026-04-04T07:25:43.226Z</time></trkpt><trkpt lat="44.3249392" lon="11.4834247"><ele>189.0</ele><time>2026-04-04T07:25:44.227Z</time></trkpt><trkpt lat="44.3248586" lon="11.4834604"><ele>189.0</ele><time>2026-04-04T07:25:45.227Z</time></trkpt><trkpt lat="44.3247568" lon="11.4834919"><ele>189.0</ele><time>2026-04-04T07:25:47.226Z</time></trkpt><trkpt lat="44.3246949" lon="11.4834107"><ele>188.79999999999998</ele><time>2026-04-04T07:25:50.227Z</time></trkpt><trkpt lat="44.3246891" lon="11.4832487"><ele>188.6</ele><time>2026-04-04T07:25:52.226Z</time></trkpt><trkpt lat="44.3246763" lon="11.4831415"><ele>188.4</ele><time>2026-04-04T07:25:53.227Z</time></trkpt><trkpt lat="44.3246619" lon="11.4830265"><ele>188.2</ele><time>2026-04-04T07:25:54.227Z</time></trkpt><trkpt lat="44.3246434" lon="11.482904"><ele>188.0</ele><time>2026-04-04T07:25:55.227Z</time></trkpt><trkpt lat="44.3246197" lon="11.4827755"><ele>189.60000000000002</ele><time>2026-04-04T07:25:56.226Z</time></trkpt><trkpt lat="44.3245831" lon="11.4826479"><ele>191.20000000000002</ele><time>2026-04-04T07:25:57.227Z</time></trkpt><trkpt lat="44.3245273" lon="11.4825261"><ele>192.8</ele><time>2026-04-04T07:25:58.227Z</time></trkpt><trkpt lat="44.3244604" lon="11.4824116"><ele>194.4</ele><time>2026-04-04T07:25:59.227Z</time></trkpt><trkpt lat="44.3243879" lon="11.4822996"><ele>196.0</ele><time>2026-04-04T07:26:00.227Z</time></trkpt><trkpt lat="44.3243261" lon="11.482182"><ele>197.0</ele><time>2026-04-04T07:26:01.227Z</time></trkpt><trkpt lat="44.3242786" lon="11.4820507"><ele>198.0</ele><time>2026-04-04T07:26:02.226Z</time></trkpt><trkpt lat="44.3242447" lon="11.4819114"><ele>199.0</ele><time>2026-04-04T07:26:03.227Z</time></trkpt><trkpt lat="44.3242207" lon="11.481765"><ele>200.0</ele><time>2026-04-04T07:26:04.227Z</time></trkpt><trkpt lat="44.3241975" lon="11.4816157"><ele>201.0</ele><time>2026-04-04T07:26:05.227Z</time></trkpt><trkpt lat="44.3241761" lon="11.4814654"><ele>201.0</ele><time>2026-04-04T07:26:06.226Z</time></trkpt><trkpt lat="44.324154" lon="11.4813259"><ele>201.0</ele><time>2026-04-04T07:26:07.227Z</time></trkpt><trkpt lat="44.3241225" lon="11.481198"><ele>201.0</ele><time>2026-04-04T07:26:08.226Z</time></trkpt><trkpt lat="44.3240971" lon="11.4810772"><ele>201.0</ele><time>2026-04-04T07:26:09.227Z</time></trkpt><trkpt lat="44.3240923" lon="11.4809534"><ele>201.0</ele><time>2026-04-04T07:26:10.227Z</time></trkpt><trkpt lat="44.3241037" lon="11.4808164"><ele>202.60000000000002</ele><time>2026-04-04T07:26:11.227Z</time></trkpt><trkpt lat="44.324119" lon="11.4806702"><ele>204.2</ele><time>2026-04-04T07:26:12.226Z</time></trkpt><trkpt lat="44.324135" lon="11.4805193"><ele>205.8</ele><time>2026-04-04T07:26:13.227Z</time></trkpt><trkpt lat="44.324159" lon="11.4803641"><ele>207.39999999999998</ele><time>2026-04-04T07:26:14.227Z</time></trkpt><trkpt lat="44.3242052" lon="11.4802091"><ele>209.0</ele><time>2026-04-04T07:26:15.227Z</time></trkpt><trkpt lat="44.3242645" lon="11.4800677"><ele>212.2</ele><time>2026-04-04T07:26:16.227Z</time></trkpt><trkpt lat="44.3243324" lon="11.47993"><ele>215.39999999999998</ele><time>2026-04-04T07:26:17.226Z</time></trkpt><trkpt lat="44.3243968" lon="11.4797918"><ele>218.6</ele><time>2026-04-04T07:26:18.227Z</time></trkpt><trkpt lat="44.3244576" lon="11.47966"><ele>221.8</ele><time>2026-04-04T07:26:19.227Z</time></trkpt><trkpt lat="44.324524" lon="11.4795581"><ele>225.0</ele><time>2026-04-04T07:26:20.227Z</time></trkpt><trkpt lat="44.3245963" lon="11.4794919"><ele>228.5</ele><time>2026-04-04T07:26:21.227Z</time></trkpt><trkpt lat="44.3246763" lon="11.4794589"><ele>232.0</ele><time>2026-04-04T07:26:22.227Z</time></trkpt><trkpt lat="44.3247624" lon="11.4794622"><ele>235.5</ele><time>2026-04-04T07:26:23.227Z</time></trkpt><trkpt lat="44.3248497" lon="11.4794742"><ele>239.0</ele><time>2026-04-04T07:26:24.227Z</time></trkpt><trkpt lat="44.324939" lon="11.4794936"><ele>242.5</ele><time>2026-04-04T07:26:25.226Z</time></trkpt><trkpt lat="44.3250298" lon="11.4795185"><ele>246.0</ele><time>2026-04-04T07:26:26.227Z</time></trkpt><trkpt lat="44.3251233" lon="11.4795412"><ele>247.4</ele><time>2026-04-04T07:26:27.227Z</time></trkpt><trkpt lat="44.325215" lon="11.4795592"><ele>248.8</ele><time>2026-04-04T07:26:28.227Z</time></trkpt><trkpt lat="44.3253098" lon="11.4795706"><ele>250.20000000000002</ele><time>2026-04-04T07:26:29.226Z</time></trkpt><trkpt lat="44.3254078" lon="11.4795684"><ele>251.60000000000002</ele><time>2026-04-04T07:26:30.227Z</time></trkpt><trkpt lat="44.3255166" lon="11.4795581"><ele>253.0</ele><time>2026-04-04T07:26:31.227Z</time></trkpt><trkpt lat="44.3256274" lon="11.4795444"><ele>252.75</ele><time>2026-04-04T07:26:32.227Z</time></trkpt><trkpt lat="44.3257426" lon="11.4795329"><ele>252.5</ele><time>2026-04-04T07:26:33.227Z</time></trkpt><trkpt lat="44.3258579" lon="11.4795363"><ele>252.25</ele><time>2026-04-04T07:26:34.226Z</time></trkpt><trkpt lat="44.3259725" lon="11.4795621"><ele>252.0</ele><time>2026-04-04T07:26:35.227Z</time></trkpt><trkpt lat="44.3260854" lon="11.4796024"><ele>252.0</ele><time>2026-04-04T07:26:36.227Z</time></trkpt><trkpt lat="44.3261839" lon="11.4796335"><ele>252.0</ele><time>2026-04-04T07:26:37.227Z</time></trkpt><trkpt lat="44.3262676" lon="11.479647"><ele>252.0</ele><time>2026-04-04T07:26:38.227Z</time></trkpt><trkpt lat="44.3263473" lon="11.4796011"><ele>252.0</ele><time>2026-04-04T07:26:40.226Z</time></trkpt><trkpt lat="44.3263122" lon="11.479493"><ele>252.0</ele><time>2026-04-04T07:26:42.226Z</time></trkpt><trkpt lat="44.3262517" lon="11.4794438"><ele>252.0</ele><time>2026-04-04T07:26:43.227Z</time></trkpt><trkpt lat="44.3261705" lon="11.4793891"><ele>254.8</ele><time>2026-04-04T07:26:44.227Z</time></trkpt><trkpt lat="44.3260831" lon="11.4793211"><ele>257.6</ele><time>2026-04-04T07:26:45.227Z</time></trkpt><trkpt lat="44.3259954" lon="11.4792299"><ele>260.40000000000003</ele><time>2026-04-04T07:26:46.227Z</time></trkpt><trkpt lat="44.325918" lon="11.4791274"><ele>263.2</ele><time>2026-04-04T07:26:47.227Z</time></trkpt><trkpt lat="44.3258548" lon="11.4790215"><ele>266.0</ele><time>2026-04-04T07:26:48.227Z</time></trkpt><trkpt lat="44.3258053" lon="11.4789097"><ele>266.0</ele><time>2026-04-04T07:26:49.227Z</time></trkpt><trkpt lat="44.3257664" lon="11.478789"><ele>266.0</ele><time>2026-04-04T07:26:50.227Z</time></trkpt><trkpt lat="44.3257323" lon="11.4786653"><ele>266.0</ele><time>2026-04-04T07:26:51.227Z</time></trkpt><trkpt lat="44.3257052" lon="11.4785452"><ele>266.0</ele><time>2026-04-04T07:26:52.227Z</time></trkpt><trkpt lat="44.3256942" lon="11.4784331"><ele>266.0</ele><time>2026-04-04T07:26:53.227Z</time></trkpt><trkpt lat="44.3257074" lon="11.4783321"><ele>266.0</ele><time>2026-04-04T07:26:54.227Z</time></trkpt><trkpt lat="44.3257468" lon="11.478232"><ele>269.6</ele><time>2026-04-04T07:26:55.226Z</time></trkpt><trkpt lat="44.3257968" lon="11.4781295"><ele>273.20000000000005</ele><time>2026-04-04T07:26:56.227Z</time></trkpt><trkpt lat="44.3258497" lon="11.4780205"><ele>276.79999999999995</ele><time>2026-04-04T07:26:57.227Z</time></trkpt><trkpt lat="44.3259055" lon="11.4779071"><ele>280.4</ele><time>2026-04-04T07:26:58.227Z</time></trkpt><trkpt lat="44.3259635" lon="11.4777905"><ele>284.0</ele><time>2026-04-04T07:26:59.227Z</time></trkpt><trkpt lat="44.3260281" lon="11.4776777"><ele>284.75</ele><time>2026-04-04T07:27:00.226Z</time></trkpt><trkpt lat="44.3260969" lon="11.4775664"><ele>285.5</ele><time>2026-04-04T07:27:01.226Z</time></trkpt><trkpt lat="44.3261749" lon="11.4774456"><ele>286.25</ele><time>2026-04-04T07:27:02.227Z</time></trkpt><trkpt lat="44.3262499" lon="11.4773133"><ele>287.0</ele><time>2026-04-04T07:27:03.227Z</time></trkpt><trkpt lat="44.3263219" lon="11.4771742"><ele>287.25</ele><time>2026-04-04T07:27:04.227Z</time></trkpt><trkpt lat="44.3263875" lon="11.4770231"><ele>287.5</ele><time>2026-04-04T07:27:05.226Z</time></trkpt><trkpt lat="44.326451" lon="11.4768627"><ele>287.75</ele><time>2026-04-04T07:27:06.227Z</time></trkpt><trkpt lat="44.3265122" lon="11.4766878"><ele>288.0</ele><time>2026-04-04T07:27:07.226Z</time></trkpt><trkpt lat="44.3265642" lon="11.4765106"><ele>291.0</ele><time>2026-04-04T07:27:08.227Z</time></trkpt><trkpt lat="44.3266087" lon="11.4763235"><ele>294.0</ele><time>2026-04-04T07:27:09.227Z</time></trkpt><trkpt lat="44.3266536" lon="11.4761314"><ele>297.0</ele><time>2026-04-04T07:27:10.227Z</time></trkpt><trkpt lat="44.3267012" lon="11.4759347"><ele>300.0</ele><time>2026-04-04T07:27:11.227Z</time></trkpt><trkpt lat="44.32675" lon="11.4757423"><ele>302.25</ele><time>2026-04-04T07:27:12.226Z</time></trkpt><trkpt lat="44.326785" lon="11.4755474"><ele>304.5</ele><time>2026-04-04T07:27:13.227Z</time></trkpt><trkpt lat="44.326795" lon="11.475355"><ele>306.75</ele><time>2026-04-04T07:27:14.227Z</time></trkpt><trkpt lat="44.3267967" lon="11.4751667"><ele>309.0</ele><time>2026-04-04T07:27:15.226Z</time></trkpt><trkpt lat="44.3267783" lon="11.4749833"><ele>312.75</ele><time>2026-04-04T07:27:16.227Z</time></trkpt><trkpt lat="44.3267383" lon="11.47482"><ele>316.5</ele><time>2026-04-04T07:27:17.227Z</time></trkpt><trkpt lat="44.3266817" lon="11.47468"><ele>320.25</ele><time>2026-04-04T07:27:18.227Z</time></trkpt><trkpt lat="44.326605" lon="11.47455"><ele>324.0</ele><time>2026-04-04T07:27:19.227Z</time></trkpt><trkpt lat="44.3265417" lon="11.4744117"><ele>327.6</ele><time>2026-04-04T07:27:20.227Z</time></trkpt><trkpt lat="44.326505" lon="11.4742633"><ele>331.2</ele><time>2026-04-04T07:27:21.227Z</time></trkpt><trkpt lat="44.3264917" lon="11.4741233"><ele>334.8</ele><time>2026-04-04T07:27:22.227Z</time></trkpt><trkpt lat="44.32648" lon="11.4739833"><ele>338.40000000000003</ele><time>2026-04-04T07:27:23.227Z</time></trkpt><trkpt lat="44.32648" lon="11.473885"><ele>342.0</ele><time>2026-04-04T07:27:24.226Z</time></trkpt><trkpt lat="44.3265267" lon="11.473755"><ele>343.8333333333333</ele><time>2026-04-04T07:27:26.227Z</time></trkpt><trkpt lat="44.3266233" lon="11.4736733"><ele>345.6666666666667</ele><time>2026-04-04T07:27:28.227Z</time></trkpt><trkpt lat="44.3266983" lon="11.4736317"><ele>347.5</ele><time>2026-04-04T07:27:29.227Z</time></trkpt><trkpt lat="44.3267667" lon="11.4735867"><ele>349.33333333333337</ele><time>2026-04-04T07:27:30.227Z</time></trkpt><trkpt lat="44.3268333" lon="11.4735433"><ele>351.1666666666667</ele><time>2026-04-04T07:27:31.227Z</time></trkpt><trkpt lat="44.326895" lon="11.4734917"><ele>353.0</ele><time>2026-04-04T07:27:32.227Z</time></trkpt><trkpt lat="44.3269617" lon="11.4734433"><ele>353.0</ele><time>2026-04-04T07:27:33.226Z</time></trkpt><trkpt lat="44.32703" lon="11.4733933"><ele>353.0</ele><time>2026-04-04T07:27:34.227Z</time></trkpt><trkpt lat="44.3271067" lon="11.47334"><ele>353.0</ele><time>2026-04-04T07:27:35.227Z</time></trkpt><trkpt lat="44.32719" lon="11.4732983"><ele>353.0</ele><time>2026-04-04T07:27:36.226Z</time></trkpt><trkpt lat="44.32727" lon="11.4732633"><ele>353.0</ele><time>2026-04-04T07:27:37.227Z</time></trkpt><trkpt lat="44.3273417" lon="11.4732433"><ele>353.0</ele><time>2026-04-04T07:27:38.226Z</time></trkpt><trkpt lat="44.3274317" lon="11.473225"><ele>353.83333333333337</ele><time>2026-04-04T07:27:40.227Z</time></trkpt><trkpt lat="44.3275233" lon="11.473195"><ele>354.6666666666667</ele><time>2026-04-04T07:27:42.227Z</time></trkpt><trkpt lat="44.3276383" lon="11.473115"><ele>355.5</ele><time>2026-04-04T07:27:44.226Z</time></trkpt><trkpt lat="44.3276933" lon="11.473065"><ele>356.3333333333333</ele><time>2026-04-04T07:27:45.226Z</time></trkpt><trkpt lat="44.3277467" lon="11.472995"><ele>357.16666666666663</ele><time>2026-04-04T07:27:46.227Z</time></trkpt><trkpt lat="44.3277933" lon="11.4729133"><ele>358.0</ele><time>2026-04-04T07:27:47.227Z</time></trkpt><trkpt lat="44.3278367" lon="11.4728267"><ele>359.3333333333333</ele><time>2026-04-04T07:27:48.227Z</time></trkpt><trkpt lat="44.3278842" lon="11.4727345"><ele>360.66666666666663</ele><time>2026-04-04T07:27:49.226Z</time></trkpt><trkpt lat="44.3279292" lon="11.4726392"><ele>362.0</ele><time>2026-04-04T07:27:50.227Z</time></trkpt><trkpt lat="44.3279705" lon="11.4725607"><ele>363.3333333333333</ele><time>2026-04-04T07:27:51.227Z</time></trkpt><trkpt lat="44.3280193" lon="11.4725038"><ele>364.6666666666667</ele><time>2026-04-04T07:27:52.227Z</time></trkpt><trkpt lat="44.3281386" lon="11.4724605"><ele>366.0</ele><time>2026-04-04T07:27:54.227Z</time></trkpt><trkpt lat="44.3282634" lon="11.4724725"><ele>366.0</ele><time>2026-04-04T07:27:56.227Z</time></trkpt><trkpt lat="44.3283743" lon="11.4725287"><ele>366.0</ele><time>2026-04-04T07:27:58.227Z</time></trkpt><trkpt lat="44.3284781" lon="11.4725668"><ele>366.0</ele><time>2026-04-04T07:28:00.227Z</time></trkpt><trkpt lat="44.3285768" lon="11.4725189"><ele>366.0</ele><time>2026-04-04T07:28:02.227Z</time></trkpt><trkpt lat="44.3286627" lon="11.4724178"><ele>366.0</ele><time>2026-04-04T07:28:04.227Z</time></trkpt><trkpt lat="44.3287865" lon="11.4723699"><ele>366.0</ele><time>2026-04-04T07:28:06.227Z</time></trkpt><trkpt lat="44.3288609" lon="11.4723632"><ele>366.0</ele><time>2026-04-04T07:28:07.227Z</time></trkpt><trkpt lat="44.3289381" lon="11.4723519"><ele>366.0</ele><time>2026-04-04T07:28:08.227Z</time></trkpt><trkpt lat="44.3290209" lon="11.4723341"><ele>366.0</ele><time>2026-04-04T07:28:09.227Z</time></trkpt><trkpt lat="44.3290975" lon="11.4723092"><ele>366.0</ele><time>2026-04-04T07:28:10.227Z</time></trkpt><trkpt lat="44.3291707" lon="11.4722722"><ele>366.0</ele><time>2026-04-04T07:28:11.226Z</time></trkpt><trkpt lat="44.3292469" lon="11.4722174"><ele>364.0</ele><time>2026-04-04T07:28:12.227Z</time></trkpt><trkpt lat="44.3293123" lon="11.4721665"><ele>362.0</ele><time>2026-04-04T07:28:13.226Z</time></trkpt><trkpt lat="44.3293757" lon="11.472133"><ele>360.0</ele><time>2026-04-04T07:28:14.227Z</time></trkpt><trkpt lat="44.3295036" lon="11.4720914"><ele>358.0</ele><time>2026-04-04T07:28:16.227Z</time></trkpt><trkpt lat="44.3295824" lon="11.472074"><ele>356.0</ele><time>2026-04-04T07:28:17.227Z</time></trkpt><trkpt lat="44.3296606" lon="11.4720577"><ele>354.0</ele><time>2026-04-04T07:28:18.227Z</time></trkpt><trkpt lat="44.329776" lon="11.4720634"><ele>352.6666666666667</ele><time>2026-04-04T07:28:20.226Z</time></trkpt><trkpt lat="44.3298405" lon="11.4720783"><ele>351.3333333333333</ele><time>2026-04-04T07:28:21.227Z</time></trkpt><trkpt lat="44.3299117" lon="11.4720933"><ele>350.0</ele><time>2026-04-04T07:28:22.227Z</time></trkpt><trkpt lat="44.329985" lon="11.47209"><ele>348.66666666666663</ele><time>2026-04-04T07:28:23.226Z</time></trkpt><trkpt lat="44.3300683" lon="11.4720717"><ele>347.3333333333333</ele><time>2026-04-04T07:28:24.227Z</time></trkpt><trkpt lat="44.3301633" lon="11.4720533"><ele>346.0</ele><time>2026-04-04T07:28:25.226Z</time></trkpt><trkpt lat="44.3302583" lon="11.4720333"><ele>346.0</ele><time>2026-04-04T07:28:26.227Z</time></trkpt><trkpt lat="44.3303483" lon="11.4720283"><ele>346.0</ele><time>2026-04-04T07:28:27.227Z</time></trkpt><trkpt lat="44.330435" lon="11.472025"><ele>346.0</ele><time>2026-04-04T07:28:28.226Z</time></trkpt><trkpt lat="44.3305067" lon="11.4720183"><ele>346.0</ele><time>2026-04-04T07:28:29.227Z</time></trkpt><trkpt lat="44.3305933" lon="11.4720067"><ele>346.0</ele><time>2026-04-04T07:28:31.227Z</time></trkpt><trkpt lat="44.330655" lon="11.471935"><ele>346.0</ele><time>2026-04-04T07:28:33.227Z</time></trkpt><trkpt lat="44.330695" lon="11.471865"><ele>347.16666666666663</ele><time>2026-04-04T07:28:34.227Z</time></trkpt><trkpt lat="44.3307483" lon="11.4717933"><ele>348.3333333333333</ele><time>2026-04-04T07:28:35.226Z</time></trkpt><trkpt lat="44.3308067" lon="11.4717067"><ele>349.5</ele><time>2026-04-04T07:28:36.227Z</time></trkpt><trkpt lat="44.3308567" lon="11.4716167"><ele>350.6666666666667</ele><time>2026-04-04T07:28:37.226Z</time></trkpt><trkpt lat="44.3308967" lon="11.4715133"><ele>351.83333333333337</ele><time>2026-04-04T07:28:38.227Z</time></trkpt><trkpt lat="44.33092" lon="11.4714033"><ele>353.0</ele><time>2026-04-04T07:28:39.226Z</time></trkpt><trkpt lat="44.3309383" lon="11.4712733"><ele>353.0</ele><time>2026-04-04T07:28:40.227Z</time></trkpt><trkpt lat="44.330955" lon="11.4711683"><ele>353.0</ele><time>2026-04-04T07:28:41.227Z</time></trkpt><trkpt lat="44.330975" lon="11.4710783"><ele>353.0</ele><time>2026-04-04T07:28:42.227Z</time></trkpt><trkpt lat="44.3309983" lon="11.470985"><ele>353.0</ele><time>2026-04-04T07:28:43.227Z</time></trkpt><trkpt lat="44.3310333" lon="11.470885"><ele>353.0</ele><time>2026-04-04T07:28:44.227Z</time></trkpt><trkpt lat="44.3310633" lon="11.470795"><ele>353.0</ele><time>2026-04-04T07:28:45.227Z</time></trkpt><trkpt lat="44.331105" lon="11.4707033"><ele>353.0</ele><time>2026-04-04T07:28:46.226Z</time></trkpt><trkpt lat="44.3311567" lon="11.470615"><ele>353.0</ele><time>2026-04-04T07:28:47.226Z</time></trkpt><trkpt lat="44.3312117" lon="11.4705433"><ele>353.0</ele><time>2026-04-04T07:28:48.226Z</time></trkpt><trkpt lat="44.3312667" lon="11.47048"><ele>353.0</ele><time>2026-04-04T07:28:49.226Z</time></trkpt><trkpt lat="44.3313283" lon="11.4704233"><ele>353.0</ele><time>2026-04-04T07:28:50.227Z</time></trkpt><trkpt lat="44.3313917" lon="11.470395"><ele>353.0</ele><time>2026-04-04T07:28:51.227Z</time></trkpt><trkpt lat="44.3314667" lon="11.47036"><ele>353.0</ele><time>2026-04-04T07:28:52.226Z</time></trkpt><trkpt lat="44.3315317" lon="11.4703167"><ele>353.0</ele><time>2026-04-04T07:28:53.227Z</time></trkpt><trkpt lat="44.3316033" lon="11.470255"><ele>354.5</ele><time>2026-04-04T07:28:54.226Z</time></trkpt><trkpt lat="44.331665" lon="11.4701933"><ele>356.0</ele><time>2026-04-04T07:28:55.227Z</time></trkpt><trkpt lat="44.3317283" lon="11.4701333"><ele>357.5</ele><time>2026-04-04T07:28:56.227Z</time></trkpt><trkpt lat="44.3318" lon="11.4700883"><ele>359.0</ele><time>2026-04-04T07:28:57.226Z</time></trkpt><trkpt lat="44.33187" lon="11.4700283"><ele>360.5</ele><time>2026-04-04T07:28:58.227Z</time></trkpt><trkpt lat="44.3319417" lon="11.469965"><ele>362.0</ele><time>2026-04-04T07:28:59.226Z</time></trkpt><trkpt lat="44.3320083" lon="11.469915"><ele>362.0</ele><time>2026-04-04T07:29:00.227Z</time></trkpt><trkpt lat="44.3320783" lon="11.46986"><ele>362.0</ele><time>2026-04-04T07:29:01.227Z</time></trkpt><trkpt lat="44.3321433" lon="11.4698283"><ele>362.0</ele><time>2026-04-04T07:29:02.226Z</time></trkpt><trkpt lat="44.33224" lon="11.4697367"><ele>362.0</ele><time>2026-04-04T07:29:04.227Z</time></trkpt><trkpt lat="44.3322783" lon="11.469635"><ele>362.0</ele><time>2026-04-04T07:29:06.226Z</time></trkpt><trkpt lat="44.33223" lon="11.469565"><ele>362.0</ele><time>2026-04-04T07:29:08.227Z</time></trkpt><trkpt lat="44.3321317" lon="11.469545"><ele>358.0</ele><time>2026-04-04T07:29:10.227Z</time></trkpt><trkpt lat="44.332065" lon="11.4695283"><ele>354.0</ele><time>2026-04-04T07:29:11.226Z</time></trkpt><trkpt lat="44.3319967" lon="11.4695117"><ele>350.0</ele><time>2026-04-04T07:29:12.226Z</time></trkpt><trkpt lat="44.33193" lon="11.4694867"><ele>346.0</ele><time>2026-04-04T07:29:13.227Z</time></trkpt><trkpt lat="44.33187" lon="11.4694533"><ele>342.0</ele><time>2026-04-04T07:29:14.227Z</time></trkpt><trkpt lat="44.33181" lon="11.4694017"><ele>338.0</ele><time>2026-04-04T07:29:15.227Z</time></trkpt><trkpt lat="44.3317567" lon="11.46934"><ele>334.0</ele><time>2026-04-04T07:29:16.226Z</time></trkpt><trkpt lat="44.3317017" lon="11.4692783"><ele>334.0</ele><time>2026-04-04T07:29:17.227Z</time></trkpt><trkpt lat="44.331645" lon="11.469205"><ele>334.0</ele><time>2026-04-04T07:29:18.227Z</time></trkpt><trkpt lat="44.3315983" lon="11.469115"><ele>334.0</ele><time>2026-04-04T07:29:19.226Z</time></trkpt><trkpt lat="44.3315517" lon="11.4690183"><ele>334.0</ele><time>2026-04-04T07:29:20.227Z</time></trkpt><trkpt lat="44.3315133" lon="11.468925"><ele>334.0</ele><time>2026-04-04T07:29:21.227Z</time></trkpt><trkpt lat="44.3314717" lon="11.46883"><ele>334.0</ele><time>2026-04-04T07:29:22.227Z</time></trkpt><trkpt lat="44.331425" lon="11.4687333"><ele>329.2</ele><time>2026-04-04T07:29:23.227Z</time></trkpt><trkpt lat="44.3313733" lon="11.4686283"><ele>324.4</ele><time>2026-04-04T07:29:24.227Z</time></trkpt><trkpt lat="44.33131" lon="11.468505"><ele>319.6</ele><time>2026-04-04T07:29:25.227Z</time></trkpt><trkpt lat="44.3312417" lon="11.4683883"><ele>314.8</ele><time>2026-04-04T07:29:26.227Z</time></trkpt><trkpt lat="44.3311733" lon="11.4682833"><ele>310.0</ele><time>2026-04-04T07:29:27.226Z</time></trkpt><trkpt lat="44.331105" lon="11.4681817"><ele>310.0</ele><time>2026-04-04T07:29:28.227Z</time></trkpt><trkpt lat="44.33104" lon="11.4680833"><ele>310.0</ele><time>2026-04-04T07:29:29.226Z</time></trkpt><trkpt lat="44.33098" lon="11.4680033"><ele>310.0</ele><time>2026-04-04T07:29:30.226Z</time></trkpt><trkpt lat="44.3309233" lon="11.46793"><ele>310.0</ele><time>2026-04-04T07:29:31.227Z</time></trkpt><trkpt lat="44.3308717" lon="11.46784"><ele>310.0</ele><time>2026-04-04T07:29:32.227Z</time></trkpt><trkpt lat="44.3308317" lon="11.46772"><ele>310.0</ele><time>2026-04-04T07:29:33.227Z</time></trkpt><trkpt lat="44.3307867" lon="11.4676133"><ele>307.8</ele><time>2026-04-04T07:29:34.226Z</time></trkpt><trkpt lat="44.3307383" lon="11.4675183"><ele>305.6</ele><time>2026-04-04T07:29:35.226Z</time></trkpt><trkpt lat="44.330685" lon="11.4674217"><ele>303.4</ele><time>2026-04-04T07:29:36.226Z</time></trkpt><trkpt lat="44.3306183" lon="11.4673483"><ele>301.2</ele><time>2026-04-04T07:29:37.226Z</time></trkpt><trkpt lat="44.3305333" lon="11.4672817"><ele>299.0</ele><time>2026-04-04T07:29:38.227Z</time></trkpt><trkpt lat="44.33044" lon="11.4672133"><ele>297.1666666666667</ele><time>2026-04-04T07:29:39.227Z</time></trkpt><trkpt lat="44.3303517" lon="11.4671517"><ele>295.33333333333337</ele><time>2026-04-04T07:29:40.227Z</time></trkpt><trkpt lat="44.33028" lon="11.467085"><ele>293.5</ele><time>2026-04-04T07:29:41.226Z</time></trkpt><trkpt lat="44.3302167" lon="11.4670083"><ele>291.6666666666667</ele><time>2026-04-04T07:29:42.226Z</time></trkpt><trkpt lat="44.3301583" lon="11.4669217"><ele>289.8333333333333</ele><time>2026-04-04T07:29:43.226Z</time></trkpt><trkpt lat="44.3301067" lon="11.466815"><ele>288.0</ele><time>2026-04-04T07:29:44.227Z</time></trkpt><trkpt lat="44.3300633" lon="11.4667083"><ele>286.1666666666667</ele><time>2026-04-04T07:29:45.227Z</time></trkpt><trkpt lat="44.3300383" lon="11.4665967"><ele>284.3333333333333</ele><time>2026-04-04T07:29:46.227Z</time></trkpt><trkpt lat="44.330025" lon="11.4664833"><ele>282.5</ele><time>2026-04-04T07:29:47.226Z</time></trkpt><trkpt lat="44.3300233" lon="11.4663583"><ele>280.66666666666663</ele><time>2026-04-04T07:29:48.227Z</time></trkpt><trkpt lat="44.3300267" lon="11.4662417"><ele>278.8333333333333</ele><time>2026-04-04T07:29:49.227Z</time></trkpt><trkpt lat="44.330035" lon="11.466125"><ele>277.0</ele><time>2026-04-04T07:29:50.226Z</time></trkpt><trkpt lat="44.330045" lon="11.4660133"><ele>275.0</ele><time>2026-04-04T07:29:51.226Z</time></trkpt><trkpt lat="44.33004" lon="11.4659117"><ele>273.0</ele><time>2026-04-04T07:29:52.226Z</time></trkpt><trkpt lat="44.3300317" lon="11.4658017"><ele>271.0</ele><time>2026-04-04T07:29:53.226Z</time></trkpt><trkpt lat="44.3300217" lon="11.4656967"><ele>269.0</ele><time>2026-04-04T07:29:54.227Z</time></trkpt><trkpt lat="44.330005" lon="11.4656017"><ele>267.0</ele><time>2026-04-04T07:29:55.227Z</time></trkpt><trkpt lat="44.3299917" lon="11.4654983"><ele>265.0</ele><time>2026-04-04T07:29:56.226Z</time></trkpt><trkpt lat="44.3299783" lon="11.465375"><ele>262.8</ele><time>2026-04-04T07:29:57.226Z</time></trkpt><trkpt lat="44.32996" lon="11.4652317"><ele>260.6</ele><time>2026-04-04T07:29:58.226Z</time></trkpt><trkpt lat="44.32995" lon="11.4650833"><ele>258.4</ele><time>2026-04-04T07:29:59.226Z</time></trkpt><trkpt lat="44.3299517" lon="11.4649333"><ele>256.2</ele><time>2026-04-04T07:30:00.227Z</time></trkpt><trkpt lat="44.3299517" lon="11.4647967"><ele>254.0</ele><time>2026-04-04T07:30:01.226Z</time></trkpt><trkpt lat="44.3299567" lon="11.4646733"><ele>252.33333333333334</ele><time>2026-04-04T07:30:02.227Z</time></trkpt><trkpt lat="44.3299483" lon="11.4645683"><ele>250.66666666666669</ele><time>2026-04-04T07:30:03.226Z</time></trkpt><trkpt lat="44.3299267" lon="11.4644833"><ele>249.0</ele><time>2026-04-04T07:30:04.226Z</time></trkpt><trkpt lat="44.3298783" lon="11.4643517"><ele>247.33333333333331</ele><time>2026-04-04T07:30:06.227Z</time></trkpt><trkpt lat="44.3299217" lon="11.4642633"><ele>245.66666666666666</ele><time>2026-04-04T07:30:08.226Z</time></trkpt><trkpt lat="44.329985" lon="11.4642417"><ele>244.0</ele><time>2026-04-04T07:30:09.227Z</time></trkpt><trkpt lat="44.330055" lon="11.4642283"><ele>244.0</ele><time>2026-04-04T07:30:10.226Z</time></trkpt><trkpt lat="44.3301617" lon="11.464165"><ele>243.99999999999997</ele><time>2026-04-04T07:30:12.227Z</time></trkpt><trkpt lat="44.33021" lon="11.4640933"><ele>243.99999999999997</ele><time>2026-04-04T07:30:13.227Z</time></trkpt><trkpt lat="44.33025" lon="11.4639933"><ele>244.0</ele><time>2026-04-04T07:30:14.226Z</time></trkpt><trkpt lat="44.3302683" lon="11.463865"><ele>244.0</ele><time>2026-04-04T07:30:15.227Z</time></trkpt><trkpt lat="44.3302833" lon="11.46374"><ele>241.99999999999997</ele><time>2026-04-04T07:30:16.226Z</time></trkpt><trkpt lat="44.330285" lon="11.46363"><ele>240.0</ele><time>2026-04-04T07:30:17.226Z</time></trkpt><trkpt lat="44.3302633" lon="11.463525"><ele>238.0</ele><time>2026-04-04T07:30:18.227Z</time></trkpt><trkpt lat="44.330235" lon="11.4634167"><ele>236.0</ele><time>2026-04-04T07:30:19.226Z</time></trkpt><trkpt lat="44.33018" lon="11.4633133"><ele>233.99999999999997</ele><time>2026-04-04T07:30:20.227Z</time></trkpt><trkpt lat="44.3301167" lon="11.46322"><ele>232.0</ele><time>2026-04-04T07:30:21.227Z</time></trkpt><trkpt lat="44.3300483" lon="11.4631433"><ele>231.99999999999997</ele><time>2026-04-04T07:30:22.226Z</time></trkpt><trkpt lat="44.3299783" lon="11.4630767"><ele>232.0</ele><time>2026-04-04T07:30:23.226Z</time></trkpt><trkpt lat="44.3299117" lon="11.4630033"><ele>232.0</ele><time>2026-04-04T07:30:24.226Z</time></trkpt><trkpt lat="44.3298383" lon="11.4629317"><ele>232.0</ele><time>2026-04-04T07:30:25.227Z</time></trkpt><trkpt lat="44.3297583" lon="11.4628833"><ele>231.99999999999997</ele><time>2026-04-04T07:30:26.227Z</time></trkpt><trkpt lat="44.3296783" lon="11.462835"><ele>232.0</ele><time>2026-04-04T07:30:27.227Z</time></trkpt><trkpt lat="44.3296017" lon="11.4627983"><ele>230.16666666666666</ele><time>2026-04-04T07:30:28.227Z</time></trkpt><trkpt lat="44.329525" lon="11.4627683"><ele>228.33333333333331</ele><time>2026-04-04T07:30:29.226Z</time></trkpt><trkpt lat="44.329455" lon="11.462735"><ele>226.5</ele><time>2026-04-04T07:30:30.227Z</time></trkpt><trkpt lat="44.3293933" lon="11.462705"><ele>224.66666666666669</ele><time>2026-04-04T07:30:31.227Z</time></trkpt><trkpt lat="44.3292933" lon="11.4626233"><ele>222.83333333333334</ele><time>2026-04-04T07:30:33.227Z</time></trkpt><trkpt lat="44.3291983" lon="11.4625367"><ele>221.0</ele><time>2026-04-04T07:30:35.226Z</time></trkpt><trkpt lat="44.32909" lon="11.4625117"><ele>221.00000000000003</ele><time>2026-04-04T07:30:37.227Z</time></trkpt><trkpt lat="44.328995" lon="11.4625283"><ele>221.0</ele><time>2026-04-04T07:30:39.227Z</time></trkpt><trkpt lat="44.3289117" lon="11.4625467"><ele>221.0</ele><time>2026-04-04T07:30:41.227Z</time></trkpt><trkpt lat="44.3288183" lon="11.4625333"><ele>221.0</ele><time>2026-04-04T07:30:44.226Z</time></trkpt><trkpt lat="44.3287517" lon="11.462505"><ele>221.00000000000003</ele><time>2026-04-04T07:30:46.226Z</time></trkpt><trkpt lat="44.32866" lon="11.4624633"><ele>221.0</ele><time>2026-04-04T07:30:48.227Z</time></trkpt><trkpt lat="44.3286067" lon="11.4623983"><ele>221.00000000000003</ele><time>2026-04-04T07:30:49.227Z</time></trkpt><trkpt lat="44.3285567" lon="11.4623217"><ele>221.0</ele><time>2026-04-04T07:30:50.227Z</time></trkpt><trkpt lat="44.3284883" lon="11.4622167"><ele>221.0</ele><time>2026-04-04T07:30:52.226Z</time></trkpt><trkpt lat="44.3284867" lon="11.462115"><ele>221.0</ele><time>2026-04-04T07:30:54.227Z</time></trkpt><trkpt lat="44.3285583" lon="11.4620333"><ele>221.00000000000003</ele><time>2026-04-04T07:30:56.226Z</time></trkpt><trkpt lat="44.32863" lon="11.4620133"><ele>221.0</ele><time>2026-04-04T07:30:57.227Z</time></trkpt><trkpt lat="44.328715" lon="11.4619983"><ele>221.0</ele><time>2026-04-04T07:30:58.226Z</time></trkpt><trkpt lat="44.3288117" lon="11.46197"><ele>221.00000000000003</ele><time>2026-04-04T07:30:59.227Z</time></trkpt><trkpt lat="44.328915" lon="11.4619433"><ele>221.00000000000003</ele><time>2026-04-04T07:31:00.227Z</time></trkpt><trkpt lat="44.3290217" lon="11.4619133"><ele>221.0</ele><time>2026-04-04T07:31:01.227Z</time></trkpt><trkpt lat="44.3291267" lon="11.4618767"><ele>221.0</ele><time>2026-04-04T07:31:02.227Z</time></trkpt><trkpt lat="44.32923" lon="11.461845"><ele>221.25</ele><time>2026-04-04T07:31:03.227Z</time></trkpt><trkpt lat="44.3293367" lon="11.461805"><ele>221.5</ele><time>2026-04-04T07:31:04.226Z</time></trkpt><trkpt lat="44.3294417" lon="11.4617417"><ele>221.75</ele><time>2026-04-04T07:31:05.227Z</time></trkpt><trkpt lat="44.3295383" lon="11.4616617"><ele>222.0</ele><time>2026-04-04T07:31:06.226Z</time></trkpt><trkpt lat="44.329635" lon="11.4615633"><ele>222.0</ele><time>2026-04-04T07:31:07.227Z</time></trkpt><trkpt lat="44.3297267" lon="11.4614583"><ele>222.0</ele><time>2026-04-04T07:31:08.227Z</time></trkpt><trkpt lat="44.32982" lon="11.4613433"><ele>222.0</ele><time>2026-04-04T07:31:09.226Z</time></trkpt><trkpt lat="44.3299117" lon="11.4612167"><ele>222.0</ele><time>2026-04-04T07:31:10.227Z</time></trkpt><trkpt lat="44.3300183" lon="11.4611"><ele>222.0</ele><time>2026-04-04T07:31:11.227Z</time></trkpt><trkpt lat="44.3301233" lon="11.4609817"><ele>222.0</ele><time>2026-04-04T07:31:12.227Z</time></trkpt><trkpt lat="44.3302367" lon="11.4608833"><ele>222.0</ele><time>2026-04-04T07:31:13.227Z</time></trkpt><trkpt lat="44.33035" lon="11.4608017"><ele>222.0</ele><time>2026-04-04T07:31:14.227Z</time></trkpt><trkpt lat="44.330465" lon="11.460725"><ele>222.0</ele><time>2026-04-04T07:31:15.227Z</time></trkpt><trkpt lat="44.3305833" lon="11.4606517"><ele>222.0</ele><time>2026-04-04T07:31:16.226Z</time></trkpt><trkpt lat="44.3307" lon="11.460565"><ele>222.0</ele><time>2026-04-04T07:31:17.227Z</time></trkpt><trkpt lat="44.3308167" lon="11.4604967"><ele>222.0</ele><time>2026-04-04T07:31:18.227Z</time></trkpt><trkpt lat="44.330945" lon="11.4604367"><ele>224.25</ele><time>2026-04-04T07:31:19.227Z</time></trkpt><trkpt lat="44.331075" lon="11.460425"><ele>226.5</ele><time>2026-04-04T07:31:20.227Z</time></trkpt><trkpt lat="44.3312067" lon="11.460425"><ele>228.75</ele><time>2026-04-04T07:31:21.226Z</time></trkpt><trkpt lat="44.33135" lon="11.460435"><ele>231.0</ele><time>2026-04-04T07:31:22.226Z</time></trkpt><trkpt lat="44.3314983" lon="11.4604217"><ele>231.0</ele><time>2026-04-04T07:31:23.227Z</time></trkpt><trkpt lat="44.331645" lon="11.460395"><ele>231.0</ele><time>2026-04-04T07:31:24.226Z</time></trkpt><trkpt lat="44.3318033" lon="11.4603683"><ele>231.0</ele><time>2026-04-04T07:31:25.226Z</time></trkpt><trkpt lat="44.3319617" lon="11.4603367"><ele>231.0</ele><time>2026-04-04T07:31:26.226Z</time></trkpt><trkpt lat="44.332115" lon="11.4603133"><ele>231.0</ele><time>2026-04-04T07:31:27.227Z</time></trkpt><trkpt lat="44.3322583" lon="11.4602967"><ele>231.0</ele><time>2026-04-04T07:31:28.227Z</time></trkpt><trkpt lat="44.3323983" lon="11.460285"><ele>231.0</ele><time>2026-04-04T07:31:29.226Z</time></trkpt><trkpt lat="44.3325367" lon="11.46026"><ele>231.5</ele><time>2026-04-04T07:31:30.227Z</time></trkpt><trkpt lat="44.3326717" lon="11.4602383"><ele>232.0</ele><time>2026-04-04T07:31:31.226Z</time></trkpt><trkpt lat="44.3327967" lon="11.4602117"><ele>232.5</ele><time>2026-04-04T07:31:32.227Z</time></trkpt><trkpt lat="44.33292" lon="11.4601733"><ele>233.0</ele><time>2026-04-04T07:31:33.226Z</time></trkpt><trkpt lat="44.3330333" lon="11.460105"><ele>233.5</ele><time>2026-04-04T07:31:34.226Z</time></trkpt><trkpt lat="44.3331383" lon="11.46001"><ele>234.0</ele><time>2026-04-04T07:31:35.227Z</time></trkpt><trkpt lat="44.3332417" lon="11.459895"><ele>234.5</ele><time>2026-04-04T07:31:36.226Z</time></trkpt><trkpt lat="44.33334" lon="11.4597567"><ele>235.0</ele><time>2026-04-04T07:31:37.227Z</time></trkpt><trkpt lat="44.333435" lon="11.4596017"><ele>235.75</ele><time>2026-04-04T07:31:38.227Z</time></trkpt><trkpt lat="44.3335183" lon="11.4594467"><ele>236.5</ele><time>2026-04-04T07:31:39.227Z</time></trkpt><trkpt lat="44.3335917" lon="11.4592717"><ele>237.25</ele><time>2026-04-04T07:31:40.227Z</time></trkpt><trkpt lat="44.3336517" lon="11.4590883"><ele>238.0</ele><time>2026-04-04T07:31:41.226Z</time></trkpt><trkpt lat="44.3337" lon="11.4588783"><ele>239.25</ele><time>2026-04-04T07:31:42.226Z</time></trkpt><trkpt lat="44.333735" lon="11.4586533"><ele>240.5</ele><time>2026-04-04T07:31:43.226Z</time></trkpt><trkpt lat="44.33375" lon="11.4584517"><ele>241.75</ele><time>2026-04-04T07:31:44.227Z</time></trkpt><trkpt lat="44.3337833" lon="11.45827"><ele>243.0</ele><time>2026-04-04T07:31:45.227Z</time></trkpt><trkpt lat="44.3338367" lon="11.4581017"><ele>243.5</ele><time>2026-04-04T07:31:46.227Z</time></trkpt><trkpt lat="44.333915" lon="11.45795"><ele>244.0</ele><time>2026-04-04T07:31:47.226Z</time></trkpt><trkpt lat="44.3339967" lon="11.457795"><ele>244.5</ele><time>2026-04-04T07:31:48.227Z</time></trkpt><trkpt lat="44.3340783" lon="11.45763"><ele>245.0</ele><time>2026-04-04T07:31:49.226Z</time></trkpt><trkpt lat="44.334155" lon="11.4574483"><ele>245.0</ele><time>2026-04-04T07:31:50.227Z</time></trkpt><trkpt lat="44.334225" lon="11.45726"><ele>245.0</ele><time>2026-04-04T07:31:51.226Z</time></trkpt><trkpt lat="44.3342933" lon="11.4570667"><ele>245.0</ele><time>2026-04-04T07:31:52.227Z</time></trkpt><trkpt lat="44.33436" lon="11.456905"><ele>245.0</ele><time>2026-04-04T07:31:53.227Z</time></trkpt><trkpt lat="44.334425" lon="11.456745"><ele>244.75</ele><time>2026-04-04T07:31:54.227Z</time></trkpt><trkpt lat="44.334475" lon="11.4565783"><ele>244.5</ele><time>2026-04-04T07:31:55.226Z</time></trkpt><trkpt lat="44.3344983" lon="11.4564"><ele>244.25</ele><time>2026-04-04T07:31:56.226Z</time></trkpt><trkpt lat="44.3344817" lon="11.4562033"><ele>244.0</ele><time>2026-04-04T07:31:57.227Z</time></trkpt><trkpt lat="44.3344483" lon="11.4560033"><ele>244.0</ele><time>2026-04-04T07:31:58.226Z</time></trkpt><trkpt lat="44.334405" lon="11.455805"><ele>244.0</ele><time>2026-04-04T07:31:59.227Z</time></trkpt><trkpt lat="44.3343667" lon="11.45561"><ele>244.0</ele><time>2026-04-04T07:32:00.227Z</time></trkpt><trkpt lat="44.3343283" lon="11.4554217"><ele>244.0</ele><time>2026-04-04T07:32:01.226Z</time></trkpt><trkpt lat="44.3342917" lon="11.4552333"><ele>246.25</ele><time>2026-04-04T07:32:02.226Z</time></trkpt><trkpt lat="44.3342533" lon="11.4550483"><ele>248.5</ele><time>2026-04-04T07:32:03.227Z</time></trkpt><trkpt lat="44.3342083" lon="11.454875"><ele>250.75</ele><time>2026-04-04T07:32:04.226Z</time></trkpt><trkpt lat="44.33418" lon="11.454725"><ele>253.0</ele><time>2026-04-04T07:32:05.226Z</time></trkpt><trkpt lat="44.334145" lon="11.4546"><ele>254.0</ele><time>2026-04-04T07:32:06.226Z</time></trkpt><trkpt lat="44.3340888" lon="11.4545205"><ele>255.0</ele><time>2026-04-04T07:32:07.226Z</time></trkpt><trkpt lat="44.3340175" lon="11.4544836"><ele>256.0</ele><time>2026-04-04T07:32:08.226Z</time></trkpt><trkpt lat="44.3339305" lon="11.4544779"><ele>257.0</ele><time>2026-04-04T07:32:09.227Z</time></trkpt><trkpt lat="44.3338236" lon="11.4545018"><ele>258.0</ele><time>2026-04-04T07:32:10.226Z</time></trkpt><trkpt lat="44.3337069" lon="11.4545635"><ele>260.25</ele><time>2026-04-04T07:32:11.227Z</time></trkpt><trkpt lat="44.3335913" lon="11.45464"><ele>262.5</ele><time>2026-04-04T07:32:12.227Z</time></trkpt><trkpt lat="44.3334806" lon="11.4547201"><ele>264.75</ele><time>2026-04-04T07:32:13.227Z</time></trkpt><trkpt lat="44.3333818" lon="11.4548033"><ele>267.0</ele><time>2026-04-04T07:32:14.226Z</time></trkpt><trkpt lat="44.3332803" lon="11.4548662"><ele>267.0</ele><time>2026-04-04T07:32:15.227Z</time></trkpt><trkpt lat="44.3331905" lon="11.4548855"><ele>267.0</ele><time>2026-04-04T07:32:16.227Z</time></trkpt><trkpt lat="44.3331095" lon="11.454845"><ele>267.0</ele><time>2026-04-04T07:32:17.227Z</time></trkpt><trkpt lat="44.3330391" lon="11.4547539"><ele>267.0</ele><time>2026-04-04T07:32:18.226Z</time></trkpt><trkpt lat="44.3329989" lon="11.4546313"><ele>267.0</ele><time>2026-04-04T07:32:19.226Z</time></trkpt><trkpt lat="44.3329714" lon="11.4544912"><ele>271.8</ele><time>2026-04-04T07:32:20.226Z</time></trkpt><trkpt lat="44.3329459" lon="11.4543414"><ele>276.6</ele><time>2026-04-04T07:32:21.226Z</time></trkpt><trkpt lat="44.3329111" lon="11.4541962"><ele>281.40000000000003</ele><time>2026-04-04T07:32:22.227Z</time></trkpt><trkpt lat="44.332857" lon="11.4540755"><ele>286.2</ele><time>2026-04-04T07:32:23.227Z</time></trkpt><trkpt lat="44.3327826" lon="11.4540078"><ele>291.0</ele><time>2026-04-04T07:32:24.227Z</time></trkpt><trkpt lat="44.3327055" lon="11.4540139"><ele>291.0</ele><time>2026-04-04T07:32:25.226Z</time></trkpt><trkpt lat="44.3326388" lon="11.4540875"><ele>291.0</ele><time>2026-04-04T07:32:26.227Z</time></trkpt><trkpt lat="44.3325955" lon="11.4541904"><ele>291.0</ele><time>2026-04-04T07:32:27.227Z</time></trkpt><trkpt lat="44.3325687" lon="11.4543147"><ele>291.0</ele><time>2026-04-04T07:32:28.227Z</time></trkpt><trkpt lat="44.3325587" lon="11.4544583"><ele>291.0</ele><time>2026-04-04T07:32:29.226Z</time></trkpt><trkpt lat="44.3325612" lon="11.4546076"><ele>291.1666666666667</ele><time>2026-04-04T07:32:30.227Z</time></trkpt><trkpt lat="44.3325577" lon="11.4547572"><ele>291.3333333333333</ele><time>2026-04-04T07:32:31.227Z</time></trkpt><trkpt lat="44.3325344" lon="11.4548829"><ele>291.5</ele><time>2026-04-04T07:32:32.226Z</time></trkpt><trkpt lat="44.3324912" lon="11.4549652"><ele>291.66666666666663</ele><time>2026-04-04T07:32:33.227Z</time></trkpt><trkpt lat="44.3324244" lon="11.4550029"><ele>291.8333333333333</ele><time>2026-04-04T07:32:34.226Z</time></trkpt><trkpt lat="44.3323476" lon="11.4550017"><ele>292.0</ele><time>2026-04-04T07:32:35.226Z</time></trkpt><trkpt lat="44.3322578" lon="11.4549618"><ele>295.75</ele><time>2026-04-04T07:32:36.227Z</time></trkpt><trkpt lat="44.3321647" lon="11.4548973"><ele>299.5</ele><time>2026-04-04T07:32:37.227Z</time></trkpt><trkpt lat="44.3320589" lon="11.4548142"><ele>303.25</ele><time>2026-04-04T07:32:38.227Z</time></trkpt><trkpt lat="44.3319367" lon="11.4547283"><ele>307.0</ele><time>2026-04-04T07:32:39.227Z</time></trkpt><trkpt lat="44.3318183" lon="11.4546683"><ele>307.0</ele><time>2026-04-04T07:32:40.227Z</time></trkpt><trkpt lat="44.3316817" lon="11.454635"><ele>307.0</ele><time>2026-04-04T07:32:41.227Z</time></trkpt><trkpt lat="44.331545" lon="11.454645"><ele>307.0</ele><time>2026-04-04T07:32:42.227Z</time></trkpt><trkpt lat="44.3314067" lon="11.4546917"><ele>307.0</ele><time>2026-04-04T07:32:43.226Z</time></trkpt><trkpt lat="44.331275" lon="11.4547933"><ele>312.66666666666663</ele><time>2026-04-04T07:32:44.226Z</time></trkpt><trkpt lat="44.3311533" lon="11.4549033"><ele>318.3333333333333</ele><time>2026-04-04T07:32:45.227Z</time></trkpt><trkpt lat="44.3310333" lon="11.4550367"><ele>324.0</ele><time>2026-04-04T07:32:46.227Z</time></trkpt><trkpt lat="44.33092" lon="11.4551817"><ele>324.0</ele><time>2026-04-04T07:32:47.227Z</time></trkpt><trkpt lat="44.3307967" lon="11.45534"><ele>324.0</ele><time>2026-04-04T07:32:48.227Z</time></trkpt><trkpt lat="44.3306817" lon="11.4554917"><ele>324.0</ele><time>2026-04-04T07:32:49.226Z</time></trkpt><trkpt lat="44.3305567" lon="11.4556333"><ele>325.0</ele><time>2026-04-04T07:32:50.227Z</time></trkpt><trkpt lat="44.3304433" lon="11.4557533"><ele>326.0</ele><time>2026-04-04T07:32:51.226Z</time></trkpt><trkpt lat="44.330345" lon="11.4558267"><ele>327.0</ele><time>2026-04-04T07:32:52.227Z</time></trkpt><trkpt lat="44.3302567" lon="11.4558283"><ele>328.0</ele><time>2026-04-04T07:32:53.226Z</time></trkpt><trkpt lat="44.3301833" lon="11.45579"><ele>329.0</ele><time>2026-04-04T07:32:54.227Z</time></trkpt><trkpt lat="44.3301233" lon="11.4557033"><ele>329.0</ele><time>2026-04-04T07:32:55.226Z</time></trkpt><trkpt lat="44.3300883" lon="11.4555817"><ele>329.0</ele><time>2026-04-04T07:32:56.226Z</time></trkpt><trkpt lat="44.3300583" lon="11.45545"><ele>329.0</ele><time>2026-04-04T07:32:57.226Z</time></trkpt><trkpt lat="44.3300333" lon="11.4553083"><ele>329.0</ele><time>2026-04-04T07:32:58.227Z</time></trkpt><trkpt lat="44.3299983" lon="11.4551583"><ele>329.0</ele><time>2026-04-04T07:32:59.226Z</time></trkpt><trkpt lat="44.32995" lon="11.4550017"><ele>331.0</ele><time>2026-04-04T07:33:00.227Z</time></trkpt><trkpt lat="44.3299" lon="11.4548367"><ele>333.0</ele><time>2026-04-04T07:33:01.227Z</time></trkpt><trkpt lat="44.3298317" lon="11.454655"><ele>335.0</ele><time>2026-04-04T07:33:02.227Z</time></trkpt><trkpt lat="44.32975" lon="11.45448"><ele>337.0</ele><time>2026-04-04T07:33:03.227Z</time></trkpt><trkpt lat="44.329675" lon="11.454305"><ele>339.75</ele><time>2026-04-04T07:33:04.226Z</time></trkpt><trkpt lat="44.3295967" lon="11.454125"><ele>342.5</ele><time>2026-04-04T07:33:05.226Z</time></trkpt><trkpt lat="44.3295183" lon="11.4539467"><ele>345.25</ele><time>2026-04-04T07:33:06.227Z</time></trkpt><trkpt lat="44.3294417" lon="11.453775"><ele>348.0</ele><time>2026-04-04T07:33:07.226Z</time></trkpt><trkpt lat="44.32937" lon="11.4536083"><ele>352.0</ele><time>2026-04-04T07:33:08.226Z</time></trkpt><trkpt lat="44.3292867" lon="11.4534417"><ele>356.0</ele><time>2026-04-04T07:33:09.226Z</time></trkpt><trkpt lat="44.3292083" lon="11.45327"><ele>360.0</ele><time>2026-04-04T07:33:10.226Z</time></trkpt><trkpt lat="44.32913" lon="11.4530933"><ele>364.0</ele><time>2026-04-04T07:33:11.226Z</time></trkpt><trkpt lat="44.329055" lon="11.4529117"><ele>365.25</ele><time>2026-04-04T07:33:12.226Z</time></trkpt><trkpt lat="44.32898" lon="11.452725"><ele>366.5</ele><time>2026-04-04T07:33:13.227Z</time></trkpt><trkpt lat="44.3289366" lon="11.4525393"><ele>367.75</ele><time>2026-04-04T07:33:14.227Z</time></trkpt><trkpt lat="44.3289347" lon="11.4523655"><ele>369.0</ele><time>2026-04-04T07:33:15.226Z</time></trkpt><trkpt lat="44.3289669" lon="11.4521958"><ele>370.0</ele><time>2026-04-04T07:33:16.226Z</time></trkpt><trkpt lat="44.3290242" lon="11.4520238"><ele>371.0</ele><time>2026-04-04T07:33:17.226Z</time></trkpt><trkpt lat="44.3290768" lon="11.451853"><ele>372.0</ele><time>2026-04-04T07:33:18.226Z</time></trkpt><trkpt lat="44.3291084" lon="11.4516696"><ele>373.0</ele><time>2026-04-04T07:33:19.227Z</time></trkpt><trkpt lat="44.3290937" lon="11.4514845"><ele>373.0</ele><time>2026-04-04T07:33:20.227Z</time></trkpt><trkpt lat="44.3290482" lon="11.4512957"><ele>373.0</ele><time>2026-04-04T07:33:21.226Z</time></trkpt><trkpt lat="44.328991" lon="11.4511068"><ele>373.0</ele><time>2026-04-04T07:33:22.226Z</time></trkpt><trkpt lat="44.3289317" lon="11.4509095"><ele>373.0</ele><time>2026-04-04T07:33:23.227Z</time></trkpt><trkpt lat="44.3288798" lon="11.4507096"><ele>372.0</ele><time>2026-04-04T07:33:24.226Z</time></trkpt><trkpt lat="44.3288341" lon="11.4504951"><ele>371.0</ele><time>2026-04-04T07:33:25.226Z</time></trkpt><trkpt lat="44.3287865" lon="11.4502833"><ele>370.0</ele><time>2026-04-04T07:33:26.226Z</time></trkpt><trkpt lat="44.3287324" lon="11.450081"><ele>373.25</ele><time>2026-04-04T07:33:27.227Z</time></trkpt><trkpt lat="44.3286754" lon="11.4498867"><ele>376.5</ele><time>2026-04-04T07:33:28.227Z</time></trkpt><trkpt lat="44.3286158" lon="11.4496966"><ele>379.75</ele><time>2026-04-04T07:33:29.227Z</time></trkpt><trkpt lat="44.3285469" lon="11.4495175"><ele>383.0</ele><time>2026-04-04T07:33:30.226Z</time></trkpt><trkpt lat="44.3284691" lon="11.4493657"><ele>386.5</ele><time>2026-04-04T07:33:31.226Z</time></trkpt><trkpt lat="44.3283624" lon="11.4492645"><ele>390.0</ele><time>2026-04-04T07:33:32.227Z</time></trkpt><trkpt lat="44.3282537" lon="11.44919"><ele>393.5</ele><time>2026-04-04T07:33:33.227Z</time></trkpt><trkpt lat="44.3281529" lon="11.4491156"><ele>397.0</ele><time>2026-04-04T07:33:34.226Z</time></trkpt><trkpt lat="44.3280895" lon="11.449008"><ele>397.75</ele><time>2026-04-04T07:33:35.226Z</time></trkpt><trkpt lat="44.3280581" lon="11.4488694"><ele>398.5</ele><time>2026-04-04T07:33:36.227Z</time></trkpt><trkpt lat="44.328046" lon="11.448705"><ele>399.25</ele><time>2026-04-04T07:33:37.226Z</time></trkpt><trkpt lat="44.3280332" lon="11.4485379"><ele>400.0</ele><time>2026-04-04T07:33:38.227Z</time></trkpt><trkpt lat="44.3280167" lon="11.4483714"><ele>400.0</ele><time>2026-04-04T07:33:39.227Z</time></trkpt><trkpt lat="44.3279994" lon="11.4482091"><ele>400.0</ele><time>2026-04-04T07:33:40.226Z</time></trkpt><trkpt lat="44.3279803" lon="11.4480502"><ele>400.0</ele><time>2026-04-04T07:33:41.227Z</time></trkpt><trkpt lat="44.3279702" lon="11.4478835"><ele>400.0</ele><time>2026-04-04T07:33:42.227Z</time></trkpt><trkpt lat="44.3279528" lon="11.4477167"><ele>402.75</ele><time>2026-04-04T07:33:43.226Z</time></trkpt><trkpt lat="44.3279359" lon="11.4475472"><ele>405.5</ele><time>2026-04-04T07:33:44.227Z</time></trkpt><trkpt lat="44.3279068" lon="11.4473807"><ele>408.25</ele><time>2026-04-04T07:33:45.227Z</time></trkpt><trkpt lat="44.3278679" lon="11.4472102"><ele>411.0</ele><time>2026-04-04T07:33:46.226Z</time></trkpt><trkpt lat="44.3278104" lon="11.4470444"><ele>416.66666666666663</ele><time>2026-04-04T07:33:47.227Z</time></trkpt><trkpt lat="44.3277347" lon="11.4468723"><ele>422.3333333333333</ele><time>2026-04-04T07:33:48.227Z</time></trkpt><trkpt lat="44.3276515" lon="11.4466803"><ele>428.0</ele><time>2026-04-04T07:33:49.226Z</time></trkpt><trkpt lat="44.3275751" lon="11.4464841"><ele>433.3333333333333</ele><time>2026-04-04T07:33:50.227Z</time></trkpt><trkpt lat="44.3275018" lon="11.4462733"><ele>438.66666666666663</ele><time>2026-04-04T07:33:51.226Z</time></trkpt><trkpt lat="44.3274253" lon="11.4460667"><ele>444.0</ele><time>2026-04-04T07:33:52.226Z</time></trkpt><trkpt lat="44.3273253" lon="11.4458896"><ele>442.66666666666663</ele><time>2026-04-04T07:33:53.226Z</time></trkpt><trkpt lat="44.3272029" lon="11.4457516"><ele>441.3333333333333</ele><time>2026-04-04T07:33:54.227Z</time></trkpt><trkpt lat="44.3270736" lon="11.445634"><ele>440.0</ele><time>2026-04-04T07:33:55.227Z</time></trkpt><trkpt lat="44.3269511" lon="11.4455071"><ele>445.66666666666663</ele><time>2026-04-04T07:33:56.227Z</time></trkpt><trkpt lat="44.3268487" lon="11.4453509"><ele>451.33333333333337</ele><time>2026-04-04T07:33:57.227Z</time></trkpt><trkpt lat="44.3267662" lon="11.4451682"><ele>457.0</ele><time>2026-04-04T07:33:58.227Z</time></trkpt><trkpt lat="44.3266799" lon="11.444982"><ele>457.0</ele><time>2026-04-04T07:33:59.227Z</time></trkpt><trkpt lat="44.3265748" lon="11.4448062"><ele>457.0</ele><time>2026-04-04T07:34:00.226Z</time></trkpt><trkpt lat="44.3264633" lon="11.4446602"><ele>457.0</ele><time>2026-04-04T07:34:01.227Z</time></trkpt><trkpt lat="44.3263821" lon="11.4445279"><ele>457.0</ele><time>2026-04-04T07:34:02.227Z</time></trkpt><trkpt lat="44.3263296" lon="11.4443812"><ele>457.25</ele><time>2026-04-04T07:34:03.226Z</time></trkpt><trkpt lat="44.3262959" lon="11.4442077"><ele>457.5</ele><time>2026-04-04T07:34:04.227Z</time></trkpt><trkpt lat="44.3262711" lon="11.4440227"><ele>457.75</ele><time>2026-04-04T07:34:05.226Z</time></trkpt><trkpt lat="44.3262432" lon="11.443832"><ele>458.0</ele><time>2026-04-04T07:34:06.227Z</time></trkpt><trkpt lat="44.3262106" lon="11.4436401"><ele>460.75</ele><time>2026-04-04T07:34:07.227Z</time></trkpt><trkpt lat="44.3261714" lon="11.443452"><ele>463.5</ele><time>2026-04-04T07:34:08.227Z</time></trkpt><trkpt lat="44.3261215" lon="11.4432692"><ele>466.25</ele><time>2026-04-04T07:34:09.227Z</time></trkpt><trkpt lat="44.3260668" lon="11.4430893"><ele>469.0</ele><time>2026-04-04T07:34:10.227Z</time></trkpt><trkpt lat="44.3260033" lon="11.4429083"><ele>472.25</ele><time>2026-04-04T07:34:11.227Z</time></trkpt><trkpt lat="44.3259201" lon="11.4427353"><ele>475.5</ele><time>2026-04-04T07:34:12.227Z</time></trkpt><trkpt lat="44.3258187" lon="11.4425844"><ele>478.75</ele><time>2026-04-04T07:34:13.228Z</time></trkpt><trkpt lat="44.3256988" lon="11.4424567"><ele>482.0</ele><time>2026-04-04T07:34:14.227Z</time></trkpt><trkpt lat="44.3255697" lon="11.4423444"><ele>480.66666666666663</ele><time>2026-04-04T07:34:15.228Z</time></trkpt><trkpt lat="44.3254357" lon="11.4422388"><ele>479.33333333333337</ele><time>2026-04-04T07:34:16.228Z</time></trkpt><trkpt lat="44.3252931" lon="11.4421344"><ele>478.0</ele><time>2026-04-04T07:34:17.228Z</time></trkpt><trkpt lat="44.3251476" lon="11.4420288"><ele>482.33333333333337</ele><time>2026-04-04T07:34:18.228Z</time></trkpt><trkpt lat="44.3250058" lon="11.4419146"><ele>486.66666666666663</ele><time>2026-04-04T07:34:19.228Z</time></trkpt><trkpt lat="44.3248673" lon="11.4418061"><ele>491.0</ele><time>2026-04-04T07:34:20.227Z</time></trkpt><trkpt lat="44.3247403" lon="11.4416885"><ele>490.66666666666663</ele><time>2026-04-04T07:34:21.228Z</time></trkpt><trkpt lat="44.3246145" lon="11.4415543"><ele>490.33333333333337</ele><time>2026-04-04T07:34:22.228Z</time></trkpt><trkpt lat="44.3244932" lon="11.4414071"><ele>490.0</ele><time>2026-04-04T07:34:23.228Z</time></trkpt><trkpt lat="44.3243804" lon="11.4412457"><ele>492.0</ele><time>2026-04-04T07:34:24.227Z</time></trkpt><trkpt lat="44.3242787" lon="11.4410712"><ele>494.0</ele><time>2026-04-04T07:34:25.228Z</time></trkpt><trkpt lat="44.3241891" lon="11.4408832"><ele>496.0</ele><time>2026-04-04T07:34:26.228Z</time></trkpt><trkpt lat="44.324101" lon="11.4406862"><ele>496.0</ele><time>2026-04-04T07:34:27.228Z</time></trkpt><trkpt lat="44.3240036" lon="11.4404964"><ele>496.0</ele><time>2026-04-04T07:34:28.228Z</time></trkpt><trkpt lat="44.3239013" lon="11.4403294"><ele>496.0</ele><time>2026-04-04T07:34:29.228Z</time></trkpt><trkpt lat="44.3237888" lon="11.4402025"><ele>497.6666666666667</ele><time>2026-04-04T07:34:30.228Z</time></trkpt><trkpt lat="44.3236557" lon="11.4401186"><ele>499.33333333333337</ele><time>2026-04-04T07:34:31.228Z</time></trkpt><trkpt lat="44.3235042" lon="11.440068"><ele>501.0</ele><time>2026-04-04T07:34:32.228Z</time></trkpt><trkpt lat="44.3233389" lon="11.440035"><ele>501.0</ele><time>2026-04-04T07:34:33.227Z</time></trkpt><trkpt lat="44.3231683" lon="11.4400147"><ele>501.0</ele><time>2026-04-04T07:34:34.227Z</time></trkpt><trkpt lat="44.3229991" lon="11.4399948"><ele>501.0</ele><time>2026-04-04T07:34:35.228Z</time></trkpt><trkpt lat="44.3228372" lon="11.4399705"><ele>502.5</ele><time>2026-04-04T07:34:36.228Z</time></trkpt><trkpt lat="44.3226799" lon="11.4399607"><ele>504.0</ele><time>2026-04-04T07:34:37.228Z</time></trkpt><trkpt lat="44.3225353" lon="11.4399613"><ele>505.5</ele><time>2026-04-04T07:34:38.228Z</time></trkpt><trkpt lat="44.3224234" lon="11.4399577"><ele>507.0</ele><time>2026-04-04T07:34:39.228Z</time></trkpt><trkpt lat="44.3223371" lon="11.4399284"><ele>507.0</ele><time>2026-04-04T07:34:40.228Z</time></trkpt><trkpt lat="44.3222636" lon="11.4398641"><ele>507.00000000000006</ele><time>2026-04-04T07:34:41.228Z</time></trkpt><trkpt lat="44.3222065" lon="11.4397554"><ele>507.00000000000006</ele><time>2026-04-04T07:34:42.227Z</time></trkpt><trkpt lat="44.3221582" lon="11.4396159"><ele>507.0</ele><time>2026-04-04T07:34:43.228Z</time></trkpt><trkpt lat="44.3221049" lon="11.439475"><ele>507.0</ele><time>2026-04-04T07:34:44.227Z</time></trkpt><trkpt lat="44.3220465" lon="11.4393324"><ele>510.5</ele><time>2026-04-04T07:34:45.227Z</time></trkpt><trkpt lat="44.3219695" lon="11.4391978"><ele>514.0</ele><time>2026-04-04T07:34:46.227Z</time></trkpt><trkpt lat="44.3218679" lon="11.4390826"><ele>517.5</ele><time>2026-04-04T07:34:47.228Z</time></trkpt><trkpt lat="44.321751" lon="11.4389815"><ele>521.0</ele><time>2026-04-04T07:34:48.228Z</time></trkpt><trkpt lat="44.3216182" lon="11.4389103"><ele>521.0</ele><time>2026-04-04T07:34:49.228Z</time></trkpt><trkpt lat="44.3214856" lon="11.4388478"><ele>521.0</ele><time>2026-04-04T07:34:50.227Z</time></trkpt><trkpt lat="44.3213655" lon="11.438776"><ele>521.0</ele><time>2026-04-04T07:34:51.228Z</time></trkpt><trkpt lat="44.3212666" lon="11.4386829"><ele>521.0</ele><time>2026-04-04T07:34:52.227Z</time></trkpt><trkpt lat="44.3212022" lon="11.4385583"><ele>521.25</ele><time>2026-04-04T07:34:53.228Z</time></trkpt><trkpt lat="44.3211618" lon="11.4384037"><ele>521.5</ele><time>2026-04-04T07:34:54.228Z</time></trkpt><trkpt lat="44.3211367" lon="11.438215"><ele>521.75</ele><time>2026-04-04T07:34:55.227Z</time></trkpt><trkpt lat="44.3211067" lon="11.4380317"><ele>522.0</ele><time>2026-04-04T07:34:56.228Z</time></trkpt><trkpt lat="44.321065" lon="11.43785"><ele>523.3333333333334</ele><time>2026-04-04T07:34:57.228Z</time></trkpt><trkpt lat="44.3210283" lon="11.4376483"><ele>524.6666666666667</ele><time>2026-04-04T07:34:58.228Z</time></trkpt><trkpt lat="44.320985" lon="11.4374383"><ele>526.0</ele><time>2026-04-04T07:34:59.228Z</time></trkpt><trkpt lat="44.3209417" lon="11.4372283"><ele>527.0</ele><time>2026-04-04T07:35:00.228Z</time></trkpt><trkpt lat="44.3208667" lon="11.4370417"><ele>528.0</ele><time>2026-04-04T07:35:01.228Z</time></trkpt><trkpt lat="44.3207833" lon="11.436845"><ele>529.0</ele><time>2026-04-04T07:35:02.227Z</time></trkpt><trkpt lat="44.3206933" lon="11.4366517"><ele>529.0</ele><time>2026-04-04T07:35:03.227Z</time></trkpt><trkpt lat="44.3206017" lon="11.4364583"><ele>529.0</ele><time>2026-04-04T07:35:04.228Z</time></trkpt><trkpt lat="44.3205117" lon="11.43628"><ele>529.0</ele><time>2026-04-04T07:35:05.228Z</time></trkpt><trkpt lat="44.320435" lon="11.4361183"><ele>529.0</ele><time>2026-04-04T07:35:06.228Z</time></trkpt><trkpt lat="44.3203717" lon="11.43595"><ele>529.0</ele><time>2026-04-04T07:35:07.227Z</time></trkpt><trkpt lat="44.320315" lon="11.4357767"><ele>529.0</ele><time>2026-04-04T07:35:08.228Z</time></trkpt><trkpt lat="44.3202633" lon="11.4355917"><ele>529.0</ele><time>2026-04-04T07:35:09.227Z</time></trkpt><trkpt lat="44.3202167" lon="11.4353767"><ele>529.0</ele><time>2026-04-04T07:35:10.227Z</time></trkpt><trkpt lat="44.3201967" lon="11.4351483"><ele>529.0</ele><time>2026-04-04T07:35:11.228Z</time></trkpt><trkpt lat="44.320175" lon="11.4349167"><ele>529.0</ele><time>2026-04-04T07:35:12.227Z</time></trkpt><trkpt lat="44.320165" lon="11.43469"><ele>529.3333333333334</ele><time>2026-04-04T07:35:13.227Z</time></trkpt><trkpt lat="44.3201733" lon="11.4344517"><ele>529.6666666666666</ele><time>2026-04-04T07:35:14.227Z</time></trkpt><trkpt lat="44.3201767" lon="11.4342267"><ele>530.0</ele><time>2026-04-04T07:35:15.227Z</time></trkpt><trkpt lat="44.3201917" lon="11.4339833"><ele>531.0</ele><time>2026-04-04T07:35:16.228Z</time></trkpt><trkpt lat="44.320185" lon="11.4337417"><ele>532.0</ele><time>2026-04-04T07:35:17.228Z</time></trkpt><trkpt lat="44.3201333" lon="11.433515"><ele>533.0</ele><time>2026-04-04T07:35:18.228Z</time></trkpt><trkpt lat="44.320075" lon="11.4332783"><ele>533.0</ele><time>2026-04-04T07:35:19.227Z</time></trkpt><trkpt lat="44.3200217" lon="11.4330567"><ele>533.0</ele><time>2026-04-04T07:35:20.228Z</time></trkpt><trkpt lat="44.31998" lon="11.4328433"><ele>533.0</ele><time>2026-04-04T07:35:21.228Z</time></trkpt><trkpt lat="44.3199583" lon="11.43265"><ele>534.5</ele><time>2026-04-04T07:35:22.228Z</time></trkpt><trkpt lat="44.3199517" lon="11.43246"><ele>536.0</ele><time>2026-04-04T07:35:23.228Z</time></trkpt><trkpt lat="44.3199517" lon="11.432295"><ele>537.5</ele><time>2026-04-04T07:35:24.228Z</time></trkpt><trkpt lat="44.3199567" lon="11.4321483"><ele>539.0</ele><time>2026-04-04T07:35:25.228Z</time></trkpt><trkpt lat="44.3199533" lon="11.4320167"><ele>540.5</ele><time>2026-04-04T07:35:26.228Z</time></trkpt><trkpt lat="44.3199367" lon="11.4319083"><ele>542.0</ele><time>2026-04-04T07:35:27.227Z</time></trkpt><trkpt lat="44.3199183" lon="11.4318217"><ele>543.5</ele><time>2026-04-04T07:35:28.227Z</time></trkpt><trkpt lat="44.3198767" lon="11.4317483"><ele>545.0</ele><time>2026-04-04T07:35:29.228Z</time></trkpt><trkpt lat="44.3198133" lon="11.4316933"><ele>546.5</ele><time>2026-04-04T07:35:30.228Z</time></trkpt><trkpt lat="44.319725" lon="11.4316617"><ele>548.0</ele><time>2026-04-04T07:35:31.227Z</time></trkpt><trkpt lat="44.3196267" lon="11.4316367"><ele>548.0</ele><time>2026-04-04T07:35:32.227Z</time></trkpt><trkpt lat="44.319515" lon="11.4316133"><ele>548.0</ele><time>2026-04-04T07:35:33.227Z</time></trkpt><trkpt lat="44.3194117" lon="11.4315567"><ele>548.0</ele><time>2026-04-04T07:35:34.227Z</time></trkpt><trkpt lat="44.3193117" lon="11.4314867"><ele>548.0</ele><time>2026-04-04T07:35:35.228Z</time></trkpt><trkpt lat="44.3192" lon="11.4314217"><ele>548.0</ele><time>2026-04-04T07:35:36.228Z</time></trkpt><trkpt lat="44.31909" lon="11.43135"><ele>548.0</ele><time>2026-04-04T07:35:37.228Z</time></trkpt><trkpt lat="44.318975" lon="11.431285"><ele>548.0</ele><time>2026-04-04T07:35:38.228Z</time></trkpt><trkpt lat="44.3188617" lon="11.4312267"><ele>548.0</ele><time>2026-04-04T07:35:39.228Z</time></trkpt><trkpt lat="44.3187667" lon="11.43116"><ele>548.0</ele><time>2026-04-04T07:35:40.227Z</time></trkpt><trkpt lat="44.3186933" lon="11.4310767"><ele>548.0</ele><time>2026-04-04T07:35:41.228Z</time></trkpt><trkpt lat="44.3186433" lon="11.4309517"><ele>548.0</ele><time>2026-04-04T07:35:42.228Z</time></trkpt><trkpt lat="44.3186017" lon="11.43079"><ele>548.0</ele><time>2026-04-04T07:35:43.227Z</time></trkpt><trkpt lat="44.3185783" lon="11.43059"><ele>543.3333333333333</ele><time>2026-04-04T07:35:44.228Z</time></trkpt><trkpt lat="44.318565" lon="11.4303667"><ele>538.6666666666666</ele><time>2026-04-04T07:35:45.227Z</time></trkpt><trkpt lat="44.3185567" lon="11.4301367"><ele>534.0</ele><time>2026-04-04T07:35:46.228Z</time></trkpt><trkpt lat="44.3185667" lon="11.42992"><ele>534.0</ele><time>2026-04-04T07:35:47.228Z</time></trkpt><trkpt lat="44.318565" lon="11.429735"><ele>534.0</ele><time>2026-04-04T07:35:48.228Z</time></trkpt><trkpt lat="44.318565" lon="11.42957"><ele>534.0</ele><time>2026-04-04T07:35:49.228Z</time></trkpt><trkpt lat="44.318535" lon="11.42941"><ele>534.0</ele><time>2026-04-04T07:35:50.227Z</time></trkpt><trkpt lat="44.3184767" lon="11.4292617"><ele>534.75</ele><time>2026-04-04T07:35:51.227Z</time></trkpt><trkpt lat="44.3183967" lon="11.4291267"><ele>535.5</ele><time>2026-04-04T07:35:52.228Z</time></trkpt><trkpt lat="44.3182883" lon="11.428995"><ele>536.25</ele><time>2026-04-04T07:35:53.227Z</time></trkpt><trkpt lat="44.318165" lon="11.428845"><ele>537.0</ele><time>2026-04-04T07:35:54.228Z</time></trkpt><trkpt lat="44.318035" lon="11.4286917"><ele>534.25</ele><time>2026-04-04T07:35:55.227Z</time></trkpt><trkpt lat="44.31791" lon="11.42857"><ele>531.5</ele><time>2026-04-04T07:35:56.228Z</time></trkpt><trkpt lat="44.31779" lon="11.42846"><ele>528.75</ele><time>2026-04-04T07:35:57.227Z</time></trkpt><trkpt lat="44.317665" lon="11.4283783"><ele>526.0</ele><time>2026-04-04T07:35:58.227Z</time></trkpt><trkpt lat="44.3175333" lon="11.4282967"><ele>526.0</ele><time>2026-04-04T07:35:59.228Z</time></trkpt><trkpt lat="44.3174033" lon="11.4282117"><ele>526.0</ele><time>2026-04-04T07:36:00.227Z</time></trkpt><trkpt lat="44.3172767" lon="11.4281233"><ele>526.0</ele><time>2026-04-04T07:36:01.228Z</time></trkpt><trkpt lat="44.3171633" lon="11.42803"><ele>526.0</ele><time>2026-04-04T07:36:02.227Z</time></trkpt><trkpt lat="44.31705" lon="11.4279183"><ele>526.0</ele><time>2026-04-04T07:36:03.228Z</time></trkpt><trkpt lat="44.3169467" lon="11.4277867"><ele>526.0</ele><time>2026-04-04T07:36:04.228Z</time></trkpt><trkpt lat="44.316845" lon="11.42765"><ele>526.0</ele><time>2026-04-04T07:36:05.228Z</time></trkpt><trkpt lat="44.3167317" lon="11.42752"><ele>526.0</ele><time>2026-04-04T07:36:06.227Z</time></trkpt><trkpt lat="44.316605" lon="11.4274"><ele>526.0</ele><time>2026-04-04T07:36:07.228Z</time></trkpt><trkpt lat="44.3164833" lon="11.4272783"><ele>526.0</ele><time>2026-04-04T07:36:08.228Z</time></trkpt><trkpt lat="44.3163633" lon="11.42715"><ele>526.0</ele><time>2026-04-04T07:36:09.228Z</time></trkpt><trkpt lat="44.316245" lon="11.4270167"><ele>526.5</ele><time>2026-04-04T07:36:10.228Z</time></trkpt><trkpt lat="44.316125" lon="11.4268867"><ele>527.0</ele><time>2026-04-04T07:36:11.227Z</time></trkpt><trkpt lat="44.3159983" lon="11.4267733"><ele>527.5</ele><time>2026-04-04T07:36:12.228Z</time></trkpt><trkpt lat="44.31587" lon="11.4266817"><ele>528.0</ele><time>2026-04-04T07:36:13.227Z</time></trkpt><trkpt lat="44.3157383" lon="11.42659"><ele>528.0</ele><time>2026-04-04T07:36:14.228Z</time></trkpt><trkpt lat="44.3156283" lon="11.4265017"><ele>528.0</ele><time>2026-04-04T07:36:15.228Z</time></trkpt><trkpt lat="44.3155333" lon="11.4264233"><ele>528.0</ele><time>2026-04-04T07:36:16.228Z</time></trkpt><trkpt lat="44.3154517" lon="11.4263567"><ele>528.0</ele><time>2026-04-04T07:36:17.227Z</time></trkpt><trkpt lat="44.3153683" lon="11.4263217"><ele>528.0</ele><time>2026-04-04T07:36:18.228Z</time></trkpt><trkpt lat="44.3152983" lon="11.4262867"><ele>530.1666666666666</ele><time>2026-04-04T07:36:19.228Z</time></trkpt><trkpt lat="44.315215" lon="11.426255"><ele>532.3333333333334</ele><time>2026-04-04T07:36:20.227Z</time></trkpt><trkpt lat="44.3151217" lon="11.42623"><ele>534.5</ele><time>2026-04-04T07:36:21.228Z</time></trkpt><trkpt lat="44.3150433" lon="11.4262117"><ele>536.6666666666667</ele><time>2026-04-04T07:36:22.228Z</time></trkpt><trkpt lat="44.314965" lon="11.4261833"><ele>538.8333333333334</ele><time>2026-04-04T07:36:23.227Z</time></trkpt><trkpt lat="44.3148933" lon="11.4261367"><ele>541.0</ele><time>2026-04-04T07:36:24.227Z</time></trkpt><trkpt lat="44.3148317" lon="11.4260933"><ele>541.0</ele><time>2026-04-04T07:36:25.228Z</time></trkpt><trkpt lat="44.3147783" lon="11.4260317"><ele>541.0</ele><time>2026-04-04T07:36:26.228Z</time></trkpt><trkpt lat="44.3147233" lon="11.4259717"><ele>541.0</ele><time>2026-04-04T07:36:27.228Z</time></trkpt><trkpt lat="44.3146717" lon="11.4259083"><ele>541.0</ele><time>2026-04-04T07:36:28.228Z</time></trkpt><trkpt lat="44.314605" lon="11.4258683"><ele>541.0</ele><time>2026-04-04T07:36:29.228Z</time></trkpt><trkpt lat="44.3145267" lon="11.4258367"><ele>541.0</ele><time>2026-04-04T07:36:30.228Z</time></trkpt><trkpt lat="44.31444" lon="11.4258067"><ele>543.75</ele><time>2026-04-04T07:36:31.228Z</time></trkpt><trkpt lat="44.3143467" lon="11.4257917"><ele>546.5</ele><time>2026-04-04T07:36:32.228Z</time></trkpt><trkpt lat="44.3142417" lon="11.42576"><ele>549.25</ele><time>2026-04-04T07:36:33.227Z</time></trkpt><trkpt lat="44.314125" lon="11.4256967"><ele>552.0</ele><time>2026-04-04T07:36:34.228Z</time></trkpt><trkpt lat="44.3140067" lon="11.4256233"><ele>554.5</ele><time>2026-04-04T07:36:35.228Z</time></trkpt><trkpt lat="44.3138883" lon="11.4255567"><ele>557.0</ele><time>2026-04-04T07:36:36.227Z</time></trkpt><trkpt lat="44.3137749" lon="11.425489"><ele>559.5</ele><time>2026-04-04T07:36:37.227Z</time></trkpt><trkpt lat="44.3136671" lon="11.4254203"><ele>562.0</ele><time>2026-04-04T07:36:38.228Z</time></trkpt><trkpt lat="44.3135613" lon="11.4253547"><ele>564.0</ele><time>2026-04-04T07:36:39.228Z</time></trkpt><trkpt lat="44.3134584" lon="11.425302"><ele>566.0</ele><time>2026-04-04T07:36:40.227Z</time></trkpt><trkpt lat="44.3133593" lon="11.4252533"><ele>568.0</ele><time>2026-04-04T07:36:41.227Z</time></trkpt><trkpt lat="44.3132646" lon="11.4252206"><ele>570.0</ele><time>2026-04-04T07:36:42.227Z</time></trkpt><trkpt lat="44.3131778" lon="11.4251922"><ele>572.0</ele><time>2026-04-04T07:36:43.227Z</time></trkpt><trkpt lat="44.3131101" lon="11.4251607"><ele>574.6666666666666</ele><time>2026-04-04T07:36:44.228Z</time></trkpt><trkpt lat="44.3130559" lon="11.4251129"><ele>577.3333333333333</ele><time>2026-04-04T07:36:45.227Z</time></trkpt><trkpt lat="44.3130226" lon="11.4250368"><ele>580.0</ele><time>2026-04-04T07:36:46.227Z</time></trkpt><trkpt lat="44.3129928" lon="11.4249391"><ele>582.6666666666666</ele><time>2026-04-04T07:36:47.228Z</time></trkpt><trkpt lat="44.3129564" lon="11.424837"><ele>585.3333333333334</ele><time>2026-04-04T07:36:48.227Z</time></trkpt><trkpt lat="44.3129054" lon="11.4247393"><ele>588.0</ele><time>2026-04-04T07:36:49.227Z</time></trkpt><trkpt lat="44.3128457" lon="11.4246563"><ele>588.0</ele><time>2026-04-04T07:36:50.228Z</time></trkpt><trkpt lat="44.3127865" lon="11.4246035"><ele>588.0</ele><time>2026-04-04T07:36:51.228Z</time></trkpt><trkpt lat="44.3127231" lon="11.4245821"><ele>588.0</ele><time>2026-04-04T07:36:52.228Z</time></trkpt><trkpt lat="44.3126539" lon="11.4246031"><ele>588.0</ele><time>2026-04-04T07:36:53.228Z</time></trkpt><trkpt lat="44.3125761" lon="11.4246556"><ele>588.0</ele><time>2026-04-04T07:36:54.227Z</time></trkpt><trkpt lat="44.3125058" lon="11.4247117"><ele>588.0</ele><time>2026-04-04T07:36:55.228Z</time></trkpt><trkpt lat="44.3124461" lon="11.424744"><ele>588.0</ele><time>2026-04-04T07:36:56.227Z</time></trkpt><trkpt lat="44.3123566" lon="11.4247183"><ele>586.0</ele><time>2026-04-04T07:36:58.227Z</time></trkpt><trkpt lat="44.3123091" lon="11.4245971"><ele>584.0</ele><time>2026-04-04T07:37:00.227Z</time></trkpt><trkpt lat="44.3122397" lon="11.4244925"><ele>582.0</ele><time>2026-04-04T07:37:02.227Z</time></trkpt><trkpt lat="44.312158" lon="11.4244358"><ele>580.0</ele><time>2026-04-04T07:37:04.227Z</time></trkpt><trkpt lat="44.3120291" lon="11.4244246"><ele>578.0</ele><time>2026-04-04T07:37:06.228Z</time></trkpt><trkpt lat="44.3119604" lon="11.4244311"><ele>575.6</ele><time>2026-04-04T07:37:07.228Z</time></trkpt><trkpt lat="44.3118955" lon="11.4244229"><ele>573.1999999999999</ele><time>2026-04-04T07:37:08.228Z</time></trkpt><trkpt lat="44.31179" lon="11.4243733"><ele>570.8</ele><time>2026-04-04T07:37:10.228Z</time></trkpt><trkpt lat="44.311685" lon="11.4243567"><ele>568.4</ele><time>2026-04-04T07:37:12.228Z</time></trkpt><trkpt lat="44.3115967" lon="11.4243517"><ele>566.0</ele><time>2026-04-04T07:37:14.228Z</time></trkpt><trkpt lat="44.3114967" lon="11.4243833"><ele>566.0</ele><time>2026-04-04T07:37:16.227Z</time></trkpt><trkpt lat="44.3114117" lon="11.4244417"><ele>566.0</ele><time>2026-04-04T07:37:18.228Z</time></trkpt><trkpt lat="44.3112967" lon="11.4244633"><ele>566.0</ele><time>2026-04-04T07:37:20.228Z</time></trkpt><trkpt lat="44.3112233" lon="11.4244483"><ele>566.0</ele><time>2026-04-04T07:37:21.228Z</time></trkpt><trkpt lat="44.3111417" lon="11.4244467"><ele>566.0</ele><time>2026-04-04T07:37:22.227Z</time></trkpt><trkpt lat="44.3110467" lon="11.4244517"><ele>563.4</ele><time>2026-04-04T07:37:23.227Z</time></trkpt><trkpt lat="44.310955" lon="11.424465"><ele>560.8</ele><time>2026-04-04T07:37:24.228Z</time></trkpt><trkpt lat="44.3108683" lon="11.424475"><ele>558.1999999999999</ele><time>2026-04-04T07:37:25.228Z</time></trkpt><trkpt lat="44.3107817" lon="11.424465"><ele>555.6</ele><time>2026-04-04T07:37:26.228Z</time></trkpt><trkpt lat="44.31069" lon="11.4244333"><ele>553.0</ele><time>2026-04-04T07:37:27.228Z</time></trkpt><trkpt lat="44.3106" lon="11.42439"><ele>551.3333333333334</ele><time>2026-04-04T07:37:28.228Z</time></trkpt><trkpt lat="44.3105133" lon="11.4243283"><ele>549.6666666666667</ele><time>2026-04-04T07:37:29.227Z</time></trkpt><trkpt lat="44.3104233" lon="11.424255"><ele>548.0</ele><time>2026-04-04T07:37:30.227Z</time></trkpt><trkpt lat="44.31035" lon="11.4241933"><ele>546.3333333333334</ele><time>2026-04-04T07:37:31.228Z</time></trkpt><trkpt lat="44.310285" lon="11.4241433"><ele>544.6666666666666</ele><time>2026-04-04T07:37:32.228Z</time></trkpt><trkpt lat="44.31021" lon="11.42411"><ele>543.0</ele><time>2026-04-04T07:37:33.228Z</time></trkpt><trkpt lat="44.3101317" lon="11.4240967"><ele>543.0</ele><time>2026-04-04T07:37:34.228Z</time></trkpt><trkpt lat="44.3100567" lon="11.4240967"><ele>543.0</ele><time>2026-04-04T07:37:35.228Z</time></trkpt><trkpt lat="44.3099817" lon="11.42411"><ele>543.0</ele><time>2026-04-04T07:37:36.227Z</time></trkpt><trkpt lat="44.3099133" lon="11.4241333"><ele>543.0</ele><time>2026-04-04T07:37:37.228Z</time></trkpt><trkpt lat="44.3098467" lon="11.424165"><ele>543.0</ele><time>2026-04-04T07:37:38.228Z</time></trkpt><trkpt lat="44.3097867" lon="11.4242017"><ele>543.0</ele><time>2026-04-04T07:37:39.227Z</time></trkpt><trkpt lat="44.3096867" lon="11.4242417"><ele>537.8</ele><time>2026-04-04T07:37:41.228Z</time></trkpt><trkpt lat="44.3096183" lon="11.4242833"><ele>532.5999999999999</ele><time>2026-04-04T07:37:43.227Z</time></trkpt><trkpt lat="44.3095793" lon="11.4244215"><ele>527.4000000000001</ele><time>2026-04-04T07:37:46.228Z</time></trkpt><trkpt lat="44.3095287" lon="11.4245831"><ele>522.2</ele><time>2026-04-04T07:37:48.228Z</time></trkpt><trkpt lat="44.3094758" lon="11.4246969"><ele>517.0</ele><time>2026-04-04T07:37:49.228Z</time></trkpt><trkpt lat="44.3094056" lon="11.4248367"><ele>514.25</ele><time>2026-04-04T07:37:50.228Z</time></trkpt><trkpt lat="44.3093266" lon="11.424975"><ele>511.5</ele><time>2026-04-04T07:37:51.227Z</time></trkpt><trkpt lat="44.3092403" lon="11.4251247"><ele>508.75</ele><time>2026-04-04T07:37:52.228Z</time></trkpt><trkpt lat="44.3091421" lon="11.4252797"><ele>506.0</ele><time>2026-04-04T07:37:53.228Z</time></trkpt><trkpt lat="44.3090346" lon="11.4254485"><ele>503.66666666666663</ele><time>2026-04-04T07:37:54.228Z</time></trkpt><trkpt lat="44.30893" lon="11.4256513"><ele>501.33333333333337</ele><time>2026-04-04T07:37:55.227Z</time></trkpt><trkpt lat="44.3088216" lon="11.4258617"><ele>499.0</ele><time>2026-04-04T07:37:56.228Z</time></trkpt><trkpt lat="44.3087111" lon="11.426051"><ele>497.6666666666667</ele><time>2026-04-04T07:37:57.228Z</time></trkpt><trkpt lat="44.3085892" lon="11.4262248"><ele>496.33333333333337</ele><time>2026-04-04T07:37:58.227Z</time></trkpt><trkpt lat="44.3084497" lon="11.4263776"><ele>495.0</ele><time>2026-04-04T07:37:59.228Z</time></trkpt><trkpt lat="44.3082954" lon="11.4265233"><ele>495.0</ele><time>2026-04-04T07:38:00.228Z</time></trkpt><trkpt lat="44.3081247" lon="11.4266651"><ele>495.0</ele><time>2026-04-04T07:38:01.227Z</time></trkpt><trkpt lat="44.3079632" lon="11.426812"><ele>495.0</ele><time>2026-04-04T07:38:02.228Z</time></trkpt><trkpt lat="44.3078047" lon="11.4269526"><ele>494.0</ele><time>2026-04-04T07:38:03.227Z</time></trkpt><trkpt lat="44.3076381" lon="11.4270582"><ele>493.0</ele><time>2026-04-04T07:38:04.228Z</time></trkpt><trkpt lat="44.3074777" lon="11.4271361"><ele>492.0</ele><time>2026-04-04T07:38:05.228Z</time></trkpt><trkpt lat="44.3073219" lon="11.4271763"><ele>494.0</ele><time>2026-04-04T07:38:06.227Z</time></trkpt><trkpt lat="44.3071627" lon="11.4271805"><ele>496.0</ele><time>2026-04-04T07:38:07.227Z</time></trkpt><trkpt lat="44.3069986" lon="11.4271648"><ele>498.0</ele><time>2026-04-04T07:38:08.228Z</time></trkpt><trkpt lat="44.3068371" lon="11.4271452"><ele>498.0</ele><time>2026-04-04T07:38:09.227Z</time></trkpt><trkpt lat="44.3066801" lon="11.42715"><ele>498.0</ele><time>2026-04-04T07:38:10.228Z</time></trkpt><trkpt lat="44.306521" lon="11.4271788"><ele>498.0</ele><time>2026-04-04T07:38:11.227Z</time></trkpt><trkpt lat="44.3063709" lon="11.427206"><ele>499.5</ele><time>2026-04-04T07:38:12.227Z</time></trkpt><trkpt lat="44.3062344" lon="11.4271977"><ele>501.0</ele><time>2026-04-04T07:38:13.227Z</time></trkpt><trkpt lat="44.3061066" lon="11.4271468"><ele>502.5</ele><time>2026-04-04T07:38:14.227Z</time></trkpt><trkpt lat="44.305989" lon="11.4270543"><ele>504.0</ele><time>2026-04-04T07:38:15.227Z</time></trkpt><trkpt lat="44.3058859" lon="11.426937"><ele>504.25</ele><time>2026-04-04T07:38:16.228Z</time></trkpt><trkpt lat="44.3057845" lon="11.4268377"><ele>504.5</ele><time>2026-04-04T07:38:17.228Z</time></trkpt><trkpt lat="44.3056706" lon="11.4267644"><ele>504.75</ele><time>2026-04-04T07:38:18.227Z</time></trkpt><trkpt lat="44.3055325" lon="11.4267133"><ele>505.0</ele><time>2026-04-04T07:38:19.228Z</time></trkpt><trkpt lat="44.3053776" lon="11.4266889"><ele>508.0</ele><time>2026-04-04T07:38:20.228Z</time></trkpt><trkpt lat="44.305212" lon="11.4266675"><ele>511.0</ele><time>2026-04-04T07:38:21.228Z</time></trkpt><trkpt lat="44.3050423" lon="11.4266285"><ele>514.0</ele><time>2026-04-04T07:38:22.228Z</time></trkpt><trkpt lat="44.3048817" lon="11.426575"><ele>514.0</ele><time>2026-04-04T07:38:23.228Z</time></trkpt><trkpt lat="44.3047517" lon="11.426495"><ele>514.0</ele><time>2026-04-04T07:38:24.227Z</time></trkpt><trkpt lat="44.304635" lon="11.4263917"><ele>514.0</ele><time>2026-04-04T07:38:25.228Z</time></trkpt><trkpt lat="44.3045283" lon="11.4262783"><ele>514.0</ele><time>2026-04-04T07:38:26.228Z</time></trkpt><trkpt lat="44.30442" lon="11.4262017"><ele>514.0</ele><time>2026-04-04T07:38:27.227Z</time></trkpt><trkpt lat="44.304305" lon="11.42618"><ele>514.0</ele><time>2026-04-04T07:38:28.228Z</time></trkpt><trkpt lat="44.30418" lon="11.4261483"><ele>514.0</ele><time>2026-04-04T07:38:29.227Z</time></trkpt><trkpt lat="44.3040517" lon="11.4261133"><ele>514.0</ele><time>2026-04-04T07:38:30.227Z</time></trkpt><trkpt lat="44.30393" lon="11.426085"><ele>511.5</ele><time>2026-04-04T07:38:31.228Z</time></trkpt><trkpt lat="44.303815" lon="11.4260617"><ele>509.0</ele><time>2026-04-04T07:38:32.228Z</time></trkpt><trkpt lat="44.3037033" lon="11.4260617"><ele>506.5</ele><time>2026-04-04T07:38:33.227Z</time></trkpt><trkpt lat="44.3035933" lon="11.426085"><ele>504.0</ele><time>2026-04-04T07:38:34.227Z</time></trkpt><trkpt lat="44.3034783" lon="11.42611"><ele>504.0</ele><time>2026-04-04T07:38:35.228Z</time></trkpt><trkpt lat="44.3033767" lon="11.4261333"><ele>504.0</ele><time>2026-04-04T07:38:36.227Z</time></trkpt><trkpt lat="44.3032817" lon="11.4261317"><ele>504.0</ele><time>2026-04-04T07:38:37.228Z</time></trkpt><trkpt lat="44.303195" lon="11.4260983"><ele>504.0</ele><time>2026-04-04T07:38:38.228Z</time></trkpt><trkpt lat="44.303115" lon="11.42603"><ele>504.0</ele><time>2026-04-04T07:38:39.227Z</time></trkpt><trkpt lat="44.3030433" lon="11.4259367"><ele>500.6</ele><time>2026-04-04T07:38:40.227Z</time></trkpt><trkpt lat="44.302965" lon="11.42584"><ele>497.2</ele><time>2026-04-04T07:38:41.227Z</time></trkpt><trkpt lat="44.3028767" lon="11.4257517"><ele>493.80000000000007</ele><time>2026-04-04T07:38:42.227Z</time></trkpt><trkpt lat="44.3027783" lon="11.4256667"><ele>490.40000000000003</ele><time>2026-04-04T07:38:43.228Z</time></trkpt><trkpt lat="44.3026883" lon="11.42559"><ele>487.0</ele><time>2026-04-04T07:38:44.228Z</time></trkpt><trkpt lat="44.302585" lon="11.4255133"><ele>486.5</ele><time>2026-04-04T07:38:45.227Z</time></trkpt><trkpt lat="44.302475" lon="11.425445"><ele>486.0</ele><time>2026-04-04T07:38:46.228Z</time></trkpt><trkpt lat="44.3023417" lon="11.425375"><ele>485.5</ele><time>2026-04-04T07:38:47.228Z</time></trkpt><trkpt lat="44.30219" lon="11.42533"><ele>485.0</ele><time>2026-04-04T07:38:48.228Z</time></trkpt><trkpt lat="44.3020183" lon="11.42527"><ele>485.0</ele><time>2026-04-04T07:38:49.227Z</time></trkpt><trkpt lat="44.3018483" lon="11.42522"><ele>485.0</ele><time>2026-04-04T07:38:50.227Z</time></trkpt><trkpt lat="44.3016917" lon="11.4251733"><ele>485.0</ele><time>2026-04-04T07:38:51.228Z</time></trkpt><trkpt lat="44.30155" lon="11.42514"><ele>481.0</ele><time>2026-04-04T07:38:52.228Z</time></trkpt><trkpt lat="44.301415" lon="11.4251367"><ele>477.0</ele><time>2026-04-04T07:38:53.228Z</time></trkpt><trkpt lat="44.3013" lon="11.425165"><ele>473.0</ele><time>2026-04-04T07:38:54.227Z</time></trkpt><trkpt lat="44.301195" lon="11.4252233"><ele>469.0</ele><time>2026-04-04T07:38:55.228Z</time></trkpt><trkpt lat="44.301085" lon="11.425275"><ele>469.0</ele><time>2026-04-04T07:38:56.227Z</time></trkpt><trkpt lat="44.3009867" lon="11.4252733"><ele>469.0</ele><time>2026-04-04T07:38:57.228Z</time></trkpt><trkpt lat="44.3008733" lon="11.4252567"><ele>469.0</ele><time>2026-04-04T07:38:58.228Z</time></trkpt><trkpt lat="44.3007383" lon="11.42523"><ele>469.0</ele><time>2026-04-04T07:38:59.227Z</time></trkpt><trkpt lat="44.3005683" lon="11.4251983"><ele>464.6666666666667</ele><time>2026-04-04T07:39:00.228Z</time></trkpt><trkpt lat="44.3003833" lon="11.4251583"><ele>460.33333333333337</ele><time>2026-04-04T07:39:01.228Z</time></trkpt><trkpt lat="44.300205" lon="11.4251033"><ele>456.0</ele><time>2026-04-04T07:39:02.228Z</time></trkpt><trkpt lat="44.3000433" lon="11.4250267"><ele>456.0</ele><time>2026-04-04T07:39:03.227Z</time></trkpt><trkpt lat="44.2998767" lon="11.4249567"><ele>456.0</ele><time>2026-04-04T07:39:04.228Z</time></trkpt><trkpt lat="44.299695" lon="11.424895"><ele>456.0</ele><time>2026-04-04T07:39:05.228Z</time></trkpt><trkpt lat="44.299515" lon="11.4248433"><ele>458.66666666666663</ele><time>2026-04-04T07:39:06.228Z</time></trkpt><trkpt lat="44.2993233" lon="11.4248133"><ele>461.3333333333333</ele><time>2026-04-04T07:39:07.228Z</time></trkpt><trkpt lat="44.2991433" lon="11.4248017"><ele>464.0</ele><time>2026-04-04T07:39:08.227Z</time></trkpt><trkpt lat="44.29898" lon="11.424805"><ele>464.0</ele><time>2026-04-04T07:39:09.228Z</time></trkpt><trkpt lat="44.2988283" lon="11.42481"><ele>464.0</ele><time>2026-04-04T07:39:10.228Z</time></trkpt><trkpt lat="44.29866" lon="11.4247967"><ele>464.0</ele><time>2026-04-04T07:39:11.228Z</time></trkpt><trkpt lat="44.2984783" lon="11.42476"><ele>464.0</ele><time>2026-04-04T07:39:12.228Z</time></trkpt><trkpt lat="44.2982967" lon="11.4247433"><ele>464.0</ele><time>2026-04-04T07:39:13.228Z</time></trkpt><trkpt lat="44.29812" lon="11.4247283"><ele>464.0</ele><time>2026-04-04T07:39:14.228Z</time></trkpt><trkpt lat="44.2979667" lon="11.4247483"><ele>466.5</ele><time>2026-04-04T07:39:15.227Z</time></trkpt><trkpt lat="44.297825" lon="11.4247933"><ele>469.0</ele><time>2026-04-04T07:39:16.228Z</time></trkpt><trkpt lat="44.2976883" lon="11.424895"><ele>471.5</ele><time>2026-04-04T07:39:17.227Z</time></trkpt><trkpt lat="44.2975683" lon="11.4249917"><ele>474.0</ele><time>2026-04-04T07:39:18.228Z</time></trkpt><trkpt lat="44.297465" lon="11.4250333"><ele>474.0</ele><time>2026-04-04T07:39:19.227Z</time></trkpt><trkpt lat="44.297375" lon="11.425025"><ele>474.0</ele><time>2026-04-04T07:39:20.227Z</time></trkpt><trkpt lat="44.29728" lon="11.4250117"><ele>474.0</ele><time>2026-04-04T07:39:21.228Z</time></trkpt><trkpt lat="44.297205" lon="11.424995"><ele>474.0</ele><time>2026-04-04T07:39:22.228Z</time></trkpt><trkpt lat="44.2971367" lon="11.4249983"><ele>474.0</ele><time>2026-04-04T07:39:23.228Z</time></trkpt><trkpt lat="44.2970867" lon="11.425055"><ele>474.0</ele><time>2026-04-04T07:39:24.228Z</time></trkpt><trkpt lat="44.29706" lon="11.4251517"><ele>473.0</ele><time>2026-04-04T07:39:25.227Z</time></trkpt><trkpt lat="44.2970517" lon="11.425275"><ele>472.0</ele><time>2026-04-04T07:39:26.228Z</time></trkpt><trkpt lat="44.29704" lon="11.425405"><ele>471.0</ele><time>2026-04-04T07:39:27.227Z</time></trkpt><trkpt lat="44.29701" lon="11.425535"><ele>470.0</ele><time>2026-04-04T07:39:28.228Z</time></trkpt><trkpt lat="44.2969483" lon="11.4256617"><ele>469.0</ele><time>2026-04-04T07:39:29.228Z</time></trkpt><trkpt lat="44.296865" lon="11.4257717"><ele>471.75</ele><time>2026-04-04T07:39:30.228Z</time></trkpt><trkpt lat="44.2967667" lon="11.4258433"><ele>474.5</ele><time>2026-04-04T07:39:31.227Z</time></trkpt><trkpt lat="44.296645" lon="11.4258933"><ele>477.25</ele><time>2026-04-04T07:39:32.228Z</time></trkpt><trkpt lat="44.2965183" lon="11.4259317"><ele>480.0</ele><time>2026-04-04T07:39:33.227Z</time></trkpt><trkpt lat="44.296375" lon="11.4259633"><ele>481.25</ele><time>2026-04-04T07:39:34.227Z</time></trkpt><trkpt lat="44.2962267" lon="11.425985"><ele>482.5</ele><time>2026-04-04T07:39:35.228Z</time></trkpt><trkpt lat="44.296085" lon="11.4260033"><ele>483.75</ele><time>2026-04-04T07:39:36.228Z</time></trkpt><trkpt lat="44.295935" lon="11.4260267"><ele>485.0</ele><time>2026-04-04T07:39:37.228Z</time></trkpt><trkpt lat="44.2957933" lon="11.4260517"><ele>485.0</ele><time>2026-04-04T07:39:38.227Z</time></trkpt><trkpt lat="44.2956533" lon="11.4260883"><ele>485.0</ele><time>2026-04-04T07:39:39.228Z</time></trkpt><trkpt lat="44.2955167" lon="11.426135"><ele>485.0</ele><time>2026-04-04T07:39:40.228Z</time></trkpt><trkpt lat="44.2953883" lon="11.4261833"><ele>485.0</ele><time>2026-04-04T07:39:41.228Z</time></trkpt><trkpt lat="44.2952767" lon="11.4262033"><ele>487.0</ele><time>2026-04-04T07:39:42.228Z</time></trkpt><trkpt lat="44.295155" lon="11.4261967"><ele>489.0</ele><time>2026-04-04T07:39:43.227Z</time></trkpt><trkpt lat="44.2950367" lon="11.4261817"><ele>491.0</ele><time>2026-04-04T07:39:44.228Z</time></trkpt><trkpt lat="44.294925" lon="11.4261917"><ele>493.0</ele><time>2026-04-04T07:39:45.227Z</time></trkpt><trkpt lat="44.294815" lon="11.4262333"><ele>494.4</ele><time>2026-04-04T07:39:46.228Z</time></trkpt><trkpt lat="44.2947067" lon="11.42628"><ele>495.79999999999995</ele><time>2026-04-04T07:39:47.227Z</time></trkpt><trkpt lat="44.2946017" lon="11.4263017"><ele>497.2</ele><time>2026-04-04T07:39:48.228Z</time></trkpt><trkpt lat="44.2945133" lon="11.4263183"><ele>498.6</ele><time>2026-04-04T07:39:49.228Z</time></trkpt><trkpt lat="44.29445" lon="11.4263567"><ele>500.0</ele><time>2026-04-04T07:39:50.227Z</time></trkpt><trkpt lat="44.2944017" lon="11.4264467"><ele>500.0</ele><time>2026-04-04T07:39:51.228Z</time></trkpt><trkpt lat="44.2943683" lon="11.426565"><ele>500.0</ele><time>2026-04-04T07:39:52.227Z</time></trkpt><trkpt lat="44.2943367" lon="11.42671"><ele>500.0</ele><time>2026-04-04T07:39:53.228Z</time></trkpt><trkpt lat="44.2942917" lon="11.42687"><ele>500.0</ele><time>2026-04-04T07:39:54.227Z</time></trkpt><trkpt lat="44.29425" lon="11.4270367"><ele>500.0</ele><time>2026-04-04T07:39:55.227Z</time></trkpt><trkpt lat="44.2942067" lon="11.4272117"><ele>499.5</ele><time>2026-04-04T07:39:56.228Z</time></trkpt><trkpt lat="44.2941617" lon="11.4273517"><ele>499.0</ele><time>2026-04-04T07:39:57.228Z</time></trkpt><trkpt lat="44.2940917" lon="11.4274583"><ele>498.5</ele><time>2026-04-04T07:39:58.227Z</time></trkpt><trkpt lat="44.2939967" lon="11.4275583"><ele>498.0</ele><time>2026-04-04T07:39:59.227Z</time></trkpt><trkpt lat="44.2938867" lon="11.4276517"><ele>499.75</ele><time>2026-04-04T07:40:00.228Z</time></trkpt><trkpt lat="44.2937817" lon="11.4277367"><ele>501.5</ele><time>2026-04-04T07:40:01.227Z</time></trkpt><trkpt lat="44.293665" lon="11.4278"><ele>503.25</ele><time>2026-04-04T07:40:02.228Z</time></trkpt><trkpt lat="44.2935533" lon="11.4278583"><ele>505.0</ele><time>2026-04-04T07:40:03.228Z</time></trkpt><trkpt lat="44.293455" lon="11.4279217"><ele>502.8</ele><time>2026-04-04T07:40:04.228Z</time></trkpt><trkpt lat="44.2933567" lon="11.4279917"><ele>500.6</ele><time>2026-04-04T07:40:05.228Z</time></trkpt><trkpt lat="44.2932717" lon="11.42806"><ele>498.4</ele><time>2026-04-04T07:40:06.227Z</time></trkpt><trkpt lat="44.2931767" lon="11.42812"><ele>496.2</ele><time>2026-04-04T07:40:07.227Z</time></trkpt><trkpt lat="44.2930783" lon="11.4281567"><ele>494.0</ele><time>2026-04-04T07:40:08.227Z</time></trkpt><trkpt lat="44.2929817" lon="11.4281817"><ele>492.2</ele><time>2026-04-04T07:40:09.227Z</time></trkpt><trkpt lat="44.2928867" lon="11.428185"><ele>490.4</ele><time>2026-04-04T07:40:10.227Z</time></trkpt><trkpt lat="44.2927767" lon="11.4281633"><ele>488.6</ele><time>2026-04-04T07:40:11.228Z</time></trkpt><trkpt lat="44.2926633" lon="11.428135"><ele>486.8</ele><time>2026-04-04T07:40:12.227Z</time></trkpt><trkpt lat="44.2925467" lon="11.4281033"><ele>485.0</ele><time>2026-04-04T07:40:13.228Z</time></trkpt><trkpt lat="44.2924317" lon="11.42807"><ele>485.0</ele><time>2026-04-04T07:40:14.228Z</time></trkpt><trkpt lat="44.2923283" lon="11.4280267"><ele>485.0</ele><time>2026-04-04T07:40:15.228Z</time></trkpt><trkpt lat="44.2922367" lon="11.4279633"><ele>485.0</ele><time>2026-04-04T07:40:16.228Z</time></trkpt><trkpt lat="44.292155" lon="11.4278717"><ele>485.0</ele><time>2026-04-04T07:40:17.228Z</time></trkpt><trkpt lat="44.29208" lon="11.4277433"><ele>485.0</ele><time>2026-04-04T07:40:18.228Z</time></trkpt><trkpt lat="44.2920117" lon="11.4276067"><ele>485.8</ele><time>2026-04-04T07:40:19.228Z</time></trkpt><trkpt lat="44.291935" lon="11.4275"><ele>486.6</ele><time>2026-04-04T07:40:20.228Z</time></trkpt><trkpt lat="44.29185" lon="11.427415"><ele>487.4</ele><time>2026-04-04T07:40:21.228Z</time></trkpt><trkpt lat="44.2917533" lon="11.4273483"><ele>488.2</ele><time>2026-04-04T07:40:22.228Z</time></trkpt><trkpt lat="44.2916483" lon="11.4272883"><ele>489.0</ele><time>2026-04-04T07:40:23.227Z</time></trkpt><trkpt lat="44.2915333" lon="11.4272733"><ele>489.6</ele><time>2026-04-04T07:40:24.227Z</time></trkpt><trkpt lat="44.29142" lon="11.427295"><ele>490.2</ele><time>2026-04-04T07:40:25.227Z</time></trkpt><trkpt lat="44.2913167" lon="11.4273433"><ele>490.80000000000007</ele><time>2026-04-04T07:40:26.227Z</time></trkpt><trkpt lat="44.2912233" lon="11.42742"><ele>491.40000000000003</ele><time>2026-04-04T07:40:27.228Z</time></trkpt><trkpt lat="44.2911367" lon="11.42752"><ele>492.0</ele><time>2026-04-04T07:40:28.227Z</time></trkpt><trkpt lat="44.2910633" lon="11.4276267"><ele>492.0</ele><time>2026-04-04T07:40:29.228Z</time></trkpt><trkpt lat="44.29099" lon="11.4277183"><ele>492.00000000000006</ele><time>2026-04-04T07:40:30.228Z</time></trkpt><trkpt lat="44.2909133" lon="11.4277633"><ele>492.00000000000006</ele><time>2026-04-04T07:40:31.228Z</time></trkpt><trkpt lat="44.29083" lon="11.4277683"><ele>492.0</ele><time>2026-04-04T07:40:32.227Z</time></trkpt><trkpt lat="44.2907283" lon="11.4277283"><ele>492.0</ele><time>2026-04-04T07:40:33.228Z</time></trkpt><trkpt lat="44.29063" lon="11.427655"><ele>493.6</ele><time>2026-04-04T07:40:34.227Z</time></trkpt><trkpt lat="44.2905267" lon="11.4276017"><ele>495.20000000000005</ele><time>2026-04-04T07:40:35.227Z</time></trkpt><trkpt lat="44.2904167" lon="11.42758"><ele>496.8</ele><time>2026-04-04T07:40:36.227Z</time></trkpt><trkpt lat="44.29031" lon="11.427595"><ele>498.4</ele><time>2026-04-04T07:40:37.228Z</time></trkpt><trkpt lat="44.2902167" lon="11.4276633"><ele>500.0</ele><time>2026-04-04T07:40:38.228Z</time></trkpt><trkpt lat="44.2901333" lon="11.42778"><ele>500.0</ele><time>2026-04-04T07:40:39.227Z</time></trkpt><trkpt lat="44.2900567" lon="11.4279033"><ele>500.0</ele><time>2026-04-04T07:40:40.228Z</time></trkpt><trkpt lat="44.289975" lon="11.4279933"><ele>500.0</ele><time>2026-04-04T07:40:41.228Z</time></trkpt><trkpt lat="44.2898867" lon="11.428045"><ele>500.0</ele><time>2026-04-04T07:40:42.228Z</time></trkpt><trkpt lat="44.2897883" lon="11.4280717"><ele>500.0</ele><time>2026-04-04T07:40:43.227Z</time></trkpt><trkpt lat="44.289685" lon="11.4280917"><ele>498.8</ele><time>2026-04-04T07:40:44.228Z</time></trkpt><trkpt lat="44.289575" lon="11.4281233"><ele>497.6</ele><time>2026-04-04T07:40:45.228Z</time></trkpt><trkpt lat="44.2894683" lon="11.42816"><ele>496.4</ele><time>2026-04-04T07:40:46.228Z</time></trkpt><trkpt lat="44.28937" lon="11.428165"><ele>495.2</ele><time>2026-04-04T07:40:47.228Z</time></trkpt><trkpt lat="44.2892617" lon="11.4281333"><ele>494.0</ele><time>2026-04-04T07:40:48.228Z</time></trkpt><trkpt lat="44.28916" lon="11.4280767"><ele>494.0</ele><time>2026-04-04T07:40:49.228Z</time></trkpt><trkpt lat="44.2890567" lon="11.4280283"><ele>494.0</ele><time>2026-04-04T07:40:50.227Z</time></trkpt><trkpt lat="44.2889533" lon="11.4279917"><ele>494.0</ele><time>2026-04-04T07:40:51.228Z</time></trkpt><trkpt lat="44.2888717" lon="11.4279533"><ele>494.0</ele><time>2026-04-04T07:40:52.227Z</time></trkpt><trkpt lat="44.2888033" lon="11.4279067"><ele>494.0</ele><time>2026-04-04T07:40:53.228Z</time></trkpt><trkpt lat="44.2887483" lon="11.4278233"><ele>493.79999999999995</ele><time>2026-04-04T07:40:54.228Z</time></trkpt><trkpt lat="44.2887117" lon="11.4276917"><ele>493.59999999999997</ele><time>2026-04-04T07:40:55.227Z</time></trkpt><trkpt lat="44.288685" lon="11.42754"><ele>493.4</ele><time>2026-04-04T07:40:56.228Z</time></trkpt><trkpt lat="44.28865" lon="11.4273983"><ele>493.2</ele><time>2026-04-04T07:40:57.227Z</time></trkpt><trkpt lat="44.2886033" lon="11.42725"><ele>493.0</ele><time>2026-04-04T07:40:58.228Z</time></trkpt><trkpt lat="44.28853" lon="11.4271317"><ele>495.75</ele><time>2026-04-04T07:40:59.227Z</time></trkpt><trkpt lat="44.2884333" lon="11.4270217"><ele>498.5</ele><time>2026-04-04T07:41:00.227Z</time></trkpt><trkpt lat="44.2883267" lon="11.426905"><ele>501.25</ele><time>2026-04-04T07:41:01.228Z</time></trkpt><trkpt lat="44.288225" lon="11.4268"><ele>504.0</ele><time>2026-04-04T07:41:02.227Z</time></trkpt><trkpt lat="44.2881283" lon="11.4267367"><ele>504.25</ele><time>2026-04-04T07:41:03.227Z</time></trkpt><trkpt lat="44.288015" lon="11.426705"><ele>504.5</ele><time>2026-04-04T07:41:04.227Z</time></trkpt><trkpt lat="44.28789" lon="11.4266867"><ele>504.75</ele><time>2026-04-04T07:41:05.228Z</time></trkpt><trkpt lat="44.2877717" lon="11.4266683"><ele>505.0</ele><time>2026-04-04T07:41:06.228Z</time></trkpt><trkpt lat="44.2876467" lon="11.4266733"><ele>505.0</ele><time>2026-04-04T07:41:07.228Z</time></trkpt><trkpt lat="44.287525" lon="11.4267067"><ele>505.0</ele><time>2026-04-04T07:41:08.227Z</time></trkpt><trkpt lat="44.2874167" lon="11.42675"><ele>505.0</ele><time>2026-04-04T07:41:09.228Z</time></trkpt><trkpt lat="44.2873133" lon="11.4267917"><ele>505.0</ele><time>2026-04-04T07:41:10.227Z</time></trkpt><trkpt lat="44.28721" lon="11.4268233"><ele>503.6</ele><time>2026-04-04T07:41:11.228Z</time></trkpt><trkpt lat="44.2871033" lon="11.4268183"><ele>502.2</ele><time>2026-04-04T07:41:12.228Z</time></trkpt><trkpt lat="44.2869962" lon="11.4267868"><ele>500.79999999999995</ele><time>2026-04-04T07:41:13.228Z</time></trkpt><trkpt lat="44.2868981" lon="11.4267131"><ele>499.4</ele><time>2026-04-04T07:41:14.227Z</time></trkpt><trkpt lat="44.2868082" lon="11.4266058"><ele>498.0</ele><time>2026-04-04T07:41:15.228Z</time></trkpt><trkpt lat="44.2867185" lon="11.4264661"><ele>498.0</ele><time>2026-04-04T07:41:16.228Z</time></trkpt><trkpt lat="44.2866228" lon="11.4263355"><ele>498.0</ele><time>2026-04-04T07:41:17.227Z</time></trkpt><trkpt lat="44.2865233" lon="11.4262404"><ele>498.0</ele><time>2026-04-04T07:41:18.227Z</time></trkpt><trkpt lat="44.2864212" lon="11.4261817"><ele>498.0</ele><time>2026-04-04T07:41:19.227Z</time></trkpt><trkpt lat="44.2863274" lon="11.4261525"><ele>501.5</ele><time>2026-04-04T07:41:20.227Z</time></trkpt><trkpt lat="44.2862259" lon="11.4261474"><ele>505.0</ele><time>2026-04-04T07:41:21.228Z</time></trkpt><trkpt lat="44.2861175" lon="11.4261604"><ele>508.5</ele><time>2026-04-04T07:41:22.227Z</time></trkpt><trkpt lat="44.2860009" lon="11.4261545"><ele>512.0</ele><time>2026-04-04T07:41:23.228Z</time></trkpt><trkpt lat="44.2858745" lon="11.4261139"><ele>512.0</ele><time>2026-04-04T07:41:24.227Z</time></trkpt><trkpt lat="44.28574" lon="11.4260626"><ele>512.0</ele><time>2026-04-04T07:41:25.228Z</time></trkpt><trkpt lat="44.2856122" lon="11.426011"><ele>512.0</ele><time>2026-04-04T07:41:26.228Z</time></trkpt><trkpt lat="44.2854919" lon="11.4259672"><ele>512.0</ele><time>2026-04-04T07:41:27.228Z</time></trkpt><trkpt lat="44.2853814" lon="11.4259252"><ele>512.1666666666666</ele><time>2026-04-04T07:41:28.227Z</time></trkpt><trkpt lat="44.285294" lon="11.4259068"><ele>512.3333333333333</ele><time>2026-04-04T07:41:29.227Z</time></trkpt><trkpt lat="44.285231" lon="11.4259035"><ele>512.5</ele><time>2026-04-04T07:41:30.228Z</time></trkpt><trkpt lat="44.2851577" lon="11.4258755"><ele>512.6666666666666</ele><time>2026-04-04T07:41:32.227Z</time></trkpt><trkpt lat="44.2851289" lon="11.425769"><ele>512.8333333333334</ele><time>2026-04-04T07:41:34.228Z</time></trkpt><trkpt lat="44.2851382" lon="11.425597"><ele>513.0</ele><time>2026-04-04T07:41:36.227Z</time></trkpt><trkpt lat="44.2851285" lon="11.4255033"><ele>515.4</ele><time>2026-04-04T07:41:37.227Z</time></trkpt><trkpt lat="44.2851117" lon="11.4254132"><ele>517.8</ele><time>2026-04-04T07:41:38.228Z</time></trkpt><trkpt lat="44.2850894" lon="11.4252712"><ele>520.2</ele><time>2026-04-04T07:41:40.228Z</time></trkpt><trkpt lat="44.2850699" lon="11.4251368"><ele>522.6</ele><time>2026-04-04T07:41:42.227Z</time></trkpt><trkpt lat="44.2850763" lon="11.4250253"><ele>525.0</ele><time>2026-04-04T07:41:44.228Z</time></trkpt><trkpt lat="44.2851682" lon="11.4249639"><ele>525.0</ele><time>2026-04-04T07:41:46.228Z</time></trkpt><trkpt lat="44.2852502" lon="11.4248961"><ele>525.0</ele><time>2026-04-04T07:41:48.227Z</time></trkpt><trkpt lat="44.2852564" lon="11.4248061"><ele>525.0</ele><time>2026-04-04T07:41:50.227Z</time></trkpt><trkpt lat="44.2852264" lon="11.4246903"><ele>525.0</ele><time>2026-04-04T07:41:52.3Z</time></trkpt><trkpt lat="44.2851629" lon="11.4245957"><ele>525.0</ele><time>2026-04-04T07:41:55.228Z</time></trkpt><trkpt lat="44.2851075" lon="11.4245491"><ele>525.0</ele><time>2026-04-04T07:41:56.227Z</time></trkpt><trkpt lat="44.2850459" lon="11.4245186"><ele>525.3333333333334</ele><time>2026-04-04T07:41:57.228Z</time></trkpt><trkpt lat="44.2849748" lon="11.4245096"><ele>525.6666666666666</ele><time>2026-04-04T07:41:59.228Z</time></trkpt><trkpt lat="44.2848612" lon="11.4245258"><ele>526.0</ele><time>2026-04-04T07:48:36.227Z</time></trkpt><trkpt lat="44.2847872" lon="11.4245234"><ele>526.3333333333333</ele><time>2026-04-04T07:48:37.227Z</time></trkpt><trkpt lat="44.2847047" lon="11.4245201"><ele>526.6666666666666</ele><time>2026-04-04T07:48:38.227Z</time></trkpt><trkpt lat="44.28462" lon="11.4245155"><ele>527.0</ele><time>2026-04-04T07:48:39.227Z</time></trkpt><trkpt lat="44.2845235" lon="11.4245224"><ele>527.0</ele><time>2026-04-04T07:48:40.228Z</time></trkpt><trkpt lat="44.2844193" lon="11.4245364"><ele>527.0</ele><time>2026-04-04T07:48:41.228Z</time></trkpt><trkpt lat="44.2843077" lon="11.4245591"><ele>527.0</ele><time>2026-04-04T07:48:42.227Z</time></trkpt><trkpt lat="44.2841942" lon="11.4245875"><ele>527.0</ele><time>2026-04-04T07:48:43.228Z</time></trkpt><trkpt lat="44.2840837" lon="11.4246265"><ele>527.0</ele><time>2026-04-04T07:48:44.228Z</time></trkpt><trkpt lat="44.283973" lon="11.4246629"><ele>531.5</ele><time>2026-04-04T07:48:45.228Z</time></trkpt><trkpt lat="44.283856" lon="11.4246932"><ele>536.0</ele><time>2026-04-04T07:48:46.227Z</time></trkpt><trkpt lat="44.2837301" lon="11.4247177"><ele>540.5</ele><time>2026-04-04T07:48:47.227Z</time></trkpt><trkpt lat="44.283607" lon="11.4247318"><ele>545.0</ele><time>2026-04-04T07:48:48.228Z</time></trkpt><trkpt lat="44.2834814" lon="11.4247511"><ele>545.0</ele><time>2026-04-04T07:48:49.227Z</time></trkpt><trkpt lat="44.2833552" lon="11.424764"><ele>545.0</ele><time>2026-04-04T07:48:50.228Z</time></trkpt><trkpt lat="44.2832128" lon="11.4247706"><ele>545.0</ele><time>2026-04-04T07:48:51.227Z</time></trkpt><trkpt lat="44.283064" lon="11.4247683"><ele>545.0</ele><time>2026-04-04T07:48:52.228Z</time></trkpt><trkpt lat="44.2829181" lon="11.4247709"><ele>544.0</ele><time>2026-04-04T07:48:53.228Z</time></trkpt><trkpt lat="44.282778" lon="11.4247696"><ele>543.0</ele><time>2026-04-04T07:48:54.227Z</time></trkpt><trkpt lat="44.282666" lon="11.4247439"><ele>542.0</ele><time>2026-04-04T07:48:55.228Z</time></trkpt><trkpt lat="44.2825712" lon="11.4246727"><ele>541.0</ele><time>2026-04-04T07:48:56.227Z</time></trkpt><trkpt lat="44.282466" lon="11.4245981"><ele>541.0</ele><time>2026-04-04T07:48:57.228Z</time></trkpt><trkpt lat="44.2823432" lon="11.4245491"><ele>541.0</ele><time>2026-04-04T07:48:58.228Z</time></trkpt><trkpt lat="44.2822073" lon="11.4245326"><ele>541.0</ele><time>2026-04-04T07:48:59.227Z</time></trkpt><trkpt lat="44.2820769" lon="11.4245205"><ele>541.0</ele><time>2026-04-04T07:49:00.227Z</time></trkpt><trkpt lat="44.2819565" lon="11.4244788"><ele>544.25</ele><time>2026-04-04T07:49:01.227Z</time></trkpt><trkpt lat="44.2818469" lon="11.4243967"><ele>547.5</ele><time>2026-04-04T07:49:02.228Z</time></trkpt><trkpt lat="44.2817449" lon="11.4242833"><ele>550.75</ele><time>2026-04-04T07:49:03.227Z</time></trkpt><trkpt lat="44.2816531" lon="11.4241579"><ele>554.0</ele><time>2026-04-04T07:49:04.228Z</time></trkpt><trkpt lat="44.2815486" lon="11.4240446"><ele>554.0</ele><time>2026-04-04T07:49:05.227Z</time></trkpt><trkpt lat="44.2814345" lon="11.4239483"><ele>554.0</ele><time>2026-04-04T07:49:06.228Z</time></trkpt><trkpt lat="44.2813132" lon="11.4238748"><ele>554.0</ele><time>2026-04-04T07:49:07.228Z</time></trkpt><trkpt lat="44.2811945" lon="11.4238357"><ele>554.0</ele><time>2026-04-04T07:49:08.228Z</time></trkpt><trkpt lat="44.2810748" lon="11.4238492"><ele>555.75</ele><time>2026-04-04T07:49:09.228Z</time></trkpt><trkpt lat="44.2809532" lon="11.4239126"><ele>557.5</ele><time>2026-04-04T07:49:10.228Z</time></trkpt><trkpt lat="44.2808277" lon="11.4239934"><ele>559.25</ele><time>2026-04-04T07:49:11.227Z</time></trkpt><trkpt lat="44.2806894" lon="11.4240568"><ele>561.0</ele><time>2026-04-04T07:49:12.227Z</time></trkpt><trkpt lat="44.2805425" lon="11.4240902"><ele>561.25</ele><time>2026-04-04T07:49:13.228Z</time></trkpt><trkpt lat="44.2803903" lon="11.4241272"><ele>561.5</ele><time>2026-04-04T07:49:14.227Z</time></trkpt><trkpt lat="44.2802513" lon="11.4241999"><ele>561.75</ele><time>2026-04-04T07:49:15.228Z</time></trkpt><trkpt lat="44.2801276" lon="11.4242802"><ele>562.0</ele><time>2026-04-04T07:49:16.227Z</time></trkpt><trkpt lat="44.2800027" lon="11.4243312"><ele>562.0</ele><time>2026-04-04T07:49:17.227Z</time></trkpt><trkpt lat="44.2798745" lon="11.4243473"><ele>562.0</ele><time>2026-04-04T07:49:18.227Z</time></trkpt><trkpt lat="44.2797483" lon="11.4243017"><ele>562.0</ele><time>2026-04-04T07:49:19.227Z</time></trkpt><trkpt lat="44.279635" lon="11.4242033"><ele>562.0</ele><time>2026-04-04T07:49:20.228Z</time></trkpt><trkpt lat="44.2795" lon="11.4241133"><ele>563.25</ele><time>2026-04-04T07:49:21.228Z</time></trkpt><trkpt lat="44.2793667" lon="11.4240717"><ele>564.5</ele><time>2026-04-04T07:49:22.227Z</time></trkpt><trkpt lat="44.2792383" lon="11.4240683"><ele>565.75</ele><time>2026-04-04T07:49:23.228Z</time></trkpt><trkpt lat="44.2791" lon="11.4240533"><ele>567.0</ele><time>2026-04-04T07:49:24.228Z</time></trkpt><trkpt lat="44.2789667" lon="11.424025"><ele>567.75</ele><time>2026-04-04T07:49:25.228Z</time></trkpt><trkpt lat="44.27883" lon="11.4239617"><ele>568.5</ele><time>2026-04-04T07:49:26.228Z</time></trkpt><trkpt lat="44.2787183" lon="11.4238667"><ele>569.25</ele><time>2026-04-04T07:49:27.227Z</time></trkpt><trkpt lat="44.278625" lon="11.4237533"><ele>570.0</ele><time>2026-04-04T07:49:28.228Z</time></trkpt><trkpt lat="44.278545" lon="11.4236183"><ele>570.0</ele><time>2026-04-04T07:49:29.228Z</time></trkpt><trkpt lat="44.2784567" lon="11.423495"><ele>570.0</ele><time>2026-04-04T07:49:30.227Z</time></trkpt><trkpt lat="44.2783417" lon="11.4233967"><ele>570.0</ele><time>2026-04-04T07:49:31.228Z</time></trkpt><trkpt lat="44.2782117" lon="11.423315"><ele>570.0</ele><time>2026-04-04T07:49:32.228Z</time></trkpt><trkpt lat="44.2780717" lon="11.423265"><ele>571.25</ele><time>2026-04-04T07:49:33.228Z</time></trkpt><trkpt lat="44.2779283" lon="11.4232217"><ele>572.5</ele><time>2026-04-04T07:49:34.228Z</time></trkpt><trkpt lat="44.2777883" lon="11.42317"><ele>573.75</ele><time>2026-04-04T07:49:35.227Z</time></trkpt><trkpt lat="44.277645" lon="11.4231033"><ele>575.0</ele><time>2026-04-04T07:49:36.227Z</time></trkpt><trkpt lat="44.2774967" lon="11.42305"><ele>575.0</ele><time>2026-04-04T07:49:37.228Z</time></trkpt><trkpt lat="44.2773417" lon="11.4230183"><ele>575.0</ele><time>2026-04-04T07:49:38.228Z</time></trkpt><trkpt lat="44.27719" lon="11.422995"><ele>575.0</ele><time>2026-04-04T07:49:39.227Z</time></trkpt><trkpt lat="44.2770283" lon="11.422985"><ele>574.0</ele><time>2026-04-04T07:49:40.228Z</time></trkpt><trkpt lat="44.2768783" lon="11.422975"><ele>573.0</ele><time>2026-04-04T07:49:41.227Z</time></trkpt><trkpt lat="44.2767433" lon="11.4229533"><ele>572.0</ele><time>2026-04-04T07:49:42.227Z</time></trkpt><trkpt lat="44.2766167" lon="11.4229117"><ele>571.0</ele><time>2026-04-04T07:49:43.227Z</time></trkpt><trkpt lat="44.2764967" lon="11.4228317"><ele>571.75</ele><time>2026-04-04T07:49:44.228Z</time></trkpt><trkpt lat="44.2763733" lon="11.4227233"><ele>572.5</ele><time>2026-04-04T07:49:45.228Z</time></trkpt><trkpt lat="44.2762533" lon="11.4226167"><ele>573.25</ele><time>2026-04-04T07:49:46.227Z</time></trkpt><trkpt lat="44.2761233" lon="11.4225083"><ele>574.0</ele><time>2026-04-04T07:49:47.227Z</time></trkpt><trkpt lat="44.2759933" lon="11.4224"><ele>574.0</ele><time>2026-04-04T07:49:48.228Z</time></trkpt><trkpt lat="44.2758733" lon="11.42229"><ele>574.0</ele><time>2026-04-04T07:49:49.228Z</time></trkpt><trkpt lat="44.2757683" lon="11.4221667"><ele>574.0</ele><time>2026-04-04T07:49:50.228Z</time></trkpt><trkpt lat="44.2756667" lon="11.4220383"><ele>574.0</ele><time>2026-04-04T07:49:51.228Z</time></trkpt><trkpt lat="44.275575" lon="11.4218867"><ele>576.75</ele><time>2026-04-04T07:49:52.227Z</time></trkpt><trkpt lat="44.2754917" lon="11.4217633"><ele>579.5</ele><time>2026-04-04T07:49:53.228Z</time></trkpt><trkpt lat="44.2753976" lon="11.4216971"><ele>582.25</ele><time>2026-04-04T07:49:54.227Z</time></trkpt><trkpt lat="44.2752843" lon="11.4216712"><ele>585.0</ele><time>2026-04-04T07:49:55.227Z</time></trkpt><trkpt lat="44.2751565" lon="11.4216805"><ele>585.0</ele><time>2026-04-04T07:49:56.228Z</time></trkpt><trkpt lat="44.2750198" lon="11.4217145"><ele>585.0</ele><time>2026-04-04T07:49:57.227Z</time></trkpt><trkpt lat="44.2748798" lon="11.4217612"><ele>585.0</ele><time>2026-04-04T07:49:58.227Z</time></trkpt><trkpt lat="44.2747334" lon="11.4217921"><ele>585.0</ele><time>2026-04-04T07:49:59.227Z</time></trkpt><trkpt lat="44.2745878" lon="11.4218277"><ele>585.3333333333334</ele><time>2026-04-04T07:50:00.227Z</time></trkpt><trkpt lat="44.2744442" lon="11.4218924"><ele>585.6666666666667</ele><time>2026-04-04T07:50:01.228Z</time></trkpt><trkpt lat="44.2743033" lon="11.4219889"><ele>586.0</ele><time>2026-04-04T07:50:02.227Z</time></trkpt><trkpt lat="44.2741622" lon="11.4220768"><ele>586.0</ele><time>2026-04-04T07:50:03.227Z</time></trkpt><trkpt lat="44.2740232" lon="11.4221474"><ele>586.0</ele><time>2026-04-04T07:50:04.227Z</time></trkpt><trkpt lat="44.2738999" lon="11.4221927"><ele>586.0</ele><time>2026-04-04T07:50:05.228Z</time></trkpt><trkpt lat="44.2737885" lon="11.4221973"><ele>586.0</ele><time>2026-04-04T07:50:06.228Z</time></trkpt><trkpt lat="44.2736702" lon="11.4221491"><ele>585.25</ele><time>2026-04-04T07:50:07.228Z</time></trkpt><trkpt lat="44.2735433" lon="11.4220866"><ele>584.5</ele><time>2026-04-04T07:50:08.227Z</time></trkpt><trkpt lat="44.2733996" lon="11.4220457"><ele>583.75</ele><time>2026-04-04T07:50:09.227Z</time></trkpt><trkpt lat="44.273239" lon="11.4220347"><ele>583.0</ele><time>2026-04-04T07:50:10.228Z</time></trkpt><trkpt lat="44.2730738" lon="11.4220312"><ele>583.0</ele><time>2026-04-04T07:50:11.227Z</time></trkpt><trkpt lat="44.2728977" lon="11.4220384"><ele>583.0</ele><time>2026-04-04T07:50:12.228Z</time></trkpt><trkpt lat="44.2727261" lon="11.4220362"><ele>583.0</ele><time>2026-04-04T07:50:13.227Z</time></trkpt><trkpt lat="44.2725545" lon="11.4220367"><ele>583.0</ele><time>2026-04-04T07:50:14.228Z</time></trkpt><trkpt lat="44.2723828" lon="11.4220426"><ele>583.0</ele><time>2026-04-04T07:50:15.228Z</time></trkpt><trkpt lat="44.2722082" lon="11.4220537"><ele>583.0</ele><time>2026-04-04T07:50:16.227Z</time></trkpt><trkpt lat="44.2720371" lon="11.4220749"><ele>583.6666666666667</ele><time>2026-04-04T07:50:17.227Z</time></trkpt><trkpt lat="44.2718649" lon="11.4221141"><ele>584.3333333333334</ele><time>2026-04-04T07:50:18.227Z</time></trkpt><trkpt lat="44.2716862" lon="11.4221646"><ele>585.0</ele><time>2026-04-04T07:50:19.227Z</time></trkpt><trkpt lat="44.2715099" lon="11.4222089"><ele>586.6666666666666</ele><time>2026-04-04T07:50:20.228Z</time></trkpt><trkpt lat="44.2713324" lon="11.422234"><ele>588.3333333333333</ele><time>2026-04-04T07:50:21.227Z</time></trkpt><trkpt lat="44.2711584" lon="11.4222388"><ele>590.0</ele><time>2026-04-04T07:50:22.228Z</time></trkpt><trkpt lat="44.2709765" lon="11.4222316"><ele>590.0</ele><time>2026-04-04T07:50:23.227Z</time></trkpt><trkpt lat="44.2707966" lon="11.4222244"><ele>590.0</ele><time>2026-04-04T07:50:24.227Z</time></trkpt><trkpt lat="44.2706228" lon="11.4222271"><ele>590.0</ele><time>2026-04-04T07:50:25.227Z</time></trkpt><trkpt lat="44.2704555" lon="11.4222388"><ele>591.75</ele><time>2026-04-04T07:50:26.228Z</time></trkpt><trkpt lat="44.2703078" lon="11.4222696"><ele>593.5</ele><time>2026-04-04T07:50:27.228Z</time></trkpt><trkpt lat="44.2701753" lon="11.4223298"><ele>595.25</ele><time>2026-04-04T07:50:28.228Z</time></trkpt><trkpt lat="44.2700528" lon="11.4224026"><ele>597.0</ele><time>2026-04-04T07:50:29.227Z</time></trkpt><trkpt lat="44.2699355" lon="11.4224748"><ele>597.0</ele><time>2026-04-04T07:50:30.227Z</time></trkpt><trkpt lat="44.2698192" lon="11.4225492"><ele>597.0</ele><time>2026-04-04T07:50:31.228Z</time></trkpt><trkpt lat="44.2697221" lon="11.4226398"><ele>597.0</ele><time>2026-04-04T07:50:32.227Z</time></trkpt><trkpt lat="44.2696457" lon="11.4227536"><ele>597.0</ele><time>2026-04-04T07:50:33.227Z</time></trkpt><trkpt lat="44.2695861" lon="11.4228759"><ele>597.6666666666666</ele><time>2026-04-04T07:50:34.228Z</time></trkpt><trkpt lat="44.2695302" lon="11.4229692"><ele>598.3333333333334</ele><time>2026-04-04T07:50:35.228Z</time></trkpt><trkpt lat="44.2694733" lon="11.4230177"><ele>599.0</ele><time>2026-04-04T07:50:36.227Z</time></trkpt><trkpt lat="44.2694018" lon="11.4230356"><ele>599.6666666666667</ele><time>2026-04-04T07:50:37.227Z</time></trkpt><trkpt lat="44.2693165" lon="11.4230182"><ele>600.3333333333334</ele><time>2026-04-04T07:50:38.228Z</time></trkpt><trkpt lat="44.2692245" lon="11.4229859"><ele>601.0</ele><time>2026-04-04T07:50:39.227Z</time></trkpt><trkpt lat="44.2691282" lon="11.4229592"><ele>601.0</ele><time>2026-04-04T07:50:40.228Z</time></trkpt><trkpt lat="44.2690288" lon="11.4229296"><ele>601.0</ele><time>2026-04-04T07:50:41.228Z</time></trkpt><trkpt lat="44.2689203" lon="11.4229085"><ele>601.0</ele><time>2026-04-04T07:50:42.228Z</time></trkpt><trkpt lat="44.2688027" lon="11.4228885"><ele>601.0</ele><time>2026-04-04T07:50:43.227Z</time></trkpt><trkpt lat="44.2686815" lon="11.422878"><ele>602.0</ele><time>2026-04-04T07:50:44.228Z</time></trkpt><trkpt lat="44.2685624" lon="11.4228767"><ele>603.0</ele><time>2026-04-04T07:50:45.228Z</time></trkpt><trkpt lat="44.2684379" lon="11.4228836"><ele>604.0</ele><time>2026-04-04T07:50:46.228Z</time></trkpt><trkpt lat="44.2683069" lon="11.4228936"><ele>605.0</ele><time>2026-04-04T07:50:47.228Z</time></trkpt><trkpt lat="44.2681632" lon="11.4229058"><ele>603.75</ele><time>2026-04-04T07:50:48.228Z</time></trkpt><trkpt lat="44.2680197" lon="11.4229177"><ele>602.5</ele><time>2026-04-04T07:50:49.228Z</time></trkpt><trkpt lat="44.2678755" lon="11.4229368"><ele>601.25</ele><time>2026-04-04T07:50:50.228Z</time></trkpt><trkpt lat="44.2677353" lon="11.4229585"><ele>600.0</ele><time>2026-04-04T07:50:51.227Z</time></trkpt><trkpt lat="44.2675925" lon="11.4229876"><ele>599.75</ele><time>2026-04-04T07:50:52.228Z</time></trkpt><trkpt lat="44.2674491" lon="11.4230436"><ele>599.5</ele><time>2026-04-04T07:50:53.228Z</time></trkpt><trkpt lat="44.2673101" lon="11.4231221"><ele>599.25</ele><time>2026-04-04T07:50:54.228Z</time></trkpt><trkpt lat="44.2671821" lon="11.4232326"><ele>599.0</ele><time>2026-04-04T07:50:55.228Z</time></trkpt><trkpt lat="44.2670557" lon="11.4233616"><ele>600.0</ele><time>2026-04-04T07:50:56.227Z</time></trkpt><trkpt lat="44.2669275" lon="11.4234831"><ele>601.0</ele><time>2026-04-04T07:50:57.228Z</time></trkpt><trkpt lat="44.2667875" lon="11.4235849"><ele>602.0</ele><time>2026-04-04T07:50:58.229Z</time></trkpt><trkpt lat="44.2666381" lon="11.4236565"><ele>602.0</ele><time>2026-04-04T07:50:59.229Z</time></trkpt><trkpt lat="44.2664783" lon="11.4237166"><ele>602.0</ele><time>2026-04-04T07:51:00.229Z</time></trkpt><trkpt lat="44.2663176" lon="11.4237558"><ele>602.0</ele><time>2026-04-04T07:51:01.229Z</time></trkpt><trkpt lat="44.2661442" lon="11.4237688"><ele>603.6666666666666</ele><time>2026-04-04T07:51:02.229Z</time></trkpt><trkpt lat="44.2659719" lon="11.4237693"><ele>605.3333333333334</ele><time>2026-04-04T07:51:03.228Z</time></trkpt><trkpt lat="44.2658022" lon="11.423776"><ele>607.0</ele><time>2026-04-04T07:51:04.228Z</time></trkpt><trkpt lat="44.2656279" lon="11.4237827"><ele>608.6666666666667</ele><time>2026-04-04T07:51:05.229Z</time></trkpt><trkpt lat="44.2654525" lon="11.4237917"><ele>610.3333333333334</ele><time>2026-04-04T07:51:06.229Z</time></trkpt><trkpt lat="44.2652742" lon="11.4238084"><ele>612.0</ele><time>2026-04-04T07:51:07.229Z</time></trkpt><trkpt lat="44.2650991" lon="11.4238205"><ele>614.0</ele><time>2026-04-04T07:51:08.229Z</time></trkpt><trkpt lat="44.2649338" lon="11.4238344"><ele>616.0</ele><time>2026-04-04T07:51:09.229Z</time></trkpt><trkpt lat="44.2647828" lon="11.4238475"><ele>618.0</ele><time>2026-04-04T07:51:10.229Z</time></trkpt><trkpt lat="44.2646532" lon="11.4238591"><ele>620.0</ele><time>2026-04-04T07:51:11.229Z</time></trkpt><trkpt lat="44.2645352" lon="11.4238567"><ele>620.75</ele><time>2026-04-04T07:51:12.228Z</time></trkpt><trkpt lat="44.2644283" lon="11.4238533"><ele>621.5</ele><time>2026-04-04T07:51:13.229Z</time></trkpt><trkpt lat="44.2643201" lon="11.4238559"><ele>622.25</ele><time>2026-04-04T07:51:14.229Z</time></trkpt><trkpt lat="44.2642026" lon="11.4238834"><ele>623.0</ele><time>2026-04-04T07:51:15.229Z</time></trkpt><trkpt lat="44.2640774" lon="11.4239009"><ele>623.0</ele><time>2026-04-04T07:51:16.229Z</time></trkpt><trkpt lat="44.2639485" lon="11.4239095"><ele>623.0</ele><time>2026-04-04T07:51:17.229Z</time></trkpt><trkpt lat="44.2638109" lon="11.4239176"><ele>623.0</ele><time>2026-04-04T07:51:18.228Z</time></trkpt><trkpt lat="44.2636734" lon="11.4239338"><ele>623.0</ele><time>2026-04-04T07:51:19.229Z</time></trkpt><trkpt lat="44.2635332" lon="11.4239583"><ele>625.0</ele><time>2026-04-04T07:51:20.228Z</time></trkpt><trkpt lat="44.2633846" lon="11.424"><ele>627.0</ele><time>2026-04-04T07:51:21.228Z</time></trkpt><trkpt lat="44.2632363" lon="11.4240431"><ele>629.0</ele><time>2026-04-04T07:51:22.228Z</time></trkpt><trkpt lat="44.263087" lon="11.4240822"><ele>631.0</ele><time>2026-04-04T07:51:23.228Z</time></trkpt><trkpt lat="44.2629337" lon="11.4241283"><ele>633.0</ele><time>2026-04-04T07:51:24.229Z</time></trkpt><trkpt lat="44.2627738" lon="11.4241827"><ele>635.0</ele><time>2026-04-04T07:51:25.228Z</time></trkpt><trkpt lat="44.2626217" lon="11.4242355"><ele>635.0</ele><time>2026-04-04T07:51:26.228Z</time></trkpt><trkpt lat="44.2624813" lon="11.4242565"><ele>635.0</ele><time>2026-04-04T07:51:27.229Z</time></trkpt><trkpt lat="44.2623616" lon="11.4242413"><ele>635.0</ele><time>2026-04-04T07:51:28.229Z</time></trkpt><trkpt lat="44.2622561" lon="11.4241869"><ele>635.0</ele><time>2026-04-04T07:51:29.229Z</time></trkpt><trkpt lat="44.2621548" lon="11.4240993"><ele>636.75</ele><time>2026-04-04T07:51:30.229Z</time></trkpt><trkpt lat="44.2620593" lon="11.4239918"><ele>638.5</ele><time>2026-04-04T07:51:31.229Z</time></trkpt><trkpt lat="44.2619546" lon="11.4238828"><ele>640.25</ele><time>2026-04-04T07:51:32.229Z</time></trkpt><trkpt lat="44.2618435" lon="11.4237744"><ele>642.0</ele><time>2026-04-04T07:51:33.229Z</time></trkpt><trkpt lat="44.2617225" lon="11.4236706"><ele>642.3333333333334</ele><time>2026-04-04T07:51:34.229Z</time></trkpt><trkpt lat="44.2615952" lon="11.4235587"><ele>642.6666666666667</ele><time>2026-04-04T07:51:35.228Z</time></trkpt><trkpt lat="44.2614625" lon="11.4234368"><ele>643.0</ele><time>2026-04-04T07:51:36.229Z</time></trkpt><trkpt lat="44.2613239" lon="11.4233109"><ele>646.3333333333334</ele><time>2026-04-04T07:51:37.229Z</time></trkpt><trkpt lat="44.2611824" lon="11.4231823"><ele>649.6666666666666</ele><time>2026-04-04T07:51:38.229Z</time></trkpt><trkpt lat="44.2610403" lon="11.423056"><ele>653.0</ele><time>2026-04-04T07:51:39.229Z</time></trkpt><trkpt lat="44.2609023" lon="11.4229354"><ele>653.0</ele><time>2026-04-04T07:51:40.228Z</time></trkpt><trkpt lat="44.2607619" lon="11.4228468"><ele>653.0</ele><time>2026-04-04T07:51:41.229Z</time></trkpt><trkpt lat="44.2606273" lon="11.4227983"><ele>653.0</ele><time>2026-04-04T07:51:42.229Z</time></trkpt><trkpt lat="44.2604895" lon="11.4227883"><ele>653.0</ele><time>2026-04-04T07:51:43.228Z</time></trkpt><trkpt lat="44.2603396" lon="11.4227958"><ele>655.3333333333333</ele><time>2026-04-04T07:51:44.228Z</time></trkpt><trkpt lat="44.2601813" lon="11.4228119"><ele>657.6666666666666</ele><time>2026-04-04T07:51:45.229Z</time></trkpt><trkpt lat="44.2600231" lon="11.4228234"><ele>660.0</ele><time>2026-04-04T07:51:46.228Z</time></trkpt><trkpt lat="44.2598717" lon="11.4228371"><ele>662.0</ele><time>2026-04-04T07:51:47.228Z</time></trkpt><trkpt lat="44.2597243" lon="11.4228513"><ele>664.0</ele><time>2026-04-04T07:51:48.228Z</time></trkpt><trkpt lat="44.2595709" lon="11.4228576"><ele>666.0</ele><time>2026-04-04T07:51:49.228Z</time></trkpt><trkpt lat="44.2594249" lon="11.4228557"><ele>668.0</ele><time>2026-04-04T07:51:50.229Z</time></trkpt><trkpt lat="44.2592723" lon="11.4228565"><ele>668.0</ele><time>2026-04-04T07:51:51.229Z</time></trkpt><trkpt lat="44.2591194" lon="11.4228601"><ele>668.0</ele><time>2026-04-04T07:51:52.228Z</time></trkpt><trkpt lat="44.2589594" lon="11.4228579"><ele>668.0</ele><time>2026-04-04T07:51:53.228Z</time></trkpt><trkpt lat="44.258793" lon="11.4228627"><ele>670.3333333333333</ele><time>2026-04-04T07:51:54.229Z</time></trkpt><trkpt lat="44.258629" lon="11.4228679"><ele>672.6666666666666</ele><time>2026-04-04T07:51:55.228Z</time></trkpt><trkpt lat="44.2584639" lon="11.4228705"><ele>675.0</ele><time>2026-04-04T07:51:56.229Z</time></trkpt><trkpt lat="44.2583098" lon="11.4228748"><ele>675.0</ele><time>2026-04-04T07:51:57.229Z</time></trkpt><trkpt lat="44.2581518" lon="11.4228762"><ele>675.0</ele><time>2026-04-04T07:51:58.229Z</time></trkpt><trkpt lat="44.2579989" lon="11.4228777"><ele>675.0</ele><time>2026-04-04T07:51:59.228Z</time></trkpt><trkpt lat="44.257842" lon="11.4228817"><ele>677.0</ele><time>2026-04-04T07:52:00.229Z</time></trkpt><trkpt lat="44.2576912" lon="11.4228814"><ele>679.0</ele><time>2026-04-04T07:52:01.229Z</time></trkpt><trkpt lat="44.2575363" lon="11.4228669"><ele>681.0</ele><time>2026-04-04T07:52:02.229Z</time></trkpt><trkpt lat="44.2573843" lon="11.4228479"><ele>681.25</ele><time>2026-04-04T07:52:03.228Z</time></trkpt><trkpt lat="44.2572413" lon="11.4228093"><ele>681.5</ele><time>2026-04-04T07:52:04.229Z</time></trkpt><trkpt lat="44.2570934" lon="11.4227607"><ele>681.75</ele><time>2026-04-04T07:52:05.228Z</time></trkpt><trkpt lat="44.2569526" lon="11.422693"><ele>682.0</ele><time>2026-04-04T07:52:06.229Z</time></trkpt><trkpt lat="44.2568167" lon="11.4226391"><ele>682.0</ele><time>2026-04-04T07:52:07.228Z</time></trkpt><trkpt lat="44.2566837" lon="11.4225998"><ele>682.0</ele><time>2026-04-04T07:52:08.228Z</time></trkpt><trkpt lat="44.2565541" lon="11.4225943"><ele>682.0</ele><time>2026-04-04T07:52:09.229Z</time></trkpt><trkpt lat="44.2564252" lon="11.4226346"><ele>682.0</ele><time>2026-04-04T07:52:10.229Z</time></trkpt><trkpt lat="44.2563091" lon="11.4227157"><ele>681.5</ele><time>2026-04-04T07:52:11.228Z</time></trkpt><trkpt lat="44.2562051" lon="11.4228383"><ele>681.0</ele><time>2026-04-04T07:52:12.229Z</time></trkpt><trkpt lat="44.2561039" lon="11.42299"><ele>680.5</ele><time>2026-04-04T07:52:13.229Z</time></trkpt><trkpt lat="44.2559965" lon="11.4231378"><ele>680.0</ele><time>2026-04-04T07:52:14.229Z</time></trkpt><trkpt lat="44.2558867" lon="11.4232653"><ele>681.5</ele><time>2026-04-04T07:52:15.229Z</time></trkpt><trkpt lat="44.2557751" lon="11.4233535"><ele>683.0</ele><time>2026-04-04T07:52:16.229Z</time></trkpt><trkpt lat="44.2556643" lon="11.4233935"><ele>684.5</ele><time>2026-04-04T07:52:17.228Z</time></trkpt><trkpt lat="44.2555469" lon="11.4233942"><ele>686.0</ele><time>2026-04-04T07:52:18.229Z</time></trkpt><trkpt lat="44.2554278" lon="11.4233711"><ele>686.75</ele><time>2026-04-04T07:52:19.229Z</time></trkpt><trkpt lat="44.2553062" lon="11.423352"><ele>687.5</ele><time>2026-04-04T07:52:20.228Z</time></trkpt><trkpt lat="44.2551907" lon="11.4233569"><ele>688.25</ele><time>2026-04-04T07:52:21.229Z</time></trkpt><trkpt lat="44.2550737" lon="11.4234002"><ele>689.0</ele><time>2026-04-04T07:52:22.229Z</time></trkpt><trkpt lat="44.2549709" lon="11.4234852"><ele>689.0</ele><time>2026-04-04T07:52:23.229Z</time></trkpt><trkpt lat="44.2548657" lon="11.4235939"><ele>689.0</ele><time>2026-04-04T07:52:24.229Z</time></trkpt><trkpt lat="44.2547715" lon="11.4237295"><ele>689.0</ele><time>2026-04-04T07:52:25.229Z</time></trkpt><trkpt lat="44.2546825" lon="11.4238718"><ele>689.0</ele><time>2026-04-04T07:52:26.229Z</time></trkpt><trkpt lat="44.2545788" lon="11.4240054"><ele>692.3333333333333</ele><time>2026-04-04T07:52:27.229Z</time></trkpt><trkpt lat="44.2544682" lon="11.4241396"><ele>695.6666666666666</ele><time>2026-04-04T07:52:28.229Z</time></trkpt><trkpt lat="44.2543527" lon="11.4242746"><ele>699.0</ele><time>2026-04-04T07:52:29.228Z</time></trkpt><trkpt lat="44.2542409" lon="11.4244201"><ele>699.0</ele><time>2026-04-04T07:52:30.228Z</time></trkpt><trkpt lat="44.2541192" lon="11.4245652"><ele>699.0</ele><time>2026-04-04T07:52:31.228Z</time></trkpt><trkpt lat="44.2539947" lon="11.4247168"><ele>699.0</ele><time>2026-04-04T07:52:32.228Z</time></trkpt><trkpt lat="44.2538794" lon="11.4248554"><ele>701.25</ele><time>2026-04-04T07:52:33.229Z</time></trkpt><trkpt lat="44.2537631" lon="11.4249901"><ele>703.5</ele><time>2026-04-04T07:52:34.229Z</time></trkpt><trkpt lat="44.2536404" lon="11.4251146"><ele>705.75</ele><time>2026-04-04T07:52:35.229Z</time></trkpt><trkpt lat="44.2535146" lon="11.4252163"><ele>708.0</ele><time>2026-04-04T07:52:36.229Z</time></trkpt><trkpt lat="44.2533898" lon="11.4253016"><ele>708.0</ele><time>2026-04-04T07:52:37.229Z</time></trkpt><trkpt lat="44.2532513" lon="11.4253733"><ele>708.0</ele><time>2026-04-04T07:52:38.228Z</time></trkpt><trkpt lat="44.2530961" lon="11.425423"><ele>708.0</ele><time>2026-04-04T07:52:39.228Z</time></trkpt><trkpt lat="44.2529346" lon="11.4254676"><ele>712.6666666666666</ele><time>2026-04-04T07:52:40.228Z</time></trkpt><trkpt lat="44.252786" lon="11.4255315"><ele>717.3333333333333</ele><time>2026-04-04T07:52:41.228Z</time></trkpt><trkpt lat="44.2526383" lon="11.4256"><ele>722.0</ele><time>2026-04-04T07:52:42.229Z</time></trkpt><trkpt lat="44.2524967" lon="11.4256583"><ele>722.0</ele><time>2026-04-04T07:52:43.229Z</time></trkpt><trkpt lat="44.2523467" lon="11.4257017"><ele>722.0</ele><time>2026-04-04T07:52:44.229Z</time></trkpt><trkpt lat="44.25219" lon="11.4257533"><ele>722.0</ele><time>2026-04-04T07:52:45.229Z</time></trkpt><trkpt lat="44.252045" lon="11.4258333"><ele>722.0</ele><time>2026-04-04T07:52:46.229Z</time></trkpt><trkpt lat="44.2518933" lon="11.4259317"><ele>722.0</ele><time>2026-04-04T07:52:47.229Z</time></trkpt><trkpt lat="44.25174" lon="11.4260467"><ele>722.0</ele><time>2026-04-04T07:52:48.229Z</time></trkpt><trkpt lat="44.2516017" lon="11.426185"><ele>723.0</ele><time>2026-04-04T07:52:49.229Z</time></trkpt><trkpt lat="44.2514667" lon="11.4263433"><ele>724.0</ele><time>2026-04-04T07:52:50.228Z</time></trkpt><trkpt lat="44.25133" lon="11.4265"><ele>725.0</ele><time>2026-04-04T07:52:51.228Z</time></trkpt><trkpt lat="44.2511917" lon="11.4266317"><ele>726.6666666666666</ele><time>2026-04-04T07:52:52.229Z</time></trkpt><trkpt lat="44.2510633" lon="11.42677"><ele>728.3333333333334</ele><time>2026-04-04T07:52:53.229Z</time></trkpt><trkpt lat="44.250945" lon="11.426915"><ele>730.0</ele><time>2026-04-04T07:52:54.228Z</time></trkpt><trkpt lat="44.2508383" lon="11.42706"><ele>730.25</ele><time>2026-04-04T07:52:55.228Z</time></trkpt><trkpt lat="44.2507433" lon="11.42722"><ele>730.5</ele><time>2026-04-04T07:52:56.229Z</time></trkpt><trkpt lat="44.250675" lon="11.4273867"><ele>730.75</ele><time>2026-04-04T07:52:57.229Z</time></trkpt><trkpt lat="44.2506317" lon="11.4275317"><ele>731.0</ele><time>2026-04-04T07:52:58.228Z</time></trkpt><trkpt lat="44.2506" lon="11.42765"><ele>732.5</ele><time>2026-04-04T07:52:59.228Z</time></trkpt><trkpt lat="44.2505667" lon="11.4277283"><ele>734.0</ele><time>2026-04-04T07:53:00.228Z</time></trkpt><trkpt lat="44.2504717" lon="11.427795"><ele>735.5</ele><time>2026-04-04T07:53:02.229Z</time></trkpt><trkpt lat="44.250405" lon="11.4277867"><ele>737.0</ele><time>2026-04-04T07:53:03.229Z</time></trkpt><trkpt lat="44.2503283" lon="11.4277583"><ele>738.5</ele><time>2026-04-04T07:53:04.229Z</time></trkpt><trkpt lat="44.2502483" lon="11.42772"><ele>740.0</ele><time>2026-04-04T07:53:05.229Z</time></trkpt><trkpt lat="44.2501733" lon="11.4277"><ele>740.0</ele><time>2026-04-04T07:53:06.228Z</time></trkpt><trkpt lat="44.25009" lon="11.4277033"><ele>740.0</ele><time>2026-04-04T07:53:07.229Z</time></trkpt><trkpt lat="44.2499967" lon="11.4277217"><ele>740.0</ele><time>2026-04-04T07:53:08.229Z</time></trkpt><trkpt lat="44.24989" lon="11.4277317"><ele>740.0</ele><time>2026-04-04T07:53:09.228Z</time></trkpt><trkpt lat="44.249775" lon="11.4277417"><ele>740.0</ele><time>2026-04-04T07:53:10.229Z</time></trkpt><trkpt lat="44.24966" lon="11.4277533"><ele>740.25</ele><time>2026-04-04T07:53:11.229Z</time></trkpt><trkpt lat="44.249535" lon="11.42777"><ele>740.5</ele><time>2026-04-04T07:53:12.229Z</time></trkpt><trkpt lat="44.2494117" lon="11.4278067"><ele>740.75</ele><time>2026-04-04T07:53:13.228Z</time></trkpt><trkpt lat="44.2492683" lon="11.4278283"><ele>741.0</ele><time>2026-04-04T07:53:14.228Z</time></trkpt><trkpt lat="44.24912" lon="11.42785"><ele>741.0</ele><time>2026-04-04T07:53:15.229Z</time></trkpt><trkpt lat="44.2489683" lon="11.4278717"><ele>741.0</ele><time>2026-04-04T07:53:16.229Z</time></trkpt><trkpt lat="44.2488281" lon="11.4278991"><ele>741.0</ele><time>2026-04-04T07:53:17.229Z</time></trkpt><trkpt lat="44.2486965" lon="11.4279279"><ele>741.0</ele><time>2026-04-04T07:53:18.228Z</time></trkpt><trkpt lat="44.2485721" lon="11.4279452"><ele>739.4</ele><time>2026-04-04T07:53:19.228Z</time></trkpt><trkpt lat="44.2484554" lon="11.4279415"><ele>737.8</ele><time>2026-04-04T07:53:20.229Z</time></trkpt><trkpt lat="44.2483505" lon="11.427922"><ele>736.1999999999999</ele><time>2026-04-04T07:53:21.229Z</time></trkpt><trkpt lat="44.248259" lon="11.4278644"><ele>734.5999999999999</ele><time>2026-04-04T07:53:22.228Z</time></trkpt><trkpt lat="44.2481723" lon="11.427772"><ele>733.0</ele><time>2026-04-04T07:53:23.229Z</time></trkpt><trkpt lat="44.2480934" lon="11.4276528"><ele>733.5</ele><time>2026-04-04T07:53:24.229Z</time></trkpt><trkpt lat="44.2480287" lon="11.4275022"><ele>734.0</ele><time>2026-04-04T07:53:25.229Z</time></trkpt><trkpt lat="44.2479776" lon="11.4273105"><ele>734.5</ele><time>2026-04-04T07:53:26.229Z</time></trkpt><trkpt lat="44.2479288" lon="11.4271045"><ele>735.0</ele><time>2026-04-04T07:53:27.228Z</time></trkpt><trkpt lat="44.247873" lon="11.4269368"><ele>735.0</ele><time>2026-04-04T07:53:28.228Z</time></trkpt><trkpt lat="44.2478004" lon="11.4268101"><ele>735.0</ele><time>2026-04-04T07:53:29.228Z</time></trkpt><trkpt lat="44.2477075" lon="11.4267095"><ele>735.0</ele><time>2026-04-04T07:53:30.228Z</time></trkpt><trkpt lat="44.2475988" lon="11.4266319"><ele>735.0</ele><time>2026-04-04T07:53:31.229Z</time></trkpt><trkpt lat="44.2474838" lon="11.4265887"><ele>735.0</ele><time>2026-04-04T07:53:32.229Z</time></trkpt><trkpt lat="44.247356" lon="11.4265622"><ele>735.0</ele><time>2026-04-04T07:53:33.228Z</time></trkpt><trkpt lat="44.2472248" lon="11.4265329"><ele>735.0</ele><time>2026-04-04T07:53:34.229Z</time></trkpt><trkpt lat="44.2470893" lon="11.4264661"><ele>735.0</ele><time>2026-04-04T07:53:35.229Z</time></trkpt><trkpt lat="44.2469541" lon="11.4263788"><ele>735.3333333333334</ele><time>2026-04-04T07:53:36.229Z</time></trkpt><trkpt lat="44.2468089" lon="11.4263003"><ele>735.6666666666667</ele><time>2026-04-04T07:53:37.228Z</time></trkpt><trkpt lat="44.2466543" lon="11.4262358"><ele>736.0</ele><time>2026-04-04T07:53:38.229Z</time></trkpt><trkpt lat="44.2464943" lon="11.426177"><ele>737.0</ele><time>2026-04-04T07:53:39.228Z</time></trkpt><trkpt lat="44.2463405" lon="11.4261297"><ele>738.0</ele><time>2026-04-04T07:53:40.229Z</time></trkpt><trkpt lat="44.24618" lon="11.4261005"><ele>739.0</ele><time>2026-04-04T07:53:41.229Z</time></trkpt><trkpt lat="44.2460117" lon="11.4260867"><ele>739.0</ele><time>2026-04-04T07:53:42.229Z</time></trkpt><trkpt lat="44.2458379" lon="11.4260664"><ele>739.0</ele><time>2026-04-04T07:53:43.229Z</time></trkpt><trkpt lat="44.2456608" lon="11.4260485"><ele>739.0</ele><time>2026-04-04T07:53:44.229Z</time></trkpt><trkpt lat="44.2454847" lon="11.4260481"><ele>739.3333333333334</ele><time>2026-04-04T07:53:45.229Z</time></trkpt><trkpt lat="44.2453159" lon="11.4260631"><ele>739.6666666666666</ele><time>2026-04-04T07:53:46.229Z</time></trkpt><trkpt lat="44.245161" lon="11.4260701"><ele>740.0</ele><time>2026-04-04T07:53:47.229Z</time></trkpt><trkpt lat="44.2450063" lon="11.426061"><ele>740.0</ele><time>2026-04-04T07:53:48.228Z</time></trkpt><trkpt lat="44.2448386" lon="11.4260614"><ele>740.0</ele><time>2026-04-04T07:53:49.229Z</time></trkpt><trkpt lat="44.2446683" lon="11.426045"><ele>740.0</ele><time>2026-04-04T07:53:50.228Z</time></trkpt><trkpt lat="44.24449" lon="11.4260067"><ele>739.0</ele><time>2026-04-04T07:53:51.228Z</time></trkpt><trkpt lat="44.244315" lon="11.4259567"><ele>738.0</ele><time>2026-04-04T07:53:52.228Z</time></trkpt><trkpt lat="44.2441417" lon="11.4258867"><ele>737.0</ele><time>2026-04-04T07:53:53.228Z</time></trkpt><trkpt lat="44.2439733" lon="11.425805"><ele>736.0</ele><time>2026-04-04T07:53:54.229Z</time></trkpt><trkpt lat="44.2437917" lon="11.42574"><ele>735.0</ele><time>2026-04-04T07:53:55.229Z</time></trkpt><trkpt lat="44.2436117" lon="11.42569"><ele>734.0</ele><time>2026-04-04T07:53:56.229Z</time></trkpt><trkpt lat="44.2434333" lon="11.4256483"><ele>734.0</ele><time>2026-04-04T07:53:57.229Z</time></trkpt><trkpt lat="44.243265" lon="11.4255983"><ele>734.0</ele><time>2026-04-04T07:53:58.228Z</time></trkpt><trkpt lat="44.2430933" lon="11.4255467"><ele>734.0</ele><time>2026-04-04T07:53:59.229Z</time></trkpt><trkpt lat="44.242935" lon="11.4254883"><ele>733.75</ele><time>2026-04-04T07:54:00.229Z</time></trkpt><trkpt lat="44.2427933" lon="11.425425"><ele>733.5</ele><time>2026-04-04T07:54:01.228Z</time></trkpt><trkpt lat="44.2426567" lon="11.4253533"><ele>733.25</ele><time>2026-04-04T07:54:02.228Z</time></trkpt><trkpt lat="44.242535" lon="11.4252567"><ele>733.0</ele><time>2026-04-04T07:54:03.228Z</time></trkpt><trkpt lat="44.2424267" lon="11.4251267"><ele>733.0</ele><time>2026-04-04T07:54:04.229Z</time></trkpt><trkpt lat="44.2423217" lon="11.4249817"><ele>733.0</ele><time>2026-04-04T07:54:05.229Z</time></trkpt><trkpt lat="44.2422317" lon="11.4248"><ele>733.0</ele><time>2026-04-04T07:54:06.229Z</time></trkpt><trkpt lat="44.24212" lon="11.4246433"><ele>733.0</ele><time>2026-04-04T07:54:07.229Z</time></trkpt><trkpt lat="44.241995" lon="11.424495"><ele>733.0</ele><time>2026-04-04T07:54:08.228Z</time></trkpt><trkpt lat="44.2418467" lon="11.4243833"><ele>733.0</ele><time>2026-04-04T07:54:09.229Z</time></trkpt><trkpt lat="44.241685" lon="11.42425"><ele>733.0</ele><time>2026-04-04T07:54:10.229Z</time></trkpt><trkpt lat="44.241505" lon="11.4241083"><ele>733.0</ele><time>2026-04-04T07:54:11.229Z</time></trkpt><trkpt lat="44.2413217" lon="11.42396"><ele>733.0</ele><time>2026-04-04T07:54:12.228Z</time></trkpt><trkpt lat="44.2411467" lon="11.4238183"><ele>732.3333333333334</ele><time>2026-04-04T07:54:13.228Z</time></trkpt><trkpt lat="44.240975" lon="11.4236933"><ele>731.6666666666666</ele><time>2026-04-04T07:54:14.229Z</time></trkpt><trkpt lat="44.2408167" lon="11.423585"><ele>731.0</ele><time>2026-04-04T07:54:15.229Z</time></trkpt><trkpt lat="44.24066" lon="11.423455"><ele>729.0</ele><time>2026-04-04T07:54:16.229Z</time></trkpt><trkpt lat="44.2405083" lon="11.4233267"><ele>727.0</ele><time>2026-04-04T07:54:17.228Z</time></trkpt><trkpt lat="44.24039" lon="11.4231817"><ele>725.0</ele><time>2026-04-04T07:54:18.229Z</time></trkpt><trkpt lat="44.2402817" lon="11.4230167"><ele>727.6666666666666</ele><time>2026-04-04T07:54:19.228Z</time></trkpt><trkpt lat="44.24019" lon="11.4228283"><ele>730.3333333333334</ele><time>2026-04-04T07:54:20.229Z</time></trkpt><trkpt lat="44.2401317" lon="11.42263"><ele>733.0</ele><time>2026-04-04T07:54:21.229Z</time></trkpt><trkpt lat="44.2400767" lon="11.4224383"><ele>733.0</ele><time>2026-04-04T07:54:22.228Z</time></trkpt><trkpt lat="44.2399967" lon="11.4222833"><ele>733.0</ele><time>2026-04-04T07:54:23.229Z</time></trkpt><trkpt lat="44.2399067" lon="11.422125"><ele>733.0</ele><time>2026-04-04T07:54:24.228Z</time></trkpt><trkpt lat="44.2398333" lon="11.4219583"><ele>733.0</ele><time>2026-04-04T07:54:25.229Z</time></trkpt><trkpt lat="44.2397417" lon="11.4218117"><ele>732.0</ele><time>2026-04-04T07:54:26.228Z</time></trkpt><trkpt lat="44.23963" lon="11.42168"><ele>731.0</ele><time>2026-04-04T07:54:27.228Z</time></trkpt><trkpt lat="44.2395067" lon="11.4215767"><ele>730.0</ele><time>2026-04-04T07:54:28.229Z</time></trkpt><trkpt lat="44.2393583" lon="11.4214867"><ele>730.0</ele><time>2026-04-04T07:54:29.229Z</time></trkpt><trkpt lat="44.2392067" lon="11.4214233"><ele>730.0</ele><time>2026-04-04T07:54:30.229Z</time></trkpt><trkpt lat="44.239065" lon="11.421395"><ele>730.0</ele><time>2026-04-04T07:54:31.228Z</time></trkpt><trkpt lat="44.238935" lon="11.4213817"><ele>730.0</ele><time>2026-04-04T07:54:32.228Z</time></trkpt><trkpt lat="44.2388033" lon="11.421365"><ele>730.25</ele><time>2026-04-04T07:54:33.228Z</time></trkpt><trkpt lat="44.2386567" lon="11.4213717"><ele>730.5</ele><time>2026-04-04T07:54:34.228Z</time></trkpt><trkpt lat="44.2385133" lon="11.4213983"><ele>730.75</ele><time>2026-04-04T07:54:35.228Z</time></trkpt><trkpt lat="44.238365" lon="11.4214117"><ele>731.0</ele><time>2026-04-04T07:54:36.229Z</time></trkpt><trkpt lat="44.2382267" lon="11.4213983"><ele>731.25</ele><time>2026-04-04T07:54:37.228Z</time></trkpt><trkpt lat="44.2380817" lon="11.4214"><ele>731.5</ele><time>2026-04-04T07:54:38.229Z</time></trkpt><trkpt lat="44.23795" lon="11.4214283"><ele>731.75</ele><time>2026-04-04T07:54:39.229Z</time></trkpt><trkpt lat="44.2378167" lon="11.4214367"><ele>732.0</ele><time>2026-04-04T07:54:40.228Z</time></trkpt><trkpt lat="44.2376867" lon="11.4214217"><ele>732.0</ele><time>2026-04-04T07:54:41.229Z</time></trkpt><trkpt lat="44.2375867" lon="11.421375"><ele>732.0</ele><time>2026-04-04T07:54:42.229Z</time></trkpt><trkpt lat="44.237505" lon="11.4212983"><ele>732.0</ele><time>2026-04-04T07:54:43.229Z</time></trkpt><trkpt lat="44.237435" lon="11.4212"><ele>732.0</ele><time>2026-04-04T07:54:44.228Z</time></trkpt><trkpt lat="44.2373617" lon="11.4210967"><ele>732.0</ele><time>2026-04-04T07:54:45.229Z</time></trkpt><trkpt lat="44.2372883" lon="11.4210133"><ele>734.6</ele><time>2026-04-04T07:54:46.228Z</time></trkpt><trkpt lat="44.237215" lon="11.42096"><ele>737.2</ele><time>2026-04-04T07:54:47.229Z</time></trkpt><trkpt lat="44.2371383" lon="11.4209033"><ele>739.8</ele><time>2026-04-04T07:54:48.229Z</time></trkpt><trkpt lat="44.2370433" lon="11.42086"><ele>742.4</ele><time>2026-04-04T07:54:49.229Z</time></trkpt><trkpt lat="44.236955" lon="11.4208517"><ele>745.0</ele><time>2026-04-04T07:54:50.228Z</time></trkpt><trkpt lat="44.2368517" lon="11.4208683"><ele>745.0</ele><time>2026-04-04T07:54:51.229Z</time></trkpt><trkpt lat="44.236735" lon="11.4209267"><ele>745.0</ele><time>2026-04-04T07:54:52.228Z</time></trkpt><trkpt lat="44.23662" lon="11.4209867"><ele>745.0</ele><time>2026-04-04T07:54:53.229Z</time></trkpt><trkpt lat="44.2365033" lon="11.4210517"><ele>745.0</ele><time>2026-04-04T07:54:54.229Z</time></trkpt><trkpt lat="44.236405" lon="11.42112"><ele>746.3333333333334</ele><time>2026-04-04T07:54:55.229Z</time></trkpt><trkpt lat="44.2363117" lon="11.4211883"><ele>747.6666666666667</ele><time>2026-04-04T07:54:56.229Z</time></trkpt><trkpt lat="44.2362167" lon="11.4212267"><ele>749.0</ele><time>2026-04-04T07:54:57.228Z</time></trkpt><trkpt lat="44.2361283" lon="11.4212333"><ele>750.3333333333334</ele><time>2026-04-04T07:54:58.229Z</time></trkpt><trkpt lat="44.23606" lon="11.4212167"><ele>751.6666666666666</ele><time>2026-04-04T07:54:59.228Z</time></trkpt><trkpt lat="44.2359967" lon="11.4212083"><ele>753.0</ele><time>2026-04-04T07:55:00.229Z</time></trkpt><trkpt lat="44.2358733" lon="11.4211817"><ele>753.0</ele><time>2026-04-04T07:55:02.228Z</time></trkpt><trkpt lat="44.2357933" lon="11.4211517"><ele>753.0</ele><time>2026-04-04T07:55:03.229Z</time></trkpt><trkpt lat="44.23571" lon="11.42114"><ele>753.0</ele><time>2026-04-04T07:55:04.228Z</time></trkpt><trkpt lat="44.23562" lon="11.42116"><ele>753.0</ele><time>2026-04-04T07:55:05.228Z</time></trkpt><trkpt lat="44.23552" lon="11.4212017"><ele>753.0</ele><time>2026-04-04T07:55:06.229Z</time></trkpt><trkpt lat="44.2354133" lon="11.4212733"><ele>752.3333333333334</ele><time>2026-04-04T07:55:07.229Z</time></trkpt><trkpt lat="44.2353267" lon="11.4213517"><ele>751.6666666666666</ele><time>2026-04-04T07:55:08.228Z</time></trkpt><trkpt lat="44.23525" lon="11.421425"><ele>751.0</ele><time>2026-04-04T07:55:09.228Z</time></trkpt><trkpt lat="44.23519" lon="11.42151"><ele>750.3333333333333</ele><time>2026-04-04T07:55:10.229Z</time></trkpt><trkpt lat="44.2351333" lon="11.4215883"><ele>749.6666666666666</ele><time>2026-04-04T07:55:11.228Z</time></trkpt><trkpt lat="44.2350617" lon="11.4216517"><ele>749.0</ele><time>2026-04-04T07:55:12.229Z</time></trkpt><trkpt lat="44.2349767" lon="11.4216867"><ele>749.0</ele><time>2026-04-04T07:55:13.229Z</time></trkpt><trkpt lat="44.2348833" lon="11.421745"><ele>749.0</ele><time>2026-04-04T07:55:14.229Z</time></trkpt><trkpt lat="44.2348067" lon="11.4218267"><ele>749.0</ele><time>2026-04-04T07:55:15.229Z</time></trkpt><trkpt lat="44.2347333" lon="11.421925"><ele>749.0</ele><time>2026-04-04T07:55:16.228Z</time></trkpt><trkpt lat="44.2346467" lon="11.4220083"><ele>749.0</ele><time>2026-04-04T07:55:17.229Z</time></trkpt><trkpt lat="44.2345317" lon="11.4220817"><ele>746.8000000000001</ele><time>2026-04-04T07:55:18.229Z</time></trkpt><trkpt lat="44.23443" lon="11.4221633"><ele>744.6</ele><time>2026-04-04T07:55:19.229Z</time></trkpt><trkpt lat="44.23433" lon="11.4222667"><ele>742.4</ele><time>2026-04-04T07:55:20.228Z</time></trkpt><trkpt lat="44.2342467" lon="11.4223717"><ele>740.2</ele><time>2026-04-04T07:55:21.228Z</time></trkpt><trkpt lat="44.2341817" lon="11.4224633"><ele>738.0</ele><time>2026-04-04T07:55:22.228Z</time></trkpt><trkpt lat="44.2341233" lon="11.4225383"><ele>738.0</ele><time>2026-04-04T07:55:23.228Z</time></trkpt><trkpt lat="44.234065" lon="11.4225833"><ele>738.0</ele><time>2026-04-04T07:55:24.229Z</time></trkpt><trkpt lat="44.2339617" lon="11.4225317"><ele>738.0</ele><time>2026-04-04T07:55:26.228Z</time></trkpt><trkpt lat="44.2339233" lon="11.422435"><ele>738.0</ele><time>2026-04-04T07:55:27.228Z</time></trkpt><trkpt lat="44.2339167" lon="11.4223117"><ele>738.0</ele><time>2026-04-04T07:55:28.229Z</time></trkpt><trkpt lat="44.233925" lon="11.4221633"><ele>735.4</ele><time>2026-04-04T07:55:29.228Z</time></trkpt><trkpt lat="44.23393" lon="11.4220117"><ele>732.8</ele><time>2026-04-04T07:55:30.228Z</time></trkpt><trkpt lat="44.233905" lon="11.4218733"><ele>730.2</ele><time>2026-04-04T07:55:31.228Z</time></trkpt><trkpt lat="44.2338617" lon="11.42174"><ele>727.6</ele><time>2026-04-04T07:55:32.229Z</time></trkpt><trkpt lat="44.2338267" lon="11.4216067"><ele>725.0</ele><time>2026-04-04T07:55:33.229Z</time></trkpt><trkpt lat="44.233815" lon="11.4214617"><ele>725.0</ele><time>2026-04-04T07:55:34.228Z</time></trkpt><trkpt lat="44.2337983" lon="11.4213183"><ele>725.0</ele><time>2026-04-04T07:55:35.229Z</time></trkpt><trkpt lat="44.23376" lon="11.4211983"><ele>725.0</ele><time>2026-04-04T07:55:36.229Z</time></trkpt><trkpt lat="44.2337017" lon="11.4210967"><ele>725.0</ele><time>2026-04-04T07:55:37.229Z</time></trkpt><trkpt lat="44.2336217" lon="11.42102"><ele>725.0</ele><time>2026-04-04T07:55:38.229Z</time></trkpt><trkpt lat="44.2335517" lon="11.420945"><ele>725.0</ele><time>2026-04-04T07:55:39.228Z</time></trkpt><trkpt lat="44.2334917" lon="11.42086"><ele>725.0</ele><time>2026-04-04T07:55:40.229Z</time></trkpt><trkpt lat="44.2334483" lon="11.4207633"><ele>725.0</ele><time>2026-04-04T07:55:41.229Z</time></trkpt><trkpt lat="44.2334217" lon="11.4206517"><ele>725.0</ele><time>2026-04-04T07:55:42.229Z</time></trkpt><trkpt lat="44.2334083" lon="11.4205533"><ele>725.0</ele><time>2026-04-04T07:55:43.229Z</time></trkpt><trkpt lat="44.23341" lon="11.420445"><ele>725.0</ele><time>2026-04-04T07:55:44.229Z</time></trkpt><trkpt lat="44.2334333" lon="11.4203233"><ele>725.0</ele><time>2026-04-04T07:55:45.229Z</time></trkpt><trkpt lat="44.233485" lon="11.4202033"><ele>725.0</ele><time>2026-04-04T07:55:46.229Z</time></trkpt><trkpt lat="44.23354" lon="11.4200733"><ele>725.0</ele><time>2026-04-04T07:55:47.228Z</time></trkpt><trkpt lat="44.233585" lon="11.4199467"><ele>725.0</ele><time>2026-04-04T07:55:48.229Z</time></trkpt><trkpt lat="44.2336233" lon="11.4198133"><ele>725.0</ele><time>2026-04-04T07:55:49.229Z</time></trkpt><trkpt lat="44.2336533" lon="11.4196933"><ele>725.0</ele><time>2026-04-04T07:55:50.229Z</time></trkpt><trkpt lat="44.233665" lon="11.4195783"><ele>725.0</ele><time>2026-04-04T07:55:51.228Z</time></trkpt><trkpt lat="44.233655" lon="11.4194533"><ele>725.0</ele><time>2026-04-04T07:55:52.228Z</time></trkpt><trkpt lat="44.2336283" lon="11.4193467"><ele>725.0</ele><time>2026-04-04T07:55:53.228Z</time></trkpt><trkpt lat="44.2336" lon="11.419245"><ele>725.0</ele><time>2026-04-04T07:55:54.229Z</time></trkpt><trkpt lat="44.2335683" lon="11.4191533"><ele>725.0</ele><time>2026-04-04T07:55:55.229Z</time></trkpt><trkpt lat="44.2335283" lon="11.419075"><ele>725.0</ele><time>2026-04-04T07:55:56.229Z</time></trkpt><trkpt lat="44.233475" lon="11.4189983"><ele>725.0</ele><time>2026-04-04T07:55:57.229Z</time></trkpt><trkpt lat="44.233415" lon="11.4189317"><ele>725.0</ele><time>2026-04-04T07:55:58.228Z</time></trkpt><trkpt lat="44.233355" lon="11.4188817"><ele>725.0</ele><time>2026-04-04T07:55:59.229Z</time></trkpt><trkpt lat="44.233295" lon="11.4188383"><ele>725.0</ele><time>2026-04-04T07:56:00.229Z</time></trkpt><trkpt lat="44.2331783" lon="11.4187783"><ele>725.0</ele><time>2026-04-04T07:56:02.228Z</time></trkpt><trkpt lat="44.233115" lon="11.418735"><ele>724.6</ele><time>2026-04-04T07:56:03.228Z</time></trkpt><trkpt lat="44.2330317" lon="11.4187017"><ele>724.2</ele><time>2026-04-04T07:56:04.229Z</time></trkpt><trkpt lat="44.23295" lon="11.418675"><ele>723.8</ele><time>2026-04-04T07:56:05.228Z</time></trkpt><trkpt lat="44.2328717" lon="11.4186283"><ele>723.4</ele><time>2026-04-04T07:56:06.229Z</time></trkpt><trkpt lat="44.2327833" lon="11.418565"><ele>723.0</ele><time>2026-04-04T07:56:07.228Z</time></trkpt><trkpt lat="44.2326683" lon="11.4185017"><ele>723.0</ele><time>2026-04-04T07:56:08.228Z</time></trkpt><trkpt lat="44.2325433" lon="11.41845"><ele>723.0</ele><time>2026-04-04T07:56:09.229Z</time></trkpt><trkpt lat="44.232435" lon="11.4184"><ele>723.0</ele><time>2026-04-04T07:56:10.229Z</time></trkpt><trkpt lat="44.23233" lon="11.4183533"><ele>723.0</ele><time>2026-04-04T07:56:11.229Z</time></trkpt><trkpt lat="44.2322267" lon="11.418285"><ele>721.0</ele><time>2026-04-04T07:56:12.228Z</time></trkpt><trkpt lat="44.2321217" lon="11.41819"><ele>719.0</ele><time>2026-04-04T07:56:13.229Z</time></trkpt><trkpt lat="44.2320083" lon="11.4180983"><ele>717.0</ele><time>2026-04-04T07:56:14.228Z</time></trkpt><trkpt lat="44.2319017" lon="11.418015"><ele>715.0</ele><time>2026-04-04T07:56:15.228Z</time></trkpt><trkpt lat="44.2318067" lon="11.41793"><ele>715.0</ele><time>2026-04-04T07:56:16.229Z</time></trkpt><trkpt lat="44.2317183" lon="11.417835"><ele>715.0</ele><time>2026-04-04T07:56:17.229Z</time></trkpt><trkpt lat="44.2316283" lon="11.41774"><ele>715.0</ele><time>2026-04-04T07:56:18.228Z</time></trkpt><trkpt lat="44.2315583" lon="11.4176383"><ele>715.0</ele><time>2026-04-04T07:56:19.228Z</time></trkpt><trkpt lat="44.2315067" lon="11.417515"><ele>715.0</ele><time>2026-04-04T07:56:20.229Z</time></trkpt><trkpt lat="44.231485" lon="11.4173817"><ele>714.2</ele><time>2026-04-04T07:56:21.229Z</time></trkpt><trkpt lat="44.23146" lon="11.41725"><ele>713.4</ele><time>2026-04-04T07:56:22.229Z</time></trkpt><trkpt lat="44.2314117" lon="11.4171433"><ele>712.5999999999999</ele><time>2026-04-04T07:56:23.228Z</time></trkpt><trkpt lat="44.231355" lon="11.4170617"><ele>711.8</ele><time>2026-04-04T07:56:24.229Z</time></trkpt><trkpt lat="44.2312683" lon="11.4170283"><ele>711.0</ele><time>2026-04-04T07:56:25.228Z</time></trkpt><trkpt lat="44.2311533" lon="11.4170283"><ele>711.0</ele><time>2026-04-04T07:56:26.229Z</time></trkpt><trkpt lat="44.23104" lon="11.41705"><ele>711.0</ele><time>2026-04-04T07:56:27.229Z</time></trkpt><trkpt lat="44.2309417" lon="11.4170783"><ele>711.0</ele><time>2026-04-04T07:56:28.228Z</time></trkpt><trkpt lat="44.2308433" lon="11.41708"><ele>711.0</ele><time>2026-04-04T07:56:29.229Z</time></trkpt><trkpt lat="44.2307367" lon="11.4170567"><ele>711.0</ele><time>2026-04-04T07:56:30.229Z</time></trkpt><trkpt lat="44.2306417" lon="11.4170017"><ele>708.8</ele><time>2026-04-04T07:56:31.228Z</time></trkpt><trkpt lat="44.2305317" lon="11.4169483"><ele>706.5999999999999</ele><time>2026-04-04T07:56:32.229Z</time></trkpt><trkpt lat="44.2304367" lon="11.4168717"><ele>704.4</ele><time>2026-04-04T07:56:33.229Z</time></trkpt><trkpt lat="44.230345" lon="11.4167883"><ele>702.2</ele><time>2026-04-04T07:56:34.228Z</time></trkpt><trkpt lat="44.2302517" lon="11.41672"><ele>700.0</ele><time>2026-04-04T07:56:35.229Z</time></trkpt><trkpt lat="44.2301433" lon="11.4166683"><ele>700.0</ele><time>2026-04-04T07:56:36.229Z</time></trkpt><trkpt lat="44.2300217" lon="11.4166317"><ele>700.0</ele><time>2026-04-04T07:56:37.229Z</time></trkpt><trkpt lat="44.2298967" lon="11.4166117"><ele>700.0</ele><time>2026-04-04T07:56:38.228Z</time></trkpt><trkpt lat="44.229775" lon="11.416585"><ele>700.0</ele><time>2026-04-04T07:56:39.229Z</time></trkpt><trkpt lat="44.22967" lon="11.4165483"><ele>698.0</ele><time>2026-04-04T07:56:40.228Z</time></trkpt><trkpt lat="44.2295683" lon="11.4165017"><ele>696.0</ele><time>2026-04-04T07:56:41.229Z</time></trkpt><trkpt lat="44.2294633" lon="11.4164583"><ele>694.0</ele><time>2026-04-04T07:56:42.228Z</time></trkpt><trkpt lat="44.2293633" lon="11.4164083"><ele>692.0</ele><time>2026-04-04T07:56:43.229Z</time></trkpt><trkpt lat="44.2292767" lon="11.416365"><ele>690.0</ele><time>2026-04-04T07:56:44.228Z</time></trkpt><trkpt lat="44.2291983" lon="11.4163467"><ele>690.0</ele><time>2026-04-04T07:56:45.229Z</time></trkpt><trkpt lat="44.22913" lon="11.4163483"><ele>690.0</ele><time>2026-04-04T07:56:46.229Z</time></trkpt><trkpt lat="44.2290533" lon="11.4164267"><ele>690.0</ele><time>2026-04-04T07:56:48.229Z</time></trkpt><trkpt lat="44.2291283" lon="11.4165667"><ele>690.0</ele><time>2026-04-04T07:56:50.228Z</time></trkpt><trkpt lat="44.2291917" lon="11.416625"><ele>690.0</ele><time>2026-04-04T07:56:51.228Z</time></trkpt><trkpt lat="44.2292733" lon="11.41667"><ele>690.0</ele><time>2026-04-04T07:56:52.228Z</time></trkpt><trkpt lat="44.2293567" lon="11.416725"><ele>690.0</ele><time>2026-04-04T07:56:53.229Z</time></trkpt><trkpt lat="44.22944" lon="11.41682"><ele>690.0</ele><time>2026-04-04T07:56:54.229Z</time></trkpt><trkpt lat="44.2295283" lon="11.4169467"><ele>690.0</ele><time>2026-04-04T07:56:55.229Z</time></trkpt><trkpt lat="44.2296167" lon="11.417095"><ele>688.5</ele><time>2026-04-04T07:56:56.228Z</time></trkpt><trkpt lat="44.2297217" lon="11.4172467"><ele>687.0</ele><time>2026-04-04T07:56:57.229Z</time></trkpt><trkpt lat="44.2298383" lon="11.4173683"><ele>685.5</ele><time>2026-04-04T07:56:58.228Z</time></trkpt><trkpt lat="44.22995" lon="11.4174833"><ele>684.0</ele><time>2026-04-04T07:56:59.228Z</time></trkpt><trkpt lat="44.2300383" lon="11.41762"><ele>684.0</ele><time>2026-04-04T07:57:00.229Z</time></trkpt><trkpt lat="44.2301183" lon="11.4177883"><ele>684.0</ele><time>2026-04-04T07:57:01.228Z</time></trkpt><trkpt lat="44.2301983" lon="11.4179583"><ele>684.0</ele><time>2026-04-04T07:57:02.229Z</time></trkpt><trkpt lat="44.2302983" lon="11.4181083"><ele>684.0</ele><time>2026-04-04T07:57:03.229Z</time></trkpt><trkpt lat="44.2304217" lon="11.4182417"><ele>683.5</ele><time>2026-04-04T07:57:04.228Z</time></trkpt><trkpt lat="44.2305333" lon="11.4183733"><ele>683.0</ele><time>2026-04-04T07:57:05.228Z</time></trkpt><trkpt lat="44.23063" lon="11.4185033"><ele>682.5</ele><time>2026-04-04T07:57:06.229Z</time></trkpt><trkpt lat="44.2307033" lon="11.4186533"><ele>682.0</ele><time>2026-04-04T07:57:07.229Z</time></trkpt><trkpt lat="44.230765" lon="11.4188233"><ele>679.5</ele><time>2026-04-04T07:57:08.229Z</time></trkpt><trkpt lat="44.2308217" lon="11.4190117"><ele>677.0</ele><time>2026-04-04T07:57:09.229Z</time></trkpt><trkpt lat="44.230885" lon="11.4192017"><ele>674.5</ele><time>2026-04-04T07:57:10.228Z</time></trkpt><trkpt lat="44.2309583" lon="11.4193533"><ele>672.0</ele><time>2026-04-04T07:57:11.228Z</time></trkpt><trkpt lat="44.2310417" lon="11.41949"><ele>672.0</ele><time>2026-04-04T07:57:12.229Z</time></trkpt><trkpt lat="44.2311333" lon="11.419615"><ele>672.0</ele><time>2026-04-04T07:57:13.229Z</time></trkpt><trkpt lat="44.23121" lon="11.4197283"><ele>672.0</ele><time>2026-04-04T07:57:14.229Z</time></trkpt><trkpt lat="44.2313" lon="11.4198183"><ele>672.0</ele><time>2026-04-04T07:57:15.229Z</time></trkpt><trkpt lat="44.2313933" lon="11.4199117"><ele>673.4000000000001</ele><time>2026-04-04T07:57:16.229Z</time></trkpt><trkpt lat="44.2314533" lon="11.42001"><ele>674.8000000000001</ele><time>2026-04-04T07:57:17.229Z</time></trkpt><trkpt lat="44.2314867" lon="11.42014"><ele>676.2</ele><time>2026-04-04T07:57:18.229Z</time></trkpt><trkpt lat="44.2314867" lon="11.4203"><ele>677.6</ele><time>2026-04-04T07:57:19.228Z</time></trkpt><trkpt lat="44.23147" lon="11.4204867"><ele>679.0</ele><time>2026-04-04T07:57:20.229Z</time></trkpt><trkpt lat="44.2314217" lon="11.4206833"><ele>669.3333333333334</ele><time>2026-04-04T07:57:21.229Z</time></trkpt><trkpt lat="44.2313383" lon="11.4208767"><ele>659.6666666666666</ele><time>2026-04-04T07:57:22.229Z</time></trkpt><trkpt lat="44.2312583" lon="11.4210667"><ele>650.0</ele><time>2026-04-04T07:57:23.228Z</time></trkpt><trkpt lat="44.23119" lon="11.4212417"><ele>651.75</ele><time>2026-04-04T07:57:24.228Z</time></trkpt><trkpt lat="44.2311267" lon="11.4213983"><ele>653.5</ele><time>2026-04-04T07:57:25.228Z</time></trkpt><trkpt lat="44.2310433" lon="11.4215383"><ele>655.25</ele><time>2026-04-04T07:57:26.229Z</time></trkpt><trkpt lat="44.2309317" lon="11.421665"><ele>657.0</ele><time>2026-04-04T07:57:27.229Z</time></trkpt><trkpt lat="44.2308083" lon="11.42177"><ele>657.0</ele><time>2026-04-04T07:57:28.228Z</time></trkpt><trkpt lat="44.2306767" lon="11.4218533"><ele>657.0</ele><time>2026-04-04T07:57:29.229Z</time></trkpt><trkpt lat="44.23057" lon="11.42195"><ele>657.0</ele><time>2026-04-04T07:57:30.229Z</time></trkpt><trkpt lat="44.2304933" lon="11.422065"><ele>657.0</ele><time>2026-04-04T07:57:31.228Z</time></trkpt><trkpt lat="44.23043" lon="11.422205"><ele>653.5</ele><time>2026-04-04T07:57:32.229Z</time></trkpt><trkpt lat="44.2303933" lon="11.42236"><ele>650.0</ele><time>2026-04-04T07:57:33.229Z</time></trkpt><trkpt lat="44.2303883" lon="11.422535"><ele>646.5</ele><time>2026-04-04T07:57:34.229Z</time></trkpt><trkpt lat="44.2304117" lon="11.422725"><ele>643.0</ele><time>2026-04-04T07:57:35.228Z</time></trkpt><trkpt lat="44.2304383" lon="11.422935"><ele>643.0</ele><time>2026-04-04T07:57:36.229Z</time></trkpt><trkpt lat="44.2304567" lon="11.4231467"><ele>643.0</ele><time>2026-04-04T07:57:37.229Z</time></trkpt><trkpt lat="44.2304567" lon="11.423345"><ele>643.0</ele><time>2026-04-04T07:57:38.229Z</time></trkpt><trkpt lat="44.2304283" lon="11.4235167"><ele>643.0</ele><time>2026-04-04T07:57:39.229Z</time></trkpt><trkpt lat="44.2303783" lon="11.423685"><ele>646.0</ele><time>2026-04-04T07:57:40.229Z</time></trkpt><trkpt lat="44.2302867" lon="11.4238217"><ele>649.0</ele><time>2026-04-04T07:57:41.229Z</time></trkpt><trkpt lat="44.2301667" lon="11.4239567"><ele>652.0</ele><time>2026-04-04T07:57:42.228Z</time></trkpt><trkpt lat="44.23003" lon="11.4240767"><ele>652.0</ele><time>2026-04-04T07:57:43.229Z</time></trkpt><trkpt lat="44.22991" lon="11.42419"><ele>652.0</ele><time>2026-04-04T07:57:44.229Z</time></trkpt><trkpt lat="44.2298217" lon="11.424305"><ele>652.0</ele><time>2026-04-04T07:57:45.229Z</time></trkpt><trkpt lat="44.229755" lon="11.424455"><ele>652.0</ele><time>2026-04-04T07:57:46.229Z</time></trkpt><trkpt lat="44.2297" lon="11.4246233"><ele>645.6666666666667</ele><time>2026-04-04T07:57:47.228Z</time></trkpt><trkpt lat="44.2296617" lon="11.4248233"><ele>639.3333333333334</ele><time>2026-04-04T07:57:48.228Z</time></trkpt><trkpt lat="44.2296217" lon="11.425045"><ele>633.0</ele><time>2026-04-04T07:57:49.229Z</time></trkpt><trkpt lat="44.229565" lon="11.4252717"><ele>633.0</ele><time>2026-04-04T07:57:50.228Z</time></trkpt><trkpt lat="44.2294933" lon="11.4255167"><ele>633.0</ele><time>2026-04-04T07:57:51.229Z</time></trkpt><trkpt lat="44.2294283" lon="11.4257733"><ele>633.0</ele><time>2026-04-04T07:57:52.228Z</time></trkpt><trkpt lat="44.2293767" lon="11.4260183"><ele>633.0</ele><time>2026-04-04T07:57:53.229Z</time></trkpt><trkpt lat="44.22932" lon="11.4262467"><ele>633.0</ele><time>2026-04-04T07:57:54.229Z</time></trkpt><trkpt lat="44.229265" lon="11.426445"><ele>633.0</ele><time>2026-04-04T07:57:55.229Z</time></trkpt><trkpt lat="44.2292" lon="11.426625"><ele>633.25</ele><time>2026-04-04T07:57:56.229Z</time></trkpt><trkpt lat="44.2291367" lon="11.4267917"><ele>633.5</ele><time>2026-04-04T07:57:57.228Z</time></trkpt><trkpt lat="44.2290817" lon="11.426945"><ele>633.75</ele><time>2026-04-04T07:57:58.229Z</time></trkpt><trkpt lat="44.229015" lon="11.4270583"><ele>634.0</ele><time>2026-04-04T07:57:59.229Z</time></trkpt><trkpt lat="44.228915" lon="11.427145"><ele>632.25</ele><time>2026-04-04T07:58:00.229Z</time></trkpt><trkpt lat="44.2287933" lon="11.4272283"><ele>630.5</ele><time>2026-04-04T07:58:01.228Z</time></trkpt><trkpt lat="44.2286567" lon="11.42729"><ele>628.75</ele><time>2026-04-04T07:58:02.228Z</time></trkpt><trkpt lat="44.2285267" lon="11.427315"><ele>627.0</ele><time>2026-04-04T07:58:03.228Z</time></trkpt><trkpt lat="44.2283967" lon="11.42734"><ele>627.0</ele><time>2026-04-04T07:58:04.228Z</time></trkpt><trkpt lat="44.228275" lon="11.4273817"><ele>627.0</ele><time>2026-04-04T07:58:05.228Z</time></trkpt><trkpt lat="44.2281483" lon="11.4274683"><ele>627.0</ele><time>2026-04-04T07:58:06.229Z</time></trkpt><trkpt lat="44.2280317" lon="11.4275833"><ele>627.0</ele><time>2026-04-04T07:58:07.229Z</time></trkpt><trkpt lat="44.2279217" lon="11.4277117"><ele>624.5</ele><time>2026-04-04T07:58:08.228Z</time></trkpt><trkpt lat="44.22781" lon="11.427845"><ele>622.0</ele><time>2026-04-04T07:58:09.229Z</time></trkpt><trkpt lat="44.22769" lon="11.42796"><ele>619.5</ele><time>2026-04-04T07:58:10.228Z</time></trkpt><trkpt lat="44.2275667" lon="11.4280717"><ele>617.0</ele><time>2026-04-04T07:58:11.229Z</time></trkpt><trkpt lat="44.2274583" lon="11.4281933"><ele>617.0</ele><time>2026-04-04T07:58:12.229Z</time></trkpt><trkpt lat="44.22738" lon="11.4283567"><ele>617.0</ele><time>2026-04-04T07:58:13.228Z</time></trkpt><trkpt lat="44.2273217" lon="11.4285233"><ele>617.0</ele><time>2026-04-04T07:58:14.229Z</time></trkpt><trkpt lat="44.227275" lon="11.42872"><ele>617.0</ele><time>2026-04-04T07:58:15.229Z</time></trkpt><trkpt lat="44.227235" lon="11.42894"><ele>610.0</ele><time>2026-04-04T07:58:16.228Z</time></trkpt><trkpt lat="44.227205" lon="11.4291733"><ele>603.0</ele><time>2026-04-04T07:58:17.229Z</time></trkpt><trkpt lat="44.2271583" lon="11.429405"><ele>596.0</ele><time>2026-04-04T07:58:18.228Z</time></trkpt><trkpt lat="44.2270967" lon="11.4296267"><ele>597.3333333333333</ele><time>2026-04-04T07:58:19.229Z</time></trkpt><trkpt lat="44.2270233" lon="11.42983"><ele>598.6666666666666</ele><time>2026-04-04T07:58:20.229Z</time></trkpt><trkpt lat="44.2269317" lon="11.4300183"><ele>600.0</ele><time>2026-04-04T07:58:21.228Z</time></trkpt><trkpt lat="44.2268383" lon="11.4302076"><ele>600.0</ele><time>2026-04-04T07:58:22.229Z</time></trkpt><trkpt lat="44.2267294" lon="11.4303927"><ele>600.0</ele><time>2026-04-04T07:58:23.229Z</time></trkpt><trkpt lat="44.2266184" lon="11.4305804"><ele>600.0</ele><time>2026-04-04T07:58:24.229Z</time></trkpt><trkpt lat="44.2264874" lon="11.4307677"><ele>596.3333333333334</ele><time>2026-04-04T07:58:25.228Z</time></trkpt><trkpt lat="44.2263431" lon="11.4309598"><ele>592.6666666666667</ele><time>2026-04-04T07:58:26.229Z</time></trkpt><trkpt lat="44.2262178" lon="11.4311538"><ele>589.0</ele><time>2026-04-04T07:58:27.229Z</time></trkpt><trkpt lat="44.2261033" lon="11.4313258"><ele>589.0</ele><time>2026-04-04T07:58:28.229Z</time></trkpt><trkpt lat="44.2259888" lon="11.4314878"><ele>589.0</ele><time>2026-04-04T07:58:29.229Z</time></trkpt><trkpt lat="44.2258565" lon="11.431635"><ele>589.0</ele><time>2026-04-04T07:58:30.228Z</time></trkpt><trkpt lat="44.2257052" lon="11.4317671"><ele>587.3333333333334</ele><time>2026-04-04T07:58:31.229Z</time></trkpt><trkpt lat="44.2255522" lon="11.4318829"><ele>585.6666666666666</ele><time>2026-04-04T07:58:32.229Z</time></trkpt><trkpt lat="44.2254" lon="11.4319652"><ele>584.0</ele><time>2026-04-04T07:58:33.228Z</time></trkpt><trkpt lat="44.2252579" lon="11.4320355"><ele>584.0</ele><time>2026-04-04T07:58:34.229Z</time></trkpt><trkpt lat="44.2251214" lon="11.4321333"><ele>584.0</ele><time>2026-04-04T07:58:35.228Z</time></trkpt><trkpt lat="44.2249905" lon="11.4322499"><ele>584.0</ele><time>2026-04-04T07:58:36.229Z</time></trkpt><trkpt lat="44.2248607" lon="11.4323631"><ele>581.5</ele><time>2026-04-04T07:58:37.229Z</time></trkpt><trkpt lat="44.2247542" lon="11.4324837"><ele>579.0</ele><time>2026-04-04T07:58:38.229Z</time></trkpt><trkpt lat="44.2246747" lon="11.4326153"><ele>576.5</ele><time>2026-04-04T07:58:39.228Z</time></trkpt><trkpt lat="44.2246117" lon="11.4327773"><ele>574.0</ele><time>2026-04-04T07:58:40.229Z</time></trkpt><trkpt lat="44.2245617" lon="11.4329373"><ele>575.0</ele><time>2026-04-04T07:58:41.229Z</time></trkpt><trkpt lat="44.2245283" lon="11.4330953"><ele>576.0</ele><time>2026-04-04T07:58:42.229Z</time></trkpt><trkpt lat="44.2245179" lon="11.4332422"><ele>577.0</ele><time>2026-04-04T07:58:43.229Z</time></trkpt><trkpt lat="44.2245318" lon="11.4333846"><ele>578.0</ele><time>2026-04-04T07:58:44.228Z</time></trkpt><trkpt lat="44.2245455" lon="11.4335071"><ele>579.0</ele><time>2026-04-04T07:58:45.229Z</time></trkpt><trkpt lat="44.2245382" lon="11.43361"><ele>579.0</ele><time>2026-04-04T07:58:46.228Z</time></trkpt><trkpt lat="44.2244541" lon="11.4337088"><ele>579.0</ele><time>2026-04-04T07:58:48.229Z</time></trkpt><trkpt lat="44.2243716" lon="11.4336868"><ele>579.0</ele><time>2026-04-04T07:58:49.228Z</time></trkpt><trkpt lat="44.2242737" lon="11.4336456"><ele>579.0</ele><time>2026-04-04T07:58:50.229Z</time></trkpt><trkpt lat="44.224181" lon="11.4336392"><ele>579.0</ele><time>2026-04-04T07:58:51.228Z</time></trkpt><trkpt lat="44.2241007" lon="11.4336609"><ele>579.0</ele><time>2026-04-04T07:58:52.229Z</time></trkpt><trkpt lat="44.2240323" lon="11.4337047"><ele>579.0</ele><time>2026-04-04T07:58:53.228Z</time></trkpt><trkpt lat="44.22393" lon="11.4336967"><ele>579.0</ele><time>2026-04-04T07:58:55.228Z</time></trkpt><trkpt lat="44.2238967" lon="11.4335267"><ele>579.0</ele><time>2026-04-04T07:58:57.229Z</time></trkpt><trkpt lat="44.2239233" lon="11.4334133"><ele>579.0</ele><time>2026-04-04T07:58:58.228Z</time></trkpt><trkpt lat="44.2239583" lon="11.433285"><ele>579.0</ele><time>2026-04-04T07:58:59.229Z</time></trkpt><trkpt lat="44.2239867" lon="11.433155"><ele>579.0</ele><time>2026-04-04T07:59:00.229Z</time></trkpt><trkpt lat="44.2239967" lon="11.4330067"><ele>579.0</ele><time>2026-04-04T07:59:01.229Z</time></trkpt><trkpt lat="44.2239817" lon="11.4328567"><ele>579.0</ele><time>2026-04-04T07:59:02.229Z</time></trkpt><trkpt lat="44.22395" lon="11.4326867"><ele>579.0</ele><time>2026-04-04T07:59:03.228Z</time></trkpt><trkpt lat="44.22391" lon="11.4325333"><ele>572.5</ele><time>2026-04-04T07:59:04.228Z</time></trkpt><trkpt lat="44.2238683" lon="11.432375"><ele>566.0</ele><time>2026-04-04T07:59:05.229Z</time></trkpt><trkpt lat="44.2238483" lon="11.4321933"><ele>559.5</ele><time>2026-04-04T07:59:06.229Z</time></trkpt><trkpt lat="44.2238383" lon="11.431985"><ele>553.0</ele><time>2026-04-04T07:59:07.229Z</time></trkpt><trkpt lat="44.22383" lon="11.4317683"><ele>552.0</ele><time>2026-04-04T07:59:08.228Z</time></trkpt><trkpt lat="44.2238283" lon="11.4315617"><ele>551.0</ele><time>2026-04-04T07:59:09.229Z</time></trkpt><trkpt lat="44.2238233" lon="11.431355"><ele>550.0</ele><time>2026-04-04T07:59:10.228Z</time></trkpt><trkpt lat="44.22381" lon="11.4311483"><ele>549.0</ele><time>2026-04-04T07:59:11.229Z</time></trkpt><trkpt lat="44.2237883" lon="11.430955"><ele>547.5</ele><time>2026-04-04T07:59:12.229Z</time></trkpt><trkpt lat="44.2237583" lon="11.4307633"><ele>546.0</ele><time>2026-04-04T07:59:13.228Z</time></trkpt><trkpt lat="44.22373" lon="11.430565"><ele>544.5</ele><time>2026-04-04T07:59:14.228Z</time></trkpt><trkpt lat="44.223705" lon="11.4303717"><ele>543.0</ele><time>2026-04-04T07:59:15.229Z</time></trkpt><trkpt lat="44.2236767" lon="11.4301967"><ele>541.5</ele><time>2026-04-04T07:59:16.229Z</time></trkpt><trkpt lat="44.2236433" lon="11.4300283"><ele>540.0</ele><time>2026-04-04T07:59:17.229Z</time></trkpt><trkpt lat="44.2236233" lon="11.429855"><ele>538.5</ele><time>2026-04-04T07:59:18.228Z</time></trkpt><trkpt lat="44.2236017" lon="11.429675"><ele>537.0</ele><time>2026-04-04T07:59:19.229Z</time></trkpt><trkpt lat="44.2235817" lon="11.429505"><ele>535.8000000000001</ele><time>2026-04-04T07:59:20.229Z</time></trkpt><trkpt lat="44.2235467" lon="11.4293667"><ele>534.6</ele><time>2026-04-04T07:59:21.228Z</time></trkpt><trkpt lat="44.2235167" lon="11.42925"><ele>533.4000000000001</ele><time>2026-04-04T07:59:22.228Z</time></trkpt><trkpt lat="44.2235067" lon="11.4291217"><ele>532.2</ele><time>2026-04-04T07:59:23.229Z</time></trkpt><trkpt lat="44.2235117" lon="11.428965"><ele>531.0</ele><time>2026-04-04T07:59:24.229Z</time></trkpt><trkpt lat="44.22354" lon="11.428795"><ele>529.0</ele><time>2026-04-04T07:59:25.229Z</time></trkpt><trkpt lat="44.22356" lon="11.4286167"><ele>527.0</ele><time>2026-04-04T07:59:26.228Z</time></trkpt><trkpt lat="44.2235733" lon="11.4284633"><ele>525.0</ele><time>2026-04-04T07:59:27.229Z</time></trkpt><trkpt lat="44.2235983" lon="11.4283167"><ele>523.0</ele><time>2026-04-04T07:59:28.229Z</time></trkpt><trkpt lat="44.2236417" lon="11.42818"><ele>523.0</ele><time>2026-04-04T07:59:29.228Z</time></trkpt><trkpt lat="44.2237067" lon="11.4280333"><ele>523.0</ele><time>2026-04-04T07:59:30.228Z</time></trkpt><trkpt lat="44.2237667" lon="11.42789"><ele>523.0</ele><time>2026-04-04T07:59:31.228Z</time></trkpt><trkpt lat="44.22382" lon="11.4277633"><ele>523.0</ele><time>2026-04-04T07:59:32.228Z</time></trkpt><trkpt lat="44.2238733" lon="11.4276567"><ele>523.0</ele><time>2026-04-04T07:59:33.228Z</time></trkpt><trkpt lat="44.2239067" lon="11.42755"><ele>521.4</ele><time>2026-04-04T07:59:34.229Z</time></trkpt><trkpt lat="44.223925" lon="11.4274333"><ele>519.8</ele><time>2026-04-04T07:59:35.228Z</time></trkpt><trkpt lat="44.2239183" lon="11.4273"><ele>518.2</ele><time>2026-04-04T07:59:36.228Z</time></trkpt><trkpt lat="44.223885" lon="11.4271433"><ele>516.6</ele><time>2026-04-04T07:59:37.229Z</time></trkpt><trkpt lat="44.223845" lon="11.4269867"><ele>515.0</ele><time>2026-04-04T07:59:38.229Z</time></trkpt><trkpt lat="44.2237783" lon="11.42684"><ele>514.2</ele><time>2026-04-04T07:59:39.229Z</time></trkpt><trkpt lat="44.2237083" lon="11.4267017"><ele>513.4</ele><time>2026-04-04T07:59:40.229Z</time></trkpt><trkpt lat="44.22366" lon="11.4265783"><ele>512.6</ele><time>2026-04-04T07:59:41.229Z</time></trkpt><trkpt lat="44.2236433" lon="11.4264583"><ele>511.8</ele><time>2026-04-04T07:59:42.228Z</time></trkpt><trkpt lat="44.2236567" lon="11.426325"><ele>511.0</ele><time>2026-04-04T07:59:43.229Z</time></trkpt><trkpt lat="44.2236967" lon="11.4261917"><ele>511.0</ele><time>2026-04-04T07:59:44.229Z</time></trkpt><trkpt lat="44.22374" lon="11.4260583"><ele>511.0</ele><time>2026-04-04T07:59:45.229Z</time></trkpt><trkpt lat="44.2237567" lon="11.425935"><ele>511.0</ele><time>2026-04-04T07:59:46.229Z</time></trkpt><trkpt lat="44.2237517" lon="11.42582"><ele>511.0</ele><time>2026-04-04T07:59:47.229Z</time></trkpt><trkpt lat="44.2237283" lon="11.4257083"><ele>511.0</ele><time>2026-04-04T07:59:48.229Z</time></trkpt><trkpt lat="44.2236633" lon="11.4256217"><ele>511.0</ele><time>2026-04-04T07:59:49.229Z</time></trkpt><trkpt lat="44.2235833" lon="11.42558"><ele>511.0</ele><time>2026-04-04T07:59:50.229Z</time></trkpt><trkpt lat="44.2234817" lon="11.4255767"><ele>511.0</ele><time>2026-04-04T07:59:51.229Z</time></trkpt><trkpt lat="44.2233733" lon="11.4256217"><ele>511.0</ele><time>2026-04-04T07:59:52.228Z</time></trkpt><trkpt lat="44.2232633" lon="11.42568"><ele>511.0</ele><time>2026-04-04T07:59:53.229Z</time></trkpt><trkpt lat="44.2231633" lon="11.42571"><ele>510.20000000000005</ele><time>2026-04-04T07:59:54.228Z</time></trkpt><trkpt lat="44.223065" lon="11.4257083"><ele>509.40000000000003</ele><time>2026-04-04T07:59:55.229Z</time></trkpt><trkpt lat="44.2229683" lon="11.4256783"><ele>508.6</ele><time>2026-04-04T07:59:56.229Z</time></trkpt><trkpt lat="44.22286" lon="11.4256433"><ele>507.8</ele><time>2026-04-04T07:59:57.229Z</time></trkpt><trkpt lat="44.22276" lon="11.4255983"><ele>507.0</ele><time>2026-04-04T07:59:58.229Z</time></trkpt><trkpt lat="44.2226483" lon="11.4255417"><ele>507.0</ele><time>2026-04-04T07:59:59.228Z</time></trkpt><trkpt lat="44.2225497" lon="11.4254833"><ele>507.0</ele><time>2026-04-04T08:00:00.229Z</time></trkpt><trkpt lat="44.2224631" lon="11.4254318"><ele>507.0</ele><time>2026-04-04T08:00:01.229Z</time></trkpt><trkpt lat="44.222386" lon="11.4253956"><ele>507.0</ele><time>2026-04-04T08:00:02.229Z</time></trkpt><trkpt lat="44.2223134" lon="11.4253957"><ele>507.0</ele><time>2026-04-04T08:00:03.228Z</time></trkpt><trkpt lat="44.2222368" lon="11.4254235"><ele>507.0</ele><time>2026-04-04T08:00:04.228Z</time></trkpt><trkpt lat="44.2221733" lon="11.4254858"><ele>507.0</ele><time>2026-04-04T08:00:05.229Z</time></trkpt><trkpt lat="44.2221169" lon="11.4255876"><ele>507.00000000000006</ele><time>2026-04-04T08:00:06.228Z</time></trkpt><trkpt lat="44.2220662" lon="11.4257168"><ele>507.00000000000006</ele><time>2026-04-04T08:00:07.228Z</time></trkpt><trkpt lat="44.2220192" lon="11.4258585"><ele>507.0</ele><time>2026-04-04T08:00:08.229Z</time></trkpt><trkpt lat="44.2219708" lon="11.4259944"><ele>507.0</ele><time>2026-04-04T08:00:09.229Z</time></trkpt><trkpt lat="44.2219209" lon="11.4261296"><ele>507.0</ele><time>2026-04-04T08:00:10.228Z</time></trkpt><trkpt lat="44.2218685" lon="11.426269"><ele>507.00000000000006</ele><time>2026-04-04T08:00:11.229Z</time></trkpt><trkpt lat="44.2218225" lon="11.4264103"><ele>507.00000000000006</ele><time>2026-04-04T08:00:12.229Z</time></trkpt><trkpt lat="44.2217748" lon="11.4265329"><ele>507.0</ele><time>2026-04-04T08:00:13.228Z</time></trkpt><trkpt lat="44.2217279" lon="11.4266502"><ele>507.0</ele><time>2026-04-04T08:00:14.229Z</time></trkpt><trkpt lat="44.2216727" lon="11.4267369"><ele>505.20000000000005</ele><time>2026-04-04T08:00:15.229Z</time></trkpt><trkpt lat="44.2216009" lon="11.4267928"><ele>503.40000000000003</ele><time>2026-04-04T08:00:16.229Z</time></trkpt><trkpt lat="44.2215213" lon="11.4268229"><ele>501.59999999999997</ele><time>2026-04-04T08:00:17.229Z</time></trkpt><trkpt lat="44.2214177" lon="11.4268233"><ele>499.79999999999995</ele><time>2026-04-04T08:00:18.229Z</time></trkpt><trkpt lat="44.2212971" lon="11.4267931"><ele>498.0</ele><time>2026-04-04T08:00:19.228Z</time></trkpt><trkpt lat="44.2211763" lon="11.426747"><ele>497.6666666666667</ele><time>2026-04-04T08:00:20.228Z</time></trkpt><trkpt lat="44.2210697" lon="11.4267057"><ele>497.33333333333337</ele><time>2026-04-04T08:00:21.229Z</time></trkpt><trkpt lat="44.2209768" lon="11.4266739"><ele>497.0</ele><time>2026-04-04T08:00:22.229Z</time></trkpt><trkpt lat="44.2208949" lon="11.4266665"><ele>496.6666666666667</ele><time>2026-04-04T08:00:23.229Z</time></trkpt><trkpt lat="44.2208242" lon="11.4266848"><ele>496.33333333333337</ele><time>2026-04-04T08:00:24.228Z</time></trkpt><trkpt lat="44.2207657" lon="11.4267333"><ele>496.0</ele><time>2026-04-04T08:00:25.229Z</time></trkpt><trkpt lat="44.2207084" lon="11.4268821"><ele>496.00000000000006</ele><time>2026-04-04T08:00:27.228Z</time></trkpt><trkpt lat="44.2207041" lon="11.4269726"><ele>496.0</ele><time>2026-04-04T08:00:28.229Z</time></trkpt><trkpt lat="44.2207113" lon="11.427061"><ele>496.0</ele><time>2026-04-04T08:00:29.229Z</time></trkpt><trkpt lat="44.2207089" lon="11.4271932"><ele>496.0</ele><time>2026-04-04T08:00:31.228Z</time></trkpt><trkpt lat="44.220651" lon="11.4272825"><ele>496.00000000000006</ele><time>2026-04-04T08:00:33.229Z</time></trkpt><trkpt lat="44.2205369" lon="11.4273591"><ele>496.0</ele><time>2026-04-04T08:00:35.228Z</time></trkpt><trkpt lat="44.2204696" lon="11.4274202"><ele>496.20000000000005</ele><time>2026-04-04T08:00:36.229Z</time></trkpt><trkpt lat="44.2203874" lon="11.4274873"><ele>496.40000000000003</ele><time>2026-04-04T08:00:37.229Z</time></trkpt><trkpt lat="44.2202966" lon="11.4275581"><ele>496.6</ele><time>2026-04-04T08:00:38.229Z</time></trkpt><trkpt lat="44.2201998" lon="11.4276147"><ele>496.8</ele><time>2026-04-04T08:00:39.229Z</time></trkpt><trkpt lat="44.2201012" lon="11.4276578"><ele>497.0</ele><time>2026-04-04T08:00:40.229Z</time></trkpt><trkpt lat="44.2200129" lon="11.4276837"><ele>496.99999999999994</ele><time>2026-04-04T08:00:41.229Z</time></trkpt><trkpt lat="44.2199363" lon="11.4276829"><ele>497.0</ele><time>2026-04-04T08:00:42.229Z</time></trkpt><trkpt lat="44.2198631" lon="11.4276584"><ele>497.0</ele><time>2026-04-04T08:00:43.229Z</time></trkpt><trkpt lat="44.2198049" lon="11.4276025"><ele>497.0</ele><time>2026-04-04T08:00:44.229Z</time></trkpt><trkpt lat="44.219758" lon="11.4275275"><ele>496.99999999999994</ele><time>2026-04-04T08:00:45.229Z</time></trkpt><trkpt lat="44.2197216" lon="11.4274261"><ele>497.0</ele><time>2026-04-04T08:00:46.229Z</time></trkpt><trkpt lat="44.2197009" lon="11.4273059"><ele>497.6</ele><time>2026-04-04T08:00:47.228Z</time></trkpt><trkpt lat="44.2196955" lon="11.4271872"><ele>498.20000000000005</ele><time>2026-04-04T08:00:48.228Z</time></trkpt><trkpt lat="44.2197078" lon="11.4270632"><ele>498.8</ele><time>2026-04-04T08:00:49.229Z</time></trkpt><trkpt lat="44.2197392" lon="11.4269413"><ele>499.4</ele><time>2026-04-04T08:00:50.228Z</time></trkpt><trkpt lat="44.2197772" lon="11.426802"><ele>500.0</ele><time>2026-04-04T08:00:51.228Z</time></trkpt><trkpt lat="44.2198149" lon="11.4266479"><ele>500.75</ele><time>2026-04-04T08:00:52.229Z</time></trkpt><trkpt lat="44.2198385" lon="11.4264822"><ele>501.5</ele><time>2026-04-04T08:00:53.228Z</time></trkpt><trkpt lat="44.2198564" lon="11.4263045"><ele>502.25</ele><time>2026-04-04T08:00:54.229Z</time></trkpt><trkpt lat="44.2198695" lon="11.4261152"><ele>503.0</ele><time>2026-04-04T08:00:55.229Z</time></trkpt><trkpt lat="44.219879" lon="11.4259268"><ele>504.75</ele><time>2026-04-04T08:00:56.229Z</time></trkpt><trkpt lat="44.2198869" lon="11.4257337"><ele>506.5</ele><time>2026-04-04T08:00:57.229Z</time></trkpt><trkpt lat="44.2198795" lon="11.425543"><ele>508.25</ele><time>2026-04-04T08:00:58.228Z</time></trkpt><trkpt lat="44.2198643" lon="11.4253552"><ele>510.0</ele><time>2026-04-04T08:00:59.229Z</time></trkpt><trkpt lat="44.2198611" lon="11.4251757"><ele>513.0</ele><time>2026-04-04T08:01:00.228Z</time></trkpt><trkpt lat="44.2198738" lon="11.4250077"><ele>516.0</ele><time>2026-04-04T08:01:01.229Z</time></trkpt><trkpt lat="44.21989" lon="11.4248488"><ele>519.0</ele><time>2026-04-04T08:01:02.229Z</time></trkpt><trkpt lat="44.2199022" lon="11.4246933"><ele>522.0</ele><time>2026-04-04T08:01:03.228Z</time></trkpt><trkpt lat="44.219916" lon="11.4245329"><ele>524.5</ele><time>2026-04-04T08:01:04.228Z</time></trkpt><trkpt lat="44.2199281" lon="11.4243682"><ele>527.0</ele><time>2026-04-04T08:01:05.228Z</time></trkpt><trkpt lat="44.2199505" lon="11.4241829"><ele>529.5</ele><time>2026-04-04T08:01:06.228Z</time></trkpt><trkpt lat="44.2199669" lon="11.4240117"><ele>532.0</ele><time>2026-04-04T08:01:07.229Z</time></trkpt><trkpt lat="44.2199785" lon="11.4238699"><ele>533.3333333333334</ele><time>2026-04-04T08:01:08.229Z</time></trkpt><trkpt lat="44.2199784" lon="11.423755"><ele>534.6666666666667</ele><time>2026-04-04T08:01:09.229Z</time></trkpt><trkpt lat="44.2199619" lon="11.4236505"><ele>536.0</ele><time>2026-04-04T08:01:10.229Z</time></trkpt><trkpt lat="44.2199227" lon="11.423555"><ele>537.3333333333334</ele><time>2026-04-04T08:01:11.229Z</time></trkpt><trkpt lat="44.2198647" lon="11.4234687"><ele>538.6666666666666</ele><time>2026-04-04T08:01:12.229Z</time></trkpt><trkpt lat="44.2197942" lon="11.4233969"><ele>540.0</ele><time>2026-04-04T08:01:13.229Z</time></trkpt><trkpt lat="44.2197172" lon="11.423319"><ele>540.0</ele><time>2026-04-04T08:01:14.229Z</time></trkpt><trkpt lat="44.2196609" lon="11.423229"><ele>540.0</ele><time>2026-04-04T08:01:15.229Z</time></trkpt><trkpt lat="44.2196262" lon="11.4231213"><ele>540.0</ele><time>2026-04-04T08:01:16.229Z</time></trkpt><trkpt lat="44.219618" lon="11.422996"><ele>540.0</ele><time>2026-04-04T08:01:17.228Z</time></trkpt><trkpt lat="44.2196369" lon="11.4228559"><ele>540.0</ele><time>2026-04-04T08:01:18.229Z</time></trkpt><trkpt lat="44.2196773" lon="11.422709"><ele>541.2</ele><time>2026-04-04T08:01:19.229Z</time></trkpt><trkpt lat="44.2197153" lon="11.4225625"><ele>542.4</ele><time>2026-04-04T08:01:20.228Z</time></trkpt><trkpt lat="44.2197535" lon="11.422427"><ele>543.6</ele><time>2026-04-04T08:01:21.228Z</time></trkpt><trkpt lat="44.2197967" lon="11.4223267"><ele>544.8</ele><time>2026-04-04T08:01:22.229Z</time></trkpt><trkpt lat="44.2198557" lon="11.4222455"><ele>546.0</ele><time>2026-04-04T08:01:23.229Z</time></trkpt><trkpt lat="44.2199223" lon="11.4221657"><ele>548.0</ele><time>2026-04-04T08:01:24.229Z</time></trkpt><trkpt lat="44.2199957" lon="11.4220579"><ele>550.0</ele><time>2026-04-04T08:01:25.228Z</time></trkpt><trkpt lat="44.2200513" lon="11.4219335"><ele>552.0</ele><time>2026-04-04T08:01:26.229Z</time></trkpt><trkpt lat="44.2200886" lon="11.4217933"><ele>554.0</ele><time>2026-04-04T08:01:27.229Z</time></trkpt><trkpt lat="44.2201091" lon="11.4216496"><ele>556.0</ele><time>2026-04-04T08:01:28.228Z</time></trkpt><trkpt lat="44.2201274" lon="11.4214971"><ele>556.0</ele><time>2026-04-04T08:01:29.228Z</time></trkpt><trkpt lat="44.2201476" lon="11.4213475"><ele>556.0</ele><time>2026-04-04T08:01:30.228Z</time></trkpt><trkpt lat="44.2201602" lon="11.4212098"><ele>556.0</ele><time>2026-04-04T08:01:31.229Z</time></trkpt><trkpt lat="44.2201504" lon="11.4210832"><ele>556.0</ele><time>2026-04-04T08:01:32.229Z</time></trkpt><trkpt lat="44.2201157" lon="11.420953"><ele>556.0</ele><time>2026-04-04T08:01:33.229Z</time></trkpt><trkpt lat="44.2200771" lon="11.4208134"><ele>558.0</ele><time>2026-04-04T08:01:34.229Z</time></trkpt><trkpt lat="44.2200477" lon="11.4206549"><ele>560.0</ele><time>2026-04-04T08:01:35.229Z</time></trkpt><trkpt lat="44.2200187" lon="11.4204798"><ele>562.0</ele><time>2026-04-04T08:01:36.229Z</time></trkpt><trkpt lat="44.2199854" lon="11.420302"><ele>564.0</ele><time>2026-04-04T08:01:37.228Z</time></trkpt><trkpt lat="44.2199634" lon="11.420137"><ele>565.4</ele><time>2026-04-04T08:01:38.229Z</time></trkpt><trkpt lat="44.2199503" lon="11.4199851"><ele>566.8</ele><time>2026-04-04T08:01:39.228Z</time></trkpt><trkpt lat="44.2199412" lon="11.4198361"><ele>568.2</ele><time>2026-04-04T08:01:40.228Z</time></trkpt><trkpt lat="44.2199348" lon="11.4196871"><ele>569.6</ele><time>2026-04-04T08:01:41.228Z</time></trkpt><trkpt lat="44.2199267" lon="11.4195563"><ele>571.0</ele><time>2026-04-04T08:01:42.229Z</time></trkpt><trkpt lat="44.2199178" lon="11.41942"><ele>573.0</ele><time>2026-04-04T08:01:43.229Z</time></trkpt><trkpt lat="44.219909" lon="11.4192918"><ele>575.0</ele><time>2026-04-04T08:01:44.229Z</time></trkpt><trkpt lat="44.2198999" lon="11.4191817"><ele>577.0</ele><time>2026-04-04T08:01:45.229Z</time></trkpt><trkpt lat="44.2198777" lon="11.4190491"><ele>579.0</ele><time>2026-04-04T08:01:47.229Z</time></trkpt><trkpt lat="44.2198062" lon="11.4190113"><ele>581.0</ele><time>2026-04-04T08:02:02.229Z</time></trkpt><trkpt lat="44.2196877" lon="11.4190527"><ele>581.6666666666666</ele><time>2026-04-04T08:02:04.229Z</time></trkpt><trkpt lat="44.2196246" lon="11.4190891"><ele>582.3333333333333</ele><time>2026-04-04T08:02:05.229Z</time></trkpt><trkpt lat="44.2195653" lon="11.4191207"><ele>583.0</ele><time>2026-04-04T08:02:06.229Z</time></trkpt><trkpt lat="44.2194647" lon="11.4191574"><ele>583.6666666666666</ele><time>2026-04-04T08:02:08.229Z</time></trkpt><trkpt lat="44.2193934" lon="11.4192183"><ele>584.3333333333334</ele><time>2026-04-04T08:02:11.228Z</time></trkpt><trkpt lat="44.2193668" lon="11.4193215"><ele>585.0</ele><time>2026-04-04T08:02:13.228Z</time></trkpt><trkpt lat="44.2193191" lon="11.4194107"><ele>585.0</ele><time>2026-04-04T08:02:15.228Z</time></trkpt><trkpt lat="44.2192475" lon="11.4194697"><ele>585.0</ele><time>2026-04-04T08:02:17.228Z</time></trkpt><trkpt lat="44.219172" lon="11.4195522"><ele>585.0</ele><time>2026-04-04T08:02:19.229Z</time></trkpt><trkpt lat="44.2190702" lon="11.4195959"><ele>585.0</ele><time>2026-04-04T08:02:21.229Z</time></trkpt><trkpt lat="44.2189986" lon="11.4195943"><ele>585.0</ele><time>2026-04-04T08:02:22.229Z</time></trkpt><trkpt lat="44.218916" lon="11.4195857"><ele>585.0</ele><time>2026-04-04T08:02:23.228Z</time></trkpt><trkpt lat="44.2188257" lon="11.4195769"><ele>586.1666666666666</ele><time>2026-04-04T08:02:24.228Z</time></trkpt><trkpt lat="44.2187376" lon="11.4195728"><ele>587.3333333333334</ele><time>2026-04-04T08:02:25.229Z</time></trkpt><trkpt lat="44.218646" lon="11.4195684"><ele>588.5</ele><time>2026-04-04T08:02:26.229Z</time></trkpt><trkpt lat="44.2185554" lon="11.4195484"><ele>589.6666666666667</ele><time>2026-04-04T08:02:27.228Z</time></trkpt><trkpt lat="44.2184652" lon="11.4195295"><ele>590.8333333333334</ele><time>2026-04-04T08:02:28.229Z</time></trkpt><trkpt lat="44.2183832" lon="11.4195182"><ele>592.0</ele><time>2026-04-04T08:02:29.228Z</time></trkpt><trkpt lat="44.2183063" lon="11.4195275"><ele>592.0</ele><time>2026-04-04T08:02:30.229Z</time></trkpt><trkpt lat="44.2182272" lon="11.4195662"><ele>592.0</ele><time>2026-04-04T08:02:31.229Z</time></trkpt><trkpt lat="44.2181406" lon="11.4196351"><ele>592.0</ele><time>2026-04-04T08:02:32.229Z</time></trkpt><trkpt lat="44.2180473" lon="11.4197186"><ele>592.0</ele><time>2026-04-04T08:02:33.229Z</time></trkpt><trkpt lat="44.217948" lon="11.4197959"><ele>592.0</ele><time>2026-04-04T08:02:34.229Z</time></trkpt><trkpt lat="44.2178509" lon="11.4198709"><ele>593.0</ele><time>2026-04-04T08:02:35.229Z</time></trkpt><trkpt lat="44.2177711" lon="11.4199421"><ele>594.0</ele><time>2026-04-04T08:02:36.229Z</time></trkpt><trkpt lat="44.2177101" lon="11.420007"><ele>595.0</ele><time>2026-04-04T08:02:37.229Z</time></trkpt><trkpt lat="44.2176591" lon="11.4200666"><ele>596.0</ele><time>2026-04-04T08:02:38.229Z</time></trkpt><trkpt lat="44.2175939" lon="11.4201114"><ele>597.0</ele><time>2026-04-04T08:02:39.228Z</time></trkpt><trkpt lat="44.2175159" lon="11.4201639"><ele>598.0</ele><time>2026-04-04T08:02:40.229Z</time></trkpt><trkpt lat="44.2174337" lon="11.4202068"><ele>598.0</ele><time>2026-04-04T08:02:41.229Z</time></trkpt><trkpt lat="44.2173692" lon="11.420225"><ele>598.0</ele><time>2026-04-04T08:02:42.229Z</time></trkpt><trkpt lat="44.2173483" lon="11.4200767"><ele>598.0</ele><time>2026-04-04T08:09:16.23Z</time></trkpt><trkpt lat="44.21735" lon="11.4199067"><ele>598.0</ele><time>2026-04-04T08:09:18.23Z</time></trkpt><trkpt lat="44.21735" lon="11.4198033"><ele>598.0</ele><time>2026-04-04T08:09:19.23Z</time></trkpt><trkpt lat="44.217355" lon="11.4196883"><ele>599.6666666666667</ele><time>2026-04-04T08:09:20.23Z</time></trkpt><trkpt lat="44.2173567" lon="11.4195667"><ele>601.3333333333334</ele><time>2026-04-04T08:09:21.23Z</time></trkpt><trkpt lat="44.2173483" lon="11.41945"><ele>603.0</ele><time>2026-04-04T08:09:22.23Z</time></trkpt><trkpt lat="44.21733" lon="11.41935"><ele>604.6666666666666</ele><time>2026-04-04T08:09:23.229Z</time></trkpt><trkpt lat="44.217315" lon="11.4192383"><ele>606.3333333333333</ele><time>2026-04-04T08:09:24.23Z</time></trkpt><trkpt lat="44.217285" lon="11.4191433"><ele>608.0</ele><time>2026-04-04T08:09:25.229Z</time></trkpt><trkpt lat="44.2172467" lon="11.419045"><ele>608.8</ele><time>2026-04-04T08:09:26.229Z</time></trkpt><trkpt lat="44.2171917" lon="11.418945"><ele>609.5999999999999</ele><time>2026-04-04T08:09:27.229Z</time></trkpt><trkpt lat="44.217135" lon="11.4188367"><ele>610.4000000000001</ele><time>2026-04-04T08:09:28.23Z</time></trkpt><trkpt lat="44.2170717" lon="11.4187333"><ele>611.2</ele><time>2026-04-04T08:09:29.229Z</time></trkpt><trkpt lat="44.2170167" lon="11.4186433"><ele>612.0</ele><time>2026-04-04T08:09:30.229Z</time></trkpt><trkpt lat="44.2169683" lon="11.4185467"><ele>615.2</ele><time>2026-04-04T08:09:31.229Z</time></trkpt><trkpt lat="44.216925" lon="11.4184383"><ele>618.4000000000001</ele><time>2026-04-04T08:09:32.23Z</time></trkpt><trkpt lat="44.2169017" lon="11.4183117"><ele>621.5999999999999</ele><time>2026-04-04T08:09:33.229Z</time></trkpt><trkpt lat="44.216885" lon="11.4181817"><ele>624.8</ele><time>2026-04-04T08:09:34.229Z</time></trkpt><trkpt lat="44.216885" lon="11.418055"><ele>628.0</ele><time>2026-04-04T08:09:35.23Z</time></trkpt><trkpt lat="44.2169017" lon="11.4179333"><ele>630.1666666666667</ele><time>2026-04-04T08:09:36.23Z</time></trkpt><trkpt lat="44.2169167" lon="11.417815"><ele>632.3333333333334</ele><time>2026-04-04T08:09:37.23Z</time></trkpt><trkpt lat="44.2169217" lon="11.41771"><ele>634.5</ele><time>2026-04-04T08:09:38.229Z</time></trkpt><trkpt lat="44.2169067" lon="11.417605"><ele>636.6666666666666</ele><time>2026-04-04T08:09:39.23Z</time></trkpt><trkpt lat="44.2168833" lon="11.4175"><ele>638.8333333333333</ele><time>2026-04-04T08:09:40.229Z</time></trkpt><trkpt lat="44.2168483" lon="11.4174017"><ele>641.0</ele><time>2026-04-04T08:09:41.23Z</time></trkpt><trkpt lat="44.2167867" lon="11.4173083"><ele>641.0</ele><time>2026-04-04T08:09:42.23Z</time></trkpt><trkpt lat="44.2167167" lon="11.4172283"><ele>641.0</ele><time>2026-04-04T08:09:43.23Z</time></trkpt><trkpt lat="44.2166567" lon="11.4171683"><ele>641.0</ele><time>2026-04-04T08:09:44.229Z</time></trkpt><trkpt lat="44.2166" lon="11.41711"><ele>641.0</ele><time>2026-04-04T08:09:45.23Z</time></trkpt><trkpt lat="44.2165367" lon="11.417065"><ele>641.0</ele><time>2026-04-04T08:09:46.229Z</time></trkpt><trkpt lat="44.2164517" lon="11.41703"><ele>641.0</ele><time>2026-04-04T08:09:47.23Z</time></trkpt><trkpt lat="44.2163617" lon="11.416985"><ele>643.8</ele><time>2026-04-04T08:09:48.229Z</time></trkpt><trkpt lat="44.2162683" lon="11.41694"><ele>646.5999999999999</ele><time>2026-04-04T08:09:49.229Z</time></trkpt><trkpt lat="44.21619" lon="11.4169017"><ele>649.4</ele><time>2026-04-04T08:09:50.23Z</time></trkpt><trkpt lat="44.21608" lon="11.416845"><ele>652.2</ele><time>2026-04-04T08:09:52.229Z</time></trkpt><trkpt lat="44.2159517" lon="11.4168583"><ele>655.0</ele><time>2026-04-04T08:09:54.23Z</time></trkpt><trkpt lat="44.2158633" lon="11.4168983"><ele>655.0</ele><time>2026-04-04T08:09:55.23Z</time></trkpt><trkpt lat="44.2157767" lon="11.4169267"><ele>655.0</ele><time>2026-04-04T08:09:56.23Z</time></trkpt><trkpt lat="44.2156917" lon="11.416915"><ele>655.0</ele><time>2026-04-04T08:09:57.23Z</time></trkpt><trkpt lat="44.215615" lon="11.416875"><ele>655.0</ele><time>2026-04-04T08:09:58.23Z</time></trkpt><trkpt lat="44.215525" lon="11.4168083"><ele>655.0</ele><time>2026-04-04T08:09:59.23Z</time></trkpt><trkpt lat="44.21543" lon="11.4167333"><ele>654.8333333333334</ele><time>2026-04-04T08:10:00.23Z</time></trkpt><trkpt lat="44.2153417" lon="11.416685"><ele>654.6666666666667</ele><time>2026-04-04T08:10:01.229Z</time></trkpt><trkpt lat="44.2152683" lon="11.4166633"><ele>654.5</ele><time>2026-04-04T08:10:02.23Z</time></trkpt><trkpt lat="44.2151967" lon="11.4166883"><ele>654.3333333333334</ele><time>2026-04-04T08:10:03.23Z</time></trkpt><trkpt lat="44.2151233" lon="11.4167433"><ele>654.1666666666666</ele><time>2026-04-04T08:10:04.23Z</time></trkpt><trkpt lat="44.2150383" lon="11.4168233"><ele>654.0</ele><time>2026-04-04T08:10:05.229Z</time></trkpt><trkpt lat="44.2149483" lon="11.4169017"><ele>654.0</ele><time>2026-04-04T08:10:06.229Z</time></trkpt><trkpt lat="44.2148517" lon="11.416965"><ele>654.0</ele><time>2026-04-04T08:10:07.23Z</time></trkpt><trkpt lat="44.214755" lon="11.4170283"><ele>654.0</ele><time>2026-04-04T08:10:08.23Z</time></trkpt><trkpt lat="44.2146617" lon="11.41712"><ele>654.0</ele><time>2026-04-04T08:10:09.229Z</time></trkpt><trkpt lat="44.2145717" lon="11.4172333"><ele>654.0</ele><time>2026-04-04T08:10:10.229Z</time></trkpt><trkpt lat="44.2144883" lon="11.4173533"><ele>651.0</ele><time>2026-04-04T08:10:11.23Z</time></trkpt><trkpt lat="44.2144167" lon="11.4174733"><ele>648.0</ele><time>2026-04-04T08:10:12.23Z</time></trkpt><trkpt lat="44.2143433" lon="11.41759"><ele>645.0</ele><time>2026-04-04T08:10:13.23Z</time></trkpt><trkpt lat="44.2142633" lon="11.4177017"><ele>642.0</ele><time>2026-04-04T08:10:14.23Z</time></trkpt><trkpt lat="44.2141783" lon="11.4178033"><ele>639.0</ele><time>2026-04-04T08:10:15.229Z</time></trkpt><trkpt lat="44.2140767" lon="11.4179"><ele>634.75</ele><time>2026-04-04T08:10:16.23Z</time></trkpt><trkpt lat="44.21397" lon="11.4179983"><ele>630.5</ele><time>2026-04-04T08:10:17.23Z</time></trkpt><trkpt lat="44.2138633" lon="11.4181033"><ele>626.25</ele><time>2026-04-04T08:10:18.23Z</time></trkpt><trkpt lat="44.21376" lon="11.4182033"><ele>622.0</ele><time>2026-04-04T08:10:19.23Z</time></trkpt><trkpt lat="44.2136567" lon="11.418295"><ele>622.0</ele><time>2026-04-04T08:10:20.229Z</time></trkpt><trkpt lat="44.2135683" lon="11.4183833"><ele>622.0</ele><time>2026-04-04T08:10:21.23Z</time></trkpt><trkpt lat="44.2135" lon="11.4184967"><ele>622.0</ele><time>2026-04-04T08:10:22.229Z</time></trkpt><trkpt lat="44.2134483" lon="11.4186283"><ele>622.0</ele><time>2026-04-04T08:10:23.23Z</time></trkpt><trkpt lat="44.213395" lon="11.41877"><ele>622.0</ele><time>2026-04-04T08:10:24.229Z</time></trkpt><trkpt lat="44.2133517" lon="11.418915"><ele>620.8000000000001</ele><time>2026-04-04T08:10:25.23Z</time></trkpt><trkpt lat="44.2133117" lon="11.4190433"><ele>619.6</ele><time>2026-04-04T08:10:26.23Z</time></trkpt><trkpt lat="44.21326" lon="11.41917"><ele>618.4000000000001</ele><time>2026-04-04T08:10:27.23Z</time></trkpt><trkpt lat="44.2131833" lon="11.4192917"><ele>617.2</ele><time>2026-04-04T08:10:28.229Z</time></trkpt><trkpt lat="44.213105" lon="11.41941"><ele>616.0</ele><time>2026-04-04T08:10:29.229Z</time></trkpt><trkpt lat="44.213025" lon="11.41952"><ele>615.6</ele><time>2026-04-04T08:10:30.229Z</time></trkpt><trkpt lat="44.2129367" lon="11.4196217"><ele>615.2</ele><time>2026-04-04T08:10:31.23Z</time></trkpt><trkpt lat="44.212855" lon="11.419725"><ele>614.8</ele><time>2026-04-04T08:10:32.23Z</time></trkpt><trkpt lat="44.2127717" lon="11.4198333"><ele>614.4</ele><time>2026-04-04T08:10:33.229Z</time></trkpt><trkpt lat="44.2126933" lon="11.4199383"><ele>614.0</ele><time>2026-04-04T08:10:34.229Z</time></trkpt><trkpt lat="44.2126167" lon="11.4200433"><ele>613.0</ele><time>2026-04-04T08:10:35.229Z</time></trkpt><trkpt lat="44.2125333" lon="11.4201433"><ele>612.0</ele><time>2026-04-04T08:10:36.229Z</time></trkpt><trkpt lat="44.212435" lon="11.420225"><ele>611.0</ele><time>2026-04-04T08:10:37.229Z</time></trkpt><trkpt lat="44.212335" lon="11.4202883"><ele>610.0</ele><time>2026-04-04T08:10:38.229Z</time></trkpt><trkpt lat="44.2122367" lon="11.4203417"><ele>609.0</ele><time>2026-04-04T08:10:39.229Z</time></trkpt><trkpt lat="44.2121367" lon="11.4203817"><ele>607.4</ele><time>2026-04-04T08:10:40.229Z</time></trkpt><trkpt lat="44.2120367" lon="11.4204017"><ele>605.8</ele><time>2026-04-04T08:10:41.23Z</time></trkpt><trkpt lat="44.2119283" lon="11.420395"><ele>604.2</ele><time>2026-04-04T08:10:42.229Z</time></trkpt><trkpt lat="44.211825" lon="11.4203583"><ele>602.6</ele><time>2026-04-04T08:10:43.229Z</time></trkpt><trkpt lat="44.21172" lon="11.4203167"><ele>601.0</ele><time>2026-04-04T08:10:44.23Z</time></trkpt><trkpt lat="44.211625" lon="11.42027"><ele>601.0</ele><time>2026-04-04T08:10:45.23Z</time></trkpt><trkpt lat="44.2115333" lon="11.4202633"><ele>601.0</ele><time>2026-04-04T08:10:46.23Z</time></trkpt><trkpt lat="44.2114417" lon="11.4203033"><ele>601.0</ele><time>2026-04-04T08:10:47.23Z</time></trkpt><trkpt lat="44.2113417" lon="11.4203783"><ele>601.0</ele><time>2026-04-04T08:10:48.23Z</time></trkpt><trkpt lat="44.211245" lon="11.4204617"><ele>601.0</ele><time>2026-04-04T08:10:49.23Z</time></trkpt><trkpt lat="44.211145" lon="11.4205433"><ele>596.4</ele><time>2026-04-04T08:10:50.229Z</time></trkpt><trkpt lat="44.2110483" lon="11.4206233"><ele>591.8</ele><time>2026-04-04T08:10:51.23Z</time></trkpt><trkpt lat="44.2109667" lon="11.42072"><ele>587.1999999999999</ele><time>2026-04-04T08:10:52.23Z</time></trkpt><trkpt lat="44.210905" lon="11.420835"><ele>582.6</ele><time>2026-04-04T08:10:53.23Z</time></trkpt><trkpt lat="44.210845" lon="11.4209583"><ele>578.0</ele><time>2026-04-04T08:10:54.23Z</time></trkpt><trkpt lat="44.2107967" lon="11.421075"><ele>578.0</ele><time>2026-04-04T08:10:55.23Z</time></trkpt><trkpt lat="44.21073" lon="11.42117"><ele>578.0</ele><time>2026-04-04T08:10:56.23Z</time></trkpt><trkpt lat="44.2106483" lon="11.4212467"><ele>578.0</ele><time>2026-04-04T08:10:57.229Z</time></trkpt><trkpt lat="44.2105667" lon="11.421295"><ele>578.0</ele><time>2026-04-04T08:10:58.23Z</time></trkpt><trkpt lat="44.2104833" lon="11.4213183"><ele>578.0</ele><time>2026-04-04T08:10:59.229Z</time></trkpt><trkpt lat="44.210405" lon="11.421315"><ele>578.0</ele><time>2026-04-04T08:11:00.23Z</time></trkpt><trkpt lat="44.210315" lon="11.421275"><ele>575.1999999999999</ele><time>2026-04-04T08:11:01.229Z</time></trkpt><trkpt lat="44.21022" lon="11.4212317"><ele>572.4</ele><time>2026-04-04T08:11:02.23Z</time></trkpt><trkpt lat="44.2101417" lon="11.4211783"><ele>569.5999999999999</ele><time>2026-04-04T08:11:03.23Z</time></trkpt><trkpt lat="44.21006" lon="11.42111"><ele>566.8</ele><time>2026-04-04T08:11:04.23Z</time></trkpt><trkpt lat="44.209975" lon="11.421005"><ele>564.0</ele><time>2026-04-04T08:11:05.23Z</time></trkpt><trkpt lat="44.2098867" lon="11.4208883"><ele>559.5</ele><time>2026-04-04T08:11:06.23Z</time></trkpt><trkpt lat="44.2097883" lon="11.4207867"><ele>555.0</ele><time>2026-04-04T08:11:07.229Z</time></trkpt><trkpt lat="44.2096817" lon="11.4207083"><ele>550.5</ele><time>2026-04-04T08:11:08.23Z</time></trkpt><trkpt lat="44.2095667" lon="11.420655"><ele>546.0</ele><time>2026-04-04T08:11:09.23Z</time></trkpt><trkpt lat="44.2094517" lon="11.4206217"><ele>546.0</ele><time>2026-04-04T08:11:10.23Z</time></trkpt><trkpt lat="44.2093417" lon="11.4206083"><ele>546.0</ele><time>2026-04-04T08:11:11.23Z</time></trkpt><trkpt lat="44.2092433" lon="11.4206083"><ele>546.0</ele><time>2026-04-04T08:11:12.229Z</time></trkpt><trkpt lat="44.2091617" lon="11.4205783"><ele>546.0</ele><time>2026-04-04T08:11:13.23Z</time></trkpt><trkpt lat="44.2090867" lon="11.4205267"><ele>546.0</ele><time>2026-04-04T08:11:14.23Z</time></trkpt><trkpt lat="44.2090133" lon="11.4204517"><ele>546.6666666666666</ele><time>2026-04-04T08:11:15.229Z</time></trkpt><trkpt lat="44.2089483" lon="11.4203617"><ele>547.3333333333334</ele><time>2026-04-04T08:11:16.23Z</time></trkpt><trkpt lat="44.2088967" lon="11.4202683"><ele>548.0</ele><time>2026-04-04T08:11:17.229Z</time></trkpt><trkpt lat="44.2088767" lon="11.4201667"><ele>548.6666666666667</ele><time>2026-04-04T08:11:18.229Z</time></trkpt><trkpt lat="44.2088917" lon="11.42005"><ele>549.3333333333334</ele><time>2026-04-04T08:11:19.229Z</time></trkpt><trkpt lat="44.208935" lon="11.4199267"><ele>550.0</ele><time>2026-04-04T08:11:20.23Z</time></trkpt><trkpt lat="44.2089817" lon="11.4198233"><ele>549.4</ele><time>2026-04-04T08:11:21.229Z</time></trkpt><trkpt lat="44.209015" lon="11.4197167"><ele>548.8</ele><time>2026-04-04T08:11:22.23Z</time></trkpt><trkpt lat="44.2090133" lon="11.4196183"><ele>548.2</ele><time>2026-04-04T08:11:23.23Z</time></trkpt><trkpt lat="44.20896" lon="11.419485"><ele>547.6</ele><time>2026-04-04T08:11:25.23Z</time></trkpt><trkpt lat="44.2088617" lon="11.419475"><ele>547.0</ele><time>2026-04-04T08:11:27.229Z</time></trkpt><trkpt lat="44.208745" lon="11.4194667"><ele>547.4285714285714</ele><time>2026-04-04T08:11:29.23Z</time></trkpt><trkpt lat="44.2086767" lon="11.41949"><ele>547.8571428571428</ele><time>2026-04-04T08:11:30.229Z</time></trkpt><trkpt lat="44.2086067" lon="11.4195317"><ele>548.2857142857142</ele><time>2026-04-04T08:11:31.23Z</time></trkpt><trkpt lat="44.2085433" lon="11.4195983"><ele>548.7142857142857</ele><time>2026-04-04T08:11:32.23Z</time></trkpt><trkpt lat="44.2084883" lon="11.4196667"><ele>549.1428571428571</ele><time>2026-04-04T08:11:33.229Z</time></trkpt><trkpt lat="44.2084333" lon="11.419715"><ele>549.5714285714286</ele><time>2026-04-04T08:11:34.23Z</time></trkpt><trkpt lat="44.2083817" lon="11.4197667"><ele>550.0</ele><time>2026-04-04T08:11:35.23Z</time></trkpt><trkpt lat="44.2083417" lon="11.4198467"><ele>550.0</ele><time>2026-04-04T08:11:36.23Z</time></trkpt><trkpt lat="44.2083167" lon="11.4199633"><ele>550.0</ele><time>2026-04-04T08:11:37.23Z</time></trkpt><trkpt lat="44.2083233" lon="11.4200933"><ele>550.0</ele><time>2026-04-04T08:11:38.229Z</time></trkpt><trkpt lat="44.2083467" lon="11.4202583"><ele>550.0</ele><time>2026-04-04T08:11:39.229Z</time></trkpt><trkpt lat="44.2083733" lon="11.4204283"><ele>550.0</ele><time>2026-04-04T08:11:40.23Z</time></trkpt><trkpt lat="44.208395" lon="11.4206133"><ele>551.0</ele><time>2026-04-04T08:11:41.23Z</time></trkpt><trkpt lat="44.2084117" lon="11.4207933"><ele>552.0</ele><time>2026-04-04T08:11:42.23Z</time></trkpt><trkpt lat="44.20841" lon="11.4209717"><ele>553.0</ele><time>2026-04-04T08:11:43.23Z</time></trkpt><trkpt lat="44.2083967" lon="11.42115"><ele>554.0</ele><time>2026-04-04T08:11:44.23Z</time></trkpt><trkpt lat="44.20839" lon="11.4213333"><ele>554.75</ele><time>2026-04-04T08:11:45.23Z</time></trkpt><trkpt lat="44.20839" lon="11.4215283"><ele>555.5</ele><time>2026-04-04T08:11:46.229Z</time></trkpt><trkpt lat="44.208405" lon="11.42173"><ele>556.25</ele><time>2026-04-04T08:11:47.23Z</time></trkpt><trkpt lat="44.20842" lon="11.4219383"><ele>557.0</ele><time>2026-04-04T08:11:48.229Z</time></trkpt><trkpt lat="44.2084433" lon="11.4221383"><ele>560.25</ele><time>2026-04-04T08:11:49.229Z</time></trkpt><trkpt lat="44.2084683" lon="11.4223367"><ele>563.5</ele><time>2026-04-04T08:11:50.23Z</time></trkpt><trkpt lat="44.2084917" lon="11.422535"><ele>566.75</ele><time>2026-04-04T08:11:51.23Z</time></trkpt><trkpt lat="44.2085117" lon="11.4227267"><ele>570.0</ele><time>2026-04-04T08:11:52.23Z</time></trkpt><trkpt lat="44.2085333" lon="11.422915"><ele>571.5</ele><time>2026-04-04T08:11:53.23Z</time></trkpt><trkpt lat="44.2085517" lon="11.4231033"><ele>573.0</ele><time>2026-04-04T08:11:54.23Z</time></trkpt><trkpt lat="44.2085733" lon="11.42328"><ele>574.5</ele><time>2026-04-04T08:11:55.23Z</time></trkpt><trkpt lat="44.20859" lon="11.4234333"><ele>576.0</ele><time>2026-04-04T08:11:56.23Z</time></trkpt><trkpt lat="44.2086" lon="11.4235533"><ele>576.0</ele><time>2026-04-04T08:11:57.229Z</time></trkpt><trkpt lat="44.2086017" lon="11.4236617"><ele>576.0</ele><time>2026-04-04T08:11:58.23Z</time></trkpt><trkpt lat="44.2085917" lon="11.4237517"><ele>576.0</ele><time>2026-04-04T08:11:59.23Z</time></trkpt><trkpt lat="44.2085483" lon="11.4238867"><ele>576.0</ele><time>2026-04-04T08:12:01.23Z</time></trkpt><trkpt lat="44.2084933" lon="11.4240517"><ele>576.0</ele><time>2026-04-04T08:12:03.23Z</time></trkpt><trkpt lat="44.2084633" lon="11.42417"><ele>576.0</ele><time>2026-04-04T08:12:04.229Z</time></trkpt><trkpt lat="44.20844" lon="11.4242817"><ele>576.0</ele><time>2026-04-04T08:12:05.23Z</time></trkpt><trkpt lat="44.2084333" lon="11.4243767"><ele>576.0</ele><time>2026-04-04T08:12:06.229Z</time></trkpt><trkpt lat="44.2084783" lon="11.4245217"><ele>576.0</ele><time>2026-04-04T08:12:08.23Z</time></trkpt><trkpt lat="44.208545" lon="11.4246033"><ele>576.0</ele><time>2026-04-04T08:12:09.229Z</time></trkpt><trkpt lat="44.2086233" lon="11.4246867"><ele>577.3333333333334</ele><time>2026-04-04T08:12:10.229Z</time></trkpt><trkpt lat="44.2086983" lon="11.4247783"><ele>578.6666666666666</ele><time>2026-04-04T08:12:11.229Z</time></trkpt><trkpt lat="44.208765" lon="11.4248733"><ele>580.0</ele><time>2026-04-04T08:12:12.23Z</time></trkpt><trkpt lat="44.2088317" lon="11.4249533"><ele>581.3333333333333</ele><time>2026-04-04T08:12:13.229Z</time></trkpt><trkpt lat="44.2088867" lon="11.4250283"><ele>582.6666666666666</ele><time>2026-04-04T08:12:14.23Z</time></trkpt><trkpt lat="44.208925" lon="11.4251117"><ele>584.0</ele><time>2026-04-04T08:12:15.23Z</time></trkpt><trkpt lat="44.208945" lon="11.4252083"><ele>584.0</ele><time>2026-04-04T08:12:16.23Z</time></trkpt><trkpt lat="44.2089567" lon="11.4253083"><ele>584.0</ele><time>2026-04-04T08:12:17.229Z</time></trkpt><trkpt lat="44.208955" lon="11.4254017"><ele>584.0</ele><time>2026-04-04T08:12:18.229Z</time></trkpt><trkpt lat="44.2089267" lon="11.4255467"><ele>584.0</ele><time>2026-04-04T08:12:20.23Z</time></trkpt><trkpt lat="44.2089" lon="11.4256267"><ele>584.0</ele><time>2026-04-04T08:12:21.229Z</time></trkpt><trkpt lat="44.20881" lon="11.4256583"><ele>584.0</ele><time>2026-04-04T08:12:23.23Z</time></trkpt><trkpt lat="44.2087683" lon="11.4255917"><ele>584.0</ele><time>2026-04-04T08:12:24.23Z</time></trkpt><trkpt lat="44.2087483" lon="11.4255"><ele>584.0</ele><time>2026-04-04T08:12:25.229Z</time></trkpt><trkpt lat="44.2087383" lon="11.4253767"><ele>584.0</ele><time>2026-04-04T08:12:26.229Z</time></trkpt><trkpt lat="44.2087067" lon="11.4252517"><ele>584.0</ele><time>2026-04-04T08:12:27.229Z</time></trkpt><trkpt lat="44.208655" lon="11.425135"><ele>584.0</ele><time>2026-04-04T08:12:28.23Z</time></trkpt><trkpt lat="44.2085717" lon="11.425045"><ele>584.0</ele><time>2026-04-04T08:12:29.23Z</time></trkpt><trkpt lat="44.2084717" lon="11.4249667"><ele>584.0</ele><time>2026-04-04T08:12:30.229Z</time></trkpt><trkpt lat="44.2083683" lon="11.4248867"><ele>584.0</ele><time>2026-04-04T08:12:31.23Z</time></trkpt><trkpt lat="44.2082817" lon="11.42479"><ele>584.0</ele><time>2026-04-04T08:12:32.23Z</time></trkpt><trkpt lat="44.2082083" lon="11.4247133"><ele>584.0</ele><time>2026-04-04T08:12:33.23Z</time></trkpt><trkpt lat="44.208145" lon="11.4247017"><ele>584.0</ele><time>2026-04-04T08:12:34.23Z</time></trkpt><trkpt lat="44.2080767" lon="11.4248233"><ele>584.0</ele><time>2026-04-04T08:12:36.23Z</time></trkpt><trkpt lat="44.2080967" lon="11.4249067"><ele>584.0</ele><time>2026-04-04T08:12:37.229Z</time></trkpt><trkpt lat="44.2081367" lon="11.424975"><ele>584.0</ele><time>2026-04-04T08:12:38.23Z</time></trkpt><trkpt lat="44.2082183" lon="11.4250433"><ele>584.0</ele><time>2026-04-04T08:12:39.23Z</time></trkpt><trkpt lat="44.208305" lon="11.4251317"><ele>584.0</ele><time>2026-04-04T08:12:40.229Z</time></trkpt><trkpt lat="44.2083783" lon="11.4252517"><ele>584.0</ele><time>2026-04-04T08:12:41.23Z</time></trkpt><trkpt lat="44.2083967" lon="11.4253967"><ele>584.0</ele><time>2026-04-04T08:12:42.23Z</time></trkpt><trkpt lat="44.2083783" lon="11.4255617"><ele>584.0</ele><time>2026-04-04T08:12:43.229Z</time></trkpt><trkpt lat="44.2083467" lon="11.42572"><ele>584.0</ele><time>2026-04-04T08:12:44.229Z</time></trkpt><trkpt lat="44.2083217" lon="11.42588"><ele>588.0</ele><time>2026-04-04T08:12:45.23Z</time></trkpt><trkpt lat="44.20832" lon="11.426045"><ele>592.0</ele><time>2026-04-04T08:12:46.23Z</time></trkpt><trkpt lat="44.2083417" lon="11.4262067"><ele>596.0</ele><time>2026-04-04T08:12:47.229Z</time></trkpt><trkpt lat="44.2083883" lon="11.4263667"><ele>600.0</ele><time>2026-04-04T08:12:48.229Z</time></trkpt><trkpt lat="44.2084617" lon="11.426505"><ele>604.75</ele><time>2026-04-04T08:12:49.23Z</time></trkpt><trkpt lat="44.2085533" lon="11.42662"><ele>609.5</ele><time>2026-04-04T08:12:50.229Z</time></trkpt><trkpt lat="44.208645" lon="11.42674"><ele>614.25</ele><time>2026-04-04T08:12:51.23Z</time></trkpt><trkpt lat="44.208705" lon="11.4268783"><ele>619.0</ele><time>2026-04-04T08:12:52.23Z</time></trkpt><trkpt lat="44.2087117" lon="11.4270333"><ele>621.75</ele><time>2026-04-04T08:12:53.23Z</time></trkpt><trkpt lat="44.2087033" lon="11.427195"><ele>624.5</ele><time>2026-04-04T08:12:54.229Z</time></trkpt><trkpt lat="44.2087033" lon="11.4273633"><ele>627.25</ele><time>2026-04-04T08:12:55.229Z</time></trkpt><trkpt lat="44.2087283" lon="11.427545"><ele>630.0</ele><time>2026-04-04T08:12:56.23Z</time></trkpt><trkpt lat="44.2087717" lon="11.427715"><ele>630.0</ele><time>2026-04-04T08:12:57.23Z</time></trkpt><trkpt lat="44.2088383" lon="11.427865"><ele>630.0</ele><time>2026-04-04T08:12:58.229Z</time></trkpt><trkpt lat="44.2089283" lon="11.4279917"><ele>630.0</ele><time>2026-04-04T08:12:59.229Z</time></trkpt><trkpt lat="44.2090317" lon="11.42809"><ele>630.0</ele><time>2026-04-04T08:13:00.229Z</time></trkpt><trkpt lat="44.209135" lon="11.4281583"><ele>626.6</ele><time>2026-04-04T08:13:01.23Z</time></trkpt><trkpt lat="44.2092183" lon="11.4282383"><ele>623.2</ele><time>2026-04-04T08:13:02.23Z</time></trkpt><trkpt lat="44.2092767" lon="11.428335"><ele>619.8</ele><time>2026-04-04T08:13:03.23Z</time></trkpt><trkpt lat="44.2093133" lon="11.4284633"><ele>616.4</ele><time>2026-04-04T08:13:04.23Z</time></trkpt><trkpt lat="44.2093267" lon="11.428605"><ele>613.0</ele><time>2026-04-04T08:13:05.229Z</time></trkpt><trkpt lat="44.209325" lon="11.4287367"><ele>614.0</ele><time>2026-04-04T08:13:06.23Z</time></trkpt><trkpt lat="44.20928" lon="11.4288617"><ele>615.0</ele><time>2026-04-04T08:13:07.229Z</time></trkpt><trkpt lat="44.20921" lon="11.42898"><ele>616.0</ele><time>2026-04-04T08:13:08.23Z</time></trkpt><trkpt lat="44.2091467" lon="11.4290817"><ele>617.0</ele><time>2026-04-04T08:13:09.229Z</time></trkpt><trkpt lat="44.2091017" lon="11.4292033"><ele>618.0</ele><time>2026-04-04T08:13:10.23Z</time></trkpt><trkpt lat="44.2090783" lon="11.4293483"><ele>618.0</ele><time>2026-04-04T08:13:11.229Z</time></trkpt><trkpt lat="44.2090783" lon="11.429505"><ele>618.0</ele><time>2026-04-04T08:13:12.229Z</time></trkpt><trkpt lat="44.2091133" lon="11.429665"><ele>618.0</ele><time>2026-04-04T08:13:13.229Z</time></trkpt><trkpt lat="44.209155" lon="11.4298133"><ele>618.0</ele><time>2026-04-04T08:13:14.23Z</time></trkpt><trkpt lat="44.2091855" lon="11.4299379"><ele>618.0</ele><time>2026-04-04T08:13:15.229Z</time></trkpt><trkpt lat="44.2091863" lon="11.4300353"><ele>618.8</ele><time>2026-04-04T08:13:16.229Z</time></trkpt><trkpt lat="44.2090767" lon="11.4300875"><ele>619.5999999999999</ele><time>2026-04-04T08:13:18.229Z</time></trkpt><trkpt lat="44.2090005" lon="11.4300397"><ele>620.4000000000001</ele><time>2026-04-04T08:13:19.23Z</time></trkpt><trkpt lat="44.2089234" lon="11.4299632"><ele>621.2</ele><time>2026-04-04T08:13:20.229Z</time></trkpt><trkpt lat="44.2088457" lon="11.4298572"><ele>622.0</ele><time>2026-04-04T08:13:21.229Z</time></trkpt><trkpt lat="44.208763" lon="11.4297388"><ele>624.75</ele><time>2026-04-04T08:13:22.229Z</time></trkpt><trkpt lat="44.2086817" lon="11.429619"><ele>627.5</ele><time>2026-04-04T08:13:23.23Z</time></trkpt><trkpt lat="44.2085934" lon="11.4295141"><ele>630.25</ele><time>2026-04-04T08:13:24.229Z</time></trkpt><trkpt lat="44.2084913" lon="11.4294426"><ele>633.0</ele><time>2026-04-04T08:13:25.23Z</time></trkpt><trkpt lat="44.2083686" lon="11.4294139"><ele>633.0</ele><time>2026-04-04T08:13:26.23Z</time></trkpt><trkpt lat="44.2082324" lon="11.4294039"><ele>633.0</ele><time>2026-04-04T08:13:27.23Z</time></trkpt><trkpt lat="44.208092" lon="11.4294036"><ele>633.0</ele><time>2026-04-04T08:13:28.229Z</time></trkpt><trkpt lat="44.2079567" lon="11.4294014"><ele>633.0</ele><time>2026-04-04T08:13:29.23Z</time></trkpt><trkpt lat="44.2078206" lon="11.4294043"><ele>637.25</ele><time>2026-04-04T08:13:30.23Z</time></trkpt><trkpt lat="44.2076856" lon="11.4293839"><ele>641.5</ele><time>2026-04-04T08:13:31.23Z</time></trkpt><trkpt lat="44.2075629" lon="11.4293256"><ele>645.75</ele><time>2026-04-04T08:13:32.229Z</time></trkpt><trkpt lat="44.2074597" lon="11.4292326"><ele>650.0</ele><time>2026-04-04T08:13:33.229Z</time></trkpt><trkpt lat="44.2073815" lon="11.429102"><ele>650.0</ele><time>2026-04-04T08:13:34.23Z</time></trkpt><trkpt lat="44.2073406" lon="11.4289323"><ele>650.0</ele><time>2026-04-04T08:13:35.229Z</time></trkpt><trkpt lat="44.2073162" lon="11.4287374"><ele>650.0</ele><time>2026-04-04T08:13:36.23Z</time></trkpt><trkpt lat="44.2072875" lon="11.4285383"><ele>650.0</ele><time>2026-04-04T08:13:37.23Z</time></trkpt><trkpt lat="44.2072316" lon="11.4283524"><ele>655.75</ele><time>2026-04-04T08:13:38.23Z</time></trkpt><trkpt lat="44.2071542" lon="11.4281765"><ele>661.5</ele><time>2026-04-04T08:13:39.23Z</time></trkpt><trkpt lat="44.2070675" lon="11.4280102"><ele>667.25</ele><time>2026-04-04T08:13:40.23Z</time></trkpt><trkpt lat="44.2069845" lon="11.427838"><ele>673.0</ele><time>2026-04-04T08:13:41.229Z</time></trkpt><trkpt lat="44.2069121" lon="11.4276609"><ele>673.0</ele><time>2026-04-04T08:13:42.229Z</time></trkpt><trkpt lat="44.2068662" lon="11.42749"><ele>673.0</ele><time>2026-04-04T08:13:43.229Z</time></trkpt><trkpt lat="44.2068412" lon="11.4273171"><ele>673.0</ele><time>2026-04-04T08:13:44.23Z</time></trkpt><trkpt lat="44.2067948" lon="11.4271517"><ele>673.0</ele><time>2026-04-04T08:13:45.23Z</time></trkpt><trkpt lat="44.2067199" lon="11.4270037"><ele>670.75</ele><time>2026-04-04T08:13:46.23Z</time></trkpt><trkpt lat="44.2066263" lon="11.4268712"><ele>668.5</ele><time>2026-04-04T08:13:47.229Z</time></trkpt><trkpt lat="44.2065233" lon="11.426755"><ele>666.25</ele><time>2026-04-04T08:13:48.229Z</time></trkpt><trkpt lat="44.2064317" lon="11.4266467"><ele>664.0</ele><time>2026-04-04T08:13:49.23Z</time></trkpt><trkpt lat="44.2063383" lon="11.42656"><ele>668.6</ele><time>2026-04-04T08:13:50.23Z</time></trkpt><trkpt lat="44.2062383" lon="11.4264983"><ele>673.2</ele><time>2026-04-04T08:13:51.23Z</time></trkpt><trkpt lat="44.2061433" lon="11.42648"><ele>677.8000000000001</ele><time>2026-04-04T08:13:52.23Z</time></trkpt><trkpt lat="44.2060533" lon="11.4265133"><ele>682.4000000000001</ele><time>2026-04-04T08:13:53.23Z</time></trkpt><trkpt lat="44.2059683" lon="11.4265817"><ele>687.0</ele><time>2026-04-04T08:13:54.229Z</time></trkpt><trkpt lat="44.20592" lon="11.4266833"><ele>687.0</ele><time>2026-04-04T08:13:55.23Z</time></trkpt><trkpt lat="44.205885" lon="11.4267983"><ele>687.0</ele><time>2026-04-04T08:13:56.23Z</time></trkpt><trkpt lat="44.2058683" lon="11.4269167"><ele>687.0</ele><time>2026-04-04T08:13:57.23Z</time></trkpt><trkpt lat="44.2058683" lon="11.4270483"><ele>687.0</ele><time>2026-04-04T08:13:58.23Z</time></trkpt><trkpt lat="44.2058717" lon="11.4271767"><ele>687.0</ele><time>2026-04-04T08:13:59.23Z</time></trkpt><trkpt lat="44.20587" lon="11.4273067"><ele>690.4000000000001</ele><time>2026-04-04T08:14:00.23Z</time></trkpt><trkpt lat="44.20587" lon="11.4274417"><ele>693.8000000000001</ele><time>2026-04-04T08:14:01.23Z</time></trkpt><trkpt lat="44.2058767" lon="11.4275867"><ele>697.2</ele><time>2026-04-04T08:14:02.229Z</time></trkpt><trkpt lat="44.2058833" lon="11.4277517"><ele>700.6</ele><time>2026-04-04T08:14:03.229Z</time></trkpt><trkpt lat="44.20589" lon="11.42793"><ele>704.0</ele><time>2026-04-04T08:14:04.229Z</time></trkpt><trkpt lat="44.2058883" lon="11.428125"><ele>706.0</ele><time>2026-04-04T08:14:05.23Z</time></trkpt><trkpt lat="44.2058783" lon="11.42832"><ele>708.0</ele><time>2026-04-04T08:14:06.23Z</time></trkpt><trkpt lat="44.2058717" lon="11.4285217"><ele>710.0</ele><time>2026-04-04T08:14:07.23Z</time></trkpt><trkpt lat="44.2058733" lon="11.4287333"><ele>712.0</ele><time>2026-04-04T08:14:08.23Z</time></trkpt><trkpt lat="44.2058683" lon="11.4289433"><ele>713.0</ele><time>2026-04-04T08:14:09.229Z</time></trkpt><trkpt lat="44.2058483" lon="11.429135"><ele>714.0</ele><time>2026-04-04T08:14:10.23Z</time></trkpt><trkpt lat="44.2058117" lon="11.429305"><ele>715.0</ele><time>2026-04-04T08:14:11.23Z</time></trkpt><trkpt lat="44.2057517" lon="11.4294517"><ele>716.0</ele><time>2026-04-04T08:14:12.23Z</time></trkpt><trkpt lat="44.2056783" lon="11.4295933"><ele>720.5</ele><time>2026-04-04T08:14:13.229Z</time></trkpt><trkpt lat="44.2056333" lon="11.429745"><ele>725.0</ele><time>2026-04-04T08:14:14.23Z</time></trkpt><trkpt lat="44.2056167" lon="11.4299117"><ele>729.5</ele><time>2026-04-04T08:14:15.229Z</time></trkpt><trkpt lat="44.2056283" lon="11.4300783"><ele>734.0</ele><time>2026-04-04T08:14:16.229Z</time></trkpt><trkpt lat="44.2056333" lon="11.4302417"><ele>734.0</ele><time>2026-04-04T08:14:17.23Z</time></trkpt><trkpt lat="44.2056017" lon="11.4304083"><ele>734.0</ele><time>2026-04-04T08:14:18.23Z</time></trkpt><trkpt lat="44.2055317" lon="11.4305483"><ele>734.0</ele><time>2026-04-04T08:14:19.23Z</time></trkpt><trkpt lat="44.2054383" lon="11.430665"><ele>734.0</ele><time>2026-04-04T08:14:20.23Z</time></trkpt><trkpt lat="44.20534" lon="11.4307767"><ele>732.0</ele><time>2026-04-04T08:14:21.229Z</time></trkpt><trkpt lat="44.20526" lon="11.4309083"><ele>730.0</ele><time>2026-04-04T08:14:22.23Z</time></trkpt><trkpt lat="44.205215" lon="11.43106"><ele>728.0</ele><time>2026-04-04T08:14:23.23Z</time></trkpt><trkpt lat="44.2051883" lon="11.4312217"><ele>726.0</ele><time>2026-04-04T08:14:24.229Z</time></trkpt><trkpt lat="44.2051883" lon="11.431395"><ele>726.0</ele><time>2026-04-04T08:14:25.23Z</time></trkpt><trkpt lat="44.2051983" lon="11.4315733"><ele>726.0</ele><time>2026-04-04T08:14:26.23Z</time></trkpt><trkpt lat="44.2051967" lon="11.4317517"><ele>726.0</ele><time>2026-04-04T08:14:27.23Z</time></trkpt><trkpt lat="44.2051917" lon="11.4319333"><ele>726.0</ele><time>2026-04-04T08:14:28.229Z</time></trkpt><trkpt lat="44.20519" lon="11.4321083"><ele>728.5</ele><time>2026-04-04T08:14:29.229Z</time></trkpt><trkpt lat="44.2052" lon="11.432285"><ele>731.0</ele><time>2026-04-04T08:14:30.23Z</time></trkpt><trkpt lat="44.2052267" lon="11.4324617"><ele>733.5</ele><time>2026-04-04T08:14:31.229Z</time></trkpt><trkpt lat="44.205265" lon="11.43263"><ele>736.0</ele><time>2026-04-04T08:14:32.23Z</time></trkpt><trkpt lat="44.205325" lon="11.43279"><ele>736.0</ele><time>2026-04-04T08:14:33.23Z</time></trkpt><trkpt lat="44.2053983" lon="11.4329417"><ele>736.0</ele><time>2026-04-04T08:14:34.229Z</time></trkpt><trkpt lat="44.2054583" lon="11.4330967"><ele>736.0</ele><time>2026-04-04T08:14:35.23Z</time></trkpt><trkpt lat="44.2054933" lon="11.43326"><ele>736.0</ele><time>2026-04-04T08:14:36.23Z</time></trkpt><trkpt lat="44.2054817" lon="11.4334283"><ele>739.5</ele><time>2026-04-04T08:14:37.23Z</time></trkpt><trkpt lat="44.2054567" lon="11.4336067"><ele>743.0</ele><time>2026-04-04T08:14:38.229Z</time></trkpt><trkpt lat="44.2054533" lon="11.4337967"><ele>746.5</ele><time>2026-04-04T08:14:39.23Z</time></trkpt><trkpt lat="44.20547" lon="11.4339883"><ele>750.0</ele><time>2026-04-04T08:14:40.23Z</time></trkpt><trkpt lat="44.205505" lon="11.4341817"><ele>752.25</ele><time>2026-04-04T08:14:41.229Z</time></trkpt><trkpt lat="44.2055417" lon="11.4343717"><ele>754.5</ele><time>2026-04-04T08:14:42.229Z</time></trkpt><trkpt lat="44.2055833" lon="11.434555"><ele>756.75</ele><time>2026-04-04T08:14:43.23Z</time></trkpt><trkpt lat="44.20563" lon="11.4347233"><ele>759.0</ele><time>2026-04-04T08:14:44.229Z</time></trkpt><trkpt lat="44.2056883" lon="11.4348867"><ele>757.0</ele><time>2026-04-04T08:14:45.23Z</time></trkpt><trkpt lat="44.20575" lon="11.4350533"><ele>755.0</ele><time>2026-04-04T08:14:46.23Z</time></trkpt><trkpt lat="44.205815" lon="11.4352183"><ele>753.0</ele><time>2026-04-04T08:14:47.23Z</time></trkpt><trkpt lat="44.2058817" lon="11.435385"><ele>751.0</ele><time>2026-04-04T08:14:48.229Z</time></trkpt><trkpt lat="44.20594" lon="11.4355583"><ele>751.0</ele><time>2026-04-04T08:14:49.229Z</time></trkpt><trkpt lat="44.2059733" lon="11.43575"><ele>751.0</ele><time>2026-04-04T08:14:50.23Z</time></trkpt><trkpt lat="44.2059783" lon="11.435945"><ele>751.0</ele><time>2026-04-04T08:14:51.229Z</time></trkpt><trkpt lat="44.2059533" lon="11.436145"><ele>751.0</ele><time>2026-04-04T08:14:52.23Z</time></trkpt><trkpt lat="44.2059383" lon="11.4363383"><ele>752.25</ele><time>2026-04-04T08:14:53.23Z</time></trkpt><trkpt lat="44.20596" lon="11.4365067"><ele>753.5</ele><time>2026-04-04T08:14:54.23Z</time></trkpt><trkpt lat="44.2060133" lon="11.436655"><ele>754.75</ele><time>2026-04-04T08:14:55.229Z</time></trkpt><trkpt lat="44.2060867" lon="11.4367933"><ele>756.0</ele><time>2026-04-04T08:14:56.229Z</time></trkpt><trkpt lat="44.20614" lon="11.4369333"><ele>756.0</ele><time>2026-04-04T08:14:57.229Z</time></trkpt><trkpt lat="44.2061633" lon="11.437085"><ele>756.0</ele><time>2026-04-04T08:14:58.23Z</time></trkpt><trkpt lat="44.2061533" lon="11.437255"><ele>756.0</ele><time>2026-04-04T08:14:59.23Z</time></trkpt><trkpt lat="44.2061183" lon="11.4374283"><ele>756.0</ele><time>2026-04-04T08:15:00.23Z</time></trkpt><trkpt lat="44.2060717" lon="11.437595"><ele>757.0</ele><time>2026-04-04T08:15:01.23Z</time></trkpt><trkpt lat="44.2059967" lon="11.4377567"><ele>758.0</ele><time>2026-04-04T08:15:02.23Z</time></trkpt><trkpt lat="44.205915" lon="11.4379167"><ele>759.0</ele><time>2026-04-04T08:15:03.23Z</time></trkpt><trkpt lat="44.2058433" lon="11.4380683"><ele>760.0</ele><time>2026-04-04T08:15:04.229Z</time></trkpt><trkpt lat="44.2057983" lon="11.4382217"><ele>760.25</ele><time>2026-04-04T08:15:05.23Z</time></trkpt><trkpt lat="44.2057933" lon="11.4383817"><ele>760.5</ele><time>2026-04-04T08:15:06.23Z</time></trkpt><trkpt lat="44.2058083" lon="11.4385467"><ele>760.75</ele><time>2026-04-04T08:15:07.229Z</time></trkpt><trkpt lat="44.2058133" lon="11.4387267"><ele>761.0</ele><time>2026-04-04T08:15:08.229Z</time></trkpt><trkpt lat="44.2058133" lon="11.4389083"><ele>762.25</ele><time>2026-04-04T08:15:09.229Z</time></trkpt><trkpt lat="44.2058167" lon="11.4390867"><ele>763.5</ele><time>2026-04-04T08:15:10.23Z</time></trkpt><trkpt lat="44.2058033" lon="11.4392683"><ele>764.75</ele><time>2026-04-04T08:15:11.23Z</time></trkpt><trkpt lat="44.2058033" lon="11.4394433"><ele>766.0</ele><time>2026-04-04T08:15:12.229Z</time></trkpt><trkpt lat="44.2058117" lon="11.4396133"><ele>767.1999999999999</ele><time>2026-04-04T08:15:13.23Z</time></trkpt><trkpt lat="44.2058367" lon="11.4397767"><ele>768.4</ele><time>2026-04-04T08:15:14.229Z</time></trkpt><trkpt lat="44.2058583" lon="11.4399317"><ele>769.6</ele><time>2026-04-04T08:15:15.23Z</time></trkpt><trkpt lat="44.2058717" lon="11.44007"><ele>770.8</ele><time>2026-04-04T08:15:16.23Z</time></trkpt><trkpt lat="44.2058883" lon="11.4401833"><ele>772.0</ele><time>2026-04-04T08:15:17.229Z</time></trkpt><trkpt lat="44.2058983" lon="11.4402783"><ele>771.9999999999999</ele><time>2026-04-04T08:15:18.23Z</time></trkpt><trkpt lat="44.2059117" lon="11.4403717"><ele>772.0</ele><time>2026-04-04T08:15:19.23Z</time></trkpt><trkpt lat="44.20593" lon="11.4404767"><ele>772.0</ele><time>2026-04-04T08:15:20.23Z</time></trkpt><trkpt lat="44.2059517" lon="11.440585"><ele>772.0</ele><time>2026-04-04T08:15:21.23Z</time></trkpt><trkpt lat="44.20598" lon="11.4407"><ele>771.9999999999999</ele><time>2026-04-04T08:15:22.23Z</time></trkpt><trkpt lat="44.20602" lon="11.440825"><ele>772.0</ele><time>2026-04-04T08:15:23.229Z</time></trkpt><trkpt lat="44.20606" lon="11.44095"><ele>773.0</ele><time>2026-04-04T08:15:24.229Z</time></trkpt><trkpt lat="44.2060933" lon="11.4410883"><ele>774.0</ele><time>2026-04-04T08:15:25.23Z</time></trkpt><trkpt lat="44.2061083" lon="11.44124"><ele>775.0</ele><time>2026-04-04T08:15:26.23Z</time></trkpt><trkpt lat="44.2061183" lon="11.4413967"><ele>776.0</ele><time>2026-04-04T08:15:27.229Z</time></trkpt><trkpt lat="44.2061417" lon="11.4415583"><ele>777.0</ele><time>2026-04-04T08:15:28.23Z</time></trkpt><trkpt lat="44.20617" lon="11.441715"><ele>778.0</ele><time>2026-04-04T08:15:29.23Z</time></trkpt><trkpt lat="44.2062112" lon="11.4418503"><ele>779.0</ele><time>2026-04-04T08:15:30.229Z</time></trkpt><trkpt lat="44.2062417" lon="11.4419695"><ele>780.0</ele><time>2026-04-04T08:15:31.229Z</time></trkpt><trkpt lat="44.2062436" lon="11.442082"><ele>781.0</ele><time>2026-04-04T08:15:32.229Z</time></trkpt><trkpt lat="44.2062173" lon="11.4421865"><ele>782.0</ele><time>2026-04-04T08:15:33.23Z</time></trkpt><trkpt lat="44.2061632" lon="11.442268"><ele>783.0</ele><time>2026-04-04T08:15:34.229Z</time></trkpt><trkpt lat="44.2060804" lon="11.4423178"><ele>783.0</ele><time>2026-04-04T08:15:35.23Z</time></trkpt><trkpt lat="44.2059726" lon="11.4423566"><ele>783.0</ele><time>2026-04-04T08:15:36.229Z</time></trkpt><trkpt lat="44.205835" lon="11.44239"><ele>783.0</ele><time>2026-04-04T08:15:37.229Z</time></trkpt><trkpt lat="44.2056919" lon="11.4424225"><ele>783.0</ele><time>2026-04-04T08:15:38.229Z</time></trkpt><trkpt lat="44.2055659" lon="11.4424642"><ele>785.2</ele><time>2026-04-04T08:15:39.23Z</time></trkpt><trkpt lat="44.2054719" lon="11.4425335"><ele>787.4</ele><time>2026-04-04T08:15:40.23Z</time></trkpt><trkpt lat="44.2054122" lon="11.4426389"><ele>789.6</ele><time>2026-04-04T08:15:41.23Z</time></trkpt><trkpt lat="44.2053783" lon="11.4427778"><ele>791.8000000000001</ele><time>2026-04-04T08:15:42.229Z</time></trkpt><trkpt lat="44.2053625" lon="11.4429353"><ele>794.0</ele><time>2026-04-04T08:15:43.23Z</time></trkpt><trkpt lat="44.205348" lon="11.4430692"><ele>794.0000000000001</ele><time>2026-04-04T08:15:44.23Z</time></trkpt><trkpt lat="44.20534" lon="11.4431651"><ele>794.0</ele><time>2026-04-04T08:15:45.229Z</time></trkpt><trkpt lat="44.2053511" lon="11.4432957"><ele>794.0</ele><time>2026-04-04T08:15:47.23Z</time></trkpt><trkpt lat="44.2054029" lon="11.4434339"><ele>794.0</ele><time>2026-04-04T08:15:49.23Z</time></trkpt><trkpt lat="44.205453" lon="11.4435088"><ele>794.0000000000001</ele><time>2026-04-04T08:15:50.23Z</time></trkpt><trkpt lat="44.2055191" lon="11.4435913"><ele>794.0</ele><time>2026-04-04T08:15:51.23Z</time></trkpt><trkpt lat="44.205597" lon="11.4436807"><ele>790.25</ele><time>2026-04-04T08:15:52.23Z</time></trkpt><trkpt lat="44.2056804" lon="11.4437815"><ele>786.5</ele><time>2026-04-04T08:15:53.23Z</time></trkpt><trkpt lat="44.205772" lon="11.4438872"><ele>782.75</ele><time>2026-04-04T08:15:54.23Z</time></trkpt><trkpt lat="44.2058706" lon="11.443995"><ele>779.0</ele><time>2026-04-04T08:15:55.23Z</time></trkpt><trkpt lat="44.2059609" lon="11.4440987"><ele>779.0</ele><time>2026-04-04T08:15:56.229Z</time></trkpt><trkpt lat="44.2060438" lon="11.444212"><ele>779.0</ele><time>2026-04-04T08:15:57.23Z</time></trkpt><trkpt lat="44.2061181" lon="11.4443445"><ele>779.0</ele><time>2026-04-04T08:15:58.23Z</time></trkpt><trkpt lat="44.2061822" lon="11.4444975"><ele>779.0</ele><time>2026-04-04T08:15:59.23Z</time></trkpt><trkpt lat="44.2062265" lon="11.4446429"><ele>781.75</ele><time>2026-04-04T08:16:00.23Z</time></trkpt><trkpt lat="44.2062578" lon="11.4447801"><ele>784.5</ele><time>2026-04-04T08:16:01.229Z</time></trkpt><trkpt lat="44.206289" lon="11.4449256"><ele>787.25</ele><time>2026-04-04T08:16:02.23Z</time></trkpt><trkpt lat="44.2063158" lon="11.4450918"><ele>790.0</ele><time>2026-04-04T08:16:03.229Z</time></trkpt><trkpt lat="44.2063454" lon="11.4452594"><ele>790.0</ele><time>2026-04-04T08:16:04.23Z</time></trkpt><trkpt lat="44.2063917" lon="11.4454192"><ele>790.0</ele><time>2026-04-04T08:16:05.229Z</time></trkpt><trkpt lat="44.2064458" lon="11.4455705"><ele>790.0</ele><time>2026-04-04T08:16:06.229Z</time></trkpt><trkpt lat="44.2065054" lon="11.4457104"><ele>790.0</ele><time>2026-04-04T08:16:07.23Z</time></trkpt><trkpt lat="44.2065598" lon="11.4458438"><ele>785.2</ele><time>2026-04-04T08:16:08.23Z</time></trkpt><trkpt lat="44.2065947" lon="11.4459647"><ele>780.4</ele><time>2026-04-04T08:16:09.23Z</time></trkpt><trkpt lat="44.2066004" lon="11.4460801"><ele>775.5999999999999</ele><time>2026-04-04T08:16:10.229Z</time></trkpt><trkpt lat="44.2065766" lon="11.4462114"><ele>770.8</ele><time>2026-04-04T08:16:11.229Z</time></trkpt><trkpt lat="44.2065528" lon="11.4463625"><ele>766.0</ele><time>2026-04-04T08:16:12.23Z</time></trkpt><trkpt lat="44.2065545" lon="11.4465177"><ele>765.4</ele><time>2026-04-04T08:16:13.23Z</time></trkpt><trkpt lat="44.2065771" lon="11.4466625"><ele>764.8</ele><time>2026-04-04T08:16:14.23Z</time></trkpt><trkpt lat="44.2066066" lon="11.4467866"><ele>764.1999999999999</ele><time>2026-04-04T08:16:15.23Z</time></trkpt><trkpt lat="44.2066152" lon="11.4468968"><ele>763.5999999999999</ele><time>2026-04-04T08:16:16.23Z</time></trkpt><trkpt lat="44.2065937" lon="11.4470107"><ele>763.0</ele><time>2026-04-04T08:16:17.23Z</time></trkpt><trkpt lat="44.2065348" lon="11.4471431"><ele>768.5</ele><time>2026-04-04T08:16:18.23Z</time></trkpt><trkpt lat="44.2064741" lon="11.4472787"><ele>774.0</ele><time>2026-04-04T08:16:19.23Z</time></trkpt><trkpt lat="44.2064468" lon="11.4474289"><ele>779.5</ele><time>2026-04-04T08:16:20.23Z</time></trkpt><trkpt lat="44.2064546" lon="11.4475856"><ele>785.0</ele><time>2026-04-04T08:16:21.229Z</time></trkpt><trkpt lat="44.2064881" lon="11.4477378"><ele>779.5</ele><time>2026-04-04T08:16:22.23Z</time></trkpt><trkpt lat="44.2065423" lon="11.4478892"><ele>774.0</ele><time>2026-04-04T08:16:23.23Z</time></trkpt><trkpt lat="44.2066156" lon="11.4480347"><ele>768.5</ele><time>2026-04-04T08:16:24.23Z</time></trkpt><trkpt lat="44.2067135" lon="11.4481769"><ele>763.0</ele><time>2026-04-04T08:16:25.23Z</time></trkpt><trkpt lat="44.2068207" lon="11.4483311"><ele>763.0</ele><time>2026-04-04T08:16:26.23Z</time></trkpt><trkpt lat="44.2069226" lon="11.4484821"><ele>763.0</ele><time>2026-04-04T08:16:27.23Z</time></trkpt><trkpt lat="44.2070248" lon="11.4486327"><ele>763.0</ele><time>2026-04-04T08:16:28.23Z</time></trkpt><trkpt lat="44.207125" lon="11.4487764"><ele>763.0</ele><time>2026-04-04T08:16:29.23Z</time></trkpt><trkpt lat="44.2072286" lon="11.448921"><ele>764.75</ele><time>2026-04-04T08:16:30.23Z</time></trkpt><trkpt lat="44.2073246" lon="11.4490613"><ele>766.5</ele><time>2026-04-04T08:16:31.229Z</time></trkpt><trkpt lat="44.2074136" lon="11.4492084"><ele>768.25</ele><time>2026-04-04T08:16:32.23Z</time></trkpt><trkpt lat="44.2074941" lon="11.4493717"><ele>770.0</ele><time>2026-04-04T08:16:33.229Z</time></trkpt><trkpt lat="44.2075714" lon="11.4495467"><ele>766.25</ele><time>2026-04-04T08:16:34.229Z</time></trkpt><trkpt lat="44.2076384" lon="11.4497326"><ele>762.5</ele><time>2026-04-04T08:16:35.229Z</time></trkpt><trkpt lat="44.2076942" lon="11.4499194"><ele>758.75</ele><time>2026-04-04T08:16:36.229Z</time></trkpt><trkpt lat="44.2077467" lon="11.4501083"><ele>755.0</ele><time>2026-04-04T08:16:37.23Z</time></trkpt><trkpt lat="44.20779" lon="11.4502967"><ele>754.3333333333333</ele><time>2026-04-04T08:16:38.23Z</time></trkpt><trkpt lat="44.2078333" lon="11.4505083"><ele>753.6666666666666</ele><time>2026-04-04T08:16:39.229Z</time></trkpt><trkpt lat="44.20789" lon="11.4507133"><ele>753.0</ele><time>2026-04-04T08:16:40.23Z</time></trkpt><trkpt lat="44.2079433" lon="11.4509383"><ele>753.0</ele><time>2026-04-04T08:16:41.229Z</time></trkpt><trkpt lat="44.2079867" lon="11.45116"><ele>753.0</ele><time>2026-04-04T08:16:42.229Z</time></trkpt><trkpt lat="44.20802" lon="11.451375"><ele>753.0</ele><time>2026-04-04T08:16:43.23Z</time></trkpt><trkpt lat="44.2080533" lon="11.4515683"><ele>753.25</ele><time>2026-04-04T08:16:44.23Z</time></trkpt><trkpt lat="44.2080833" lon="11.4517583"><ele>753.5</ele><time>2026-04-04T08:16:45.229Z</time></trkpt><trkpt lat="44.2081233" lon="11.4519317"><ele>753.75</ele><time>2026-04-04T08:16:46.23Z</time></trkpt><trkpt lat="44.2081717" lon="11.452105"><ele>754.0</ele><time>2026-04-04T08:16:47.23Z</time></trkpt><trkpt lat="44.2082367" lon="11.45227"><ele>750.5</ele><time>2026-04-04T08:16:48.23Z</time></trkpt><trkpt lat="44.20832" lon="11.4524283"><ele>747.0</ele><time>2026-04-04T08:16:49.23Z</time></trkpt><trkpt lat="44.2084283" lon="11.4525733"><ele>743.5</ele><time>2026-04-04T08:16:50.229Z</time></trkpt><trkpt lat="44.2085533" lon="11.4527"><ele>740.0</ele><time>2026-04-04T08:16:51.23Z</time></trkpt><trkpt lat="44.2086783" lon="11.4528383"><ele>738.6666666666666</ele><time>2026-04-04T08:16:52.23Z</time></trkpt><trkpt lat="44.2088" lon="11.4529817"><ele>737.3333333333334</ele><time>2026-04-04T08:16:53.23Z</time></trkpt><trkpt lat="44.2089233" lon="11.453125"><ele>736.0</ele><time>2026-04-04T08:16:54.23Z</time></trkpt><trkpt lat="44.2090483" lon="11.45327"><ele>736.0</ele><time>2026-04-04T08:16:55.23Z</time></trkpt><trkpt lat="44.2091583" lon="11.4534"><ele>736.0</ele><time>2026-04-04T08:16:56.23Z</time></trkpt><trkpt lat="44.20925" lon="11.4535483"><ele>736.0</ele><time>2026-04-04T08:16:57.229Z</time></trkpt><trkpt lat="44.2093267" lon="11.453715"><ele>736.0</ele><time>2026-04-04T08:16:58.229Z</time></trkpt><trkpt lat="44.2094" lon="11.4538833"><ele>737.75</ele><time>2026-04-04T08:16:59.229Z</time></trkpt><trkpt lat="44.20949" lon="11.4540483"><ele>739.5</ele><time>2026-04-04T08:17:00.23Z</time></trkpt><trkpt lat="44.2095967" lon="11.4541933"><ele>741.25</ele><time>2026-04-04T08:17:01.23Z</time></trkpt><trkpt lat="44.2097117" lon="11.4543233"><ele>743.0</ele><time>2026-04-04T08:17:02.23Z</time></trkpt><trkpt lat="44.209845" lon="11.4544383"><ele>740.6666666666666</ele><time>2026-04-04T08:17:03.229Z</time></trkpt><trkpt lat="44.2099933" lon="11.4545467"><ele>738.3333333333334</ele><time>2026-04-04T08:17:04.23Z</time></trkpt><trkpt lat="44.21014" lon="11.4546517"><ele>736.0</ele><time>2026-04-04T08:17:05.23Z</time></trkpt><trkpt lat="44.2102767" lon="11.4547717"><ele>736.0</ele><time>2026-04-04T08:17:06.229Z</time></trkpt><trkpt lat="44.2104133" lon="11.4548917"><ele>736.0</ele><time>2026-04-04T08:17:07.229Z</time></trkpt><trkpt lat="44.2105517" lon="11.4550083"><ele>736.0</ele><time>2026-04-04T08:17:08.229Z</time></trkpt><trkpt lat="44.2106883" lon="11.45512"><ele>734.5</ele><time>2026-04-04T08:17:09.229Z</time></trkpt><trkpt lat="44.2108167" lon="11.4552267"><ele>733.0</ele><time>2026-04-04T08:17:10.23Z</time></trkpt><trkpt lat="44.210935" lon="11.455335"><ele>731.5</ele><time>2026-04-04T08:17:11.23Z</time></trkpt><trkpt lat="44.2110467" lon="11.4554433"><ele>730.0</ele><time>2026-04-04T08:17:12.229Z</time></trkpt><trkpt lat="44.21116" lon="11.4555317"><ele>730.0</ele><time>2026-04-04T08:17:13.229Z</time></trkpt><trkpt lat="44.2112833" lon="11.4556033"><ele>730.0</ele><time>2026-04-04T08:17:14.229Z</time></trkpt><trkpt lat="44.2114067" lon="11.455655"><ele>730.0</ele><time>2026-04-04T08:17:15.23Z</time></trkpt><trkpt lat="44.2115417" lon="11.45566"><ele>730.0</ele><time>2026-04-04T08:17:16.23Z</time></trkpt><trkpt lat="44.211685" lon="11.4556267"><ele>727.3333333333334</ele><time>2026-04-04T08:17:17.23Z</time></trkpt><trkpt lat="44.2118333" lon="11.4555817"><ele>724.6666666666666</ele><time>2026-04-04T08:17:18.23Z</time></trkpt><trkpt lat="44.211985" lon="11.45553"><ele>722.0</ele><time>2026-04-04T08:17:19.229Z</time></trkpt><trkpt lat="44.2121233" lon="11.4554783"><ele>717.0</ele><time>2026-04-04T08:17:20.229Z</time></trkpt><trkpt lat="44.2122683" lon="11.45541"><ele>712.0</ele><time>2026-04-04T08:17:21.23Z</time></trkpt><trkpt lat="44.2124167" lon="11.45533"><ele>707.0</ele><time>2026-04-04T08:17:22.23Z</time></trkpt><trkpt lat="44.2125533" lon="11.4552383"><ele>705.0</ele><time>2026-04-04T08:17:23.23Z</time></trkpt><trkpt lat="44.2126833" lon="11.4551467"><ele>703.0</ele><time>2026-04-04T08:17:24.229Z</time></trkpt><trkpt lat="44.2128117" lon="11.4550583"><ele>701.0</ele><time>2026-04-04T08:17:25.23Z</time></trkpt><trkpt lat="44.2129367" lon="11.4549783"><ele>699.0</ele><time>2026-04-04T08:17:26.23Z</time></trkpt><trkpt lat="44.2130617" lon="11.4549133"><ele>697.75</ele><time>2026-04-04T08:17:27.23Z</time></trkpt><trkpt lat="44.21319" lon="11.4548767"><ele>696.5</ele><time>2026-04-04T08:17:28.23Z</time></trkpt><trkpt lat="44.2133133" lon="11.4548717"><ele>695.25</ele><time>2026-04-04T08:17:29.229Z</time></trkpt><trkpt lat="44.2134383" lon="11.4548967"><ele>694.0</ele><time>2026-04-04T08:17:30.23Z</time></trkpt><trkpt lat="44.213565" lon="11.454945"><ele>694.0</ele><time>2026-04-04T08:17:31.23Z</time></trkpt><trkpt lat="44.2137017" lon="11.455035"><ele>694.0</ele><time>2026-04-04T08:17:32.229Z</time></trkpt><trkpt lat="44.21385" lon="11.4551433"><ele>694.0</ele><time>2026-04-04T08:17:33.23Z</time></trkpt><trkpt lat="44.2140033" lon="11.45526"><ele>695.6666666666667</ele><time>2026-04-04T08:17:34.229Z</time></trkpt><trkpt lat="44.2141467" lon="11.4553867"><ele>697.3333333333334</ele><time>2026-04-04T08:17:35.23Z</time></trkpt><trkpt lat="44.2142917" lon="11.4555183"><ele>699.0</ele><time>2026-04-04T08:17:36.23Z</time></trkpt><trkpt lat="44.2144367" lon="11.455645"><ele>699.0</ele><time>2026-04-04T08:17:37.23Z</time></trkpt><trkpt lat="44.2145817" lon="11.4557733"><ele>699.0</ele><time>2026-04-04T08:17:38.23Z</time></trkpt><trkpt lat="44.214725" lon="11.45589"><ele>699.0</ele><time>2026-04-04T08:17:39.23Z</time></trkpt><trkpt lat="44.2148483" lon="11.4559933"><ele>696.25</ele><time>2026-04-04T08:17:40.23Z</time></trkpt><trkpt lat="44.2149633" lon="11.4561"><ele>693.5</ele><time>2026-04-04T08:17:41.229Z</time></trkpt><trkpt lat="44.215075" lon="11.4562367"><ele>690.75</ele><time>2026-04-04T08:17:42.229Z</time></trkpt><trkpt lat="44.21519" lon="11.45639"><ele>688.0</ele><time>2026-04-04T08:17:43.23Z</time></trkpt><trkpt lat="44.215305" lon="11.4565517"><ele>688.0</ele><time>2026-04-04T08:17:44.23Z</time></trkpt><trkpt lat="44.2154267" lon="11.4567117"><ele>688.0</ele><time>2026-04-04T08:17:45.229Z</time></trkpt><trkpt lat="44.2155517" lon="11.45686"><ele>688.0</ele><time>2026-04-04T08:17:46.23Z</time></trkpt><trkpt lat="44.215655" lon="11.4570017"><ele>685.0</ele><time>2026-04-04T08:17:47.23Z</time></trkpt><trkpt lat="44.2157567" lon="11.4571467"><ele>682.0</ele><time>2026-04-04T08:17:48.23Z</time></trkpt><trkpt lat="44.215855" lon="11.4572817"><ele>679.0</ele><time>2026-04-04T08:17:49.229Z</time></trkpt><trkpt lat="44.21595" lon="11.45741"><ele>676.0</ele><time>2026-04-04T08:17:50.23Z</time></trkpt><trkpt lat="44.2160467" lon="11.4574767"><ele>676.0</ele><time>2026-04-04T08:17:51.23Z</time></trkpt><trkpt lat="44.2161467" lon="11.457505"><ele>676.0</ele><time>2026-04-04T08:17:52.23Z</time></trkpt><trkpt lat="44.2162667" lon="11.4575167"><ele>676.0</ele><time>2026-04-04T08:17:53.23Z</time></trkpt><trkpt lat="44.2163983" lon="11.4575417"><ele>676.0</ele><time>2026-04-04T08:17:54.229Z</time></trkpt><trkpt lat="44.216535" lon="11.45756"><ele>671.5</ele><time>2026-04-04T08:17:55.23Z</time></trkpt><trkpt lat="44.216655" lon="11.4575783"><ele>667.0</ele><time>2026-04-04T08:17:56.23Z</time></trkpt><trkpt lat="44.21677" lon="11.4576267"><ele>662.5</ele><time>2026-04-04T08:17:57.23Z</time></trkpt><trkpt lat="44.2168783" lon="11.4577117"><ele>658.0</ele><time>2026-04-04T08:17:58.229Z</time></trkpt><trkpt lat="44.2169883" lon="11.4578383"><ele>658.25</ele><time>2026-04-04T08:17:59.23Z</time></trkpt><trkpt lat="44.217095" lon="11.4579817"><ele>658.5</ele><time>2026-04-04T08:18:00.23Z</time></trkpt><trkpt lat="44.2171967" lon="11.4581017"><ele>658.75</ele><time>2026-04-04T08:18:01.23Z</time></trkpt><trkpt lat="44.217305" lon="11.458185"><ele>659.0</ele><time>2026-04-04T08:18:02.229Z</time></trkpt><trkpt lat="44.2174083" lon="11.4582283"><ele>659.0</ele><time>2026-04-04T08:18:03.23Z</time></trkpt><trkpt lat="44.21754" lon="11.4582417"><ele>659.0</ele><time>2026-04-04T08:18:04.229Z</time></trkpt><trkpt lat="44.217685" lon="11.4582317"><ele>659.0</ele><time>2026-04-04T08:18:05.229Z</time></trkpt><trkpt lat="44.2178367" lon="11.4582333"><ele>659.0</ele><time>2026-04-04T08:18:06.23Z</time></trkpt><trkpt lat="44.2179917" lon="11.45824"><ele>659.0</ele><time>2026-04-04T08:18:07.23Z</time></trkpt><trkpt lat="44.2181467" lon="11.4582717"><ele>659.0</ele><time>2026-04-04T08:18:08.229Z</time></trkpt><trkpt lat="44.2183067" lon="11.4583217"><ele>659.0</ele><time>2026-04-04T08:18:09.229Z</time></trkpt><trkpt lat="44.2184733" lon="11.4583933"><ele>654.3333333333333</ele><time>2026-04-04T08:18:10.23Z</time></trkpt><trkpt lat="44.218635" lon="11.4584817"><ele>649.6666666666666</ele><time>2026-04-04T08:18:11.23Z</time></trkpt><trkpt lat="44.2187967" lon="11.4585817"><ele>645.0</ele><time>2026-04-04T08:18:12.23Z</time></trkpt><trkpt lat="44.21896" lon="11.4586667"><ele>644.0</ele><time>2026-04-04T08:18:13.229Z</time></trkpt><trkpt lat="44.2191217" lon="11.4587417"><ele>643.0</ele><time>2026-04-04T08:18:14.23Z</time></trkpt><trkpt lat="44.21926" lon="11.45881"><ele>642.0</ele><time>2026-04-04T08:18:15.23Z</time></trkpt><trkpt lat="44.2193933" lon="11.4588633"><ele>642.0</ele><time>2026-04-04T08:18:16.23Z</time></trkpt><trkpt lat="44.2195117" lon="11.4589367"><ele>642.0</ele><time>2026-04-04T08:18:17.229Z</time></trkpt><trkpt lat="44.219625" lon="11.4590317"><ele>642.0</ele><time>2026-04-04T08:18:18.23Z</time></trkpt><trkpt lat="44.219735" lon="11.4591333"><ele>642.0</ele><time>2026-04-04T08:18:19.229Z</time></trkpt><trkpt lat="44.2198317" lon="11.45923"><ele>639.0</ele><time>2026-04-04T08:18:20.23Z</time></trkpt><trkpt lat="44.2199033" lon="11.459335"><ele>636.0</ele><time>2026-04-04T08:18:21.229Z</time></trkpt><trkpt lat="44.2199517" lon="11.459445"><ele>633.0</ele><time>2026-04-04T08:18:22.229Z</time></trkpt><trkpt lat="44.220005" lon="11.4595317"><ele>630.0</ele><time>2026-04-04T08:18:23.23Z</time></trkpt><trkpt lat="44.2201067" lon="11.4595467"><ele>627.0</ele><time>2026-04-04T08:18:25.229Z</time></trkpt><trkpt lat="44.2201367" lon="11.4593667"><ele>627.0</ele><time>2026-04-04T08:18:27.23Z</time></trkpt><trkpt lat="44.2200867" lon="11.4592283"><ele>627.0</ele><time>2026-04-04T08:18:28.23Z</time></trkpt><trkpt lat="44.2200233" lon="11.4590617"><ele>627.0</ele><time>2026-04-04T08:18:29.23Z</time></trkpt><trkpt lat="44.2199633" lon="11.4588833"><ele>627.0</ele><time>2026-04-04T08:18:30.229Z</time></trkpt><trkpt lat="44.2198933" lon="11.4587033"><ele>627.3333333333334</ele><time>2026-04-04T08:18:31.229Z</time></trkpt><trkpt lat="44.219815" lon="11.4585267"><ele>627.6666666666667</ele><time>2026-04-04T08:18:32.23Z</time></trkpt><trkpt lat="44.2197333" lon="11.45834"><ele>628.0</ele><time>2026-04-04T08:18:33.23Z</time></trkpt><trkpt lat="44.21966" lon="11.4581483"><ele>624.3333333333334</ele><time>2026-04-04T08:18:34.229Z</time></trkpt><trkpt lat="44.219585" lon="11.45795"><ele>620.6666666666666</ele><time>2026-04-04T08:18:35.23Z</time></trkpt><trkpt lat="44.2195017" lon="11.45774"><ele>617.0</ele><time>2026-04-04T08:18:36.23Z</time></trkpt><trkpt lat="44.2194267" lon="11.45754"><ele>617.0</ele><time>2026-04-04T08:18:37.229Z</time></trkpt><trkpt lat="44.2193567" lon="11.4573633"><ele>617.0</ele><time>2026-04-04T08:18:38.229Z</time></trkpt><trkpt lat="44.2192867" lon="11.45719"><ele>617.0</ele><time>2026-04-04T08:18:39.229Z</time></trkpt><trkpt lat="44.21921" lon="11.4570417"><ele>617.0</ele><time>2026-04-04T08:18:40.229Z</time></trkpt><trkpt lat="44.21911" lon="11.4569117"><ele>616.0</ele><time>2026-04-04T08:18:41.23Z</time></trkpt><trkpt lat="44.2189967" lon="11.456805"><ele>615.0</ele><time>2026-04-04T08:18:42.23Z</time></trkpt><trkpt lat="44.2188783" lon="11.456685"><ele>614.0</ele><time>2026-04-04T08:18:43.23Z</time></trkpt><trkpt lat="44.2187767" lon="11.4565517"><ele>613.0</ele><time>2026-04-04T08:18:44.23Z</time></trkpt><trkpt lat="44.2186767" lon="11.4564033"><ele>610.5</ele><time>2026-04-04T08:18:45.23Z</time></trkpt><trkpt lat="44.2185917" lon="11.4562383"><ele>608.0</ele><time>2026-04-04T08:18:46.23Z</time></trkpt><trkpt lat="44.21852" lon="11.4560633"><ele>605.5</ele><time>2026-04-04T08:18:47.23Z</time></trkpt><trkpt lat="44.21846" lon="11.4558767"><ele>603.0</ele><time>2026-04-04T08:18:48.231Z</time></trkpt><trkpt lat="44.21841" lon="11.4556783"><ele>603.0</ele><time>2026-04-04T08:18:49.231Z</time></trkpt><trkpt lat="44.2183733" lon="11.45546"><ele>603.0</ele><time>2026-04-04T08:18:50.231Z</time></trkpt><trkpt lat="44.2183467" lon="11.4552433"><ele>603.0</ele><time>2026-04-04T08:18:51.23Z</time></trkpt><trkpt lat="44.2183233" lon="11.4550583"><ele>602.75</ele><time>2026-04-04T08:18:52.231Z</time></trkpt><trkpt lat="44.218295" lon="11.4549"><ele>602.5</ele><time>2026-04-04T08:18:53.231Z</time></trkpt><trkpt lat="44.2182417" lon="11.454745"><ele>602.25</ele><time>2026-04-04T08:18:54.231Z</time></trkpt><trkpt lat="44.2181683" lon="11.4545817"><ele>602.0</ele><time>2026-04-04T08:18:55.231Z</time></trkpt><trkpt lat="44.218095" lon="11.4544167"><ele>602.0</ele><time>2026-04-04T08:18:56.23Z</time></trkpt><trkpt lat="44.2180083" lon="11.45424"><ele>602.0</ele><time>2026-04-04T08:18:57.231Z</time></trkpt><trkpt lat="44.21792" lon="11.4540667"><ele>602.0</ele><time>2026-04-04T08:18:58.23Z</time></trkpt><trkpt lat="44.2178367" lon="11.4538867"><ele>599.25</ele><time>2026-04-04T08:18:59.23Z</time></trkpt><trkpt lat="44.217765" lon="11.4537217"><ele>596.5</ele><time>2026-04-04T08:19:00.231Z</time></trkpt><trkpt lat="44.2176983" lon="11.45354"><ele>593.75</ele><time>2026-04-04T08:19:01.23Z</time></trkpt><trkpt lat="44.2176433" lon="11.45334"><ele>591.0</ele><time>2026-04-04T08:19:02.23Z</time></trkpt><trkpt lat="44.2175917" lon="11.45311"><ele>587.3333333333334</ele><time>2026-04-04T08:19:03.231Z</time></trkpt><trkpt lat="44.21755" lon="11.4528767"><ele>583.6666666666667</ele><time>2026-04-04T08:19:04.23Z</time></trkpt><trkpt lat="44.21751" lon="11.4526667"><ele>580.0</ele><time>2026-04-04T08:19:05.231Z</time></trkpt><trkpt lat="44.2174617" lon="11.4524767"><ele>580.0</ele><time>2026-04-04T08:19:06.23Z</time></trkpt><trkpt lat="44.2174133" lon="11.4523267"><ele>580.0</ele><time>2026-04-04T08:19:07.23Z</time></trkpt><trkpt lat="44.217365" lon="11.4521933"><ele>580.0</ele><time>2026-04-04T08:19:08.23Z</time></trkpt><trkpt lat="44.2173333" lon="11.4520933"><ele>580.0</ele><time>2026-04-04T08:19:09.231Z</time></trkpt><trkpt lat="44.2173383" lon="11.4519583"><ele>580.0</ele><time>2026-04-04T08:19:11.23Z</time></trkpt><trkpt lat="44.21745" lon="11.4519417"><ele>580.0</ele><time>2026-04-04T08:19:13.231Z</time></trkpt><trkpt lat="44.2175133" lon="11.4520183"><ele>580.0</ele><time>2026-04-04T08:19:14.23Z</time></trkpt><trkpt lat="44.2175767" lon="11.4521033"><ele>580.0</ele><time>2026-04-04T08:19:15.231Z</time></trkpt><trkpt lat="44.2176417" lon="11.4521933"><ele>580.0</ele><time>2026-04-04T08:19:16.231Z</time></trkpt><trkpt lat="44.2177017" lon="11.45229"><ele>580.0</ele><time>2026-04-04T08:19:17.23Z</time></trkpt><trkpt lat="44.2177817" lon="11.45239"><ele>580.0</ele><time>2026-04-04T08:19:18.23Z</time></trkpt><trkpt lat="44.21787" lon="11.4525017"><ele>580.0</ele><time>2026-04-04T08:19:19.23Z</time></trkpt><trkpt lat="44.2179617" lon="11.452625"><ele>580.0</ele><time>2026-04-04T08:19:20.231Z</time></trkpt><trkpt lat="44.2180583" lon="11.45275"><ele>580.0</ele><time>2026-04-04T08:19:21.23Z</time></trkpt><trkpt lat="44.2181483" lon="11.4528717"><ele>577.25</ele><time>2026-04-04T08:19:22.231Z</time></trkpt><trkpt lat="44.2182367" lon="11.4529767"><ele>574.5</ele><time>2026-04-04T08:19:23.231Z</time></trkpt><trkpt lat="44.218335" lon="11.4530717"><ele>571.75</ele><time>2026-04-04T08:19:24.231Z</time></trkpt><trkpt lat="44.2184483" lon="11.45315"><ele>569.0</ele><time>2026-04-04T08:19:25.23Z</time></trkpt><trkpt lat="44.2185733" lon="11.45321"><ele>569.0</ele><time>2026-04-04T08:19:26.231Z</time></trkpt><trkpt lat="44.218715" lon="11.4532633"><ele>569.0</ele><time>2026-04-04T08:19:27.231Z</time></trkpt><trkpt lat="44.2188583" lon="11.4533117"><ele>569.0</ele><time>2026-04-04T08:19:28.23Z</time></trkpt><trkpt lat="44.2190017" lon="11.453345"><ele>569.0</ele><time>2026-04-04T08:19:29.231Z</time></trkpt><trkpt lat="44.219145" lon="11.45338"><ele>565.5</ele><time>2026-04-04T08:19:30.23Z</time></trkpt><trkpt lat="44.2192883" lon="11.4534267"><ele>562.0</ele><time>2026-04-04T08:19:31.23Z</time></trkpt><trkpt lat="44.219435" lon="11.453465"><ele>558.5</ele><time>2026-04-04T08:19:32.231Z</time></trkpt><trkpt lat="44.21958" lon="11.453515"><ele>555.0</ele><time>2026-04-04T08:19:33.231Z</time></trkpt><trkpt lat="44.21971" lon="11.4535833"><ele>554.75</ele><time>2026-04-04T08:19:34.231Z</time></trkpt><trkpt lat="44.21982" lon="11.4536817"><ele>554.5</ele><time>2026-04-04T08:19:35.231Z</time></trkpt><trkpt lat="44.2199167" lon="11.4537883"><ele>554.25</ele><time>2026-04-04T08:19:36.231Z</time></trkpt><trkpt lat="44.220015" lon="11.4539067"><ele>554.0</ele><time>2026-04-04T08:19:37.231Z</time></trkpt><trkpt lat="44.2201133" lon="11.454035"><ele>554.0</ele><time>2026-04-04T08:19:38.231Z</time></trkpt><trkpt lat="44.2202183" lon="11.4541517"><ele>554.0</ele><time>2026-04-04T08:19:39.23Z</time></trkpt><trkpt lat="44.220335" lon="11.4542533"><ele>554.0</ele><time>2026-04-04T08:19:40.231Z</time></trkpt><trkpt lat="44.2204533" lon="11.4543517"><ele>554.0</ele><time>2026-04-04T08:19:41.23Z</time></trkpt><trkpt lat="44.2205817" lon="11.454435"><ele>552.25</ele><time>2026-04-04T08:19:42.23Z</time></trkpt><trkpt lat="44.2207117" lon="11.45452"><ele>550.5</ele><time>2026-04-04T08:19:43.231Z</time></trkpt><trkpt lat="44.2208367" lon="11.4546083"><ele>548.75</ele><time>2026-04-04T08:19:44.23Z</time></trkpt><trkpt lat="44.2209667" lon="11.45471"><ele>547.0</ele><time>2026-04-04T08:19:45.23Z</time></trkpt><trkpt lat="44.221095" lon="11.454805"><ele>547.0</ele><time>2026-04-04T08:19:46.231Z</time></trkpt><trkpt lat="44.2212383" lon="11.4548917"><ele>547.0</ele><time>2026-04-04T08:19:47.23Z</time></trkpt><trkpt lat="44.221385" lon="11.4549933"><ele>547.0</ele><time>2026-04-04T08:19:48.231Z</time></trkpt><trkpt lat="44.22153" lon="11.4550883"><ele>540.6666666666667</ele><time>2026-04-04T08:19:49.23Z</time></trkpt><trkpt lat="44.2216683" lon="11.4551817"><ele>534.3333333333334</ele><time>2026-04-04T08:19:50.23Z</time></trkpt><trkpt lat="44.2217967" lon="11.45528"><ele>528.0</ele><time>2026-04-04T08:19:51.23Z</time></trkpt><trkpt lat="44.22193" lon="11.4553783"><ele>527.5</ele><time>2026-04-04T08:19:52.231Z</time></trkpt><trkpt lat="44.2220617" lon="11.4554667"><ele>527.0</ele><time>2026-04-04T08:19:53.231Z</time></trkpt><trkpt lat="44.222195" lon="11.455565"><ele>526.5</ele><time>2026-04-04T08:19:54.231Z</time></trkpt><trkpt lat="44.2223233" lon="11.4556567"><ele>526.0</ele><time>2026-04-04T08:19:55.231Z</time></trkpt><trkpt lat="44.2224417" lon="11.45575"><ele>526.0</ele><time>2026-04-04T08:19:56.231Z</time></trkpt><trkpt lat="44.2225633" lon="11.4558383"><ele>526.0</ele><time>2026-04-04T08:19:57.231Z</time></trkpt><trkpt lat="44.22268" lon="11.4559283"><ele>526.0</ele><time>2026-04-04T08:19:58.231Z</time></trkpt><trkpt lat="44.2227883" lon="11.4560083"><ele>526.0</ele><time>2026-04-04T08:19:59.231Z</time></trkpt><trkpt lat="44.2228833" lon="11.4560883"><ele>526.0</ele><time>2026-04-04T08:20:00.231Z</time></trkpt><trkpt lat="44.2229633" lon="11.456175"><ele>526.0</ele><time>2026-04-04T08:20:01.231Z</time></trkpt><trkpt lat="44.2230333" lon="11.4562667"><ele>526.0</ele><time>2026-04-04T08:20:02.231Z</time></trkpt><trkpt lat="44.2230867" lon="11.4563567"><ele>526.0</ele><time>2026-04-04T08:20:03.231Z</time></trkpt><trkpt lat="44.2231433" lon="11.4564283"><ele>526.0</ele><time>2026-04-04T08:20:04.231Z</time></trkpt><trkpt lat="44.2232217" lon="11.456515"><ele>524.8333333333334</ele><time>2026-04-04T08:20:06.231Z</time></trkpt><trkpt lat="44.2233033" lon="11.45654"><ele>523.6666666666667</ele><time>2026-04-04T08:21:40.23Z</time></trkpt><trkpt lat="44.2233717" lon="11.45655"><ele>522.5</ele><time>2026-04-04T08:21:41.231Z</time></trkpt><trkpt lat="44.22345" lon="11.45655"><ele>521.3333333333334</ele><time>2026-04-04T08:21:42.23Z</time></trkpt><trkpt lat="44.22354" lon="11.4565383"><ele>520.1666666666666</ele><time>2026-04-04T08:21:43.231Z</time></trkpt><trkpt lat="44.2236367" lon="11.4565183"><ele>519.0</ele><time>2026-04-04T08:21:44.231Z</time></trkpt><trkpt lat="44.22374" lon="11.4564817"><ele>519.0</ele><time>2026-04-04T08:21:45.23Z</time></trkpt><trkpt lat="44.2238367" lon="11.4564617"><ele>519.0</ele><time>2026-04-04T08:21:46.231Z</time></trkpt><trkpt lat="44.2239267" lon="11.4564483"><ele>519.0</ele><time>2026-04-04T08:21:47.231Z</time></trkpt><trkpt lat="44.224025" lon="11.4564533"><ele>519.0</ele><time>2026-04-04T08:21:48.231Z</time></trkpt><trkpt lat="44.2241217" lon="11.456495"><ele>519.0</ele><time>2026-04-04T08:21:49.231Z</time></trkpt><trkpt lat="44.224225" lon="11.4565567"><ele>516.25</ele><time>2026-04-04T08:21:50.231Z</time></trkpt><trkpt lat="44.224335" lon="11.45663"><ele>513.5</ele><time>2026-04-04T08:21:51.231Z</time></trkpt><trkpt lat="44.224445" lon="11.45671"><ele>510.75</ele><time>2026-04-04T08:21:52.231Z</time></trkpt><trkpt lat="44.2245667" lon="11.4568067"><ele>508.0</ele><time>2026-04-04T08:21:53.231Z</time></trkpt><trkpt lat="44.2246933" lon="11.4568867"><ele>506.5</ele><time>2026-04-04T08:21:54.231Z</time></trkpt><trkpt lat="44.2248133" lon="11.4569617"><ele>505.0</ele><time>2026-04-04T08:21:55.23Z</time></trkpt><trkpt lat="44.2249267" lon="11.45704"><ele>503.5</ele><time>2026-04-04T08:21:56.231Z</time></trkpt><trkpt lat="44.2250367" lon="11.457105"><ele>502.0</ele><time>2026-04-04T08:21:57.231Z</time></trkpt><trkpt lat="44.2251283" lon="11.4571833"><ele>502.00000000000006</ele><time>2026-04-04T08:21:58.231Z</time></trkpt><trkpt lat="44.2252" lon="11.4572733"><ele>502.0</ele><time>2026-04-04T08:21:59.231Z</time></trkpt><trkpt lat="44.2252533" lon="11.4573767"><ele>502.0</ele><time>2026-04-04T08:22:00.23Z</time></trkpt><trkpt lat="44.2252967" lon="11.4574683"><ele>502.0</ele><time>2026-04-04T08:22:01.23Z</time></trkpt><trkpt lat="44.225355" lon="11.4575367"><ele>502.00000000000006</ele><time>2026-04-04T08:22:02.231Z</time></trkpt><trkpt lat="44.2254167" lon="11.45757"><ele>502.0</ele><time>2026-04-04T08:22:03.23Z</time></trkpt><trkpt lat="44.22552" lon="11.4576083"><ele>502.0</ele><time>2026-04-04T08:22:05.23Z</time></trkpt><trkpt lat="44.2255667" lon="11.4576733"><ele>502.00000000000006</ele><time>2026-04-04T08:22:06.23Z</time></trkpt><trkpt lat="44.2256183" lon="11.4577717"><ele>502.00000000000006</ele><time>2026-04-04T08:22:07.23Z</time></trkpt><trkpt lat="44.2256733" lon="11.45788"><ele>502.0</ele><time>2026-04-04T08:22:08.231Z</time></trkpt><trkpt lat="44.22573" lon="11.457995"><ele>502.0</ele><time>2026-04-04T08:22:09.23Z</time></trkpt><trkpt lat="44.22578" lon="11.4581367"><ele>503.6</ele><time>2026-04-04T08:22:10.23Z</time></trkpt><trkpt lat="44.2258083" lon="11.458285"><ele>505.20000000000005</ele><time>2026-04-04T08:22:11.231Z</time></trkpt><trkpt lat="44.2257883" lon="11.4584267"><ele>506.8</ele><time>2026-04-04T08:22:12.23Z</time></trkpt><trkpt lat="44.2257383" lon="11.45855"><ele>508.4</ele><time>2026-04-04T08:22:13.231Z</time></trkpt><trkpt lat="44.225655" lon="11.4586483"><ele>510.0</ele><time>2026-04-04T08:22:14.231Z</time></trkpt><trkpt lat="44.2255367" lon="11.458715"><ele>510.0</ele><time>2026-04-04T08:22:15.231Z</time></trkpt><trkpt lat="44.2254133" lon="11.4587583"><ele>510.0</ele><time>2026-04-04T08:22:16.23Z</time></trkpt><trkpt lat="44.2253083" lon="11.45878"><ele>510.0</ele><time>2026-04-04T08:22:17.23Z</time></trkpt><trkpt lat="44.2252367" lon="11.45879"><ele>510.0</ele><time>2026-04-04T08:22:18.231Z</time></trkpt><trkpt lat="44.2251333" lon="11.4587917"><ele>510.0</ele><time>2026-04-04T08:23:38.231Z</time></trkpt><trkpt lat="44.2250333" lon="11.458815"><ele>510.0</ele><time>2026-04-04T08:23:40.23Z</time></trkpt><trkpt lat="44.2249583" lon="11.45882"><ele>510.0</ele><time>2026-04-04T08:23:41.23Z</time></trkpt><trkpt lat="44.2248683" lon="11.4588367"><ele>510.0</ele><time>2026-04-04T08:23:42.231Z</time></trkpt><trkpt lat="44.224765" lon="11.45886"><ele>510.0</ele><time>2026-04-04T08:23:43.231Z</time></trkpt><trkpt lat="44.2246583" lon="11.4588917"><ele>510.0</ele><time>2026-04-04T08:23:44.23Z</time></trkpt><trkpt lat="44.2245467" lon="11.458925"><ele>510.0</ele><time>2026-04-04T08:23:45.231Z</time></trkpt><trkpt lat="44.224415" lon="11.4589833"><ele>510.0</ele><time>2026-04-04T08:23:46.23Z</time></trkpt><trkpt lat="44.2242933" lon="11.4590633"><ele>510.0</ele><time>2026-04-04T08:23:47.231Z</time></trkpt><trkpt lat="44.2241767" lon="11.4591583"><ele>510.0</ele><time>2026-04-04T08:23:48.23Z</time></trkpt><trkpt lat="44.2240567" lon="11.459245"><ele>516.5</ele><time>2026-04-04T08:23:49.231Z</time></trkpt><trkpt lat="44.223935" lon="11.4593233"><ele>523.0</ele><time>2026-04-04T08:23:50.231Z</time></trkpt><trkpt lat="44.2238133" lon="11.4594"><ele>529.5</ele><time>2026-04-04T08:23:51.231Z</time></trkpt><trkpt lat="44.223685" lon="11.4594733"><ele>536.0</ele><time>2026-04-04T08:23:52.23Z</time></trkpt><trkpt lat="44.22355" lon="11.4595367"><ele>537.25</ele><time>2026-04-04T08:23:53.23Z</time></trkpt><trkpt lat="44.223415" lon="11.45962"><ele>538.5</ele><time>2026-04-04T08:23:54.231Z</time></trkpt><trkpt lat="44.22329" lon="11.4597267"><ele>539.75</ele><time>2026-04-04T08:23:55.23Z</time></trkpt><trkpt lat="44.2231867" lon="11.4598583"><ele>541.0</ele><time>2026-04-04T08:23:56.23Z</time></trkpt><trkpt lat="44.2230867" lon="11.4600067"><ele>541.0</ele><time>2026-04-04T08:23:57.23Z</time></trkpt><trkpt lat="44.2230202" lon="11.4601772"><ele>541.0</ele><time>2026-04-04T08:23:58.231Z</time></trkpt><trkpt lat="44.222983" lon="11.4603558"><ele>541.0</ele><time>2026-04-04T08:23:59.231Z</time></trkpt><trkpt lat="44.2229736" lon="11.4605593"><ele>541.0</ele><time>2026-04-04T08:24:00.231Z</time></trkpt><trkpt lat="44.2229845" lon="11.4607709"><ele>540.0</ele><time>2026-04-04T08:24:01.231Z</time></trkpt><trkpt lat="44.2230005" lon="11.4609841"><ele>539.0</ele><time>2026-04-04T08:24:02.23Z</time></trkpt><trkpt lat="44.2230224" lon="11.4611883"><ele>538.0</ele><time>2026-04-04T08:24:03.23Z</time></trkpt><trkpt lat="44.2230432" lon="11.4613863"><ele>537.0</ele><time>2026-04-04T08:24:04.231Z</time></trkpt><trkpt lat="44.2230582" lon="11.4615788"><ele>537.0</ele><time>2026-04-04T08:24:05.231Z</time></trkpt><trkpt lat="44.223071" lon="11.4617586"><ele>537.0</ele><time>2026-04-04T08:24:06.231Z</time></trkpt><trkpt lat="44.2230734" lon="11.4619372"><ele>537.0</ele><time>2026-04-04T08:24:07.23Z</time></trkpt><trkpt lat="44.2230537" lon="11.4621112"><ele>537.0</ele><time>2026-04-04T08:24:08.23Z</time></trkpt><trkpt lat="44.2229905" lon="11.4622723"><ele>532.25</ele><time>2026-04-04T08:24:09.231Z</time></trkpt><trkpt lat="44.2229015" lon="11.4624089"><ele>527.5</ele><time>2026-04-04T08:24:10.23Z</time></trkpt><trkpt lat="44.2227911" lon="11.4625135"><ele>522.75</ele><time>2026-04-04T08:24:11.231Z</time></trkpt><trkpt lat="44.2226585" lon="11.4626052"><ele>518.0</ele><time>2026-04-04T08:24:12.231Z</time></trkpt><trkpt lat="44.2225216" lon="11.4626966"><ele>518.0</ele><time>2026-04-04T08:24:13.231Z</time></trkpt><trkpt lat="44.2223832" lon="11.4627756"><ele>518.0</ele><time>2026-04-04T08:24:14.231Z</time></trkpt><trkpt lat="44.2222522" lon="11.4628317"><ele>518.0</ele><time>2026-04-04T08:24:15.23Z</time></trkpt><trkpt lat="44.2221565" lon="11.4629129"><ele>518.0</ele><time>2026-04-04T08:24:16.231Z</time></trkpt><trkpt lat="44.222098" lon="11.463021"><ele>520.0</ele><time>2026-04-04T08:24:17.231Z</time></trkpt><trkpt lat="44.2220717" lon="11.4631696"><ele>522.0</ele><time>2026-04-04T08:24:18.23Z</time></trkpt><trkpt lat="44.2220727" lon="11.4633422"><ele>524.0</ele><time>2026-04-04T08:24:19.231Z</time></trkpt><trkpt lat="44.2220981" lon="11.4635212"><ele>526.0</ele><time>2026-04-04T08:24:20.231Z</time></trkpt><trkpt lat="44.2221457" lon="11.4636974"><ele>526.6666666666667</ele><time>2026-04-04T08:24:21.231Z</time></trkpt><trkpt lat="44.2222138" lon="11.4638776"><ele>527.3333333333334</ele><time>2026-04-04T08:24:22.231Z</time></trkpt><trkpt lat="44.2223004" lon="11.4640566"><ele>528.0</ele><time>2026-04-04T08:24:23.231Z</time></trkpt><trkpt lat="44.2223952" lon="11.4642262"><ele>522.0</ele><time>2026-04-04T08:24:24.23Z</time></trkpt><trkpt lat="44.2224959" lon="11.4643879"><ele>516.0</ele><time>2026-04-04T08:24:25.231Z</time></trkpt><trkpt lat="44.2226014" lon="11.4645463"><ele>510.0</ele><time>2026-04-04T08:24:26.23Z</time></trkpt><trkpt lat="44.2227117" lon="11.4646977"><ele>510.0</ele><time>2026-04-04T08:24:27.231Z</time></trkpt><trkpt lat="44.222825" lon="11.4648393"><ele>510.0</ele><time>2026-04-04T08:24:28.231Z</time></trkpt><trkpt lat="44.2229446" lon="11.4649772"><ele>510.0</ele><time>2026-04-04T08:24:29.231Z</time></trkpt><trkpt lat="44.223071" lon="11.4651017"><ele>508.75</ele><time>2026-04-04T08:24:30.231Z</time></trkpt><trkpt lat="44.2231944" lon="11.4652122"><ele>507.5</ele><time>2026-04-04T08:24:31.231Z</time></trkpt><trkpt lat="44.2233141" lon="11.4653115"><ele>506.25</ele><time>2026-04-04T08:24:32.231Z</time></trkpt><trkpt lat="44.223438" lon="11.4654079"><ele>505.0</ele><time>2026-04-04T08:24:33.231Z</time></trkpt><trkpt lat="44.2235523" lon="11.4654917"><ele>505.00000000000006</ele><time>2026-04-04T08:24:34.23Z</time></trkpt><trkpt lat="44.2236622" lon="11.4655601"><ele>505.0</ele><time>2026-04-04T08:24:35.231Z</time></trkpt><trkpt lat="44.2237486" lon="11.4656253"><ele>505.0</ele><time>2026-04-04T08:24:36.231Z</time></trkpt><trkpt lat="44.2238115" lon="11.4656955"><ele>505.0</ele><time>2026-04-04T08:24:37.231Z</time></trkpt><trkpt lat="44.2238491" lon="11.465771"><ele>505.00000000000006</ele><time>2026-04-04T08:24:38.23Z</time></trkpt><trkpt lat="44.2238549" lon="11.4658589"><ele>505.0</ele><time>2026-04-04T08:24:39.23Z</time></trkpt><trkpt lat="44.2238332" lon="11.4659532"><ele>505.0</ele><time>2026-04-04T08:24:40.231Z</time></trkpt><trkpt lat="44.2237818" lon="11.4660385"><ele>505.0</ele><time>2026-04-04T08:24:41.23Z</time></trkpt><trkpt lat="44.2236977" lon="11.4660961"><ele>505.0</ele><time>2026-04-04T08:24:42.231Z</time></trkpt><trkpt lat="44.2235958" lon="11.4661155"><ele>505.0</ele><time>2026-04-04T08:24:43.231Z</time></trkpt><trkpt lat="44.2234779" lon="11.4661116"><ele>505.0</ele><time>2026-04-04T08:24:44.231Z</time></trkpt><trkpt lat="44.2233551" lon="11.4660979"><ele>505.0</ele><time>2026-04-04T08:24:45.231Z</time></trkpt><trkpt lat="44.2232367" lon="11.4660837"><ele>505.0</ele><time>2026-04-04T08:24:46.231Z</time></trkpt><trkpt lat="44.2231225" lon="11.4660704"><ele>505.0</ele><time>2026-04-04T08:24:47.23Z</time></trkpt><trkpt lat="44.2230114" lon="11.4660577"><ele>505.0</ele><time>2026-04-04T08:24:48.231Z</time></trkpt><trkpt lat="44.2228985" lon="11.4660481"><ele>506.5</ele><time>2026-04-04T08:24:49.231Z</time></trkpt><trkpt lat="44.2227874" lon="11.4660432"><ele>508.0</ele><time>2026-04-04T08:24:50.231Z</time></trkpt><trkpt lat="44.2226684" lon="11.4660423"><ele>509.5</ele><time>2026-04-04T08:24:51.231Z</time></trkpt><trkpt lat="44.2225475" lon="11.4660645"><ele>511.0</ele><time>2026-04-04T08:24:52.231Z</time></trkpt><trkpt lat="44.2224213" lon="11.4661003"><ele>512.75</ele><time>2026-04-04T08:24:53.231Z</time></trkpt><trkpt lat="44.222296" lon="11.4661511"><ele>514.5</ele><time>2026-04-04T08:24:54.231Z</time></trkpt><trkpt lat="44.2221711" lon="11.4662083"><ele>516.25</ele><time>2026-04-04T08:24:55.231Z</time></trkpt><trkpt lat="44.2220475" lon="11.4662581"><ele>518.0</ele><time>2026-04-04T08:24:56.23Z</time></trkpt><trkpt lat="44.2219367" lon="11.4663039"><ele>518.0</ele><time>2026-04-04T08:24:57.231Z</time></trkpt><trkpt lat="44.2218556" lon="11.4663383"><ele>518.0</ele><time>2026-04-04T08:24:58.23Z</time></trkpt><trkpt lat="44.2217794" lon="11.4664499"><ele>518.0</ele><time>2026-04-04T08:25:00.23Z</time></trkpt><trkpt lat="44.2217543" lon="11.4665444"><ele>518.0</ele><time>2026-04-04T08:25:01.23Z</time></trkpt><trkpt lat="44.2217341" lon="11.4666598"><ele>518.0</ele><time>2026-04-04T08:25:02.231Z</time></trkpt><trkpt lat="44.2217106" lon="11.4667743"><ele>518.0</ele><time>2026-04-04T08:25:03.231Z</time></trkpt><trkpt lat="44.2216929" lon="11.466885"><ele>518.0</ele><time>2026-04-04T08:25:04.23Z</time></trkpt><trkpt lat="44.2216867" lon="11.4669833"><ele>518.0</ele><time>2026-04-04T08:25:05.23Z</time></trkpt><trkpt lat="44.22166" lon="11.4670983"><ele>518.0</ele><time>2026-04-04T08:25:07.231Z</time></trkpt><trkpt lat="44.2215883" lon="11.4671283"><ele>518.0</ele><time>2026-04-04T08:25:09.23Z</time></trkpt><trkpt lat="44.2214633" lon="11.4670383"><ele>518.0</ele><time>2026-04-04T08:25:11.231Z</time></trkpt><trkpt lat="44.2213783" lon="11.4669667"><ele>516.6</ele><time>2026-04-04T08:25:12.231Z</time></trkpt><trkpt lat="44.2212817" lon="11.4669033"><ele>515.1999999999999</ele><time>2026-04-04T08:25:13.231Z</time></trkpt><trkpt lat="44.22119" lon="11.4668533"><ele>513.8</ele><time>2026-04-04T08:25:14.231Z</time></trkpt><trkpt lat="44.2211" lon="11.4668217"><ele>512.4</ele><time>2026-04-04T08:25:15.23Z</time></trkpt><trkpt lat="44.2210167" lon="11.4668"><ele>511.0</ele><time>2026-04-04T08:25:16.231Z</time></trkpt><trkpt lat="44.2209367" lon="11.46679"><ele>511.00000000000006</ele><time>2026-04-04T08:25:17.23Z</time></trkpt><trkpt lat="44.2208633" lon="11.4667867"><ele>511.0</ele><time>2026-04-04T08:25:18.23Z</time></trkpt><trkpt lat="44.22078" lon="11.4667983"><ele>511.0</ele><time>2026-04-04T08:25:19.231Z</time></trkpt><trkpt lat="44.2206867" lon="11.46681"><ele>511.0</ele><time>2026-04-04T08:25:20.23Z</time></trkpt><trkpt lat="44.22059" lon="11.4668117"><ele>511.00000000000006</ele><time>2026-04-04T08:25:21.231Z</time></trkpt><trkpt lat="44.2205" lon="11.4667867"><ele>511.0</ele><time>2026-04-04T08:25:22.23Z</time></trkpt><trkpt lat="44.2204033" lon="11.46675"><ele>515.0</ele><time>2026-04-04T08:25:23.231Z</time></trkpt><trkpt lat="44.2203083" lon="11.466725"><ele>519.0</ele><time>2026-04-04T08:25:24.231Z</time></trkpt><trkpt lat="44.22022" lon="11.466725"><ele>523.0</ele><time>2026-04-04T08:25:25.231Z</time></trkpt><trkpt lat="44.2201417" lon="11.4667683"><ele>527.0</ele><time>2026-04-04T08:25:26.231Z</time></trkpt><trkpt lat="44.2200667" lon="11.466845"><ele>531.0</ele><time>2026-04-04T08:25:27.231Z</time></trkpt><trkpt lat="44.2199983" lon="11.46696"><ele>531.0</ele><time>2026-04-04T08:25:28.23Z</time></trkpt><trkpt lat="44.2199233" lon="11.4670883"><ele>531.0</ele><time>2026-04-04T08:25:29.231Z</time></trkpt><trkpt lat="44.2198383" lon="11.467215"><ele>531.0</ele><time>2026-04-04T08:25:30.231Z</time></trkpt><trkpt lat="44.2197517" lon="11.4673283"><ele>531.0</ele><time>2026-04-04T08:25:31.23Z</time></trkpt><trkpt lat="44.2196733" lon="11.467435"><ele>524.2</ele><time>2026-04-04T08:25:32.23Z</time></trkpt><trkpt lat="44.2196117" lon="11.4675133"><ele>517.4000000000001</ele><time>2026-04-04T08:25:33.231Z</time></trkpt><trkpt lat="44.2195533" lon="11.4675567"><ele>510.6</ele><time>2026-04-04T08:25:34.231Z</time></trkpt><trkpt lat="44.219445" lon="11.4674733"><ele>503.8</ele><time>2026-04-04T08:25:36.23Z</time></trkpt><trkpt lat="44.2193933" lon="11.4673533"><ele>497.0</ele><time>2026-04-04T08:25:37.231Z</time></trkpt><trkpt lat="44.2193467" lon="11.467205"><ele>502.6</ele><time>2026-04-04T08:25:38.231Z</time></trkpt><trkpt lat="44.2193067" lon="11.46706"><ele>508.20000000000005</ele><time>2026-04-04T08:25:39.231Z</time></trkpt><trkpt lat="44.2192583" lon="11.4669333"><ele>513.8</ele><time>2026-04-04T08:25:40.231Z</time></trkpt><trkpt lat="44.2191867" lon="11.46683"><ele>519.4</ele><time>2026-04-04T08:25:41.23Z</time></trkpt><trkpt lat="44.21913" lon="11.4667317"><ele>525.0</ele><time>2026-04-04T08:25:42.23Z</time></trkpt><trkpt lat="44.21909" lon="11.4666383"><ele>525.0</ele><time>2026-04-04T08:25:43.23Z</time></trkpt><trkpt lat="44.2190417" lon="11.4665533"><ele>525.0</ele><time>2026-04-04T08:25:44.231Z</time></trkpt><trkpt lat="44.2189733" lon="11.4664733"><ele>525.0</ele><time>2026-04-04T08:25:45.231Z</time></trkpt><trkpt lat="44.2189033" lon="11.4664067"><ele>525.0</ele><time>2026-04-04T08:25:46.231Z</time></trkpt><trkpt lat="44.21885" lon="11.46633"><ele>525.0</ele><time>2026-04-04T08:25:47.231Z</time></trkpt><trkpt lat="44.2188133" lon="11.4661517"><ele>525.7142857142857</ele><time>2026-04-04T08:25:49.231Z</time></trkpt><trkpt lat="44.218795" lon="11.4660517"><ele>526.4285714285714</ele><time>2026-04-04T08:25:50.231Z</time></trkpt><trkpt lat="44.2187617" lon="11.4659567"><ele>527.1428571428571</ele><time>2026-04-04T08:25:51.231Z</time></trkpt><trkpt lat="44.2187167" lon="11.4658817"><ele>527.8571428571429</ele><time>2026-04-04T08:25:52.231Z</time></trkpt><trkpt lat="44.2186617" lon="11.4658217"><ele>528.5714285714286</ele><time>2026-04-04T08:25:53.23Z</time></trkpt><trkpt lat="44.2185933" lon="11.46578"><ele>529.2857142857142</ele><time>2026-04-04T08:25:54.23Z</time></trkpt><trkpt lat="44.21851" lon="11.4657667"><ele>530.0</ele><time>2026-04-04T08:25:55.23Z</time></trkpt><trkpt lat="44.2184117" lon="11.46577"><ele>530.0</ele><time>2026-04-04T08:25:56.23Z</time></trkpt><trkpt lat="44.2183233" lon="11.46579"><ele>530.0</ele><time>2026-04-04T08:25:57.23Z</time></trkpt><trkpt lat="44.2182483" lon="11.4657933"><ele>530.0</ele><time>2026-04-04T08:25:58.231Z</time></trkpt><trkpt lat="44.21817" lon="11.4657867"><ele>530.0</ele><time>2026-04-04T08:25:59.231Z</time></trkpt><trkpt lat="44.218075" lon="11.465805"><ele>530.0</ele><time>2026-04-04T08:26:00.231Z</time></trkpt><trkpt lat="44.21799" lon="11.4658517"><ele>530.0</ele><time>2026-04-04T08:26:01.23Z</time></trkpt><trkpt lat="44.2179233" lon="11.4659367"><ele>536.6</ele><time>2026-04-04T08:26:02.231Z</time></trkpt><trkpt lat="44.2178467" lon="11.4660083"><ele>543.2</ele><time>2026-04-04T08:26:03.231Z</time></trkpt><trkpt lat="44.21777" lon="11.4660817"><ele>549.8</ele><time>2026-04-04T08:26:04.23Z</time></trkpt><trkpt lat="44.2176867" lon="11.4661433"><ele>556.4</ele><time>2026-04-04T08:26:05.23Z</time></trkpt><trkpt lat="44.2176017" lon="11.4661883"><ele>563.0</ele><time>2026-04-04T08:26:06.23Z</time></trkpt><trkpt lat="44.2175233" lon="11.4662483"><ele>557.5</ele><time>2026-04-04T08:26:07.23Z</time></trkpt><trkpt lat="44.2174567" lon="11.4663267"><ele>552.0</ele><time>2026-04-04T08:26:08.23Z</time></trkpt><trkpt lat="44.2174067" lon="11.46641"><ele>546.5</ele><time>2026-04-04T08:26:09.231Z</time></trkpt><trkpt lat="44.2173867" lon="11.4665017"><ele>541.0</ele><time>2026-04-04T08:26:10.231Z</time></trkpt><trkpt lat="44.2173883" lon="11.4666083"><ele>535.5</ele><time>2026-04-04T08:26:11.231Z</time></trkpt><trkpt lat="44.217405" lon="11.4667233"><ele>530.0</ele><time>2026-04-04T08:26:12.23Z</time></trkpt><trkpt lat="44.2173967" lon="11.466815"><ele>530.0</ele><time>2026-04-04T08:26:13.231Z</time></trkpt><trkpt lat="44.2173242" lon="11.4669054"><ele>530.0</ele><time>2026-04-04T08:26:15.232Z</time></trkpt><trkpt lat="44.217219" lon="11.4668744"><ele>530.0</ele><time>2026-04-04T08:26:17.231Z</time></trkpt><trkpt lat="44.2171514" lon="11.4668711"><ele>530.0</ele><time>2026-04-04T08:26:18.232Z</time></trkpt><trkpt lat="44.2170913" lon="11.4669048"><ele>530.0</ele><time>2026-04-04T08:26:19.232Z</time></trkpt><trkpt lat="44.2170413" lon="11.466972"><ele>530.0</ele><time>2026-04-04T08:26:20.231Z</time></trkpt><trkpt lat="44.2170029" lon="11.4670809"><ele>532.6666666666666</ele><time>2026-04-04T08:26:21.232Z</time></trkpt><trkpt lat="44.2169764" lon="11.4672079"><ele>535.3333333333333</ele><time>2026-04-04T08:26:22.231Z</time></trkpt><trkpt lat="44.2169473" lon="11.4673202"><ele>538.0</ele><time>2026-04-04T08:26:23.231Z</time></trkpt><trkpt lat="44.2168992" lon="11.4674046"><ele>540.6666666666666</ele><time>2026-04-04T08:26:24.232Z</time></trkpt><trkpt lat="44.2168395" lon="11.4674665"><ele>543.3333333333334</ele><time>2026-04-04T08:26:25.232Z</time></trkpt><trkpt lat="44.2167592" lon="11.4675249"><ele>546.0</ele><time>2026-04-04T08:26:26.232Z</time></trkpt><trkpt lat="44.2166749" lon="11.4675859"><ele>546.0</ele><time>2026-04-04T08:26:27.231Z</time></trkpt><trkpt lat="44.2165745" lon="11.4676452"><ele>546.0</ele><time>2026-04-04T08:26:28.232Z</time></trkpt><trkpt lat="44.2164733" lon="11.4676947"><ele>546.0</ele><time>2026-04-04T08:26:29.232Z</time></trkpt><trkpt lat="44.2163935" lon="11.4677072"><ele>546.0</ele><time>2026-04-04T08:26:30.231Z</time></trkpt><trkpt lat="44.216329" lon="11.4676829"><ele>546.0</ele><time>2026-04-04T08:26:31.232Z</time></trkpt><trkpt lat="44.2162495" lon="11.4675723"><ele>547.3333333333334</ele><time>2026-04-04T08:26:33.232Z</time></trkpt><trkpt lat="44.2162391" lon="11.4674822"><ele>548.6666666666666</ele><time>2026-04-04T08:26:34.232Z</time></trkpt><trkpt lat="44.2162391" lon="11.4673707"><ele>550.0</ele><time>2026-04-04T08:26:35.231Z</time></trkpt><trkpt lat="44.2162476" lon="11.467245"><ele>551.3333333333333</ele><time>2026-04-04T08:26:36.232Z</time></trkpt><trkpt lat="44.216253" lon="11.4671151"><ele>552.6666666666666</ele><time>2026-04-04T08:26:37.232Z</time></trkpt><trkpt lat="44.216248" lon="11.4669733"><ele>554.0</ele><time>2026-04-04T08:26:38.232Z</time></trkpt><trkpt lat="44.2162303" lon="11.4668403"><ele>554.0</ele><time>2026-04-04T08:26:39.231Z</time></trkpt><trkpt lat="44.2161926" lon="11.4667323"><ele>554.0</ele><time>2026-04-04T08:26:40.232Z</time></trkpt><trkpt lat="44.2161441" lon="11.4666436"><ele>554.0</ele><time>2026-04-04T08:26:41.232Z</time></trkpt><trkpt lat="44.2160933" lon="11.4665651"><ele>554.0</ele><time>2026-04-04T08:26:42.231Z</time></trkpt><trkpt lat="44.216056" lon="11.466411"><ele>554.0</ele><time>2026-04-04T08:26:44.232Z</time></trkpt><trkpt lat="44.2160753" lon="11.4663241"><ele>554.0</ele><time>2026-04-04T08:26:45.231Z</time></trkpt><trkpt lat="44.2161156" lon="11.4662417"><ele>557.8333333333333</ele><time>2026-04-04T08:26:46.231Z</time></trkpt><trkpt lat="44.2161457" lon="11.466153"><ele>561.6666666666666</ele><time>2026-04-04T08:26:47.232Z</time></trkpt><trkpt lat="44.2161635" lon="11.4660546"><ele>565.5</ele><time>2026-04-04T08:26:48.231Z</time></trkpt><trkpt lat="44.2161618" lon="11.4659434"><ele>569.3333333333334</ele><time>2026-04-04T08:26:49.232Z</time></trkpt><trkpt lat="44.2161356" lon="11.4658236"><ele>573.1666666666667</ele><time>2026-04-04T08:26:50.231Z</time></trkpt><trkpt lat="44.2160918" lon="11.4657068"><ele>577.0</ele><time>2026-04-04T08:26:51.232Z</time></trkpt><trkpt lat="44.2160219" lon="11.4656137"><ele>577.0</ele><time>2026-04-04T08:26:52.232Z</time></trkpt><trkpt lat="44.2159299" lon="11.4655462"><ele>577.0</ele><time>2026-04-04T08:26:53.232Z</time></trkpt><trkpt lat="44.2158099" lon="11.4654885"><ele>577.0</ele><time>2026-04-04T08:26:54.232Z</time></trkpt><trkpt lat="44.2156782" lon="11.4654157"><ele>577.0</ele><time>2026-04-04T08:26:55.232Z</time></trkpt><trkpt lat="44.2155564" lon="11.4653473"><ele>574.0</ele><time>2026-04-04T08:26:56.232Z</time></trkpt><trkpt lat="44.2154551" lon="11.4652982"><ele>571.0</ele><time>2026-04-04T08:26:57.232Z</time></trkpt><trkpt lat="44.2153912" lon="11.4652457"><ele>568.0</ele><time>2026-04-04T08:26:58.232Z</time></trkpt><trkpt lat="44.2153482" lon="11.4650923"><ele>565.0</ele><time>2026-04-04T08:27:00.232Z</time></trkpt><trkpt lat="44.2153644" lon="11.4649944"><ele>562.0</ele><time>2026-04-04T08:27:01.231Z</time></trkpt><trkpt lat="44.2153958" lon="11.464906"><ele>559.0</ele><time>2026-04-04T08:27:02.232Z</time></trkpt><trkpt lat="44.2154273" lon="11.4648282"><ele>559.0</ele><time>2026-04-04T08:27:03.232Z</time></trkpt><trkpt lat="44.2154567" lon="11.4647408"><ele>559.0</ele><time>2026-04-04T08:27:04.232Z</time></trkpt><trkpt lat="44.2154741" lon="11.4646404"><ele>559.0</ele><time>2026-04-04T08:27:05.232Z</time></trkpt><trkpt lat="44.2154589" lon="11.4645316"><ele>559.0</ele><time>2026-04-04T08:27:06.231Z</time></trkpt><trkpt lat="44.2154061" lon="11.4644166"><ele>559.0</ele><time>2026-04-04T08:27:07.232Z</time></trkpt><trkpt lat="44.2153284" lon="11.464309"><ele>559.0</ele><time>2026-04-04T08:27:08.232Z</time></trkpt><trkpt lat="44.2152437" lon="11.4642189"><ele>562.0</ele><time>2026-04-04T08:27:09.232Z</time></trkpt><trkpt lat="44.2151489" lon="11.4641529"><ele>565.0</ele><time>2026-04-04T08:27:10.232Z</time></trkpt><trkpt lat="44.2150457" lon="11.4641049"><ele>568.0</ele><time>2026-04-04T08:27:11.231Z</time></trkpt><trkpt lat="44.2149433" lon="11.4640747"><ele>571.0</ele><time>2026-04-04T08:27:12.232Z</time></trkpt><trkpt lat="44.2148375" lon="11.4640423"><ele>574.0</ele><time>2026-04-04T08:27:13.232Z</time></trkpt><trkpt lat="44.2147334" lon="11.4640081"><ele>574.0</ele><time>2026-04-04T08:27:14.232Z</time></trkpt><trkpt lat="44.2146359" lon="11.4639768"><ele>574.0</ele><time>2026-04-04T08:27:15.231Z</time></trkpt><trkpt lat="44.2145516" lon="11.4639638"><ele>574.0</ele><time>2026-04-04T08:27:16.231Z</time></trkpt><trkpt lat="44.2144754" lon="11.463971"><ele>574.0</ele><time>2026-04-04T08:27:17.231Z</time></trkpt><trkpt lat="44.2144167" lon="11.4640158"><ele>574.0</ele><time>2026-04-04T08:27:18.231Z</time></trkpt><trkpt lat="44.2143267" lon="11.4641"><ele>574.0</ele><time>2026-04-04T08:27:20.232Z</time></trkpt><trkpt lat="44.2142417" lon="11.4640083"><ele>574.0</ele><time>2026-04-04T08:27:22.232Z</time></trkpt><trkpt lat="44.214195" lon="11.463905"><ele>574.0</ele><time>2026-04-04T08:27:23.232Z</time></trkpt><trkpt lat="44.2141667" lon="11.4637783"><ele>574.0</ele><time>2026-04-04T08:27:24.232Z</time></trkpt><trkpt lat="44.2141367" lon="11.4636417"><ele>574.0</ele><time>2026-04-04T08:27:25.232Z</time></trkpt><trkpt lat="44.2140833" lon="11.4635167"><ele>574.0</ele><time>2026-04-04T08:27:26.232Z</time></trkpt><trkpt lat="44.2140183" lon="11.4634217"><ele>573.8333333333334</ele><time>2026-04-04T08:27:27.232Z</time></trkpt><trkpt lat="44.2139433" lon="11.4633483"><ele>573.6666666666667</ele><time>2026-04-04T08:27:28.232Z</time></trkpt><trkpt lat="44.2138867" lon="11.46327"><ele>573.5</ele><time>2026-04-04T08:27:29.232Z</time></trkpt><trkpt lat="44.2138383" lon="11.46318"><ele>573.3333333333334</ele><time>2026-04-04T08:27:30.232Z</time></trkpt><trkpt lat="44.213795" lon="11.46307"><ele>573.1666666666666</ele><time>2026-04-04T08:27:31.231Z</time></trkpt><trkpt lat="44.2137417" lon="11.4629533"><ele>573.0</ele><time>2026-04-04T08:27:32.232Z</time></trkpt><trkpt lat="44.213675" lon="11.46285"><ele>581.0</ele><time>2026-04-04T08:27:33.231Z</time></trkpt><trkpt lat="44.213585" lon="11.4627683"><ele>589.0</ele><time>2026-04-04T08:27:34.232Z</time></trkpt><trkpt lat="44.2134867" lon="11.4626883"><ele>597.0</ele><time>2026-04-04T08:27:35.231Z</time></trkpt><trkpt lat="44.2133833" lon="11.46262"><ele>605.0</ele><time>2026-04-04T08:27:36.232Z</time></trkpt><trkpt lat="44.213285" lon="11.462555"><ele>613.0</ele><time>2026-04-04T08:27:37.231Z</time></trkpt><trkpt lat="44.2131817" lon="11.4625"><ele>609.6666666666667</ele><time>2026-04-04T08:27:38.232Z</time></trkpt><trkpt lat="44.2130933" lon="11.4624633"><ele>606.3333333333334</ele><time>2026-04-04T08:27:39.232Z</time></trkpt><trkpt lat="44.21301" lon="11.4624617"><ele>603.0</ele><time>2026-04-04T08:27:40.232Z</time></trkpt><trkpt lat="44.2129233" lon="11.462475"><ele>599.6666666666666</ele><time>2026-04-04T08:27:41.232Z</time></trkpt><trkpt lat="44.21285" lon="11.4624817"><ele>596.3333333333333</ele><time>2026-04-04T08:27:42.231Z</time></trkpt><trkpt lat="44.2127733" lon="11.46246"><ele>593.0</ele><time>2026-04-04T08:27:43.232Z</time></trkpt><trkpt lat="44.21269" lon="11.462415"><ele>593.0</ele><time>2026-04-04T08:27:44.232Z</time></trkpt><trkpt lat="44.212595" lon="11.462365"><ele>593.0</ele><time>2026-04-04T08:27:45.232Z</time></trkpt><trkpt lat="44.2124917" lon="11.462315"><ele>593.0</ele><time>2026-04-04T08:27:46.232Z</time></trkpt><trkpt lat="44.212395" lon="11.4622783"><ele>593.0</ele><time>2026-04-04T08:27:47.231Z</time></trkpt><trkpt lat="44.2123033" lon="11.4622567"><ele>593.0</ele><time>2026-04-04T08:27:48.231Z</time></trkpt><trkpt lat="44.212215" lon="11.46228"><ele>592.5</ele><time>2026-04-04T08:27:49.231Z</time></trkpt><trkpt lat="44.2121483" lon="11.4623"><ele>592.0</ele><time>2026-04-04T08:27:50.231Z</time></trkpt><trkpt lat="44.212075" lon="11.4622783"><ele>591.5</ele><time>2026-04-04T08:27:51.231Z</time></trkpt><trkpt lat="44.211995" lon="11.4622317"><ele>591.0</ele><time>2026-04-04T08:27:52.232Z</time></trkpt><trkpt lat="44.2118983" lon="11.4621633"><ele>590.5</ele><time>2026-04-04T08:27:53.232Z</time></trkpt><trkpt lat="44.2117967" lon="11.4621017"><ele>590.0</ele><time>2026-04-04T08:27:54.231Z</time></trkpt><trkpt lat="44.2117131" lon="11.4620609"><ele>596.6</ele><time>2026-04-04T08:27:55.232Z</time></trkpt><trkpt lat="44.211651" lon="11.462021"><ele>603.2</ele><time>2026-04-04T08:27:56.232Z</time></trkpt><trkpt lat="44.2115501" lon="11.4620179"><ele>609.8</ele><time>2026-04-04T08:27:58.231Z</time></trkpt><trkpt lat="44.2114618" lon="11.4621587"><ele>616.4</ele><time>2026-04-04T08:28:00.232Z</time></trkpt><trkpt lat="44.2114227" lon="11.4622644"><ele>623.0</ele><time>2026-04-04T08:28:01.231Z</time></trkpt><trkpt lat="44.2113765" lon="11.4623892"><ele>627.2</ele><time>2026-04-04T08:28:02.232Z</time></trkpt><trkpt lat="44.211327" lon="11.4625177"><ele>631.4</ele><time>2026-04-04T08:28:03.232Z</time></trkpt><trkpt lat="44.2112677" lon="11.4626223"><ele>635.6</ele><time>2026-04-04T08:28:04.231Z</time></trkpt><trkpt lat="44.2111869" lon="11.4627138"><ele>639.8000000000001</ele><time>2026-04-04T08:28:05.232Z</time></trkpt><trkpt lat="44.2111034" lon="11.4628038"><ele>644.0</ele><time>2026-04-04T08:28:06.232Z</time></trkpt><trkpt lat="44.2110209" lon="11.4628942"><ele>638.6666666666666</ele><time>2026-04-04T08:28:07.232Z</time></trkpt><trkpt lat="44.2109463" lon="11.4629877"><ele>633.3333333333333</ele><time>2026-04-04T08:28:08.232Z</time></trkpt><trkpt lat="44.2108942" lon="11.4630905"><ele>628.0</ele><time>2026-04-04T08:28:09.232Z</time></trkpt><trkpt lat="44.2108621" lon="11.4631933"><ele>622.6666666666666</ele><time>2026-04-04T08:28:10.232Z</time></trkpt><trkpt lat="44.210842" lon="11.4632941"><ele>617.3333333333334</ele><time>2026-04-04T08:28:11.231Z</time></trkpt><trkpt lat="44.2108177" lon="11.4634191"><ele>612.0</ele><time>2026-04-04T08:28:13.232Z</time></trkpt><trkpt lat="44.2107363" lon="11.4633474"><ele>612.0</ele><time>2026-04-04T08:28:15.231Z</time></trkpt><trkpt lat="44.2106778" lon="11.4632842"><ele>612.0</ele><time>2026-04-04T08:28:16.231Z</time></trkpt><trkpt lat="44.2106133" lon="11.4632294"><ele>612.0</ele><time>2026-04-04T08:28:17.232Z</time></trkpt><trkpt lat="44.2105378" lon="11.4631944"><ele>612.0</ele><time>2026-04-04T08:28:18.232Z</time></trkpt><trkpt lat="44.2104666" lon="11.4631908"><ele>612.0</ele><time>2026-04-04T08:28:19.231Z</time></trkpt><trkpt lat="44.2103936" lon="11.4632232"><ele>612.0</ele><time>2026-04-04T08:28:20.232Z</time></trkpt><trkpt lat="44.2103298" lon="11.4632736"><ele>610.6</ele><time>2026-04-04T08:28:21.231Z</time></trkpt><trkpt lat="44.2102218" lon="11.4633176"><ele>609.2</ele><time>2026-04-04T08:28:23.231Z</time></trkpt><trkpt lat="44.2101145" lon="11.463222"><ele>607.8</ele><time>2026-04-04T08:28:25.232Z</time></trkpt><trkpt lat="44.2100675" lon="11.4631207"><ele>606.4</ele><time>2026-04-04T08:28:26.231Z</time></trkpt><trkpt lat="44.2100462" lon="11.4629956"><ele>605.0</ele><time>2026-04-04T08:28:27.231Z</time></trkpt><trkpt lat="44.2100358" lon="11.4628763"><ele>612.8</ele><time>2026-04-04T08:28:28.231Z</time></trkpt><trkpt lat="44.2100201" lon="11.4627826"><ele>620.6</ele><time>2026-04-04T08:28:29.232Z</time></trkpt><trkpt lat="44.2099329" lon="11.462688"><ele>628.4000000000001</ele><time>2026-04-04T08:28:31.231Z</time></trkpt><trkpt lat="44.209845" lon="11.4626986"><ele>636.2</ele><time>2026-04-04T08:28:32.232Z</time></trkpt><trkpt lat="44.2097334" lon="11.4627274"><ele>644.0</ele><time>2026-04-04T08:28:33.232Z</time></trkpt><trkpt lat="44.2096122" lon="11.4627585"><ele>644.0</ele><time>2026-04-04T08:28:34.232Z</time></trkpt><trkpt lat="44.2094932" lon="11.4627738"><ele>644.0</ele><time>2026-04-04T08:28:35.231Z</time></trkpt><trkpt lat="44.2093889" lon="11.4627738"><ele>644.0</ele><time>2026-04-04T08:28:36.232Z</time></trkpt><trkpt lat="44.2092966" lon="11.4627591"><ele>644.0</ele><time>2026-04-04T08:28:37.232Z</time></trkpt><trkpt lat="44.2092119" lon="11.4627119"><ele>644.0</ele><time>2026-04-04T08:28:38.232Z</time></trkpt><trkpt lat="44.2091329" lon="11.4626398"><ele>644.0</ele><time>2026-04-04T08:28:39.232Z</time></trkpt><trkpt lat="44.2090648" lon="11.4625445"><ele>644.0</ele><time>2026-04-04T08:28:40.231Z</time></trkpt><trkpt lat="44.209016" lon="11.4624378"><ele>644.0</ele><time>2026-04-04T08:28:41.232Z</time></trkpt><trkpt lat="44.2089865" lon="11.4623232"><ele>644.0</ele><time>2026-04-04T08:28:42.232Z</time></trkpt><trkpt lat="44.2089839" lon="11.4622024"><ele>644.0</ele><time>2026-04-04T08:28:43.232Z</time></trkpt><trkpt lat="44.2089971" lon="11.4620636"><ele>648.8000000000001</ele><time>2026-04-04T08:28:44.231Z</time></trkpt><trkpt lat="44.2090106" lon="11.4619391"><ele>653.6</ele><time>2026-04-04T08:28:45.231Z</time></trkpt><trkpt lat="44.2090105" lon="11.4618423"><ele>658.4</ele><time>2026-04-04T08:28:46.231Z</time></trkpt><trkpt lat="44.2089767" lon="11.4617462"><ele>663.2</ele><time>2026-04-04T08:28:48.232Z</time></trkpt><trkpt lat="44.2088246" lon="11.4617299"><ele>668.0</ele><time>2026-04-04T08:28:50.232Z</time></trkpt><trkpt lat="44.2087214" lon="11.4617384"><ele>670.8</ele><time>2026-04-04T08:28:51.231Z</time></trkpt><trkpt lat="44.2086227" lon="11.4617642"><ele>673.5999999999999</ele><time>2026-04-04T08:28:52.231Z</time></trkpt><trkpt lat="44.2085227" lon="11.4618084"><ele>676.4000000000001</ele><time>2026-04-04T08:28:53.232Z</time></trkpt><trkpt lat="44.2084223" lon="11.4618548"><ele>679.2</ele><time>2026-04-04T08:28:54.232Z</time></trkpt><trkpt lat="44.2083254" lon="11.4618861"><ele>682.0</ele><time>2026-04-04T08:28:55.232Z</time></trkpt><trkpt lat="44.2082273" lon="11.4619129"><ele>682.2</ele><time>2026-04-04T08:28:56.231Z</time></trkpt><trkpt lat="44.2081429" lon="11.46195"><ele>682.4000000000001</ele><time>2026-04-04T08:28:57.232Z</time></trkpt><trkpt lat="44.2080713" lon="11.4620014"><ele>682.5999999999999</ele><time>2026-04-04T08:28:58.231Z</time></trkpt><trkpt lat="44.2080108" lon="11.4620806"><ele>682.8</ele><time>2026-04-04T08:28:59.231Z</time></trkpt><trkpt lat="44.2079628" lon="11.4622007"><ele>683.0</ele><time>2026-04-04T08:29:00.231Z</time></trkpt><trkpt lat="44.2079136" lon="11.4623464"><ele>680.25</ele><time>2026-04-04T08:29:01.231Z</time></trkpt><trkpt lat="44.2078611" lon="11.4625057"><ele>677.5</ele><time>2026-04-04T08:29:02.232Z</time></trkpt><trkpt lat="44.2078002" lon="11.4626732"><ele>674.75</ele><time>2026-04-04T08:29:03.232Z</time></trkpt><trkpt lat="44.2077419" lon="11.4628444"><ele>672.0</ele><time>2026-04-04T08:29:04.232Z</time></trkpt><trkpt lat="44.2077038" lon="11.4629937"><ele>671.4000000000001</ele><time>2026-04-04T08:29:05.232Z</time></trkpt><trkpt lat="44.2076823" lon="11.4631321"><ele>670.8000000000001</ele><time>2026-04-04T08:29:06.232Z</time></trkpt><trkpt lat="44.2076725" lon="11.4632436"><ele>670.2</ele><time>2026-04-04T08:29:07.232Z</time></trkpt><trkpt lat="44.2076207" lon="11.4633721"><ele>669.6</ele><time>2026-04-04T08:29:09.232Z</time></trkpt><trkpt lat="44.2075235" lon="11.4633341"><ele>669.0</ele><time>2026-04-04T08:29:11.232Z</time></trkpt><trkpt lat="44.2074679" lon="11.4632545"><ele>669.0</ele><time>2026-04-04T08:29:12.231Z</time></trkpt><trkpt lat="44.2074193" lon="11.463122"><ele>669.0</ele><time>2026-04-04T08:29:13.232Z</time></trkpt><trkpt lat="44.2073768" lon="11.4629485"><ele>669.0</ele><time>2026-04-04T08:29:14.232Z</time></trkpt><trkpt lat="44.2073385" lon="11.4627853"><ele>669.0</ele><time>2026-04-04T08:29:15.231Z</time></trkpt><trkpt lat="44.2073004" lon="11.4626347"><ele>664.0</ele><time>2026-04-04T08:29:16.231Z</time></trkpt><trkpt lat="44.207261" lon="11.4624987"><ele>659.0</ele><time>2026-04-04T08:29:17.231Z</time></trkpt><trkpt lat="44.2072205" lon="11.4623897"><ele>654.0</ele><time>2026-04-04T08:29:18.232Z</time></trkpt><trkpt lat="44.2071708" lon="11.4623149"><ele>649.0</ele><time>2026-04-04T08:29:19.231Z</time></trkpt><trkpt lat="44.2071216" lon="11.4622576"><ele>644.0</ele><time>2026-04-04T08:29:20.232Z</time></trkpt><trkpt lat="44.2070754" lon="11.4621954"><ele>639.0</ele><time>2026-04-04T08:29:21.231Z</time></trkpt><trkpt lat="44.2070412" lon="11.4620385"><ele>639.0</ele><time>2026-04-04T08:29:23.231Z</time></trkpt><trkpt lat="44.207046" lon="11.46193"><ele>639.0</ele><time>2026-04-04T08:29:24.232Z</time></trkpt><trkpt lat="44.2070595" lon="11.4618082"><ele>639.0</ele><time>2026-04-04T08:29:25.231Z</time></trkpt><trkpt lat="44.207061" lon="11.4616818"><ele>639.0</ele><time>2026-04-04T08:29:26.232Z</time></trkpt><trkpt lat="44.2070515" lon="11.4615621"><ele>639.0</ele><time>2026-04-04T08:29:27.232Z</time></trkpt><trkpt lat="44.2070277" lon="11.461437"><ele>639.0</ele><time>2026-04-04T08:29:28.232Z</time></trkpt><trkpt lat="44.207003" lon="11.4613219"><ele>642.5</ele><time>2026-04-04T08:29:29.231Z</time></trkpt><trkpt lat="44.2069932" lon="11.4612191"><ele>646.0</ele><time>2026-04-04T08:29:30.232Z</time></trkpt><trkpt lat="44.2069926" lon="11.4611191"><ele>649.5</ele><time>2026-04-04T08:29:31.232Z</time></trkpt><trkpt lat="44.2070097" lon="11.4610102"><ele>653.0</ele><time>2026-04-04T08:29:32.232Z</time></trkpt><trkpt lat="44.2070335" lon="11.4608981"><ele>656.5</ele><time>2026-04-04T08:29:33.232Z</time></trkpt><trkpt lat="44.2070446" lon="11.4607919"><ele>660.0</ele><time>2026-04-04T08:29:34.232Z</time></trkpt><trkpt lat="44.2070404" lon="11.4607023"><ele>660.0</ele><time>2026-04-04T08:29:35.232Z</time></trkpt><trkpt lat="44.2070055" lon="11.4605868"><ele>660.0</ele><time>2026-04-04T08:29:37.231Z</time></trkpt><trkpt lat="44.2069374" lon="11.4605048"><ele>660.0</ele><time>2026-04-04T08:29:39.232Z</time></trkpt><trkpt lat="44.2068259" lon="11.4603792"><ele>660.0</ele><time>2026-04-04T08:29:41.232Z</time></trkpt><trkpt lat="44.2067556" lon="11.4603167"><ele>660.0</ele><time>2026-04-04T08:29:42.232Z</time></trkpt><trkpt lat="44.2066792" lon="11.4602867"><ele>659.8</ele><time>2026-04-04T08:29:43.232Z</time></trkpt><trkpt lat="44.2065889" lon="11.4602916"><ele>659.6</ele><time>2026-04-04T08:29:44.232Z</time></trkpt><trkpt lat="44.2064994" lon="11.4603453"><ele>659.4000000000001</ele><time>2026-04-04T08:29:45.232Z</time></trkpt><trkpt lat="44.2064089" lon="11.4604317"><ele>659.2</ele><time>2026-04-04T08:29:46.231Z</time></trkpt><trkpt lat="44.2063271" lon="11.46053"><ele>659.0</ele><time>2026-04-04T08:29:47.232Z</time></trkpt><trkpt lat="44.206254" lon="11.4606263"><ele>659.0</ele><time>2026-04-04T08:29:48.232Z</time></trkpt><trkpt lat="44.2061866" lon="11.4607123"><ele>659.0</ele><time>2026-04-04T08:29:49.231Z</time></trkpt><trkpt lat="44.2061256" lon="11.4607775"><ele>659.0</ele><time>2026-04-04T08:29:50.231Z</time></trkpt><trkpt lat="44.2060615" lon="11.4608077"><ele>659.0</ele><time>2026-04-04T08:29:51.231Z</time></trkpt><trkpt lat="44.20599" lon="11.460812"><ele>659.0</ele><time>2026-04-04T08:29:52.232Z</time></trkpt><trkpt lat="44.2059138" lon="11.4607972"><ele>659.0</ele><time>2026-04-04T08:29:53.231Z</time></trkpt><trkpt lat="44.2058452" lon="11.4607576"><ele>659.0</ele><time>2026-04-04T08:29:54.232Z</time></trkpt><trkpt lat="44.2057834" lon="11.4607002"><ele>659.0</ele><time>2026-04-04T08:29:55.232Z</time></trkpt><trkpt lat="44.2057347" lon="11.4606149"><ele>659.0</ele><time>2026-04-04T08:29:56.231Z</time></trkpt><trkpt lat="44.2056995" lon="11.4605054"><ele>659.0</ele><time>2026-04-04T08:29:57.232Z</time></trkpt><trkpt lat="44.2056527" lon="11.460384"><ele>659.0</ele><time>2026-04-04T08:29:58.231Z</time></trkpt><trkpt lat="44.2055899" lon="11.4602668"><ele>659.0</ele><time>2026-04-04T08:29:59.231Z</time></trkpt><trkpt lat="44.2055167" lon="11.4601778"><ele>657.4000000000001</ele><time>2026-04-04T08:30:00.231Z</time></trkpt><trkpt lat="44.2054265" lon="11.4601078"><ele>655.8</ele><time>2026-04-04T08:30:01.232Z</time></trkpt><trkpt lat="44.2053214" lon="11.4600395"><ele>654.2</ele><time>2026-04-04T08:30:02.232Z</time></trkpt><trkpt lat="44.2052281" lon="11.4599877"><ele>652.5999999999999</ele><time>2026-04-04T08:30:03.231Z</time></trkpt><trkpt lat="44.2051588" lon="11.4599321"><ele>651.0</ele><time>2026-04-04T08:30:04.232Z</time></trkpt><trkpt lat="44.2051115" lon="11.4598672"><ele>651.0</ele><time>2026-04-04T08:30:05.232Z</time></trkpt><trkpt lat="44.2050878" lon="11.4597028"><ele>651.0</ele><time>2026-04-04T08:30:07.232Z</time></trkpt><trkpt lat="44.2051143" lon="11.459609"><ele>651.0</ele><time>2026-04-04T08:30:08.232Z</time></trkpt><trkpt lat="44.20518" lon="11.4595"><ele>651.0</ele><time>2026-04-04T08:30:09.231Z</time></trkpt><trkpt lat="44.2052317" lon="11.4594217"><ele>651.0</ele><time>2026-04-04T08:30:10.232Z</time></trkpt><trkpt lat="44.2052583" lon="11.4593417"><ele>651.0</ele><time>2026-04-04T08:30:11.232Z</time></trkpt><trkpt lat="44.2052467" lon="11.4591983"><ele>652.5</ele><time>2026-04-04T08:30:13.231Z</time></trkpt><trkpt lat="44.2052017" lon="11.459125"><ele>654.0</ele><time>2026-04-04T08:30:15.232Z</time></trkpt><trkpt lat="44.2051383" lon="11.4591317"><ele>655.5</ele><time>2026-04-04T08:30:16.231Z</time></trkpt><trkpt lat="44.2050717" lon="11.4591583"><ele>657.0</ele><time>2026-04-04T08:30:17.232Z</time></trkpt><trkpt lat="44.2049983" lon="11.4591967"><ele>658.5</ele><time>2026-04-04T08:30:18.232Z</time></trkpt><trkpt lat="44.2049067" lon="11.4592533"><ele>660.0</ele><time>2026-04-04T08:30:19.232Z</time></trkpt><trkpt lat="44.2048217" lon="11.4593133"><ele>660.0</ele><time>2026-04-04T08:30:20.232Z</time></trkpt><trkpt lat="44.2047383" lon="11.4593883"><ele>660.0</ele><time>2026-04-04T08:30:21.232Z</time></trkpt><trkpt lat="44.2046583" lon="11.4594667"><ele>660.0</ele><time>2026-04-04T08:30:22.231Z</time></trkpt><trkpt lat="44.2045867" lon="11.459535"><ele>660.0</ele><time>2026-04-04T08:30:23.232Z</time></trkpt><trkpt lat="44.2045267" lon="11.4596067"><ele>660.0</ele><time>2026-04-04T08:30:24.232Z</time></trkpt><trkpt lat="44.2044867" lon="11.4596883"><ele>660.0</ele><time>2026-04-04T08:30:25.232Z</time></trkpt><trkpt lat="44.2044633" lon="11.45978"><ele>657.4</ele><time>2026-04-04T08:30:26.232Z</time></trkpt><trkpt lat="44.2044583" lon="11.4598767"><ele>654.8</ele><time>2026-04-04T08:30:27.231Z</time></trkpt><trkpt lat="44.204475" lon="11.4599917"><ele>652.2</ele><time>2026-04-04T08:30:28.232Z</time></trkpt><trkpt lat="44.2045083" lon="11.4601217"><ele>649.6</ele><time>2026-04-04T08:30:29.232Z</time></trkpt><trkpt lat="44.2045417" lon="11.460255"><ele>647.0</ele><time>2026-04-04T08:30:30.231Z</time></trkpt><trkpt lat="44.20456" lon="11.460395"><ele>645.4</ele><time>2026-04-04T08:30:31.232Z</time></trkpt><trkpt lat="44.204575" lon="11.46053"><ele>643.8000000000001</ele><time>2026-04-04T08:30:32.231Z</time></trkpt><trkpt lat="44.2045733" lon="11.46067"><ele>642.2</ele><time>2026-04-04T08:30:33.231Z</time></trkpt><trkpt lat="44.204575" lon="11.460805"><ele>640.6</ele><time>2026-04-04T08:30:34.232Z</time></trkpt><trkpt lat="44.2045733" lon="11.460945"><ele>639.0</ele><time>2026-04-04T08:30:35.232Z</time></trkpt><trkpt lat="44.2045683" lon="11.4610633"><ele>639.0000000000001</ele><time>2026-04-04T08:30:36.231Z</time></trkpt><trkpt lat="44.20456" lon="11.461175"><ele>639.0</ele><time>2026-04-04T08:30:37.232Z</time></trkpt><trkpt lat="44.204525" lon="11.4612783"><ele>639.0</ele><time>2026-04-04T08:30:38.231Z</time></trkpt><trkpt lat="44.20449" lon="11.4613617"><ele>639.0</ele><time>2026-04-04T08:30:39.232Z</time></trkpt><trkpt lat="44.204475" lon="11.46145"><ele>639.0</ele><time>2026-04-04T08:30:40.231Z</time></trkpt><trkpt lat="44.2044833" lon="11.4615383"><ele>639.0000000000001</ele><time>2026-04-04T08:30:41.231Z</time></trkpt><trkpt lat="44.204515" lon="11.46162"><ele>639.0</ele><time>2026-04-04T08:30:42.232Z</time></trkpt><trkpt lat="44.2045433" lon="11.4617167"><ele>636.6</ele><time>2026-04-04T08:30:43.231Z</time></trkpt><trkpt lat="44.2045484" lon="11.4618126"><ele>634.2</ele><time>2026-04-04T08:30:44.232Z</time></trkpt><trkpt lat="44.2045245" lon="11.4619104"><ele>631.8000000000001</ele><time>2026-04-04T08:30:45.232Z</time></trkpt><trkpt lat="44.2044721" lon="11.462023"><ele>629.4</ele><time>2026-04-04T08:30:46.232Z</time></trkpt><trkpt lat="44.2044182" lon="11.4621523"><ele>627.0</ele><time>2026-04-04T08:30:47.231Z</time></trkpt><trkpt lat="44.2043753" lon="11.4622907"><ele>623.8000000000001</ele><time>2026-04-04T08:30:48.231Z</time></trkpt><trkpt lat="44.2043384" lon="11.4624346"><ele>620.6</ele><time>2026-04-04T08:30:49.231Z</time></trkpt><trkpt lat="44.2043024" lon="11.4625741"><ele>617.4000000000001</ele><time>2026-04-04T08:30:50.231Z</time></trkpt><trkpt lat="44.2042678" lon="11.4626998"><ele>614.2</ele><time>2026-04-04T08:30:51.232Z</time></trkpt><trkpt lat="44.2042436" lon="11.4628279"><ele>611.0</ele><time>2026-04-04T08:30:52.232Z</time></trkpt><trkpt lat="44.2042369" lon="11.4629563"><ele>608.3333333333333</ele><time>2026-04-04T08:30:53.231Z</time></trkpt><trkpt lat="44.2042518" lon="11.4630831"><ele>605.6666666666666</ele><time>2026-04-04T08:30:54.232Z</time></trkpt><trkpt lat="44.2042755" lon="11.4632054"><ele>603.0</ele><time>2026-04-04T08:30:55.231Z</time></trkpt><trkpt lat="44.2042974" lon="11.4633107"><ele>600.3333333333334</ele><time>2026-04-04T08:30:56.231Z</time></trkpt><trkpt lat="44.2043437" lon="11.4634413"><ele>597.6666666666667</ele><time>2026-04-04T08:30:58.232Z</time></trkpt><trkpt lat="44.2044074" lon="11.4634646"><ele>595.0</ele><time>2026-04-04T08:31:00.232Z</time></trkpt><trkpt lat="44.2044458" lon="11.4632845"><ele>595.0</ele><time>2026-04-04T08:31:02.232Z</time></trkpt><trkpt lat="44.2044623" lon="11.4631632"><ele>595.0</ele><time>2026-04-04T08:31:03.231Z</time></trkpt><trkpt lat="44.2044902" lon="11.4630593"><ele>595.0</ele><time>2026-04-04T08:31:04.232Z</time></trkpt><trkpt lat="44.2045645" lon="11.4629773"><ele>595.0</ele><time>2026-04-04T08:31:06.232Z</time></trkpt><trkpt lat="44.2046547" lon="11.4630362"><ele>595.0</ele><time>2026-04-04T08:31:08.232Z</time></trkpt><trkpt lat="44.204699" lon="11.4631007"><ele>595.0</ele><time>2026-04-04T08:31:09.231Z</time></trkpt><trkpt lat="44.2047402" lon="11.4631876"><ele>595.0</ele><time>2026-04-04T08:31:10.231Z</time></trkpt><trkpt lat="44.2047706" lon="11.4632958"><ele>595.0</ele><time>2026-04-04T08:31:11.232Z</time></trkpt><trkpt lat="44.2047903" lon="11.4634219"><ele>595.0</ele><time>2026-04-04T08:31:12.231Z</time></trkpt><trkpt lat="44.204804" lon="11.4635523"><ele>595.0</ele><time>2026-04-04T08:31:13.231Z</time></trkpt><trkpt lat="44.2048197" lon="11.463695"><ele>595.0</ele><time>2026-04-04T08:31:14.231Z</time></trkpt><trkpt lat="44.2048294" lon="11.4638398"><ele>595.2</ele><time>2026-04-04T08:31:15.232Z</time></trkpt><trkpt lat="44.2048153" lon="11.4639919"><ele>595.4</ele><time>2026-04-04T08:31:16.231Z</time></trkpt><trkpt lat="44.2047867" lon="11.4641483"><ele>595.6</ele><time>2026-04-04T08:31:17.231Z</time></trkpt><trkpt lat="44.2047733" lon="11.46429"><ele>595.8</ele><time>2026-04-04T08:31:18.232Z</time></trkpt><trkpt lat="44.2047733" lon="11.464445"><ele>596.0</ele><time>2026-04-04T08:31:19.232Z</time></trkpt><trkpt lat="44.204775" lon="11.4645933"><ele>596.0</ele><time>2026-04-04T08:31:20.232Z</time></trkpt><trkpt lat="44.2047733" lon="11.4647317"><ele>596.0</ele><time>2026-04-04T08:31:21.232Z</time></trkpt><trkpt lat="44.20477" lon="11.4648633"><ele>596.0</ele><time>2026-04-04T08:31:22.231Z</time></trkpt><trkpt lat="44.2047633" lon="11.46501"><ele>596.0</ele><time>2026-04-04T08:31:23.232Z</time></trkpt><trkpt lat="44.2047417" lon="11.4651383"><ele>596.0</ele><time>2026-04-04T08:31:24.232Z</time></trkpt><trkpt lat="44.204725" lon="11.4652717"><ele>596.0</ele><time>2026-04-04T08:31:25.231Z</time></trkpt><trkpt lat="44.204715" lon="11.4654283"><ele>596.0</ele><time>2026-04-04T08:31:26.232Z</time></trkpt><trkpt lat="44.2047133" lon="11.4655917"><ele>596.0</ele><time>2026-04-04T08:31:27.232Z</time></trkpt><trkpt lat="44.2047317" lon="11.4657667"><ele>596.0</ele><time>2026-04-04T08:31:28.232Z</time></trkpt><trkpt lat="44.20476" lon="11.4659433"><ele>594.0</ele><time>2026-04-04T08:31:29.231Z</time></trkpt><trkpt lat="44.2047917" lon="11.4661183"><ele>592.0</ele><time>2026-04-04T08:31:30.231Z</time></trkpt><trkpt lat="44.204825" lon="11.4662833"><ele>590.0</ele><time>2026-04-04T08:31:31.232Z</time></trkpt><trkpt lat="44.204865" lon="11.4664367"><ele>588.0</ele><time>2026-04-04T08:31:32.232Z</time></trkpt><trkpt lat="44.20491" lon="11.4665667"><ele>584.8333333333334</ele><time>2026-04-04T08:31:33.231Z</time></trkpt><trkpt lat="44.204935" lon="11.4666833"><ele>581.6666666666666</ele><time>2026-04-04T08:31:34.231Z</time></trkpt><trkpt lat="44.2049483" lon="11.4667817"><ele>578.5</ele><time>2026-04-04T08:31:35.232Z</time></trkpt><trkpt lat="44.2049133" lon="11.4669083"><ele>575.3333333333333</ele><time>2026-04-04T08:31:37.231Z</time></trkpt><trkpt lat="44.2048483" lon="11.466935"><ele>572.1666666666666</ele><time>2026-04-04T08:31:38.231Z</time></trkpt><trkpt lat="44.2047717" lon="11.4669617"><ele>569.0</ele><time>2026-04-04T08:31:39.232Z</time></trkpt><trkpt lat="44.204675" lon="11.4669883"><ele>569.0</ele><time>2026-04-04T08:31:40.231Z</time></trkpt><trkpt lat="44.2045733" lon="11.4670183"><ele>569.0</ele><time>2026-04-04T08:31:41.232Z</time></trkpt><trkpt lat="44.204475" lon="11.4670517"><ele>569.0</ele><time>2026-04-04T08:31:42.232Z</time></trkpt><trkpt lat="44.2043867" lon="11.4670967"><ele>569.0</ele><time>2026-04-04T08:31:43.231Z</time></trkpt><trkpt lat="44.2043117" lon="11.467155"><ele>569.0</ele><time>2026-04-04T08:31:44.231Z</time></trkpt><trkpt lat="44.2042667" lon="11.4672183"><ele>569.0</ele><time>2026-04-04T08:31:45.231Z</time></trkpt><trkpt lat="44.2043" lon="11.46735"><ele>563.0</ele><time>2026-04-04T08:31:47.231Z</time></trkpt><trkpt lat="44.2044067" lon="11.4674533"><ele>557.0</ele><time>2026-04-04T08:31:49.232Z</time></trkpt><trkpt lat="44.2044883" lon="11.4675"><ele>551.0</ele><time>2026-04-04T08:31:50.231Z</time></trkpt><trkpt lat="44.2045767" lon="11.4675567"><ele>545.0</ele><time>2026-04-04T08:31:51.231Z</time></trkpt><trkpt lat="44.2046767" lon="11.46761"><ele>539.0</ele><time>2026-04-04T08:31:52.231Z</time></trkpt><trkpt lat="44.2047883" lon="11.46766"><ele>538.25</ele><time>2026-04-04T08:31:53.232Z</time></trkpt><trkpt lat="44.20489" lon="11.4677417"><ele>537.5</ele><time>2026-04-04T08:31:54.231Z</time></trkpt><trkpt lat="44.2049917" lon="11.467835"><ele>536.75</ele><time>2026-04-04T08:31:55.232Z</time></trkpt><trkpt lat="44.2050883" lon="11.467945"><ele>536.0</ele><time>2026-04-04T08:31:56.231Z</time></trkpt><trkpt lat="44.2052033" lon="11.4680383"><ele>536.0</ele><time>2026-04-04T08:31:57.232Z</time></trkpt><trkpt lat="44.2053283" lon="11.46812"><ele>536.0</ele><time>2026-04-04T08:31:58.232Z</time></trkpt><trkpt lat="44.2054583" lon="11.4682"><ele>536.0</ele><time>2026-04-04T08:31:59.232Z</time></trkpt><trkpt lat="44.20559" lon="11.4682733"><ele>536.0</ele><time>2026-04-04T08:32:00.232Z</time></trkpt><trkpt lat="44.2056917" lon="11.4683667"><ele>535.4</ele><time>2026-04-04T08:32:01.231Z</time></trkpt><trkpt lat="44.20577" lon="11.4684833"><ele>534.8</ele><time>2026-04-04T08:32:02.232Z</time></trkpt><trkpt lat="44.2058183" lon="11.468605"><ele>534.1999999999999</ele><time>2026-04-04T08:32:03.231Z</time></trkpt><trkpt lat="44.2058667" lon="11.46872"><ele>533.6</ele><time>2026-04-04T08:32:04.232Z</time></trkpt><trkpt lat="44.2059217" lon="11.468805"><ele>533.0</ele><time>2026-04-04T08:32:05.232Z</time></trkpt><trkpt lat="44.2059867" lon="11.4688567"><ele>533.0</ele><time>2026-04-04T08:32:06.232Z</time></trkpt><trkpt lat="44.2060533" lon="11.4688983"><ele>533.0</ele><time>2026-04-04T08:32:07.231Z</time></trkpt><trkpt lat="44.2061267" lon="11.4689383"><ele>533.0</ele><time>2026-04-04T08:32:08.232Z</time></trkpt><trkpt lat="44.2061967" lon="11.4689683"><ele>533.0</ele><time>2026-04-04T08:32:09.232Z</time></trkpt><trkpt lat="44.2062617" lon="11.4689983"><ele>533.0</ele><time>2026-04-04T08:32:10.232Z</time></trkpt><trkpt lat="44.206375" lon="11.4690417"><ele>533.0</ele><time>2026-04-04T08:32:12.232Z</time></trkpt><trkpt lat="44.2064667" lon="11.4690717"><ele>532.8333333333333</ele><time>2026-04-04T08:32:14.232Z</time></trkpt><trkpt lat="44.2065417" lon="11.4691267"><ele>532.6666666666666</ele><time>2026-04-04T08:32:16.231Z</time></trkpt><trkpt lat="44.2065933" lon="11.4692283"><ele>532.5</ele><time>2026-04-04T08:32:18.232Z</time></trkpt><trkpt lat="44.2066233" lon="11.46935"><ele>532.3333333333334</ele><time>2026-04-04T08:32:20.232Z</time></trkpt><trkpt lat="44.2066467" lon="11.4694683"><ele>532.1666666666667</ele><time>2026-04-04T08:32:22.231Z</time></trkpt><trkpt lat="44.2066817" lon="11.46959"><ele>532.0</ele><time>2026-04-04T08:32:24.232Z</time></trkpt><trkpt lat="44.2067717" lon="11.4696717"><ele>532.0</ele><time>2026-04-04T08:32:26.231Z</time></trkpt><trkpt lat="44.20685" lon="11.469685"><ele>532.0</ele><time>2026-04-04T08:32:27.231Z</time></trkpt><trkpt lat="44.2069183" lon="11.46966"><ele>532.0</ele><time>2026-04-04T08:32:28.232Z</time></trkpt><trkpt lat="44.206995" lon="11.4696117"><ele>532.0</ele><time>2026-04-04T08:32:29.232Z</time></trkpt><trkpt lat="44.2070617" lon="11.4695567"><ele>532.0</ele><time>2026-04-04T08:32:30.231Z</time></trkpt><trkpt lat="44.20714" lon="11.4695333"><ele>532.0</ele><time>2026-04-04T08:32:31.232Z</time></trkpt><trkpt lat="44.20721" lon="11.4695783"><ele>532.0</ele><time>2026-04-04T08:32:32.232Z</time></trkpt><trkpt lat="44.2072783" lon="11.4696667"><ele>532.0</ele><time>2026-04-04T08:32:33.232Z</time></trkpt><trkpt lat="44.2073517" lon="11.46977"><ele>532.0</ele><time>2026-04-04T08:32:34.232Z</time></trkpt><trkpt lat="44.207435" lon="11.4698833"><ele>532.0</ele><time>2026-04-04T08:32:35.232Z</time></trkpt><trkpt lat="44.2075167" lon="11.4699883"><ele>532.0</ele><time>2026-04-04T08:32:36.232Z</time></trkpt><trkpt lat="44.2076083" lon="11.470065"><ele>530.2</ele><time>2026-04-04T08:32:37.232Z</time></trkpt><trkpt lat="44.207705" lon="11.47011"><ele>528.4000000000001</ele><time>2026-04-04T08:32:38.232Z</time></trkpt><trkpt lat="44.2078067" lon="11.4701217"><ele>526.5999999999999</ele><time>2026-04-04T08:32:39.231Z</time></trkpt><trkpt lat="44.207895" lon="11.4700867"><ele>524.8</ele><time>2026-04-04T08:32:40.232Z</time></trkpt><trkpt lat="44.20798" lon="11.47001"><ele>523.0</ele><time>2026-04-04T08:32:41.231Z</time></trkpt><trkpt lat="44.20806" lon="11.4699167"><ele>523.0</ele><time>2026-04-04T08:32:42.231Z</time></trkpt><trkpt lat="44.2081367" lon="11.4698567"><ele>523.0</ele><time>2026-04-04T08:32:43.231Z</time></trkpt><trkpt lat="44.208205" lon="11.4698183"><ele>523.0</ele><time>2026-04-04T08:32:44.232Z</time></trkpt><trkpt lat="44.2082783" lon="11.4698067"><ele>523.0</ele><time>2026-04-04T08:32:45.232Z</time></trkpt><trkpt lat="44.2083533" lon="11.4698517"><ele>523.0</ele><time>2026-04-04T08:32:46.231Z</time></trkpt><trkpt lat="44.20842" lon="11.4699317"><ele>523.0</ele><time>2026-04-04T08:32:47.231Z</time></trkpt><trkpt lat="44.208495" lon="11.47"><ele>521.8</ele><time>2026-04-04T08:32:48.232Z</time></trkpt><trkpt lat="44.2085717" lon="11.4700383"><ele>520.5999999999999</ele><time>2026-04-04T08:32:49.232Z</time></trkpt><trkpt lat="44.2086583" lon="11.4700317"><ele>519.4000000000001</ele><time>2026-04-04T08:32:50.232Z</time></trkpt><trkpt lat="44.2087567" lon="11.4700167"><ele>518.2</ele><time>2026-04-04T08:32:51.231Z</time></trkpt><trkpt lat="44.208865" lon="11.4700033"><ele>517.0</ele><time>2026-04-04T08:32:52.232Z</time></trkpt><trkpt lat="44.2089833" lon="11.470025"><ele>514.5</ele><time>2026-04-04T08:32:53.232Z</time></trkpt><trkpt lat="44.2090933" lon="11.47007"><ele>512.0</ele><time>2026-04-04T08:32:54.232Z</time></trkpt><trkpt lat="44.209195" lon="11.4701433"><ele>509.5</ele><time>2026-04-04T08:32:55.232Z</time></trkpt><trkpt lat="44.2092883" lon="11.470235"><ele>507.0</ele><time>2026-04-04T08:32:56.232Z</time></trkpt><trkpt lat="44.2093633" lon="11.470345"><ele>509.6666666666667</ele><time>2026-04-04T08:32:57.231Z</time></trkpt><trkpt lat="44.2094117" lon="11.4704667"><ele>512.3333333333334</ele><time>2026-04-04T08:32:58.231Z</time></trkpt><trkpt lat="44.209445" lon="11.4705883"><ele>515.0</ele><time>2026-04-04T08:32:59.232Z</time></trkpt><trkpt lat="44.20949" lon="11.4706817"><ele>517.6666666666667</ele><time>2026-04-04T08:33:00.231Z</time></trkpt><trkpt lat="44.20954" lon="11.4707367"><ele>520.3333333333334</ele><time>2026-04-04T08:33:01.231Z</time></trkpt><trkpt lat="44.2096167" lon="11.4707767"><ele>523.0</ele><time>2026-04-04T08:33:02.232Z</time></trkpt><trkpt lat="44.2097" lon="11.470785"><ele>523.0</ele><time>2026-04-04T08:33:03.232Z</time></trkpt><trkpt lat="44.2098" lon="11.4707667"><ele>523.0</ele><time>2026-04-04T08:33:04.232Z</time></trkpt><trkpt lat="44.2099117" lon="11.4707783"><ele>523.0</ele><time>2026-04-04T08:33:05.232Z</time></trkpt><trkpt lat="44.2100267" lon="11.47082"><ele>523.0</ele><time>2026-04-04T08:33:06.232Z</time></trkpt><trkpt lat="44.2101467" lon="11.4708767"><ele>518.4</ele><time>2026-04-04T08:33:07.232Z</time></trkpt><trkpt lat="44.21026" lon="11.4709267"><ele>513.8</ele><time>2026-04-04T08:33:08.231Z</time></trkpt><trkpt lat="44.2103583" lon="11.4709767"><ele>509.2</ele><time>2026-04-04T08:33:09.231Z</time></trkpt><trkpt lat="44.2104583" lon="11.4710483"><ele>504.6</ele><time>2026-04-04T08:33:10.232Z</time></trkpt><trkpt lat="44.2105517" lon="11.4711383"><ele>500.0</ele><time>2026-04-04T08:33:11.232Z</time></trkpt><trkpt lat="44.21064" lon="11.4712533"><ele>499.5</ele><time>2026-04-04T08:33:12.232Z</time></trkpt><trkpt lat="44.210725" lon="11.47138"><ele>499.0</ele><time>2026-04-04T08:33:13.232Z</time></trkpt><trkpt lat="44.2108117" lon="11.4715083"><ele>498.5</ele><time>2026-04-04T08:33:14.232Z</time></trkpt><trkpt lat="44.2109017" lon="11.47164"><ele>498.0</ele><time>2026-04-04T08:33:15.231Z</time></trkpt><trkpt lat="44.210995" lon="11.47178"><ele>498.0</ele><time>2026-04-04T08:33:16.232Z</time></trkpt><trkpt lat="44.2110833" lon="11.4719183"><ele>498.0</ele><time>2026-04-04T08:33:17.231Z</time></trkpt><trkpt lat="44.211175" lon="11.472055"><ele>498.0</ele><time>2026-04-04T08:33:18.231Z</time></trkpt><trkpt lat="44.2112683" lon="11.4721617"><ele>498.0</ele><time>2026-04-04T08:33:19.231Z</time></trkpt><trkpt lat="44.21137" lon="11.4722467"><ele>497.4</ele><time>2026-04-04T08:33:20.231Z</time></trkpt><trkpt lat="44.2114683" lon="11.4723017"><ele>496.79999999999995</ele><time>2026-04-04T08:33:21.232Z</time></trkpt><trkpt lat="44.2115667" lon="11.4723467"><ele>496.2</ele><time>2026-04-04T08:33:22.232Z</time></trkpt><trkpt lat="44.21166" lon="11.4723983"><ele>495.6</ele><time>2026-04-04T08:33:23.231Z</time></trkpt><trkpt lat="44.211735" lon="11.4724867"><ele>495.0</ele><time>2026-04-04T08:33:24.231Z</time></trkpt><trkpt lat="44.2118017" lon="11.4726"><ele>495.0</ele><time>2026-04-04T08:33:25.232Z</time></trkpt><trkpt lat="44.2118733" lon="11.4727333"><ele>495.0</ele><time>2026-04-04T08:33:26.231Z</time></trkpt><trkpt lat="44.21195" lon="11.4728717"><ele>495.0</ele><time>2026-04-04T08:33:27.232Z</time></trkpt><trkpt lat="44.2120233" lon="11.473025"><ele>495.0</ele><time>2026-04-04T08:33:28.232Z</time></trkpt><trkpt lat="44.2120833" lon="11.4731767"><ele>498.25</ele><time>2026-04-04T08:33:29.231Z</time></trkpt><trkpt lat="44.2121267" lon="11.4733317"><ele>501.5</ele><time>2026-04-04T08:33:30.231Z</time></trkpt><trkpt lat="44.2121733" lon="11.4734867"><ele>504.75</ele><time>2026-04-04T08:33:31.231Z</time></trkpt><trkpt lat="44.212225" lon="11.4736167"><ele>508.0</ele><time>2026-04-04T08:33:32.232Z</time></trkpt><trkpt lat="44.2122893" lon="11.4737345"><ele>505.25</ele><time>2026-04-04T08:33:33.232Z</time></trkpt><trkpt lat="44.2123606" lon="11.4738502"><ele>502.5</ele><time>2026-04-04T08:33:34.232Z</time></trkpt><trkpt lat="44.212424" lon="11.4739778"><ele>499.75</ele><time>2026-04-04T08:33:35.231Z</time></trkpt><trkpt lat="44.2124802" lon="11.4741256"><ele>497.0</ele><time>2026-04-04T08:33:36.231Z</time></trkpt><trkpt lat="44.2125326" lon="11.474276"><ele>497.0</ele><time>2026-04-04T08:33:37.232Z</time></trkpt><trkpt lat="44.2125912" lon="11.4744265"><ele>497.00000000000006</ele><time>2026-04-04T08:33:38.231Z</time></trkpt><trkpt lat="44.212651" lon="11.4745642"><ele>497.00000000000006</ele><time>2026-04-04T08:33:39.231Z</time></trkpt><trkpt lat="44.2127049" lon="11.4746943"><ele>497.0</ele><time>2026-04-04T08:33:40.232Z</time></trkpt><trkpt lat="44.2127363" lon="11.474824"><ele>497.0</ele><time>2026-04-04T08:33:41.231Z</time></trkpt><trkpt lat="44.212744" lon="11.4749617"><ele>499.0</ele><time>2026-04-04T08:33:42.232Z</time></trkpt><trkpt lat="44.212739" lon="11.4751205"><ele>501.0</ele><time>2026-04-04T08:33:43.232Z</time></trkpt><trkpt lat="44.2127333" lon="11.4752882"><ele>503.0</ele><time>2026-04-04T08:33:44.232Z</time></trkpt><trkpt lat="44.2127402" lon="11.4754587"><ele>505.0</ele><time>2026-04-04T08:33:45.231Z</time></trkpt><trkpt lat="44.212768" lon="11.4756281"><ele>506.25</ele><time>2026-04-04T08:33:46.232Z</time></trkpt><trkpt lat="44.2128138" lon="11.4758019"><ele>507.5</ele><time>2026-04-04T08:33:47.232Z</time></trkpt><trkpt lat="44.212868" lon="11.4759779"><ele>508.75</ele><time>2026-04-04T08:33:48.232Z</time></trkpt><trkpt lat="44.2129219" lon="11.4761533"><ele>510.0</ele><time>2026-04-04T08:33:49.231Z</time></trkpt><trkpt lat="44.212972" lon="11.476332"><ele>511.75</ele><time>2026-04-04T08:33:50.231Z</time></trkpt><trkpt lat="44.2130233" lon="11.47651"><ele>513.5</ele><time>2026-04-04T08:33:51.231Z</time></trkpt><trkpt lat="44.2130667" lon="11.47669"><ele>515.25</ele><time>2026-04-04T08:33:52.232Z</time></trkpt><trkpt lat="44.213104" lon="11.4768752"><ele>517.0</ele><time>2026-04-04T08:33:53.231Z</time></trkpt><trkpt lat="44.2131329" lon="11.477062"><ele>519.25</ele><time>2026-04-04T08:33:54.232Z</time></trkpt><trkpt lat="44.2131512" lon="11.4772517"><ele>521.5</ele><time>2026-04-04T08:33:55.231Z</time></trkpt><trkpt lat="44.2131597" lon="11.4774402"><ele>523.75</ele><time>2026-04-04T08:33:56.232Z</time></trkpt><trkpt lat="44.2131695" lon="11.4776347"><ele>526.0</ele><time>2026-04-04T08:33:57.232Z</time></trkpt><trkpt lat="44.2131856" lon="11.47783"><ele>521.5</ele><time>2026-04-04T08:33:58.232Z</time></trkpt><trkpt lat="44.2132174" lon="11.478022"><ele>517.0</ele><time>2026-04-04T08:33:59.232Z</time></trkpt><trkpt lat="44.2132597" lon="11.4782078"><ele>512.5</ele><time>2026-04-04T08:34:00.231Z</time></trkpt><trkpt lat="44.2133031" lon="11.4783969"><ele>508.0</ele><time>2026-04-04T08:34:01.232Z</time></trkpt><trkpt lat="44.213342" lon="11.478593"><ele>511.25</ele><time>2026-04-04T08:34:02.231Z</time></trkpt><trkpt lat="44.2133766" lon="11.4787882"><ele>514.5</ele><time>2026-04-04T08:34:03.231Z</time></trkpt><trkpt lat="44.2134207" lon="11.4789802"><ele>517.75</ele><time>2026-04-04T08:34:04.232Z</time></trkpt><trkpt lat="44.213465" lon="11.4791702"><ele>521.0</ele><time>2026-04-04T08:34:05.231Z</time></trkpt><trkpt lat="44.2135145" lon="11.4793547"><ele>521.0</ele><time>2026-04-04T08:34:06.232Z</time></trkpt><trkpt lat="44.2135637" lon="11.4795376"><ele>521.0</ele><time>2026-04-04T08:34:07.232Z</time></trkpt><trkpt lat="44.2136096" lon="11.4797177"><ele>521.0</ele><time>2026-04-04T08:34:08.232Z</time></trkpt><trkpt lat="44.2136577" lon="11.479894"><ele>521.0</ele><time>2026-04-04T08:34:09.231Z</time></trkpt><trkpt lat="44.2137151" lon="11.4800522"><ele>521.5</ele><time>2026-04-04T08:34:10.232Z</time></trkpt><trkpt lat="44.2137792" lon="11.4801871"><ele>522.0</ele><time>2026-04-04T08:34:11.232Z</time></trkpt><trkpt lat="44.2138613" lon="11.4803053"><ele>522.5</ele><time>2026-04-04T08:34:12.231Z</time></trkpt><trkpt lat="44.2139482" lon="11.4804192"><ele>523.0</ele><time>2026-04-04T08:34:13.231Z</time></trkpt><trkpt lat="44.2140267" lon="11.4805324"><ele>523.0</ele><time>2026-04-04T08:34:14.232Z</time></trkpt><trkpt lat="44.2140854" lon="11.4806443"><ele>523.0</ele><time>2026-04-04T08:34:15.231Z</time></trkpt><trkpt lat="44.2141194" lon="11.4807628"><ele>523.0</ele><time>2026-04-04T08:34:16.232Z</time></trkpt><trkpt lat="44.214127" lon="11.4808868"><ele>523.0</ele><time>2026-04-04T08:34:17.232Z</time></trkpt><trkpt lat="44.2141287" lon="11.4810158"><ele>523.0</ele><time>2026-04-04T08:34:18.232Z</time></trkpt><trkpt lat="44.2141496" lon="11.4811367"><ele>523.0</ele><time>2026-04-04T08:34:19.231Z</time></trkpt><trkpt lat="44.2141926" lon="11.481243"><ele>523.0</ele><time>2026-04-04T08:34:20.232Z</time></trkpt><trkpt lat="44.2142539" lon="11.4813256"><ele>523.0</ele><time>2026-04-04T08:34:21.231Z</time></trkpt><trkpt lat="44.2143325" lon="11.48139"><ele>523.0</ele><time>2026-04-04T08:34:22.231Z</time></trkpt><trkpt lat="44.2144246" lon="11.4814414"><ele>523.0</ele><time>2026-04-04T08:34:23.232Z</time></trkpt><trkpt lat="44.2145156" lon="11.481506"><ele>523.75</ele><time>2026-04-04T08:34:24.232Z</time></trkpt><trkpt lat="44.2145957" lon="11.4816052"><ele>524.5</ele><time>2026-04-04T08:34:25.232Z</time></trkpt><trkpt lat="44.2146567" lon="11.4817326"><ele>525.25</ele><time>2026-04-04T08:34:26.231Z</time></trkpt><trkpt lat="44.2147003" lon="11.4818861"><ele>526.0</ele><time>2026-04-04T08:34:27.232Z</time></trkpt><trkpt lat="44.2147414" lon="11.482061"><ele>520.75</ele><time>2026-04-04T08:34:28.232Z</time></trkpt><trkpt lat="44.2147862" lon="11.4822473"><ele>515.5</ele><time>2026-04-04T08:34:29.232Z</time></trkpt><trkpt lat="44.2148445" lon="11.4824345"><ele>510.25</ele><time>2026-04-04T08:34:30.232Z</time></trkpt><trkpt lat="44.2149129" lon="11.4826131"><ele>505.0</ele><time>2026-04-04T08:34:31.232Z</time></trkpt><trkpt lat="44.2149853" lon="11.4827715"><ele>503.0</ele><time>2026-04-04T08:34:32.231Z</time></trkpt><trkpt lat="44.2150564" lon="11.4829215"><ele>501.0</ele><time>2026-04-04T08:34:33.232Z</time></trkpt><trkpt lat="44.2151194" lon="11.4830582"><ele>499.0</ele><time>2026-04-04T08:34:34.231Z</time></trkpt><trkpt lat="44.2151624" lon="11.4832025"><ele>497.0</ele><time>2026-04-04T08:34:35.232Z</time></trkpt><trkpt lat="44.215195" lon="11.4833506"><ele>497.0</ele><time>2026-04-04T08:34:36.231Z</time></trkpt><trkpt lat="44.2152166" lon="11.4835114"><ele>497.0</ele><time>2026-04-04T08:34:37.232Z</time></trkpt><trkpt lat="44.215239" lon="11.4836752"><ele>497.0</ele><time>2026-04-04T08:34:38.231Z</time></trkpt><trkpt lat="44.2152649" lon="11.4838356"><ele>497.0</ele><time>2026-04-04T08:34:39.231Z</time></trkpt><trkpt lat="44.2153055" lon="11.4839931"><ele>497.0</ele><time>2026-04-04T08:34:40.231Z</time></trkpt><trkpt lat="44.2153634" lon="11.484151"><ele>497.0</ele><time>2026-04-04T08:34:41.232Z</time></trkpt><trkpt lat="44.2154329" lon="11.4843034"><ele>497.0</ele><time>2026-04-04T08:34:42.232Z</time></trkpt><trkpt lat="44.215523" lon="11.4844468"><ele>497.0</ele><time>2026-04-04T08:34:43.231Z</time></trkpt><trkpt lat="44.2156283" lon="11.4845749"><ele>499.3333333333333</ele><time>2026-04-04T08:34:44.232Z</time></trkpt><trkpt lat="44.2157586" lon="11.4846761"><ele>501.66666666666663</ele><time>2026-04-04T08:34:45.232Z</time></trkpt><trkpt lat="44.2159023" lon="11.4847476"><ele>504.0</ele><time>2026-04-04T08:34:46.232Z</time></trkpt><trkpt lat="44.21605" lon="11.4847867"><ele>504.0</ele><time>2026-04-04T08:34:47.232Z</time></trkpt><trkpt lat="44.2161847" lon="11.4848314"><ele>504.0</ele><time>2026-04-04T08:34:48.231Z</time></trkpt><trkpt lat="44.2163025" lon="11.4848828"><ele>504.0</ele><time>2026-04-04T08:34:49.232Z</time></trkpt><trkpt lat="44.2164044" lon="11.4849345"><ele>504.0</ele><time>2026-04-04T08:34:50.232Z</time></trkpt><trkpt lat="44.2164982" lon="11.4849947"><ele>501.5</ele><time>2026-04-04T08:34:51.232Z</time></trkpt><trkpt lat="44.2165999" lon="11.4850608"><ele>499.0</ele><time>2026-04-04T08:34:52.232Z</time></trkpt><trkpt lat="44.2166989" lon="11.4851278"><ele>496.5</ele><time>2026-04-04T08:34:53.231Z</time></trkpt><trkpt lat="44.2168027" lon="11.4851884"><ele>494.0</ele><time>2026-04-04T08:34:54.232Z</time></trkpt><trkpt lat="44.2169151" lon="11.4852551"><ele>494.0</ele><time>2026-04-04T08:34:55.232Z</time></trkpt><trkpt lat="44.2170346" lon="11.485318"><ele>494.0</ele><time>2026-04-04T08:34:56.232Z</time></trkpt><trkpt lat="44.2171592" lon="11.4853782"><ele>494.0</ele><time>2026-04-04T08:34:57.232Z</time></trkpt><trkpt lat="44.2172815" lon="11.4854406"><ele>494.0</ele><time>2026-04-04T08:34:58.232Z</time></trkpt><trkpt lat="44.2173925" lon="11.4855137"><ele>492.75</ele><time>2026-04-04T08:34:59.232Z</time></trkpt><trkpt lat="44.2174969" lon="11.4856011"><ele>491.5</ele><time>2026-04-04T08:35:00.231Z</time></trkpt><trkpt lat="44.2175871" lon="11.4857012"><ele>490.25</ele><time>2026-04-04T08:35:01.231Z</time></trkpt><trkpt lat="44.217657" lon="11.485813"><ele>489.0</ele><time>2026-04-04T08:35:02.232Z</time></trkpt><trkpt lat="44.2177138" lon="11.4859394"><ele>489.0</ele><time>2026-04-04T08:35:03.232Z</time></trkpt><trkpt lat="44.2177606" lon="11.4860707"><ele>489.0</ele><time>2026-04-04T08:35:04.232Z</time></trkpt><trkpt lat="44.2177927" lon="11.4861875"><ele>489.0</ele><time>2026-04-04T08:35:05.231Z</time></trkpt><trkpt lat="44.2178235" lon="11.4862877"><ele>489.0</ele><time>2026-04-04T08:35:06.232Z</time></trkpt><trkpt lat="44.2178542" lon="11.4863753"><ele>489.0</ele><time>2026-04-04T08:35:07.231Z</time></trkpt><trkpt lat="44.217884" lon="11.4864581"><ele>489.0</ele><time>2026-04-04T08:35:08.232Z</time></trkpt><trkpt lat="44.2179053" lon="11.4866339"><ele>490.79999999999995</ele><time>2026-04-04T08:35:10.231Z</time></trkpt><trkpt lat="44.2178801" lon="11.4868076"><ele>492.59999999999997</ele><time>2026-04-04T08:35:12.231Z</time></trkpt><trkpt lat="44.2178846" lon="11.4869816"><ele>494.4</ele><time>2026-04-04T08:35:14.231Z</time></trkpt><trkpt lat="44.2179138" lon="11.4870734"><ele>496.2</ele><time>2026-04-04T08:35:15.231Z</time></trkpt><trkpt lat="44.2179533" lon="11.4871688"><ele>498.0</ele><time>2026-04-04T08:35:16.232Z</time></trkpt><trkpt lat="44.217987" lon="11.4872726"><ele>498.0</ele><time>2026-04-04T08:35:17.232Z</time></trkpt><trkpt lat="44.218009" lon="11.487386"><ele>497.99999999999994</ele><time>2026-04-04T08:35:18.231Z</time></trkpt><trkpt lat="44.2180224" lon="11.4874891"><ele>497.99999999999994</ele><time>2026-04-04T08:35:19.233Z</time></trkpt><trkpt lat="44.2180459" lon="11.4875742"><ele>498.0</ele><time>2026-04-04T08:35:20.233Z</time></trkpt><trkpt lat="44.2181298" lon="11.4876888"><ele>498.0</ele><time>2026-04-04T08:35:22.233Z</time></trkpt><trkpt lat="44.2181748" lon="11.4878338"><ele>495.75</ele><time>2026-04-04T08:35:24.232Z</time></trkpt><trkpt lat="44.2181705" lon="11.4879979"><ele>493.5</ele><time>2026-04-04T08:35:26.232Z</time></trkpt><trkpt lat="44.2181355" lon="11.4881517"><ele>491.25</ele><time>2026-04-04T08:35:28.233Z</time></trkpt><trkpt lat="44.2180599" lon="11.4882584"><ele>489.0</ele><time>2026-04-04T08:35:30.233Z</time></trkpt><trkpt lat="44.2179417" lon="11.4883115"><ele>489.0</ele><time>2026-04-04T08:35:32.232Z</time></trkpt><trkpt lat="44.2178688" lon="11.4883221"><ele>489.0</ele><time>2026-04-04T08:35:33.232Z</time></trkpt><trkpt lat="44.2177968" lon="11.4883186"><ele>489.0</ele><time>2026-04-04T08:35:34.233Z</time></trkpt><trkpt lat="44.2177259" lon="11.4883154"><ele>489.0</ele><time>2026-04-04T08:35:35.232Z</time></trkpt><trkpt lat="44.2176578" lon="11.4883179"><ele>489.0</ele><time>2026-04-04T08:35:36.233Z</time></trkpt><trkpt lat="44.2175397" lon="11.4883571"><ele>489.0</ele><time>2026-04-04T08:35:38.232Z</time></trkpt><trkpt lat="44.2174864" lon="11.4884061"><ele>489.0</ele><time>2026-04-04T08:35:39.232Z</time></trkpt><trkpt lat="44.2174288" lon="11.4884783"><ele>489.0</ele><time>2026-04-04T08:35:40.233Z</time></trkpt><trkpt lat="44.2173767" lon="11.4885767"><ele>489.0</ele><time>2026-04-04T08:35:41.233Z</time></trkpt><trkpt lat="44.2173348" lon="11.4886883"><ele>489.0</ele><time>2026-04-04T08:35:42.233Z</time></trkpt><trkpt lat="44.2172972" lon="11.488794"><ele>489.0</ele><time>2026-04-04T08:35:43.232Z</time></trkpt><trkpt lat="44.2172537" lon="11.4889049"><ele>489.0</ele><time>2026-04-04T08:35:44.232Z</time></trkpt><trkpt lat="44.2172011" lon="11.489012"><ele>485.1666666666667</ele><time>2026-04-04T08:35:45.232Z</time></trkpt><trkpt lat="44.2171374" lon="11.4891093"><ele>481.33333333333337</ele><time>2026-04-04T08:35:46.233Z</time></trkpt><trkpt lat="44.2170712" lon="11.489195"><ele>477.5</ele><time>2026-04-04T08:35:47.232Z</time></trkpt><trkpt lat="44.2170133" lon="11.4892817"><ele>473.6666666666667</ele><time>2026-04-04T08:35:48.233Z</time></trkpt><trkpt lat="44.2169733" lon="11.489375"><ele>469.83333333333337</ele><time>2026-04-04T08:35:49.232Z</time></trkpt><trkpt lat="44.216945" lon="11.4894817"><ele>466.0</ele><time>2026-04-04T08:35:50.233Z</time></trkpt><trkpt lat="44.216915" lon="11.4895917"><ele>464.00000000000006</ele><time>2026-04-04T08:35:51.233Z</time></trkpt><trkpt lat="44.2168867" lon="11.4896867"><ele>462.0</ele><time>2026-04-04T08:35:52.232Z</time></trkpt><trkpt lat="44.216845" lon="11.489785"><ele>460.0</ele><time>2026-04-04T08:35:54.233Z</time></trkpt><trkpt lat="44.2169283" lon="11.4898583"><ele>458.0</ele><time>2026-04-04T08:36:11.233Z</time></trkpt><trkpt lat="44.2169683" lon="11.4897517"><ele>456.00000000000006</ele><time>2026-04-04T08:36:15.233Z</time></trkpt><trkpt lat="44.2170183" lon="11.4896817"><ele>454.0</ele><time>2026-04-04T08:36:18.233Z</time></trkpt><trkpt lat="44.21695" lon="11.4897117"><ele>454.0</ele><time>2026-04-04T08:36:43.233Z</time></trkpt><trkpt lat="44.2169183" lon="11.4898067"><ele>454.0</ele><time>2026-04-04T08:36:45.232Z</time></trkpt><trkpt lat="44.2168633" lon="11.4898533"><ele>454.0</ele><time>2026-04-04T08:36:47.232Z</time></trkpt><trkpt lat="44.2169385" lon="11.4895448"><ele>454.0</ele><time>2026-04-04T08:36:53.233Z</time></trkpt><trkpt lat="44.2169891" lon="11.4893937"><ele>456.4</ele><time>2026-04-04T08:36:54.232Z</time></trkpt><trkpt lat="44.2170449" lon="11.4892625"><ele>458.79999999999995</ele><time>2026-04-04T08:36:55.233Z</time></trkpt><trkpt lat="44.2171138" lon="11.4891537"><ele>461.20000000000005</ele><time>2026-04-04T08:36:56.233Z</time></trkpt><trkpt lat="44.217186" lon="11.4890524"><ele>463.6</ele><time>2026-04-04T08:36:57.233Z</time></trkpt><trkpt lat="44.2172498" lon="11.4889515"><ele>466.0</ele><time>2026-04-04T08:36:58.232Z</time></trkpt><trkpt lat="44.2173041" lon="11.4888515"><ele>469.83333333333337</ele><time>2026-04-04T08:36:59.233Z</time></trkpt><trkpt lat="44.2173489" lon="11.4887479"><ele>473.6666666666667</ele><time>2026-04-04T08:37:00.233Z</time></trkpt><trkpt lat="44.2173883" lon="11.4886389"><ele>477.5</ele><time>2026-04-04T08:37:01.233Z</time></trkpt><trkpt lat="44.2174342" lon="11.4885331"><ele>481.33333333333337</ele><time>2026-04-04T08:37:02.232Z</time></trkpt><trkpt lat="44.217486" lon="11.4884325"><ele>485.1666666666667</ele><time>2026-04-04T08:37:03.233Z</time></trkpt><trkpt lat="44.2175371" lon="11.4883483"><ele>489.0</ele><time>2026-04-04T08:37:04.232Z</time></trkpt><trkpt lat="44.2175876" lon="11.4882883"><ele>489.0</ele><time>2026-04-04T08:37:05.233Z</time></trkpt><trkpt lat="44.2177127" lon="11.4882503"><ele>489.0</ele><time>2026-04-04T08:37:07.233Z</time></trkpt><trkpt lat="44.2177991" lon="11.4882588"><ele>489.0</ele><time>2026-04-04T08:37:08.232Z</time></trkpt><trkpt lat="44.2178894" lon="11.4882694"><ele>489.0</ele><time>2026-04-04T08:37:09.232Z</time></trkpt><trkpt lat="44.217975" lon="11.4882621"><ele>489.0</ele><time>2026-04-04T08:37:10.232Z</time></trkpt><trkpt lat="44.2180466" lon="11.4882327"><ele>489.0</ele><time>2026-04-04T08:37:11.232Z</time></trkpt><trkpt lat="44.2181039" lon="11.4881794"><ele>489.00000000000006</ele><time>2026-04-04T08:37:12.232Z</time></trkpt><trkpt lat="44.218146" lon="11.4880924"><ele>489.0</ele><time>2026-04-04T08:37:13.233Z</time></trkpt><trkpt lat="44.2181746" lon="11.4879814"><ele>489.0</ele><time>2026-04-04T08:37:14.233Z</time></trkpt><trkpt lat="44.2181898" lon="11.4878702"><ele>489.00000000000006</ele><time>2026-04-04T08:37:15.232Z</time></trkpt><trkpt lat="44.218183" lon="11.4877754"><ele>489.0</ele><time>2026-04-04T08:37:16.233Z</time></trkpt><trkpt lat="44.2181548" lon="11.4876874"><ele>489.0</ele><time>2026-04-04T08:37:17.233Z</time></trkpt><trkpt lat="44.2181135" lon="11.4876102"><ele>490.28571428571433</ele><time>2026-04-04T08:37:18.233Z</time></trkpt><trkpt lat="44.2180676" lon="11.4875415"><ele>491.5714285714286</ele><time>2026-04-04T08:37:19.232Z</time></trkpt><trkpt lat="44.218031" lon="11.4874652"><ele>492.8571428571429</ele><time>2026-04-04T08:37:20.233Z</time></trkpt><trkpt lat="44.2180044" lon="11.4873766"><ele>494.1428571428571</ele><time>2026-04-04T08:37:21.233Z</time></trkpt><trkpt lat="44.2179849" lon="11.4872761"><ele>495.4285714285714</ele><time>2026-04-04T08:37:22.232Z</time></trkpt><trkpt lat="44.21796" lon="11.4871711"><ele>496.71428571428567</ele><time>2026-04-04T08:37:23.232Z</time></trkpt><trkpt lat="44.2179263" lon="11.48707"><ele>498.0</ele><time>2026-04-04T08:37:24.233Z</time></trkpt><trkpt lat="44.2178867" lon="11.4869702"><ele>498.3333333333333</ele><time>2026-04-04T08:37:25.232Z</time></trkpt><trkpt lat="44.2178576" lon="11.4868839"><ele>498.66666666666663</ele><time>2026-04-04T08:37:26.233Z</time></trkpt><trkpt lat="44.2178599" lon="11.4867107"><ele>499.0</ele><time>2026-04-04T08:37:28.233Z</time></trkpt><trkpt lat="44.217885" lon="11.4865683"><ele>499.3333333333333</ele><time>2026-04-04T08:37:30.233Z</time></trkpt><trkpt lat="44.21788" lon="11.48648"><ele>499.66666666666663</ele><time>2026-04-04T08:37:31.232Z</time></trkpt><trkpt lat="44.217855" lon="11.48638"><ele>500.0</ele><time>2026-04-04T08:37:32.233Z</time></trkpt><trkpt lat="44.2178167" lon="11.48627"><ele>497.8</ele><time>2026-04-04T08:37:33.233Z</time></trkpt><trkpt lat="44.2177717" lon="11.4861567"><ele>495.6</ele><time>2026-04-04T08:37:34.233Z</time></trkpt><trkpt lat="44.2177283" lon="11.4860367"><ele>493.4</ele><time>2026-04-04T08:37:35.232Z</time></trkpt><trkpt lat="44.2176883" lon="11.4859117"><ele>491.2</ele><time>2026-04-04T08:37:36.233Z</time></trkpt><trkpt lat="44.2176333" lon="11.4857917"><ele>489.0</ele><time>2026-04-04T08:37:37.233Z</time></trkpt><trkpt lat="44.21758" lon="11.4856883"><ele>489.0</ele><time>2026-04-04T08:37:38.232Z</time></trkpt><trkpt lat="44.2175067" lon="11.4856033"><ele>489.0</ele><time>2026-04-04T08:37:39.232Z</time></trkpt><trkpt lat="44.2174233" lon="11.4855333"><ele>489.0</ele><time>2026-04-04T08:37:40.232Z</time></trkpt><trkpt lat="44.2173333" lon="11.4854733"><ele>489.0</ele><time>2026-04-04T08:37:41.232Z</time></trkpt><trkpt lat="44.2172383" lon="11.4854217"><ele>489.0</ele><time>2026-04-04T08:37:42.233Z</time></trkpt><trkpt lat="44.2171417" lon="11.4853733"><ele>490.25</ele><time>2026-04-04T08:37:43.233Z</time></trkpt><trkpt lat="44.21704" lon="11.485305"><ele>491.5</ele><time>2026-04-04T08:37:44.233Z</time></trkpt><trkpt lat="44.216925" lon="11.4852433"><ele>492.75</ele><time>2026-04-04T08:37:45.232Z</time></trkpt><trkpt lat="44.2168083" lon="11.485185"><ele>494.0</ele><time>2026-04-04T08:37:46.233Z</time></trkpt><trkpt lat="44.2167017" lon="11.48512"><ele>494.0</ele><time>2026-04-04T08:37:47.233Z</time></trkpt><trkpt lat="44.216595" lon="11.4850483"><ele>494.0</ele><time>2026-04-04T08:37:48.233Z</time></trkpt><trkpt lat="44.2165033" lon="11.4849767"><ele>494.0</ele><time>2026-04-04T08:37:49.233Z</time></trkpt><trkpt lat="44.21642" lon="11.4849233"><ele>494.0</ele><time>2026-04-04T08:37:50.233Z</time></trkpt><trkpt lat="44.2163367" lon="11.4848867"><ele>494.0</ele><time>2026-04-04T08:37:51.233Z</time></trkpt><trkpt lat="44.2162567" lon="11.4848433"><ele>496.0</ele><time>2026-04-04T08:37:52.233Z</time></trkpt><trkpt lat="44.21618" lon="11.4848"><ele>498.0</ele><time>2026-04-04T08:37:53.233Z</time></trkpt><trkpt lat="44.2160967" lon="11.484765"><ele>500.0</ele><time>2026-04-04T08:37:54.233Z</time></trkpt><trkpt lat="44.216005" lon="11.4847317"><ele>502.0</ele><time>2026-04-04T08:37:55.233Z</time></trkpt><trkpt lat="44.2158967" lon="11.4846967"><ele>504.0</ele><time>2026-04-04T08:37:56.232Z</time></trkpt><trkpt lat="44.21578" lon="11.48465"><ele>502.25</ele><time>2026-04-04T08:37:57.232Z</time></trkpt><trkpt lat="44.215655" lon="11.48458"><ele>500.5</ele><time>2026-04-04T08:37:58.232Z</time></trkpt><trkpt lat="44.2155433" lon="11.4844767"><ele>498.75</ele><time>2026-04-04T08:37:59.233Z</time></trkpt><trkpt lat="44.2154533" lon="11.4843683"><ele>497.0</ele><time>2026-04-04T08:38:00.232Z</time></trkpt><trkpt lat="44.2153733" lon="11.4842533"><ele>496.99999999999994</ele><time>2026-04-04T08:38:01.233Z</time></trkpt><trkpt lat="44.2153183" lon="11.4841533"><ele>497.0</ele><time>2026-04-04T08:38:02.232Z</time></trkpt><trkpt lat="44.2152783" lon="11.4840683"><ele>497.0</ele><time>2026-04-04T08:38:03.233Z</time></trkpt><trkpt lat="44.2152367" lon="11.48397"><ele>497.0</ele><time>2026-04-04T08:38:05.233Z</time></trkpt><trkpt lat="44.21522" lon="11.4838567"><ele>496.99999999999994</ele><time>2026-04-04T08:42:01.232Z</time></trkpt><trkpt lat="44.21515" lon="11.483765"><ele>497.0</ele><time>2026-04-04T08:42:03.233Z</time></trkpt><trkpt lat="44.2151117" lon="11.48369"><ele>496.99999999999994</ele><time>2026-04-04T08:42:05.232Z</time></trkpt><trkpt lat="44.215075" lon="11.4836167"><ele>497.0</ele><time>2026-04-04T08:42:07.232Z</time></trkpt><trkpt lat="44.2150167" lon="11.4834967"><ele>497.0</ele><time>2026-04-04T08:42:28.233Z</time></trkpt><trkpt lat="44.214955" lon="11.4835467"><ele>497.0</ele><time>2026-04-04T08:42:31.232Z</time></trkpt><trkpt lat="44.2149383" lon="11.4836317"><ele>496.99999999999994</ele><time>2026-04-04T08:42:33.233Z</time></trkpt><trkpt lat="44.2148617" lon="11.4836083"><ele>497.0</ele><time>2026-04-04T08:42:36.232Z</time></trkpt><trkpt lat="44.2148017" lon="11.4835183"><ele>494.8571428571429</ele><time>2026-04-04T08:42:38.232Z</time></trkpt><trkpt lat="44.2147283" lon="11.4834"><ele>492.7142857142857</ele><time>2026-04-04T08:42:40.232Z</time></trkpt><trkpt lat="44.2146767" lon="11.483325"><ele>490.57142857142856</ele><time>2026-04-04T08:42:41.232Z</time></trkpt><trkpt lat="44.2146367" lon="11.483255"><ele>488.42857142857144</ele><time>2026-04-04T08:42:42.232Z</time></trkpt><trkpt lat="44.2146" lon="11.4831767"><ele>486.28571428571433</ele><time>2026-04-04T08:42:43.232Z</time></trkpt><trkpt lat="44.2145567" lon="11.483105"><ele>484.14285714285717</ele><time>2026-04-04T08:42:44.233Z</time></trkpt><trkpt lat="44.21451" lon="11.483045"><ele>482.0</ele><time>2026-04-04T08:42:45.233Z</time></trkpt><trkpt lat="44.214415" lon="11.4829433"><ele>481.3333333333333</ele><time>2026-04-04T08:42:47.233Z</time></trkpt><trkpt lat="44.2143067" lon="11.4828717"><ele>480.66666666666663</ele><time>2026-04-04T08:42:49.232Z</time></trkpt><trkpt lat="44.2142383" lon="11.48286"><ele>480.0</ele><time>2026-04-04T08:42:50.233Z</time></trkpt><trkpt lat="44.2141667" lon="11.48286"><ele>479.33333333333337</ele><time>2026-04-04T08:42:51.233Z</time></trkpt><trkpt lat="44.214095" lon="11.4828667"><ele>478.6666666666667</ele><time>2026-04-04T08:42:52.233Z</time></trkpt><trkpt lat="44.2140167" lon="11.482895"><ele>478.0</ele><time>2026-04-04T08:42:53.233Z</time></trkpt><trkpt lat="44.2139333" lon="11.4829483"><ele>478.00000000000006</ele><time>2026-04-04T08:42:54.233Z</time></trkpt><trkpt lat="44.2138583" lon="11.4830117"><ele>478.0</ele><time>2026-04-04T08:42:55.233Z</time></trkpt><trkpt lat="44.213785" lon="11.4830783"><ele>478.0</ele><time>2026-04-04T08:42:56.232Z</time></trkpt><trkpt lat="44.2137233" lon="11.4831633"><ele>478.0</ele><time>2026-04-04T08:42:57.232Z</time></trkpt><trkpt lat="44.2136767" lon="11.48324"><ele>478.00000000000006</ele><time>2026-04-04T08:42:58.232Z</time></trkpt><trkpt lat="44.2136333" lon="11.4833117"><ele>478.0</ele><time>2026-04-04T08:42:59.233Z</time></trkpt><trkpt lat="44.2135833" lon="11.4833783"><ele>478.0</ele><time>2026-04-04T08:43:00.233Z</time></trkpt><trkpt lat="44.2135233" lon="11.4834467"><ele>477.99999999999994</ele><time>2026-04-04T08:43:01.232Z</time></trkpt><trkpt lat="44.2134733" lon="11.4835117"><ele>477.99999999999994</ele><time>2026-04-04T08:43:02.233Z</time></trkpt><trkpt lat="44.2133683" lon="11.4835817"><ele>478.0</ele><time>2026-04-04T08:43:04.233Z</time></trkpt><trkpt lat="44.2132533" lon="11.48365"><ele>478.0</ele><time>2026-04-04T08:43:06.232Z</time></trkpt><trkpt lat="44.213205" lon="11.4837117"><ele>474.6666666666667</ele><time>2026-04-04T08:43:07.233Z</time></trkpt><trkpt lat="44.213145" lon="11.4837783"><ele>471.33333333333337</ele><time>2026-04-04T08:43:08.233Z</time></trkpt><trkpt lat="44.213095" lon="11.4838483"><ele>468.0</ele><time>2026-04-04T08:43:09.233Z</time></trkpt><trkpt lat="44.213055" lon="11.4839233"><ele>464.66666666666663</ele><time>2026-04-04T08:43:10.232Z</time></trkpt><trkpt lat="44.21297" lon="11.48403"><ele>461.3333333333333</ele><time>2026-04-04T08:43:12.233Z</time></trkpt><trkpt lat="44.2128617" lon="11.484085"><ele>458.0</ele><time>2026-04-04T08:43:14.233Z</time></trkpt><trkpt lat="44.2128" lon="11.484105"><ele>457.99999999999994</ele><time>2026-04-04T08:43:15.233Z</time></trkpt><trkpt lat="44.2127317" lon="11.4841083"><ele>458.0</ele><time>2026-04-04T08:43:16.233Z</time></trkpt><trkpt lat="44.2126583" lon="11.4841133"><ele>458.0</ele><time>2026-04-04T08:43:17.233Z</time></trkpt><trkpt lat="44.2125767" lon="11.4841333"><ele>458.0</ele><time>2026-04-04T08:43:18.233Z</time></trkpt><trkpt lat="44.2125" lon="11.48418"><ele>457.99999999999994</ele><time>2026-04-04T08:43:19.233Z</time></trkpt><trkpt lat="44.2124317" lon="11.48423"><ele>458.0</ele><time>2026-04-04T08:43:20.233Z</time></trkpt><trkpt lat="44.212365" lon="11.484285"><ele>456.59999999999997</ele><time>2026-04-04T08:43:21.233Z</time></trkpt><trkpt lat="44.212285" lon="11.4843467"><ele>455.19999999999993</ele><time>2026-04-04T08:43:22.233Z</time></trkpt><trkpt lat="44.2122033" lon="11.4844133"><ele>453.8</ele><time>2026-04-04T08:43:23.233Z</time></trkpt><trkpt lat="44.21213" lon="11.484485"><ele>452.4</ele><time>2026-04-04T08:43:24.232Z</time></trkpt><trkpt lat="44.2120683" lon="11.4845417"><ele>451.0</ele><time>2026-04-04T08:43:25.232Z</time></trkpt><trkpt lat="44.2119583" lon="11.4846183"><ele>451.00000000000006</ele><time>2026-04-04T08:43:27.233Z</time></trkpt><trkpt lat="44.21189" lon="11.4846317"><ele>451.0</ele><time>2026-04-04T08:43:28.232Z</time></trkpt><trkpt lat="44.2118167" lon="11.4846233"><ele>451.0</ele><time>2026-04-04T08:43:29.232Z</time></trkpt><trkpt lat="44.211735" lon="11.4846083"><ele>451.0</ele><time>2026-04-04T08:43:30.233Z</time></trkpt><trkpt lat="44.2116483" lon="11.484595"><ele>451.00000000000006</ele><time>2026-04-04T08:43:31.233Z</time></trkpt><trkpt lat="44.2115683" lon="11.4845983"><ele>451.0</ele><time>2026-04-04T08:43:32.232Z</time></trkpt><trkpt lat="44.211505" lon="11.484595"><ele>442.75</ele><time>2026-04-04T08:43:33.233Z</time></trkpt><trkpt lat="44.211395" lon="11.48454"><ele>434.5</ele><time>2026-04-04T08:43:35.233Z</time></trkpt><trkpt lat="44.2113167" lon="11.4844333"><ele>426.25</ele><time>2026-04-04T08:43:37.233Z</time></trkpt><trkpt lat="44.211295" lon="11.4843033"><ele>418.0</ele><time>2026-04-04T08:43:39.232Z</time></trkpt><trkpt lat="44.2113267" lon="11.48413"><ele>418.00000000000006</ele><time>2026-04-04T08:43:41.233Z</time></trkpt><trkpt lat="44.2113533" lon="11.484025"><ele>418.0</ele><time>2026-04-04T08:43:42.232Z</time></trkpt><trkpt lat="44.21138" lon="11.48393"><ele>418.0</ele><time>2026-04-04T08:43:43.233Z</time></trkpt><trkpt lat="44.211405" lon="11.483845"><ele>418.0</ele><time>2026-04-04T08:43:44.233Z</time></trkpt><trkpt lat="44.2114267" lon="11.4837017"><ele>418.00000000000006</ele><time>2026-04-04T08:43:46.232Z</time></trkpt><trkpt lat="44.21139" lon="11.483625"><ele>418.0</ele><time>2026-04-04T08:43:47.233Z</time></trkpt><trkpt lat="44.2113283" lon="11.4835383"><ele>420.33333333333337</ele><time>2026-04-04T08:43:48.233Z</time></trkpt><trkpt lat="44.2112733" lon="11.4834567"><ele>422.6666666666667</ele><time>2026-04-04T08:43:49.233Z</time></trkpt><trkpt lat="44.211235" lon="11.4833833"><ele>425.0</ele><time>2026-04-04T08:43:50.233Z</time></trkpt><trkpt lat="44.2111967" lon="11.48329"><ele>427.33333333333337</ele><time>2026-04-04T08:43:51.232Z</time></trkpt><trkpt lat="44.2111683" lon="11.4831767"><ele>429.6666666666667</ele><time>2026-04-04T08:43:52.233Z</time></trkpt><trkpt lat="44.211155" lon="11.4830333"><ele>432.0</ele><time>2026-04-04T08:43:53.232Z</time></trkpt><trkpt lat="44.2111383" lon="11.4829017"><ele>436.6666666666667</ele><time>2026-04-04T08:43:54.232Z</time></trkpt><trkpt lat="44.2111283" lon="11.48281"><ele>441.33333333333337</ele><time>2026-04-04T08:43:55.232Z</time></trkpt><trkpt lat="44.2111176" lon="11.4827225"><ele>446.0</ele><time>2026-04-04T08:43:56.233Z</time></trkpt><trkpt lat="44.2110589" lon="11.4826583"><ele>450.6666666666667</ele><time>2026-04-04T08:43:58.232Z</time></trkpt><trkpt lat="44.2109698" lon="11.4827288"><ele>455.33333333333337</ele><time>2026-04-04T08:44:00.232Z</time></trkpt><trkpt lat="44.2108639" lon="11.4827464"><ele>460.0</ele><time>2026-04-04T08:44:02.233Z</time></trkpt><trkpt lat="44.2107954" lon="11.4827216"><ele>460.0</ele><time>2026-04-04T08:44:03.233Z</time></trkpt><trkpt lat="44.2107083" lon="11.48269"><ele>460.0</ele><time>2026-04-04T08:44:04.233Z</time></trkpt><trkpt lat="44.210601" lon="11.4826696"><ele>460.0</ele><time>2026-04-04T08:44:05.232Z</time></trkpt><trkpt lat="44.2104953" lon="11.4826539"><ele>460.0</ele><time>2026-04-04T08:44:06.233Z</time></trkpt><trkpt lat="44.2104073" lon="11.4826498"><ele>460.0</ele><time>2026-04-04T08:44:07.233Z</time></trkpt><trkpt lat="44.2103349" lon="11.4826786"><ele>459.6</ele><time>2026-04-04T08:44:08.233Z</time></trkpt><trkpt lat="44.2102667" lon="11.4827473"><ele>459.2</ele><time>2026-04-04T08:44:09.233Z</time></trkpt><trkpt lat="44.2101914" lon="11.4828482"><ele>458.79999999999995</ele><time>2026-04-04T08:44:10.233Z</time></trkpt><trkpt lat="44.2101199" lon="11.48297"><ele>458.4</ele><time>2026-04-04T08:44:11.233Z</time></trkpt><trkpt lat="44.2100609" lon="11.4830778"><ele>458.0</ele><time>2026-04-04T08:44:12.232Z</time></trkpt><trkpt lat="44.2100116" lon="11.4831548"><ele>457.2</ele><time>2026-04-04T08:44:13.233Z</time></trkpt><trkpt lat="44.2099332" lon="11.4831814"><ele>456.4</ele><time>2026-04-04T08:44:15.233Z</time></trkpt><trkpt lat="44.2098372" lon="11.4830833"><ele>455.59999999999997</ele><time>2026-04-04T08:44:17.233Z</time></trkpt><trkpt lat="44.2097968" lon="11.4830056"><ele>454.79999999999995</ele><time>2026-04-04T08:44:18.233Z</time></trkpt><trkpt lat="44.2097732" lon="11.4828454"><ele>454.0</ele><time>2026-04-04T08:44:20.233Z</time></trkpt><trkpt lat="44.2097757" lon="11.4827011"><ele>454.0</ele><time>2026-04-04T08:44:22.233Z</time></trkpt><trkpt lat="44.2096817" lon="11.482633"><ele>454.0</ele><time>2026-04-04T08:44:25.232Z</time></trkpt><trkpt lat="44.2095692" lon="11.4825837"><ele>454.0</ele><time>2026-04-04T08:44:27.233Z</time></trkpt><trkpt lat="44.2094733" lon="11.4825533"><ele>454.0</ele><time>2026-04-04T08:44:29.233Z</time></trkpt><trkpt lat="44.2093733" lon="11.4826033"><ele>454.0</ele><time>2026-04-04T08:44:31.233Z</time></trkpt><trkpt lat="44.2092767" lon="11.4826417"><ele>454.00000000000006</ele><time>2026-04-04T08:44:33.233Z</time></trkpt><trkpt lat="44.2092033" lon="11.4826867"><ele>454.0</ele><time>2026-04-04T08:44:35.233Z</time></trkpt><trkpt lat="44.2091883" lon="11.482795"><ele>454.0</ele><time>2026-04-04T08:44:37.233Z</time></trkpt><trkpt lat="44.2092" lon="11.4828817"><ele>454.0</ele><time>2026-04-04T08:44:38.232Z</time></trkpt><trkpt lat="44.2092233" lon="11.4829733"><ele>454.00000000000006</ele><time>2026-04-04T08:44:39.233Z</time></trkpt><trkpt lat="44.209255" lon="11.4830867"><ele>454.0</ele><time>2026-04-04T08:44:40.232Z</time></trkpt><trkpt lat="44.2092867" lon="11.4831983"><ele>451.2</ele><time>2026-04-04T08:44:41.232Z</time></trkpt><trkpt lat="44.209325" lon="11.4832967"><ele>448.4</ele><time>2026-04-04T08:44:42.232Z</time></trkpt><trkpt lat="44.2093583" lon="11.4833867"><ele>445.6</ele><time>2026-04-04T08:44:43.232Z</time></trkpt><trkpt lat="44.209385" lon="11.4835633"><ele>442.8</ele><time>2026-04-04T08:44:45.233Z</time></trkpt><trkpt lat="44.2093833" lon="11.4836783"><ele>440.0</ele><time>2026-04-04T08:44:46.232Z</time></trkpt><trkpt lat="44.2093833" lon="11.4838067"><ele>439.8</ele><time>2026-04-04T08:44:47.232Z</time></trkpt><trkpt lat="44.2093833" lon="11.483945"><ele>439.6</ele><time>2026-04-04T08:44:48.233Z</time></trkpt><trkpt lat="44.2093883" lon="11.4840783"><ele>439.4</ele><time>2026-04-04T08:44:49.232Z</time></trkpt><trkpt lat="44.2094183" lon="11.4842167"><ele>439.2</ele><time>2026-04-04T08:44:50.233Z</time></trkpt><trkpt lat="44.2094283" lon="11.4843533"><ele>439.0</ele><time>2026-04-04T08:44:51.233Z</time></trkpt><trkpt lat="44.2094267" lon="11.484495"><ele>439.6</ele><time>2026-04-04T08:44:52.232Z</time></trkpt><trkpt lat="44.209415" lon="11.4846067"><ele>440.2</ele><time>2026-04-04T08:44:53.233Z</time></trkpt><trkpt lat="44.20939" lon="11.4847567"><ele>440.80000000000007</ele><time>2026-04-04T08:44:55.233Z</time></trkpt><trkpt lat="44.2093783" lon="11.4849283"><ele>441.40000000000003</ele><time>2026-04-04T08:44:57.232Z</time></trkpt><trkpt lat="44.209395" lon="11.4850267"><ele>442.0</ele><time>2026-04-04T08:44:58.233Z</time></trkpt><trkpt lat="44.2094133" lon="11.48513"><ele>442.00000000000006</ele><time>2026-04-04T08:44:59.232Z</time></trkpt><trkpt lat="44.2094217" lon="11.4852283"><ele>442.0</ele><time>2026-04-04T08:45:00.233Z</time></trkpt><trkpt lat="44.20942" lon="11.485335"><ele>442.0</ele><time>2026-04-04T08:45:01.233Z</time></trkpt><trkpt lat="44.2094183" lon="11.4854433"><ele>442.0</ele><time>2026-04-04T08:45:02.233Z</time></trkpt><trkpt lat="44.2094067" lon="11.4855767"><ele>442.00000000000006</ele><time>2026-04-04T08:45:03.232Z</time></trkpt><trkpt lat="44.2093833" lon="11.4857483"><ele>442.0</ele><time>2026-04-04T08:45:04.232Z</time></trkpt><trkpt lat="44.2093717" lon="11.4859333"><ele>442.75</ele><time>2026-04-04T08:45:05.233Z</time></trkpt><trkpt lat="44.209375" lon="11.486115"><ele>443.5</ele><time>2026-04-04T08:45:06.233Z</time></trkpt><trkpt lat="44.2093867" lon="11.4862917"><ele>444.25</ele><time>2026-04-04T08:45:07.233Z</time></trkpt><trkpt lat="44.2094017" lon="11.4864583"><ele>445.0</ele><time>2026-04-04T08:45:08.233Z</time></trkpt><trkpt lat="44.2094283" lon="11.486615"><ele>445.25</ele><time>2026-04-04T08:45:09.233Z</time></trkpt><trkpt lat="44.2094733" lon="11.48676"><ele>445.5</ele><time>2026-04-04T08:45:10.233Z</time></trkpt><trkpt lat="44.2095" lon="11.4868967"><ele>445.75</ele><time>2026-04-04T08:45:11.233Z</time></trkpt><trkpt lat="44.209485" lon="11.48705"><ele>446.0</ele><time>2026-04-04T08:45:12.233Z</time></trkpt><trkpt lat="44.2094483" lon="11.4872367"><ele>445.5</ele><time>2026-04-04T08:45:13.232Z</time></trkpt><trkpt lat="44.2094117" lon="11.487445"><ele>445.0</ele><time>2026-04-04T08:45:14.233Z</time></trkpt><trkpt lat="44.209375" lon="11.4876417"><ele>444.5</ele><time>2026-04-04T08:45:15.232Z</time></trkpt><trkpt lat="44.2093533" lon="11.4877967"><ele>444.0</ele><time>2026-04-04T08:45:16.232Z</time></trkpt><trkpt lat="44.2093667" lon="11.4879217"><ele>444.0</ele><time>2026-04-04T08:45:17.233Z</time></trkpt><trkpt lat="44.2094167" lon="11.4880233"><ele>444.0</ele><time>2026-04-04T08:45:18.232Z</time></trkpt><trkpt lat="44.2094817" lon="11.4881233"><ele>444.0</ele><time>2026-04-04T08:45:19.233Z</time></trkpt><trkpt lat="44.2095483" lon="11.488255"><ele>444.0</ele><time>2026-04-04T08:45:20.233Z</time></trkpt><trkpt lat="44.209595" lon="11.4884183"><ele>444.0</ele><time>2026-04-04T08:45:21.233Z</time></trkpt><trkpt lat="44.2096083" lon="11.488605"><ele>445.25</ele><time>2026-04-04T08:45:22.233Z</time></trkpt><trkpt lat="44.2096167" lon="11.4887783"><ele>446.5</ele><time>2026-04-04T08:45:23.233Z</time></trkpt><trkpt lat="44.2095933" lon="11.4889483"><ele>447.75</ele><time>2026-04-04T08:45:24.233Z</time></trkpt><trkpt lat="44.20957" lon="11.489135"><ele>449.0</ele><time>2026-04-04T08:45:25.232Z</time></trkpt><trkpt lat="44.209565" lon="11.48935"><ele>449.0</ele><time>2026-04-04T08:45:26.233Z</time></trkpt><trkpt lat="44.2095783" lon="11.489545"><ele>449.0</ele><time>2026-04-04T08:45:27.233Z</time></trkpt><trkpt lat="44.2095983" lon="11.48973"><ele>449.0</ele><time>2026-04-04T08:45:28.233Z</time></trkpt><trkpt lat="44.2096283" lon="11.489895"><ele>449.0</ele><time>2026-04-04T08:45:29.233Z</time></trkpt><trkpt lat="44.2096383" lon="11.490045"><ele>449.2</ele><time>2026-04-04T08:45:30.232Z</time></trkpt><trkpt lat="44.2096267" lon="11.4901783"><ele>449.4</ele><time>2026-04-04T08:45:31.232Z</time></trkpt><trkpt lat="44.2095883" lon="11.4903067"><ele>449.6</ele><time>2026-04-04T08:45:32.233Z</time></trkpt><trkpt lat="44.2095133" lon="11.4904167"><ele>449.8</ele><time>2026-04-04T08:45:33.233Z</time></trkpt><trkpt lat="44.2094117" lon="11.490525"><ele>450.0</ele><time>2026-04-04T08:45:34.232Z</time></trkpt><trkpt lat="44.20929" lon="11.490625"><ele>451.66666666666663</ele><time>2026-04-04T08:45:35.233Z</time></trkpt><trkpt lat="44.2091467" lon="11.490735"><ele>453.3333333333333</ele><time>2026-04-04T08:45:36.233Z</time></trkpt><trkpt lat="44.2089967" lon="11.490855"><ele>455.0</ele><time>2026-04-04T08:45:37.233Z</time></trkpt><trkpt lat="44.2088533" lon="11.490965"><ele>455.0</ele><time>2026-04-04T08:45:38.232Z</time></trkpt><trkpt lat="44.2087233" lon="11.4910617"><ele>455.0</ele><time>2026-04-04T08:45:39.233Z</time></trkpt><trkpt lat="44.2086067" lon="11.491155"><ele>455.0</ele><time>2026-04-04T08:45:40.233Z</time></trkpt><trkpt lat="44.2085" lon="11.49126"><ele>455.0</ele><time>2026-04-04T08:45:41.232Z</time></trkpt><trkpt lat="44.2084133" lon="11.4914033"><ele>451.66666666666663</ele><time>2026-04-04T08:45:42.233Z</time></trkpt><trkpt lat="44.20833" lon="11.491585"><ele>448.33333333333337</ele><time>2026-04-04T08:45:43.233Z</time></trkpt><trkpt lat="44.2082583" lon="11.49179"><ele>445.0</ele><time>2026-04-04T08:45:44.233Z</time></trkpt><trkpt lat="44.2081917" lon="11.4919783"><ele>454.75</ele><time>2026-04-04T08:45:45.232Z</time></trkpt><trkpt lat="44.2081233" lon="11.4921517"><ele>464.5</ele><time>2026-04-04T08:45:46.233Z</time></trkpt><trkpt lat="44.2080933" lon="11.49233"><ele>474.25</ele><time>2026-04-04T08:45:47.233Z</time></trkpt><trkpt lat="44.2080917" lon="11.492505"><ele>484.0</ele><time>2026-04-04T08:45:48.232Z</time></trkpt><trkpt lat="44.2081117" lon="11.4926833"><ele>484.0</ele><time>2026-04-04T08:45:49.233Z</time></trkpt><trkpt lat="44.20815" lon="11.4928733"><ele>484.0</ele><time>2026-04-04T08:45:50.233Z</time></trkpt><trkpt lat="44.208195" lon="11.4930733"><ele>484.0</ele><time>2026-04-04T08:45:51.232Z</time></trkpt><trkpt lat="44.2082417" lon="11.49327"><ele>484.0</ele><time>2026-04-04T08:45:52.233Z</time></trkpt><trkpt lat="44.2082717" lon="11.4934483"><ele>476.4</ele><time>2026-04-04T08:45:53.233Z</time></trkpt><trkpt lat="44.208295" lon="11.4936133"><ele>468.79999999999995</ele><time>2026-04-04T08:45:54.233Z</time></trkpt><trkpt lat="44.2083117" lon="11.49376"><ele>461.20000000000005</ele><time>2026-04-04T08:45:55.233Z</time></trkpt><trkpt lat="44.2083183" lon="11.4938933"><ele>453.6</ele><time>2026-04-04T08:45:56.233Z</time></trkpt><trkpt lat="44.20832" lon="11.4940017"><ele>446.0</ele><time>2026-04-04T08:45:57.232Z</time></trkpt><trkpt lat="44.2083083" lon="11.4941017"><ele>445.8</ele><time>2026-04-04T08:45:58.233Z</time></trkpt><trkpt lat="44.2082967" lon="11.49419"><ele>445.6</ele><time>2026-04-04T08:45:59.232Z</time></trkpt><trkpt lat="44.2082567" lon="11.4942817"><ele>445.4</ele><time>2026-04-04T08:46:00.233Z</time></trkpt><trkpt lat="44.2081933" lon="11.4943817"><ele>445.2</ele><time>2026-04-04T08:46:01.232Z</time></trkpt><trkpt lat="44.208115" lon="11.494495"><ele>445.0</ele><time>2026-04-04T08:46:02.232Z</time></trkpt><trkpt lat="44.20804" lon="11.4946233"><ele>450.5</ele><time>2026-04-04T08:46:03.232Z</time></trkpt><trkpt lat="44.2079867" lon="11.49478"><ele>456.0</ele><time>2026-04-04T08:46:04.232Z</time></trkpt><trkpt lat="44.207965" lon="11.4949483"><ele>461.5</ele><time>2026-04-04T08:46:05.233Z</time></trkpt><trkpt lat="44.2079683" lon="11.4951133"><ele>467.0</ele><time>2026-04-04T08:46:06.232Z</time></trkpt><trkpt lat="44.2079983" lon="11.495275"><ele>466.99999999999994</ele><time>2026-04-04T08:46:07.232Z</time></trkpt><trkpt lat="44.2080317" lon="11.4954117"><ele>467.0</ele><time>2026-04-04T08:46:08.233Z</time></trkpt><trkpt lat="44.2080533" lon="11.4955233"><ele>467.0</ele><time>2026-04-04T08:46:09.233Z</time></trkpt><trkpt lat="44.2080217" lon="11.4956417"><ele>467.0</ele><time>2026-04-04T08:46:11.232Z</time></trkpt><trkpt lat="44.2079567" lon="11.495675"><ele>466.99999999999994</ele><time>2026-04-04T08:46:12.233Z</time></trkpt><trkpt lat="44.20787" lon="11.4956767"><ele>467.0</ele><time>2026-04-04T08:46:13.232Z</time></trkpt><trkpt lat="44.207765" lon="11.4956767"><ele>467.0</ele><time>2026-04-04T08:46:14.233Z</time></trkpt><trkpt lat="44.2076367" lon="11.4957033"><ele>467.0</ele><time>2026-04-04T08:46:15.233Z</time></trkpt><trkpt lat="44.2075067" lon="11.4957883"><ele>467.0</ele><time>2026-04-04T08:46:16.233Z</time></trkpt><trkpt lat="44.2073883" lon="11.4958917"><ele>467.0</ele><time>2026-04-04T08:46:17.232Z</time></trkpt><trkpt lat="44.2072917" lon="11.495995"><ele>467.0</ele><time>2026-04-04T08:46:18.232Z</time></trkpt><trkpt lat="44.2072083" lon="11.496115"><ele>467.0</ele><time>2026-04-04T08:46:19.233Z</time></trkpt><trkpt lat="44.2071333" lon="11.4962633"><ele>467.0</ele><time>2026-04-04T08:46:20.233Z</time></trkpt><trkpt lat="44.2070717" lon="11.4964133"><ele>467.0</ele><time>2026-04-04T08:46:21.233Z</time></trkpt><trkpt lat="44.20701" lon="11.4965633"><ele>463.20000000000005</ele><time>2026-04-04T08:46:22.232Z</time></trkpt><trkpt lat="44.2069633" lon="11.4967083"><ele>459.40000000000003</ele><time>2026-04-04T08:46:23.232Z</time></trkpt><trkpt lat="44.2069067" lon="11.4968417"><ele>455.59999999999997</ele><time>2026-04-04T08:46:24.233Z</time></trkpt><trkpt lat="44.206835" lon="11.4969583"><ele>451.79999999999995</ele><time>2026-04-04T08:46:25.233Z</time></trkpt><trkpt lat="44.2067633" lon="11.4970733"><ele>448.0</ele><time>2026-04-04T08:46:26.232Z</time></trkpt><trkpt lat="44.2067133" lon="11.4971917"><ele>442.5</ele><time>2026-04-04T08:46:27.233Z</time></trkpt><trkpt lat="44.206685" lon="11.4973383"><ele>437.0</ele><time>2026-04-04T08:46:28.232Z</time></trkpt><trkpt lat="44.2066733" lon="11.4974883"><ele>431.5</ele><time>2026-04-04T08:46:29.233Z</time></trkpt><trkpt lat="44.2066483" lon="11.4976483"><ele>426.0</ele><time>2026-04-04T08:46:30.233Z</time></trkpt><trkpt lat="44.2066183" lon="11.4978433"><ele>422.25</ele><time>2026-04-04T08:46:31.233Z</time></trkpt><trkpt lat="44.2065567" lon="11.4980367"><ele>418.5</ele><time>2026-04-04T08:46:32.233Z</time></trkpt><trkpt lat="44.2064983" lon="11.498205"><ele>414.75</ele><time>2026-04-04T08:46:33.233Z</time></trkpt><trkpt lat="44.2064533" lon="11.498345"><ele>411.0</ele><time>2026-04-04T08:46:34.233Z</time></trkpt><trkpt lat="44.2064083" lon="11.4984667"><ele>411.0</ele><time>2026-04-04T08:46:35.233Z</time></trkpt><trkpt lat="44.2063617" lon="11.4985567"><ele>411.0</ele><time>2026-04-04T08:46:36.232Z</time></trkpt><trkpt lat="44.20631" lon="11.498625"><ele>411.0</ele><time>2026-04-04T08:46:37.232Z</time></trkpt><trkpt lat="44.2062317" lon="11.4986817"><ele>411.0</ele><time>2026-04-04T08:46:38.232Z</time></trkpt><trkpt lat="44.2061217" lon="11.498715"><ele>411.0</ele><time>2026-04-04T08:46:39.232Z</time></trkpt><trkpt lat="44.205995" lon="11.49875"><ele>408.6</ele><time>2026-04-04T08:46:40.233Z</time></trkpt><trkpt lat="44.205885" lon="11.49878"><ele>406.20000000000005</ele><time>2026-04-04T08:46:41.233Z</time></trkpt><trkpt lat="44.2057783" lon="11.4987817"><ele>403.79999999999995</ele><time>2026-04-04T08:46:42.233Z</time></trkpt><trkpt lat="44.20569" lon="11.4987583"><ele>401.4</ele><time>2026-04-04T08:46:43.233Z</time></trkpt><trkpt lat="44.2056067" lon="11.498695"><ele>399.0</ele><time>2026-04-04T08:46:44.233Z</time></trkpt><trkpt lat="44.205525" lon="11.49864"><ele>399.0</ele><time>2026-04-04T08:46:45.233Z</time></trkpt><trkpt lat="44.205455" lon="11.4985983"><ele>399.0</ele><time>2026-04-04T08:46:46.232Z</time></trkpt><trkpt lat="44.2053567" lon="11.4986333"><ele>399.0</ele><time>2026-04-04T08:46:48.233Z</time></trkpt><trkpt lat="44.2054083" lon="11.498785"><ele>399.0</ele><time>2026-04-04T08:46:50.233Z</time></trkpt><trkpt lat="44.2054683" lon="11.49887"><ele>399.0</ele><time>2026-04-04T08:46:51.233Z</time></trkpt><trkpt lat="44.2055333" lon="11.4989517"><ele>396.2</ele><time>2026-04-04T08:46:52.233Z</time></trkpt><trkpt lat="44.2055767" lon="11.4990567"><ele>393.4</ele><time>2026-04-04T08:46:53.232Z</time></trkpt><trkpt lat="44.2056117" lon="11.4991867"><ele>390.6</ele><time>2026-04-04T08:46:54.232Z</time></trkpt><trkpt lat="44.2056317" lon="11.4993217"><ele>387.8</ele><time>2026-04-04T08:46:55.233Z</time></trkpt><trkpt lat="44.205645" lon="11.4994667"><ele>385.0</ele><time>2026-04-04T08:46:56.233Z</time></trkpt><trkpt lat="44.205655" lon="11.4996117"><ele>383.83333333333337</ele><time>2026-04-04T08:46:57.233Z</time></trkpt><trkpt lat="44.20566" lon="11.49974"><ele>382.6666666666667</ele><time>2026-04-04T08:46:58.233Z</time></trkpt><trkpt lat="44.2056633" lon="11.4998533"><ele>381.5</ele><time>2026-04-04T08:46:59.233Z</time></trkpt><trkpt lat="44.2056767" lon="11.4999483"><ele>380.33333333333337</ele><time>2026-04-04T08:47:00.233Z</time></trkpt><trkpt lat="44.20571" lon="11.5000233"><ele>379.1666666666667</ele><time>2026-04-04T08:47:01.233Z</time></trkpt><trkpt lat="44.2057633" lon="11.500075"><ele>378.0</ele><time>2026-04-04T08:47:02.232Z</time></trkpt><trkpt lat="44.2059083" lon="11.500065"><ele>375.79999999999995</ele><time>2026-04-04T08:47:04.233Z</time></trkpt><trkpt lat="44.206" lon="11.4999833"><ele>373.6</ele><time>2026-04-04T08:47:05.232Z</time></trkpt><trkpt lat="44.2060933" lon="11.49989"><ele>371.4</ele><time>2026-04-04T08:47:06.232Z</time></trkpt><trkpt lat="44.2061833" lon="11.4998"><ele>369.20000000000005</ele><time>2026-04-04T08:47:07.233Z</time></trkpt><trkpt lat="44.2062617" lon="11.4997233"><ele>367.0</ele><time>2026-04-04T08:47:08.233Z</time></trkpt><trkpt lat="44.2063317" lon="11.4996733"><ele>367.0</ele><time>2026-04-04T08:47:09.233Z</time></trkpt><trkpt lat="44.2064017" lon="11.4996517"><ele>367.0</ele><time>2026-04-04T08:47:10.233Z</time></trkpt><trkpt lat="44.2064717" lon="11.4996733"><ele>367.0</ele><time>2026-04-04T08:47:11.233Z</time></trkpt><trkpt lat="44.2065217" lon="11.4997533"><ele>367.0</ele><time>2026-04-04T08:47:12.233Z</time></trkpt><trkpt lat="44.2065483" lon="11.4998667"><ele>367.0</ele><time>2026-04-04T08:47:13.233Z</time></trkpt><trkpt lat="44.2065533" lon="11.4999883"><ele>367.0</ele><time>2026-04-04T08:47:14.233Z</time></trkpt><trkpt lat="44.20655" lon="11.500105"><ele>365.6</ele><time>2026-04-04T08:47:15.232Z</time></trkpt><trkpt lat="44.20657" lon="11.5002083"><ele>364.20000000000005</ele><time>2026-04-04T08:47:16.233Z</time></trkpt><trkpt lat="44.20662" lon="11.5002767"><ele>362.8</ele><time>2026-04-04T08:47:17.233Z</time></trkpt><trkpt lat="44.2067" lon="11.5003417"><ele>361.4</ele><time>2026-04-04T08:47:18.233Z</time></trkpt><trkpt lat="44.20681" lon="11.500405"><ele>360.0</ele><time>2026-04-04T08:47:19.233Z</time></trkpt><trkpt lat="44.2069233" lon="11.5004583"><ele>360.0</ele><time>2026-04-04T08:47:20.232Z</time></trkpt><trkpt lat="44.2070267" lon="11.500495"><ele>360.0</ele><time>2026-04-04T08:47:21.233Z</time></trkpt><trkpt lat="44.20712" lon="11.5004833"><ele>360.0</ele><time>2026-04-04T08:47:22.232Z</time></trkpt><trkpt lat="44.2072083" lon="11.5004317"><ele>360.0</ele><time>2026-04-04T08:47:23.233Z</time></trkpt><trkpt lat="44.2072983" lon="11.50036"><ele>360.0</ele><time>2026-04-04T08:47:24.233Z</time></trkpt><trkpt lat="44.2073767" lon="11.500295"><ele>357.4</ele><time>2026-04-04T08:47:25.233Z</time></trkpt><trkpt lat="44.2074483" lon="11.5002117"><ele>354.8</ele><time>2026-04-04T08:47:26.233Z</time></trkpt><trkpt lat="44.2075117" lon="11.5000917"><ele>352.20000000000005</ele><time>2026-04-04T08:47:27.233Z</time></trkpt><trkpt lat="44.2075733" lon="11.499955"><ele>349.6</ele><time>2026-04-04T08:47:28.233Z</time></trkpt><trkpt lat="44.2076433" lon="11.4998317"><ele>347.0</ele><time>2026-04-04T08:47:29.233Z</time></trkpt><trkpt lat="44.207715" lon="11.4997183"><ele>347.0</ele><time>2026-04-04T08:47:30.233Z</time></trkpt><trkpt lat="44.20777" lon="11.4996"><ele>347.0</ele><time>2026-04-04T08:47:31.232Z</time></trkpt><trkpt lat="44.2078017" lon="11.4994817"><ele>347.0</ele><time>2026-04-04T08:47:32.233Z</time></trkpt><trkpt lat="44.2078217" lon="11.4993633"><ele>347.0</ele><time>2026-04-04T08:47:33.232Z</time></trkpt><trkpt lat="44.2078467" lon="11.499255"><ele>347.0</ele><time>2026-04-04T08:47:34.232Z</time></trkpt><trkpt lat="44.2078883" lon="11.49915"><ele>347.0</ele><time>2026-04-04T08:47:35.232Z</time></trkpt><trkpt lat="44.2079483" lon="11.4990567"><ele>348.0</ele><time>2026-04-04T08:47:36.233Z</time></trkpt><trkpt lat="44.20802" lon="11.4989867"><ele>349.0</ele><time>2026-04-04T08:47:37.233Z</time></trkpt><trkpt lat="44.208095" lon="11.498945"><ele>350.0</ele><time>2026-04-04T08:47:38.233Z</time></trkpt><trkpt lat="44.208165" lon="11.4989133"><ele>351.0</ele><time>2026-04-04T08:47:39.232Z</time></trkpt><trkpt lat="44.20825" lon="11.498805"><ele>352.0</ele><time>2026-04-04T08:47:41.233Z</time></trkpt><trkpt lat="44.2082867" lon="11.498725"><ele>353.0</ele><time>2026-04-04T08:47:42.233Z</time></trkpt><trkpt lat="44.2083167" lon="11.4986433"><ele>353.0</ele><time>2026-04-04T08:47:43.233Z</time></trkpt><trkpt lat="44.2084" lon="11.49854"><ele>353.0</ele><time>2026-04-04T08:47:45.233Z</time></trkpt><trkpt lat="44.20847" lon="11.498535"><ele>353.0</ele><time>2026-04-04T08:47:46.232Z</time></trkpt><trkpt lat="44.20855" lon="11.4985267"><ele>353.0</ele><time>2026-04-04T08:47:47.232Z</time></trkpt><trkpt lat="44.2086217" lon="11.498475"><ele>353.0</ele><time>2026-04-04T08:47:48.233Z</time></trkpt><trkpt lat="44.2086833" lon="11.4983783"><ele>353.0</ele><time>2026-04-04T08:47:49.232Z</time></trkpt><trkpt lat="44.2087383" lon="11.4982733"><ele>353.0</ele><time>2026-04-04T08:47:50.232Z</time></trkpt><trkpt lat="44.2087933" lon="11.498195"><ele>353.0</ele><time>2026-04-04T08:47:51.232Z</time></trkpt><trkpt lat="44.2088667" lon="11.4981833"><ele>353.0</ele><time>2026-04-04T08:47:52.232Z</time></trkpt><trkpt lat="44.2089567" lon="11.498175"><ele>353.0</ele><time>2026-04-04T08:47:53.233Z</time></trkpt><trkpt lat="44.2090583" lon="11.4981383"><ele>353.0</ele><time>2026-04-04T08:47:54.233Z</time></trkpt><trkpt lat="44.209145" lon="11.4980617"><ele>350.59999999999997</ele><time>2026-04-04T08:47:55.232Z</time></trkpt><trkpt lat="44.2092217" lon="11.4979517"><ele>348.2</ele><time>2026-04-04T08:47:56.233Z</time></trkpt><trkpt lat="44.209275" lon="11.4978217"><ele>345.8</ele><time>2026-04-04T08:47:57.233Z</time></trkpt><trkpt lat="44.2093117" lon="11.4977067"><ele>343.4</ele><time>2026-04-04T08:47:58.233Z</time></trkpt><trkpt lat="44.2093417" lon="11.4976217"><ele>341.0</ele><time>2026-04-04T08:47:59.233Z</time></trkpt><trkpt lat="44.2094217" lon="11.4976183"><ele>341.0</ele><time>2026-04-04T08:48:01.232Z</time></trkpt><trkpt lat="44.2094583" lon="11.49771"><ele>341.0</ele><time>2026-04-04T08:48:02.232Z</time></trkpt><trkpt lat="44.2094683" lon="11.4978517"><ele>341.0</ele><time>2026-04-04T08:48:03.233Z</time></trkpt><trkpt lat="44.2094467" lon="11.49801"><ele>341.0</ele><time>2026-04-04T08:48:04.232Z</time></trkpt><trkpt lat="44.20941" lon="11.4981567"><ele>341.0</ele><time>2026-04-04T08:48:05.233Z</time></trkpt><trkpt lat="44.2093517" lon="11.4982833"><ele>344.0</ele><time>2026-04-04T08:48:06.233Z</time></trkpt><trkpt lat="44.209265" lon="11.49838"><ele>347.0</ele><time>2026-04-04T08:48:07.233Z</time></trkpt><trkpt lat="44.209155" lon="11.49848"><ele>350.0</ele><time>2026-04-04T08:48:08.233Z</time></trkpt><trkpt lat="44.2090567" lon="11.498605"><ele>353.0</ele><time>2026-04-04T08:48:09.233Z</time></trkpt><trkpt lat="44.2089783" lon="11.4987283"><ele>348.0</ele><time>2026-04-04T08:48:10.233Z</time></trkpt><trkpt lat="44.2089133" lon="11.49885"><ele>343.0</ele><time>2026-04-04T08:48:11.232Z</time></trkpt><trkpt lat="44.20885" lon="11.4989433"><ele>338.0</ele><time>2026-04-04T08:48:12.232Z</time></trkpt><trkpt lat="44.2087733" lon="11.498995"><ele>333.0</ele><time>2026-04-04T08:48:13.233Z</time></trkpt><trkpt lat="44.2087033" lon="11.4990317"><ele>328.0</ele><time>2026-04-04T08:48:14.232Z</time></trkpt><trkpt lat="44.2086417" lon="11.4990883"><ele>323.0</ele><time>2026-04-04T08:48:15.233Z</time></trkpt><trkpt lat="44.20858" lon="11.4991917"><ele>323.0</ele><time>2026-04-04T08:48:16.234Z</time></trkpt><trkpt lat="44.208515" lon="11.49932"><ele>323.0</ele><time>2026-04-04T08:48:17.234Z</time></trkpt><trkpt lat="44.208445" lon="11.4994367"><ele>323.0</ele><time>2026-04-04T08:48:18.234Z</time></trkpt><trkpt lat="44.2083667" lon="11.49953"><ele>323.0</ele><time>2026-04-04T08:48:19.233Z</time></trkpt><trkpt lat="44.20831" lon="11.4996167"><ele>323.0</ele><time>2026-04-04T08:48:20.233Z</time></trkpt><trkpt lat="44.2082733" lon="11.499715"><ele>322.0</ele><time>2026-04-04T08:48:21.234Z</time></trkpt><trkpt lat="44.2082467" lon="11.4998433"><ele>321.0</ele><time>2026-04-04T08:48:22.234Z</time></trkpt><trkpt lat="44.2082233" lon="11.500025"><ele>320.0</ele><time>2026-04-04T08:48:23.234Z</time></trkpt><trkpt lat="44.2081833" lon="11.500245"><ele>319.0</ele><time>2026-04-04T08:48:24.233Z</time></trkpt><trkpt lat="44.2081483" lon="11.5004533"><ele>319.0</ele><time>2026-04-04T08:48:25.234Z</time></trkpt><trkpt lat="44.208105" lon="11.50062"><ele>319.0</ele><time>2026-04-04T08:48:26.234Z</time></trkpt><trkpt lat="44.2080517" lon="11.5007433"><ele>319.0</ele><time>2026-04-04T08:48:27.233Z</time></trkpt><trkpt lat="44.207965" lon="11.5008283"><ele>319.0</ele><time>2026-04-04T08:48:28.234Z</time></trkpt><trkpt lat="44.2078617" lon="11.5009033"><ele>319.0</ele><time>2026-04-04T08:48:29.233Z</time></trkpt><trkpt lat="44.2077567" lon="11.5009767"><ele>319.0</ele><time>2026-04-04T08:48:30.234Z</time></trkpt><trkpt lat="44.207695" lon="11.501075"><ele>319.0</ele><time>2026-04-04T08:48:31.233Z</time></trkpt><trkpt lat="44.2076617" lon="11.5011967"><ele>319.0</ele><time>2026-04-04T08:48:32.234Z</time></trkpt><trkpt lat="44.2076567" lon="11.50133"><ele>319.0</ele><time>2026-04-04T08:48:33.234Z</time></trkpt><trkpt lat="44.2076467" lon="11.5014733"><ele>315.2</ele><time>2026-04-04T08:48:34.234Z</time></trkpt><trkpt lat="44.2076017" lon="11.5016167"><ele>311.4</ele><time>2026-04-04T08:48:35.233Z</time></trkpt><trkpt lat="44.20751" lon="11.5017483"><ele>307.6</ele><time>2026-04-04T08:48:36.233Z</time></trkpt><trkpt lat="44.207425" lon="11.5018417"><ele>303.8</ele><time>2026-04-04T08:48:37.234Z</time></trkpt><trkpt lat="44.2073617" lon="11.501935"><ele>300.0</ele><time>2026-04-04T08:48:38.234Z</time></trkpt><trkpt lat="44.2073133" lon="11.5020183"><ele>297.75</ele><time>2026-04-04T08:48:39.234Z</time></trkpt><trkpt lat="44.207365" lon="11.5021133"><ele>295.5</ele><time>2026-04-04T08:48:41.233Z</time></trkpt><trkpt lat="44.2074767" lon="11.50201"><ele>293.25</ele><time>2026-04-04T08:48:43.234Z</time></trkpt><trkpt lat="44.207555" lon="11.5018767"><ele>291.0</ele><time>2026-04-04T08:48:44.233Z</time></trkpt><trkpt lat="44.2076317" lon="11.501735"><ele>291.0</ele><time>2026-04-04T08:48:45.233Z</time></trkpt><trkpt lat="44.2077017" lon="11.5016233"><ele>291.0</ele><time>2026-04-04T08:48:46.234Z</time></trkpt><trkpt lat="44.2077533" lon="11.5015533"><ele>291.0</ele><time>2026-04-04T08:48:47.234Z</time></trkpt><trkpt lat="44.2078583" lon="11.5015317"><ele>291.0</ele><time>2026-04-04T08:48:49.234Z</time></trkpt><trkpt lat="44.2078317" lon="11.50169"><ele>291.0</ele><time>2026-04-04T08:48:51.234Z</time></trkpt><trkpt lat="44.2077817" lon="11.5017917"><ele>291.0</ele><time>2026-04-04T08:48:52.233Z</time></trkpt><trkpt lat="44.2077217" lon="11.501925"><ele>291.0</ele><time>2026-04-04T08:48:53.234Z</time></trkpt><trkpt lat="44.2076933" lon="11.5020733"><ele>291.0</ele><time>2026-04-04T08:48:54.234Z</time></trkpt><trkpt lat="44.2076933" lon="11.5022217"><ele>291.0</ele><time>2026-04-04T08:48:55.233Z</time></trkpt><trkpt lat="44.2076867" lon="11.502355"><ele>291.0</ele><time>2026-04-04T08:48:56.234Z</time></trkpt><trkpt lat="44.2076567" lon="11.5024583"><ele>286.40000000000003</ele><time>2026-04-04T08:48:57.234Z</time></trkpt><trkpt lat="44.207595" lon="11.50251"><ele>281.8</ele><time>2026-04-04T08:48:58.233Z</time></trkpt><trkpt lat="44.20752" lon="11.5025217"><ele>277.20000000000005</ele><time>2026-04-04T08:48:59.233Z</time></trkpt><trkpt lat="44.2074283" lon="11.5025167"><ele>272.6</ele><time>2026-04-04T08:49:00.234Z</time></trkpt><trkpt lat="44.2073067" lon="11.5025183"><ele>268.0</ele><time>2026-04-04T08:49:01.233Z</time></trkpt><trkpt lat="44.2071717" lon="11.502545"><ele>268.0</ele><time>2026-04-04T08:49:02.233Z</time></trkpt><trkpt lat="44.2070567" lon="11.50258"><ele>268.0</ele><time>2026-04-04T08:49:03.234Z</time></trkpt><trkpt lat="44.2069567" lon="11.50262"><ele>268.0</ele><time>2026-04-04T08:49:04.234Z</time></trkpt><trkpt lat="44.20686" lon="11.5026383"><ele>268.0</ele><time>2026-04-04T08:49:05.233Z</time></trkpt><trkpt lat="44.20676" lon="11.5026183"><ele>268.0</ele><time>2026-04-04T08:49:06.234Z</time></trkpt><trkpt lat="44.2066667" lon="11.5025633"><ele>268.0</ele><time>2026-04-04T08:49:07.234Z</time></trkpt><trkpt lat="44.206575" lon="11.5025067"><ele>268.0</ele><time>2026-04-04T08:49:08.234Z</time></trkpt><trkpt lat="44.2064817" lon="11.5025"><ele>268.0</ele><time>2026-04-04T08:49:09.233Z</time></trkpt><trkpt lat="44.206375" lon="11.502545"><ele>268.0</ele><time>2026-04-04T08:49:10.233Z</time></trkpt><trkpt lat="44.2062783" lon="11.5026283"><ele>268.0</ele><time>2026-04-04T08:49:11.234Z</time></trkpt><trkpt lat="44.2062067" lon="11.5027233"><ele>267.16666666666663</ele><time>2026-04-04T08:49:12.234Z</time></trkpt><trkpt lat="44.2061417" lon="11.5028"><ele>266.3333333333333</ele><time>2026-04-04T08:49:13.233Z</time></trkpt><trkpt lat="44.2060667" lon="11.5028367"><ele>265.5</ele><time>2026-04-04T08:49:14.234Z</time></trkpt><trkpt lat="44.2059983" lon="11.5028283"><ele>264.6666666666667</ele><time>2026-04-04T08:49:15.233Z</time></trkpt><trkpt lat="44.2059217" lon="11.5027867"><ele>263.83333333333337</ele><time>2026-04-04T08:49:16.234Z</time></trkpt><trkpt lat="44.2058433" lon="11.5027217"><ele>263.0</ele><time>2026-04-04T08:49:17.233Z</time></trkpt><trkpt lat="44.2057717" lon="11.5026483"><ele>263.0</ele><time>2026-04-04T08:49:18.234Z</time></trkpt><trkpt lat="44.2057083" lon="11.5025817"><ele>263.0</ele><time>2026-04-04T08:49:19.234Z</time></trkpt><trkpt lat="44.205605" lon="11.502515"><ele>263.0</ele><time>2026-04-04T08:49:21.234Z</time></trkpt><trkpt lat="44.20552" lon="11.5025683"><ele>263.0</ele><time>2026-04-04T08:49:23.234Z</time></trkpt><trkpt lat="44.2054967" lon="11.502665"><ele>263.0</ele><time>2026-04-04T08:49:24.233Z</time></trkpt><trkpt lat="44.20549" lon="11.5027967"><ele>259.6666666666667</ele><time>2026-04-04T08:49:25.233Z</time></trkpt><trkpt lat="44.205485" lon="11.5029267"><ele>256.33333333333337</ele><time>2026-04-04T08:49:26.234Z</time></trkpt><trkpt lat="44.2054683" lon="11.5030217"><ele>253.0</ele><time>2026-04-04T08:49:27.234Z</time></trkpt><trkpt lat="44.20544" lon="11.50311"><ele>249.66666666666669</ele><time>2026-04-04T08:49:28.233Z</time></trkpt><trkpt lat="44.2054133" lon="11.5032033"><ele>246.33333333333334</ele><time>2026-04-04T08:49:30.234Z</time></trkpt><trkpt lat="44.2054683" lon="11.5033067"><ele>243.0</ele><time>2026-04-04T08:49:38.234Z</time></trkpt><trkpt lat="44.20553" lon="11.5033283"><ele>243.0</ele><time>2026-04-04T08:49:39.234Z</time></trkpt><trkpt lat="44.2056383" lon="11.503345"><ele>243.0</ele><time>2026-04-04T08:49:40.234Z</time></trkpt><trkpt lat="44.2057717" lon="11.5033683"><ele>243.0</ele><time>2026-04-04T08:49:41.233Z</time></trkpt><trkpt lat="44.2059183" lon="11.503385"><ele>243.0</ele><time>2026-04-04T08:49:42.233Z</time></trkpt><trkpt lat="44.2060717" lon="11.503395"><ele>243.0</ele><time>2026-04-04T08:49:43.233Z</time></trkpt><trkpt lat="44.2062167" lon="11.5034067"><ele>243.0</ele><time>2026-04-04T08:49:44.234Z</time></trkpt><trkpt lat="44.20638" lon="11.5034233"><ele>243.0</ele><time>2026-04-04T08:49:45.234Z</time></trkpt><trkpt lat="44.206535" lon="11.5034433"><ele>243.0</ele><time>2026-04-04T08:49:46.234Z</time></trkpt><trkpt lat="44.2066917" lon="11.5034667"><ele>243.0</ele><time>2026-04-04T08:49:47.233Z</time></trkpt><trkpt lat="44.2068417" lon="11.5034933"><ele>243.0</ele><time>2026-04-04T08:49:48.234Z</time></trkpt><trkpt lat="44.206995" lon="11.50351"><ele>243.0</ele><time>2026-04-04T08:49:49.234Z</time></trkpt><trkpt lat="44.2071517" lon="11.5035317"><ele>243.0</ele><time>2026-04-04T08:49:50.234Z</time></trkpt><trkpt lat="44.207315" lon="11.5035533"><ele>243.0</ele><time>2026-04-04T08:49:51.233Z</time></trkpt><trkpt lat="44.2074817" lon="11.5035733"><ele>242.75</ele><time>2026-04-04T08:49:52.233Z</time></trkpt><trkpt lat="44.20765" lon="11.5035967"><ele>242.5</ele><time>2026-04-04T08:49:53.233Z</time></trkpt><trkpt lat="44.2077983" lon="11.5036367"><ele>242.25</ele><time>2026-04-04T08:49:54.234Z</time></trkpt><trkpt lat="44.2079117" lon="11.503685"><ele>242.0</ele><time>2026-04-04T08:49:55.234Z</time></trkpt><trkpt lat="44.2080317" lon="11.5037417"><ele>241.0</ele><time>2026-04-04T08:49:56.233Z</time></trkpt><trkpt lat="44.208135" lon="11.5037717"><ele>240.0</ele><time>2026-04-04T08:49:57.234Z</time></trkpt><trkpt lat="44.20825" lon="11.5037383"><ele>239.0</ele><time>2026-04-04T08:49:58.233Z</time></trkpt><trkpt lat="44.208355" lon="11.5036417"><ele>238.0</ele><time>2026-04-04T08:49:59.233Z</time></trkpt><trkpt lat="44.2084533" lon="11.50352"><ele>238.0</ele><time>2026-04-04T08:50:00.234Z</time></trkpt><trkpt lat="44.2085567" lon="11.5034483"><ele>238.0</ele><time>2026-04-04T08:50:01.234Z</time></trkpt><trkpt lat="44.2086767" lon="11.5034333"><ele>238.0</ele><time>2026-04-04T08:50:02.233Z</time></trkpt><trkpt lat="44.2088083" lon="11.5034767"><ele>238.0</ele><time>2026-04-04T08:50:03.233Z</time></trkpt><trkpt lat="44.20895" lon="11.5035633"><ele>234.66666666666666</ele><time>2026-04-04T08:50:04.234Z</time></trkpt><trkpt lat="44.209105" lon="11.5036383"><ele>231.33333333333331</ele><time>2026-04-04T08:50:05.233Z</time></trkpt><trkpt lat="44.2092617" lon="11.5037083"><ele>228.0</ele><time>2026-04-04T08:50:06.234Z</time></trkpt><trkpt lat="44.2094233" lon="11.50378"><ele>228.0</ele><time>2026-04-04T08:50:07.234Z</time></trkpt><trkpt lat="44.209585" lon="11.503855"><ele>228.0</ele><time>2026-04-04T08:50:08.233Z</time></trkpt><trkpt lat="44.2097483" lon="11.5039267"><ele>228.0</ele><time>2026-04-04T08:50:09.233Z</time></trkpt><trkpt lat="44.2099017" lon="11.5039983"><ele>228.0</ele><time>2026-04-04T08:50:10.234Z</time></trkpt><trkpt lat="44.21005" lon="11.504065"><ele>228.0</ele><time>2026-04-04T08:50:11.234Z</time></trkpt><trkpt lat="44.2102033" lon="11.5041367"><ele>228.0</ele><time>2026-04-04T08:50:12.234Z</time></trkpt><trkpt lat="44.2103583" lon="11.5042033"><ele>228.0</ele><time>2026-04-04T08:50:13.234Z</time></trkpt><trkpt lat="44.2105217" lon="11.5042733"><ele>228.0</ele><time>2026-04-04T08:50:14.233Z</time></trkpt><trkpt lat="44.2106633" lon="11.5043467"><ele>228.0</ele><time>2026-04-04T08:50:15.234Z</time></trkpt><trkpt lat="44.2108033" lon="11.5044133"><ele>227.25</ele><time>2026-04-04T08:50:16.233Z</time></trkpt><trkpt lat="44.2109333" lon="11.5044767"><ele>226.5</ele><time>2026-04-04T08:50:17.234Z</time></trkpt><trkpt lat="44.211055" lon="11.5045183"><ele>225.75</ele><time>2026-04-04T08:50:18.233Z</time></trkpt><trkpt lat="44.2111717" lon="11.5045617"><ele>225.0</ele><time>2026-04-04T08:50:19.233Z</time></trkpt><trkpt lat="44.211285" lon="11.5046033"><ele>224.75</ele><time>2026-04-04T08:50:20.234Z</time></trkpt><trkpt lat="44.2114017" lon="11.504675"><ele>224.5</ele><time>2026-04-04T08:50:21.234Z</time></trkpt><trkpt lat="44.2115333" lon="11.5047417"><ele>224.25</ele><time>2026-04-04T08:50:22.234Z</time></trkpt><trkpt lat="44.21167" lon="11.5047933"><ele>224.0</ele><time>2026-04-04T08:50:23.233Z</time></trkpt><trkpt lat="44.21182" lon="11.5048333"><ele>222.66666666666669</ele><time>2026-04-04T08:50:24.234Z</time></trkpt><trkpt lat="44.2119717" lon="11.5048433"><ele>221.33333333333331</ele><time>2026-04-04T08:50:25.234Z</time></trkpt><trkpt lat="44.2121333" lon="11.5048333"><ele>220.0</ele><time>2026-04-04T08:50:26.233Z</time></trkpt><trkpt lat="44.212305" lon="11.5048017"><ele>218.33333333333331</ele><time>2026-04-04T08:50:27.233Z</time></trkpt><trkpt lat="44.21247" lon="11.5047517"><ele>216.66666666666669</ele><time>2026-04-04T08:50:28.233Z</time></trkpt><trkpt lat="44.21263" lon="11.5047333"><ele>215.0</ele><time>2026-04-04T08:50:29.233Z</time></trkpt><trkpt lat="44.21279" lon="11.5047317"><ele>215.0</ele><time>2026-04-04T08:50:30.234Z</time></trkpt><trkpt lat="44.21295" lon="11.504725"><ele>215.0</ele><time>2026-04-04T08:50:31.234Z</time></trkpt><trkpt lat="44.2131183" lon="11.5047383"><ele>215.0</ele><time>2026-04-04T08:50:32.234Z</time></trkpt><trkpt lat="44.21329" lon="11.5047433"><ele>214.33333333333334</ele><time>2026-04-04T08:50:33.234Z</time></trkpt><trkpt lat="44.2134483" lon="11.5047333"><ele>213.66666666666669</ele><time>2026-04-04T08:50:34.234Z</time></trkpt><trkpt lat="44.2135933" lon="11.504705"><ele>213.0</ele><time>2026-04-04T08:50:35.233Z</time></trkpt><trkpt lat="44.2137433" lon="11.5046517"><ele>214.0</ele><time>2026-04-04T08:50:36.233Z</time></trkpt><trkpt lat="44.2138967" lon="11.5045767"><ele>215.0</ele><time>2026-04-04T08:50:37.234Z</time></trkpt><trkpt lat="44.214055" lon="11.5045083"><ele>216.0</ele><time>2026-04-04T08:50:38.234Z</time></trkpt><trkpt lat="44.2142017" lon="11.5044433"><ele>216.0</ele><time>2026-04-04T08:50:39.234Z</time></trkpt><trkpt lat="44.21435" lon="11.5043833"><ele>216.0</ele><time>2026-04-04T08:50:40.234Z</time></trkpt><trkpt lat="44.214505" lon="11.5043283"><ele>216.0</ele><time>2026-04-04T08:50:41.234Z</time></trkpt><trkpt lat="44.2146583" lon="11.5043083"><ele>216.0</ele><time>2026-04-04T08:50:42.233Z</time></trkpt><trkpt lat="44.214805" lon="11.5043067"><ele>216.0</ele><time>2026-04-04T08:50:43.234Z</time></trkpt><trkpt lat="44.2149417" lon="11.5043167"><ele>216.0</ele><time>2026-04-04T08:50:44.234Z</time></trkpt><trkpt lat="44.2150667" lon="11.5043183"><ele>216.0</ele><time>2026-04-04T08:50:45.233Z</time></trkpt><trkpt lat="44.21518" lon="11.5043167"><ele>216.0</ele><time>2026-04-04T08:50:46.234Z</time></trkpt><trkpt lat="44.2152917" lon="11.5043167"><ele>216.00000000000003</ele><time>2026-04-04T08:50:47.233Z</time></trkpt><trkpt lat="44.2154033" lon="11.50432"><ele>216.00000000000003</ele><time>2026-04-04T08:50:48.233Z</time></trkpt><trkpt lat="44.2155133" lon="11.5043383"><ele>216.0</ele><time>2026-04-04T08:50:49.234Z</time></trkpt><trkpt lat="44.2156183" lon="11.504355"><ele>216.0</ele><time>2026-04-04T08:50:50.233Z</time></trkpt><trkpt lat="44.2157267" lon="11.5043833"><ele>215.0</ele><time>2026-04-04T08:50:51.233Z</time></trkpt><trkpt lat="44.215835" lon="11.5044083"><ele>214.0</ele><time>2026-04-04T08:50:52.234Z</time></trkpt><trkpt lat="44.2159533" lon="11.50445"><ele>213.0</ele><time>2026-04-04T08:50:53.234Z</time></trkpt><trkpt lat="44.21608" lon="11.5045133"><ele>212.0</ele><time>2026-04-04T08:50:54.234Z</time></trkpt><trkpt lat="44.2162117" lon="11.5045783"><ele>209.0</ele><time>2026-04-04T08:50:55.234Z</time></trkpt><trkpt lat="44.2163367" lon="11.5046567"><ele>206.0</ele><time>2026-04-04T08:50:56.234Z</time></trkpt><trkpt lat="44.216455" lon="11.5047117"><ele>203.0</ele><time>2026-04-04T08:50:57.234Z</time></trkpt><trkpt lat="44.2165667" lon="11.5047117"><ele>200.0</ele><time>2026-04-04T08:50:58.234Z</time></trkpt><trkpt lat="44.216655" lon="11.504655"><ele>200.75</ele><time>2026-04-04T08:50:59.234Z</time></trkpt><trkpt lat="44.2167083" lon="11.5045583"><ele>201.5</ele><time>2026-04-04T08:51:00.234Z</time></trkpt><trkpt lat="44.216725" lon="11.50442"><ele>202.25</ele><time>2026-04-04T08:51:01.233Z</time></trkpt><trkpt lat="44.2167" lon="11.50424"><ele>203.0</ele><time>2026-04-04T08:51:02.234Z</time></trkpt><trkpt lat="44.2166733" lon="11.5040467"><ele>203.0</ele><time>2026-04-04T08:51:03.234Z</time></trkpt><trkpt lat="44.2166533" lon="11.50385"><ele>203.0</ele><time>2026-04-04T08:51:04.233Z</time></trkpt><trkpt lat="44.216655" lon="11.50365"><ele>203.0</ele><time>2026-04-04T08:51:05.233Z</time></trkpt><trkpt lat="44.2166783" lon="11.503455"><ele>203.0</ele><time>2026-04-04T08:51:06.233Z</time></trkpt><trkpt lat="44.21672" lon="11.5032617"><ele>202.60000000000002</ele><time>2026-04-04T08:51:07.234Z</time></trkpt><trkpt lat="44.2167817" lon="11.5031217"><ele>202.20000000000002</ele><time>2026-04-04T08:51:08.233Z</time></trkpt><trkpt lat="44.2168583" lon="11.50303"><ele>201.8</ele><time>2026-04-04T08:51:09.233Z</time></trkpt><trkpt lat="44.2169567" lon="11.50301"><ele>201.4</ele><time>2026-04-04T08:51:10.234Z</time></trkpt><trkpt lat="44.2170617" lon="11.5030483"><ele>201.0</ele><time>2026-04-04T08:51:11.233Z</time></trkpt><trkpt lat="44.21718" lon="11.5031217"><ele>201.0</ele><time>2026-04-04T08:51:12.234Z</time></trkpt><trkpt lat="44.2172667" lon="11.5032217"><ele>201.0</ele><time>2026-04-04T08:51:13.234Z</time></trkpt><trkpt lat="44.2173183" lon="11.503355"><ele>201.0</ele><time>2026-04-04T08:51:14.234Z</time></trkpt><trkpt lat="44.2173483" lon="11.503515"><ele>201.0</ele><time>2026-04-04T08:51:15.234Z</time></trkpt><trkpt lat="44.2173683" lon="11.5036933"><ele>201.0</ele><time>2026-04-04T08:51:16.234Z</time></trkpt><trkpt lat="44.2173867" lon="11.5038933"><ele>201.0</ele><time>2026-04-04T08:51:17.234Z</time></trkpt><trkpt lat="44.2174183" lon="11.504095"><ele>201.0</ele><time>2026-04-04T08:51:18.234Z</time></trkpt><trkpt lat="44.217455" lon="11.5043017"><ele>201.0</ele><time>2026-04-04T08:51:19.233Z</time></trkpt><trkpt lat="44.2174833" lon="11.5044983"><ele>199.0</ele><time>2026-04-04T08:51:20.234Z</time></trkpt><trkpt lat="44.21751" lon="11.5046667"><ele>197.0</ele><time>2026-04-04T08:51:21.233Z</time></trkpt><trkpt lat="44.217545" lon="11.50482"><ele>195.0</ele><time>2026-04-04T08:51:22.234Z</time></trkpt><trkpt lat="44.2176133" lon="11.5049367"><ele>193.0</ele><time>2026-04-04T08:51:23.234Z</time></trkpt><trkpt lat="44.2177117" lon="11.5050267"><ele>193.0</ele><time>2026-04-04T08:51:24.233Z</time></trkpt><trkpt lat="44.2178433" lon="11.5050833"><ele>193.0</ele><time>2026-04-04T08:51:25.233Z</time></trkpt><trkpt lat="44.217995" lon="11.505115"><ele>193.0</ele><time>2026-04-04T08:51:26.233Z</time></trkpt><trkpt lat="44.2181467" lon="11.5051533"><ele>193.0</ele><time>2026-04-04T08:51:27.233Z</time></trkpt><trkpt lat="44.2182917" lon="11.5051883"><ele>193.25</ele><time>2026-04-04T08:51:28.234Z</time></trkpt><trkpt lat="44.2184233" lon="11.50523"><ele>193.5</ele><time>2026-04-04T08:51:29.234Z</time></trkpt><trkpt lat="44.2185467" lon="11.5052717"><ele>193.75</ele><time>2026-04-04T08:51:30.234Z</time></trkpt><trkpt lat="44.2186617" lon="11.5053033"><ele>194.0</ele><time>2026-04-04T08:51:31.234Z</time></trkpt><trkpt lat="44.2187883" lon="11.5053"><ele>194.0</ele><time>2026-04-04T08:51:32.234Z</time></trkpt><trkpt lat="44.2189267" lon="11.505265"><ele>194.0</ele><time>2026-04-04T08:51:33.234Z</time></trkpt><trkpt lat="44.219075" lon="11.5051983"><ele>194.0</ele><time>2026-04-04T08:51:34.234Z</time></trkpt><trkpt lat="44.219225" lon="11.50512"><ele>192.66666666666669</ele><time>2026-04-04T08:51:35.234Z</time></trkpt><trkpt lat="44.219385" lon="11.5050367"><ele>191.33333333333334</ele><time>2026-04-04T08:51:36.233Z</time></trkpt><trkpt lat="44.21955" lon="11.50495"><ele>190.0</ele><time>2026-04-04T08:51:37.234Z</time></trkpt><trkpt lat="44.21972" lon="11.5048667"><ele>188.0</ele><time>2026-04-04T08:51:38.233Z</time></trkpt><trkpt lat="44.2198917" lon="11.5047783"><ele>186.0</ele><time>2026-04-04T08:51:39.234Z</time></trkpt><trkpt lat="44.2200617" lon="11.5046767"><ele>184.0</ele><time>2026-04-04T08:51:40.234Z</time></trkpt><trkpt lat="44.2202367" lon="11.5045733"><ele>184.0</ele><time>2026-04-04T08:51:41.234Z</time></trkpt><trkpt lat="44.2204067" lon="11.5044767"><ele>184.0</ele><time>2026-04-04T08:51:42.234Z</time></trkpt><trkpt lat="44.220565" lon="11.5043783"><ele>184.0</ele><time>2026-04-04T08:51:43.234Z</time></trkpt><trkpt lat="44.22072" lon="11.5042833"><ele>182.33333333333334</ele><time>2026-04-04T08:51:44.233Z</time></trkpt><trkpt lat="44.220875" lon="11.504195"><ele>180.66666666666666</ele><time>2026-04-04T08:51:45.234Z</time></trkpt><trkpt lat="44.22103" lon="11.5041"><ele>179.0</ele><time>2026-04-04T08:51:46.233Z</time></trkpt><trkpt lat="44.221175" lon="11.5040033"><ele>179.0</ele><time>2026-04-04T08:51:47.233Z</time></trkpt><trkpt lat="44.221315" lon="11.503915"><ele>179.0</ele><time>2026-04-04T08:51:48.233Z</time></trkpt><trkpt lat="44.22145" lon="11.5038533"><ele>179.0</ele><time>2026-04-04T08:51:49.234Z</time></trkpt><trkpt lat="44.2215783" lon="11.50385"><ele>179.0</ele><time>2026-04-04T08:51:50.233Z</time></trkpt><trkpt lat="44.2217" lon="11.503915"><ele>176.66666666666666</ele><time>2026-04-04T08:51:51.233Z</time></trkpt><trkpt lat="44.221825" lon="11.5040067"><ele>174.33333333333334</ele><time>2026-04-04T08:51:52.233Z</time></trkpt><trkpt lat="44.22195" lon="11.5041283"><ele>172.0</ele><time>2026-04-04T08:51:53.234Z</time></trkpt><trkpt lat="44.2220767" lon="11.5042633"><ele>172.0</ele><time>2026-04-04T08:51:54.233Z</time></trkpt><trkpt lat="44.222195" lon="11.50437"><ele>172.0</ele><time>2026-04-04T08:51:55.234Z</time></trkpt><trkpt lat="44.2223083" lon="11.504455"><ele>172.0</ele><time>2026-04-04T08:51:56.233Z</time></trkpt><trkpt lat="44.2224083" lon="11.50452"><ele>172.0</ele><time>2026-04-04T08:51:57.233Z</time></trkpt><trkpt lat="44.2225183" lon="11.5045417"><ele>171.75</ele><time>2026-04-04T08:51:58.233Z</time></trkpt><trkpt lat="44.2226367" lon="11.504525"><ele>171.5</ele><time>2026-04-04T08:51:59.234Z</time></trkpt><trkpt lat="44.2227583" lon="11.5044883"><ele>171.25</ele><time>2026-04-04T08:52:00.233Z</time></trkpt><trkpt lat="44.2228783" lon="11.5044483"><ele>171.0</ele><time>2026-04-04T08:52:01.233Z</time></trkpt><trkpt lat="44.2229967" lon="11.504405"><ele>171.0</ele><time>2026-04-04T08:52:02.234Z</time></trkpt><trkpt lat="44.2231117" lon="11.5043733"><ele>171.0</ele><time>2026-04-04T08:52:03.234Z</time></trkpt><trkpt lat="44.2232217" lon="11.5043583"><ele>171.0</ele><time>2026-04-04T08:52:04.234Z</time></trkpt><trkpt lat="44.223335" lon="11.5043633"><ele>171.0</ele><time>2026-04-04T08:52:05.234Z</time></trkpt><trkpt lat="44.223445" lon="11.5043783"><ele>171.60000000000002</ele><time>2026-04-04T08:52:06.234Z</time></trkpt><trkpt lat="44.2235433" lon="11.5044"><ele>172.2</ele><time>2026-04-04T08:52:07.234Z</time></trkpt><trkpt lat="44.2236383" lon="11.5044233"><ele>172.8</ele><time>2026-04-04T08:52:08.234Z</time></trkpt><trkpt lat="44.2237233" lon="11.5044467"><ele>173.39999999999998</ele><time>2026-04-04T08:52:09.234Z</time></trkpt><trkpt lat="44.22382" lon="11.5044617"><ele>174.0</ele><time>2026-04-04T08:52:10.234Z</time></trkpt><trkpt lat="44.2241517" lon="11.5045683"><ele>178.75</ele><time>2026-04-04T08:52:13.233Z</time></trkpt><trkpt lat="44.2242617" lon="11.5046067"><ele>183.5</ele><time>2026-04-04T08:52:14.234Z</time></trkpt><trkpt lat="44.2243767" lon="11.50464"><ele>188.25</ele><time>2026-04-04T08:52:15.234Z</time></trkpt><trkpt lat="44.2245133" lon="11.5046717"><ele>193.0</ele><time>2026-04-04T08:52:16.234Z</time></trkpt><trkpt lat="44.2246517" lon="11.50471"><ele>193.0</ele><time>2026-04-04T08:52:17.234Z</time></trkpt><trkpt lat="44.22478" lon="11.5047433"><ele>193.0</ele><time>2026-04-04T08:52:18.233Z</time></trkpt><trkpt lat="44.2248933" lon="11.504775"><ele>193.0</ele><time>2026-04-04T08:52:19.234Z</time></trkpt><trkpt lat="44.2249967" lon="11.5048"><ele>193.0</ele><time>2026-04-04T08:52:20.234Z</time></trkpt><trkpt lat="44.2250933" lon="11.5048267"><ele>193.0</ele><time>2026-04-04T08:52:21.234Z</time></trkpt><trkpt lat="44.2251833" lon="11.5048567"><ele>191.4</ele><time>2026-04-04T08:52:22.234Z</time></trkpt><trkpt lat="44.2252717" lon="11.5048783"><ele>189.8</ele><time>2026-04-04T08:52:23.234Z</time></trkpt><trkpt lat="44.22534" lon="11.5049067"><ele>188.2</ele><time>2026-04-04T08:52:24.234Z</time></trkpt><trkpt lat="44.2254067" lon="11.5049817"><ele>186.6</ele><time>2026-04-04T08:52:26.234Z</time></trkpt><trkpt lat="44.2253367" lon="11.50504"><ele>185.0</ele><time>2026-04-04T08:52:28.233Z</time></trkpt><trkpt lat="44.2252133" lon="11.5050483"><ele>185.0</ele><time>2026-04-04T08:52:30.234Z</time></trkpt><trkpt lat="44.22513" lon="11.5050483"><ele>185.0</ele><time>2026-04-04T08:52:31.234Z</time></trkpt><trkpt lat="44.22504" lon="11.5050633"><ele>185.0</ele><time>2026-04-04T08:52:32.234Z</time></trkpt><trkpt lat="44.224945" lon="11.505095"><ele>185.0</ele><time>2026-04-04T08:52:33.233Z</time></trkpt><trkpt lat="44.2248333" lon="11.5051383"><ele>185.0</ele><time>2026-04-04T08:52:34.234Z</time></trkpt><trkpt lat="44.2247217" lon="11.50519"><ele>187.0</ele><time>2026-04-04T08:52:35.233Z</time></trkpt><trkpt lat="44.2246067" lon="11.505245"><ele>189.0</ele><time>2026-04-04T08:52:36.234Z</time></trkpt><trkpt lat="44.2244917" lon="11.5052933"><ele>191.0</ele><time>2026-04-04T08:52:37.233Z</time></trkpt><trkpt lat="44.2243783" lon="11.5053233"><ele>193.0</ele><time>2026-04-04T08:52:38.234Z</time></trkpt><trkpt lat="44.224245" lon="11.5053083"><ele>193.0</ele><time>2026-04-04T08:52:39.233Z</time></trkpt><trkpt lat="44.2241233" lon="11.5052983"><ele>193.0</ele><time>2026-04-04T08:52:40.233Z</time></trkpt><trkpt lat="44.2240217" lon="11.5053167"><ele>193.0</ele><time>2026-04-04T08:52:41.233Z</time></trkpt><trkpt lat="44.2239533" lon="11.5053933"><ele>193.0</ele><time>2026-04-04T08:52:42.234Z</time></trkpt><trkpt lat="44.2239067" lon="11.5055283"><ele>193.0</ele><time>2026-04-04T08:52:43.233Z</time></trkpt><trkpt lat="44.2238783" lon="11.505685"><ele>196.0</ele><time>2026-04-04T08:52:44.234Z</time></trkpt><trkpt lat="44.2238417" lon="11.5058467"><ele>199.0</ele><time>2026-04-04T08:52:45.234Z</time></trkpt><trkpt lat="44.223815" lon="11.5060183"><ele>202.0</ele><time>2026-04-04T08:52:46.234Z</time></trkpt><trkpt lat="44.223775" lon="11.50619"><ele>205.0</ele><time>2026-04-04T08:52:47.234Z</time></trkpt><trkpt lat="44.2237417" lon="11.5063683"><ele>205.0</ele><time>2026-04-04T08:52:48.234Z</time></trkpt><trkpt lat="44.2237233" lon="11.50656"><ele>205.0</ele><time>2026-04-04T08:52:49.234Z</time></trkpt><trkpt lat="44.2237117" lon="11.50677"><ele>205.0</ele><time>2026-04-04T08:52:50.233Z</time></trkpt><trkpt lat="44.2236917" lon="11.5069717"><ele>205.0</ele><time>2026-04-04T08:52:51.234Z</time></trkpt><trkpt lat="44.2236817" lon="11.5071767"><ele>205.0</ele><time>2026-04-04T08:52:52.234Z</time></trkpt><trkpt lat="44.223665" lon="11.5073883"><ele>205.0</ele><time>2026-04-04T08:52:53.234Z</time></trkpt><trkpt lat="44.22365" lon="11.5076033"><ele>205.0</ele><time>2026-04-04T08:52:54.234Z</time></trkpt><trkpt lat="44.2236317" lon="11.5078183"><ele>205.0</ele><time>2026-04-04T08:52:55.234Z</time></trkpt><trkpt lat="44.2236167" lon="11.5080417"><ele>205.0</ele><time>2026-04-04T08:52:56.234Z</time></trkpt><trkpt lat="44.2235983" lon="11.5082683"><ele>205.0</ele><time>2026-04-04T08:52:57.233Z</time></trkpt><trkpt lat="44.22359" lon="11.50848"><ele>205.0</ele><time>2026-04-04T08:52:58.234Z</time></trkpt><trkpt lat="44.223575" lon="11.5086583"><ele>205.0</ele><time>2026-04-04T08:52:59.234Z</time></trkpt><trkpt lat="44.2235633" lon="11.50881"><ele>205.0</ele><time>2026-04-04T08:53:00.234Z</time></trkpt><trkpt lat="44.2235567" lon="11.50893"><ele>205.0</ele><time>2026-04-04T08:53:01.234Z</time></trkpt><trkpt lat="44.2235517" lon="11.5090383"><ele>205.0</ele><time>2026-04-04T08:53:02.234Z</time></trkpt><trkpt lat="44.2235533" lon="11.5091667"><ele>206.0</ele><time>2026-04-04T08:53:03.234Z</time></trkpt><trkpt lat="44.2235733" lon="11.5093017"><ele>207.0</ele><time>2026-04-04T08:53:04.234Z</time></trkpt><trkpt lat="44.223605" lon="11.5094467"><ele>208.0</ele><time>2026-04-04T08:53:05.234Z</time></trkpt><trkpt lat="44.2236367" lon="11.5095933"><ele>209.0</ele><time>2026-04-04T08:53:06.234Z</time></trkpt><trkpt lat="44.2236617" lon="11.5097417"><ele>210.0</ele><time>2026-04-04T08:53:07.234Z</time></trkpt><trkpt lat="44.2236917" lon="11.5098833"><ele>211.66666666666666</ele><time>2026-04-04T08:53:08.234Z</time></trkpt><trkpt lat="44.2237433" lon="11.5099967"><ele>213.33333333333331</ele><time>2026-04-04T08:53:09.234Z</time></trkpt><trkpt lat="44.22382" lon="11.5100683"><ele>215.0</ele><time>2026-04-04T08:53:10.233Z</time></trkpt><trkpt lat="44.2238817" lon="11.5101567"><ele>216.66666666666666</ele><time>2026-04-04T08:53:11.233Z</time></trkpt><trkpt lat="44.2239283" lon="11.5102517"><ele>218.33333333333331</ele><time>2026-04-04T08:53:12.233Z</time></trkpt><trkpt lat="44.2239483" lon="11.510365"><ele>220.0</ele><time>2026-04-04T08:53:13.234Z</time></trkpt><trkpt lat="44.2239483" lon="11.5104733"><ele>222.16666666666666</ele><time>2026-04-04T08:53:14.233Z</time></trkpt><trkpt lat="44.22389" lon="11.5106017"><ele>224.33333333333331</ele><time>2026-04-04T08:53:16.234Z</time></trkpt><trkpt lat="44.223795" lon="11.510565"><ele>226.5</ele><time>2026-04-04T08:53:18.234Z</time></trkpt><trkpt lat="44.2237467" lon="11.5104967"><ele>228.66666666666669</ele><time>2026-04-04T08:53:19.233Z</time></trkpt><trkpt lat="44.2237067" lon="11.510425"><ele>230.83333333333334</ele><time>2026-04-04T08:53:20.233Z</time></trkpt><trkpt lat="44.2236" lon="11.51041"><ele>233.0</ele><time>2026-04-04T08:53:22.234Z</time></trkpt><trkpt lat="44.2235328" lon="11.5105925"><ele>233.0</ele><time>2026-04-04T08:53:24.234Z</time></trkpt><trkpt lat="44.2235141" lon="11.5107225"><ele>233.0</ele><time>2026-04-04T08:53:25.233Z</time></trkpt><trkpt lat="44.2234921" lon="11.5108517"><ele>233.0</ele><time>2026-04-04T08:53:26.234Z</time></trkpt><trkpt lat="44.2234608" lon="11.5109813"><ele>233.0</ele><time>2026-04-04T08:53:27.234Z</time></trkpt><trkpt lat="44.2234246" lon="11.5111085"><ele>233.0</ele><time>2026-04-04T08:53:28.234Z</time></trkpt><trkpt lat="44.2233935" lon="11.5112382"><ele>235.2</ele><time>2026-04-04T08:53:29.233Z</time></trkpt><trkpt lat="44.2233608" lon="11.511368"><ele>237.4</ele><time>2026-04-04T08:53:30.233Z</time></trkpt><trkpt lat="44.2233214" lon="11.5114954"><ele>239.59999999999997</ele><time>2026-04-04T08:53:31.233Z</time></trkpt><trkpt lat="44.2232653" lon="11.5116073"><ele>241.79999999999998</ele><time>2026-04-04T08:53:32.234Z</time></trkpt><trkpt lat="44.2231981" lon="11.5116906"><ele>244.0</ele><time>2026-04-04T08:53:33.233Z</time></trkpt><trkpt lat="44.2231262" lon="11.5117423"><ele>247.5</ele><time>2026-04-04T08:53:34.234Z</time></trkpt><trkpt lat="44.2230378" lon="11.5117488"><ele>251.0</ele><time>2026-04-04T08:53:35.233Z</time></trkpt><trkpt lat="44.2229324" lon="11.5117231"><ele>254.5</ele><time>2026-04-04T08:53:36.234Z</time></trkpt><trkpt lat="44.2228126" lon="11.5116863"><ele>258.0</ele><time>2026-04-04T08:53:37.234Z</time></trkpt><trkpt lat="44.2226816" lon="11.5116504"><ele>258.0</ele><time>2026-04-04T08:53:38.234Z</time></trkpt><trkpt lat="44.2225425" lon="11.5116075"><ele>258.0</ele><time>2026-04-04T08:53:39.234Z</time></trkpt><trkpt lat="44.2224036" lon="11.511558"><ele>258.0</ele><time>2026-04-04T08:53:40.234Z</time></trkpt><trkpt lat="44.2222678" lon="11.511492"><ele>258.0</ele><time>2026-04-04T08:53:41.233Z</time></trkpt><trkpt lat="44.2221421" lon="11.5114465"><ele>258.2</ele><time>2026-04-04T08:53:42.234Z</time></trkpt><trkpt lat="44.2220298" lon="11.5114391"><ele>258.4</ele><time>2026-04-04T08:53:43.234Z</time></trkpt><trkpt lat="44.2219355" lon="11.5114841"><ele>258.59999999999997</ele><time>2026-04-04T08:53:44.234Z</time></trkpt><trkpt lat="44.2218557" lon="11.5115858"><ele>258.8</ele><time>2026-04-04T08:53:45.234Z</time></trkpt><trkpt lat="44.2217892" lon="11.5117213"><ele>259.0</ele><time>2026-04-04T08:53:46.233Z</time></trkpt><trkpt lat="44.2217244" lon="11.5118567"><ele>259.0</ele><time>2026-04-04T08:53:47.234Z</time></trkpt><trkpt lat="44.2216401" lon="11.5119576"><ele>259.0</ele><time>2026-04-04T08:53:48.234Z</time></trkpt><trkpt lat="44.2215457" lon="11.512009"><ele>259.0</ele><time>2026-04-04T08:53:49.234Z</time></trkpt><trkpt lat="44.2214606" lon="11.5120117"><ele>259.0</ele><time>2026-04-04T08:53:50.233Z</time></trkpt><trkpt lat="44.2213881" lon="11.5120221"><ele>259.0</ele><time>2026-04-04T08:53:51.234Z</time></trkpt><trkpt lat="44.2213328" lon="11.5120728"><ele>259.0</ele><time>2026-04-04T08:53:52.234Z</time></trkpt><trkpt lat="44.2212955" lon="11.5121596"><ele>261.4</ele><time>2026-04-04T08:53:53.234Z</time></trkpt><trkpt lat="44.2212919" lon="11.512264"><ele>263.79999999999995</ele><time>2026-04-04T08:53:54.234Z</time></trkpt><trkpt lat="44.2213234" lon="11.5123876"><ele>266.20000000000005</ele><time>2026-04-04T08:53:55.234Z</time></trkpt><trkpt lat="44.2213877" lon="11.512522"><ele>268.6</ele><time>2026-04-04T08:53:56.234Z</time></trkpt><trkpt lat="44.2214732" lon="11.5126598"><ele>271.0</ele><time>2026-04-04T08:53:57.233Z</time></trkpt><trkpt lat="44.2215711" lon="11.5127989"><ele>274.75</ele><time>2026-04-04T08:53:58.234Z</time></trkpt><trkpt lat="44.2216749" lon="11.5129334"><ele>278.5</ele><time>2026-04-04T08:53:59.234Z</time></trkpt><trkpt lat="44.2217807" lon="11.5130726"><ele>282.25</ele><time>2026-04-04T08:54:00.234Z</time></trkpt><trkpt lat="44.2218878" lon="11.5131987"><ele>286.0</ele><time>2026-04-04T08:54:01.234Z</time></trkpt><trkpt lat="44.2219986" lon="11.5132964"><ele>286.0</ele><time>2026-04-04T08:54:02.234Z</time></trkpt><trkpt lat="44.2221151" lon="11.5133606"><ele>286.0</ele><time>2026-04-04T08:54:03.234Z</time></trkpt><trkpt lat="44.2222497" lon="11.5133925"><ele>286.0</ele><time>2026-04-04T08:54:04.233Z</time></trkpt><trkpt lat="44.2223976" lon="11.5134139"><ele>286.0</ele><time>2026-04-04T08:54:05.234Z</time></trkpt><trkpt lat="44.2225428" lon="11.5134339"><ele>284.3333333333333</ele><time>2026-04-04T08:54:06.234Z</time></trkpt><trkpt lat="44.222691" lon="11.5134455"><ele>282.6666666666667</ele><time>2026-04-04T08:54:07.233Z</time></trkpt><trkpt lat="44.2228367" lon="11.513452"><ele>281.0</ele><time>2026-04-04T08:54:08.233Z</time></trkpt><trkpt lat="44.2229925" lon="11.5134526"><ele>281.0</ele><time>2026-04-04T08:54:09.234Z</time></trkpt><trkpt lat="44.22314" lon="11.5134374"><ele>281.0</ele><time>2026-04-04T08:54:10.234Z</time></trkpt><trkpt lat="44.2232632" lon="11.5134215"><ele>281.0</ele><time>2026-04-04T08:54:11.233Z</time></trkpt><trkpt lat="44.2233642" lon="11.5134188"><ele>281.0</ele><time>2026-04-04T08:54:12.234Z</time></trkpt><trkpt lat="44.2234527" lon="11.513455"><ele>282.0</ele><time>2026-04-04T08:54:13.233Z</time></trkpt><trkpt lat="44.2235207" lon="11.5135307"><ele>283.0</ele><time>2026-04-04T08:54:14.233Z</time></trkpt><trkpt lat="44.2235629" lon="11.5136391"><ele>284.0</ele><time>2026-04-04T08:54:15.234Z</time></trkpt><trkpt lat="44.2235912" lon="11.5137793"><ele>285.0</ele><time>2026-04-04T08:54:16.234Z</time></trkpt><trkpt lat="44.2236279" lon="11.5139366"><ele>286.0</ele><time>2026-04-04T08:54:17.234Z</time></trkpt><trkpt lat="44.223685" lon="11.5141054"><ele>291.25</ele><time>2026-04-04T08:54:18.234Z</time></trkpt><trkpt lat="44.2237372" lon="11.5142872"><ele>296.5</ele><time>2026-04-04T08:54:19.233Z</time></trkpt><trkpt lat="44.2237834" lon="11.5144836"><ele>301.75</ele><time>2026-04-04T08:54:20.233Z</time></trkpt><trkpt lat="44.2238152" lon="11.5147022"><ele>307.0</ele><time>2026-04-04T08:54:21.233Z</time></trkpt><trkpt lat="44.2238264" lon="11.5149189"><ele>310.5</ele><time>2026-04-04T08:54:22.233Z</time></trkpt><trkpt lat="44.2238288" lon="11.5151233"><ele>314.0</ele><time>2026-04-04T08:54:23.234Z</time></trkpt><trkpt lat="44.2238234" lon="11.5153292"><ele>317.5</ele><time>2026-04-04T08:54:24.233Z</time></trkpt><trkpt lat="44.2238042" lon="11.5155422"><ele>321.0</ele><time>2026-04-04T08:54:25.233Z</time></trkpt><trkpt lat="44.2237857" lon="11.5157634"><ele>322.6666666666667</ele><time>2026-04-04T08:54:26.233Z</time></trkpt><trkpt lat="44.2237785" lon="11.5159871"><ele>324.33333333333337</ele><time>2026-04-04T08:54:27.234Z</time></trkpt><trkpt lat="44.2237929" lon="11.5162144"><ele>326.0</ele><time>2026-04-04T08:54:28.234Z</time></trkpt><trkpt lat="44.2238252" lon="11.5164295"><ele>326.8</ele><time>2026-04-04T08:54:29.233Z</time></trkpt><trkpt lat="44.2238449" lon="11.5166061"><ele>327.6</ele><time>2026-04-04T08:54:30.234Z</time></trkpt><trkpt lat="44.2238371" lon="11.5167255"><ele>328.4</ele><time>2026-04-04T08:54:31.234Z</time></trkpt><trkpt lat="44.2237916" lon="11.516802"><ele>329.2</ele><time>2026-04-04T08:54:32.233Z</time></trkpt><trkpt lat="44.2237173" lon="11.5168179"><ele>330.0</ele><time>2026-04-04T08:54:33.234Z</time></trkpt><trkpt lat="44.2236337" lon="11.5167623"><ele>330.0</ele><time>2026-04-04T08:54:34.233Z</time></trkpt><trkpt lat="44.2235522" lon="11.5166717"><ele>330.0</ele><time>2026-04-04T08:54:35.234Z</time></trkpt><trkpt lat="44.2234829" lon="11.5165476"><ele>330.0</ele><time>2026-04-04T08:54:36.234Z</time></trkpt><trkpt lat="44.223418" lon="11.5164034"><ele>330.0</ele><time>2026-04-04T08:54:37.234Z</time></trkpt><trkpt lat="44.2233469" lon="11.5162548"><ele>329.0</ele><time>2026-04-04T08:54:38.234Z</time></trkpt><trkpt lat="44.2232671" lon="11.5160945"><ele>328.0</ele><time>2026-04-04T08:54:39.233Z</time></trkpt><trkpt lat="44.2231954" lon="11.5159185"><ele>327.0</ele><time>2026-04-04T08:54:40.234Z</time></trkpt><trkpt lat="44.2231283" lon="11.5157364"><ele>326.0</ele><time>2026-04-04T08:54:41.233Z</time></trkpt><trkpt lat="44.2230605" lon="11.5155661"><ele>328.5</ele><time>2026-04-04T08:54:42.233Z</time></trkpt><trkpt lat="44.2229856" lon="11.5154166"><ele>331.0</ele><time>2026-04-04T08:54:43.234Z</time></trkpt><trkpt lat="44.222889" lon="11.5152929"><ele>333.5</ele><time>2026-04-04T08:54:44.234Z</time></trkpt><trkpt lat="44.2227757" lon="11.5151982"><ele>336.0</ele><time>2026-04-04T08:54:45.234Z</time></trkpt><trkpt lat="44.222653" lon="11.5151504"><ele>336.0</ele><time>2026-04-04T08:54:46.234Z</time></trkpt><trkpt lat="44.222538" lon="11.515154"><ele>336.0</ele><time>2026-04-04T08:54:47.234Z</time></trkpt><trkpt lat="44.2224555" lon="11.5152135"><ele>336.0</ele><time>2026-04-04T08:54:48.234Z</time></trkpt><trkpt lat="44.2224014" lon="11.5153136"><ele>336.0</ele><time>2026-04-04T08:54:49.234Z</time></trkpt><trkpt lat="44.22239" lon="11.5154316"><ele>336.0</ele><time>2026-04-04T08:54:50.234Z</time></trkpt><trkpt lat="44.2224141" lon="11.5155769"><ele>338.5</ele><time>2026-04-04T08:54:51.233Z</time></trkpt><trkpt lat="44.2224484" lon="11.5157367"><ele>341.0</ele><time>2026-04-04T08:54:52.234Z</time></trkpt><trkpt lat="44.2224791" lon="11.5159057"><ele>343.5</ele><time>2026-04-04T08:54:53.233Z</time></trkpt><trkpt lat="44.2225085" lon="11.5160844"><ele>346.0</ele><time>2026-04-04T08:54:54.234Z</time></trkpt><trkpt lat="44.2225405" lon="11.51627"><ele>347.5</ele><time>2026-04-04T08:54:55.234Z</time></trkpt><trkpt lat="44.2225605" lon="11.5164353"><ele>349.0</ele><time>2026-04-04T08:54:56.234Z</time></trkpt><trkpt lat="44.2225472" lon="11.5165617"><ele>350.5</ele><time>2026-04-04T08:54:57.234Z</time></trkpt><trkpt lat="44.222508" lon="11.5166475"><ele>352.0</ele><time>2026-04-04T08:54:58.234Z</time></trkpt><trkpt lat="44.2224519" lon="11.5166894"><ele>353.5</ele><time>2026-04-04T08:54:59.233Z</time></trkpt><trkpt lat="44.222383" lon="11.5166773"><ele>355.0</ele><time>2026-04-04T08:55:00.234Z</time></trkpt><trkpt lat="44.2223053" lon="11.5165941"><ele>354.5</ele><time>2026-04-04T08:55:01.234Z</time></trkpt><trkpt lat="44.2222282" lon="11.5164636"><ele>354.0</ele><time>2026-04-04T08:55:02.234Z</time></trkpt><trkpt lat="44.2221604" lon="11.5163177"><ele>353.5</ele><time>2026-04-04T08:55:03.234Z</time></trkpt><trkpt lat="44.222082" lon="11.5161809"><ele>353.0</ele><time>2026-04-04T08:55:04.234Z</time></trkpt><trkpt lat="44.2219833" lon="11.5160767"><ele>353.0</ele><time>2026-04-04T08:55:05.234Z</time></trkpt><trkpt lat="44.2218711" lon="11.5160335"><ele>353.0</ele><time>2026-04-04T08:55:06.234Z</time></trkpt><trkpt lat="44.2217707" lon="11.5160448"><ele>353.0</ele><time>2026-04-04T08:55:07.234Z</time></trkpt><trkpt lat="44.2216918" lon="11.516105"><ele>353.0</ele><time>2026-04-04T08:55:08.234Z</time></trkpt><trkpt lat="44.2216634" lon="11.5161972"><ele>353.0</ele><time>2026-04-04T08:55:09.234Z</time></trkpt><trkpt lat="44.221675" lon="11.5163045"><ele>356.79999999999995</ele><time>2026-04-04T08:55:10.234Z</time></trkpt><trkpt lat="44.2217131" lon="11.5164149"><ele>360.6</ele><time>2026-04-04T08:55:11.234Z</time></trkpt><trkpt lat="44.2217667" lon="11.5165368"><ele>364.4</ele><time>2026-04-04T08:55:12.234Z</time></trkpt><trkpt lat="44.2218096" lon="11.5166787"><ele>368.20000000000005</ele><time>2026-04-04T08:55:13.234Z</time></trkpt><trkpt lat="44.2218316" lon="11.5168402"><ele>372.0</ele><time>2026-04-04T08:55:14.234Z</time></trkpt><trkpt lat="44.221832" lon="11.5170196"><ele>374.25</ele><time>2026-04-04T08:55:15.234Z</time></trkpt><trkpt lat="44.2218124" lon="11.5172066"><ele>376.5</ele><time>2026-04-04T08:55:16.234Z</time></trkpt><trkpt lat="44.2217773" lon="11.5173873"><ele>378.75</ele><time>2026-04-04T08:55:17.234Z</time></trkpt><trkpt lat="44.2217246" lon="11.5175628"><ele>381.0</ele><time>2026-04-04T08:55:18.234Z</time></trkpt><trkpt lat="44.2216462" lon="11.5177276"><ele>381.0</ele><time>2026-04-04T08:55:19.234Z</time></trkpt><trkpt lat="44.2215486" lon="11.5178844"><ele>381.0</ele><time>2026-04-04T08:55:20.234Z</time></trkpt><trkpt lat="44.2214402" lon="11.5180316"><ele>381.0</ele><time>2026-04-04T08:55:21.233Z</time></trkpt><trkpt lat="44.2213235" lon="11.5181623"><ele>385.20000000000005</ele><time>2026-04-04T08:55:22.234Z</time></trkpt><trkpt lat="44.2212168" lon="11.5182748"><ele>389.40000000000003</ele><time>2026-04-04T08:55:23.234Z</time></trkpt><trkpt lat="44.2211145" lon="11.518361"><ele>393.6</ele><time>2026-04-04T08:55:24.234Z</time></trkpt><trkpt lat="44.2210306" lon="11.5183866"><ele>397.8</ele><time>2026-04-04T08:55:25.233Z</time></trkpt><trkpt lat="44.220963" lon="11.5183521"><ele>402.0</ele><time>2026-04-04T08:55:26.233Z</time></trkpt><trkpt lat="44.2209005" lon="11.5182762"><ele>402.0</ele><time>2026-04-04T08:55:27.234Z</time></trkpt><trkpt lat="44.2208504" lon="11.5181755"><ele>402.0</ele><time>2026-04-04T08:55:28.234Z</time></trkpt><trkpt lat="44.2208107" lon="11.51805"><ele>402.0</ele><time>2026-04-04T08:55:29.234Z</time></trkpt><trkpt lat="44.2207799" lon="11.5179065"><ele>402.0</ele><time>2026-04-04T08:55:30.233Z</time></trkpt><trkpt lat="44.2207364" lon="11.5177628"><ele>402.0</ele><time>2026-04-04T08:55:31.234Z</time></trkpt><trkpt lat="44.2206887" lon="11.5176347"><ele>404.0</ele><time>2026-04-04T08:55:32.233Z</time></trkpt><trkpt lat="44.2206285" lon="11.5175139"><ele>406.0</ele><time>2026-04-04T08:55:33.234Z</time></trkpt><trkpt lat="44.2205628" lon="11.517427"><ele>408.0</ele><time>2026-04-04T08:55:34.234Z</time></trkpt><trkpt lat="44.220482" lon="11.5173663"><ele>410.0</ele><time>2026-04-04T08:55:35.233Z</time></trkpt><trkpt lat="44.2203955" lon="11.5173035"><ele>412.0</ele><time>2026-04-04T08:55:36.233Z</time></trkpt><trkpt lat="44.2203052" lon="11.5172401"><ele>412.0</ele><time>2026-04-04T08:55:37.233Z</time></trkpt><trkpt lat="44.2202169" lon="11.5172093"><ele>412.0</ele><time>2026-04-04T08:55:38.233Z</time></trkpt><trkpt lat="44.2201335" lon="11.5172101"><ele>412.0</ele><time>2026-04-04T08:55:39.233Z</time></trkpt><trkpt lat="44.2200697" lon="11.5172748"><ele>412.0</ele><time>2026-04-04T08:55:40.234Z</time></trkpt><trkpt lat="44.2200127" lon="11.5173864"><ele>412.0</ele><time>2026-04-04T08:55:41.234Z</time></trkpt><trkpt lat="44.2199693" lon="11.5175195"><ele>412.0</ele><time>2026-04-04T08:55:42.234Z</time></trkpt><trkpt lat="44.2199268" lon="11.5176641"><ele>412.0</ele><time>2026-04-04T08:55:43.234Z</time></trkpt><trkpt lat="44.2198788" lon="11.5178099"><ele>412.0</ele><time>2026-04-04T08:55:44.234Z</time></trkpt><trkpt lat="44.2198201" lon="11.517951"><ele>412.0</ele><time>2026-04-04T08:55:45.234Z</time></trkpt><trkpt lat="44.2197566" lon="11.5180814"><ele>413.20000000000005</ele><time>2026-04-04T08:55:46.234Z</time></trkpt><trkpt lat="44.2196963" lon="11.5182098"><ele>414.4</ele><time>2026-04-04T08:55:47.234Z</time></trkpt><trkpt lat="44.2196672" lon="11.518328"><ele>415.6</ele><time>2026-04-04T08:55:48.233Z</time></trkpt><trkpt lat="44.2196788" lon="11.5184379"><ele>416.79999999999995</ele><time>2026-04-04T08:55:49.234Z</time></trkpt><trkpt lat="44.2197181" lon="11.518553"><ele>418.0</ele><time>2026-04-04T08:55:50.233Z</time></trkpt><trkpt lat="44.2197658" lon="11.5186817"><ele>419.79999999999995</ele><time>2026-04-04T08:55:51.234Z</time></trkpt><trkpt lat="44.2198025" lon="11.5188274"><ele>421.6</ele><time>2026-04-04T08:55:52.234Z</time></trkpt><trkpt lat="44.219817" lon="11.5189817"><ele>423.40000000000003</ele><time>2026-04-04T08:55:53.233Z</time></trkpt><trkpt lat="44.2198168" lon="11.5191343"><ele>425.20000000000005</ele><time>2026-04-04T08:55:54.233Z</time></trkpt><trkpt lat="44.2198013" lon="11.5192793"><ele>427.0</ele><time>2026-04-04T08:55:55.234Z</time></trkpt><trkpt lat="44.2197661" lon="11.5194098"><ele>428.8</ele><time>2026-04-04T08:55:56.234Z</time></trkpt><trkpt lat="44.219716" lon="11.5195174"><ele>430.6</ele><time>2026-04-04T08:55:57.235Z</time></trkpt><trkpt lat="44.2196356" lon="11.5196041"><ele>432.40000000000003</ele><time>2026-04-04T08:55:58.235Z</time></trkpt><trkpt lat="44.2195348" lon="11.5196697"><ele>434.20000000000005</ele><time>2026-04-04T08:55:59.234Z</time></trkpt><trkpt lat="44.2194254" lon="11.5197255"><ele>436.0</ele><time>2026-04-04T08:56:00.234Z</time></trkpt><trkpt lat="44.2193087" lon="11.5197727"><ele>438.20000000000005</ele><time>2026-04-04T08:56:01.235Z</time></trkpt><trkpt lat="44.2192237" lon="11.5198345"><ele>440.40000000000003</ele><time>2026-04-04T08:56:02.235Z</time></trkpt><trkpt lat="44.219161" lon="11.5199292"><ele>442.6</ele><time>2026-04-04T08:56:03.235Z</time></trkpt><trkpt lat="44.2191384" lon="11.5200627"><ele>444.8</ele><time>2026-04-04T08:56:04.234Z</time></trkpt><trkpt lat="44.2191536" lon="11.520213"><ele>447.0</ele><time>2026-04-04T08:56:05.235Z</time></trkpt><trkpt lat="44.2191743" lon="11.5203706"><ele>447.6</ele><time>2026-04-04T08:56:06.235Z</time></trkpt><trkpt lat="44.2191891" lon="11.5205281"><ele>448.20000000000005</ele><time>2026-04-04T08:56:07.235Z</time></trkpt><trkpt lat="44.2191863" lon="11.5206833"><ele>448.8</ele><time>2026-04-04T08:56:08.235Z</time></trkpt><trkpt lat="44.2191674" lon="11.5208345"><ele>449.4</ele><time>2026-04-04T08:56:09.235Z</time></trkpt><trkpt lat="44.2191293" lon="11.5209773"><ele>450.0</ele><time>2026-04-04T08:56:10.235Z</time></trkpt><trkpt lat="44.2190661" lon="11.5211178"><ele>451.25</ele><time>2026-04-04T08:56:11.235Z</time></trkpt><trkpt lat="44.2189816" lon="11.5212512"><ele>452.5</ele><time>2026-04-04T08:56:12.235Z</time></trkpt><trkpt lat="44.2188918" lon="11.5213802"><ele>453.75</ele><time>2026-04-04T08:56:13.235Z</time></trkpt><trkpt lat="44.2187963" lon="11.5214771"><ele>455.0</ele><time>2026-04-04T08:56:14.234Z</time></trkpt><trkpt lat="44.2186906" lon="11.5215262"><ele>455.0</ele><time>2026-04-04T08:56:15.235Z</time></trkpt><trkpt lat="44.2185695" lon="11.5215299"><ele>455.0</ele><time>2026-04-04T08:56:16.234Z</time></trkpt><trkpt lat="44.2184416" lon="11.5215132"><ele>455.0</ele><time>2026-04-04T08:56:17.235Z</time></trkpt><trkpt lat="44.218312" lon="11.5215208"><ele>455.0</ele><time>2026-04-04T08:56:18.234Z</time></trkpt><trkpt lat="44.2181794" lon="11.5215704"><ele>456.66666666666663</ele><time>2026-04-04T08:56:19.234Z</time></trkpt><trkpt lat="44.2180344" lon="11.5216476"><ele>458.33333333333337</ele><time>2026-04-04T08:56:20.235Z</time></trkpt><trkpt lat="44.2178735" lon="11.5217397"><ele>460.0</ele><time>2026-04-04T08:56:21.234Z</time></trkpt><trkpt lat="44.217712" lon="11.521849"><ele>460.0</ele><time>2026-04-04T08:56:22.234Z</time></trkpt><trkpt lat="44.217561" lon="11.5219649"><ele>460.0</ele><time>2026-04-04T08:56:23.235Z</time></trkpt><trkpt lat="44.2174301" lon="11.5220735"><ele>460.0</ele><time>2026-04-04T08:56:24.234Z</time></trkpt><trkpt lat="44.2173055" lon="11.5221528"><ele>464.5</ele><time>2026-04-04T08:56:25.235Z</time></trkpt><trkpt lat="44.2171999" lon="11.5222337"><ele>469.0</ele><time>2026-04-04T08:56:26.235Z</time></trkpt><trkpt lat="44.2171075" lon="11.5223419"><ele>473.5</ele><time>2026-04-04T08:56:27.235Z</time></trkpt><trkpt lat="44.2170279" lon="11.5224704"><ele>478.0</ele><time>2026-04-04T08:56:28.235Z</time></trkpt><trkpt lat="44.2169624" lon="11.5226094"><ele>478.0</ele><time>2026-04-04T08:56:29.235Z</time></trkpt><trkpt lat="44.2169243" lon="11.5227601"><ele>478.0</ele><time>2026-04-04T08:56:30.235Z</time></trkpt><trkpt lat="44.2169141" lon="11.5229379"><ele>478.0</ele><time>2026-04-04T08:56:31.235Z</time></trkpt><trkpt lat="44.2169108" lon="11.5231253"><ele>478.0</ele><time>2026-04-04T08:56:32.235Z</time></trkpt><trkpt lat="44.2168925" lon="11.5233119"><ele>478.0</ele><time>2026-04-04T08:56:33.234Z</time></trkpt><trkpt lat="44.2168469" lon="11.5235121"><ele>478.0</ele><time>2026-04-04T08:56:34.235Z</time></trkpt><trkpt lat="44.216798" lon="11.5237135"><ele>478.0</ele><time>2026-04-04T08:56:35.235Z</time></trkpt><trkpt lat="44.2167668" lon="11.5239071"><ele>478.0</ele><time>2026-04-04T08:56:36.235Z</time></trkpt><trkpt lat="44.2167653" lon="11.5241032"><ele>477.25</ele><time>2026-04-04T08:56:37.235Z</time></trkpt><trkpt lat="44.2167981" lon="11.5242911"><ele>476.5</ele><time>2026-04-04T08:56:38.235Z</time></trkpt><trkpt lat="44.216851" lon="11.5244727"><ele>475.75</ele><time>2026-04-04T08:56:39.235Z</time></trkpt><trkpt lat="44.2168993" lon="11.5246474"><ele>475.0</ele><time>2026-04-04T08:56:40.235Z</time></trkpt><trkpt lat="44.2169185" lon="11.5248097"><ele>473.5</ele><time>2026-04-04T08:56:41.235Z</time></trkpt><trkpt lat="44.216912" lon="11.5249827"><ele>472.0</ele><time>2026-04-04T08:56:42.235Z</time></trkpt><trkpt lat="44.216881" lon="11.5251545"><ele>470.5</ele><time>2026-04-04T08:56:43.235Z</time></trkpt><trkpt lat="44.2168239" lon="11.5253243"><ele>469.0</ele><time>2026-04-04T08:56:44.235Z</time></trkpt><trkpt lat="44.2167738" lon="11.5254853"><ele>467.2</ele><time>2026-04-04T08:56:45.235Z</time></trkpt><trkpt lat="44.2167385" lon="11.5256389"><ele>465.4</ele><time>2026-04-04T08:56:46.235Z</time></trkpt><trkpt lat="44.2167122" lon="11.5257868"><ele>463.6</ele><time>2026-04-04T08:56:47.235Z</time></trkpt><trkpt lat="44.2166804" lon="11.5259171"><ele>461.8</ele><time>2026-04-04T08:56:48.234Z</time></trkpt><trkpt lat="44.2166317" lon="11.5260413"><ele>460.0</ele><time>2026-04-04T08:56:49.234Z</time></trkpt><trkpt lat="44.2165674" lon="11.5261479"><ele>459.8</ele><time>2026-04-04T08:56:50.234Z</time></trkpt><trkpt lat="44.2164999" lon="11.5262355"><ele>459.6</ele><time>2026-04-04T08:56:51.234Z</time></trkpt><trkpt lat="44.2164432" lon="11.5263269"><ele>459.4</ele><time>2026-04-04T08:56:52.234Z</time></trkpt><trkpt lat="44.2164015" lon="11.5264275"><ele>459.2</ele><time>2026-04-04T08:56:53.235Z</time></trkpt><trkpt lat="44.2163894" lon="11.5265492"><ele>459.0</ele><time>2026-04-04T08:56:54.235Z</time></trkpt><trkpt lat="44.2164077" lon="11.5267022"><ele>452.75</ele><time>2026-04-04T08:56:55.234Z</time></trkpt><trkpt lat="44.2164231" lon="11.5268645"><ele>446.5</ele><time>2026-04-04T08:56:56.234Z</time></trkpt><trkpt lat="44.2164188" lon="11.527045"><ele>440.25</ele><time>2026-04-04T08:56:57.234Z</time></trkpt><trkpt lat="44.2163846" lon="11.5272278"><ele>434.0</ele><time>2026-04-04T08:56:58.235Z</time></trkpt><trkpt lat="44.2163498" lon="11.5274039"><ele>434.0</ele><time>2026-04-04T08:56:59.235Z</time></trkpt><trkpt lat="44.2163197" lon="11.5276071"><ele>434.0</ele><time>2026-04-04T08:57:00.234Z</time></trkpt><trkpt lat="44.2163" lon="11.5278333"><ele>434.0</ele><time>2026-04-04T08:57:01.234Z</time></trkpt><trkpt lat="44.2162811" lon="11.5280676"><ele>436.2</ele><time>2026-04-04T08:57:02.235Z</time></trkpt><trkpt lat="44.2162647" lon="11.5282747"><ele>438.4</ele><time>2026-04-04T08:57:03.235Z</time></trkpt><trkpt lat="44.2162483" lon="11.5284146"><ele>440.6</ele><time>2026-04-04T08:57:04.235Z</time></trkpt><trkpt lat="44.2162246" lon="11.528507"><ele>442.8</ele><time>2026-04-04T08:57:05.234Z</time></trkpt><trkpt lat="44.2161266" lon="11.5286186"><ele>445.0</ele><time>2026-04-04T08:57:07.235Z</time></trkpt><trkpt lat="44.2160543" lon="11.5286566"><ele>445.0</ele><time>2026-04-04T08:57:08.234Z</time></trkpt><trkpt lat="44.2159895" lon="11.5287218"><ele>445.0</ele><time>2026-04-04T08:57:09.235Z</time></trkpt><trkpt lat="44.2159414" lon="11.5288126"><ele>445.0</ele><time>2026-04-04T08:57:10.235Z</time></trkpt><trkpt lat="44.2159155" lon="11.5289378"><ele>445.0</ele><time>2026-04-04T08:57:11.235Z</time></trkpt><trkpt lat="44.2159091" lon="11.5291014"><ele>445.0</ele><time>2026-04-04T08:57:12.235Z</time></trkpt><trkpt lat="44.2158919" lon="11.5292812"><ele>448.5</ele><time>2026-04-04T08:57:13.235Z</time></trkpt><trkpt lat="44.2158584" lon="11.529467"><ele>452.0</ele><time>2026-04-04T08:57:14.234Z</time></trkpt><trkpt lat="44.2158112" lon="11.5296412"><ele>455.5</ele><time>2026-04-04T08:57:15.235Z</time></trkpt><trkpt lat="44.2157501" lon="11.5297917"><ele>459.0</ele><time>2026-04-04T08:57:16.234Z</time></trkpt><trkpt lat="44.2156768" lon="11.529908"><ele>460.2</ele><time>2026-04-04T08:57:17.235Z</time></trkpt><trkpt lat="44.2155895" lon="11.5299961"><ele>461.4</ele><time>2026-04-04T08:57:18.234Z</time></trkpt><trkpt lat="44.2154931" lon="11.5300625"><ele>462.6</ele><time>2026-04-04T08:57:19.235Z</time></trkpt><trkpt lat="44.2154046" lon="11.5301233"><ele>463.8</ele><time>2026-04-04T08:57:20.235Z</time></trkpt><trkpt lat="44.2153439" lon="11.5302115"><ele>465.0</ele><time>2026-04-04T08:57:21.235Z</time></trkpt><trkpt lat="44.2153125" lon="11.5303401"><ele>468.5</ele><time>2026-04-04T08:57:22.235Z</time></trkpt><trkpt lat="44.2152937" lon="11.5305168"><ele>472.0</ele><time>2026-04-04T08:57:23.235Z</time></trkpt><trkpt lat="44.2152692" lon="11.5307183"><ele>475.5</ele><time>2026-04-04T08:57:24.235Z</time></trkpt><trkpt lat="44.2152177" lon="11.5309331"><ele>479.0</ele><time>2026-04-04T08:57:25.234Z</time></trkpt><trkpt lat="44.2151621" lon="11.531124"><ele>479.4</ele><time>2026-04-04T08:57:26.235Z</time></trkpt><trkpt lat="44.2151085" lon="11.5312828"><ele>479.79999999999995</ele><time>2026-04-04T08:57:27.235Z</time></trkpt><trkpt lat="44.2150517" lon="11.5314077"><ele>480.20000000000005</ele><time>2026-04-04T08:57:28.234Z</time></trkpt><trkpt lat="44.2149946" lon="11.5315002"><ele>480.6</ele><time>2026-04-04T08:57:29.234Z</time></trkpt><trkpt lat="44.214933" lon="11.5315695"><ele>481.0</ele><time>2026-04-04T08:57:30.235Z</time></trkpt><trkpt lat="44.2148621" lon="11.5316439"><ele>477.0</ele><time>2026-04-04T08:57:31.235Z</time></trkpt><trkpt lat="44.2147894" lon="11.5317344"><ele>473.0</ele><time>2026-04-04T08:57:32.235Z</time></trkpt><trkpt lat="44.2147194" lon="11.5318445"><ele>469.0</ele><time>2026-04-04T08:57:33.235Z</time></trkpt><trkpt lat="44.214669" lon="11.53198"><ele>465.0</ele><time>2026-04-04T08:57:34.235Z</time></trkpt><trkpt lat="44.2146362" lon="11.5321516"><ele>461.0</ele><time>2026-04-04T08:57:35.234Z</time></trkpt><trkpt lat="44.2146252" lon="11.5323365"><ele>461.0</ele><time>2026-04-04T08:57:36.234Z</time></trkpt><trkpt lat="44.2146058" lon="11.5325107"><ele>461.0</ele><time>2026-04-04T08:57:37.235Z</time></trkpt><trkpt lat="44.2145642" lon="11.5326608"><ele>461.0</ele><time>2026-04-04T08:57:38.234Z</time></trkpt><trkpt lat="44.2144929" lon="11.5327807"><ele>461.0</ele><time>2026-04-04T08:57:39.235Z</time></trkpt><trkpt lat="44.2144223" lon="11.5328911"><ele>463.3333333333333</ele><time>2026-04-04T08:57:40.234Z</time></trkpt><trkpt lat="44.214371" lon="11.5330071"><ele>465.66666666666663</ele><time>2026-04-04T08:57:41.235Z</time></trkpt><trkpt lat="44.2143453" lon="11.5331258"><ele>468.0</ele><time>2026-04-04T08:57:42.234Z</time></trkpt><trkpt lat="44.2143284" lon="11.5332315"><ele>470.33333333333337</ele><time>2026-04-04T08:57:43.235Z</time></trkpt><trkpt lat="44.2143081" lon="11.5333707"><ele>472.6666666666667</ele><time>2026-04-04T08:57:45.234Z</time></trkpt><trkpt lat="44.2143033" lon="11.5334617"><ele>475.0</ele><time>2026-04-04T08:58:05.235Z</time></trkpt><trkpt lat="44.2142717" lon="11.5335633"><ele>475.0</ele><time>2026-04-04T08:58:06.234Z</time></trkpt><trkpt lat="44.214215" lon="11.5336783"><ele>475.0</ele><time>2026-04-04T08:58:07.235Z</time></trkpt><trkpt lat="44.214135" lon="11.533805"><ele>475.0</ele><time>2026-04-04T08:58:08.235Z</time></trkpt><trkpt lat="44.21405" lon="11.533945"><ele>475.0</ele><time>2026-04-04T08:58:09.235Z</time></trkpt><trkpt lat="44.213965" lon="11.5340917"><ele>476.4</ele><time>2026-04-04T08:58:10.235Z</time></trkpt><trkpt lat="44.2139017" lon="11.5342433"><ele>477.8</ele><time>2026-04-04T08:58:11.235Z</time></trkpt><trkpt lat="44.2138533" lon="11.5343783"><ele>479.20000000000005</ele><time>2026-04-04T08:58:12.235Z</time></trkpt><trkpt lat="44.2138333" lon="11.5345133"><ele>480.6</ele><time>2026-04-04T08:58:13.235Z</time></trkpt><trkpt lat="44.2138367" lon="11.5346633"><ele>482.0</ele><time>2026-04-04T08:58:14.234Z</time></trkpt><trkpt lat="44.2138733" lon="11.534825"><ele>484.25</ele><time>2026-04-04T08:58:15.234Z</time></trkpt><trkpt lat="44.21393" lon="11.5349833"><ele>486.5</ele><time>2026-04-04T08:58:16.235Z</time></trkpt><trkpt lat="44.213985" lon="11.5351433"><ele>488.75</ele><time>2026-04-04T08:58:17.235Z</time></trkpt><trkpt lat="44.21403" lon="11.5352983"><ele>491.0</ele><time>2026-04-04T08:58:18.235Z</time></trkpt><trkpt lat="44.2140517" lon="11.5354633"><ele>492.5</ele><time>2026-04-04T08:58:19.235Z</time></trkpt><trkpt lat="44.2140567" lon="11.535625"><ele>494.0</ele><time>2026-04-04T08:58:20.235Z</time></trkpt><trkpt lat="44.2140533" lon="11.5357833"><ele>495.5</ele><time>2026-04-04T08:58:21.234Z</time></trkpt><trkpt lat="44.214025" lon="11.5359583"><ele>497.0</ele><time>2026-04-04T08:58:22.235Z</time></trkpt><trkpt lat="44.2139867" lon="11.5361367"><ele>500.5</ele><time>2026-04-04T08:58:23.235Z</time></trkpt><trkpt lat="44.2139217" lon="11.5363383"><ele>504.0</ele><time>2026-04-04T08:58:24.234Z</time></trkpt><trkpt lat="44.21385" lon="11.5365367"><ele>507.5</ele><time>2026-04-04T08:58:25.234Z</time></trkpt><trkpt lat="44.2137983" lon="11.5367"><ele>511.0</ele><time>2026-04-04T08:58:26.234Z</time></trkpt><trkpt lat="44.213785" lon="11.536845"><ele>511.0</ele><time>2026-04-04T08:58:27.235Z</time></trkpt><trkpt lat="44.2138167" lon="11.5369767"><ele>511.0</ele><time>2026-04-04T08:58:28.235Z</time></trkpt><trkpt lat="44.213885" lon="11.5370967"><ele>511.0</ele><time>2026-04-04T08:58:29.235Z</time></trkpt><trkpt lat="44.21396" lon="11.5372267"><ele>511.0</ele><time>2026-04-04T08:58:30.235Z</time></trkpt><trkpt lat="44.2140417" lon="11.5373833"><ele>511.75</ele><time>2026-04-04T08:58:31.234Z</time></trkpt><trkpt lat="44.2141033" lon="11.5375567"><ele>512.5</ele><time>2026-04-04T08:58:32.234Z</time></trkpt><trkpt lat="44.214155" lon="11.5377417"><ele>513.25</ele><time>2026-04-04T08:58:33.234Z</time></trkpt><trkpt lat="44.2141867" lon="11.5379233"><ele>514.0</ele><time>2026-04-04T08:58:34.235Z</time></trkpt><trkpt lat="44.2142017" lon="11.5381217"><ele>518.0</ele><time>2026-04-04T08:58:35.235Z</time></trkpt><trkpt lat="44.214215" lon="11.5383283"><ele>522.0</ele><time>2026-04-04T08:58:36.234Z</time></trkpt><trkpt lat="44.2142217" lon="11.5385517"><ele>526.0</ele><time>2026-04-04T08:58:37.234Z</time></trkpt><trkpt lat="44.214235" lon="11.5387867"><ele>527.0</ele><time>2026-04-04T08:58:38.234Z</time></trkpt><trkpt lat="44.2142583" lon="11.539015"><ele>528.0</ele><time>2026-04-04T08:58:39.234Z</time></trkpt><trkpt lat="44.2142667" lon="11.5392333"><ele>529.0</ele><time>2026-04-04T08:58:40.235Z</time></trkpt><trkpt lat="44.2142617" lon="11.539425"><ele>529.6</ele><time>2026-04-04T08:58:41.234Z</time></trkpt><trkpt lat="44.214235" lon="11.5395883"><ele>530.2</ele><time>2026-04-04T08:58:42.235Z</time></trkpt><trkpt lat="44.21419" lon="11.5397333"><ele>530.8000000000001</ele><time>2026-04-04T08:58:43.235Z</time></trkpt><trkpt lat="44.2141417" lon="11.53987"><ele>531.4</ele><time>2026-04-04T08:58:44.235Z</time></trkpt><trkpt lat="44.21411" lon="11.5400033"><ele>532.0</ele><time>2026-04-04T08:58:45.234Z</time></trkpt><trkpt lat="44.2140933" lon="11.540155"><ele>532.0</ele><time>2026-04-04T08:58:46.235Z</time></trkpt><trkpt lat="44.214095" lon="11.5403183"><ele>532.0</ele><time>2026-04-04T08:58:47.234Z</time></trkpt><trkpt lat="44.2140767" lon="11.5404817"><ele>532.0</ele><time>2026-04-04T08:58:48.235Z</time></trkpt><trkpt lat="44.2140217" lon="11.5406167"><ele>532.0</ele><time>2026-04-04T08:58:49.235Z</time></trkpt><trkpt lat="44.21394" lon="11.54074"><ele>531.25</ele><time>2026-04-04T08:58:50.235Z</time></trkpt><trkpt lat="44.2138483" lon="11.5408483"><ele>530.5</ele><time>2026-04-04T08:58:51.234Z</time></trkpt><trkpt lat="44.213775" lon="11.5409733"><ele>529.75</ele><time>2026-04-04T08:58:52.235Z</time></trkpt><trkpt lat="44.2137333" lon="11.54111"><ele>529.0</ele><time>2026-04-04T08:58:53.235Z</time></trkpt><trkpt lat="44.2137383" lon="11.5412667"><ele>529.0</ele><time>2026-04-04T08:58:54.235Z</time></trkpt><trkpt lat="44.213765" lon="11.5414233"><ele>529.0</ele><time>2026-04-04T08:58:55.235Z</time></trkpt><trkpt lat="44.213775" lon="11.54156"><ele>529.0</ele><time>2026-04-04T08:58:56.235Z</time></trkpt><trkpt lat="44.2137683" lon="11.5416633"><ele>529.0</ele><time>2026-04-04T08:58:57.235Z</time></trkpt><trkpt lat="44.21373" lon="11.541745"><ele>529.0</ele><time>2026-04-04T08:58:58.235Z</time></trkpt><trkpt lat="44.2136567" lon="11.5418133"><ele>529.0</ele><time>2026-04-04T08:58:59.235Z</time></trkpt><trkpt lat="44.2135717" lon="11.5418917"><ele>529.0</ele><time>2026-04-04T08:59:00.234Z</time></trkpt><trkpt lat="44.2134633" lon="11.5419683"><ele>529.0</ele><time>2026-04-04T08:59:01.234Z</time></trkpt><trkpt lat="44.2133517" lon="11.5420467"><ele>529.0</ele><time>2026-04-04T08:59:02.234Z</time></trkpt><trkpt lat="44.2132583" lon="11.5421483"><ele>529.0</ele><time>2026-04-04T08:59:03.235Z</time></trkpt><trkpt lat="44.21317" lon="11.5422683"><ele>530.0</ele><time>2026-04-04T08:59:04.235Z</time></trkpt><trkpt lat="44.21307" lon="11.5423567"><ele>531.0</ele><time>2026-04-04T08:59:05.234Z</time></trkpt><trkpt lat="44.2129367" lon="11.5424283"><ele>532.0</ele><time>2026-04-04T08:59:06.234Z</time></trkpt><trkpt lat="44.21281" lon="11.5425133"><ele>533.0</ele><time>2026-04-04T08:59:07.235Z</time></trkpt><trkpt lat="44.21268" lon="11.5426283"><ele>533.0</ele><time>2026-04-04T08:59:08.234Z</time></trkpt><trkpt lat="44.21255" lon="11.5427733"><ele>533.0</ele><time>2026-04-04T08:59:09.235Z</time></trkpt><trkpt lat="44.2124067" lon="11.5428967"><ele>533.0</ele><time>2026-04-04T08:59:10.235Z</time></trkpt><trkpt lat="44.2122517" lon="11.543025"><ele>535.3333333333333</ele><time>2026-04-04T08:59:11.234Z</time></trkpt><trkpt lat="44.2120967" lon="11.54315"><ele>537.6666666666666</ele><time>2026-04-04T08:59:12.235Z</time></trkpt><trkpt lat="44.2119267" lon="11.5432817"><ele>540.0</ele><time>2026-04-04T08:59:13.235Z</time></trkpt><trkpt lat="44.211765" lon="11.5434017"><ele>540.0</ele><time>2026-04-04T08:59:14.235Z</time></trkpt><trkpt lat="44.21163" lon="11.543505"><ele>540.0</ele><time>2026-04-04T08:59:15.235Z</time></trkpt><trkpt lat="44.2115" lon="11.5435767"><ele>540.0</ele><time>2026-04-04T08:59:16.234Z</time></trkpt><trkpt lat="44.2113567" lon="11.5436033"><ele>540.0</ele><time>2026-04-04T08:59:17.235Z</time></trkpt><trkpt lat="44.2112167" lon="11.5436083"><ele>539.5</ele><time>2026-04-04T08:59:18.235Z</time></trkpt><trkpt lat="44.2110833" lon="11.543645"><ele>539.0</ele><time>2026-04-04T08:59:19.234Z</time></trkpt><trkpt lat="44.2109583" lon="11.5437383"><ele>538.5</ele><time>2026-04-04T08:59:20.235Z</time></trkpt><trkpt lat="44.2108383" lon="11.5438562"><ele>538.0</ele><time>2026-04-04T08:59:21.234Z</time></trkpt><trkpt lat="44.2107262" lon="11.5439808"><ele>543.1999999999999</ele><time>2026-04-04T08:59:22.234Z</time></trkpt><trkpt lat="44.2106274" lon="11.5440664"><ele>548.4</ele><time>2026-04-04T08:59:23.235Z</time></trkpt><trkpt lat="44.2105415" lon="11.5441096"><ele>553.5999999999999</ele><time>2026-04-04T08:59:24.235Z</time></trkpt><trkpt lat="44.2104552" lon="11.5441369"><ele>558.8</ele><time>2026-04-04T08:59:25.235Z</time></trkpt><trkpt lat="44.2103696" lon="11.5441757"><ele>564.0</ele><time>2026-04-04T08:59:26.234Z</time></trkpt><trkpt lat="44.2102855" lon="11.544244"><ele>564.0</ele><time>2026-04-04T08:59:27.234Z</time></trkpt><trkpt lat="44.210212" lon="11.5443514"><ele>564.0</ele><time>2026-04-04T08:59:28.235Z</time></trkpt><trkpt lat="44.2101554" lon="11.5444824"><ele>564.0</ele><time>2026-04-04T08:59:29.235Z</time></trkpt><trkpt lat="44.2101017" lon="11.5446193"><ele>564.0</ele><time>2026-04-04T08:59:30.234Z</time></trkpt><trkpt lat="44.2100338" lon="11.5447418"><ele>564.0</ele><time>2026-04-04T08:59:31.235Z</time></trkpt><trkpt lat="44.2099503" lon="11.5448366"><ele>566.0</ele><time>2026-04-04T08:59:32.234Z</time></trkpt><trkpt lat="44.2098525" lon="11.5449152"><ele>568.0</ele><time>2026-04-04T08:59:33.235Z</time></trkpt><trkpt lat="44.2097705" lon="11.545004"><ele>570.0</ele><time>2026-04-04T08:59:34.235Z</time></trkpt><trkpt lat="44.2097176" lon="11.5451104"><ele>572.0</ele><time>2026-04-04T08:59:35.235Z</time></trkpt><trkpt lat="44.2096793" lon="11.5452427"><ele>574.0</ele><time>2026-04-04T08:59:36.235Z</time></trkpt><trkpt lat="44.2096418" lon="11.5453753"><ele>574.3333333333334</ele><time>2026-04-04T08:59:37.234Z</time></trkpt><trkpt lat="44.2095991" lon="11.545473"><ele>574.6666666666667</ele><time>2026-04-04T08:59:38.235Z</time></trkpt><trkpt lat="44.2095368" lon="11.5455308"><ele>575.0</ele><time>2026-04-04T08:59:39.235Z</time></trkpt><trkpt lat="44.2094582" lon="11.5455521"><ele>575.3333333333334</ele><time>2026-04-04T08:59:40.235Z</time></trkpt><trkpt lat="44.2093698" lon="11.545534"><ele>575.6666666666666</ele><time>2026-04-04T08:59:41.234Z</time></trkpt><trkpt lat="44.2092685" lon="11.5454811"><ele>576.0</ele><time>2026-04-04T08:59:42.235Z</time></trkpt><trkpt lat="44.2091538" lon="11.5454097"><ele>578.75</ele><time>2026-04-04T08:59:43.235Z</time></trkpt><trkpt lat="44.209025" lon="11.5453368"><ele>581.5</ele><time>2026-04-04T08:59:44.234Z</time></trkpt><trkpt lat="44.2088859" lon="11.5452819"><ele>584.25</ele><time>2026-04-04T08:59:45.234Z</time></trkpt><trkpt lat="44.208737" lon="11.5452652"><ele>587.0</ele><time>2026-04-04T08:59:46.235Z</time></trkpt><trkpt lat="44.208581" lon="11.5453026"><ele>589.0</ele><time>2026-04-04T08:59:47.235Z</time></trkpt><trkpt lat="44.2084258" lon="11.5453811"><ele>591.0</ele><time>2026-04-04T08:59:48.234Z</time></trkpt><trkpt lat="44.2082742" lon="11.5454798"><ele>593.0</ele><time>2026-04-04T08:59:49.235Z</time></trkpt><trkpt lat="44.2081331" lon="11.5455914"><ele>599.5</ele><time>2026-04-04T08:59:50.234Z</time></trkpt><trkpt lat="44.2080116" lon="11.545703"><ele>606.0</ele><time>2026-04-04T08:59:51.234Z</time></trkpt><trkpt lat="44.2079352" lon="11.5458338"><ele>612.5</ele><time>2026-04-04T08:59:52.234Z</time></trkpt><trkpt lat="44.207869" lon="11.5459647"><ele>619.0</ele><time>2026-04-04T08:59:53.234Z</time></trkpt><trkpt lat="44.2077893" lon="11.5460756"><ele>619.0</ele><time>2026-04-04T08:59:54.235Z</time></trkpt><trkpt lat="44.2077101" lon="11.5461735"><ele>619.0</ele><time>2026-04-04T08:59:55.234Z</time></trkpt><trkpt lat="44.2076431" lon="11.546284"><ele>619.0</ele><time>2026-04-04T08:59:56.235Z</time></trkpt><trkpt lat="44.2076013" lon="11.5463974"><ele>619.0</ele><time>2026-04-04T08:59:57.234Z</time></trkpt><trkpt lat="44.207585" lon="11.5465203"><ele>619.0</ele><time>2026-04-04T08:59:58.234Z</time></trkpt><trkpt lat="44.2075951" lon="11.5466594"><ele>618.5</ele><time>2026-04-04T08:59:59.235Z</time></trkpt><trkpt lat="44.2076199" lon="11.5468227"><ele>618.0</ele><time>2026-04-04T09:00:00.234Z</time></trkpt><trkpt lat="44.2076543" lon="11.5469926"><ele>617.5</ele><time>2026-04-04T09:00:01.235Z</time></trkpt><trkpt lat="44.2077006" lon="11.5471741"><ele>617.0</ele><time>2026-04-04T09:00:02.234Z</time></trkpt><trkpt lat="44.2077528" lon="11.5473499"><ele>619.0</ele><time>2026-04-04T09:00:03.234Z</time></trkpt><trkpt lat="44.2078115" lon="11.5475011"><ele>621.0</ele><time>2026-04-04T09:00:04.235Z</time></trkpt><trkpt lat="44.2078672" lon="11.5476239"><ele>623.0</ele><time>2026-04-04T09:00:05.235Z</time></trkpt><trkpt lat="44.2079357" lon="11.5477258"><ele>625.0</ele><time>2026-04-04T09:00:06.235Z</time></trkpt><trkpt lat="44.2080137" lon="11.5478202"><ele>627.0</ele><time>2026-04-04T09:00:07.235Z</time></trkpt><trkpt lat="44.2080773" lon="11.5479161"><ele>629.75</ele><time>2026-04-04T09:00:08.234Z</time></trkpt><trkpt lat="44.2081226" lon="11.5480288"><ele>632.5</ele><time>2026-04-04T09:00:09.235Z</time></trkpt><trkpt lat="44.2081475" lon="11.5481777"><ele>635.25</ele><time>2026-04-04T09:00:10.235Z</time></trkpt><trkpt lat="44.2081549" lon="11.5483695"><ele>638.0</ele><time>2026-04-04T09:00:11.234Z</time></trkpt><trkpt lat="44.2081612" lon="11.5485831"><ele>640.0</ele><time>2026-04-04T09:00:12.234Z</time></trkpt><trkpt lat="44.2081653" lon="11.5487967"><ele>642.0</ele><time>2026-04-04T09:00:13.235Z</time></trkpt><trkpt lat="44.2081602" lon="11.5490059"><ele>644.0</ele><time>2026-04-04T09:00:14.234Z</time></trkpt><trkpt lat="44.2081527" lon="11.5492165"><ele>637.3333333333333</ele><time>2026-04-04T09:00:15.235Z</time></trkpt><trkpt lat="44.2081615" lon="11.5494383"><ele>630.6666666666666</ele><time>2026-04-04T09:00:16.234Z</time></trkpt><trkpt lat="44.2081932" lon="11.549666"><ele>624.0</ele><time>2026-04-04T09:00:17.235Z</time></trkpt><trkpt lat="44.2082387" lon="11.5498786"><ele>624.0</ele><time>2026-04-04T09:00:18.234Z</time></trkpt><trkpt lat="44.2082811" lon="11.5500612"><ele>624.0</ele><time>2026-04-04T09:00:19.235Z</time></trkpt><trkpt lat="44.2083291" lon="11.5502019"><ele>624.0</ele><time>2026-04-04T09:00:20.235Z</time></trkpt><trkpt lat="44.2083939" lon="11.5503173"><ele>624.0</ele><time>2026-04-04T09:00:21.235Z</time></trkpt><trkpt lat="44.2084495" lon="11.550414"><ele>624.0</ele><time>2026-04-04T09:00:22.235Z</time></trkpt><trkpt lat="44.2084751" lon="11.550496"><ele>624.3333333333334</ele><time>2026-04-04T09:00:23.235Z</time></trkpt><trkpt lat="44.208427" lon="11.5506256"><ele>624.6666666666666</ele><time>2026-04-04T09:00:25.234Z</time></trkpt><trkpt lat="44.2083586" lon="11.5506319"><ele>625.0</ele><time>2026-04-04T09:00:27.234Z</time></trkpt><trkpt lat="44.2083259" lon="11.5505568"><ele>625.3333333333333</ele><time>2026-04-04T09:00:29.235Z</time></trkpt><trkpt lat="44.2083526" lon="11.5504763"><ele>625.6666666666666</ele><time>2026-04-04T09:00:32.311Z</time></trkpt><trkpt lat="44.208315" lon="11.550655"><ele>626.0</ele><time>2026-04-04T09:00:51.234Z</time></trkpt><trkpt lat="44.2082333" lon="11.5507733"><ele>626.0</ele><time>2026-04-04T09:00:53.235Z</time></trkpt><trkpt lat="44.2081817" lon="11.5508617"><ele>626.0</ele><time>2026-04-04T09:00:54.235Z</time></trkpt><trkpt lat="44.2081217" lon="11.5509833"><ele>626.0</ele><time>2026-04-04T09:00:55.235Z</time></trkpt><trkpt lat="44.2080773" lon="11.5510548"><ele>626.0</ele><time>2026-04-04T09:00:56.235Z</time></trkpt><trkpt lat="44.2079686" lon="11.5512035"><ele>626.0</ele><time>2026-04-04T09:00:57.235Z</time></trkpt><trkpt lat="44.2078586" lon="11.5513173"><ele>626.1666666666666</ele><time>2026-04-04T09:00:58.235Z</time></trkpt><trkpt lat="44.2077616" lon="11.5513994"><ele>626.3333333333333</ele><time>2026-04-04T09:00:59.234Z</time></trkpt><trkpt lat="44.2076814" lon="11.5514487"><ele>626.5</ele><time>2026-04-04T09:01:00.234Z</time></trkpt><trkpt lat="44.2076091" lon="11.5514765"><ele>626.6666666666666</ele><time>2026-04-04T09:01:01.235Z</time></trkpt><trkpt lat="44.207535" lon="11.5515016"><ele>626.8333333333334</ele><time>2026-04-04T09:01:02.235Z</time></trkpt><trkpt lat="44.2074617" lon="11.5515429"><ele>627.0</ele><time>2026-04-04T09:01:03.234Z</time></trkpt><trkpt lat="44.2074023" lon="11.5516044"><ele>627.0</ele><time>2026-04-04T09:01:04.235Z</time></trkpt><trkpt lat="44.2073478" lon="11.5516777"><ele>627.0</ele><time>2026-04-04T09:01:05.235Z</time></trkpt><trkpt lat="44.2072897" lon="11.5517514"><ele>627.0</ele><time>2026-04-04T09:01:06.235Z</time></trkpt><trkpt lat="44.2072464" lon="11.5518313"><ele>627.0</ele><time>2026-04-04T09:01:07.235Z</time></trkpt><trkpt lat="44.2072143" lon="11.5519194"><ele>627.0</ele><time>2026-04-04T09:01:08.234Z</time></trkpt><trkpt lat="44.2071523" lon="11.5520277"><ele>627.0</ele><time>2026-04-04T09:01:10.234Z</time></trkpt><trkpt lat="44.2070614" lon="11.5520765"><ele>624.5</ele><time>2026-04-04T09:01:12.235Z</time></trkpt><trkpt lat="44.2069535" lon="11.5520213"><ele>622.0</ele><time>2026-04-04T09:01:14.235Z</time></trkpt><trkpt lat="44.2069041" lon="11.551962"><ele>619.5</ele><time>2026-04-04T09:01:15.235Z</time></trkpt><trkpt lat="44.2068626" lon="11.5518776"><ele>617.0</ele><time>2026-04-04T09:01:16.235Z</time></trkpt><trkpt lat="44.2068277" lon="11.5517605"><ele>614.5</ele><time>2026-04-04T09:01:17.234Z</time></trkpt><trkpt lat="44.2068031" lon="11.5516375"><ele>612.0</ele><time>2026-04-04T09:01:18.235Z</time></trkpt><trkpt lat="44.2067766" lon="11.5515303"><ele>612.0</ele><time>2026-04-04T09:01:19.234Z</time></trkpt><trkpt lat="44.2067417" lon="11.5514427"><ele>612.0</ele><time>2026-04-04T09:01:20.234Z</time></trkpt><trkpt lat="44.2066912" lon="11.5513719"><ele>612.0</ele><time>2026-04-04T09:01:21.234Z</time></trkpt><trkpt lat="44.2066219" lon="11.5513146"><ele>612.0</ele><time>2026-04-04T09:01:22.235Z</time></trkpt><trkpt lat="44.2065442" lon="11.5512855"><ele>612.0</ele><time>2026-04-04T09:01:23.235Z</time></trkpt><trkpt lat="44.2064609" lon="11.5512622"><ele>612.0</ele><time>2026-04-04T09:01:24.234Z</time></trkpt><trkpt lat="44.2063878" lon="11.5512687"><ele>607.3333333333334</ele><time>2026-04-04T09:01:25.235Z</time></trkpt><trkpt lat="44.2063101" lon="11.5513083"><ele>602.6666666666666</ele><time>2026-04-04T09:01:26.234Z</time></trkpt><trkpt lat="44.206229" lon="11.551348"><ele>598.0</ele><time>2026-04-04T09:01:27.235Z</time></trkpt><trkpt lat="44.2061502" lon="11.5513541"><ele>593.3333333333333</ele><time>2026-04-04T09:01:28.235Z</time></trkpt><trkpt lat="44.2060685" lon="11.5513317"><ele>588.6666666666666</ele><time>2026-04-04T09:01:29.235Z</time></trkpt><trkpt lat="44.2059933" lon="11.5512833"><ele>584.0</ele><time>2026-04-04T09:01:30.234Z</time></trkpt><trkpt lat="44.2059233" lon="11.5512467"><ele>584.0</ele><time>2026-04-04T09:01:31.235Z</time></trkpt><trkpt lat="44.2058533" lon="11.5512317"><ele>584.0</ele><time>2026-04-04T09:01:32.235Z</time></trkpt><trkpt lat="44.20577" lon="11.5512333"><ele>584.0</ele><time>2026-04-04T09:01:33.234Z</time></trkpt><trkpt lat="44.2056717" lon="11.55125"><ele>584.0</ele><time>2026-04-04T09:01:34.235Z</time></trkpt><trkpt lat="44.2055483" lon="11.55126"><ele>584.0</ele><time>2026-04-04T09:01:35.234Z</time></trkpt><trkpt lat="44.2054167" lon="11.5512717"><ele>581.5</ele><time>2026-04-04T09:01:36.234Z</time></trkpt><trkpt lat="44.2052833" lon="11.551315"><ele>579.0</ele><time>2026-04-04T09:01:37.235Z</time></trkpt><trkpt lat="44.2051567" lon="11.5513833"><ele>576.5</ele><time>2026-04-04T09:01:38.234Z</time></trkpt><trkpt lat="44.20503" lon="11.55144"><ele>574.0</ele><time>2026-04-04T09:01:39.234Z</time></trkpt><trkpt lat="44.2049067" lon="11.5514867"><ele>574.75</ele><time>2026-04-04T09:01:40.235Z</time></trkpt><trkpt lat="44.2047833" lon="11.5515417"><ele>575.5</ele><time>2026-04-04T09:01:41.234Z</time></trkpt><trkpt lat="44.2046683" lon="11.5515933"><ele>576.25</ele><time>2026-04-04T09:01:42.235Z</time></trkpt><trkpt lat="44.20457" lon="11.5516667"><ele>577.0</ele><time>2026-04-04T09:01:43.235Z</time></trkpt><trkpt lat="44.2044717" lon="11.5517533"><ele>577.0</ele><time>2026-04-04T09:01:44.235Z</time></trkpt><trkpt lat="44.204375" lon="11.5518367"><ele>577.0</ele><time>2026-04-04T09:01:45.235Z</time></trkpt><trkpt lat="44.2042733" lon="11.5519133"><ele>577.0</ele><time>2026-04-04T09:01:46.235Z</time></trkpt><trkpt lat="44.2041733" lon="11.5519667"><ele>577.0</ele><time>2026-04-04T09:01:47.235Z</time></trkpt><trkpt lat="44.20406" lon="11.5519983"><ele>579.0</ele><time>2026-04-04T09:01:48.234Z</time></trkpt><trkpt lat="44.2039633" lon="11.552035"><ele>581.0</ele><time>2026-04-04T09:01:49.235Z</time></trkpt><trkpt lat="44.2038717" lon="11.5521117"><ele>583.0</ele><time>2026-04-04T09:01:50.234Z</time></trkpt><trkpt lat="44.2037917" lon="11.5522117"><ele>585.0</ele><time>2026-04-04T09:01:51.234Z</time></trkpt><trkpt lat="44.2037217" lon="11.55234"><ele>587.0</ele><time>2026-04-04T09:01:52.235Z</time></trkpt><trkpt lat="44.2036617" lon="11.5524767"><ele>583.0</ele><time>2026-04-04T09:01:53.235Z</time></trkpt><trkpt lat="44.20361" lon="11.5525917"><ele>579.0</ele><time>2026-04-04T09:01:54.235Z</time></trkpt><trkpt lat="44.2035667" lon="11.55271"><ele>575.0</ele><time>2026-04-04T09:01:55.235Z</time></trkpt><trkpt lat="44.2035283" lon="11.5528167"><ele>571.0</ele><time>2026-04-04T09:01:56.235Z</time></trkpt><trkpt lat="44.203485" lon="11.552905"><ele>567.0</ele><time>2026-04-04T09:01:57.235Z</time></trkpt><trkpt lat="44.203425" lon="11.552965"><ele>563.0</ele><time>2026-04-04T09:01:58.235Z</time></trkpt><trkpt lat="44.20336" lon="11.5530367"><ele>558.8</ele><time>2026-04-04T09:01:59.235Z</time></trkpt><trkpt lat="44.20331" lon="11.5531333"><ele>554.5999999999999</ele><time>2026-04-04T09:02:00.234Z</time></trkpt><trkpt lat="44.2032733" lon="11.55326"><ele>550.4000000000001</ele><time>2026-04-04T09:02:01.234Z</time></trkpt><trkpt lat="44.2032383" lon="11.55339"><ele>546.2</ele><time>2026-04-04T09:02:02.235Z</time></trkpt><trkpt lat="44.2032017" lon="11.55351"><ele>542.0</ele><time>2026-04-04T09:02:03.235Z</time></trkpt><trkpt lat="44.2031583" lon="11.55362"><ele>540.6666666666666</ele><time>2026-04-04T09:02:04.234Z</time></trkpt><trkpt lat="44.2031225" lon="11.5537244"><ele>539.3333333333333</ele><time>2026-04-04T09:02:05.235Z</time></trkpt><trkpt lat="44.2030952" lon="11.5538113"><ele>538.0</ele><time>2026-04-04T09:02:06.234Z</time></trkpt><trkpt lat="44.2030338" lon="11.5539071"><ele>536.6666666666666</ele><time>2026-04-04T09:02:08.235Z</time></trkpt><trkpt lat="44.2029503" lon="11.5538608"><ele>535.3333333333334</ele><time>2026-04-04T09:02:10.235Z</time></trkpt><trkpt lat="44.2029002" lon="11.5537684"><ele>534.0</ele><time>2026-04-04T09:02:11.235Z</time></trkpt><trkpt lat="44.2028455" lon="11.5536625"><ele>534.0</ele><time>2026-04-04T09:02:12.234Z</time></trkpt><trkpt lat="44.2027929" lon="11.5535575"><ele>534.0</ele><time>2026-04-04T09:02:13.235Z</time></trkpt><trkpt lat="44.2027351" lon="11.553461"><ele>534.0</ele><time>2026-04-04T09:02:14.234Z</time></trkpt><trkpt lat="44.2026734" lon="11.5533749"><ele>534.0</ele><time>2026-04-04T09:02:15.235Z</time></trkpt><trkpt lat="44.2026032" lon="11.5533169"><ele>534.0</ele><time>2026-04-04T09:02:16.234Z</time></trkpt><trkpt lat="44.202531" lon="11.5532805"><ele>534.0</ele><time>2026-04-04T09:02:17.235Z</time></trkpt><trkpt lat="44.2024533" lon="11.5532848"><ele>534.0</ele><time>2026-04-04T09:02:18.235Z</time></trkpt><trkpt lat="44.2023787" lon="11.5533212"><ele>534.0</ele><time>2026-04-04T09:02:19.234Z</time></trkpt><trkpt lat="44.202307" lon="11.5533666"><ele>534.0</ele><time>2026-04-04T09:02:20.235Z</time></trkpt><trkpt lat="44.202233" lon="11.5534591"><ele>534.0</ele><time>2026-04-04T09:02:22.235Z</time></trkpt><trkpt lat="44.2022526" lon="11.5535618"><ele>534.0</ele><time>2026-04-04T09:02:24.235Z</time></trkpt><trkpt lat="44.2022986" lon="11.5536345"><ele>534.0</ele><time>2026-04-04T09:02:25.235Z</time></trkpt><trkpt lat="44.2023747" lon="11.5537229"><ele>529.6</ele><time>2026-04-04T09:02:26.235Z</time></trkpt><trkpt lat="44.2024706" lon="11.5538345"><ele>525.2</ele><time>2026-04-04T09:02:27.235Z</time></trkpt><trkpt lat="44.2025611" lon="11.5539565"><ele>520.8000000000001</ele><time>2026-04-04T09:02:28.234Z</time></trkpt><trkpt lat="44.2026161" lon="11.5540741"><ele>516.4</ele><time>2026-04-04T09:02:29.235Z</time></trkpt><trkpt lat="44.2026412" lon="11.5541932"><ele>512.0</ele><time>2026-04-04T09:02:30.234Z</time></trkpt><trkpt lat="44.202643" lon="11.5543189"><ele>511.99999999999994</ele><time>2026-04-04T09:02:31.234Z</time></trkpt><trkpt lat="44.2026286" lon="11.5544486"><ele>512.0</ele><time>2026-04-04T09:02:32.235Z</time></trkpt><trkpt lat="44.2026082" lon="11.5545766"><ele>512.0</ele><time>2026-04-04T09:02:33.235Z</time></trkpt><trkpt lat="44.2025774" lon="11.5546869"><ele>512.0</ele><time>2026-04-04T09:02:34.234Z</time></trkpt><trkpt lat="44.2025418" lon="11.5547732"><ele>511.99999999999994</ele><time>2026-04-04T09:02:35.235Z</time></trkpt><trkpt lat="44.2024806" lon="11.5548341"><ele>512.0</ele><time>2026-04-04T09:02:36.235Z</time></trkpt><trkpt lat="44.2023999" lon="11.554868"><ele>507.75</ele><time>2026-04-04T09:02:37.235Z</time></trkpt><trkpt lat="44.2023011" lon="11.5548903"><ele>503.5</ele><time>2026-04-04T09:02:38.235Z</time></trkpt><trkpt lat="44.2021915" lon="11.5549331"><ele>499.25</ele><time>2026-04-04T09:02:39.235Z</time></trkpt><trkpt lat="44.2020708" lon="11.5549928"><ele>495.0</ele><time>2026-04-04T09:02:40.235Z</time></trkpt><trkpt lat="44.2019608" lon="11.5550684"><ele>495.0</ele><time>2026-04-04T09:02:41.234Z</time></trkpt><trkpt lat="44.2018558" lon="11.5551477"><ele>495.0</ele><time>2026-04-04T09:02:42.234Z</time></trkpt><trkpt lat="44.2017545" lon="11.5552291"><ele>495.0</ele><time>2026-04-04T09:02:43.234Z</time></trkpt><trkpt lat="44.2016596" lon="11.5553177"><ele>495.0</ele><time>2026-04-04T09:02:44.235Z</time></trkpt><trkpt lat="44.2015839" lon="11.5554078"><ele>494.2</ele><time>2026-04-04T09:02:45.234Z</time></trkpt><trkpt lat="44.2015303" lon="11.5555149"><ele>493.4</ele><time>2026-04-04T09:02:46.235Z</time></trkpt><trkpt lat="44.201498" lon="11.5556436"><ele>492.6</ele><time>2026-04-04T09:02:47.235Z</time></trkpt><trkpt lat="44.2014742" lon="11.5557821"><ele>491.8</ele><time>2026-04-04T09:02:48.235Z</time></trkpt><trkpt lat="44.201443" lon="11.555902"><ele>491.0</ele><time>2026-04-04T09:02:49.234Z</time></trkpt><trkpt lat="44.2013973" lon="11.5559973"><ele>490.99999999999994</ele><time>2026-04-04T09:02:50.235Z</time></trkpt><trkpt lat="44.2013485" lon="11.5560729"><ele>491.0</ele><time>2026-04-04T09:02:51.235Z</time></trkpt><trkpt lat="44.2012882" lon="11.5561302"><ele>491.0</ele><time>2026-04-04T09:02:52.235Z</time></trkpt><trkpt lat="44.2012084" lon="11.5561622"><ele>491.0</ele><time>2026-04-04T09:02:53.235Z</time></trkpt><trkpt lat="44.2011201" lon="11.5561888"><ele>490.99999999999994</ele><time>2026-04-04T09:02:54.235Z</time></trkpt><trkpt lat="44.201035" lon="11.5561973"><ele>491.0</ele><time>2026-04-04T09:02:55.234Z</time></trkpt><trkpt lat="44.200954" lon="11.5562063"><ele>486.99999999999994</ele><time>2026-04-04T09:02:56.235Z</time></trkpt><trkpt lat="44.2008828" lon="11.5562367"><ele>483.0</ele><time>2026-04-04T09:02:57.235Z</time></trkpt><trkpt lat="44.2008241" lon="11.5563069"><ele>479.0</ele><time>2026-04-04T09:02:58.235Z</time></trkpt><trkpt lat="44.200778" lon="11.5564125"><ele>475.0</ele><time>2026-04-04T09:02:59.234Z</time></trkpt><trkpt lat="44.2007261" lon="11.5565193"><ele>470.99999999999994</ele><time>2026-04-04T09:03:00.235Z</time></trkpt><trkpt lat="44.2006776" lon="11.5566109"><ele>467.0</ele><time>2026-04-04T09:03:01.235Z</time></trkpt><trkpt lat="44.2006069" lon="11.5567117"><ele>466.99999999999994</ele><time>2026-04-04T09:03:03.234Z</time></trkpt><trkpt lat="44.2005512" lon="11.5567924"><ele>467.0</ele><time>2026-04-04T09:03:06.235Z</time></trkpt><trkpt lat="44.2005033" lon="11.5568533"><ele>467.0</ele><time>2026-04-04T09:03:11.234Z</time></trkpt><trkpt lat="44.20044" lon="11.5568883"><ele>467.0</ele><time>2026-04-04T09:03:14.235Z</time></trkpt><trkpt lat="44.2003767" lon="11.556875"><ele>466.99999999999994</ele><time>2026-04-04T09:03:16.234Z</time></trkpt><trkpt lat="44.2002583" lon="11.5568617"><ele>467.0</ele><time>2026-04-04T09:03:18.235Z</time></trkpt><trkpt lat="44.2001817" lon="11.55687"><ele>466.99999999999994</ele><time>2026-04-04T09:03:19.234Z</time></trkpt><trkpt lat="44.2000462" lon="11.5569623"><ele>467.0</ele><time>2026-04-04T09:03:21.234Z</time></trkpt><trkpt lat="44.1999796" lon="11.557012"><ele>467.0</ele><time>2026-04-04T09:03:22.234Z</time></trkpt><trkpt lat="44.1999119" lon="11.5570498"><ele>467.0</ele><time>2026-04-04T09:03:23.235Z</time></trkpt><trkpt lat="44.199849" lon="11.5570786"><ele>466.99999999999994</ele><time>2026-04-04T09:03:24.235Z</time></trkpt><trkpt lat="44.1997838" lon="11.5571009"><ele>467.0</ele><time>2026-04-04T09:03:25.235Z</time></trkpt><trkpt lat="44.199717" lon="11.5571098"><ele>463.16666666666663</ele><time>2026-04-04T09:03:26.234Z</time></trkpt><trkpt lat="44.1996401" lon="11.5571135"><ele>459.3333333333333</ele><time>2026-04-04T09:03:27.235Z</time></trkpt><trkpt lat="44.1995581" lon="11.5571291"><ele>455.5</ele><time>2026-04-04T09:03:28.235Z</time></trkpt><trkpt lat="44.1994829" lon="11.5571527"><ele>451.66666666666663</ele><time>2026-04-04T09:03:29.235Z</time></trkpt><trkpt lat="44.1994138" lon="11.5571842"><ele>447.8333333333333</ele><time>2026-04-04T09:03:30.235Z</time></trkpt><trkpt lat="44.1993443" lon="11.5572201"><ele>444.0</ele><time>2026-04-04T09:03:31.235Z</time></trkpt><trkpt lat="44.1992778" lon="11.5572663"><ele>444.0</ele><time>2026-04-04T09:03:32.235Z</time></trkpt><trkpt lat="44.1992124" lon="11.5573149"><ele>444.0</ele><time>2026-04-04T09:03:33.235Z</time></trkpt><trkpt lat="44.1991563" lon="11.5573829"><ele>444.0</ele><time>2026-04-04T09:03:34.235Z</time></trkpt><trkpt lat="44.1991075" lon="11.5574579"><ele>444.0</ele><time>2026-04-04T09:03:35.234Z</time></trkpt><trkpt lat="44.1990689" lon="11.5575323"><ele>444.0</ele><time>2026-04-04T09:03:36.235Z</time></trkpt><trkpt lat="44.198973" lon="11.5575957"><ele>444.0</ele><time>2026-04-04T09:03:38.234Z</time></trkpt><trkpt lat="44.1988618" lon="11.5575624"><ele>442.8333333333333</ele><time>2026-04-04T09:03:40.235Z</time></trkpt><trkpt lat="44.198806" lon="11.5575029"><ele>441.66666666666663</ele><time>2026-04-04T09:03:41.234Z</time></trkpt><trkpt lat="44.1987526" lon="11.5574227"><ele>440.5</ele><time>2026-04-04T09:03:42.235Z</time></trkpt><trkpt lat="44.1987004" lon="11.5573398"><ele>439.3333333333333</ele><time>2026-04-04T09:03:43.235Z</time></trkpt><trkpt lat="44.1986471" lon="11.5572613"><ele>438.16666666666663</ele><time>2026-04-04T09:03:44.234Z</time></trkpt><trkpt lat="44.1985757" lon="11.5572034"><ele>437.0</ele><time>2026-04-04T09:03:45.235Z</time></trkpt><trkpt lat="44.198483" lon="11.5571608"><ele>437.0</ele><time>2026-04-04T09:03:46.234Z</time></trkpt><trkpt lat="44.1983634" lon="11.557147"><ele>437.0</ele><time>2026-04-04T09:03:47.235Z</time></trkpt><trkpt lat="44.1982395" lon="11.5571575"><ele>437.0</ele><time>2026-04-04T09:03:48.234Z</time></trkpt><trkpt lat="44.1981255" lon="11.557191"><ele>437.0</ele><time>2026-04-04T09:03:49.234Z</time></trkpt><trkpt lat="44.1980253" lon="11.5572456"><ele>438.0</ele><time>2026-04-04T09:03:50.234Z</time></trkpt><trkpt lat="44.1979265" lon="11.5573354"><ele>439.0</ele><time>2026-04-04T09:03:51.234Z</time></trkpt><trkpt lat="44.1978197" lon="11.5574675"><ele>440.0</ele><time>2026-04-04T09:03:52.235Z</time></trkpt><trkpt lat="44.197712" lon="11.5576187"><ele>441.0</ele><time>2026-04-04T09:03:53.235Z</time></trkpt><trkpt lat="44.1976033" lon="11.5577433"><ele>441.0</ele><time>2026-04-04T09:03:54.235Z</time></trkpt><trkpt lat="44.1975083" lon="11.5578367"><ele>441.0</ele><time>2026-04-04T09:03:55.234Z</time></trkpt><trkpt lat="44.1974117" lon="11.5579033"><ele>441.0</ele><time>2026-04-04T09:03:56.235Z</time></trkpt><trkpt lat="44.1973133" lon="11.5579217"><ele>441.0</ele><time>2026-04-04T09:03:57.234Z</time></trkpt><trkpt lat="44.19721" lon="11.5579167"><ele>441.0</ele><time>2026-04-04T09:03:58.234Z</time></trkpt><trkpt lat="44.1970983" lon="11.5579167"><ele>435.25</ele><time>2026-04-04T09:03:59.235Z</time></trkpt><trkpt lat="44.19698" lon="11.55793"><ele>429.5</ele><time>2026-04-04T09:04:00.235Z</time></trkpt><trkpt lat="44.1968733" lon="11.557965"><ele>423.75</ele><time>2026-04-04T09:04:01.235Z</time></trkpt><trkpt lat="44.196765" lon="11.5580033"><ele>418.0</ele><time>2026-04-04T09:04:02.234Z</time></trkpt><trkpt lat="44.196655" lon="11.55804"><ele>418.0</ele><time>2026-04-04T09:04:03.234Z</time></trkpt><trkpt lat="44.196545" lon="11.558085"><ele>418.0</ele><time>2026-04-04T09:04:04.234Z</time></trkpt><trkpt lat="44.1964333" lon="11.558135"><ele>418.0</ele><time>2026-04-04T09:04:05.234Z</time></trkpt><trkpt lat="44.19632" lon="11.5582033"><ele>418.0</ele><time>2026-04-04T09:04:06.235Z</time></trkpt><trkpt lat="44.196195" lon="11.5582867"><ele>419.2</ele><time>2026-04-04T09:04:07.235Z</time></trkpt><trkpt lat="44.1960717" lon="11.5583883"><ele>420.4</ele><time>2026-04-04T09:04:08.235Z</time></trkpt><trkpt lat="44.1959683" lon="11.5584833"><ele>421.59999999999997</ele><time>2026-04-04T09:04:09.235Z</time></trkpt><trkpt lat="44.1958833" lon="11.55851"><ele>422.79999999999995</ele><time>2026-04-04T09:04:10.234Z</time></trkpt><trkpt lat="44.1958067" lon="11.5584933"><ele>424.0</ele><time>2026-04-04T09:04:11.235Z</time></trkpt><trkpt lat="44.1957183" lon="11.5584483"><ele>429.0</ele><time>2026-04-04T09:04:12.234Z</time></trkpt><trkpt lat="44.195615" lon="11.5584067"><ele>434.0</ele><time>2026-04-04T09:04:13.235Z</time></trkpt><trkpt lat="44.19549" lon="11.5584233"><ele>439.0</ele><time>2026-04-04T09:04:14.235Z</time></trkpt><trkpt lat="44.1953767" lon="11.55851"><ele>444.0</ele><time>2026-04-04T09:04:15.235Z</time></trkpt><trkpt lat="44.1952733" lon="11.55864"><ele>437.4</ele><time>2026-04-04T09:04:16.235Z</time></trkpt><trkpt lat="44.1951983" lon="11.5587733"><ele>430.79999999999995</ele><time>2026-04-04T09:04:17.234Z</time></trkpt><trkpt lat="44.1951383" lon="11.55889"><ele>424.20000000000005</ele><time>2026-04-04T09:04:18.235Z</time></trkpt><trkpt lat="44.1950683" lon="11.5589617"><ele>417.6</ele><time>2026-04-04T09:04:19.234Z</time></trkpt><trkpt lat="44.1949683" lon="11.5589917"><ele>411.0</ele><time>2026-04-04T09:04:20.235Z</time></trkpt><trkpt lat="44.1948433" lon="11.5590117"><ele>412.25</ele><time>2026-04-04T09:04:21.234Z</time></trkpt><trkpt lat="44.194715" lon="11.5590433"><ele>413.5</ele><time>2026-04-04T09:04:22.235Z</time></trkpt><trkpt lat="44.19457" lon="11.5590783"><ele>414.75</ele><time>2026-04-04T09:04:23.235Z</time></trkpt><trkpt lat="44.1944233" lon="11.5591167"><ele>416.0</ele><time>2026-04-04T09:04:24.234Z</time></trkpt><trkpt lat="44.19428" lon="11.559155"><ele>416.0</ele><time>2026-04-04T09:04:25.235Z</time></trkpt><trkpt lat="44.1941417" lon="11.5592017"><ele>416.0</ele><time>2026-04-04T09:04:26.235Z</time></trkpt><trkpt lat="44.1940167" lon="11.5592517"><ele>416.0</ele><time>2026-04-04T09:04:27.235Z</time></trkpt><trkpt lat="44.1938883" lon="11.5593"><ele>416.0</ele><time>2026-04-04T09:04:28.235Z</time></trkpt><trkpt lat="44.1937533" lon="11.5593567"><ele>414.5</ele><time>2026-04-04T09:04:29.234Z</time></trkpt><trkpt lat="44.1936417" lon="11.5594317"><ele>413.0</ele><time>2026-04-04T09:04:30.235Z</time></trkpt><trkpt lat="44.1935317" lon="11.559535"><ele>411.5</ele><time>2026-04-04T09:04:31.235Z</time></trkpt><trkpt lat="44.1934033" lon="11.5596433"><ele>410.0</ele><time>2026-04-04T09:04:32.234Z</time></trkpt><trkpt lat="44.193255" lon="11.5597417"><ele>401.0</ele><time>2026-04-04T09:04:33.234Z</time></trkpt><trkpt lat="44.1930967" lon="11.55982"><ele>392.0</ele><time>2026-04-04T09:04:34.235Z</time></trkpt><trkpt lat="44.1929417" lon="11.5598933"><ele>383.0</ele><time>2026-04-04T09:04:35.234Z</time></trkpt><trkpt lat="44.1928033" lon="11.5599717"><ele>383.0</ele><time>2026-04-04T09:04:36.235Z</time></trkpt><trkpt lat="44.1926883" lon="11.56004"><ele>383.0</ele><time>2026-04-04T09:04:37.234Z</time></trkpt><trkpt lat="44.1925833" lon="11.5600917"><ele>383.0</ele><time>2026-04-04T09:04:38.234Z</time></trkpt><trkpt lat="44.1924883" lon="11.56011"><ele>383.0</ele><time>2026-04-04T09:04:39.235Z</time></trkpt><trkpt lat="44.1924017" lon="11.5600683"><ele>383.0</ele><time>2026-04-04T09:04:40.235Z</time></trkpt><trkpt lat="44.19232" lon="11.5599783"><ele>381.1666666666667</ele><time>2026-04-04T09:04:41.235Z</time></trkpt><trkpt lat="44.19226" lon="11.5598417"><ele>379.33333333333337</ele><time>2026-04-04T09:04:42.234Z</time></trkpt><trkpt lat="44.1922183" lon="11.5597183"><ele>377.5</ele><time>2026-04-04T09:04:43.235Z</time></trkpt><trkpt lat="44.19221" lon="11.5596067"><ele>375.6666666666667</ele><time>2026-04-04T09:04:44.235Z</time></trkpt><trkpt lat="44.1922317" lon="11.559505"><ele>373.8333333333333</ele><time>2026-04-04T09:04:45.234Z</time></trkpt><trkpt lat="44.1922683" lon="11.5594083"><ele>372.0</ele><time>2026-04-04T09:04:46.234Z</time></trkpt><trkpt lat="44.1922967" lon="11.559315"><ele>372.0</ele><time>2026-04-04T09:04:47.235Z</time></trkpt><trkpt lat="44.1922383" lon="11.5592283"><ele>372.0</ele><time>2026-04-04T09:04:49.234Z</time></trkpt><trkpt lat="44.1921733" lon="11.559285"><ele>372.0</ele><time>2026-04-04T09:04:50.235Z</time></trkpt><trkpt lat="44.19211" lon="11.5593883"><ele>372.0</ele><time>2026-04-04T09:04:51.235Z</time></trkpt><trkpt lat="44.1920733" lon="11.5595267"><ele>372.0</ele><time>2026-04-04T09:04:52.235Z</time></trkpt><trkpt lat="44.192095" lon="11.559715"><ele>371.75</ele><time>2026-04-04T09:04:53.235Z</time></trkpt><trkpt lat="44.19213" lon="11.5599"><ele>371.5</ele><time>2026-04-04T09:04:54.234Z</time></trkpt><trkpt lat="44.19214" lon="11.5600767"><ele>371.25</ele><time>2026-04-04T09:04:55.235Z</time></trkpt><trkpt lat="44.1921417" lon="11.5602333"><ele>371.0</ele><time>2026-04-04T09:04:56.235Z</time></trkpt><trkpt lat="44.1921533" lon="11.5603633"><ele>371.1666666666667</ele><time>2026-04-04T09:04:57.235Z</time></trkpt><trkpt lat="44.192185" lon="11.560465"><ele>371.33333333333337</ele><time>2026-04-04T09:04:58.234Z</time></trkpt><trkpt lat="44.192255" lon="11.56051"><ele>371.5</ele><time>2026-04-04T09:04:59.235Z</time></trkpt><trkpt lat="44.1923467" lon="11.5605183"><ele>371.6666666666667</ele><time>2026-04-04T09:05:00.234Z</time></trkpt><trkpt lat="44.1924433" lon="11.5605033"><ele>371.8333333333333</ele><time>2026-04-04T09:05:01.235Z</time></trkpt><trkpt lat="44.1925167" lon="11.5605083"><ele>372.0</ele><time>2026-04-04T09:05:02.235Z</time></trkpt><trkpt lat="44.1925933" lon="11.5605283"><ele>372.0</ele><time>2026-04-04T09:05:03.235Z</time></trkpt><trkpt lat="44.1926117" lon="11.5606533"><ele>372.0</ele><time>2026-04-04T09:05:05.235Z</time></trkpt><trkpt lat="44.1925483" lon="11.5607033"><ele>372.0</ele><time>2026-04-04T09:05:06.235Z</time></trkpt><trkpt lat="44.192465" lon="11.560745"><ele>372.0</ele><time>2026-04-04T09:05:07.235Z</time></trkpt><trkpt lat="44.1923617" lon="11.5607983"><ele>372.0</ele><time>2026-04-04T09:05:08.234Z</time></trkpt><trkpt lat="44.1922717" lon="11.5608883"><ele>372.0</ele><time>2026-04-04T09:05:09.234Z</time></trkpt><trkpt lat="44.1921783" lon="11.5609833"><ele>372.0</ele><time>2026-04-04T09:05:10.234Z</time></trkpt><trkpt lat="44.1920967" lon="11.5610733"><ele>372.0</ele><time>2026-04-04T09:05:11.235Z</time></trkpt><trkpt lat="44.192015" lon="11.5611067"><ele>372.0</ele><time>2026-04-04T09:05:12.235Z</time></trkpt><trkpt lat="44.1919333" lon="11.5611167"><ele>372.0</ele><time>2026-04-04T09:05:13.235Z</time></trkpt><trkpt lat="44.19187" lon="11.5611383"><ele>371.3333333333333</ele><time>2026-04-04T09:05:14.235Z</time></trkpt><trkpt lat="44.1918283" lon="11.5612083"><ele>370.6666666666667</ele><time>2026-04-04T09:05:15.235Z</time></trkpt><trkpt lat="44.1918133" lon="11.5613083"><ele>370.0</ele><time>2026-04-04T09:05:16.235Z</time></trkpt><trkpt lat="44.1918117" lon="11.561435"><ele>369.33333333333337</ele><time>2026-04-04T09:05:17.234Z</time></trkpt><trkpt lat="44.1918217" lon="11.56158"><ele>368.6666666666667</ele><time>2026-04-04T09:05:18.235Z</time></trkpt><trkpt lat="44.191845" lon="11.5617267"><ele>368.0</ele><time>2026-04-04T09:05:19.235Z</time></trkpt><trkpt lat="44.1918683" lon="11.5618717"><ele>368.0</ele><time>2026-04-04T09:05:20.234Z</time></trkpt><trkpt lat="44.1918883" lon="11.56201"><ele>368.0</ele><time>2026-04-04T09:05:21.235Z</time></trkpt><trkpt lat="44.1918983" lon="11.5621517"><ele>368.0</ele><time>2026-04-04T09:05:22.235Z</time></trkpt><trkpt lat="44.1919017" lon="11.5623"><ele>368.0</ele><time>2026-04-04T09:05:23.235Z</time></trkpt><trkpt lat="44.1918933" lon="11.5624467"><ele>368.0</ele><time>2026-04-04T09:05:24.234Z</time></trkpt><trkpt lat="44.1918667" lon="11.562605"><ele>368.5</ele><time>2026-04-04T09:05:25.235Z</time></trkpt><trkpt lat="44.19183" lon="11.56277"><ele>369.0</ele><time>2026-04-04T09:05:26.234Z</time></trkpt><trkpt lat="44.1918117" lon="11.562935"><ele>369.5</ele><time>2026-04-04T09:05:27.235Z</time></trkpt><trkpt lat="44.1918167" lon="11.56312"><ele>370.0</ele><time>2026-04-04T09:05:28.234Z</time></trkpt><trkpt lat="44.191815" lon="11.5633183"><ele>370.0</ele><time>2026-04-04T09:05:29.235Z</time></trkpt><trkpt lat="44.19181" lon="11.5635233"><ele>370.0</ele><time>2026-04-04T09:05:30.234Z</time></trkpt><trkpt lat="44.1918167" lon="11.5636967"><ele>370.0</ele><time>2026-04-04T09:05:31.235Z</time></trkpt><trkpt lat="44.191855" lon="11.56384"><ele>370.0</ele><time>2026-04-04T09:05:32.235Z</time></trkpt><trkpt lat="44.1919133" lon="11.563965"><ele>369.8</ele><time>2026-04-04T09:05:33.235Z</time></trkpt><trkpt lat="44.191965" lon="11.56407"><ele>369.6</ele><time>2026-04-04T09:05:34.235Z</time></trkpt><trkpt lat="44.192015" lon="11.5641717"><ele>369.4</ele><time>2026-04-04T09:05:35.234Z</time></trkpt><trkpt lat="44.19206" lon="11.5642817"><ele>369.2</ele><time>2026-04-04T09:05:36.234Z</time></trkpt><trkpt lat="44.1920933" lon="11.5644133"><ele>369.0</ele><time>2026-04-04T09:05:37.235Z</time></trkpt><trkpt lat="44.19212" lon="11.5645533"><ele>367.2</ele><time>2026-04-04T09:05:38.235Z</time></trkpt><trkpt lat="44.19212" lon="11.564705"><ele>365.4</ele><time>2026-04-04T09:05:39.235Z</time></trkpt><trkpt lat="44.19211" lon="11.564865"><ele>363.6</ele><time>2026-04-04T09:05:40.235Z</time></trkpt><trkpt lat="44.1920817" lon="11.565015"><ele>361.8</ele><time>2026-04-04T09:05:41.235Z</time></trkpt><trkpt lat="44.1920417" lon="11.5651633"><ele>360.0</ele><time>2026-04-04T09:05:42.236Z</time></trkpt><trkpt lat="44.1920067" lon="11.5653033"><ele>358.2</ele><time>2026-04-04T09:05:43.235Z</time></trkpt><trkpt lat="44.1919683" lon="11.5654317"><ele>356.4</ele><time>2026-04-04T09:05:44.236Z</time></trkpt><trkpt lat="44.191925" lon="11.56555"><ele>354.6</ele><time>2026-04-04T09:05:45.236Z</time></trkpt><trkpt lat="44.1918717" lon="11.5656667"><ele>352.8</ele><time>2026-04-04T09:05:46.235Z</time></trkpt><trkpt lat="44.1918133" lon="11.5657917"><ele>351.0</ele><time>2026-04-04T09:05:47.236Z</time></trkpt><trkpt lat="44.1917517" lon="11.5659367"><ele>351.0</ele><time>2026-04-04T09:05:48.235Z</time></trkpt><trkpt lat="44.1916767" lon="11.5660717"><ele>351.0</ele><time>2026-04-04T09:05:49.236Z</time></trkpt><trkpt lat="44.1915917" lon="11.56618"><ele>351.0</ele><time>2026-04-04T09:05:50.236Z</time></trkpt><trkpt lat="44.1915067" lon="11.5662667"><ele>351.0</ele><time>2026-04-04T09:05:51.236Z</time></trkpt><trkpt lat="44.1914167" lon="11.5663417"><ele>351.0</ele><time>2026-04-04T09:05:52.236Z</time></trkpt><trkpt lat="44.19134" lon="11.5664067"><ele>352.1666666666667</ele><time>2026-04-04T09:05:53.236Z</time></trkpt><trkpt lat="44.1912883" lon="11.566465"><ele>353.3333333333333</ele><time>2026-04-04T09:05:54.236Z</time></trkpt><trkpt lat="44.1912833" lon="11.566575"><ele>354.5</ele><time>2026-04-04T09:05:56.236Z</time></trkpt><trkpt lat="44.191315" lon="11.5666533"><ele>355.66666666666663</ele><time>2026-04-04T09:05:57.236Z</time></trkpt><trkpt lat="44.1913283" lon="11.5668367"><ele>356.8333333333333</ele><time>2026-04-04T09:05:59.236Z</time></trkpt><trkpt lat="44.1912817" lon="11.56694"><ele>358.0</ele><time>2026-04-04T09:06:00.235Z</time></trkpt><trkpt lat="44.1912283" lon="11.5670583"><ele>358.0</ele><time>2026-04-04T09:06:01.236Z</time></trkpt><trkpt lat="44.1912" lon="11.5672033"><ele>358.0</ele><time>2026-04-04T09:06:02.236Z</time></trkpt><trkpt lat="44.19119" lon="11.567335"><ele>358.0</ele><time>2026-04-04T09:06:03.235Z</time></trkpt><trkpt lat="44.1911833" lon="11.5674467"><ele>358.0</ele><time>2026-04-04T09:06:04.235Z</time></trkpt><trkpt lat="44.1912117" lon="11.567575"><ele>358.0</ele><time>2026-04-04T09:06:06.235Z</time></trkpt><trkpt lat="44.1913033" lon="11.5676483"><ele>358.0</ele><time>2026-04-04T09:06:08.236Z</time></trkpt><trkpt lat="44.1913817" lon="11.5676683"><ele>358.0</ele><time>2026-04-04T09:06:09.236Z</time></trkpt><trkpt lat="44.191465" lon="11.5676783"><ele>358.0</ele><time>2026-04-04T09:06:10.236Z</time></trkpt><trkpt lat="44.191545" lon="11.56769"><ele>358.0</ele><time>2026-04-04T09:06:11.235Z</time></trkpt><trkpt lat="44.1916083" lon="11.5676833"><ele>358.0</ele><time>2026-04-04T09:06:12.236Z</time></trkpt><trkpt lat="44.1916967" lon="11.5676"><ele>358.0</ele><time>2026-04-04T09:06:14.236Z</time></trkpt><trkpt lat="44.1917833" lon="11.5675317"><ele>357.5</ele><time>2026-04-04T09:06:16.235Z</time></trkpt><trkpt lat="44.19188" lon="11.5675867"><ele>357.0</ele><time>2026-04-04T09:06:18.236Z</time></trkpt><trkpt lat="44.191935" lon="11.5676583"><ele>356.5</ele><time>2026-04-04T09:06:19.236Z</time></trkpt><trkpt lat="44.191995" lon="11.5677217"><ele>356.0</ele><time>2026-04-04T09:06:20.235Z</time></trkpt><trkpt lat="44.1920633" lon="11.567755"><ele>355.5</ele><time>2026-04-04T09:06:21.235Z</time></trkpt><trkpt lat="44.1921333" lon="11.567765"><ele>355.0</ele><time>2026-04-04T09:06:22.236Z</time></trkpt><trkpt lat="44.1922133" lon="11.5677483"><ele>355.0</ele><time>2026-04-04T09:06:23.235Z</time></trkpt><trkpt lat="44.1922917" lon="11.5677267"><ele>355.0</ele><time>2026-04-04T09:06:24.236Z</time></trkpt><trkpt lat="44.1923717" lon="11.5676983"><ele>355.0</ele><time>2026-04-04T09:06:25.236Z</time></trkpt><trkpt lat="44.1924483" lon="11.567665"><ele>355.0</ele><time>2026-04-04T09:06:26.236Z</time></trkpt><trkpt lat="44.19251" lon="11.56762"><ele>355.0</ele><time>2026-04-04T09:06:27.235Z</time></trkpt><trkpt lat="44.19256" lon="11.567565"><ele>355.0</ele><time>2026-04-04T09:06:28.236Z</time></trkpt><trkpt lat="44.1926017" lon="11.5674867"><ele>355.0</ele><time>2026-04-04T09:06:29.236Z</time></trkpt><trkpt lat="44.1926167" lon="11.5673933"><ele>355.0</ele><time>2026-04-04T09:06:30.236Z</time></trkpt><trkpt lat="44.1926083" lon="11.5673"><ele>355.0</ele><time>2026-04-04T09:06:31.235Z</time></trkpt><trkpt lat="44.1925717" lon="11.5672133"><ele>355.0</ele><time>2026-04-04T09:06:32.236Z</time></trkpt><trkpt lat="44.1925083" lon="11.5671533"><ele>355.0</ele><time>2026-04-04T09:06:33.235Z</time></trkpt><trkpt lat="44.1924283" lon="11.5671167"><ele>355.0</ele><time>2026-04-04T09:06:34.236Z</time></trkpt><trkpt lat="44.1923333" lon="11.5671133"><ele>355.0</ele><time>2026-04-04T09:06:35.235Z</time></trkpt><trkpt lat="44.192245" lon="11.5671117"><ele>355.0</ele><time>2026-04-04T09:06:36.235Z</time></trkpt><trkpt lat="44.19217" lon="11.5671117"><ele>355.0</ele><time>2026-04-04T09:06:37.236Z</time></trkpt><trkpt lat="44.1920717" lon="11.5670417"><ele>355.0</ele><time>2026-04-04T09:06:39.236Z</time></trkpt><trkpt lat="44.1920717" lon="11.5668917"><ele>355.0</ele><time>2026-04-04T09:06:41.236Z</time></trkpt><trkpt lat="44.192115" lon="11.5667917"><ele>355.0</ele><time>2026-04-04T09:06:42.235Z</time></trkpt><trkpt lat="44.19218" lon="11.5666783"><ele>354.25</ele><time>2026-04-04T09:06:43.235Z</time></trkpt><trkpt lat="44.1922517" lon="11.566555"><ele>353.5</ele><time>2026-04-04T09:06:44.236Z</time></trkpt><trkpt lat="44.1923283" lon="11.5664033"><ele>352.75</ele><time>2026-04-04T09:06:45.235Z</time></trkpt><trkpt lat="44.1924117" lon="11.5662383"><ele>352.0</ele><time>2026-04-04T09:06:46.236Z</time></trkpt><trkpt lat="44.1925017" lon="11.5660767"><ele>358.25</ele><time>2026-04-04T09:06:47.236Z</time></trkpt><trkpt lat="44.1925983" lon="11.5659183"><ele>364.5</ele><time>2026-04-04T09:06:48.236Z</time></trkpt><trkpt lat="44.1926833" lon="11.5657533"><ele>370.75</ele><time>2026-04-04T09:06:49.235Z</time></trkpt><trkpt lat="44.1927467" lon="11.5655917"><ele>377.0</ele><time>2026-04-04T09:06:50.236Z</time></trkpt><trkpt lat="44.1927967" lon="11.5654467"><ele>377.6666666666667</ele><time>2026-04-04T09:06:51.236Z</time></trkpt><trkpt lat="44.1928417" lon="11.5653267"><ele>378.33333333333337</ele><time>2026-04-04T09:06:52.236Z</time></trkpt><trkpt lat="44.1928883" lon="11.5652383"><ele>379.0</ele><time>2026-04-04T09:06:53.236Z</time></trkpt><trkpt lat="44.19294" lon="11.5651817"><ele>379.6666666666667</ele><time>2026-04-04T09:06:54.236Z</time></trkpt><trkpt lat="44.193005" lon="11.5651533"><ele>380.3333333333333</ele><time>2026-04-04T09:06:55.236Z</time></trkpt><trkpt lat="44.1930867" lon="11.5651667"><ele>381.0</ele><time>2026-04-04T09:06:56.236Z</time></trkpt><trkpt lat="44.1931783" lon="11.5652083"><ele>381.0</ele><time>2026-04-04T09:06:57.235Z</time></trkpt><trkpt lat="44.1932717" lon="11.5652433"><ele>381.0</ele><time>2026-04-04T09:06:58.235Z</time></trkpt><trkpt lat="44.1933583" lon="11.5652467"><ele>381.0</ele><time>2026-04-04T09:06:59.236Z</time></trkpt><trkpt lat="44.1934417" lon="11.565215"><ele>381.0</ele><time>2026-04-04T09:07:00.236Z</time></trkpt><trkpt lat="44.1935283" lon="11.5651483"><ele>381.0</ele><time>2026-04-04T09:07:01.236Z</time></trkpt><trkpt lat="44.193625" lon="11.56511"><ele>381.0</ele><time>2026-04-04T09:07:02.236Z</time></trkpt><trkpt lat="44.1937433" lon="11.565095"><ele>381.0</ele><time>2026-04-04T09:07:03.236Z</time></trkpt><trkpt lat="44.1938767" lon="11.56508"><ele>381.0</ele><time>2026-04-04T09:07:04.235Z</time></trkpt><trkpt lat="44.1940117" lon="11.5650467"><ele>381.0</ele><time>2026-04-04T09:07:05.236Z</time></trkpt><trkpt lat="44.194135" lon="11.5650083"><ele>385.25</ele><time>2026-04-04T09:07:06.236Z</time></trkpt><trkpt lat="44.1942533" lon="11.56495"><ele>389.5</ele><time>2026-04-04T09:07:07.236Z</time></trkpt><trkpt lat="44.194365" lon="11.56487"><ele>393.75</ele><time>2026-04-04T09:07:08.235Z</time></trkpt><trkpt lat="44.194475" lon="11.5647767"><ele>398.0</ele><time>2026-04-04T09:07:09.235Z</time></trkpt><trkpt lat="44.1945917" lon="11.5646917"><ele>398.0</ele><time>2026-04-04T09:07:10.235Z</time></trkpt><trkpt lat="44.1947117" lon="11.56462"><ele>398.0</ele><time>2026-04-04T09:07:11.236Z</time></trkpt><trkpt lat="44.19483" lon="11.56457"><ele>398.0</ele><time>2026-04-04T09:07:12.235Z</time></trkpt><trkpt lat="44.1949417" lon="11.564525"><ele>398.0</ele><time>2026-04-04T09:07:13.235Z</time></trkpt><trkpt lat="44.1950683" lon="11.5645"><ele>394.0</ele><time>2026-04-04T09:07:14.236Z</time></trkpt><trkpt lat="44.1951933" lon="11.5644967"><ele>390.0</ele><time>2026-04-04T09:07:15.236Z</time></trkpt><trkpt lat="44.1953217" lon="11.5645033"><ele>386.0</ele><time>2026-04-04T09:07:16.236Z</time></trkpt><trkpt lat="44.1954421" lon="11.5645301"><ele>382.0</ele><time>2026-04-04T09:07:17.236Z</time></trkpt><trkpt lat="44.1955694" lon="11.564563"><ele>384.66666666666663</ele><time>2026-04-04T09:07:18.236Z</time></trkpt><trkpt lat="44.1957184" lon="11.5645573"><ele>387.3333333333333</ele><time>2026-04-04T09:07:19.236Z</time></trkpt><trkpt lat="44.1958894" lon="11.5645286"><ele>390.0</ele><time>2026-04-04T09:07:20.236Z</time></trkpt><trkpt lat="44.1960596" lon="11.5645038"><ele>390.0</ele><time>2026-04-04T09:07:21.236Z</time></trkpt><trkpt lat="44.1962121" lon="11.5644888"><ele>390.0</ele><time>2026-04-04T09:07:22.236Z</time></trkpt><trkpt lat="44.1963483" lon="11.564462"><ele>390.0</ele><time>2026-04-04T09:07:23.236Z</time></trkpt><trkpt lat="44.1964854" lon="11.5644128"><ele>390.0</ele><time>2026-04-04T09:07:24.235Z</time></trkpt><trkpt lat="44.1966142" lon="11.5643611"><ele>391.0</ele><time>2026-04-04T09:07:25.236Z</time></trkpt><trkpt lat="44.196742" lon="11.564329"><ele>392.0</ele><time>2026-04-04T09:07:26.235Z</time></trkpt><trkpt lat="44.1968706" lon="11.5643188"><ele>393.0</ele><time>2026-04-04T09:07:27.235Z</time></trkpt><trkpt lat="44.1970057" lon="11.5643281"><ele>394.0</ele><time>2026-04-04T09:07:28.236Z</time></trkpt><trkpt lat="44.1971441" lon="11.5643355"><ele>394.0</ele><time>2026-04-04T09:07:29.236Z</time></trkpt><trkpt lat="44.1972842" lon="11.564311"><ele>394.0</ele><time>2026-04-04T09:07:30.236Z</time></trkpt><trkpt lat="44.1974241" lon="11.5642524"><ele>394.0</ele><time>2026-04-04T09:07:31.236Z</time></trkpt><trkpt lat="44.1975757" lon="11.5641895"><ele>394.0</ele><time>2026-04-04T09:07:32.235Z</time></trkpt><trkpt lat="44.1977209" lon="11.5641291"><ele>396.0</ele><time>2026-04-04T09:07:33.236Z</time></trkpt><trkpt lat="44.1978538" lon="11.5640666"><ele>398.0</ele><time>2026-04-04T09:07:34.236Z</time></trkpt><trkpt lat="44.197979" lon="11.5640081"><ele>400.0</ele><time>2026-04-04T09:07:35.236Z</time></trkpt><trkpt lat="44.1981041" lon="11.5639882"><ele>402.0</ele><time>2026-04-04T09:07:36.236Z</time></trkpt><trkpt lat="44.1982228" lon="11.5639779"><ele>403.3333333333333</ele><time>2026-04-04T09:07:37.236Z</time></trkpt><trkpt lat="44.1983301" lon="11.5639538"><ele>404.66666666666663</ele><time>2026-04-04T09:07:38.236Z</time></trkpt><trkpt lat="44.1984279" lon="11.5639153"><ele>406.0</ele><time>2026-04-04T09:07:39.235Z</time></trkpt><trkpt lat="44.1985138" lon="11.563902"><ele>407.3333333333333</ele><time>2026-04-04T09:07:40.235Z</time></trkpt><trkpt lat="44.1985847" lon="11.5639219"><ele>408.66666666666663</ele><time>2026-04-04T09:07:41.236Z</time></trkpt><trkpt lat="44.1986433" lon="11.5639776"><ele>410.0</ele><time>2026-04-04T09:07:42.236Z</time></trkpt><trkpt lat="44.1986975" lon="11.5640652"><ele>410.0</ele><time>2026-04-04T09:07:43.235Z</time></trkpt><trkpt lat="44.1987598" lon="11.5641731"><ele>410.0</ele><time>2026-04-04T09:07:44.236Z</time></trkpt><trkpt lat="44.1988386" lon="11.5642898"><ele>410.0</ele><time>2026-04-04T09:07:45.236Z</time></trkpt><trkpt lat="44.1989343" lon="11.5644065"><ele>410.0</ele><time>2026-04-04T09:07:46.235Z</time></trkpt><trkpt lat="44.1990518" lon="11.5645216"><ele>415.0</ele><time>2026-04-04T09:07:47.236Z</time></trkpt><trkpt lat="44.1991691" lon="11.5646417"><ele>420.0</ele><time>2026-04-04T09:07:48.236Z</time></trkpt><trkpt lat="44.1992732" lon="11.5647843"><ele>425.0</ele><time>2026-04-04T09:07:49.236Z</time></trkpt><trkpt lat="44.1993632" lon="11.564932"><ele>430.0</ele><time>2026-04-04T09:07:50.236Z</time></trkpt><trkpt lat="44.1994335" lon="11.5650501"><ele>430.0</ele><time>2026-04-04T09:07:51.236Z</time></trkpt><trkpt lat="44.1994991" lon="11.5651233"><ele>430.0</ele><time>2026-04-04T09:07:52.236Z</time></trkpt><trkpt lat="44.1995765" lon="11.5651625"><ele>430.0</ele><time>2026-04-04T09:07:53.236Z</time></trkpt><trkpt lat="44.1996695" lon="11.5651672"><ele>430.0</ele><time>2026-04-04T09:07:54.235Z</time></trkpt><trkpt lat="44.1997749" lon="11.5651385"><ele>430.0</ele><time>2026-04-04T09:07:55.236Z</time></trkpt><trkpt lat="44.1998988" lon="11.5650906"><ele>430.8</ele><time>2026-04-04T09:07:56.236Z</time></trkpt><trkpt lat="44.2000245" lon="11.5650707"><ele>431.6</ele><time>2026-04-04T09:07:57.235Z</time></trkpt><trkpt lat="44.2001343" lon="11.5650848"><ele>432.4</ele><time>2026-04-04T09:07:58.236Z</time></trkpt><trkpt lat="44.200215" lon="11.5651484"><ele>433.2</ele><time>2026-04-04T09:07:59.236Z</time></trkpt><trkpt lat="44.2002765" lon="11.565248"><ele>434.0</ele><time>2026-04-04T09:08:00.236Z</time></trkpt><trkpt lat="44.2003243" lon="11.5653918"><ele>434.0</ele><time>2026-04-04T09:08:01.236Z</time></trkpt><trkpt lat="44.200373" lon="11.5655622"><ele>434.0</ele><time>2026-04-04T09:08:02.236Z</time></trkpt><trkpt lat="44.2004238" lon="11.5657289"><ele>434.0</ele><time>2026-04-04T09:08:03.236Z</time></trkpt><trkpt lat="44.2004913" lon="11.5658491"><ele>434.0</ele><time>2026-04-04T09:08:04.236Z</time></trkpt><trkpt lat="44.2005827" lon="11.5659433"><ele>434.0</ele><time>2026-04-04T09:08:05.235Z</time></trkpt><trkpt lat="44.200685" lon="11.5660294"><ele>434.0</ele><time>2026-04-04T09:08:06.235Z</time></trkpt><trkpt lat="44.2008055" lon="11.5661073"><ele>434.0</ele><time>2026-04-04T09:08:07.236Z</time></trkpt><trkpt lat="44.2009216" lon="11.5661869"><ele>434.0</ele><time>2026-04-04T09:08:08.236Z</time></trkpt><trkpt lat="44.2010176" lon="11.5662852"><ele>433.4</ele><time>2026-04-04T09:08:09.236Z</time></trkpt><trkpt lat="44.2010907" lon="11.5664027"><ele>432.79999999999995</ele><time>2026-04-04T09:08:10.236Z</time></trkpt><trkpt lat="44.2011523" lon="11.566528"><ele>432.20000000000005</ele><time>2026-04-04T09:08:11.236Z</time></trkpt><trkpt lat="44.2012287" lon="11.5666243"><ele>431.6</ele><time>2026-04-04T09:08:12.236Z</time></trkpt><trkpt lat="44.2013275" lon="11.5667101"><ele>431.0</ele><time>2026-04-04T09:08:13.235Z</time></trkpt><trkpt lat="44.2014264" lon="11.5668083"><ele>434.0</ele><time>2026-04-04T09:08:14.236Z</time></trkpt><trkpt lat="44.2015271" lon="11.5669327"><ele>437.0</ele><time>2026-04-04T09:08:15.236Z</time></trkpt><trkpt lat="44.2016303" lon="11.5670548"><ele>440.0</ele><time>2026-04-04T09:08:16.235Z</time></trkpt><trkpt lat="44.2017407" lon="11.5671631"><ele>443.0</ele><time>2026-04-04T09:08:17.236Z</time></trkpt><trkpt lat="44.201872" lon="11.5672477"><ele>443.0</ele><time>2026-04-04T09:08:18.236Z</time></trkpt><trkpt lat="44.2020204" lon="11.5672952"><ele>443.0</ele><time>2026-04-04T09:08:19.236Z</time></trkpt><trkpt lat="44.202173" lon="11.5673279"><ele>443.0</ele><time>2026-04-04T09:08:20.236Z</time></trkpt><trkpt lat="44.2023242" lon="11.5673729"><ele>443.75</ele><time>2026-04-04T09:08:21.235Z</time></trkpt><trkpt lat="44.2024594" lon="11.5674242"><ele>444.5</ele><time>2026-04-04T09:08:22.236Z</time></trkpt><trkpt lat="44.2025661" lon="11.5674903"><ele>445.25</ele><time>2026-04-04T09:08:23.236Z</time></trkpt><trkpt lat="44.2026598" lon="11.5675788"><ele>446.0</ele><time>2026-04-04T09:08:24.235Z</time></trkpt><trkpt lat="44.2027344" lon="11.5676918"><ele>446.0</ele><time>2026-04-04T09:08:25.236Z</time></trkpt><trkpt lat="44.2028028" lon="11.5678065"><ele>446.0</ele><time>2026-04-04T09:08:26.235Z</time></trkpt><trkpt lat="44.2028844" lon="11.5679074"><ele>446.0</ele><time>2026-04-04T09:08:27.236Z</time></trkpt><trkpt lat="44.2029889" lon="11.5679692"><ele>446.0</ele><time>2026-04-04T09:08:28.236Z</time></trkpt><trkpt lat="44.2031162" lon="11.5679938"><ele>446.0</ele><time>2026-04-04T09:08:29.236Z</time></trkpt><trkpt lat="44.2032693" lon="11.5679849"><ele>446.0</ele><time>2026-04-04T09:08:30.235Z</time></trkpt><trkpt lat="44.2034281" lon="11.5679588"><ele>446.0</ele><time>2026-04-04T09:08:31.236Z</time></trkpt><trkpt lat="44.2035689" lon="11.5679288"><ele>446.0</ele><time>2026-04-04T09:08:32.236Z</time></trkpt><trkpt lat="44.2036903" lon="11.5678857"><ele>446.0</ele><time>2026-04-04T09:08:33.236Z</time></trkpt><trkpt lat="44.2037907" lon="11.5678398"><ele>446.0</ele><time>2026-04-04T09:08:34.236Z</time></trkpt><trkpt lat="44.2038814" lon="11.567826"><ele>446.0</ele><time>2026-04-04T09:08:35.236Z</time></trkpt><trkpt lat="44.2039795" lon="11.567853"><ele>446.0</ele><time>2026-04-04T09:08:36.236Z</time></trkpt><trkpt lat="44.204086" lon="11.5679072"><ele>447.75</ele><time>2026-04-04T09:08:37.236Z</time></trkpt><trkpt lat="44.204203" lon="11.5679725"><ele>449.5</ele><time>2026-04-04T09:08:38.236Z</time></trkpt><trkpt lat="44.2043291" lon="11.5680277"><ele>451.25</ele><time>2026-04-04T09:08:39.236Z</time></trkpt><trkpt lat="44.2044665" lon="11.5680744"><ele>453.0</ele><time>2026-04-04T09:08:40.236Z</time></trkpt><trkpt lat="44.204614" lon="11.5681049"><ele>453.0</ele><time>2026-04-04T09:08:41.235Z</time></trkpt><trkpt lat="44.2047632" lon="11.5681371"><ele>453.0</ele><time>2026-04-04T09:08:42.236Z</time></trkpt><trkpt lat="44.2049192" lon="11.5681772"><ele>453.0</ele><time>2026-04-04T09:08:43.235Z</time></trkpt><trkpt lat="44.2050897" lon="11.5682146"><ele>456.66666666666663</ele><time>2026-04-04T09:08:44.235Z</time></trkpt><trkpt lat="44.2052607" lon="11.5682563"><ele>460.3333333333333</ele><time>2026-04-04T09:08:45.236Z</time></trkpt><trkpt lat="44.2054338" lon="11.5683032"><ele>464.0</ele><time>2026-04-04T09:08:46.236Z</time></trkpt><trkpt lat="44.2055978" lon="11.5683711"><ele>468.0</ele><time>2026-04-04T09:08:47.236Z</time></trkpt><trkpt lat="44.2057425" lon="11.5684452"><ele>472.0</ele><time>2026-04-04T09:08:48.236Z</time></trkpt><trkpt lat="44.2058858" lon="11.5684998"><ele>476.0</ele><time>2026-04-04T09:08:49.236Z</time></trkpt><trkpt lat="44.2060262" lon="11.5685341"><ele>480.0</ele><time>2026-04-04T09:08:50.236Z</time></trkpt><trkpt lat="44.2061719" lon="11.5685465"><ele>480.0</ele><time>2026-04-04T09:08:51.235Z</time></trkpt><trkpt lat="44.2063225" lon="11.5685564"><ele>480.0</ele><time>2026-04-04T09:08:52.236Z</time></trkpt><trkpt lat="44.2064635" lon="11.5685643"><ele>480.0</ele><time>2026-04-04T09:08:53.236Z</time></trkpt><trkpt lat="44.206587" lon="11.568568"><ele>480.0</ele><time>2026-04-04T09:08:54.235Z</time></trkpt><trkpt lat="44.2066787" lon="11.5685626"><ele>482.8333333333333</ele><time>2026-04-04T09:08:55.235Z</time></trkpt><trkpt lat="44.2067416" lon="11.5685429"><ele>485.66666666666663</ele><time>2026-04-04T09:08:56.236Z</time></trkpt><trkpt lat="44.206796" lon="11.5684973"><ele>488.5</ele><time>2026-04-04T09:08:57.236Z</time></trkpt><trkpt lat="44.2068549" lon="11.5684162"><ele>491.3333333333333</ele><time>2026-04-04T09:08:58.235Z</time></trkpt><trkpt lat="44.2069283" lon="11.5683062"><ele>494.16666666666663</ele><time>2026-04-04T09:08:59.236Z</time></trkpt><trkpt lat="44.2070137" lon="11.5681774"><ele>497.0</ele><time>2026-04-04T09:09:00.236Z</time></trkpt><trkpt lat="44.2071092" lon="11.5680511"><ele>497.0</ele><time>2026-04-04T09:09:01.236Z</time></trkpt><trkpt lat="44.207221" lon="11.5679486"><ele>497.0</ele><time>2026-04-04T09:09:02.236Z</time></trkpt><trkpt lat="44.2073468" lon="11.5678611"><ele>497.0</ele><time>2026-04-04T09:09:03.236Z</time></trkpt><trkpt lat="44.2074725" lon="11.5677983"><ele>497.0</ele><time>2026-04-04T09:09:04.235Z</time></trkpt><trkpt lat="44.2075958" lon="11.5677535"><ele>502.25</ele><time>2026-04-04T09:09:05.235Z</time></trkpt><trkpt lat="44.2077078" lon="11.5676913"><ele>507.5</ele><time>2026-04-04T09:09:06.235Z</time></trkpt><trkpt lat="44.2078045" lon="11.5676135"><ele>512.75</ele><time>2026-04-04T09:09:07.236Z</time></trkpt><trkpt lat="44.2078846" lon="11.5675029"><ele>518.0</ele><time>2026-04-04T09:09:08.236Z</time></trkpt><trkpt lat="44.2079523" lon="11.5673621"><ele>518.0</ele><time>2026-04-04T09:09:09.236Z</time></trkpt><trkpt lat="44.2080199" lon="11.5672276"><ele>518.0</ele><time>2026-04-04T09:09:10.236Z</time></trkpt><trkpt lat="44.2080993" lon="11.5671108"><ele>518.0</ele><time>2026-04-04T09:09:11.236Z</time></trkpt><trkpt lat="44.2081912" lon="11.5669964"><ele>518.0</ele><time>2026-04-04T09:09:12.236Z</time></trkpt><trkpt lat="44.2082815" lon="11.5668661"><ele>520.0</ele><time>2026-04-04T09:09:13.236Z</time></trkpt><trkpt lat="44.2083682" lon="11.5667148"><ele>522.0</ele><time>2026-04-04T09:09:14.236Z</time></trkpt><trkpt lat="44.2084488" lon="11.5665576"><ele>524.0</ele><time>2026-04-04T09:09:15.236Z</time></trkpt><trkpt lat="44.2085238" lon="11.5664085"><ele>526.0</ele><time>2026-04-04T09:09:16.236Z</time></trkpt><trkpt lat="44.2085913" lon="11.5662754"><ele>530.1666666666667</ele><time>2026-04-04T09:09:17.236Z</time></trkpt><trkpt lat="44.208649" lon="11.5661777"><ele>534.3333333333334</ele><time>2026-04-04T09:09:18.236Z</time></trkpt><trkpt lat="44.2086877" lon="11.5660923"><ele>538.5</ele><time>2026-04-04T09:09:19.235Z</time></trkpt><trkpt lat="44.2086689" lon="11.5659357"><ele>542.6666666666666</ele><time>2026-04-04T09:09:21.236Z</time></trkpt><trkpt lat="44.2086112" lon="11.5658817"><ele>546.8333333333333</ele><time>2026-04-04T09:09:22.236Z</time></trkpt><trkpt lat="44.20852" lon="11.5658465"><ele>551.0</ele><time>2026-04-04T09:09:23.236Z</time></trkpt><trkpt lat="44.2084061" lon="11.5658291"><ele>551.0</ele><time>2026-04-04T09:09:24.236Z</time></trkpt><trkpt lat="44.2082786" lon="11.5658204"><ele>551.0</ele><time>2026-04-04T09:09:25.236Z</time></trkpt><trkpt lat="44.2081483" lon="11.5658208"><ele>551.0</ele><time>2026-04-04T09:09:26.235Z</time></trkpt><trkpt lat="44.2080251" lon="11.5658331"><ele>551.0</ele><time>2026-04-04T09:09:27.236Z</time></trkpt><trkpt lat="44.2078961" lon="11.5658722"><ele>553.25</ele><time>2026-04-04T09:09:28.236Z</time></trkpt><trkpt lat="44.2077607" lon="11.5659206"><ele>555.5</ele><time>2026-04-04T09:09:29.235Z</time></trkpt><trkpt lat="44.2076288" lon="11.5659752"><ele>557.75</ele><time>2026-04-04T09:09:30.236Z</time></trkpt><trkpt lat="44.2075033" lon="11.5660433"><ele>560.0</ele><time>2026-04-04T09:09:31.235Z</time></trkpt><trkpt lat="44.2073917" lon="11.5661067"><ele>560.2</ele><time>2026-04-04T09:09:32.236Z</time></trkpt><trkpt lat="44.2072933" lon="11.5661517"><ele>560.4</ele><time>2026-04-04T09:09:33.236Z</time></trkpt><trkpt lat="44.20722" lon="11.56618"><ele>560.6</ele><time>2026-04-04T09:09:34.235Z</time></trkpt><trkpt lat="44.207145" lon="11.5661333"><ele>560.8</ele><time>2026-04-04T09:09:36.236Z</time></trkpt><trkpt lat="44.2071717" lon="11.565955"><ele>561.0</ele><time>2026-04-04T09:09:38.235Z</time></trkpt><trkpt lat="44.20721" lon="11.5658567"><ele>561.0</ele><time>2026-04-04T09:09:39.236Z</time></trkpt><trkpt lat="44.207265" lon="11.565735"><ele>561.0</ele><time>2026-04-04T09:09:40.236Z</time></trkpt><trkpt lat="44.20732" lon="11.56561"><ele>561.0</ele><time>2026-04-04T09:09:41.236Z</time></trkpt><trkpt lat="44.2073667" lon="11.5654683"><ele>561.0</ele><time>2026-04-04T09:09:42.236Z</time></trkpt><trkpt lat="44.2074267" lon="11.56537"><ele>561.0</ele><time>2026-04-04T09:09:43.236Z</time></trkpt><trkpt lat="44.2075117" lon="11.565295"><ele>566.2</ele><time>2026-04-04T09:09:44.236Z</time></trkpt><trkpt lat="44.2076133" lon="11.5652567"><ele>571.4000000000001</ele><time>2026-04-04T09:09:45.236Z</time></trkpt><trkpt lat="44.2077217" lon="11.5652317"><ele>576.6</ele><time>2026-04-04T09:09:46.236Z</time></trkpt><trkpt lat="44.20782" lon="11.5651833"><ele>581.8000000000001</ele><time>2026-04-04T09:09:47.236Z</time></trkpt><trkpt lat="44.2079167" lon="11.5651133"><ele>587.0</ele><time>2026-04-04T09:09:48.235Z</time></trkpt><trkpt lat="44.2080233" lon="11.56503"><ele>587.0</ele><time>2026-04-04T09:09:49.236Z</time></trkpt><trkpt lat="44.2081317" lon="11.5649417"><ele>587.0</ele><time>2026-04-04T09:09:50.235Z</time></trkpt><trkpt lat="44.2082417" lon="11.5648167"><ele>587.0</ele><time>2026-04-04T09:09:51.236Z</time></trkpt><trkpt lat="44.208365" lon="11.56467"><ele>587.0</ele><time>2026-04-04T09:09:52.235Z</time></trkpt><trkpt lat="44.2084917" lon="11.5645333"><ele>589.0</ele><time>2026-04-04T09:09:53.236Z</time></trkpt><trkpt lat="44.208605" lon="11.56439"><ele>591.0</ele><time>2026-04-04T09:09:54.236Z</time></trkpt><trkpt lat="44.2087067" lon="11.5642833"><ele>593.0</ele><time>2026-04-04T09:09:55.236Z</time></trkpt><trkpt lat="44.208825" lon="11.5642217"><ele>595.0</ele><time>2026-04-04T09:09:56.235Z</time></trkpt><trkpt lat="44.2089483" lon="11.56418"><ele>595.8</ele><time>2026-04-04T09:09:57.235Z</time></trkpt><trkpt lat="44.2090683" lon="11.5641433"><ele>596.6</ele><time>2026-04-04T09:09:58.235Z</time></trkpt><trkpt lat="44.20916" lon="11.564095"><ele>597.4</ele><time>2026-04-04T09:09:59.236Z</time></trkpt><trkpt lat="44.2092383" lon="11.5640583"><ele>598.2</ele><time>2026-04-04T09:10:00.236Z</time></trkpt><trkpt lat="44.20936" lon="11.56414"><ele>599.0</ele><time>2026-04-04T09:10:02.236Z</time></trkpt><trkpt lat="44.20942" lon="11.5642417"><ele>599.0</ele><time>2026-04-04T09:10:03.235Z</time></trkpt><trkpt lat="44.2094767" lon="11.564365"><ele>599.0</ele><time>2026-04-04T09:10:04.235Z</time></trkpt><trkpt lat="44.2095333" lon="11.5644633"><ele>599.0</ele><time>2026-04-04T09:10:05.235Z</time></trkpt><trkpt lat="44.2095933" lon="11.5645083"><ele>599.0</ele><time>2026-04-04T09:10:06.236Z</time></trkpt><trkpt lat="44.2096717" lon="11.56452"><ele>599.0</ele><time>2026-04-04T09:10:07.236Z</time></trkpt><trkpt lat="44.2097733" lon="11.5645067"><ele>599.0</ele><time>2026-04-04T09:10:08.236Z</time></trkpt><trkpt lat="44.20988" lon="11.5645133"><ele>599.0</ele><time>2026-04-04T09:10:09.235Z</time></trkpt><trkpt lat="44.2099767" lon="11.5645633"><ele>599.0</ele><time>2026-04-04T09:10:10.235Z</time></trkpt><trkpt lat="44.2100833" lon="11.5646483"><ele>599.0</ele><time>2026-04-04T09:10:11.236Z</time></trkpt><trkpt lat="44.2101917" lon="11.5647583"><ele>599.0</ele><time>2026-04-04T09:10:12.235Z</time></trkpt><trkpt lat="44.210275" lon="11.5648583"><ele>599.0</ele><time>2026-04-04T09:10:13.235Z</time></trkpt><trkpt lat="44.2103283" lon="11.564965"><ele>599.0</ele><time>2026-04-04T09:10:14.236Z</time></trkpt><trkpt lat="44.2103467" lon="11.5651083"><ele>599.0</ele><time>2026-04-04T09:10:15.236Z</time></trkpt><trkpt lat="44.2103317" lon="11.5652583"><ele>599.0</ele><time>2026-04-04T09:10:16.236Z</time></trkpt><trkpt lat="44.21034" lon="11.565385"><ele>599.0</ele><time>2026-04-04T09:10:17.235Z</time></trkpt><trkpt lat="44.2103583" lon="11.5654933"><ele>599.6</ele><time>2026-04-04T09:10:18.236Z</time></trkpt><trkpt lat="44.2104117" lon="11.5655517"><ele>600.2</ele><time>2026-04-04T09:10:19.236Z</time></trkpt><trkpt lat="44.2104917" lon="11.5655817"><ele>600.8000000000001</ele><time>2026-04-04T09:10:20.236Z</time></trkpt><trkpt lat="44.2106083" lon="11.565605"><ele>601.4</ele><time>2026-04-04T09:10:21.235Z</time></trkpt><trkpt lat="44.2107517" lon="11.5656483"><ele>602.0</ele><time>2026-04-04T09:10:22.236Z</time></trkpt><trkpt lat="44.2108917" lon="11.5657017"><ele>602.0</ele><time>2026-04-04T09:10:23.236Z</time></trkpt><trkpt lat="44.2110117" lon="11.5657517"><ele>602.0</ele><time>2026-04-04T09:10:24.235Z</time></trkpt><trkpt lat="44.21111" lon="11.5657883"><ele>602.0</ele><time>2026-04-04T09:10:25.236Z</time></trkpt><trkpt lat="44.2111867" lon="11.5658183"><ele>602.0</ele><time>2026-04-04T09:10:26.235Z</time></trkpt><trkpt lat="44.2112933" lon="11.5658683"><ele>602.0</ele><time>2026-04-04T09:10:28.235Z</time></trkpt><trkpt lat="44.2113883" lon="11.5659733"><ele>602.0</ele><time>2026-04-04T09:10:30.235Z</time></trkpt><trkpt lat="44.2114583" lon="11.5660883"><ele>602.0</ele><time>2026-04-04T09:10:32.236Z</time></trkpt><trkpt lat="44.21152" lon="11.5662133"><ele>602.0</ele><time>2026-04-04T09:10:34.235Z</time></trkpt><trkpt lat="44.2115717" lon="11.5663717"><ele>602.0</ele><time>2026-04-04T09:10:36.236Z</time></trkpt><trkpt lat="44.21158" lon="11.566555"><ele>603.8333333333333</ele><time>2026-04-04T09:10:38.235Z</time></trkpt><trkpt lat="44.211575" lon="11.5666533"><ele>605.6666666666666</ele><time>2026-04-04T09:10:39.235Z</time></trkpt><trkpt lat="44.2115526" lon="11.5668161"><ele>607.5</ele><time>2026-04-04T09:10:41.236Z</time></trkpt><trkpt lat="44.2115334" lon="11.5669196"><ele>609.3333333333334</ele><time>2026-04-04T09:10:43.235Z</time></trkpt><trkpt lat="44.21148" lon="11.567"><ele>611.1666666666667</ele><time>2026-04-04T09:12:27.236Z</time></trkpt><trkpt lat="44.2115283" lon="11.5669233"><ele>613.0</ele><time>2026-04-04T09:12:40.236Z</time></trkpt><trkpt lat="44.2115433" lon="11.5668017"><ele>613.0</ele><time>2026-04-04T09:12:45.235Z</time></trkpt><trkpt lat="44.21156" lon="11.5667117"><ele>613.0</ele><time>2026-04-04T09:12:46.236Z</time></trkpt><trkpt lat="44.21157" lon="11.5665933"><ele>613.0</ele><time>2026-04-04T09:12:47.236Z</time></trkpt><trkpt lat="44.21157" lon="11.5664667"><ele>613.0</ele><time>2026-04-04T09:12:48.236Z</time></trkpt><trkpt lat="44.211545" lon="11.5663333"><ele>613.0</ele><time>2026-04-04T09:12:49.236Z</time></trkpt><trkpt lat="44.2114967" lon="11.5662"><ele>613.0</ele><time>2026-04-04T09:12:50.235Z</time></trkpt><trkpt lat="44.2114233" lon="11.56606"><ele>610.25</ele><time>2026-04-04T09:12:51.236Z</time></trkpt><trkpt lat="44.211325" lon="11.565935"><ele>607.5</ele><time>2026-04-04T09:12:52.235Z</time></trkpt><trkpt lat="44.2112267" lon="11.5658133"><ele>604.75</ele><time>2026-04-04T09:12:53.235Z</time></trkpt><trkpt lat="44.2111383" lon="11.565695"><ele>602.0</ele><time>2026-04-04T09:12:54.235Z</time></trkpt><trkpt lat="44.2110533" lon="11.5655617"><ele>602.0</ele><time>2026-04-04T09:12:55.236Z</time></trkpt><trkpt lat="44.2109667" lon="11.5654317"><ele>602.0</ele><time>2026-04-04T09:12:56.235Z</time></trkpt><trkpt lat="44.210895" lon="11.5652983"><ele>602.0</ele><time>2026-04-04T09:12:57.236Z</time></trkpt><trkpt lat="44.2108233" lon="11.5651567"><ele>602.0</ele><time>2026-04-04T09:12:58.236Z</time></trkpt><trkpt lat="44.2107533" lon="11.5650267"><ele>601.4</ele><time>2026-04-04T09:12:59.236Z</time></trkpt><trkpt lat="44.2106867" lon="11.56491"><ele>600.8000000000001</ele><time>2026-04-04T09:13:00.235Z</time></trkpt><trkpt lat="44.210625" lon="11.5647933"><ele>600.2</ele><time>2026-04-04T09:13:01.235Z</time></trkpt><trkpt lat="44.2105517" lon="11.5646667"><ele>599.6</ele><time>2026-04-04T09:13:02.236Z</time></trkpt><trkpt lat="44.2104817" lon="11.5645467"><ele>599.0</ele><time>2026-04-04T09:13:03.236Z</time></trkpt><trkpt lat="44.2104183" lon="11.5644217"><ele>603.0</ele><time>2026-04-04T09:13:04.236Z</time></trkpt><trkpt lat="44.2103717" lon="11.56429"><ele>607.0</ele><time>2026-04-04T09:13:05.236Z</time></trkpt><trkpt lat="44.210334" lon="11.5641623"><ele>611.0</ele><time>2026-04-04T09:13:06.236Z</time></trkpt><trkpt lat="44.2102878" lon="11.5640518"><ele>615.0</ele><time>2026-04-04T09:13:07.235Z</time></trkpt><trkpt lat="44.2102247" lon="11.563967"><ele>619.0</ele><time>2026-04-04T09:13:08.235Z</time></trkpt><trkpt lat="44.2101311" lon="11.5639053"><ele>619.0</ele><time>2026-04-04T09:13:09.235Z</time></trkpt><trkpt lat="44.210022" lon="11.5638541"><ele>619.0</ele><time>2026-04-04T09:13:10.235Z</time></trkpt><trkpt lat="44.209927" lon="11.5637905"><ele>619.0</ele><time>2026-04-04T09:13:11.235Z</time></trkpt><trkpt lat="44.2098473" lon="11.5636874"><ele>619.0</ele><time>2026-04-04T09:13:12.236Z</time></trkpt><trkpt lat="44.2097666" lon="11.5635564"><ele>618.5</ele><time>2026-04-04T09:13:13.236Z</time></trkpt><trkpt lat="44.2096788" lon="11.563417"><ele>618.0</ele><time>2026-04-04T09:13:14.235Z</time></trkpt><trkpt lat="44.2095749" lon="11.5633044"><ele>617.5</ele><time>2026-04-04T09:13:15.236Z</time></trkpt><trkpt lat="44.2094623" lon="11.5632196"><ele>617.0</ele><time>2026-04-04T09:13:16.236Z</time></trkpt><trkpt lat="44.209361" lon="11.5631336"><ele>617.0</ele><time>2026-04-04T09:13:17.235Z</time></trkpt><trkpt lat="44.2092897" lon="11.5630359"><ele>617.0</ele><time>2026-04-04T09:13:18.236Z</time></trkpt><trkpt lat="44.2092491" lon="11.5629374"><ele>617.0</ele><time>2026-04-04T09:13:19.236Z</time></trkpt><trkpt lat="44.2092406" lon="11.5628318"><ele>617.0</ele><time>2026-04-04T09:13:20.235Z</time></trkpt><trkpt lat="44.2092616" lon="11.5627165"><ele>617.0</ele><time>2026-04-04T09:13:21.235Z</time></trkpt><trkpt lat="44.2093023" lon="11.5625863"><ele>617.0</ele><time>2026-04-04T09:13:22.236Z</time></trkpt><trkpt lat="44.2093317" lon="11.5624365"><ele>618.5</ele><time>2026-04-04T09:13:23.236Z</time></trkpt><trkpt lat="44.209331" lon="11.562281"><ele>620.0</ele><time>2026-04-04T09:13:24.236Z</time></trkpt><trkpt lat="44.2093004" lon="11.5621131"><ele>621.5</ele><time>2026-04-04T09:13:25.236Z</time></trkpt><trkpt lat="44.2092385" lon="11.5619489"><ele>623.0</ele><time>2026-04-04T09:13:26.235Z</time></trkpt><trkpt lat="44.2091556" lon="11.5618027"><ele>627.0</ele><time>2026-04-04T09:13:27.235Z</time></trkpt><trkpt lat="44.2090536" lon="11.5616755"><ele>631.0</ele><time>2026-04-04T09:13:28.236Z</time></trkpt><trkpt lat="44.2089464" lon="11.5615713"><ele>635.0</ele><time>2026-04-04T09:13:29.236Z</time></trkpt><trkpt lat="44.2088434" lon="11.5614806"><ele>639.0</ele><time>2026-04-04T09:13:30.235Z</time></trkpt><trkpt lat="44.2087477" lon="11.561382"><ele>634.75</ele><time>2026-04-04T09:13:31.235Z</time></trkpt><trkpt lat="44.208665" lon="11.5612494"><ele>630.5</ele><time>2026-04-04T09:13:32.235Z</time></trkpt><trkpt lat="44.2085818" lon="11.561095"><ele>626.25</ele><time>2026-04-04T09:13:33.236Z</time></trkpt><trkpt lat="44.2085062" lon="11.5609553"><ele>622.0</ele><time>2026-04-04T09:13:34.236Z</time></trkpt><trkpt lat="44.2084272" lon="11.5608374"><ele>622.0</ele><time>2026-04-04T09:13:35.235Z</time></trkpt><trkpt lat="44.2083475" lon="11.5607328"><ele>622.0</ele><time>2026-04-04T09:13:36.235Z</time></trkpt><trkpt lat="44.2082635" lon="11.5606427"><ele>622.0</ele><time>2026-04-04T09:13:37.236Z</time></trkpt><trkpt lat="44.208168" lon="11.5605626"><ele>622.0</ele><time>2026-04-04T09:13:38.236Z</time></trkpt><trkpt lat="44.2080661" lon="11.5605039"><ele>622.0</ele><time>2026-04-04T09:13:39.236Z</time></trkpt><trkpt lat="44.2079717" lon="11.5604511"><ele>620.5</ele><time>2026-04-04T09:13:40.235Z</time></trkpt><trkpt lat="44.2078729" lon="11.5603699"><ele>619.0</ele><time>2026-04-04T09:13:41.236Z</time></trkpt><trkpt lat="44.2077774" lon="11.5602637"><ele>617.5</ele><time>2026-04-04T09:13:42.236Z</time></trkpt><trkpt lat="44.2076796" lon="11.5601331"><ele>616.0</ele><time>2026-04-04T09:13:43.236Z</time></trkpt><trkpt lat="44.207585" lon="11.5599949"><ele>616.0</ele><time>2026-04-04T09:13:44.235Z</time></trkpt><trkpt lat="44.2074861" lon="11.5598555"><ele>616.0</ele><time>2026-04-04T09:13:45.236Z</time></trkpt><trkpt lat="44.2073924" lon="11.5597168"><ele>616.0</ele><time>2026-04-04T09:13:46.236Z</time></trkpt><trkpt lat="44.2073006" lon="11.5595718"><ele>616.0</ele><time>2026-04-04T09:13:47.236Z</time></trkpt><trkpt lat="44.2072029" lon="11.5594414"><ele>617.25</ele><time>2026-04-04T09:13:48.236Z</time></trkpt><trkpt lat="44.2071155" lon="11.5593253"><ele>618.5</ele><time>2026-04-04T09:13:49.235Z</time></trkpt><trkpt lat="44.2070454" lon="11.5591963"><ele>619.75</ele><time>2026-04-04T09:13:50.236Z</time></trkpt><trkpt lat="44.2069949" lon="11.5590362"><ele>621.0</ele><time>2026-04-04T09:13:51.236Z</time></trkpt><trkpt lat="44.2069553" lon="11.5588646"><ele>619.0</ele><time>2026-04-04T09:13:52.236Z</time></trkpt><trkpt lat="44.20693" lon="11.558692"><ele>617.0</ele><time>2026-04-04T09:13:53.235Z</time></trkpt><trkpt lat="44.2068974" lon="11.5585262"><ele>615.0</ele><time>2026-04-04T09:13:54.236Z</time></trkpt><trkpt lat="44.2068696" lon="11.5583709"><ele>613.0</ele><time>2026-04-04T09:13:55.236Z</time></trkpt><trkpt lat="44.2068483" lon="11.5582019"><ele>613.0</ele><time>2026-04-04T09:13:56.236Z</time></trkpt><trkpt lat="44.2068486" lon="11.5580261"><ele>613.0</ele><time>2026-04-04T09:13:57.236Z</time></trkpt><trkpt lat="44.2068746" lon="11.5578487"><ele>613.0</ele><time>2026-04-04T09:13:58.236Z</time></trkpt><trkpt lat="44.2069146" lon="11.5576564"><ele>613.0</ele><time>2026-04-04T09:13:59.236Z</time></trkpt><trkpt lat="44.2069628" lon="11.557447"><ele>609.75</ele><time>2026-04-04T09:14:00.236Z</time></trkpt><trkpt lat="44.207005" lon="11.5572418"><ele>606.5</ele><time>2026-04-04T09:14:01.235Z</time></trkpt><trkpt lat="44.2070532" lon="11.5570589"><ele>603.25</ele><time>2026-04-04T09:14:02.236Z</time></trkpt><trkpt lat="44.2071115" lon="11.5568916"><ele>600.0</ele><time>2026-04-04T09:14:03.236Z</time></trkpt><trkpt lat="44.2071586" lon="11.5567153"><ele>598.5</ele><time>2026-04-04T09:14:04.236Z</time></trkpt><trkpt lat="44.2071822" lon="11.5565341"><ele>597.0</ele><time>2026-04-04T09:14:05.236Z</time></trkpt><trkpt lat="44.2071863" lon="11.5563605"><ele>595.5</ele><time>2026-04-04T09:14:06.236Z</time></trkpt><trkpt lat="44.2071929" lon="11.5562"><ele>594.0</ele><time>2026-04-04T09:14:07.235Z</time></trkpt><trkpt lat="44.2072257" lon="11.5560426"><ele>592.25</ele><time>2026-04-04T09:14:08.235Z</time></trkpt><trkpt lat="44.2072807" lon="11.5558778"><ele>590.5</ele><time>2026-04-04T09:14:09.236Z</time></trkpt><trkpt lat="44.2073419" lon="11.5557101"><ele>588.75</ele><time>2026-04-04T09:14:10.235Z</time></trkpt><trkpt lat="44.2073648" lon="11.5555451"><ele>587.0</ele><time>2026-04-04T09:14:11.236Z</time></trkpt><trkpt lat="44.2073561" lon="11.5553716"><ele>586.3333333333333</ele><time>2026-04-04T09:14:12.235Z</time></trkpt><trkpt lat="44.2073257" lon="11.5551657"><ele>585.6666666666666</ele><time>2026-04-04T09:14:13.235Z</time></trkpt><trkpt lat="44.2072954" lon="11.5549507"><ele>585.0</ele><time>2026-04-04T09:14:14.236Z</time></trkpt><trkpt lat="44.2072822" lon="11.5547446"><ele>585.0</ele><time>2026-04-04T09:14:15.235Z</time></trkpt><trkpt lat="44.2072773" lon="11.554555"><ele>585.0</ele><time>2026-04-04T09:14:16.236Z</time></trkpt><trkpt lat="44.2072579" lon="11.5543987"><ele>585.0</ele><time>2026-04-04T09:14:17.236Z</time></trkpt><trkpt lat="44.2072177" lon="11.5542514"><ele>585.0</ele><time>2026-04-04T09:14:18.236Z</time></trkpt><trkpt lat="44.2071599" lon="11.5541019"><ele>589.0</ele><time>2026-04-04T09:14:19.235Z</time></trkpt><trkpt lat="44.2071139" lon="11.5539544"><ele>593.0</ele><time>2026-04-04T09:14:20.236Z</time></trkpt><trkpt lat="44.2070838" lon="11.5537966"><ele>597.0</ele><time>2026-04-04T09:14:21.236Z</time></trkpt><trkpt lat="44.2070605" lon="11.5536279"><ele>601.0</ele><time>2026-04-04T09:14:22.235Z</time></trkpt><trkpt lat="44.207022" lon="11.5534727"><ele>602.8</ele><time>2026-04-04T09:14:23.236Z</time></trkpt><trkpt lat="44.2069608" lon="11.5533326"><ele>604.6</ele><time>2026-04-04T09:14:24.235Z</time></trkpt><trkpt lat="44.2068996" lon="11.5532046"><ele>606.4</ele><time>2026-04-04T09:14:25.236Z</time></trkpt><trkpt lat="44.2068653" lon="11.5531014"><ele>608.2</ele><time>2026-04-04T09:14:26.236Z</time></trkpt><trkpt lat="44.2068628" lon="11.5529954"><ele>610.0</ele><time>2026-04-04T09:14:27.236Z</time></trkpt><trkpt lat="44.2068921" lon="11.5528733"><ele>609.4</ele><time>2026-04-04T09:14:28.236Z</time></trkpt><trkpt lat="44.2069404" lon="11.5527453"><ele>608.8</ele><time>2026-04-04T09:14:29.236Z</time></trkpt><trkpt lat="44.206989" lon="11.5526132"><ele>608.2</ele><time>2026-04-04T09:14:30.236Z</time></trkpt><trkpt lat="44.2070341" lon="11.5524904"><ele>607.6</ele><time>2026-04-04T09:14:31.235Z</time></trkpt><trkpt lat="44.2070721" lon="11.5523867"><ele>607.0</ele><time>2026-04-04T09:14:32.236Z</time></trkpt><trkpt lat="44.2071065" lon="11.5522986"><ele>607.0</ele><time>2026-04-04T09:14:33.235Z</time></trkpt><trkpt lat="44.2071397" lon="11.5522224"><ele>607.0</ele><time>2026-04-04T09:14:34.235Z</time></trkpt><trkpt lat="44.2071815" lon="11.5521199"><ele>607.0</ele><time>2026-04-04T09:14:36.236Z</time></trkpt><trkpt lat="44.2072182" lon="11.5520272"><ele>607.0</ele><time>2026-04-04T09:14:41.236Z</time></trkpt><trkpt lat="44.2072784" lon="11.5518892"><ele>607.0</ele><time>2026-04-04T09:14:43.236Z</time></trkpt><trkpt lat="44.2073258" lon="11.5517989"><ele>607.0</ele><time>2026-04-04T09:14:44.235Z</time></trkpt><trkpt lat="44.2073856" lon="11.5517058"><ele>611.0</ele><time>2026-04-04T09:14:45.236Z</time></trkpt><trkpt lat="44.2074578" lon="11.5516159"><ele>615.0</ele><time>2026-04-04T09:14:46.236Z</time></trkpt><trkpt lat="44.2075417" lon="11.551528"><ele>619.0</ele><time>2026-04-04T09:14:47.235Z</time></trkpt><trkpt lat="44.2076387" lon="11.551464"><ele>623.0</ele><time>2026-04-04T09:14:48.236Z</time></trkpt><trkpt lat="44.2077358" lon="11.5514168"><ele>627.0</ele><time>2026-04-04T09:14:49.235Z</time></trkpt><trkpt lat="44.207831" lon="11.5513546"><ele>627.0</ele><time>2026-04-04T09:14:50.235Z</time></trkpt><trkpt lat="44.2079255" lon="11.5512783"><ele>627.0</ele><time>2026-04-04T09:14:51.236Z</time></trkpt><trkpt lat="44.2080079" lon="11.5511933"><ele>627.0</ele><time>2026-04-04T09:14:52.235Z</time></trkpt><trkpt lat="44.2080794" lon="11.5511018"><ele>627.0</ele><time>2026-04-04T09:14:53.235Z</time></trkpt><trkpt lat="44.2081383" lon="11.5509906"><ele>627.0</ele><time>2026-04-04T09:14:54.236Z</time></trkpt><trkpt lat="44.2081933" lon="11.550865"><ele>626.8333333333334</ele><time>2026-04-04T09:14:55.236Z</time></trkpt><trkpt lat="44.2082455" lon="11.5507608"><ele>626.6666666666666</ele><time>2026-04-04T09:14:56.236Z</time></trkpt><trkpt lat="44.2082978" lon="11.5506775"><ele>626.5</ele><time>2026-04-04T09:14:57.236Z</time></trkpt><trkpt lat="44.2083638" lon="11.5506142"><ele>626.3333333333333</ele><time>2026-04-04T09:14:59.236Z</time></trkpt><trkpt lat="44.2084234" lon="11.5505728"><ele>626.1666666666666</ele><time>2026-04-04T09:15:01.236Z</time></trkpt><trkpt lat="44.2084685" lon="11.5504537"><ele>626.0</ele><time>2026-04-04T09:15:03.236Z</time></trkpt><trkpt lat="44.2084283" lon="11.5502831"><ele>625.6</ele><time>2026-04-04T09:15:05.235Z</time></trkpt><trkpt lat="44.208377" lon="11.55019"><ele>625.2</ele><time>2026-04-04T09:15:06.236Z</time></trkpt><trkpt lat="44.2083253" lon="11.5500875"><ele>624.8</ele><time>2026-04-04T09:15:07.236Z</time></trkpt><trkpt lat="44.2082819" lon="11.5499707"><ele>624.4</ele><time>2026-04-04T09:15:08.235Z</time></trkpt><trkpt lat="44.2082534" lon="11.5498427"><ele>624.0</ele><time>2026-04-04T09:15:09.236Z</time></trkpt><trkpt lat="44.208234" lon="11.5497159"><ele>624.0</ele><time>2026-04-04T09:15:10.235Z</time></trkpt><trkpt lat="44.208215" lon="11.549588"><ele>624.0</ele><time>2026-04-04T09:15:11.236Z</time></trkpt><trkpt lat="44.2081933" lon="11.5494568"><ele>624.0</ele><time>2026-04-04T09:15:12.236Z</time></trkpt><trkpt lat="44.2081767" lon="11.5493162"><ele>624.0</ele><time>2026-04-04T09:15:13.235Z</time></trkpt><trkpt lat="44.2081659" lon="11.5491587"><ele>624.0</ele><time>2026-04-04T09:15:14.236Z</time></trkpt><trkpt lat="44.2081629" lon="11.5489976"><ele>622.8</ele><time>2026-04-04T09:15:15.236Z</time></trkpt><trkpt lat="44.2081675" lon="11.5488402"><ele>621.5999999999999</ele><time>2026-04-04T09:15:16.236Z</time></trkpt><trkpt lat="44.208171" lon="11.5486867"><ele>620.4</ele><time>2026-04-04T09:15:17.236Z</time></trkpt><trkpt lat="44.2081616" lon="11.5485276"><ele>619.1999999999999</ele><time>2026-04-04T09:15:18.235Z</time></trkpt><trkpt lat="44.2081434" lon="11.5483868"><ele>618.0</ele><time>2026-04-04T09:15:19.236Z</time></trkpt><trkpt lat="44.2081319" lon="11.5482454"><ele>619.5</ele><time>2026-04-04T09:15:20.235Z</time></trkpt><trkpt lat="44.2081198" lon="11.5481072"><ele>621.0</ele><time>2026-04-04T09:15:21.235Z</time></trkpt><trkpt lat="44.2081098" lon="11.5479788"><ele>622.5</ele><time>2026-04-04T09:15:22.235Z</time></trkpt><trkpt lat="44.2080861" lon="11.5478644"><ele>624.0</ele><time>2026-04-04T09:15:23.236Z</time></trkpt><trkpt lat="44.2080412" lon="11.5477701"><ele>625.5</ele><time>2026-04-04T09:15:24.236Z</time></trkpt><trkpt lat="44.2079818" lon="11.5476882"><ele>627.0</ele><time>2026-04-04T09:15:25.236Z</time></trkpt><trkpt lat="44.2079041" lon="11.5476089"><ele>627.0</ele><time>2026-04-04T09:15:26.235Z</time></trkpt><trkpt lat="44.2078343" lon="11.5475028"><ele>627.0</ele><time>2026-04-04T09:15:27.236Z</time></trkpt><trkpt lat="44.2077829" lon="11.5473744"><ele>627.0</ele><time>2026-04-04T09:15:28.235Z</time></trkpt><trkpt lat="44.2077384" lon="11.547231"><ele>627.0</ele><time>2026-04-04T09:15:29.235Z</time></trkpt><trkpt lat="44.2076984" lon="11.5470685"><ele>627.0</ele><time>2026-04-04T09:15:30.235Z</time></trkpt><trkpt lat="44.2076631" lon="11.5469041"><ele>625.0</ele><time>2026-04-04T09:15:31.236Z</time></trkpt><trkpt lat="44.2076382" lon="11.5467507"><ele>623.0</ele><time>2026-04-04T09:15:32.235Z</time></trkpt><trkpt lat="44.2076294" lon="11.5466144"><ele>621.0</ele><time>2026-04-04T09:15:33.235Z</time></trkpt><trkpt lat="44.2076328" lon="11.546486"><ele>619.0</ele><time>2026-04-04T09:15:34.235Z</time></trkpt><trkpt lat="44.2076489" lon="11.5463678"><ele>617.0</ele><time>2026-04-04T09:15:35.236Z</time></trkpt><trkpt lat="44.2076869" lon="11.5462491"><ele>617.4</ele><time>2026-04-04T09:15:36.235Z</time></trkpt><trkpt lat="44.2077536" lon="11.546143"><ele>617.8000000000001</ele><time>2026-04-04T09:15:37.236Z</time></trkpt><trkpt lat="44.2078415" lon="11.5460502"><ele>618.2</ele><time>2026-04-04T09:15:38.235Z</time></trkpt><trkpt lat="44.2079293" lon="11.5459671"><ele>618.6</ele><time>2026-04-04T09:15:39.236Z</time></trkpt><trkpt lat="44.2080039" lon="11.5458541"><ele>619.0</ele><time>2026-04-04T09:15:40.236Z</time></trkpt><trkpt lat="44.208078" lon="11.545733"><ele>615.25</ele><time>2026-04-04T09:15:41.236Z</time></trkpt><trkpt lat="44.2081668" lon="11.5456221"><ele>611.5</ele><time>2026-04-04T09:15:42.235Z</time></trkpt><trkpt lat="44.2082698" lon="11.5455283"><ele>607.75</ele><time>2026-04-04T09:15:43.236Z</time></trkpt><trkpt lat="44.2083896" lon="11.5454422"><ele>604.0</ele><time>2026-04-04T09:15:44.235Z</time></trkpt><trkpt lat="44.2085131" lon="11.5453584"><ele>604.0</ele><time>2026-04-04T09:15:45.236Z</time></trkpt><trkpt lat="44.2086392" lon="11.5452886"><ele>604.0</ele><time>2026-04-04T09:15:46.236Z</time></trkpt><trkpt lat="44.2087664" lon="11.5452499"><ele>604.0</ele><time>2026-04-04T09:15:47.236Z</time></trkpt><trkpt lat="44.2088932" lon="11.5452401"><ele>604.0</ele><time>2026-04-04T09:15:48.235Z</time></trkpt><trkpt lat="44.2090255" lon="11.5452626"><ele>599.75</ele><time>2026-04-04T09:15:49.236Z</time></trkpt><trkpt lat="44.2091555" lon="11.5453123"><ele>595.5</ele><time>2026-04-04T09:15:50.235Z</time></trkpt><trkpt lat="44.2092697" lon="11.5453765"><ele>591.25</ele><time>2026-04-04T09:15:51.236Z</time></trkpt><trkpt lat="44.2093751" lon="11.54544"><ele>587.0</ele><time>2026-04-04T09:15:52.236Z</time></trkpt><trkpt lat="44.2094699" lon="11.5454902"><ele>587.0</ele><time>2026-04-04T09:15:53.236Z</time></trkpt><trkpt lat="44.2095516" lon="11.5455038"><ele>587.0</ele><time>2026-04-04T09:15:54.236Z</time></trkpt><trkpt lat="44.209624" lon="11.5454786"><ele>587.0</ele><time>2026-04-04T09:15:55.236Z</time></trkpt><trkpt lat="44.2096935" lon="11.5454197"><ele>587.0</ele><time>2026-04-04T09:15:56.236Z</time></trkpt><trkpt lat="44.209746" lon="11.5453039"><ele>587.0</ele><time>2026-04-04T09:15:57.236Z</time></trkpt><trkpt lat="44.2097819" lon="11.5451655"><ele>587.0</ele><time>2026-04-04T09:15:58.235Z</time></trkpt><trkpt lat="44.2098175" lon="11.5450316"><ele>584.4</ele><time>2026-04-04T09:15:59.236Z</time></trkpt><trkpt lat="44.2098715" lon="11.5449218"><ele>581.8000000000001</ele><time>2026-04-04T09:16:00.235Z</time></trkpt><trkpt lat="44.2099465" lon="11.5448343"><ele>579.2</ele><time>2026-04-04T09:16:01.236Z</time></trkpt><trkpt lat="44.2100343" lon="11.5447557"><ele>576.6</ele><time>2026-04-04T09:16:02.236Z</time></trkpt><trkpt lat="44.210118" lon="11.5446727"><ele>574.0</ele><time>2026-04-04T09:16:03.235Z</time></trkpt><trkpt lat="44.210183" lon="11.5445632"><ele>572.0</ele><time>2026-04-04T09:16:04.236Z</time></trkpt><trkpt lat="44.2102455" lon="11.5444308"><ele>570.0</ele><time>2026-04-04T09:16:05.236Z</time></trkpt><trkpt lat="44.2103063" lon="11.5442988"><ele>568.0</ele><time>2026-04-04T09:16:06.235Z</time></trkpt><trkpt lat="44.2103787" lon="11.5441945"><ele>566.0</ele><time>2026-04-04T09:16:07.236Z</time></trkpt><trkpt lat="44.210453" lon="11.5441182"><ele>564.0</ele><time>2026-04-04T09:16:08.235Z</time></trkpt><trkpt lat="44.2105406" lon="11.5440773"><ele>564.0</ele><time>2026-04-04T09:16:09.236Z</time></trkpt><trkpt lat="44.2106371" lon="11.544048"><ele>564.0</ele><time>2026-04-04T09:16:10.235Z</time></trkpt><trkpt lat="44.2107372" lon="11.5440155"><ele>564.0</ele><time>2026-04-04T09:16:11.236Z</time></trkpt><trkpt lat="44.2108339" lon="11.5439453"><ele>564.0</ele><time>2026-04-04T09:16:12.236Z</time></trkpt><trkpt lat="44.2109367" lon="11.5438441"><ele>564.0</ele><time>2026-04-04T09:16:13.235Z</time></trkpt><trkpt lat="44.2110372" lon="11.5437293"><ele>558.0</ele><time>2026-04-04T09:16:14.235Z</time></trkpt><trkpt lat="44.2111415" lon="11.5436384"><ele>552.0</ele><time>2026-04-04T09:16:15.236Z</time></trkpt><trkpt lat="44.2112631" lon="11.5435906"><ele>546.0</ele><time>2026-04-04T09:16:16.236Z</time></trkpt><trkpt lat="44.211397" lon="11.5435794"><ele>540.0</ele><time>2026-04-04T09:16:17.236Z</time></trkpt><trkpt lat="44.2115382" lon="11.5435555"><ele>540.0</ele><time>2026-04-04T09:16:18.235Z</time></trkpt><trkpt lat="44.2116756" lon="11.5435033"><ele>540.0</ele><time>2026-04-04T09:16:19.236Z</time></trkpt><trkpt lat="44.2118196" lon="11.5434071"><ele>540.0</ele><time>2026-04-04T09:16:20.235Z</time></trkpt><trkpt lat="44.2119654" lon="11.5432828"><ele>540.0</ele><time>2026-04-04T09:16:21.235Z</time></trkpt><trkpt lat="44.2121035" lon="11.5431616"><ele>540.0</ele><time>2026-04-04T09:16:22.236Z</time></trkpt><trkpt lat="44.2122349" lon="11.5430563"><ele>540.0</ele><time>2026-04-04T09:16:23.236Z</time></trkpt><trkpt lat="44.2123532" lon="11.5429524"><ele>538.25</ele><time>2026-04-04T09:16:24.235Z</time></trkpt><trkpt lat="44.2124679" lon="11.5428522"><ele>536.5</ele><time>2026-04-04T09:16:25.236Z</time></trkpt><trkpt lat="44.2125813" lon="11.5427522"><ele>534.75</ele><time>2026-04-04T09:16:26.236Z</time></trkpt><trkpt lat="44.2126935" lon="11.5426461"><ele>533.0</ele><time>2026-04-04T09:16:27.236Z</time></trkpt><trkpt lat="44.2127903" lon="11.54254"><ele>533.0</ele><time>2026-04-04T09:16:28.236Z</time></trkpt><trkpt lat="44.2128843" lon="11.5424531"><ele>533.0</ele><time>2026-04-04T09:16:29.236Z</time></trkpt><trkpt lat="44.2129798" lon="11.5423888"><ele>533.0</ele><time>2026-04-04T09:16:30.236Z</time></trkpt><trkpt lat="44.2130794" lon="11.5423328"><ele>533.0</ele><time>2026-04-04T09:16:31.236Z</time></trkpt><trkpt lat="44.2131713" lon="11.5422683"><ele>533.0</ele><time>2026-04-04T09:16:32.236Z</time></trkpt><trkpt lat="44.213245" lon="11.5421784"><ele>533.6</ele><time>2026-04-04T09:16:33.235Z</time></trkpt><trkpt lat="44.2133164" lon="11.5420765"><ele>534.1999999999999</ele><time>2026-04-04T09:16:34.236Z</time></trkpt><trkpt lat="44.2133944" lon="11.5419812"><ele>534.8</ele><time>2026-04-04T09:16:35.235Z</time></trkpt><trkpt lat="44.2134898" lon="11.5419005"><ele>535.4</ele><time>2026-04-04T09:16:36.236Z</time></trkpt><trkpt lat="44.213588" lon="11.541815"><ele>536.0</ele><time>2026-04-04T09:16:37.236Z</time></trkpt><trkpt lat="44.2136765" lon="11.5417248"><ele>534.8333333333333</ele><time>2026-04-04T09:16:38.236Z</time></trkpt><trkpt lat="44.2137394" lon="11.5416455"><ele>533.6666666666666</ele><time>2026-04-04T09:16:39.236Z</time></trkpt><trkpt lat="44.2137856" lon="11.541564"><ele>532.5</ele><time>2026-04-04T09:16:40.236Z</time></trkpt><trkpt lat="44.2138153" lon="11.5414756"><ele>531.3333333333334</ele><time>2026-04-04T09:16:41.236Z</time></trkpt><trkpt lat="44.2138286" lon="11.5413729"><ele>530.1666666666667</ele><time>2026-04-04T09:16:42.236Z</time></trkpt><trkpt lat="44.2138183" lon="11.5412483"><ele>529.0</ele><time>2026-04-04T09:16:43.235Z</time></trkpt><trkpt lat="44.2138091" lon="11.5411136"><ele>527.0</ele><time>2026-04-04T09:16:44.236Z</time></trkpt><trkpt lat="44.2138213" lon="11.5409809"><ele>525.0</ele><time>2026-04-04T09:16:45.236Z</time></trkpt><trkpt lat="44.2138563" lon="11.5408667"><ele>523.0</ele><time>2026-04-04T09:16:46.236Z</time></trkpt><trkpt lat="44.2139191" lon="11.5407597"><ele>521.0</ele><time>2026-04-04T09:16:47.236Z</time></trkpt><trkpt lat="44.2140005" lon="11.540635"><ele>519.0</ele><time>2026-04-04T09:16:48.236Z</time></trkpt><trkpt lat="44.2140752" lon="11.5404856"><ele>522.25</ele><time>2026-04-04T09:16:49.236Z</time></trkpt><trkpt lat="44.2141229" lon="11.5403379"><ele>525.5</ele><time>2026-04-04T09:16:50.236Z</time></trkpt><trkpt lat="44.2141368" lon="11.5401844"><ele>528.75</ele><time>2026-04-04T09:16:51.235Z</time></trkpt><trkpt lat="44.2141391" lon="11.5400224"><ele>532.0</ele><time>2026-04-04T09:16:52.235Z</time></trkpt><trkpt lat="44.2141487" lon="11.5398692"><ele>532.0</ele><time>2026-04-04T09:16:53.236Z</time></trkpt><trkpt lat="44.2141822" lon="11.5397097"><ele>532.0</ele><time>2026-04-04T09:16:54.236Z</time></trkpt><trkpt lat="44.214227" lon="11.5395557"><ele>532.0</ele><time>2026-04-04T09:16:55.236Z</time></trkpt><trkpt lat="44.2142607" lon="11.539415"><ele>532.0</ele><time>2026-04-04T09:16:56.236Z</time></trkpt><trkpt lat="44.2142759" lon="11.5392753"><ele>532.0</ele><time>2026-04-04T09:16:57.235Z</time></trkpt><trkpt lat="44.2142706" lon="11.5391348"><ele>531.25</ele><time>2026-04-04T09:16:58.235Z</time></trkpt><trkpt lat="44.2142492" lon="11.5389832"><ele>530.5</ele><time>2026-04-04T09:16:59.235Z</time></trkpt><trkpt lat="44.2142184" lon="11.538813"><ele>529.75</ele><time>2026-04-04T09:17:00.235Z</time></trkpt><trkpt lat="44.2142039" lon="11.5386312"><ele>529.0</ele><time>2026-04-04T09:17:01.235Z</time></trkpt><trkpt lat="44.2142011" lon="11.5384547"><ele>528.4</ele><time>2026-04-04T09:17:02.235Z</time></trkpt><trkpt lat="44.2141983" lon="11.5382927"><ele>527.8</ele><time>2026-04-04T09:17:03.235Z</time></trkpt><trkpt lat="44.2141932" lon="11.5381398"><ele>527.2</ele><time>2026-04-04T09:17:04.235Z</time></trkpt><trkpt lat="44.21419" lon="11.5380033"><ele>526.6</ele><time>2026-04-04T09:17:05.236Z</time></trkpt><trkpt lat="44.21418" lon="11.5378583"><ele>526.0</ele><time>2026-04-04T09:17:06.236Z</time></trkpt><trkpt lat="44.2141533" lon="11.5376883"><ele>523.0</ele><time>2026-04-04T09:17:07.236Z</time></trkpt><trkpt lat="44.214115" lon="11.5375183"><ele>520.0</ele><time>2026-04-04T09:17:08.236Z</time></trkpt><trkpt lat="44.2140683" lon="11.5373733"><ele>517.0</ele><time>2026-04-04T09:17:09.235Z</time></trkpt><trkpt lat="44.21401" lon="11.5372467"><ele>514.0</ele><time>2026-04-04T09:17:10.236Z</time></trkpt><trkpt lat="44.213935" lon="11.537135"><ele>513.4</ele><time>2026-04-04T09:17:11.235Z</time></trkpt><trkpt lat="44.2138683" lon="11.53703"><ele>512.8</ele><time>2026-04-04T09:17:12.236Z</time></trkpt><trkpt lat="44.2138217" lon="11.5369133"><ele>512.2</ele><time>2026-04-04T09:17:13.236Z</time></trkpt><trkpt lat="44.2137983" lon="11.5367883"><ele>511.6</ele><time>2026-04-04T09:17:14.236Z</time></trkpt><trkpt lat="44.2138117" lon="11.5366517"><ele>511.0</ele><time>2026-04-04T09:17:15.235Z</time></trkpt><trkpt lat="44.2138567" lon="11.5364983"><ele>511.0</ele><time>2026-04-04T09:17:16.235Z</time></trkpt><trkpt lat="44.2139317" lon="11.5363217"><ele>511.0</ele><time>2026-04-04T09:17:17.236Z</time></trkpt><trkpt lat="44.2139883" lon="11.53614"><ele>511.0</ele><time>2026-04-04T09:17:18.236Z</time></trkpt><trkpt lat="44.2140317" lon="11.5359617"><ele>511.0</ele><time>2026-04-04T09:17:19.235Z</time></trkpt><trkpt lat="44.21407" lon="11.5357883"><ele>508.20000000000005</ele><time>2026-04-04T09:17:20.236Z</time></trkpt><trkpt lat="44.214085" lon="11.5356383"><ele>505.40000000000003</ele><time>2026-04-04T09:17:21.235Z</time></trkpt><trkpt lat="44.2140917" lon="11.5355"><ele>502.6</ele><time>2026-04-04T09:17:22.236Z</time></trkpt><trkpt lat="44.2140833" lon="11.53537"><ele>499.8</ele><time>2026-04-04T09:17:23.236Z</time></trkpt><trkpt lat="44.2140483" lon="11.5352317"><ele>497.0</ele><time>2026-04-04T09:17:24.235Z</time></trkpt><trkpt lat="44.214" lon="11.5350733"><ele>497.0</ele><time>2026-04-04T09:17:25.235Z</time></trkpt><trkpt lat="44.213945" lon="11.534915"><ele>497.0</ele><time>2026-04-04T09:17:26.236Z</time></trkpt><trkpt lat="44.2138933" lon="11.5347633"><ele>497.0</ele><time>2026-04-04T09:17:27.236Z</time></trkpt><trkpt lat="44.2138617" lon="11.534605"><ele>497.0</ele><time>2026-04-04T09:17:28.236Z</time></trkpt><trkpt lat="44.2138617" lon="11.5344617"><ele>493.5</ele><time>2026-04-04T09:17:29.236Z</time></trkpt><trkpt lat="44.21389" lon="11.5343217"><ele>490.0</ele><time>2026-04-04T09:17:30.236Z</time></trkpt><trkpt lat="44.2139567" lon="11.5341567"><ele>486.5</ele><time>2026-04-04T09:17:31.235Z</time></trkpt><trkpt lat="44.2140517" lon="11.5339717"><ele>483.0</ele><time>2026-04-04T09:17:32.235Z</time></trkpt><trkpt lat="44.214155" lon="11.5337967"><ele>481.0</ele><time>2026-04-04T09:17:33.235Z</time></trkpt><trkpt lat="44.21425" lon="11.53362"><ele>479.0</ele><time>2026-04-04T09:17:34.236Z</time></trkpt><trkpt lat="44.2143117" lon="11.5334317"><ele>477.0</ele><time>2026-04-04T09:17:35.235Z</time></trkpt><trkpt lat="44.214345" lon="11.5332417"><ele>475.0</ele><time>2026-04-04T09:17:36.236Z</time></trkpt><trkpt lat="44.21438" lon="11.5330717"><ele>475.0</ele><time>2026-04-04T09:17:37.236Z</time></trkpt><trkpt lat="44.2144217" lon="11.532935"><ele>475.0</ele><time>2026-04-04T09:17:38.236Z</time></trkpt><trkpt lat="44.2144883" lon="11.532815"><ele>475.0</ele><time>2026-04-04T09:17:39.235Z</time></trkpt><trkpt lat="44.2145549" lon="11.5326924"><ele>475.0</ele><time>2026-04-04T09:17:40.235Z</time></trkpt><trkpt lat="44.2146128" lon="11.53258"><ele>475.0</ele><time>2026-04-04T09:17:41.236Z</time></trkpt><trkpt lat="44.2146568" lon="11.5324886"><ele>472.2</ele><time>2026-04-04T09:17:42.236Z</time></trkpt><trkpt lat="44.2146902" lon="11.5323624"><ele>469.4</ele><time>2026-04-04T09:17:44.235Z</time></trkpt><trkpt lat="44.2146605" lon="11.5324885"><ele>466.6</ele><time>2026-04-04T09:17:53.236Z</time></trkpt><trkpt lat="44.2146371" lon="11.5325724"><ele>463.8</ele><time>2026-04-04T09:17:54.236Z</time></trkpt><trkpt lat="44.2146171" lon="11.5327029"><ele>461.0</ele><time>2026-04-04T09:17:56.236Z</time></trkpt><trkpt lat="44.2146589" lon="11.5328649"><ele>462.8333333333333</ele><time>2026-04-04T09:17:58.236Z</time></trkpt><trkpt lat="44.2146924" lon="11.5329677"><ele>464.66666666666663</ele><time>2026-04-04T09:17:59.236Z</time></trkpt><trkpt lat="44.2147244" lon="11.5330715"><ele>466.5</ele><time>2026-04-04T09:18:00.235Z</time></trkpt><trkpt lat="44.2147634" lon="11.5331731"><ele>468.33333333333337</ele><time>2026-04-04T09:18:01.236Z</time></trkpt><trkpt lat="44.2148105" lon="11.5332792"><ele>470.1666666666667</ele><time>2026-04-04T09:18:02.235Z</time></trkpt><trkpt lat="44.2148698" lon="11.5333905"><ele>472.0</ele><time>2026-04-04T09:18:03.235Z</time></trkpt><trkpt lat="44.2149311" lon="11.5334882"><ele>472.0</ele><time>2026-04-04T09:18:04.235Z</time></trkpt><trkpt lat="44.2149785" lon="11.5335711"><ele>472.00000000000006</ele><time>2026-04-04T09:18:05.235Z</time></trkpt><trkpt lat="44.2150139" lon="11.5337263"><ele>472.00000000000006</ele><time>2026-04-04T09:18:07.236Z</time></trkpt><trkpt lat="44.2149654" lon="11.5339034"><ele>472.0</ele><time>2026-04-04T09:18:09.235Z</time></trkpt><trkpt lat="44.2149147" lon="11.5340072"><ele>472.0</ele><time>2026-04-04T09:18:10.236Z</time></trkpt><trkpt lat="44.2148569" lon="11.5341166"><ele>471.8</ele><time>2026-04-04T09:18:11.235Z</time></trkpt><trkpt lat="44.2148194" lon="11.5342302"><ele>471.6</ele><time>2026-04-04T09:18:12.235Z</time></trkpt><trkpt lat="44.2147998" lon="11.5343649"><ele>471.40000000000003</ele><time>2026-04-04T09:18:13.236Z</time></trkpt><trkpt lat="44.2148039" lon="11.5345097"><ele>471.20000000000005</ele><time>2026-04-04T09:18:14.235Z</time></trkpt><trkpt lat="44.21482" lon="11.5346595"><ele>471.0</ele><time>2026-04-04T09:18:15.235Z</time></trkpt><trkpt lat="44.2148618" lon="11.5348091"><ele>471.0</ele><time>2026-04-04T09:18:16.236Z</time></trkpt><trkpt lat="44.2149325" lon="11.5349789"><ele>471.0</ele><time>2026-04-04T09:18:17.236Z</time></trkpt><trkpt lat="44.215018" lon="11.5351747"><ele>471.0</ele><time>2026-04-04T09:18:18.235Z</time></trkpt><trkpt lat="44.2151107" lon="11.5353702"><ele>472.8</ele><time>2026-04-04T09:18:19.235Z</time></trkpt><trkpt lat="44.2151843" lon="11.5355397"><ele>474.6</ele><time>2026-04-04T09:18:20.235Z</time></trkpt><trkpt lat="44.2152411" lon="11.5356791"><ele>476.4</ele><time>2026-04-04T09:18:21.235Z</time></trkpt><trkpt lat="44.2152841" lon="11.5357873"><ele>478.2</ele><time>2026-04-04T09:18:22.236Z</time></trkpt><trkpt lat="44.2153423" lon="11.5358706"><ele>480.0</ele><time>2026-04-04T09:18:23.236Z</time></trkpt><trkpt lat="44.2154323" lon="11.5359219"><ele>480.0</ele><time>2026-04-04T09:18:24.236Z</time></trkpt><trkpt lat="44.2155374" lon="11.5359536"><ele>480.0</ele><time>2026-04-04T09:18:25.235Z</time></trkpt><trkpt lat="44.2156309" lon="11.5359864"><ele>480.0</ele><time>2026-04-04T09:18:26.235Z</time></trkpt><trkpt lat="44.2157009" lon="11.536036"><ele>480.0</ele><time>2026-04-04T09:18:27.235Z</time></trkpt><trkpt lat="44.215758" lon="11.5361101"><ele>480.0</ele><time>2026-04-04T09:18:28.236Z</time></trkpt><trkpt lat="44.2158084" lon="11.5362254"><ele>477.2</ele><time>2026-04-04T09:18:29.236Z</time></trkpt><trkpt lat="44.2158581" lon="11.5363611"><ele>474.4</ele><time>2026-04-04T09:18:30.235Z</time></trkpt><trkpt lat="44.2159281" lon="11.536472"><ele>471.6</ele><time>2026-04-04T09:18:31.236Z</time></trkpt><trkpt lat="44.216018" lon="11.5365616"><ele>468.8</ele><time>2026-04-04T09:18:32.236Z</time></trkpt><trkpt lat="44.2161148" lon="11.5366443"><ele>466.0</ele><time>2026-04-04T09:18:33.236Z</time></trkpt><trkpt lat="44.216206" lon="11.5367518"><ele>466.0</ele><time>2026-04-04T09:18:34.235Z</time></trkpt><trkpt lat="44.2162969" lon="11.5368747"><ele>466.0</ele><time>2026-04-04T09:18:35.235Z</time></trkpt><trkpt lat="44.216376" lon="11.536985"><ele>466.0</ele><time>2026-04-04T09:18:36.235Z</time></trkpt><trkpt lat="44.2164433" lon="11.5370935"><ele>466.0</ele><time>2026-04-04T09:18:37.236Z</time></trkpt><trkpt lat="44.2164906" lon="11.5372089"><ele>466.0</ele><time>2026-04-04T09:18:38.236Z</time></trkpt><trkpt lat="44.2165315" lon="11.5373257"><ele>465.20000000000005</ele><time>2026-04-04T09:18:39.235Z</time></trkpt><trkpt lat="44.2165792" lon="11.5374175"><ele>464.40000000000003</ele><time>2026-04-04T09:18:40.235Z</time></trkpt><trkpt lat="44.216648" lon="11.5374922"><ele>463.6</ele><time>2026-04-04T09:18:41.236Z</time></trkpt><trkpt lat="44.2167484" lon="11.5375575"><ele>462.8</ele><time>2026-04-04T09:18:42.236Z</time></trkpt><trkpt lat="44.2168623" lon="11.5376253"><ele>462.0</ele><time>2026-04-04T09:18:43.236Z</time></trkpt><trkpt lat="44.2169684" lon="11.5377005"><ele>462.0</ele><time>2026-04-04T09:18:44.235Z</time></trkpt><trkpt lat="44.2170651" lon="11.5377921"><ele>462.00000000000006</ele><time>2026-04-04T09:18:45.235Z</time></trkpt><trkpt lat="44.2171526" lon="11.5378961"><ele>462.00000000000006</ele><time>2026-04-04T09:18:46.235Z</time></trkpt><trkpt lat="44.2172293" lon="11.5380082"><ele>462.0</ele><time>2026-04-04T09:18:47.236Z</time></trkpt><trkpt lat="44.2173068" lon="11.5380911"><ele>462.0</ele><time>2026-04-04T09:18:48.236Z</time></trkpt><trkpt lat="44.2173785" lon="11.5381366"><ele>461.6</ele><time>2026-04-04T09:18:49.236Z</time></trkpt><trkpt lat="44.2174437" lon="11.5381317"><ele>461.20000000000005</ele><time>2026-04-04T09:18:50.236Z</time></trkpt><trkpt lat="44.2175093" lon="11.5380733"><ele>460.8</ele><time>2026-04-04T09:18:51.236Z</time></trkpt><trkpt lat="44.2175821" lon="11.5379814"><ele>460.4</ele><time>2026-04-04T09:18:52.236Z</time></trkpt><trkpt lat="44.2176632" lon="11.5378488"><ele>460.0</ele><time>2026-04-04T09:18:53.235Z</time></trkpt><trkpt lat="44.2177466" lon="11.5376695"><ele>460.0</ele><time>2026-04-04T09:18:54.236Z</time></trkpt><trkpt lat="44.2178367" lon="11.5374644"><ele>460.0</ele><time>2026-04-04T09:18:55.236Z</time></trkpt><trkpt lat="44.2179206" lon="11.5372394"><ele>460.0</ele><time>2026-04-04T09:18:56.236Z</time></trkpt><trkpt lat="44.2180031" lon="11.5370215"><ele>461.75</ele><time>2026-04-04T09:18:57.236Z</time></trkpt><trkpt lat="44.2180688" lon="11.5368159"><ele>463.5</ele><time>2026-04-04T09:18:58.235Z</time></trkpt><trkpt lat="44.2181293" lon="11.5366495"><ele>465.25</ele><time>2026-04-04T09:18:59.236Z</time></trkpt><trkpt lat="44.2181931" lon="11.5365148"><ele>467.0</ele><time>2026-04-04T09:19:00.236Z</time></trkpt><trkpt lat="44.218256" lon="11.5364011"><ele>467.0</ele><time>2026-04-04T09:19:01.236Z</time></trkpt><trkpt lat="44.2183197" lon="11.5363066"><ele>467.00000000000006</ele><time>2026-04-04T09:19:02.236Z</time></trkpt><trkpt lat="44.2183938" lon="11.5362367"><ele>467.00000000000006</ele><time>2026-04-04T09:19:03.236Z</time></trkpt><trkpt lat="44.2184812" lon="11.5361932"><ele>467.0</ele><time>2026-04-04T09:19:04.235Z</time></trkpt><trkpt lat="44.2185686" lon="11.5361827"><ele>467.0</ele><time>2026-04-04T09:19:05.236Z</time></trkpt><trkpt lat="44.2186622" lon="11.5362137"><ele>466.99999999999994</ele><time>2026-04-04T09:19:06.236Z</time></trkpt><trkpt lat="44.2187615" lon="11.5362742"><ele>467.0</ele><time>2026-04-04T09:19:07.235Z</time></trkpt><trkpt lat="44.2188603" lon="11.5363259"><ele>467.0</ele><time>2026-04-04T09:19:08.236Z</time></trkpt><trkpt lat="44.218939" lon="11.5363486"><ele>467.0</ele><time>2026-04-04T09:19:09.236Z</time></trkpt><trkpt lat="44.2190036" lon="11.5363487"><ele>466.99999999999994</ele><time>2026-04-04T09:19:10.235Z</time></trkpt><trkpt lat="44.2190766" lon="11.5362987"><ele>467.0</ele><time>2026-04-04T09:19:12.235Z</time></trkpt><trkpt lat="44.2191033" lon="11.536215"><ele>465.16666666666663</ele><time>2026-04-04T09:21:27.236Z</time></trkpt><trkpt lat="44.219185" lon="11.5361183"><ele>463.3333333333333</ele><time>2026-04-04T09:21:29.236Z</time></trkpt><trkpt lat="44.2192317" lon="11.5360533"><ele>461.5</ele><time>2026-04-04T09:21:30.236Z</time></trkpt><trkpt lat="44.2192933" lon="11.536015"><ele>459.66666666666663</ele><time>2026-04-04T09:21:31.235Z</time></trkpt><trkpt lat="44.21937" lon="11.5359917"><ele>457.8333333333333</ele><time>2026-04-04T09:21:32.236Z</time></trkpt><trkpt lat="44.2194633" lon="11.5359917"><ele>456.0</ele><time>2026-04-04T09:21:33.235Z</time></trkpt><trkpt lat="44.21957" lon="11.5360133"><ele>456.0</ele><time>2026-04-04T09:21:34.235Z</time></trkpt><trkpt lat="44.2196617" lon="11.5360333"><ele>456.0</ele><time>2026-04-04T09:21:35.236Z</time></trkpt><trkpt lat="44.21975" lon="11.5360567"><ele>456.0</ele><time>2026-04-04T09:21:36.235Z</time></trkpt><trkpt lat="44.2198333" lon="11.5360583"><ele>456.0</ele><time>2026-04-04T09:21:37.236Z</time></trkpt><trkpt lat="44.2199017" lon="11.5360633"><ele>456.0</ele><time>2026-04-04T09:21:38.236Z</time></trkpt><trkpt lat="44.21997" lon="11.5360533"><ele>456.0</ele><time>2026-04-04T09:21:39.235Z</time></trkpt><trkpt lat="44.2200383" lon="11.53606"><ele>456.4</ele><time>2026-04-04T09:21:40.235Z</time></trkpt><trkpt lat="44.2201233" lon="11.5361017"><ele>456.8</ele><time>2026-04-04T09:21:41.235Z</time></trkpt><trkpt lat="44.22022" lon="11.5361767"><ele>457.19999999999993</ele><time>2026-04-04T09:21:42.235Z</time></trkpt><trkpt lat="44.2203" lon="11.536245"><ele>457.59999999999997</ele><time>2026-04-04T09:21:43.235Z</time></trkpt><trkpt lat="44.220395" lon="11.5363083"><ele>458.0</ele><time>2026-04-04T09:21:44.235Z</time></trkpt><trkpt lat="44.2204983" lon="11.5363733"><ele>458.0</ele><time>2026-04-04T09:21:45.236Z</time></trkpt><trkpt lat="44.2205967" lon="11.5364233"><ele>457.99999999999994</ele><time>2026-04-04T09:21:46.236Z</time></trkpt><trkpt lat="44.220695" lon="11.5364667"><ele>457.99999999999994</ele><time>2026-04-04T09:21:47.236Z</time></trkpt><trkpt lat="44.2207783" lon="11.5364883"><ele>458.0</ele><time>2026-04-04T09:21:48.236Z</time></trkpt><trkpt lat="44.2208683" lon="11.5365033"><ele>458.0</ele><time>2026-04-04T09:21:49.235Z</time></trkpt><trkpt lat="44.2209583" lon="11.5365267"><ele>458.0</ele><time>2026-04-04T09:21:50.235Z</time></trkpt><trkpt lat="44.2210533" lon="11.5365483"><ele>457.99999999999994</ele><time>2026-04-04T09:21:51.236Z</time></trkpt><trkpt lat="44.2211567" lon="11.53658"><ele>457.99999999999994</ele><time>2026-04-04T09:21:52.236Z</time></trkpt><trkpt lat="44.2212617" lon="11.536595"><ele>458.0</ele><time>2026-04-04T09:21:53.236Z</time></trkpt><trkpt lat="44.22136" lon="11.5366"><ele>458.0</ele><time>2026-04-04T09:21:54.235Z</time></trkpt><trkpt lat="44.2214417" lon="11.5365817"><ele>457.49999999999994</ele><time>2026-04-04T09:21:55.236Z</time></trkpt><trkpt lat="44.2215167" lon="11.5365667"><ele>457.0</ele><time>2026-04-04T09:21:56.236Z</time></trkpt><trkpt lat="44.2215917" lon="11.5365433"><ele>456.5</ele><time>2026-04-04T09:21:57.236Z</time></trkpt><trkpt lat="44.2216733" lon="11.5365417"><ele>456.0</ele><time>2026-04-04T09:21:58.235Z</time></trkpt><trkpt lat="44.2217567" lon="11.5365633"><ele>455.49999999999994</ele><time>2026-04-04T09:21:59.236Z</time></trkpt><trkpt lat="44.22184" lon="11.5365883"><ele>455.0</ele><time>2026-04-04T09:22:00.235Z</time></trkpt><trkpt lat="44.221915" lon="11.5366"><ele>454.99999999999994</ele><time>2026-04-04T09:22:01.235Z</time></trkpt><trkpt lat="44.221995" lon="11.5365833"><ele>455.0</ele><time>2026-04-04T09:22:02.236Z</time></trkpt><trkpt lat="44.2220767" lon="11.5365333"><ele>455.0</ele><time>2026-04-04T09:22:03.235Z</time></trkpt><trkpt lat="44.2221567" lon="11.5364733"><ele>455.0</ele><time>2026-04-04T09:22:04.236Z</time></trkpt><trkpt lat="44.2222383" lon="11.5364133"><ele>454.99999999999994</ele><time>2026-04-04T09:22:05.236Z</time></trkpt><trkpt lat="44.2223217" lon="11.5363817"><ele>455.0</ele><time>2026-04-04T09:22:06.236Z</time></trkpt><trkpt lat="44.22241" lon="11.5364033"><ele>456.0</ele><time>2026-04-04T09:22:07.235Z</time></trkpt><trkpt lat="44.2225033" lon="11.5364433"><ele>457.0</ele><time>2026-04-04T09:22:08.236Z</time></trkpt><trkpt lat="44.22261" lon="11.5365133"><ele>458.0</ele><time>2026-04-04T09:22:09.236Z</time></trkpt><trkpt lat="44.222725" lon="11.5365933"><ele>459.0</ele><time>2026-04-04T09:22:10.236Z</time></trkpt><trkpt lat="44.2228533" lon="11.53666"><ele>459.0</ele><time>2026-04-04T09:22:11.236Z</time></trkpt><trkpt lat="44.2229683" lon="11.5367017"><ele>459.0</ele><time>2026-04-04T09:22:12.235Z</time></trkpt><trkpt lat="44.2230617" lon="11.53675"><ele>459.0</ele><time>2026-04-04T09:22:13.236Z</time></trkpt><trkpt lat="44.2231283" lon="11.5367933"><ele>459.0</ele><time>2026-04-04T09:22:14.235Z</time></trkpt><trkpt lat="44.22322" lon="11.5368783"><ele>459.0</ele><time>2026-04-04T09:22:16.235Z</time></trkpt><trkpt lat="44.2233183" lon="11.5368433"><ele>459.8333333333333</ele><time>2026-04-04T09:22:18.236Z</time></trkpt><trkpt lat="44.223365" lon="11.5367717"><ele>460.66666666666663</ele><time>2026-04-04T09:22:19.236Z</time></trkpt><trkpt lat="44.2234067" lon="11.53667"><ele>461.5</ele><time>2026-04-04T09:22:20.236Z</time></trkpt><trkpt lat="44.2234433" lon="11.5365817"><ele>462.3333333333333</ele><time>2026-04-04T09:22:21.235Z</time></trkpt><trkpt lat="44.2234783" lon="11.5365"><ele>463.16666666666663</ele><time>2026-04-04T09:22:22.236Z</time></trkpt><trkpt lat="44.2235183" lon="11.53641"><ele>464.0</ele><time>2026-04-04T09:22:23.235Z</time></trkpt><trkpt lat="44.22359" lon="11.5363417"><ele>464.0</ele><time>2026-04-04T09:22:24.236Z</time></trkpt><trkpt lat="44.22367" lon="11.53628"><ele>464.0</ele><time>2026-04-04T09:22:25.235Z</time></trkpt><trkpt lat="44.2237417" lon="11.5361817"><ele>464.0</ele><time>2026-04-04T09:22:26.235Z</time></trkpt><trkpt lat="44.223775" lon="11.5360433"><ele>464.0</ele><time>2026-04-04T09:22:27.235Z</time></trkpt><trkpt lat="44.2237767" lon="11.5358933"><ele>464.0</ele><time>2026-04-04T09:22:28.236Z</time></trkpt><trkpt lat="44.223755" lon="11.5357467"><ele>460.79999999999995</ele><time>2026-04-04T09:22:29.235Z</time></trkpt><trkpt lat="44.2237267" lon="11.5356033"><ele>457.59999999999997</ele><time>2026-04-04T09:22:30.236Z</time></trkpt><trkpt lat="44.2237" lon="11.5354517"><ele>454.4</ele><time>2026-04-04T09:22:31.236Z</time></trkpt><trkpt lat="44.2237" lon="11.5353233"><ele>451.2</ele><time>2026-04-04T09:22:32.236Z</time></trkpt><trkpt lat="44.22372" lon="11.5352217"><ele>448.0</ele><time>2026-04-04T09:22:33.235Z</time></trkpt><trkpt lat="44.2237617" lon="11.5351433"><ele>446.2</ele><time>2026-04-04T09:22:34.235Z</time></trkpt><trkpt lat="44.2238267" lon="11.5350983"><ele>444.4</ele><time>2026-04-04T09:22:35.236Z</time></trkpt><trkpt lat="44.2239233" lon="11.5350633"><ele>442.59999999999997</ele><time>2026-04-04T09:22:36.236Z</time></trkpt><trkpt lat="44.224025" lon="11.53503"><ele>440.79999999999995</ele><time>2026-04-04T09:22:37.236Z</time></trkpt><trkpt lat="44.2241217" lon="11.5349733"><ele>439.0</ele><time>2026-04-04T09:22:38.235Z</time></trkpt><trkpt lat="44.2242067" lon="11.53488"><ele>443.2</ele><time>2026-04-04T09:22:39.236Z</time></trkpt><trkpt lat="44.22428" lon="11.53477"><ele>447.4</ele><time>2026-04-04T09:22:40.236Z</time></trkpt><trkpt lat="44.2243367" lon="11.5346717"><ele>451.6</ele><time>2026-04-04T09:22:41.235Z</time></trkpt><trkpt lat="44.2243717" lon="11.5345883"><ele>455.8</ele><time>2026-04-04T09:22:42.235Z</time></trkpt><trkpt lat="44.2243433" lon="11.5344117"><ele>460.0</ele><time>2026-04-04T09:22:44.236Z</time></trkpt><trkpt lat="44.2243083" lon="11.5343217"><ele>460.00000000000006</ele><time>2026-04-04T09:22:45.236Z</time></trkpt><trkpt lat="44.2242917" lon="11.5342167"><ele>460.0</ele><time>2026-04-04T09:22:46.236Z</time></trkpt><trkpt lat="44.22428" lon="11.534115"><ele>460.0</ele><time>2026-04-04T09:22:47.236Z</time></trkpt><trkpt lat="44.224245" lon="11.5340083"><ele>460.0</ele><time>2026-04-04T09:22:48.236Z</time></trkpt><trkpt lat="44.2242" lon="11.533895"><ele>460.00000000000006</ele><time>2026-04-04T09:22:49.235Z</time></trkpt><trkpt lat="44.2241317" lon="11.5337617"><ele>460.0</ele><time>2026-04-04T09:22:50.235Z</time></trkpt><trkpt lat="44.2240667" lon="11.5336483"><ele>460.8</ele><time>2026-04-04T09:22:51.236Z</time></trkpt><trkpt lat="44.2240233" lon="11.53356"><ele>461.6</ele><time>2026-04-04T09:22:52.236Z</time></trkpt><trkpt lat="44.2240467" lon="11.5333883"><ele>462.4</ele><time>2026-04-04T09:22:54.235Z</time></trkpt><trkpt lat="44.2240867" lon="11.5332767"><ele>463.2</ele><time>2026-04-04T09:22:55.236Z</time></trkpt><trkpt lat="44.22415" lon="11.5331433"><ele>464.0</ele><time>2026-04-04T09:22:56.236Z</time></trkpt><trkpt lat="44.2242233" lon="11.53304"><ele>463.99999999999994</ele><time>2026-04-04T09:22:57.235Z</time></trkpt><trkpt lat="44.2243" lon="11.5329667"><ele>464.0</ele><time>2026-04-04T09:22:58.235Z</time></trkpt><trkpt lat="44.2243767" lon="11.5329117"><ele>464.0</ele><time>2026-04-04T09:22:59.236Z</time></trkpt><trkpt lat="44.2244583" lon="11.5328767"><ele>464.0</ele><time>2026-04-04T09:23:00.236Z</time></trkpt><trkpt lat="44.2245417" lon="11.53284"><ele>463.99999999999994</ele><time>2026-04-04T09:23:01.236Z</time></trkpt><trkpt lat="44.224615" lon="11.5328133"><ele>464.0</ele><time>2026-04-04T09:23:02.236Z</time></trkpt><trkpt lat="44.224685" lon="11.532805"><ele>463.49999999999994</ele><time>2026-04-04T09:23:03.236Z</time></trkpt><trkpt lat="44.22476" lon="11.5328083"><ele>463.0</ele><time>2026-04-04T09:23:04.236Z</time></trkpt><trkpt lat="44.2248267" lon="11.53282"><ele>462.5</ele><time>2026-04-04T09:23:05.236Z</time></trkpt><trkpt lat="44.2249017" lon="11.5328333"><ele>462.0</ele><time>2026-04-04T09:23:06.236Z</time></trkpt><trkpt lat="44.224985" lon="11.532855"><ele>461.49999999999994</ele><time>2026-04-04T09:23:07.236Z</time></trkpt><trkpt lat="44.2250817" lon="11.53288"><ele>461.0</ele><time>2026-04-04T09:23:08.235Z</time></trkpt><trkpt lat="44.2251767" lon="11.5329233"><ele>462.49999999999994</ele><time>2026-04-04T09:23:09.236Z</time></trkpt><trkpt lat="44.225265" lon="11.5329833"><ele>464.0</ele><time>2026-04-04T09:23:10.236Z</time></trkpt><trkpt lat="44.2253483" lon="11.533045"><ele>465.5</ele><time>2026-04-04T09:23:11.236Z</time></trkpt><trkpt lat="44.22543" lon="11.5330917"><ele>467.0</ele><time>2026-04-04T09:23:12.236Z</time></trkpt><trkpt lat="44.225505" lon="11.5331333"><ele>468.49999999999994</ele><time>2026-04-04T09:23:13.236Z</time></trkpt><trkpt lat="44.22557" lon="11.53317"><ele>470.0</ele><time>2026-04-04T09:23:14.236Z</time></trkpt><trkpt lat="44.2256383" lon="11.5331917"><ele>466.99999999999994</ele><time>2026-04-04T09:23:15.236Z</time></trkpt><trkpt lat="44.2257033" lon="11.5331917"><ele>464.0</ele><time>2026-04-04T09:23:16.236Z</time></trkpt><trkpt lat="44.2257917" lon="11.533125"><ele>461.0</ele><time>2026-04-04T09:23:18.235Z</time></trkpt><trkpt lat="44.2258167" lon="11.532975"><ele>458.0</ele><time>2026-04-04T09:23:20.236Z</time></trkpt><trkpt lat="44.2258067" lon="11.532865"><ele>454.99999999999994</ele><time>2026-04-04T09:23:21.236Z</time></trkpt><trkpt lat="44.2257833" lon="11.5327483"><ele>452.0</ele><time>2026-04-04T09:23:22.236Z</time></trkpt><trkpt lat="44.2257633" lon="11.532645"><ele>450.8</ele><time>2026-04-04T09:23:23.235Z</time></trkpt><trkpt lat="44.225775" lon="11.532495"><ele>449.6</ele><time>2026-04-04T09:23:25.236Z</time></trkpt><trkpt lat="44.2258767" lon="11.5323933"><ele>448.40000000000003</ele><time>2026-04-04T09:23:38.235Z</time></trkpt><trkpt lat="44.2259933" lon="11.5323683"><ele>447.20000000000005</ele><time>2026-04-04T09:23:40.236Z</time></trkpt><trkpt lat="44.2260583" lon="11.532375"><ele>446.0</ele><time>2026-04-04T09:23:41.235Z</time></trkpt><trkpt lat="44.2261433" lon="11.532375"><ele>445.99999999999994</ele><time>2026-04-04T09:23:42.236Z</time></trkpt><trkpt lat="44.22622" lon="11.5323583"><ele>446.0</ele><time>2026-04-04T09:23:43.235Z</time></trkpt><trkpt lat="44.2262867" lon="11.5323417"><ele>446.0</ele><time>2026-04-04T09:23:44.236Z</time></trkpt><trkpt lat="44.226365" lon="11.532325"><ele>446.0</ele><time>2026-04-04T09:23:46.235Z</time></trkpt><trkpt lat="44.226295" lon="11.53231"><ele>445.99999999999994</ele><time>2026-04-04T09:23:53.235Z</time></trkpt><trkpt lat="44.226195" lon="11.5323383"><ele>446.0</ele><time>2026-04-04T09:23:55.236Z</time></trkpt><trkpt lat="44.22608" lon="11.5323417"><ele>446.0</ele><time>2026-04-04T09:23:57.235Z</time></trkpt><trkpt lat="44.2259633" lon="11.5323533"><ele>446.0</ele><time>2026-04-04T09:23:59.235Z</time></trkpt><trkpt lat="44.225845" lon="11.53239"><ele>446.0</ele><time>2026-04-04T09:24:01.236Z</time></trkpt><trkpt lat="44.225745" lon="11.5324633"><ele>446.0</ele><time>2026-04-04T09:24:03.236Z</time></trkpt><trkpt lat="44.225715" lon="11.532555"><ele>446.0</ele><time>2026-04-04T09:24:05.236Z</time></trkpt><trkpt lat="44.22575" lon="11.5327133"><ele>446.0</ele><time>2026-04-04T09:24:15.236Z</time></trkpt><trkpt lat="44.22582" lon="11.5328633"><ele>446.0</ele><time>2026-04-04T09:24:17.236Z</time></trkpt><trkpt lat="44.2258617" lon="11.5329617"><ele>446.0</ele><time>2026-04-04T09:24:18.236Z</time></trkpt><trkpt lat="44.2259" lon="11.5330533"><ele>446.0</ele><time>2026-04-04T09:24:19.236Z</time></trkpt><trkpt lat="44.2259317" lon="11.533155"><ele>446.0</ele><time>2026-04-04T09:24:20.235Z</time></trkpt><trkpt lat="44.2259567" lon="11.533285"><ele>447.20000000000005</ele><time>2026-04-04T09:24:21.236Z</time></trkpt><trkpt lat="44.2259833" lon="11.5334183"><ele>448.40000000000003</ele><time>2026-04-04T09:24:22.236Z</time></trkpt><trkpt lat="44.226015" lon="11.5335667"><ele>449.6</ele><time>2026-04-04T09:24:23.236Z</time></trkpt><trkpt lat="44.226035" lon="11.5337117"><ele>450.8</ele><time>2026-04-04T09:24:24.236Z</time></trkpt><trkpt lat="44.2260567" lon="11.5338433"><ele>452.0</ele><time>2026-04-04T09:24:25.235Z</time></trkpt><trkpt lat="44.2260817" lon="11.5339733"><ele>453.16666666666663</ele><time>2026-04-04T09:24:26.236Z</time></trkpt><trkpt lat="44.2261083" lon="11.53412"><ele>454.3333333333333</ele><time>2026-04-04T09:24:27.235Z</time></trkpt><trkpt lat="44.2261317" lon="11.5342583"><ele>455.5</ele><time>2026-04-04T09:24:28.235Z</time></trkpt><trkpt lat="44.2261517" lon="11.5343667"><ele>456.66666666666663</ele><time>2026-04-04T09:24:29.236Z</time></trkpt><trkpt lat="44.22618" lon="11.5344633"><ele>457.8333333333333</ele><time>2026-04-04T09:24:30.235Z</time></trkpt><trkpt lat="44.2262283" lon="11.534545"><ele>459.0</ele><time>2026-04-04T09:24:31.236Z</time></trkpt><trkpt lat="44.2262833" lon="11.53463"><ele>460.8333333333333</ele><time>2026-04-04T09:24:32.236Z</time></trkpt><trkpt lat="44.2263383" lon="11.534705"><ele>462.66666666666663</ele><time>2026-04-04T09:24:33.236Z</time></trkpt><trkpt lat="44.2263917" lon="11.534775"><ele>464.5</ele><time>2026-04-04T09:24:34.236Z</time></trkpt><trkpt lat="44.2264617" lon="11.5348833"><ele>466.3333333333333</ele><time>2026-04-04T09:24:36.235Z</time></trkpt><trkpt lat="44.2264567" lon="11.5349733"><ele>468.16666666666663</ele><time>2026-04-04T09:24:38.236Z</time></trkpt><trkpt lat="44.2264367" lon="11.5350817"><ele>470.0</ele><time>2026-04-04T09:24:41.235Z</time></trkpt><trkpt lat="44.226415" lon="11.5351717"><ele>470.0</ele><time>2026-04-04T09:24:44.236Z</time></trkpt><trkpt lat="44.2264383" lon="11.535265"><ele>469.99999999999994</ele><time>2026-04-04T09:24:47.235Z</time></trkpt><trkpt lat="44.2264917" lon="11.535215"><ele>470.0</ele><time>2026-04-04T09:24:50.236Z</time></trkpt><trkpt lat="44.2264917" lon="11.5351183"><ele>470.0</ele><time>2026-04-04T09:24:52.236Z</time></trkpt><trkpt lat="44.22646" lon="11.5350117"><ele>469.99999999999994</ele><time>2026-04-04T09:24:54.236Z</time></trkpt><trkpt lat="44.226445" lon="11.5349183"><ele>470.0</ele><time>2026-04-04T09:24:57.236Z</time></trkpt><trkpt lat="44.226435" lon="11.5347933"><ele>470.0</ele><time>2026-04-04T09:25:00.236Z</time></trkpt><trkpt lat="44.22642" lon="11.5346733"><ele>470.0</ele><time>2026-04-04T09:25:03.236Z</time></trkpt><trkpt lat="44.226475" lon="11.534595"><ele>470.0</ele><time>2026-04-04T09:25:05.236Z</time></trkpt><trkpt lat="44.2265617" lon="11.5346167"><ele>470.0</ele><time>2026-04-04T09:25:07.236Z</time></trkpt><trkpt lat="44.226635" lon="11.53475"><ele>470.0</ele><time>2026-04-04T09:25:09.236Z</time></trkpt><trkpt lat="44.2266717" lon="11.5349133"><ele>470.0</ele><time>2026-04-04T09:25:11.236Z</time></trkpt><trkpt lat="44.2267283" lon="11.5350583"><ele>467.4</ele><time>2026-04-04T09:25:13.236Z</time></trkpt><trkpt lat="44.2267667" lon="11.53513"><ele>464.8</ele><time>2026-04-04T09:25:14.236Z</time></trkpt><trkpt lat="44.2268283" lon="11.5352667"><ele>462.20000000000005</ele><time>2026-04-04T09:25:16.236Z</time></trkpt><trkpt lat="44.2268767" lon="11.535405"><ele>459.6</ele><time>2026-04-04T09:25:18.236Z</time></trkpt><trkpt lat="44.2269033" lon="11.535485"><ele>457.0</ele><time>2026-04-04T09:25:19.236Z</time></trkpt><trkpt lat="44.2269667" lon="11.5356383"><ele>457.0</ele><time>2026-04-04T09:25:21.235Z</time></trkpt><trkpt lat="44.227035" lon="11.5357783"><ele>457.00000000000006</ele><time>2026-04-04T09:25:23.236Z</time></trkpt><trkpt lat="44.2271017" lon="11.5358917"><ele>457.00000000000006</ele><time>2026-04-04T09:25:25.235Z</time></trkpt><trkpt lat="44.22719" lon="11.5359167"><ele>457.0</ele><time>2026-04-04T09:25:27.235Z</time></trkpt><trkpt lat="44.2272783" lon="11.53582"><ele>457.0</ele><time>2026-04-04T09:25:29.235Z</time></trkpt><trkpt lat="44.2273183" lon="11.535725"><ele>452.40000000000003</ele><time>2026-04-04T09:25:30.236Z</time></trkpt><trkpt lat="44.2273517" lon="11.5356267"><ele>447.80000000000007</ele><time>2026-04-04T09:25:31.236Z</time></trkpt><trkpt lat="44.2273883" lon="11.535505"><ele>443.2</ele><time>2026-04-04T09:25:32.236Z</time></trkpt><trkpt lat="44.22743" lon="11.5353767"><ele>438.6</ele><time>2026-04-04T09:25:33.236Z</time></trkpt><trkpt lat="44.2274717" lon="11.5352583"><ele>434.0</ele><time>2026-04-04T09:25:34.236Z</time></trkpt><trkpt lat="44.22751" lon="11.5351333"><ele>431.79999999999995</ele><time>2026-04-04T09:25:35.235Z</time></trkpt><trkpt lat="44.227555" lon="11.535005"><ele>429.59999999999997</ele><time>2026-04-04T09:25:36.236Z</time></trkpt><trkpt lat="44.227605" lon="11.5348883"><ele>427.4</ele><time>2026-04-04T09:25:37.236Z</time></trkpt><trkpt lat="44.227655" lon="11.53477"><ele>425.2</ele><time>2026-04-04T09:25:38.235Z</time></trkpt><trkpt lat="44.2276967" lon="11.5346433"><ele>423.0</ele><time>2026-04-04T09:25:39.236Z</time></trkpt><trkpt lat="44.2277317" lon="11.5345083"><ele>422.4</ele><time>2026-04-04T09:25:40.236Z</time></trkpt><trkpt lat="44.2277717" lon="11.5343617"><ele>421.79999999999995</ele><time>2026-04-04T09:25:41.236Z</time></trkpt><trkpt lat="44.2278083" lon="11.5342317"><ele>421.2</ele><time>2026-04-04T09:25:42.235Z</time></trkpt><trkpt lat="44.2278567" lon="11.5340933"><ele>420.6</ele><time>2026-04-04T09:25:43.235Z</time></trkpt><trkpt lat="44.2278967" lon="11.533955"><ele>420.0</ele><time>2026-04-04T09:25:44.236Z</time></trkpt><trkpt lat="44.2279367" lon="11.53382"><ele>419.3333333333333</ele><time>2026-04-04T09:25:45.236Z</time></trkpt><trkpt lat="44.2279767" lon="11.5337"><ele>418.66666666666663</ele><time>2026-04-04T09:25:46.236Z</time></trkpt><trkpt lat="44.2280217" lon="11.5335833"><ele>418.0</ele><time>2026-04-04T09:25:47.235Z</time></trkpt><trkpt lat="44.2280633" lon="11.53347"><ele>417.3333333333333</ele><time>2026-04-04T09:25:48.236Z</time></trkpt><trkpt lat="44.2280967" lon="11.5333567"><ele>416.66666666666663</ele><time>2026-04-04T09:25:49.236Z</time></trkpt><trkpt lat="44.2280967" lon="11.5332533"><ele>416.0</ele><time>2026-04-04T09:25:50.236Z</time></trkpt><trkpt lat="44.2280917" lon="11.53316"><ele>415.99999999999994</ele><time>2026-04-04T09:25:51.236Z</time></trkpt><trkpt lat="44.228085" lon="11.5330667"><ele>416.0</ele><time>2026-04-04T09:25:52.235Z</time></trkpt><trkpt lat="44.2281117" lon="11.5329067"><ele>416.0</ele><time>2026-04-04T09:25:54.236Z</time></trkpt><trkpt lat="44.22816" lon="11.5328383"><ele>416.0</ele><time>2026-04-04T09:25:55.236Z</time></trkpt><trkpt lat="44.2282383" lon="11.5328067"><ele>415.99999999999994</ele><time>2026-04-04T09:25:56.236Z</time></trkpt><trkpt lat="44.2283383" lon="11.53279"><ele>416.0</ele><time>2026-04-04T09:25:57.235Z</time></trkpt><trkpt lat="44.2284333" lon="11.5327717"><ele>411.20000000000005</ele><time>2026-04-04T09:25:58.235Z</time></trkpt><trkpt lat="44.228545" lon="11.5327433"><ele>406.40000000000003</ele><time>2026-04-04T09:25:59.235Z</time></trkpt><trkpt lat="44.2286533" lon="11.5327133"><ele>401.6</ele><time>2026-04-04T09:26:00.235Z</time></trkpt><trkpt lat="44.2287517" lon="11.5326833"><ele>396.8</ele><time>2026-04-04T09:26:01.236Z</time></trkpt><trkpt lat="44.22884" lon="11.53264"><ele>392.0</ele><time>2026-04-04T09:26:02.236Z</time></trkpt><trkpt lat="44.2289217" lon="11.532615"><ele>389.6</ele><time>2026-04-04T09:26:03.236Z</time></trkpt><trkpt lat="44.2290067" lon="11.5326083"><ele>387.20000000000005</ele><time>2026-04-04T09:26:04.236Z</time></trkpt><trkpt lat="44.22909" lon="11.5326117"><ele>384.8</ele><time>2026-04-04T09:26:05.235Z</time></trkpt><trkpt lat="44.2291567" lon="11.5326317"><ele>382.4</ele><time>2026-04-04T09:26:06.236Z</time></trkpt><trkpt lat="44.229245" lon="11.5327317"><ele>380.0</ele><time>2026-04-04T09:26:08.236Z</time></trkpt><trkpt lat="44.2292517" lon="11.5328983"><ele>379.83333333333337</ele><time>2026-04-04T09:26:10.236Z</time></trkpt><trkpt lat="44.2292217" lon="11.5329917"><ele>379.6666666666667</ele><time>2026-04-04T09:26:11.236Z</time></trkpt><trkpt lat="44.2292" lon="11.5330967"><ele>379.5</ele><time>2026-04-04T09:26:12.235Z</time></trkpt><trkpt lat="44.2292017" lon="11.5332033"><ele>379.3333333333333</ele><time>2026-04-04T09:26:13.236Z</time></trkpt><trkpt lat="44.22924" lon="11.5332983"><ele>379.16666666666663</ele><time>2026-04-04T09:26:14.235Z</time></trkpt><trkpt lat="44.2293033" lon="11.533395"><ele>379.0</ele><time>2026-04-04T09:26:15.236Z</time></trkpt><trkpt lat="44.2293833" lon="11.53351"><ele>379.0</ele><time>2026-04-04T09:26:16.236Z</time></trkpt><trkpt lat="44.2294533" lon="11.5336083"><ele>379.0</ele><time>2026-04-04T09:26:17.236Z</time></trkpt><trkpt lat="44.229525" lon="11.5336983"><ele>379.0</ele><time>2026-04-04T09:26:18.236Z</time></trkpt><trkpt lat="44.2296067" lon="11.5337733"><ele>379.0</ele><time>2026-04-04T09:26:19.235Z</time></trkpt><trkpt lat="44.2296933" lon="11.5338033"><ele>379.0</ele><time>2026-04-04T09:26:20.236Z</time></trkpt><trkpt lat="44.2297783" lon="11.53381"><ele>377.66666666666663</ele><time>2026-04-04T09:26:21.236Z</time></trkpt><trkpt lat="44.22986" lon="11.5337517"><ele>376.3333333333333</ele><time>2026-04-04T09:26:22.236Z</time></trkpt><trkpt lat="44.22993" lon="11.53366"><ele>375.0</ele><time>2026-04-04T09:26:23.235Z</time></trkpt><trkpt lat="44.2299883" lon="11.5335783"><ele>373.6666666666667</ele><time>2026-04-04T09:26:24.235Z</time></trkpt><trkpt lat="44.230045" lon="11.53353"><ele>372.33333333333337</ele><time>2026-04-04T09:26:25.236Z</time></trkpt><trkpt lat="44.2301233" lon="11.5335133"><ele>371.0</ele><time>2026-04-04T09:26:26.235Z</time></trkpt><trkpt lat="44.2301967" lon="11.53352"><ele>370.20000000000005</ele><time>2026-04-04T09:26:27.235Z</time></trkpt><trkpt lat="44.230275" lon="11.5334967"><ele>369.40000000000003</ele><time>2026-04-04T09:26:28.235Z</time></trkpt><trkpt lat="44.230355" lon="11.5334667"><ele>368.6</ele><time>2026-04-04T09:26:29.236Z</time></trkpt><trkpt lat="44.2304483" lon="11.5334167"><ele>367.8</ele><time>2026-04-04T09:26:30.236Z</time></trkpt><trkpt lat="44.2305467" lon="11.5333683"><ele>367.0</ele><time>2026-04-04T09:26:31.236Z</time></trkpt><trkpt lat="44.23064" lon="11.53332"><ele>365.0</ele><time>2026-04-04T09:26:32.235Z</time></trkpt><trkpt lat="44.2307233" lon="11.5332733"><ele>363.0</ele><time>2026-04-04T09:26:33.236Z</time></trkpt><trkpt lat="44.2308133" lon="11.5332233"><ele>361.0</ele><time>2026-04-04T09:26:34.236Z</time></trkpt><trkpt lat="44.230925" lon="11.533185"><ele>359.0</ele><time>2026-04-04T09:26:35.235Z</time></trkpt><trkpt lat="44.2310533" lon="11.533175"><ele>357.0</ele><time>2026-04-04T09:26:36.235Z</time></trkpt><trkpt lat="44.2312" lon="11.5331417"><ele>357.0</ele><time>2026-04-04T09:26:37.236Z</time></trkpt><trkpt lat="44.231345" lon="11.5330967"><ele>357.0</ele><time>2026-04-04T09:26:38.235Z</time></trkpt><trkpt lat="44.2314967" lon="11.5330583"><ele>357.0</ele><time>2026-04-04T09:26:39.236Z</time></trkpt><trkpt lat="44.231635" lon="11.53302"><ele>357.0</ele><time>2026-04-04T09:26:40.235Z</time></trkpt><trkpt lat="44.2317717" lon="11.5329833"><ele>356.6</ele><time>2026-04-04T09:26:41.236Z</time></trkpt><trkpt lat="44.2318867" lon="11.5329583"><ele>356.20000000000005</ele><time>2026-04-04T09:26:42.236Z</time></trkpt><trkpt lat="44.2319833" lon="11.532955"><ele>355.8</ele><time>2026-04-04T09:26:43.236Z</time></trkpt><trkpt lat="44.2320833" lon="11.53299"><ele>355.4</ele><time>2026-04-04T09:26:44.235Z</time></trkpt><trkpt lat="44.232195" lon="11.53305"><ele>355.0</ele><time>2026-04-04T09:26:45.235Z</time></trkpt><trkpt lat="44.2323217" lon="11.5331417"><ele>354.4</ele><time>2026-04-04T09:26:46.236Z</time></trkpt><trkpt lat="44.232425" lon="11.533225"><ele>353.8</ele><time>2026-04-04T09:26:47.236Z</time></trkpt><trkpt lat="44.2325083" lon="11.5333133"><ele>353.20000000000005</ele><time>2026-04-04T09:26:48.236Z</time></trkpt><trkpt lat="44.23257" lon="11.533415"><ele>352.6</ele><time>2026-04-04T09:26:49.236Z</time></trkpt><trkpt lat="44.2326167" lon="11.53354"><ele>352.0</ele><time>2026-04-04T09:26:50.235Z</time></trkpt><trkpt lat="44.2326567" lon="11.5336867"><ele>353.8</ele><time>2026-04-04T09:26:51.236Z</time></trkpt><trkpt lat="44.2326983" lon="11.5338217"><ele>355.6</ele><time>2026-04-04T09:26:52.236Z</time></trkpt><trkpt lat="44.2327383" lon="11.5339533"><ele>357.40000000000003</ele><time>2026-04-04T09:26:53.236Z</time></trkpt><trkpt lat="44.2327733" lon="11.5341033"><ele>359.20000000000005</ele><time>2026-04-04T09:26:54.236Z</time></trkpt><trkpt lat="44.232785" lon="11.53428"><ele>361.0</ele><time>2026-04-04T09:26:55.235Z</time></trkpt><trkpt lat="44.2327983" lon="11.5344283"><ele>361.16666666666663</ele><time>2026-04-04T09:26:56.236Z</time></trkpt><trkpt lat="44.2328217" lon="11.5345733"><ele>361.3333333333333</ele><time>2026-04-04T09:26:57.235Z</time></trkpt><trkpt lat="44.2328717" lon="11.53468"><ele>361.5</ele><time>2026-04-04T09:26:58.235Z</time></trkpt><trkpt lat="44.232935" lon="11.5347383"><ele>361.6666666666667</ele><time>2026-04-04T09:26:59.236Z</time></trkpt><trkpt lat="44.233005" lon="11.5347567"><ele>361.83333333333337</ele><time>2026-04-04T09:27:00.235Z</time></trkpt><trkpt lat="44.23309" lon="11.53473"><ele>362.0</ele><time>2026-04-04T09:27:01.236Z</time></trkpt><trkpt lat="44.2331783" lon="11.5346717"><ele>362.0</ele><time>2026-04-04T09:27:02.236Z</time></trkpt><trkpt lat="44.2332767" lon="11.5346117"><ele>362.0</ele><time>2026-04-04T09:27:03.235Z</time></trkpt><trkpt lat="44.2333667" lon="11.5345583"><ele>362.0</ele><time>2026-04-04T09:27:04.236Z</time></trkpt><trkpt lat="44.2334667" lon="11.5345417"><ele>362.0</ele><time>2026-04-04T09:27:05.235Z</time></trkpt><trkpt lat="44.2335767" lon="11.5345433"><ele>362.0</ele><time>2026-04-04T09:27:06.235Z</time></trkpt><trkpt lat="44.2336817" lon="11.5345633"><ele>362.0</ele><time>2026-04-04T09:27:07.236Z</time></trkpt><trkpt lat="44.2337883" lon="11.5345733"><ele>362.0</ele><time>2026-04-04T09:27:08.236Z</time></trkpt><trkpt lat="44.2338883" lon="11.534545"><ele>362.0</ele><time>2026-04-04T09:27:09.236Z</time></trkpt><trkpt lat="44.2339733" lon="11.5344983"><ele>362.0</ele><time>2026-04-04T09:27:10.236Z</time></trkpt><trkpt lat="44.2340333" lon="11.534435"><ele>362.0</ele><time>2026-04-04T09:27:11.236Z</time></trkpt><trkpt lat="44.2340883" lon="11.5343717"><ele>362.0</ele><time>2026-04-04T09:27:12.236Z</time></trkpt><trkpt lat="44.234135" lon="11.5343083"><ele>358.8</ele><time>2026-04-04T09:27:13.236Z</time></trkpt><trkpt lat="44.2341567" lon="11.5341867"><ele>355.6</ele><time>2026-04-04T09:27:15.236Z</time></trkpt><trkpt lat="44.2340983" lon="11.5341167"><ele>352.40000000000003</ele><time>2026-04-04T09:27:17.236Z</time></trkpt><trkpt lat="44.2339617" lon="11.53413"><ele>349.20000000000005</ele><time>2026-04-04T09:27:19.235Z</time></trkpt><trkpt lat="44.23388" lon="11.5341233"><ele>346.0</ele><time>2026-04-04T09:27:20.235Z</time></trkpt><trkpt lat="44.2337967" lon="11.5340867"><ele>346.0</ele><time>2026-04-04T09:27:21.235Z</time></trkpt><trkpt lat="44.2337167" lon="11.53402"><ele>346.0</ele><time>2026-04-04T09:27:22.236Z</time></trkpt><trkpt lat="44.23364" lon="11.533915"><ele>346.0</ele><time>2026-04-04T09:27:23.235Z</time></trkpt><trkpt lat="44.2335617" lon="11.5337933"><ele>346.0</ele><time>2026-04-04T09:27:24.235Z</time></trkpt><trkpt lat="44.2334717" lon="11.53366"><ele>346.0</ele><time>2026-04-04T09:27:25.235Z</time></trkpt><trkpt lat="44.233375" lon="11.5335033"><ele>347.20000000000005</ele><time>2026-04-04T09:27:26.236Z</time></trkpt><trkpt lat="44.2332933" lon="11.533365"><ele>348.40000000000003</ele><time>2026-04-04T09:27:27.235Z</time></trkpt><trkpt lat="44.2332267" lon="11.5332567"><ele>349.6</ele><time>2026-04-04T09:27:28.236Z</time></trkpt><trkpt lat="44.2331667" lon="11.5331517"><ele>350.8</ele><time>2026-04-04T09:27:29.235Z</time></trkpt><trkpt lat="44.2331333" lon="11.5330433"><ele>352.0</ele><time>2026-04-04T09:27:30.236Z</time></trkpt><trkpt lat="44.2331367" lon="11.5329283"><ele>348.0</ele><time>2026-04-04T09:27:31.236Z</time></trkpt><trkpt lat="44.2331717" lon="11.532815"><ele>344.0</ele><time>2026-04-04T09:27:32.235Z</time></trkpt><trkpt lat="44.2332533" lon="11.5327483"><ele>340.0</ele><time>2026-04-04T09:27:33.235Z</time></trkpt><trkpt lat="44.2333617" lon="11.5327267"><ele>336.0</ele><time>2026-04-04T09:27:34.235Z</time></trkpt><trkpt lat="44.2334833" lon="11.5327467"><ele>332.0</ele><time>2026-04-04T09:27:35.236Z</time></trkpt><trkpt lat="44.233615" lon="11.532785"><ele>332.0</ele><time>2026-04-04T09:27:36.236Z</time></trkpt><trkpt lat="44.23375" lon="11.5328267"><ele>332.0</ele><time>2026-04-04T09:27:37.236Z</time></trkpt><trkpt lat="44.2338733" lon="11.5328567"><ele>332.0</ele><time>2026-04-04T09:27:38.236Z</time></trkpt><trkpt lat="44.233995" lon="11.532885"><ele>332.0</ele><time>2026-04-04T09:27:39.236Z</time></trkpt><trkpt lat="44.23413" lon="11.532895"><ele>330.5</ele><time>2026-04-04T09:27:40.236Z</time></trkpt><trkpt lat="44.2342667" lon="11.5328767"><ele>329.0</ele><time>2026-04-04T09:27:41.236Z</time></trkpt><trkpt lat="44.234405" lon="11.5328317"><ele>327.5</ele><time>2026-04-04T09:27:42.235Z</time></trkpt><trkpt lat="44.2345467" lon="11.53276"><ele>326.0</ele><time>2026-04-04T09:27:43.236Z</time></trkpt><trkpt lat="44.2346733" lon="11.5326717"><ele>326.0</ele><time>2026-04-04T09:27:44.236Z</time></trkpt><trkpt lat="44.2347967" lon="11.532575"><ele>326.0</ele><time>2026-04-04T09:27:45.236Z</time></trkpt><trkpt lat="44.2349183" lon="11.532475"><ele>326.0</ele><time>2026-04-04T09:27:46.236Z</time></trkpt><trkpt lat="44.2350317" lon="11.5323333"><ele>326.0</ele><time>2026-04-04T09:27:47.236Z</time></trkpt><trkpt lat="44.2351333" lon="11.5321833"><ele>325.33333333333337</ele><time>2026-04-04T09:27:48.236Z</time></trkpt><trkpt lat="44.2352217" lon="11.5320083"><ele>324.6666666666667</ele><time>2026-04-04T09:27:49.236Z</time></trkpt><trkpt lat="44.2353117" lon="11.53182"><ele>324.0</ele><time>2026-04-04T09:27:50.236Z</time></trkpt><trkpt lat="44.2353917" lon="11.5316283"><ele>324.0</ele><time>2026-04-04T09:27:51.236Z</time></trkpt><trkpt lat="44.2354733" lon="11.5314417"><ele>324.0</ele><time>2026-04-04T09:27:52.235Z</time></trkpt><trkpt lat="44.2355617" lon="11.5312567"><ele>324.0</ele><time>2026-04-04T09:27:53.236Z</time></trkpt><trkpt lat="44.23565" lon="11.53107"><ele>318.0</ele><time>2026-04-04T09:27:54.235Z</time></trkpt><trkpt lat="44.23574" lon="11.5308883"><ele>312.0</ele><time>2026-04-04T09:27:55.236Z</time></trkpt><trkpt lat="44.2358183" lon="11.5307267"><ele>306.0</ele><time>2026-04-04T09:27:56.236Z</time></trkpt><trkpt lat="44.2358867" lon="11.5305817"><ele>300.0</ele><time>2026-04-04T09:27:57.236Z</time></trkpt><trkpt lat="44.235935" lon="11.5304283"><ele>299.0</ele><time>2026-04-04T09:27:58.235Z</time></trkpt><trkpt lat="44.2359617" lon="11.5302617"><ele>298.0</ele><time>2026-04-04T09:27:59.236Z</time></trkpt><trkpt lat="44.2359633" lon="11.53007"><ele>297.0</ele><time>2026-04-04T09:28:00.236Z</time></trkpt><trkpt lat="44.2359533" lon="11.5298817"><ele>296.0</ele><time>2026-04-04T09:28:01.236Z</time></trkpt><trkpt lat="44.2359317" lon="11.5297117"><ele>296.25</ele><time>2026-04-04T09:28:02.236Z</time></trkpt><trkpt lat="44.2358883" lon="11.52955"><ele>296.5</ele><time>2026-04-04T09:28:03.236Z</time></trkpt><trkpt lat="44.2358233" lon="11.5293917"><ele>296.75</ele><time>2026-04-04T09:28:04.235Z</time></trkpt><trkpt lat="44.2357317" lon="11.529235"><ele>297.0</ele><time>2026-04-04T09:28:05.236Z</time></trkpt><trkpt lat="44.2356217" lon="11.5290767"><ele>297.0</ele><time>2026-04-04T09:28:06.236Z</time></trkpt><trkpt lat="44.2355017" lon="11.5289183"><ele>297.0</ele><time>2026-04-04T09:28:07.236Z</time></trkpt><trkpt lat="44.2353717" lon="11.5287617"><ele>297.0</ele><time>2026-04-04T09:28:08.235Z</time></trkpt><trkpt lat="44.23524" lon="11.5285883"><ele>292.3333333333333</ele><time>2026-04-04T09:28:09.235Z</time></trkpt><trkpt lat="44.2350983" lon="11.528415"><ele>287.66666666666663</ele><time>2026-04-04T09:28:10.236Z</time></trkpt><trkpt lat="44.2349683" lon="11.5282483"><ele>283.0</ele><time>2026-04-04T09:28:11.236Z</time></trkpt><trkpt lat="44.234845" lon="11.52808"><ele>283.0</ele><time>2026-04-04T09:28:12.235Z</time></trkpt><trkpt lat="44.2347283" lon="11.5279117"><ele>283.0</ele><time>2026-04-04T09:28:13.236Z</time></trkpt><trkpt lat="44.234645" lon="11.5277183"><ele>283.0</ele><time>2026-04-04T09:28:14.236Z</time></trkpt><trkpt lat="44.2345617" lon="11.5275017"><ele>283.0</ele><time>2026-04-04T09:28:15.236Z</time></trkpt><trkpt lat="44.2345117" lon="11.527275"><ele>283.0</ele><time>2026-04-04T09:28:16.236Z</time></trkpt><trkpt lat="44.2344883" lon="11.5270517"><ele>283.0</ele><time>2026-04-04T09:28:17.235Z</time></trkpt><trkpt lat="44.234475" lon="11.5268417"><ele>279.75</ele><time>2026-04-04T09:28:18.235Z</time></trkpt><trkpt lat="44.2344683" lon="11.5266517"><ele>276.5</ele><time>2026-04-04T09:28:19.236Z</time></trkpt><trkpt lat="44.2344833" lon="11.5264783"><ele>273.25</ele><time>2026-04-04T09:28:20.235Z</time></trkpt><trkpt lat="44.2345383" lon="11.5263383"><ele>270.0</ele><time>2026-04-04T09:28:21.235Z</time></trkpt><trkpt lat="44.2346183" lon="11.5262117"><ele>268.0</ele><time>2026-04-04T09:28:22.235Z</time></trkpt><trkpt lat="44.23472" lon="11.5261133"><ele>266.0</ele><time>2026-04-04T09:28:23.236Z</time></trkpt><trkpt lat="44.2348383" lon="11.5260617"><ele>264.0</ele><time>2026-04-04T09:28:24.236Z</time></trkpt><trkpt lat="44.234965" lon="11.5260533"><ele>262.0</ele><time>2026-04-04T09:28:25.236Z</time></trkpt><trkpt lat="44.2350833" lon="11.5261067"><ele>262.0</ele><time>2026-04-04T09:28:26.235Z</time></trkpt><trkpt lat="44.2351917" lon="11.526205"><ele>262.0</ele><time>2026-04-04T09:28:27.235Z</time></trkpt><trkpt lat="44.2352867" lon="11.5263433"><ele>262.0</ele><time>2026-04-04T09:28:28.236Z</time></trkpt><trkpt lat="44.2353767" lon="11.52652"><ele>262.0</ele><time>2026-04-04T09:28:29.236Z</time></trkpt><trkpt lat="44.23547" lon="11.5266933"><ele>261.75</ele><time>2026-04-04T09:28:30.236Z</time></trkpt><trkpt lat="44.2355633" lon="11.526855"><ele>261.5</ele><time>2026-04-04T09:28:31.236Z</time></trkpt><trkpt lat="44.2356683" lon="11.527"><ele>261.25</ele><time>2026-04-04T09:28:32.236Z</time></trkpt><trkpt lat="44.2357967" lon="11.5270983"><ele>261.0</ele><time>2026-04-04T09:28:33.236Z</time></trkpt><trkpt lat="44.2359552" lon="11.5271654"><ele>261.0</ele><time>2026-04-04T09:28:34.236Z</time></trkpt><trkpt lat="44.2361277" lon="11.5271927"><ele>261.0</ele><time>2026-04-04T09:28:35.235Z</time></trkpt><trkpt lat="44.2362944" lon="11.5272092"><ele>261.0</ele><time>2026-04-04T09:28:36.235Z</time></trkpt><trkpt lat="44.2364566" lon="11.5272287"><ele>258.0</ele><time>2026-04-04T09:28:37.236Z</time></trkpt><trkpt lat="44.2366223" lon="11.5272531"><ele>255.0</ele><time>2026-04-04T09:28:38.236Z</time></trkpt><trkpt lat="44.2367883" lon="11.5272838"><ele>252.0</ele><time>2026-04-04T09:28:39.236Z</time></trkpt><trkpt lat="44.23696" lon="11.5273108"><ele>252.0</ele><time>2026-04-04T09:28:40.236Z</time></trkpt><trkpt lat="44.2371469" lon="11.5273344"><ele>252.0</ele><time>2026-04-04T09:28:41.235Z</time></trkpt><trkpt lat="44.2373365" lon="11.5273641"><ele>252.0</ele><time>2026-04-04T09:28:42.235Z</time></trkpt><trkpt lat="44.2375166" lon="11.5273926"><ele>249.0</ele><time>2026-04-04T09:28:43.235Z</time></trkpt><trkpt lat="44.2376884" lon="11.5274218"><ele>246.0</ele><time>2026-04-04T09:28:44.236Z</time></trkpt><trkpt lat="44.2378442" lon="11.5274486"><ele>243.0</ele><time>2026-04-04T09:28:45.235Z</time></trkpt><trkpt lat="44.2379911" lon="11.5274702"><ele>243.0</ele><time>2026-04-04T09:28:46.236Z</time></trkpt><trkpt lat="44.2381347" lon="11.5274607"><ele>243.0</ele><time>2026-04-04T09:28:47.236Z</time></trkpt><trkpt lat="44.238276" lon="11.5274075"><ele>243.0</ele><time>2026-04-04T09:28:48.236Z</time></trkpt><trkpt lat="44.2384131" lon="11.5273045"><ele>243.0</ele><time>2026-04-04T09:28:49.236Z</time></trkpt><trkpt lat="44.2385431" lon="11.5271512"><ele>240.66666666666669</ele><time>2026-04-04T09:28:50.236Z</time></trkpt><trkpt lat="44.2386647" lon="11.5269649"><ele>238.33333333333334</ele><time>2026-04-04T09:28:51.235Z</time></trkpt><trkpt lat="44.2387831" lon="11.526778"><ele>236.0</ele><time>2026-04-04T09:28:52.236Z</time></trkpt><trkpt lat="44.2388935" lon="11.5266116"><ele>233.66666666666669</ele><time>2026-04-04T09:28:53.236Z</time></trkpt><trkpt lat="44.2390071" lon="11.526471"><ele>231.33333333333331</ele><time>2026-04-04T09:28:54.236Z</time></trkpt><trkpt lat="44.239133" lon="11.5263534"><ele>229.0</ele><time>2026-04-04T09:28:55.236Z</time></trkpt><trkpt lat="44.2392697" lon="11.5262663"><ele>229.33333333333331</ele><time>2026-04-04T09:28:56.236Z</time></trkpt><trkpt lat="44.2394139" lon="11.5261866"><ele>229.66666666666669</ele><time>2026-04-04T09:28:57.235Z</time></trkpt><trkpt lat="44.2395627" lon="11.5261128"><ele>230.0</ele><time>2026-04-04T09:28:58.237Z</time></trkpt><trkpt lat="44.2397028" lon="11.5260405"><ele>228.25</ele><time>2026-04-04T09:28:59.237Z</time></trkpt><trkpt lat="44.2398315" lon="11.5259714"><ele>226.5</ele><time>2026-04-04T09:29:00.237Z</time></trkpt><trkpt lat="44.2399361" lon="11.525903"><ele>224.75</ele><time>2026-04-04T09:29:01.237Z</time></trkpt><trkpt lat="44.2400258" lon="11.5258118"><ele>223.0</ele><time>2026-04-04T09:29:02.236Z</time></trkpt><trkpt lat="44.2401016" lon="11.5256907"><ele>223.0</ele><time>2026-04-04T09:29:03.237Z</time></trkpt><trkpt lat="44.2401563" lon="11.5255429"><ele>223.0</ele><time>2026-04-04T09:29:04.236Z</time></trkpt><trkpt lat="44.2401843" lon="11.5253736"><ele>223.0</ele><time>2026-04-04T09:29:05.237Z</time></trkpt><trkpt lat="44.2401935" lon="11.5252053"><ele>223.0</ele><time>2026-04-04T09:29:06.236Z</time></trkpt><trkpt lat="44.2401801" lon="11.5250506"><ele>221.60000000000002</ele><time>2026-04-04T09:29:07.237Z</time></trkpt><trkpt lat="44.2401622" lon="11.5249292"><ele>220.20000000000002</ele><time>2026-04-04T09:29:08.237Z</time></trkpt><trkpt lat="44.2401667" lon="11.5248383"><ele>218.8</ele><time>2026-04-04T09:29:09.237Z</time></trkpt><trkpt lat="44.2402901" lon="11.524793"><ele>217.4</ele><time>2026-04-04T09:29:11.237Z</time></trkpt><trkpt lat="44.2403754" lon="11.5248645"><ele>216.0</ele><time>2026-04-04T09:29:12.237Z</time></trkpt><trkpt lat="44.2404456" lon="11.5249787"><ele>216.0</ele><time>2026-04-04T09:29:13.236Z</time></trkpt><trkpt lat="44.2405113" lon="11.5250959"><ele>216.0</ele><time>2026-04-04T09:29:14.237Z</time></trkpt><trkpt lat="44.2405767" lon="11.5251979"><ele>216.0</ele><time>2026-04-04T09:29:15.236Z</time></trkpt><trkpt lat="44.24064" lon="11.5252715"><ele>216.0</ele><time>2026-04-04T09:29:16.237Z</time></trkpt><trkpt lat="44.2407111" lon="11.5253136"><ele>216.0</ele><time>2026-04-04T09:29:17.237Z</time></trkpt><trkpt lat="44.2407885" lon="11.525308"><ele>216.0</ele><time>2026-04-04T09:29:18.237Z</time></trkpt><trkpt lat="44.2408656" lon="11.5252598"><ele>214.0</ele><time>2026-04-04T09:29:19.237Z</time></trkpt><trkpt lat="44.240939" lon="11.5251593"><ele>212.0</ele><time>2026-04-04T09:29:20.236Z</time></trkpt><trkpt lat="44.241021" lon="11.5250421"><ele>210.0</ele><time>2026-04-04T09:29:21.237Z</time></trkpt><trkpt lat="44.2411145" lon="11.5249374"><ele>208.0</ele><time>2026-04-04T09:29:22.237Z</time></trkpt><trkpt lat="44.2412151" lon="11.5248477"><ele>208.0</ele><time>2026-04-04T09:29:23.237Z</time></trkpt><trkpt lat="44.241328" lon="11.524777"><ele>208.0</ele><time>2026-04-04T09:29:24.236Z</time></trkpt><trkpt lat="44.2414535" lon="11.5247338"><ele>208.0</ele><time>2026-04-04T09:29:25.237Z</time></trkpt><trkpt lat="44.2415812" lon="11.5247237"><ele>208.0</ele><time>2026-04-04T09:29:26.237Z</time></trkpt><trkpt lat="44.2416969" lon="11.5247335"><ele>206.83333333333331</ele><time>2026-04-04T09:29:27.236Z</time></trkpt><trkpt lat="44.2418007" lon="11.5247441"><ele>205.66666666666666</ele><time>2026-04-04T09:29:28.236Z</time></trkpt><trkpt lat="44.2418949" lon="11.5247515"><ele>204.5</ele><time>2026-04-04T09:29:29.237Z</time></trkpt><trkpt lat="44.241982" lon="11.5247583"><ele>203.33333333333331</ele><time>2026-04-04T09:29:30.236Z</time></trkpt><trkpt lat="44.2420608" lon="11.5247626"><ele>202.16666666666666</ele><time>2026-04-04T09:29:31.237Z</time></trkpt><trkpt lat="44.2421271" lon="11.5247681"><ele>201.0</ele><time>2026-04-04T09:29:32.236Z</time></trkpt><trkpt lat="44.2422275" lon="11.5247563"><ele>201.0</ele><time>2026-04-04T09:29:34.236Z</time></trkpt><trkpt lat="44.2422974" lon="11.5247394"><ele>201.0</ele><time>2026-04-04T09:29:38.237Z</time></trkpt><trkpt lat="44.2422983" lon="11.52462"><ele>201.0</ele><time>2026-04-04T09:35:39.235Z</time></trkpt><trkpt lat="44.2422133" lon="11.5245433"><ele>201.0</ele><time>2026-04-04T09:35:41.236Z</time></trkpt><trkpt lat="44.2421333" lon="11.5244867"><ele>201.0</ele><time>2026-04-04T09:35:42.236Z</time></trkpt><trkpt lat="44.2420417" lon="11.5244183"><ele>199.5</ele><time>2026-04-04T09:35:43.236Z</time></trkpt><trkpt lat="44.2419433" lon="11.5243233"><ele>198.0</ele><time>2026-04-04T09:35:44.236Z</time></trkpt><trkpt lat="44.2418433" lon="11.5242033"><ele>196.5</ele><time>2026-04-04T09:35:45.235Z</time></trkpt><trkpt lat="44.2417433" lon="11.5240683"><ele>195.0</ele><time>2026-04-04T09:35:46.236Z</time></trkpt><trkpt lat="44.2416397" lon="11.523936"><ele>195.0</ele><time>2026-04-04T09:35:47.236Z</time></trkpt><trkpt lat="44.2415367" lon="11.5237972"><ele>195.0</ele><time>2026-04-04T09:35:48.236Z</time></trkpt><trkpt lat="44.2414412" lon="11.5236612"><ele>195.0</ele><time>2026-04-04T09:35:49.236Z</time></trkpt><trkpt lat="44.2413492" lon="11.5235338"><ele>195.0</ele><time>2026-04-04T09:35:50.236Z</time></trkpt><trkpt lat="44.2412585" lon="11.5234046"><ele>194.0</ele><time>2026-04-04T09:35:51.236Z</time></trkpt><trkpt lat="44.2411621" lon="11.5232697"><ele>193.0</ele><time>2026-04-04T09:35:52.236Z</time></trkpt><trkpt lat="44.241064" lon="11.523151"><ele>192.0</ele><time>2026-04-04T09:35:53.236Z</time></trkpt><trkpt lat="44.2409535" lon="11.5230541"><ele>191.0</ele><time>2026-04-04T09:35:54.236Z</time></trkpt><trkpt lat="44.2408187" lon="11.5230043"><ele>191.0</ele><time>2026-04-04T09:35:55.236Z</time></trkpt><trkpt lat="44.2406701" lon="11.5230171"><ele>191.0</ele><time>2026-04-04T09:35:56.235Z</time></trkpt><trkpt lat="44.2405043" lon="11.5230723"><ele>191.0</ele><time>2026-04-04T09:35:57.236Z</time></trkpt><trkpt lat="44.2403413" lon="11.5231618"><ele>191.0</ele><time>2026-04-04T09:35:58.235Z</time></trkpt><trkpt lat="44.2401957" lon="11.5232562"><ele>191.0</ele><time>2026-04-04T09:35:59.236Z</time></trkpt><trkpt lat="44.2400543" lon="11.5233145"><ele>191.0</ele><time>2026-04-04T09:36:00.236Z</time></trkpt><trkpt lat="44.2399225" lon="11.5233306"><ele>191.0</ele><time>2026-04-04T09:36:01.236Z</time></trkpt><trkpt lat="44.2398016" lon="11.5232756"><ele>191.0</ele><time>2026-04-04T09:36:02.236Z</time></trkpt><trkpt lat="44.2396834" lon="11.5231575"><ele>191.0</ele><time>2026-04-04T09:36:03.236Z</time></trkpt><trkpt lat="44.2395701" lon="11.5229978"><ele>191.0</ele><time>2026-04-04T09:36:04.236Z</time></trkpt><trkpt lat="44.2394615" lon="11.52282"><ele>189.33333333333331</ele><time>2026-04-04T09:36:05.236Z</time></trkpt><trkpt lat="44.2393561" lon="11.5226392"><ele>187.66666666666666</ele><time>2026-04-04T09:36:06.236Z</time></trkpt><trkpt lat="44.2392614" lon="11.5224666"><ele>186.0</ele><time>2026-04-04T09:36:07.236Z</time></trkpt><trkpt lat="44.2391885" lon="11.5222915"><ele>186.0</ele><time>2026-04-04T09:36:08.235Z</time></trkpt><trkpt lat="44.2391236" lon="11.5221184"><ele>186.0</ele><time>2026-04-04T09:36:09.236Z</time></trkpt><trkpt lat="44.2390443" lon="11.5219512"><ele>186.0</ele><time>2026-04-04T09:36:10.236Z</time></trkpt><trkpt lat="44.2389484" lon="11.5217927"><ele>186.0</ele><time>2026-04-04T09:36:11.235Z</time></trkpt><trkpt lat="44.2388374" lon="11.5216506"><ele>188.0</ele><time>2026-04-04T09:36:12.236Z</time></trkpt><trkpt lat="44.2387223" lon="11.52151"><ele>190.0</ele><time>2026-04-04T09:36:13.236Z</time></trkpt><trkpt lat="44.2386254" lon="11.5213634"><ele>192.0</ele><time>2026-04-04T09:36:14.235Z</time></trkpt><trkpt lat="44.2385488" lon="11.5212152"><ele>194.0</ele><time>2026-04-04T09:36:15.236Z</time></trkpt><trkpt lat="44.2384762" lon="11.5210669"><ele>193.5</ele><time>2026-04-04T09:36:16.236Z</time></trkpt><trkpt lat="44.2383762" lon="11.5209391"><ele>193.0</ele><time>2026-04-04T09:36:17.235Z</time></trkpt><trkpt lat="44.2382535" lon="11.5208222"><ele>192.5</ele><time>2026-04-04T09:36:18.236Z</time></trkpt><trkpt lat="44.2381095" lon="11.5207291"><ele>192.0</ele><time>2026-04-04T09:36:19.235Z</time></trkpt><trkpt lat="44.23797" lon="11.520645"><ele>192.0</ele><time>2026-04-04T09:36:20.236Z</time></trkpt><trkpt lat="44.2378517" lon="11.52054"><ele>192.0</ele><time>2026-04-04T09:36:21.236Z</time></trkpt><trkpt lat="44.2377467" lon="11.5203867"><ele>192.0</ele><time>2026-04-04T09:36:22.235Z</time></trkpt><trkpt lat="44.2376583" lon="11.52022"><ele>192.0</ele><time>2026-04-04T09:36:23.236Z</time></trkpt><trkpt lat="44.237585" lon="11.5200617"><ele>187.75</ele><time>2026-04-04T09:36:24.235Z</time></trkpt><trkpt lat="44.2374983" lon="11.519925"><ele>183.5</ele><time>2026-04-04T09:36:25.235Z</time></trkpt><trkpt lat="44.2373917" lon="11.5198283"><ele>179.25</ele><time>2026-04-04T09:36:26.236Z</time></trkpt><trkpt lat="44.2372467" lon="11.5197733"><ele>175.0</ele><time>2026-04-04T09:36:27.235Z</time></trkpt><trkpt lat="44.2370983" lon="11.5197417"><ele>175.0</ele><time>2026-04-04T09:36:28.236Z</time></trkpt><trkpt lat="44.2369617" lon="11.5196967"><ele>175.0</ele><time>2026-04-04T09:36:29.236Z</time></trkpt><trkpt lat="44.2368267" lon="11.5196083"><ele>175.0</ele><time>2026-04-04T09:36:30.236Z</time></trkpt><trkpt lat="44.2367017" lon="11.5194683"><ele>173.0</ele><time>2026-04-04T09:36:31.236Z</time></trkpt><trkpt lat="44.2365867" lon="11.5193317"><ele>171.0</ele><time>2026-04-04T09:36:32.236Z</time></trkpt><trkpt lat="44.236455" lon="11.5191967"><ele>169.0</ele><time>2026-04-04T09:36:33.236Z</time></trkpt><trkpt lat="44.2363333" lon="11.5190533"><ele>169.0</ele><time>2026-04-04T09:36:34.236Z</time></trkpt><trkpt lat="44.2362183" lon="11.518915"><ele>169.0</ele><time>2026-04-04T09:36:35.235Z</time></trkpt><trkpt lat="44.236105" lon="11.5187817"><ele>169.0</ele><time>2026-04-04T09:36:36.235Z</time></trkpt><trkpt lat="44.235985" lon="11.5186583"><ele>169.0</ele><time>2026-04-04T09:36:37.236Z</time></trkpt><trkpt lat="44.2358667" lon="11.5185283"><ele>166.66666666666669</ele><time>2026-04-04T09:36:38.235Z</time></trkpt><trkpt lat="44.2357433" lon="11.5183917"><ele>164.33333333333334</ele><time>2026-04-04T09:36:39.235Z</time></trkpt><trkpt lat="44.235625" lon="11.5182583"><ele>162.0</ele><time>2026-04-04T09:36:40.236Z</time></trkpt><trkpt lat="44.2355117" lon="11.5181233"><ele>163.66666666666666</ele><time>2026-04-04T09:36:41.235Z</time></trkpt><trkpt lat="44.2353833" lon="11.5179933"><ele>165.33333333333331</ele><time>2026-04-04T09:36:42.236Z</time></trkpt><trkpt lat="44.2352633" lon="11.5178583"><ele>167.0</ele><time>2026-04-04T09:36:43.236Z</time></trkpt><trkpt lat="44.23514" lon="11.5177183"><ele>167.0</ele><time>2026-04-04T09:36:44.236Z</time></trkpt><trkpt lat="44.23502" lon="11.51757"><ele>167.0</ele><time>2026-04-04T09:36:45.236Z</time></trkpt><trkpt lat="44.2349017" lon="11.517425"><ele>167.0</ele><time>2026-04-04T09:36:46.236Z</time></trkpt><trkpt lat="44.2347983" lon="11.51727"><ele>171.25</ele><time>2026-04-04T09:36:47.236Z</time></trkpt><trkpt lat="44.23471" lon="11.5171133"><ele>175.5</ele><time>2026-04-04T09:36:48.236Z</time></trkpt><trkpt lat="44.2346467" lon="11.51694"><ele>179.75</ele><time>2026-04-04T09:36:49.236Z</time></trkpt><trkpt lat="44.2345983" lon="11.5167633"><ele>184.0</ele><time>2026-04-04T09:36:50.236Z</time></trkpt><trkpt lat="44.2345517" lon="11.516575"><ele>184.0</ele><time>2026-04-04T09:36:51.235Z</time></trkpt><trkpt lat="44.2345217" lon="11.5163667"><ele>184.0</ele><time>2026-04-04T09:36:52.236Z</time></trkpt><trkpt lat="44.2345017" lon="11.5161483"><ele>184.0</ele><time>2026-04-04T09:36:53.235Z</time></trkpt><trkpt lat="44.234485" lon="11.5159333"><ele>182.66666666666669</ele><time>2026-04-04T09:36:54.235Z</time></trkpt><trkpt lat="44.2344683" lon="11.5157167"><ele>181.33333333333334</ele><time>2026-04-04T09:36:55.235Z</time></trkpt><trkpt lat="44.2344383" lon="11.5155033"><ele>180.0</ele><time>2026-04-04T09:36:56.236Z</time></trkpt><trkpt lat="44.2343917" lon="11.5153017"><ele>179.0</ele><time>2026-04-04T09:36:57.236Z</time></trkpt><trkpt lat="44.2343417" lon="11.5151067"><ele>178.0</ele><time>2026-04-04T09:36:58.236Z</time></trkpt><trkpt lat="44.234275" lon="11.5148983"><ele>177.0</ele><time>2026-04-04T09:36:59.235Z</time></trkpt><trkpt lat="44.2342333" lon="11.5146883"><ele>174.66666666666666</ele><time>2026-04-04T09:37:00.236Z</time></trkpt><trkpt lat="44.2342017" lon="11.51446"><ele>172.33333333333331</ele><time>2026-04-04T09:37:01.236Z</time></trkpt><trkpt lat="44.2341917" lon="11.51424"><ele>170.0</ele><time>2026-04-04T09:37:02.236Z</time></trkpt><trkpt lat="44.2341833" lon="11.5140433"><ele>170.0</ele><time>2026-04-04T09:37:03.236Z</time></trkpt><trkpt lat="44.2341667" lon="11.5138483"><ele>170.0</ele><time>2026-04-04T09:37:04.235Z</time></trkpt><trkpt lat="44.2341217" lon="11.5136667"><ele>170.0</ele><time>2026-04-04T09:37:05.235Z</time></trkpt><trkpt lat="44.234035" lon="11.5135"><ele>170.0</ele><time>2026-04-04T09:37:06.235Z</time></trkpt><trkpt lat="44.23392" lon="11.5133467"><ele>171.66666666666666</ele><time>2026-04-04T09:37:07.236Z</time></trkpt><trkpt lat="44.2337883" lon="11.5132133"><ele>173.33333333333334</ele><time>2026-04-04T09:37:08.236Z</time></trkpt><trkpt lat="44.233645" lon="11.513085"><ele>175.0</ele><time>2026-04-04T09:37:09.236Z</time></trkpt><trkpt lat="44.2335017" lon="11.51295"><ele>173.33333333333334</ele><time>2026-04-04T09:37:10.235Z</time></trkpt><trkpt lat="44.2333517" lon="11.512815"><ele>171.66666666666666</ele><time>2026-04-04T09:37:11.236Z</time></trkpt><trkpt lat="44.233205" lon="11.51268"><ele>170.0</ele><time>2026-04-04T09:37:12.236Z</time></trkpt><trkpt lat="44.23305" lon="11.5125433"><ele>170.0</ele><time>2026-04-04T09:37:13.235Z</time></trkpt><trkpt lat="44.2329033" lon="11.51239"><ele>170.0</ele><time>2026-04-04T09:37:14.236Z</time></trkpt><trkpt lat="44.2327633" lon="11.51225"><ele>170.0</ele><time>2026-04-04T09:37:15.235Z</time></trkpt><trkpt lat="44.2326267" lon="11.512115"><ele>169.0</ele><time>2026-04-04T09:37:16.235Z</time></trkpt><trkpt lat="44.2324883" lon="11.5119833"><ele>168.0</ele><time>2026-04-04T09:37:17.236Z</time></trkpt><trkpt lat="44.2323483" lon="11.5118583"><ele>167.0</ele><time>2026-04-04T09:37:18.236Z</time></trkpt><trkpt lat="44.23221" lon="11.5117367"><ele>167.0</ele><time>2026-04-04T09:37:19.236Z</time></trkpt><trkpt lat="44.23207" lon="11.5116117"><ele>167.0</ele><time>2026-04-04T09:37:20.235Z</time></trkpt><trkpt lat="44.231935" lon="11.5114817"><ele>167.0</ele><time>2026-04-04T09:37:21.236Z</time></trkpt><trkpt lat="44.2317933" lon="11.5113567"><ele>166.66666666666666</ele><time>2026-04-04T09:37:22.235Z</time></trkpt><trkpt lat="44.23165" lon="11.5112233"><ele>166.33333333333334</ele><time>2026-04-04T09:37:23.235Z</time></trkpt><trkpt lat="44.231505" lon="11.5110933"><ele>166.0</ele><time>2026-04-04T09:37:24.236Z</time></trkpt><trkpt lat="44.23136" lon="11.5109567"><ele>167.66666666666669</ele><time>2026-04-04T09:37:25.236Z</time></trkpt><trkpt lat="44.23121" lon="11.5108167"><ele>169.33333333333334</ele><time>2026-04-04T09:37:26.236Z</time></trkpt><trkpt lat="44.2310583" lon="11.5106733"><ele>171.0</ele><time>2026-04-04T09:37:27.236Z</time></trkpt><trkpt lat="44.2309083" lon="11.5105267"><ele>170.33333333333334</ele><time>2026-04-04T09:37:28.235Z</time></trkpt><trkpt lat="44.2307517" lon="11.5103817"><ele>169.66666666666669</ele><time>2026-04-04T09:37:29.236Z</time></trkpt><trkpt lat="44.2305933" lon="11.5102367"><ele>169.0</ele><time>2026-04-04T09:37:30.235Z</time></trkpt><trkpt lat="44.2304383" lon="11.5100883"><ele>169.0</ele><time>2026-04-04T09:37:31.236Z</time></trkpt><trkpt lat="44.2302783" lon="11.509945"><ele>169.0</ele><time>2026-04-04T09:37:32.236Z</time></trkpt><trkpt lat="44.2301233" lon="11.509795"><ele>169.0</ele><time>2026-04-04T09:37:33.235Z</time></trkpt><trkpt lat="44.2299683" lon="11.5096467"><ele>170.0</ele><time>2026-04-04T09:37:34.236Z</time></trkpt><trkpt lat="44.2298117" lon="11.5095017"><ele>171.0</ele><time>2026-04-04T09:37:35.236Z</time></trkpt><trkpt lat="44.229655" lon="11.5093583"><ele>172.0</ele><time>2026-04-04T09:37:36.236Z</time></trkpt><trkpt lat="44.2295033" lon="11.5092183"><ele>172.0</ele><time>2026-04-04T09:37:37.235Z</time></trkpt><trkpt lat="44.2293517" lon="11.5090767"><ele>172.0</ele><time>2026-04-04T09:37:38.235Z</time></trkpt><trkpt lat="44.2292017" lon="11.508935"><ele>172.0</ele><time>2026-04-04T09:37:39.236Z</time></trkpt><trkpt lat="44.2290633" lon="11.50879"><ele>172.66666666666669</ele><time>2026-04-04T09:37:40.235Z</time></trkpt><trkpt lat="44.22892" lon="11.5086467"><ele>173.33333333333334</ele><time>2026-04-04T09:37:41.236Z</time></trkpt><trkpt lat="44.2287817" lon="11.5084883"><ele>174.0</ele><time>2026-04-04T09:37:42.236Z</time></trkpt><trkpt lat="44.2286383" lon="11.5083233"><ele>174.0</ele><time>2026-04-04T09:37:43.236Z</time></trkpt><trkpt lat="44.228495" lon="11.5081633"><ele>174.0</ele><time>2026-04-04T09:37:44.236Z</time></trkpt><trkpt lat="44.228365" lon="11.5080183"><ele>174.0</ele><time>2026-04-04T09:37:45.235Z</time></trkpt><trkpt lat="44.2282467" lon="11.5078783"><ele>176.5</ele><time>2026-04-04T09:37:46.235Z</time></trkpt><trkpt lat="44.2281367" lon="11.5077567"><ele>179.0</ele><time>2026-04-04T09:37:47.236Z</time></trkpt><trkpt lat="44.2280517" lon="11.5076233"><ele>181.5</ele><time>2026-04-04T09:37:48.235Z</time></trkpt><trkpt lat="44.2279967" lon="11.5074633"><ele>184.0</ele><time>2026-04-04T09:37:49.235Z</time></trkpt><trkpt lat="44.227945" lon="11.507285"><ele>183.0</ele><time>2026-04-04T09:37:50.235Z</time></trkpt><trkpt lat="44.2279117" lon="11.5070767"><ele>182.0</ele><time>2026-04-04T09:37:51.236Z</time></trkpt><trkpt lat="44.2278883" lon="11.5068517"><ele>181.0</ele><time>2026-04-04T09:37:52.236Z</time></trkpt><trkpt lat="44.2278617" lon="11.5066267"><ele>181.0</ele><time>2026-04-04T09:37:53.236Z</time></trkpt><trkpt lat="44.2278183" lon="11.50642"><ele>181.0</ele><time>2026-04-04T09:37:54.235Z</time></trkpt><trkpt lat="44.2277633" lon="11.5062233"><ele>181.0</ele><time>2026-04-04T09:37:55.236Z</time></trkpt><trkpt lat="44.22769" lon="11.5060467"><ele>177.66666666666669</ele><time>2026-04-04T09:37:56.236Z</time></trkpt><trkpt lat="44.2275983" lon="11.5058833"><ele>174.33333333333334</ele><time>2026-04-04T09:37:57.235Z</time></trkpt><trkpt lat="44.2274833" lon="11.505745"><ele>171.0</ele><time>2026-04-04T09:37:58.236Z</time></trkpt><trkpt lat="44.2273483" lon="11.50563"><ele>169.66666666666666</ele><time>2026-04-04T09:37:59.236Z</time></trkpt><trkpt lat="44.2271983" lon="11.505535"><ele>168.33333333333331</ele><time>2026-04-04T09:38:00.236Z</time></trkpt><trkpt lat="44.2270433" lon="11.50545"><ele>167.0</ele><time>2026-04-04T09:38:01.235Z</time></trkpt><trkpt lat="44.2268783" lon="11.5053867"><ele>167.0</ele><time>2026-04-04T09:38:02.235Z</time></trkpt><trkpt lat="44.2267117" lon="11.5053333"><ele>167.0</ele><time>2026-04-04T09:38:03.235Z</time></trkpt><trkpt lat="44.2265517" lon="11.505285"><ele>167.0</ele><time>2026-04-04T09:38:04.236Z</time></trkpt><trkpt lat="44.2264033" lon="11.50524"><ele>168.75</ele><time>2026-04-04T09:38:05.236Z</time></trkpt><trkpt lat="44.2262717" lon="11.5052133"><ele>170.5</ele><time>2026-04-04T09:38:06.236Z</time></trkpt><trkpt lat="44.22615" lon="11.50517"><ele>172.25</ele><time>2026-04-04T09:38:07.236Z</time></trkpt><trkpt lat="44.2260467" lon="11.5051433"><ele>174.0</ele><time>2026-04-04T09:38:08.236Z</time></trkpt><trkpt lat="44.22595" lon="11.5051167"><ele>174.0</ele><time>2026-04-04T09:38:09.236Z</time></trkpt><trkpt lat="44.2258633" lon="11.505085"><ele>174.0</ele><time>2026-04-04T09:38:10.236Z</time></trkpt><trkpt lat="44.2257867" lon="11.50506"><ele>174.0</ele><time>2026-04-04T09:38:11.236Z</time></trkpt><trkpt lat="44.2257117" lon="11.5050517"><ele>174.0</ele><time>2026-04-04T09:38:12.236Z</time></trkpt><trkpt lat="44.2256433" lon="11.5050383"><ele>174.0</ele><time>2026-04-04T09:38:13.235Z</time></trkpt><trkpt lat="44.2255717" lon="11.5050283"><ele>174.0</ele><time>2026-04-04T09:38:14.235Z</time></trkpt><trkpt lat="44.225505" lon="11.5050267"><ele>176.2</ele><time>2026-04-04T09:38:15.236Z</time></trkpt><trkpt lat="44.2253883" lon="11.505035"><ele>178.39999999999998</ele><time>2026-04-04T09:38:17.236Z</time></trkpt><trkpt lat="44.2253117" lon="11.5050133"><ele>180.6</ele><time>2026-04-04T09:38:19.236Z</time></trkpt><trkpt lat="44.2253917" lon="11.50503"><ele>182.8</ele><time>2026-04-04T09:40:29.236Z</time></trkpt><trkpt lat="44.2254567" lon="11.5049683"><ele>185.0</ele><time>2026-04-04T09:40:32.236Z</time></trkpt><trkpt lat="44.2253617" lon="11.5049017"><ele>185.0</ele><time>2026-04-04T09:40:35.235Z</time></trkpt><trkpt lat="44.2252833" lon="11.5048917"><ele>185.0</ele><time>2026-04-04T09:40:36.235Z</time></trkpt><trkpt lat="44.2251867" lon="11.504875"><ele>185.0</ele><time>2026-04-04T09:40:37.235Z</time></trkpt><trkpt lat="44.2250833" lon="11.5048433"><ele>185.0</ele><time>2026-04-04T09:40:38.236Z</time></trkpt><trkpt lat="44.224965" lon="11.504805"><ele>185.0</ele><time>2026-04-04T09:40:39.236Z</time></trkpt><trkpt lat="44.2248367" lon="11.50477"><ele>187.0</ele><time>2026-04-04T09:40:40.235Z</time></trkpt><trkpt lat="44.22471" lon="11.50474"><ele>189.0</ele><time>2026-04-04T09:40:41.235Z</time></trkpt><trkpt lat="44.22457" lon="11.5046967"><ele>191.0</ele><time>2026-04-04T09:40:42.236Z</time></trkpt><trkpt lat="44.2244217" lon="11.5046383"><ele>193.0</ele><time>2026-04-04T09:40:43.235Z</time></trkpt><trkpt lat="44.2242767" lon="11.5045933"><ele>187.33333333333331</ele><time>2026-04-04T09:40:44.236Z</time></trkpt><trkpt lat="44.2241233" lon="11.5045567"><ele>181.66666666666666</ele><time>2026-04-04T09:40:45.236Z</time></trkpt><trkpt lat="44.2239567" lon="11.5045"><ele>176.0</ele><time>2026-04-04T09:40:46.236Z</time></trkpt><trkpt lat="44.2237833" lon="11.5044467"><ele>176.0</ele><time>2026-04-04T09:40:47.236Z</time></trkpt><trkpt lat="44.2236083" lon="11.5044033"><ele>176.0</ele><time>2026-04-04T09:40:48.236Z</time></trkpt><trkpt lat="44.223445" lon="11.5043667"><ele>176.0</ele><time>2026-04-04T09:40:49.235Z</time></trkpt><trkpt lat="44.22328" lon="11.5043517"><ele>174.33333333333331</ele><time>2026-04-04T09:40:50.236Z</time></trkpt><trkpt lat="44.22312" lon="11.5043633"><ele>172.66666666666666</ele><time>2026-04-04T09:40:51.236Z</time></trkpt><trkpt lat="44.222965" lon="11.5043933"><ele>171.0</ele><time>2026-04-04T09:40:52.235Z</time></trkpt><trkpt lat="44.222815" lon="11.5044217"><ele>171.0</ele><time>2026-04-04T09:40:53.235Z</time></trkpt><trkpt lat="44.2226867" lon="11.5044733"><ele>171.0</ele><time>2026-04-04T09:40:54.236Z</time></trkpt><trkpt lat="44.2225633" lon="11.50451"><ele>171.0</ele><time>2026-04-04T09:40:55.235Z</time></trkpt><trkpt lat="44.2224317" lon="11.5045"><ele>171.0</ele><time>2026-04-04T09:40:56.236Z</time></trkpt><trkpt lat="44.222305" lon="11.504435"><ele>171.25</ele><time>2026-04-04T09:40:57.235Z</time></trkpt><trkpt lat="44.2221767" lon="11.504335"><ele>171.5</ele><time>2026-04-04T09:40:58.236Z</time></trkpt><trkpt lat="44.22205" lon="11.504215"><ele>171.75</ele><time>2026-04-04T09:40:59.235Z</time></trkpt><trkpt lat="44.2219283" lon="11.5041067"><ele>172.0</ele><time>2026-04-04T09:41:00.236Z</time></trkpt><trkpt lat="44.221815" lon="11.5040017"><ele>172.0</ele><time>2026-04-04T09:41:01.236Z</time></trkpt><trkpt lat="44.221695" lon="11.5039"><ele>172.0</ele><time>2026-04-04T09:41:02.236Z</time></trkpt><trkpt lat="44.221575" lon="11.50382"><ele>172.0</ele><time>2026-04-04T09:41:03.235Z</time></trkpt><trkpt lat="44.22146" lon="11.503795"><ele>172.0</ele><time>2026-04-04T09:41:04.235Z</time></trkpt><trkpt lat="44.221325" lon="11.5038333"><ele>173.75</ele><time>2026-04-04T09:41:05.236Z</time></trkpt><trkpt lat="44.2211883" lon="11.503915"><ele>175.5</ele><time>2026-04-04T09:41:06.235Z</time></trkpt><trkpt lat="44.2210533" lon="11.5039983"><ele>177.25</ele><time>2026-04-04T09:41:07.236Z</time></trkpt><trkpt lat="44.22092" lon="11.5040883"><ele>179.0</ele><time>2026-04-04T09:41:08.235Z</time></trkpt><trkpt lat="44.220775" lon="11.5041717"><ele>180.66666666666666</ele><time>2026-04-04T09:41:09.236Z</time></trkpt><trkpt lat="44.22063" lon="11.504265"><ele>182.33333333333334</ele><time>2026-04-04T09:41:10.236Z</time></trkpt><trkpt lat="44.2204833" lon="11.504355"><ele>184.0</ele><time>2026-04-04T09:41:11.236Z</time></trkpt><trkpt lat="44.2203317" lon="11.50444"><ele>184.0</ele><time>2026-04-04T09:41:12.235Z</time></trkpt><trkpt lat="44.2201783" lon="11.504525"><ele>184.0</ele><time>2026-04-04T09:41:13.235Z</time></trkpt><trkpt lat="44.22003" lon="11.504605"><ele>184.0</ele><time>2026-04-04T09:41:14.236Z</time></trkpt><trkpt lat="44.2198817" lon="11.5046883"><ele>186.0</ele><time>2026-04-04T09:41:15.235Z</time></trkpt><trkpt lat="44.2197383" lon="11.5047733"><ele>188.0</ele><time>2026-04-04T09:41:16.236Z</time></trkpt><trkpt lat="44.2195983" lon="11.5048617"><ele>190.0</ele><time>2026-04-04T09:41:17.236Z</time></trkpt><trkpt lat="44.21932" lon="11.5050233"><ele>190.0</ele><time>2026-04-04T09:41:19.236Z</time></trkpt><trkpt lat="44.2190367" lon="11.50519"><ele>190.0</ele><time>2026-04-04T09:41:21.235Z</time></trkpt><trkpt lat="44.21891" lon="11.50525"><ele>190.0</ele><time>2026-04-04T09:41:22.235Z</time></trkpt><trkpt lat="44.2187617" lon="11.5052767"><ele>191.33333333333334</ele><time>2026-04-04T09:41:23.235Z</time></trkpt><trkpt lat="44.2186067" lon="11.50527"><ele>192.66666666666669</ele><time>2026-04-04T09:41:24.236Z</time></trkpt><trkpt lat="44.2184467" lon="11.5052267"><ele>194.0</ele><time>2026-04-04T09:41:25.236Z</time></trkpt><trkpt lat="44.21829" lon="11.505175"><ele>193.66666666666669</ele><time>2026-04-04T09:41:26.235Z</time></trkpt><trkpt lat="44.2181367" lon="11.5051167"><ele>193.33333333333331</ele><time>2026-04-04T09:41:27.235Z</time></trkpt><trkpt lat="44.2179833" lon="11.5050683"><ele>193.0</ele><time>2026-04-04T09:41:28.236Z</time></trkpt><trkpt lat="44.2177117" lon="11.5049867"><ele>193.0</ele><time>2026-04-04T09:41:30.236Z</time></trkpt><trkpt lat="44.21761" lon="11.5048983"><ele>193.0</ele><time>2026-04-04T09:41:31.236Z</time></trkpt><trkpt lat="44.21753" lon="11.5047533"><ele>193.0</ele><time>2026-04-04T09:41:32.236Z</time></trkpt><trkpt lat="44.2174767" lon="11.5045783"><ele>193.0</ele><time>2026-04-04T09:41:33.236Z</time></trkpt><trkpt lat="44.2174583" lon="11.5043783"><ele>195.0</ele><time>2026-04-04T09:41:34.235Z</time></trkpt><trkpt lat="44.21744" lon="11.5041783"><ele>197.0</ele><time>2026-04-04T09:41:35.235Z</time></trkpt><trkpt lat="44.2174167" lon="11.5039717"><ele>199.0</ele><time>2026-04-04T09:41:36.236Z</time></trkpt><trkpt lat="44.2173983" lon="11.5037867"><ele>201.0</ele><time>2026-04-04T09:41:37.235Z</time></trkpt><trkpt lat="44.2173517" lon="11.5034883"><ele>202.0</ele><time>2026-04-04T09:41:39.236Z</time></trkpt><trkpt lat="44.2173283" lon="11.503335"><ele>203.0</ele><time>2026-04-04T09:41:40.236Z</time></trkpt><trkpt lat="44.2173233" lon="11.5031717"><ele>204.0</ele><time>2026-04-04T09:41:41.235Z</time></trkpt><trkpt lat="44.2173367" lon="11.5029883"><ele>205.0</ele><time>2026-04-04T09:41:42.236Z</time></trkpt><trkpt lat="44.2173517" lon="11.5027933"><ele>206.0</ele><time>2026-04-04T09:41:43.236Z</time></trkpt><trkpt lat="44.2173533" lon="11.5026"><ele>207.0</ele><time>2026-04-04T09:41:44.236Z</time></trkpt><trkpt lat="44.2173567" lon="11.5024317"><ele>208.0</ele><time>2026-04-04T09:41:45.235Z</time></trkpt><trkpt lat="44.2173817" lon="11.502335"><ele>209.0</ele><time>2026-04-04T09:41:46.236Z</time></trkpt><trkpt lat="44.217485" lon="11.5023433"><ele>210.0</ele><time>2026-04-04T09:41:48.235Z</time></trkpt><trkpt lat="44.2175233" lon="11.50243"><ele>210.0</ele><time>2026-04-04T09:41:49.235Z</time></trkpt><trkpt lat="44.2175417" lon="11.5025467"><ele>210.0</ele><time>2026-04-04T09:41:50.236Z</time></trkpt><trkpt lat="44.21755" lon="11.5026767"><ele>210.0</ele><time>2026-04-04T09:41:51.235Z</time></trkpt><trkpt lat="44.2175567" lon="11.502825"><ele>210.0</ele><time>2026-04-04T09:41:52.236Z</time></trkpt><trkpt lat="44.21756" lon="11.502985"><ele>210.0</ele><time>2026-04-04T09:41:53.236Z</time></trkpt><trkpt lat="44.2175867" lon="11.5031417"><ele>209.16666666666666</ele><time>2026-04-04T09:41:54.236Z</time></trkpt><trkpt lat="44.217635" lon="11.5032933"><ele>208.33333333333331</ele><time>2026-04-04T09:41:55.236Z</time></trkpt><trkpt lat="44.21768" lon="11.503415"><ele>207.5</ele><time>2026-04-04T09:41:56.236Z</time></trkpt><trkpt lat="44.2177417" lon="11.5034833"><ele>206.66666666666666</ele><time>2026-04-04T09:41:57.235Z</time></trkpt><trkpt lat="44.2178117" lon="11.5034833"><ele>205.83333333333331</ele><time>2026-04-04T09:41:58.236Z</time></trkpt><trkpt lat="44.2178633" lon="11.5034317"><ele>205.0</ele><time>2026-04-04T09:41:59.236Z</time></trkpt><trkpt lat="44.21785" lon="11.5032567"><ele>205.0</ele><time>2026-04-04T09:42:01.235Z</time></trkpt><trkpt lat="44.2178067" lon="11.5031467"><ele>205.0</ele><time>2026-04-04T09:42:02.235Z</time></trkpt><trkpt lat="44.2177667" lon="11.5030233"><ele>205.0</ele><time>2026-04-04T09:42:03.235Z</time></trkpt><trkpt lat="44.217745" lon="11.5028867"><ele>205.0</ele><time>2026-04-04T09:42:04.235Z</time></trkpt><trkpt lat="44.2177583" lon="11.5027333"><ele>205.0</ele><time>2026-04-04T09:42:05.235Z</time></trkpt><trkpt lat="44.2177767" lon="11.5025583"><ele>205.5</ele><time>2026-04-04T09:42:06.236Z</time></trkpt><trkpt lat="44.217795" lon="11.50237"><ele>206.0</ele><time>2026-04-04T09:42:07.236Z</time></trkpt><trkpt lat="44.2178283" lon="11.5021783"><ele>206.5</ele><time>2026-04-04T09:42:08.236Z</time></trkpt><trkpt lat="44.2178833" lon="11.5019917"><ele>207.0</ele><time>2026-04-04T09:42:09.236Z</time></trkpt><trkpt lat="44.217955" lon="11.501815"><ele>207.0</ele><time>2026-04-04T09:42:10.236Z</time></trkpt><trkpt lat="44.218025" lon="11.5016233"><ele>207.0</ele><time>2026-04-04T09:42:11.235Z</time></trkpt><trkpt lat="44.2180933" lon="11.5014367"><ele>207.0</ele><time>2026-04-04T09:42:12.236Z</time></trkpt><trkpt lat="44.2181617" lon="11.501255"><ele>211.75</ele><time>2026-04-04T09:42:13.236Z</time></trkpt><trkpt lat="44.2182467" lon="11.5010883"><ele>216.5</ele><time>2026-04-04T09:42:14.236Z</time></trkpt><trkpt lat="44.218335" lon="11.50093"><ele>221.25</ele><time>2026-04-04T09:42:15.235Z</time></trkpt><trkpt lat="44.21843" lon="11.5007867"><ele>226.0</ele><time>2026-04-04T09:42:16.236Z</time></trkpt><trkpt lat="44.2185217" lon="11.5006433"><ele>226.0</ele><time>2026-04-04T09:42:17.236Z</time></trkpt><trkpt lat="44.2186283" lon="11.5005233"><ele>226.0</ele><time>2026-04-04T09:42:18.235Z</time></trkpt><trkpt lat="44.2187333" lon="11.5004317"><ele>226.0</ele><time>2026-04-04T09:42:19.236Z</time></trkpt><trkpt lat="44.2188317" lon="11.5003467"><ele>226.0</ele><time>2026-04-04T09:42:20.235Z</time></trkpt><trkpt lat="44.2189483" lon="11.5003"><ele>227.25</ele><time>2026-04-04T09:42:21.236Z</time></trkpt><trkpt lat="44.2190733" lon="11.5002933"><ele>228.5</ele><time>2026-04-04T09:42:22.236Z</time></trkpt><trkpt lat="44.2191983" lon="11.5003133"><ele>229.75</ele><time>2026-04-04T09:42:23.236Z</time></trkpt><trkpt lat="44.2193267" lon="11.5003267"><ele>231.0</ele><time>2026-04-04T09:42:24.235Z</time></trkpt><trkpt lat="44.2194583" lon="11.5003033"><ele>231.0</ele><time>2026-04-04T09:42:25.236Z</time></trkpt><trkpt lat="44.2195917" lon="11.5002567"><ele>231.0</ele><time>2026-04-04T09:42:26.235Z</time></trkpt><trkpt lat="44.2197167" lon="11.500205"><ele>231.0</ele><time>2026-04-04T09:42:27.236Z</time></trkpt><trkpt lat="44.2198517" lon="11.5001917"><ele>231.0</ele><time>2026-04-04T09:42:28.236Z</time></trkpt><trkpt lat="44.2199817" lon="11.5001983"><ele>234.0</ele><time>2026-04-04T09:42:29.235Z</time></trkpt><trkpt lat="44.2201167" lon="11.5001867"><ele>237.0</ele><time>2026-04-04T09:42:30.236Z</time></trkpt><trkpt lat="44.22024" lon="11.5001267"><ele>240.0</ele><time>2026-04-04T09:42:31.236Z</time></trkpt><trkpt lat="44.22036" lon="11.5000317"><ele>243.0</ele><time>2026-04-04T09:42:32.236Z</time></trkpt><trkpt lat="44.2204833" lon="11.499935"><ele>243.0</ele><time>2026-04-04T09:42:33.235Z</time></trkpt><trkpt lat="44.2206133" lon="11.4998583"><ele>243.0</ele><time>2026-04-04T09:42:34.235Z</time></trkpt><trkpt lat="44.2207483" lon="11.4997983"><ele>243.0</ele><time>2026-04-04T09:42:35.235Z</time></trkpt><trkpt lat="44.220875" lon="11.49975"><ele>243.0</ele><time>2026-04-04T09:42:36.235Z</time></trkpt><trkpt lat="44.22099" lon="11.4996983"><ele>242.25</ele><time>2026-04-04T09:42:37.236Z</time></trkpt><trkpt lat="44.2210817" lon="11.499615"><ele>241.5</ele><time>2026-04-04T09:42:38.236Z</time></trkpt><trkpt lat="44.2211683" lon="11.4995133"><ele>240.75</ele><time>2026-04-04T09:42:39.236Z</time></trkpt><trkpt lat="44.2212517" lon="11.4993967"><ele>240.0</ele><time>2026-04-04T09:42:40.235Z</time></trkpt><trkpt lat="44.2213383" lon="11.4992617"><ele>240.0</ele><time>2026-04-04T09:42:41.235Z</time></trkpt><trkpt lat="44.2214333" lon="11.4991217"><ele>240.0</ele><time>2026-04-04T09:42:42.236Z</time></trkpt><trkpt lat="44.2215117" lon="11.4989633"><ele>240.0</ele><time>2026-04-04T09:42:43.235Z</time></trkpt><trkpt lat="44.22156" lon="11.4987833"><ele>240.0</ele><time>2026-04-04T09:42:44.236Z</time></trkpt><trkpt lat="44.2215683" lon="11.4985917"><ele>245.75</ele><time>2026-04-04T09:42:45.236Z</time></trkpt><trkpt lat="44.2215633" lon="11.49842"><ele>251.5</ele><time>2026-04-04T09:42:46.236Z</time></trkpt><trkpt lat="44.2215767" lon="11.4982583"><ele>257.25</ele><time>2026-04-04T09:42:47.235Z</time></trkpt><trkpt lat="44.2216167" lon="11.4981017"><ele>263.0</ele><time>2026-04-04T09:42:48.236Z</time></trkpt><trkpt lat="44.221685" lon="11.497945"><ele>258.75</ele><time>2026-04-04T09:42:49.235Z</time></trkpt><trkpt lat="44.221775" lon="11.497825"><ele>254.5</ele><time>2026-04-04T09:42:50.236Z</time></trkpt><trkpt lat="44.2218817" lon="11.4977233"><ele>250.25</ele><time>2026-04-04T09:42:51.236Z</time></trkpt><trkpt lat="44.2220017" lon="11.4976583"><ele>246.0</ele><time>2026-04-04T09:42:52.235Z</time></trkpt><trkpt lat="44.2221183" lon="11.4976217"><ele>246.0</ele><time>2026-04-04T09:42:53.236Z</time></trkpt><trkpt lat="44.2222117" lon="11.4975767"><ele>246.00000000000003</ele><time>2026-04-04T09:42:54.236Z</time></trkpt><trkpt lat="44.2222717" lon="11.4975117"><ele>246.00000000000003</ele><time>2026-04-04T09:42:55.236Z</time></trkpt><trkpt lat="44.2222967" lon="11.4973917"><ele>246.0</ele><time>2026-04-04T09:42:56.235Z</time></trkpt><trkpt lat="44.2222833" lon="11.4972383"><ele>246.0</ele><time>2026-04-04T09:42:57.235Z</time></trkpt><trkpt lat="44.222275" lon="11.4970767"><ele>242.66666666666669</ele><time>2026-04-04T09:42:58.236Z</time></trkpt><trkpt lat="44.2223083" lon="11.4969017"><ele>239.33333333333334</ele><time>2026-04-04T09:42:59.236Z</time></trkpt><trkpt lat="44.2223567" lon="11.4967433"><ele>236.0</ele><time>2026-04-04T09:43:00.236Z</time></trkpt><trkpt lat="44.22249" lon="11.4964317"><ele>240.5</ele><time>2026-04-04T09:43:02.236Z</time></trkpt><trkpt lat="44.2225717" lon="11.4962767"><ele>245.0</ele><time>2026-04-04T09:43:03.235Z</time></trkpt><trkpt lat="44.2226633" lon="11.4961133"><ele>249.5</ele><time>2026-04-04T09:43:04.236Z</time></trkpt><trkpt lat="44.2227667" lon="11.4959633"><ele>254.0</ele><time>2026-04-04T09:43:05.236Z</time></trkpt><trkpt lat="44.2228717" lon="11.49581"><ele>254.0</ele><time>2026-04-04T09:43:06.236Z</time></trkpt><trkpt lat="44.2229767" lon="11.4956517"><ele>254.0</ele><time>2026-04-04T09:43:07.236Z</time></trkpt><trkpt lat="44.2230783" lon="11.4955067"><ele>254.0</ele><time>2026-04-04T09:43:08.236Z</time></trkpt><trkpt lat="44.2231733" lon="11.4953817"><ele>254.0</ele><time>2026-04-04T09:43:09.235Z</time></trkpt><trkpt lat="44.22328" lon="11.49531"><ele>255.25</ele><time>2026-04-04T09:43:10.235Z</time></trkpt><trkpt lat="44.2234" lon="11.495285"><ele>256.5</ele><time>2026-04-04T09:43:11.236Z</time></trkpt><trkpt lat="44.22352" lon="11.4953183"><ele>257.75</ele><time>2026-04-04T09:43:12.236Z</time></trkpt><trkpt lat="44.22364" lon="11.49539"><ele>259.0</ele><time>2026-04-04T09:43:13.236Z</time></trkpt><trkpt lat="44.223775" lon="11.4954583"><ele>267.5</ele><time>2026-04-04T09:43:14.236Z</time></trkpt><trkpt lat="44.223905" lon="11.4955233"><ele>276.0</ele><time>2026-04-04T09:43:15.235Z</time></trkpt><trkpt lat="44.2240367" lon="11.4955717"><ele>284.5</ele><time>2026-04-04T09:43:16.235Z</time></trkpt><trkpt lat="44.22417" lon="11.4956183"><ele>293.0</ele><time>2026-04-04T09:43:17.235Z</time></trkpt><trkpt lat="44.2243083" lon="11.4956617"><ele>292.5</ele><time>2026-04-04T09:43:18.236Z</time></trkpt><trkpt lat="44.2244483" lon="11.4956917"><ele>292.0</ele><time>2026-04-04T09:43:19.236Z</time></trkpt><trkpt lat="44.22459" lon="11.4957033"><ele>291.5</ele><time>2026-04-04T09:43:20.236Z</time></trkpt><trkpt lat="44.2247267" lon="11.4956883"><ele>291.0</ele><time>2026-04-04T09:43:21.236Z</time></trkpt><trkpt lat="44.2248633" lon="11.4956467"><ele>291.0</ele><time>2026-04-04T09:43:22.236Z</time></trkpt><trkpt lat="44.2249967" lon="11.49558"><ele>291.0</ele><time>2026-04-04T09:43:23.236Z</time></trkpt><trkpt lat="44.2251317" lon="11.49551"><ele>291.0</ele><time>2026-04-04T09:43:24.235Z</time></trkpt><trkpt lat="44.22526" lon="11.4954317"><ele>291.0</ele><time>2026-04-04T09:43:25.236Z</time></trkpt><trkpt lat="44.22537" lon="11.4953533"><ele>290.0</ele><time>2026-04-04T09:43:26.235Z</time></trkpt><trkpt lat="44.2254717" lon="11.495265"><ele>289.0</ele><time>2026-04-04T09:43:27.235Z</time></trkpt><trkpt lat="44.2255467" lon="11.4951667"><ele>288.0</ele><time>2026-04-04T09:43:28.236Z</time></trkpt><trkpt lat="44.2255933" lon="11.495055"><ele>287.0</ele><time>2026-04-04T09:43:29.235Z</time></trkpt><trkpt lat="44.22559" lon="11.4949467"><ele>286.0</ele><time>2026-04-04T09:43:30.236Z</time></trkpt><trkpt lat="44.2255417" lon="11.4948567"><ele>286.0</ele><time>2026-04-04T09:43:31.236Z</time></trkpt><trkpt lat="44.2254683" lon="11.494815"><ele>286.0</ele><time>2026-04-04T09:43:32.236Z</time></trkpt><trkpt lat="44.2253683" lon="11.494825"><ele>286.0</ele><time>2026-04-04T09:43:33.236Z</time></trkpt><trkpt lat="44.22522" lon="11.4948883"><ele>286.0</ele><time>2026-04-04T09:43:34.236Z</time></trkpt><trkpt lat="44.2250767" lon="11.494935"><ele>286.0</ele><time>2026-04-04T09:43:35.237Z</time></trkpt><trkpt lat="44.2249333" lon="11.494955"><ele>286.0</ele><time>2026-04-04T09:43:36.237Z</time></trkpt><trkpt lat="44.2247867" lon="11.49495"><ele>286.0</ele><time>2026-04-04T09:43:37.236Z</time></trkpt><trkpt lat="44.2246367" lon="11.494915"><ele>286.0</ele><time>2026-04-04T09:43:38.236Z</time></trkpt><trkpt lat="44.2244883" lon="11.494845"><ele>289.0</ele><time>2026-04-04T09:43:39.237Z</time></trkpt><trkpt lat="44.22436" lon="11.4947217"><ele>292.0</ele><time>2026-04-04T09:43:40.236Z</time></trkpt><trkpt lat="44.224245" lon="11.4945783"><ele>295.0</ele><time>2026-04-04T09:43:41.237Z</time></trkpt><trkpt lat="44.2241383" lon="11.49443"><ele>295.0</ele><time>2026-04-04T09:43:42.236Z</time></trkpt><trkpt lat="44.2240133" lon="11.494285"><ele>295.0</ele><time>2026-04-04T09:43:43.236Z</time></trkpt><trkpt lat="44.2238833" lon="11.4941917"><ele>295.0</ele><time>2026-04-04T09:43:44.236Z</time></trkpt><trkpt lat="44.2237617" lon="11.4940833"><ele>286.25</ele><time>2026-04-04T09:43:45.236Z</time></trkpt><trkpt lat="44.2236717" lon="11.4939583"><ele>277.5</ele><time>2026-04-04T09:43:46.237Z</time></trkpt><trkpt lat="44.2236233" lon="11.493815"><ele>268.75</ele><time>2026-04-04T09:43:47.236Z</time></trkpt><trkpt lat="44.2236317" lon="11.493645"><ele>260.0</ele><time>2026-04-04T09:43:48.237Z</time></trkpt><trkpt lat="44.223695" lon="11.493495"><ele>259.25</ele><time>2026-04-04T09:43:49.236Z</time></trkpt><trkpt lat="44.2237917" lon="11.493355"><ele>258.5</ele><time>2026-04-04T09:43:50.236Z</time></trkpt><trkpt lat="44.2238833" lon="11.49321"><ele>257.75</ele><time>2026-04-04T09:43:51.237Z</time></trkpt><trkpt lat="44.2239583" lon="11.493055"><ele>257.0</ele><time>2026-04-04T09:43:52.237Z</time></trkpt><trkpt lat="44.22403" lon="11.49289"><ele>263.6666666666667</ele><time>2026-04-04T09:43:53.237Z</time></trkpt><trkpt lat="44.2241283" lon="11.4927283"><ele>270.3333333333333</ele><time>2026-04-04T09:43:54.237Z</time></trkpt><trkpt lat="44.224245" lon="11.4925717"><ele>277.0</ele><time>2026-04-04T09:43:55.237Z</time></trkpt><trkpt lat="44.224335" lon="11.4924083"><ele>277.0</ele><time>2026-04-04T09:43:56.236Z</time></trkpt><trkpt lat="44.22442" lon="11.4922833"><ele>277.0</ele><time>2026-04-04T09:43:57.236Z</time></trkpt><trkpt lat="44.2245167" lon="11.4922183"><ele>277.0</ele><time>2026-04-04T09:43:58.237Z</time></trkpt><trkpt lat="44.2246267" lon="11.4922267"><ele>277.0</ele><time>2026-04-04T09:43:59.237Z</time></trkpt><trkpt lat="44.2247333" lon="11.4922717"><ele>285.0</ele><time>2026-04-04T09:44:00.237Z</time></trkpt><trkpt lat="44.2248583" lon="11.49234"><ele>293.0</ele><time>2026-04-04T09:44:01.237Z</time></trkpt><trkpt lat="44.2249967" lon="11.4924"><ele>301.0</ele><time>2026-04-04T09:44:02.236Z</time></trkpt><trkpt lat="44.225155" lon="11.4924333"><ele>309.0</ele><time>2026-04-04T09:44:03.236Z</time></trkpt><trkpt lat="44.2253133" lon="11.4924467"><ele>309.0</ele><time>2026-04-04T09:44:04.236Z</time></trkpt><trkpt lat="44.22545" lon="11.49242"><ele>309.0</ele><time>2026-04-04T09:44:05.236Z</time></trkpt><trkpt lat="44.225555" lon="11.4923683"><ele>309.0</ele><time>2026-04-04T09:44:06.236Z</time></trkpt><trkpt lat="44.2256217" lon="11.4922783"><ele>309.0</ele><time>2026-04-04T09:44:07.236Z</time></trkpt><trkpt lat="44.225645" lon="11.49216"><ele>309.0</ele><time>2026-04-04T09:44:08.237Z</time></trkpt><trkpt lat="44.22561" lon="11.4920417"><ele>304.75</ele><time>2026-04-04T09:44:09.237Z</time></trkpt><trkpt lat="44.2255317" lon="11.4919317"><ele>300.5</ele><time>2026-04-04T09:44:10.237Z</time></trkpt><trkpt lat="44.225425" lon="11.4918517"><ele>296.25</ele><time>2026-04-04T09:44:11.236Z</time></trkpt><trkpt lat="44.225325" lon="11.491765"><ele>292.0</ele><time>2026-04-04T09:44:12.237Z</time></trkpt><trkpt lat="44.225245" lon="11.49166"><ele>292.0</ele><time>2026-04-04T09:44:13.236Z</time></trkpt><trkpt lat="44.225185" lon="11.4915483"><ele>292.0</ele><time>2026-04-04T09:44:14.237Z</time></trkpt><trkpt lat="44.2251817" lon="11.4914183"><ele>292.0</ele><time>2026-04-04T09:44:15.236Z</time></trkpt><trkpt lat="44.22523" lon="11.4913133"><ele>292.0</ele><time>2026-04-04T09:44:16.237Z</time></trkpt><trkpt lat="44.225295" lon="11.4912367"><ele>292.0</ele><time>2026-04-04T09:44:17.236Z</time></trkpt><trkpt lat="44.2253583" lon="11.4911767"><ele>292.0</ele><time>2026-04-04T09:44:19.237Z</time></trkpt><trkpt lat="44.225445" lon="11.4910917"><ele>289.6</ele><time>2026-04-04T09:45:54.237Z</time></trkpt><trkpt lat="44.22551" lon="11.4910467"><ele>287.2</ele><time>2026-04-04T09:45:55.236Z</time></trkpt><trkpt lat="44.2255867" lon="11.4909933"><ele>284.8</ele><time>2026-04-04T09:45:56.236Z</time></trkpt><trkpt lat="44.225675" lon="11.4909433"><ele>282.4</ele><time>2026-04-04T09:45:57.237Z</time></trkpt><trkpt lat="44.225765" lon="11.4908967"><ele>280.0</ele><time>2026-04-04T09:45:58.237Z</time></trkpt><trkpt lat="44.2258633" lon="11.49087"><ele>285.6</ele><time>2026-04-04T09:45:59.237Z</time></trkpt><trkpt lat="44.2259617" lon="11.4908567"><ele>291.2</ele><time>2026-04-04T09:46:00.236Z</time></trkpt><trkpt lat="44.2260733" lon="11.4908433"><ele>296.8</ele><time>2026-04-04T09:46:01.237Z</time></trkpt><trkpt lat="44.226165" lon="11.4907933"><ele>302.4</ele><time>2026-04-04T09:46:02.237Z</time></trkpt><trkpt lat="44.2262517" lon="11.4907017"><ele>308.0</ele><time>2026-04-04T09:46:03.237Z</time></trkpt><trkpt lat="44.2263067" lon="11.4905567"><ele>307.0</ele><time>2026-04-04T09:46:04.237Z</time></trkpt><trkpt lat="44.2263617" lon="11.49042"><ele>306.0</ele><time>2026-04-04T09:46:05.236Z</time></trkpt><trkpt lat="44.2264217" lon="11.4902817"><ele>305.0</ele><time>2026-04-04T09:46:06.237Z</time></trkpt><trkpt lat="44.226505" lon="11.4901983"><ele>304.0</ele><time>2026-04-04T09:46:07.237Z</time></trkpt><trkpt lat="44.2266083" lon="11.4901517"><ele>303.0</ele><time>2026-04-04T09:46:08.237Z</time></trkpt><trkpt lat="44.22673" lon="11.4901283"><ele>303.0</ele><time>2026-04-04T09:46:09.237Z</time></trkpt><trkpt lat="44.2268617" lon="11.49012"><ele>303.0</ele><time>2026-04-04T09:46:10.236Z</time></trkpt><trkpt lat="44.227" lon="11.49012"><ele>303.0</ele><time>2026-04-04T09:46:11.237Z</time></trkpt><trkpt lat="44.2271433" lon="11.4901217"><ele>303.0</ele><time>2026-04-04T09:46:12.236Z</time></trkpt><trkpt lat="44.2272883" lon="11.490125"><ele>305.0</ele><time>2026-04-04T09:46:13.236Z</time></trkpt><trkpt lat="44.2274267" lon="11.4901367"><ele>307.0</ele><time>2026-04-04T09:46:14.236Z</time></trkpt><trkpt lat="44.2275667" lon="11.4901667"><ele>309.0</ele><time>2026-04-04T09:46:15.237Z</time></trkpt><trkpt lat="44.2276917" lon="11.49021"><ele>311.0</ele><time>2026-04-04T09:46:16.237Z</time></trkpt><trkpt lat="44.22781" lon="11.49027"><ele>311.0</ele><time>2026-04-04T09:46:17.236Z</time></trkpt><trkpt lat="44.2279117" lon="11.4903383"><ele>311.0</ele><time>2026-04-04T09:46:18.236Z</time></trkpt><trkpt lat="44.2279967" lon="11.4904017"><ele>311.0</ele><time>2026-04-04T09:46:19.237Z</time></trkpt><trkpt lat="44.2280733" lon="11.490465"><ele>311.0</ele><time>2026-04-04T09:46:20.236Z</time></trkpt><trkpt lat="44.2281517" lon="11.49052"><ele>311.0</ele><time>2026-04-04T09:46:21.237Z</time></trkpt><trkpt lat="44.22822" lon="11.49057"><ele>314.83333333333337</ele><time>2026-04-04T09:46:22.237Z</time></trkpt><trkpt lat="44.2282817" lon="11.4906133"><ele>318.6666666666667</ele><time>2026-04-04T09:46:23.236Z</time></trkpt><trkpt lat="44.22834" lon="11.4906517"><ele>322.5</ele><time>2026-04-04T09:46:24.237Z</time></trkpt><trkpt lat="44.2284367" lon="11.4907"><ele>326.3333333333333</ele><time>2026-04-04T09:46:26.237Z</time></trkpt><trkpt lat="44.2285033" lon="11.4907283"><ele>330.16666666666663</ele><time>2026-04-04T09:46:28.237Z</time></trkpt><trkpt lat="44.2285767" lon="11.4907583"><ele>334.0</ele><time>2026-04-04T09:46:32.237Z</time></trkpt><trkpt lat="44.2286667" lon="11.4907967"><ele>334.0</ele><time>2026-04-04T09:47:52.237Z</time></trkpt><trkpt lat="44.2287333" lon="11.4907883"><ele>334.0</ele><time>2026-04-04T09:47:53.237Z</time></trkpt><trkpt lat="44.2288117" lon="11.490775"><ele>334.0</ele><time>2026-04-04T09:47:54.237Z</time></trkpt><trkpt lat="44.2288983" lon="11.4907617"><ele>334.0</ele><time>2026-04-04T09:47:55.236Z</time></trkpt><trkpt lat="44.228995" lon="11.490745"><ele>334.0</ele><time>2026-04-04T09:47:56.237Z</time></trkpt><trkpt lat="44.229095" lon="11.4907417"><ele>334.0</ele><time>2026-04-04T09:47:57.237Z</time></trkpt><trkpt lat="44.2292" lon="11.4907533"><ele>334.4</ele><time>2026-04-04T09:47:58.237Z</time></trkpt><trkpt lat="44.2293167" lon="11.490785"><ele>334.79999999999995</ele><time>2026-04-04T09:47:59.236Z</time></trkpt><trkpt lat="44.22943" lon="11.4908183"><ele>335.20000000000005</ele><time>2026-04-04T09:48:00.236Z</time></trkpt><trkpt lat="44.2295317" lon="11.4908483"><ele>335.6</ele><time>2026-04-04T09:48:01.236Z</time></trkpt><trkpt lat="44.2296217" lon="11.4908983"><ele>336.0</ele><time>2026-04-04T09:48:02.237Z</time></trkpt><trkpt lat="44.2296967" lon="11.4909783"><ele>336.0</ele><time>2026-04-04T09:48:03.237Z</time></trkpt><trkpt lat="44.22976" lon="11.4910767"><ele>336.0</ele><time>2026-04-04T09:48:04.236Z</time></trkpt><trkpt lat="44.2298333" lon="11.4911667"><ele>336.0</ele><time>2026-04-04T09:48:05.237Z</time></trkpt><trkpt lat="44.22992" lon="11.4912233"><ele>336.0</ele><time>2026-04-04T09:48:06.236Z</time></trkpt><trkpt lat="44.2300233" lon="11.491235"><ele>336.0</ele><time>2026-04-04T09:48:07.236Z</time></trkpt><trkpt lat="44.23014" lon="11.4912283"><ele>334.0</ele><time>2026-04-04T09:48:08.236Z</time></trkpt><trkpt lat="44.2302583" lon="11.49123"><ele>332.0</ele><time>2026-04-04T09:48:09.236Z</time></trkpt><trkpt lat="44.2303717" lon="11.491235"><ele>330.0</ele><time>2026-04-04T09:48:10.237Z</time></trkpt><trkpt lat="44.2304967" lon="11.49124"><ele>328.0</ele><time>2026-04-04T09:48:11.237Z</time></trkpt><trkpt lat="44.2306267" lon="11.491205"><ele>328.75</ele><time>2026-04-04T09:48:12.237Z</time></trkpt><trkpt lat="44.2307533" lon="11.4911583"><ele>329.5</ele><time>2026-04-04T09:48:13.237Z</time></trkpt><trkpt lat="44.2308833" lon="11.49113"><ele>330.25</ele><time>2026-04-04T09:48:14.236Z</time></trkpt><trkpt lat="44.2310167" lon="11.491125"><ele>331.0</ele><time>2026-04-04T09:48:15.237Z</time></trkpt><trkpt lat="44.2311517" lon="11.491125"><ele>331.0</ele><time>2026-04-04T09:48:16.237Z</time></trkpt><trkpt lat="44.23129" lon="11.4911317"><ele>331.0</ele><time>2026-04-04T09:48:17.237Z</time></trkpt><trkpt lat="44.2314283" lon="11.4911367"><ele>331.0</ele><time>2026-04-04T09:48:18.237Z</time></trkpt><trkpt lat="44.2315533" lon="11.4911483"><ele>331.0</ele><time>2026-04-04T09:48:19.237Z</time></trkpt><trkpt lat="44.2316617" lon="11.4911767"><ele>331.8</ele><time>2026-04-04T09:48:20.236Z</time></trkpt><trkpt lat="44.2317633" lon="11.4912283"><ele>332.6</ele><time>2026-04-04T09:48:21.237Z</time></trkpt><trkpt lat="44.2318567" lon="11.4912917"><ele>333.4</ele><time>2026-04-04T09:48:22.237Z</time></trkpt><trkpt lat="44.231955" lon="11.49132"><ele>334.2</ele><time>2026-04-04T09:48:23.237Z</time></trkpt><trkpt lat="44.2320517" lon="11.4913"><ele>335.0</ele><time>2026-04-04T09:48:24.237Z</time></trkpt><trkpt lat="44.232145" lon="11.4912383"><ele>335.0</ele><time>2026-04-04T09:48:25.237Z</time></trkpt><trkpt lat="44.23223" lon="11.4911433"><ele>335.0</ele><time>2026-04-04T09:48:26.236Z</time></trkpt><trkpt lat="44.2323267" lon="11.4910467"><ele>335.0</ele><time>2026-04-04T09:48:27.237Z</time></trkpt><trkpt lat="44.2324417" lon="11.49098"><ele>335.0</ele><time>2026-04-04T09:48:28.236Z</time></trkpt><trkpt lat="44.232555" lon="11.490975"><ele>337.25</ele><time>2026-04-04T09:48:29.236Z</time></trkpt><trkpt lat="44.2326667" lon="11.4910367"><ele>339.5</ele><time>2026-04-04T09:48:30.237Z</time></trkpt><trkpt lat="44.23276" lon="11.4911517"><ele>341.75</ele><time>2026-04-04T09:48:31.236Z</time></trkpt><trkpt lat="44.2328417" lon="11.4913017"><ele>344.0</ele><time>2026-04-04T09:48:32.237Z</time></trkpt><trkpt lat="44.2329" lon="11.4914483"><ele>348.0</ele><time>2026-04-04T09:48:33.236Z</time></trkpt><trkpt lat="44.232965" lon="11.4915833"><ele>352.0</ele><time>2026-04-04T09:48:34.237Z</time></trkpt><trkpt lat="44.2330433" lon="11.4916917"><ele>356.0</ele><time>2026-04-04T09:48:35.237Z</time></trkpt><trkpt lat="44.2331483" lon="11.4917733"><ele>360.0</ele><time>2026-04-04T09:48:36.237Z</time></trkpt><trkpt lat="44.233265" lon="11.491805"><ele>360.25</ele><time>2026-04-04T09:48:37.236Z</time></trkpt><trkpt lat="44.2333883" lon="11.4917917"><ele>360.5</ele><time>2026-04-04T09:48:38.237Z</time></trkpt><trkpt lat="44.2335217" lon="11.49176"><ele>360.75</ele><time>2026-04-04T09:48:39.237Z</time></trkpt><trkpt lat="44.2336567" lon="11.49172"><ele>361.0</ele><time>2026-04-04T09:48:40.237Z</time></trkpt><trkpt lat="44.2337967" lon="11.49169"><ele>361.0</ele><time>2026-04-04T09:48:41.237Z</time></trkpt><trkpt lat="44.233925" lon="11.4916533"><ele>361.0</ele><time>2026-04-04T09:48:42.237Z</time></trkpt><trkpt lat="44.2340633" lon="11.491625"><ele>361.0</ele><time>2026-04-04T09:48:43.237Z</time></trkpt><trkpt lat="44.2342033" lon="11.491595"><ele>361.0</ele><time>2026-04-04T09:48:44.237Z</time></trkpt><trkpt lat="44.2343333" lon="11.4915717"><ele>362.0</ele><time>2026-04-04T09:48:45.237Z</time></trkpt><trkpt lat="44.2344483" lon="11.4915933"><ele>363.0</ele><time>2026-04-04T09:48:46.237Z</time></trkpt><trkpt lat="44.234535" lon="11.49166"><ele>364.0</ele><time>2026-04-04T09:48:47.237Z</time></trkpt><trkpt lat="44.2345917" lon="11.4917683"><ele>365.0</ele><time>2026-04-04T09:48:48.237Z</time></trkpt><trkpt lat="44.2346267" lon="11.4919217"><ele>366.0</ele><time>2026-04-04T09:48:49.237Z</time></trkpt><trkpt lat="44.2346367" lon="11.492095"><ele>369.0</ele><time>2026-04-04T09:48:50.236Z</time></trkpt><trkpt lat="44.2346233" lon="11.49227"><ele>372.0</ele><time>2026-04-04T09:48:51.237Z</time></trkpt><trkpt lat="44.23459" lon="11.4924467"><ele>375.0</ele><time>2026-04-04T09:48:52.237Z</time></trkpt><trkpt lat="44.2345733" lon="11.492635"><ele>378.0</ele><time>2026-04-04T09:48:53.237Z</time></trkpt><trkpt lat="44.2345617" lon="11.4928033"><ele>380.4</ele><time>2026-04-04T09:48:54.236Z</time></trkpt><trkpt lat="44.2345817" lon="11.49296"><ele>382.79999999999995</ele><time>2026-04-04T09:48:55.237Z</time></trkpt><trkpt lat="44.2346283" lon="11.4930967"><ele>385.2</ele><time>2026-04-04T09:48:56.236Z</time></trkpt><trkpt lat="44.234705" lon="11.49319"><ele>387.6</ele><time>2026-04-04T09:48:57.237Z</time></trkpt><trkpt lat="44.2348033" lon="11.4932383"><ele>390.0</ele><time>2026-04-04T09:48:58.236Z</time></trkpt><trkpt lat="44.2349083" lon="11.4932233"><ele>390.0</ele><time>2026-04-04T09:48:59.237Z</time></trkpt><trkpt lat="44.23501" lon="11.4931583"><ele>390.0</ele><time>2026-04-04T09:49:00.236Z</time></trkpt><trkpt lat="44.2351083" lon="11.4930617"><ele>390.0</ele><time>2026-04-04T09:49:01.237Z</time></trkpt><trkpt lat="44.2352167" lon="11.4929783"><ele>390.0</ele><time>2026-04-04T09:49:02.236Z</time></trkpt><trkpt lat="44.2353383" lon="11.4928883"><ele>386.25</ele><time>2026-04-04T09:49:03.237Z</time></trkpt><trkpt lat="44.2354533" lon="11.492785"><ele>382.5</ele><time>2026-04-04T09:49:04.237Z</time></trkpt><trkpt lat="44.2355417" lon="11.4926317"><ele>378.75</ele><time>2026-04-04T09:49:05.236Z</time></trkpt><trkpt lat="44.2355883" lon="11.4924667"><ele>375.0</ele><time>2026-04-04T09:49:06.236Z</time></trkpt><trkpt lat="44.23559" lon="11.4922917"><ele>375.0</ele><time>2026-04-04T09:49:07.236Z</time></trkpt><trkpt lat="44.2355617" lon="11.4921133"><ele>375.0</ele><time>2026-04-04T09:49:08.237Z</time></trkpt><trkpt lat="44.2355483" lon="11.49193"><ele>375.0</ele><time>2026-04-04T09:49:09.237Z</time></trkpt><trkpt lat="44.235585" lon="11.491765"><ele>375.0</ele><time>2026-04-04T09:49:10.237Z</time></trkpt><trkpt lat="44.2356567" lon="11.4916367"><ele>379.25</ele><time>2026-04-04T09:49:11.237Z</time></trkpt><trkpt lat="44.2357733" lon="11.4915583"><ele>383.5</ele><time>2026-04-04T09:49:12.237Z</time></trkpt><trkpt lat="44.235895" lon="11.49152"><ele>387.75</ele><time>2026-04-04T09:49:13.237Z</time></trkpt><trkpt lat="44.23604" lon="11.4915417"><ele>392.0</ele><time>2026-04-04T09:49:14.236Z</time></trkpt><trkpt lat="44.236185" lon="11.4916017"><ele>392.0</ele><time>2026-04-04T09:49:15.237Z</time></trkpt><trkpt lat="44.2363217" lon="11.49166"><ele>392.0</ele><time>2026-04-04T09:49:16.237Z</time></trkpt><trkpt lat="44.236455" lon="11.49172"><ele>392.0</ele><time>2026-04-04T09:49:17.236Z</time></trkpt><trkpt lat="44.23657" lon="11.4918083"><ele>392.0</ele><time>2026-04-04T09:49:18.236Z</time></trkpt><trkpt lat="44.2366783" lon="11.4919233"><ele>392.0</ele><time>2026-04-04T09:49:19.237Z</time></trkpt><trkpt lat="44.23679" lon="11.492055"><ele>392.0</ele><time>2026-04-04T09:49:20.237Z</time></trkpt><trkpt lat="44.2369033" lon="11.4921967"><ele>392.0</ele><time>2026-04-04T09:49:21.237Z</time></trkpt><trkpt lat="44.2370167" lon="11.49234"><ele>395.40000000000003</ele><time>2026-04-04T09:49:22.236Z</time></trkpt><trkpt lat="44.23712" lon="11.4924517"><ele>398.8</ele><time>2026-04-04T09:49:23.236Z</time></trkpt><trkpt lat="44.2372233" lon="11.4925083"><ele>402.2</ele><time>2026-04-04T09:49:24.236Z</time></trkpt><trkpt lat="44.2373167" lon="11.492495"><ele>405.6</ele><time>2026-04-04T09:49:25.237Z</time></trkpt><trkpt lat="44.2373867" lon="11.492425"><ele>409.0</ele><time>2026-04-04T09:49:26.237Z</time></trkpt><trkpt lat="44.2374417" lon="11.4923217"><ele>409.0</ele><time>2026-04-04T09:49:27.237Z</time></trkpt><trkpt lat="44.2375017" lon="11.4921933"><ele>409.0</ele><time>2026-04-04T09:49:28.237Z</time></trkpt><trkpt lat="44.2375817" lon="11.4920767"><ele>409.0</ele><time>2026-04-04T09:49:29.237Z</time></trkpt><trkpt lat="44.2376833" lon="11.4919817"><ele>409.0</ele><time>2026-04-04T09:49:30.237Z</time></trkpt><trkpt lat="44.237805" lon="11.49193"><ele>407.75</ele><time>2026-04-04T09:49:31.237Z</time></trkpt><trkpt lat="44.23794" lon="11.4919"><ele>406.5</ele><time>2026-04-04T09:49:32.237Z</time></trkpt><trkpt lat="44.2380783" lon="11.4919183"><ele>405.25</ele><time>2026-04-04T09:49:33.236Z</time></trkpt><trkpt lat="44.2382167" lon="11.491945"><ele>404.0</ele><time>2026-04-04T09:49:34.237Z</time></trkpt><trkpt lat="44.2383517" lon="11.4919683"><ele>404.0</ele><time>2026-04-04T09:49:35.237Z</time></trkpt><trkpt lat="44.2384917" lon="11.4919767"><ele>404.0</ele><time>2026-04-04T09:49:36.236Z</time></trkpt><trkpt lat="44.2386333" lon="11.491975"><ele>404.0</ele><time>2026-04-04T09:49:37.236Z</time></trkpt><trkpt lat="44.2387733" lon="11.491965"><ele>404.0</ele><time>2026-04-04T09:49:38.236Z</time></trkpt><trkpt lat="44.2389167" lon="11.4919233"><ele>406.5</ele><time>2026-04-04T09:49:39.237Z</time></trkpt><trkpt lat="44.2390533" lon="11.4918633"><ele>409.0</ele><time>2026-04-04T09:49:40.237Z</time></trkpt><trkpt lat="44.23919" lon="11.4917783"><ele>411.5</ele><time>2026-04-04T09:49:41.236Z</time></trkpt><trkpt lat="44.2393133" lon="11.4916817"><ele>414.0</ele><time>2026-04-04T09:49:42.237Z</time></trkpt><trkpt lat="44.2394233" lon="11.4915683"><ele>414.0</ele><time>2026-04-04T09:49:43.237Z</time></trkpt><trkpt lat="44.2395233" lon="11.49144"><ele>414.0</ele><time>2026-04-04T09:49:44.237Z</time></trkpt><trkpt lat="44.239595" lon="11.4912717"><ele>414.0</ele><time>2026-04-04T09:49:45.237Z</time></trkpt><trkpt lat="44.2396533" lon="11.4910967"><ele>414.0</ele><time>2026-04-04T09:49:46.237Z</time></trkpt><trkpt lat="44.2396633" lon="11.4908917"><ele>413.66666666666663</ele><time>2026-04-04T09:49:47.236Z</time></trkpt><trkpt lat="44.23963" lon="11.4906817"><ele>413.3333333333333</ele><time>2026-04-04T09:49:48.237Z</time></trkpt><trkpt lat="44.239565" lon="11.490485"><ele>413.0</ele><time>2026-04-04T09:49:49.237Z</time></trkpt><trkpt lat="44.2394683" lon="11.49032"><ele>416.75</ele><time>2026-04-04T09:49:50.237Z</time></trkpt><trkpt lat="44.239355" lon="11.49021"><ele>420.5</ele><time>2026-04-04T09:49:51.237Z</time></trkpt><trkpt lat="44.239245" lon="11.4901383"><ele>424.25</ele><time>2026-04-04T09:49:52.236Z</time></trkpt><trkpt lat="44.2391433" lon="11.4900583"><ele>428.0</ele><time>2026-04-04T09:49:53.237Z</time></trkpt><trkpt lat="44.2390817" lon="11.4899367"><ele>428.0</ele><time>2026-04-04T09:49:54.236Z</time></trkpt><trkpt lat="44.23908" lon="11.4897917"><ele>428.0</ele><time>2026-04-04T09:49:55.236Z</time></trkpt><trkpt lat="44.2390917" lon="11.489625"><ele>428.0</ele><time>2026-04-04T09:49:56.237Z</time></trkpt><trkpt lat="44.2390933" lon="11.48945"><ele>428.0</ele><time>2026-04-04T09:49:57.237Z</time></trkpt><trkpt lat="44.23905" lon="11.4892683"><ele>430.75</ele><time>2026-04-04T09:49:58.236Z</time></trkpt><trkpt lat="44.2389833" lon="11.4890983"><ele>433.5</ele><time>2026-04-04T09:49:59.236Z</time></trkpt><trkpt lat="44.2389167" lon="11.4889367"><ele>436.25</ele><time>2026-04-04T09:50:00.237Z</time></trkpt><trkpt lat="44.2388667" lon="11.4887917"><ele>439.0</ele><time>2026-04-04T09:50:01.236Z</time></trkpt><trkpt lat="44.2388783" lon="11.4886617"><ele>436.5</ele><time>2026-04-04T09:50:02.237Z</time></trkpt><trkpt lat="44.2389417" lon="11.4885583"><ele>434.0</ele><time>2026-04-04T09:50:03.236Z</time></trkpt><trkpt lat="44.2390333" lon="11.488485"><ele>431.5</ele><time>2026-04-04T09:50:04.237Z</time></trkpt><trkpt lat="44.239145" lon="11.48843"><ele>429.0</ele><time>2026-04-04T09:50:05.236Z</time></trkpt><trkpt lat="44.23927" lon="11.4883867"><ele>429.0</ele><time>2026-04-04T09:50:06.237Z</time></trkpt><trkpt lat="44.2393983" lon="11.4883417"><ele>429.0</ele><time>2026-04-04T09:50:07.237Z</time></trkpt><trkpt lat="44.239525" lon="11.4883283"><ele>429.0</ele><time>2026-04-04T09:50:08.237Z</time></trkpt><trkpt lat="44.2396383" lon="11.4883717"><ele>429.0</ele><time>2026-04-04T09:50:09.237Z</time></trkpt><trkpt lat="44.23974" lon="11.48842"><ele>432.0</ele><time>2026-04-04T09:50:10.236Z</time></trkpt><trkpt lat="44.239845" lon="11.4884683"><ele>435.0</ele><time>2026-04-04T09:50:11.237Z</time></trkpt><trkpt lat="44.2399617" lon="11.4884967"><ele>438.0</ele><time>2026-04-04T09:50:12.237Z</time></trkpt><trkpt lat="44.2401" lon="11.4884967"><ele>441.0</ele><time>2026-04-04T09:50:13.237Z</time></trkpt><trkpt lat="44.2402333" lon="11.4884783"><ele>441.0</ele><time>2026-04-04T09:50:14.236Z</time></trkpt><trkpt lat="44.2403717" lon="11.48845"><ele>441.0</ele><time>2026-04-04T09:50:15.236Z</time></trkpt><trkpt lat="44.2405117" lon="11.4884517"><ele>441.0</ele><time>2026-04-04T09:50:16.237Z</time></trkpt><trkpt lat="44.2406483" lon="11.4884667"><ele>441.0</ele><time>2026-04-04T09:50:17.236Z</time></trkpt><trkpt lat="44.2407883" lon="11.4884783"><ele>442.0</ele><time>2026-04-04T09:50:18.236Z</time></trkpt><trkpt lat="44.2409333" lon="11.488465"><ele>443.0</ele><time>2026-04-04T09:50:19.237Z</time></trkpt><trkpt lat="44.2410833" lon="11.48843"><ele>444.0</ele><time>2026-04-04T09:50:20.236Z</time></trkpt><trkpt lat="44.2412433" lon="11.488405"><ele>444.0</ele><time>2026-04-04T09:50:21.237Z</time></trkpt><trkpt lat="44.2414" lon="11.4883433"><ele>444.0</ele><time>2026-04-04T09:50:22.237Z</time></trkpt><trkpt lat="44.2415517" lon="11.4882767"><ele>444.0</ele><time>2026-04-04T09:50:23.237Z</time></trkpt><trkpt lat="44.2416983" lon="11.4882"><ele>445.66666666666663</ele><time>2026-04-04T09:50:24.237Z</time></trkpt><trkpt lat="44.241825" lon="11.4880733"><ele>447.3333333333333</ele><time>2026-04-04T09:50:25.237Z</time></trkpt><trkpt lat="44.2419267" lon="11.4879283"><ele>449.0</ele><time>2026-04-04T09:50:26.236Z</time></trkpt><trkpt lat="44.2420017" lon="11.4877433"><ele>449.0</ele><time>2026-04-04T09:50:27.236Z</time></trkpt><trkpt lat="44.2420517" lon="11.4875417"><ele>449.0</ele><time>2026-04-04T09:50:28.237Z</time></trkpt><trkpt lat="44.2420717" lon="11.4873433"><ele>449.0</ele><time>2026-04-04T09:50:29.237Z</time></trkpt><trkpt lat="44.2420533" lon="11.4871333"><ele>449.0</ele><time>2026-04-04T09:50:30.237Z</time></trkpt><trkpt lat="44.24203" lon="11.48692"><ele>449.0</ele><time>2026-04-04T09:50:31.237Z</time></trkpt><trkpt lat="44.2419917" lon="11.486725"><ele>449.0</ele><time>2026-04-04T09:50:32.237Z</time></trkpt><trkpt lat="44.2419567" lon="11.4865533"><ele>449.0</ele><time>2026-04-04T09:50:33.237Z</time></trkpt><trkpt lat="44.2419517" lon="11.486405"><ele>449.0</ele><time>2026-04-04T09:50:34.236Z</time></trkpt><trkpt lat="44.2419517" lon="11.486275"><ele>449.3333333333333</ele><time>2026-04-04T09:50:35.237Z</time></trkpt><trkpt lat="44.241955" lon="11.4861667"><ele>449.66666666666663</ele><time>2026-04-04T09:50:36.237Z</time></trkpt><trkpt lat="44.2419533" lon="11.4860667"><ele>450.0</ele><time>2026-04-04T09:50:37.237Z</time></trkpt><trkpt lat="44.24196" lon="11.485905"><ele>450.33333333333337</ele><time>2026-04-04T09:50:39.237Z</time></trkpt><trkpt lat="44.2419767" lon="11.4857967"><ele>450.6666666666667</ele><time>2026-04-04T09:50:40.236Z</time></trkpt><trkpt lat="44.241995" lon="11.485675"><ele>451.0</ele><time>2026-04-04T09:50:41.237Z</time></trkpt><trkpt lat="44.2420217" lon="11.48554"><ele>451.0</ele><time>2026-04-04T09:50:42.237Z</time></trkpt><trkpt lat="44.2420617" lon="11.4854017"><ele>451.0</ele><time>2026-04-04T09:50:43.237Z</time></trkpt><trkpt lat="44.2421067" lon="11.48527"><ele>451.0</ele><time>2026-04-04T09:50:44.236Z</time></trkpt><trkpt lat="44.2421567" lon="11.48513"><ele>451.0</ele><time>2026-04-04T09:50:45.237Z</time></trkpt><trkpt lat="44.2422083" lon="11.4849717"><ele>451.0</ele><time>2026-04-04T09:50:46.236Z</time></trkpt><trkpt lat="44.242255" lon="11.4846683"><ele>450.5</ele><time>2026-04-04T09:50:48.236Z</time></trkpt><trkpt lat="44.24219" lon="11.484405"><ele>450.0</ele><time>2026-04-04T09:50:50.237Z</time></trkpt><trkpt lat="44.2421783" lon="11.4842917"><ele>449.5</ele><time>2026-04-04T09:50:51.237Z</time></trkpt><trkpt lat="44.2422117" lon="11.4841783"><ele>449.0</ele><time>2026-04-04T09:50:52.237Z</time></trkpt><trkpt lat="44.242265" lon="11.4840617"><ele>456.2</ele><time>2026-04-04T09:50:53.237Z</time></trkpt><trkpt lat="44.242305" lon="11.4839233"><ele>463.4</ele><time>2026-04-04T09:50:54.237Z</time></trkpt><trkpt lat="44.2423367" lon="11.4837717"><ele>470.6</ele><time>2026-04-04T09:50:55.237Z</time></trkpt><trkpt lat="44.2423617" lon="11.4836167"><ele>477.8</ele><time>2026-04-04T09:50:56.236Z</time></trkpt><trkpt lat="44.242365" lon="11.4834567"><ele>485.0</ele><time>2026-04-04T09:50:57.237Z</time></trkpt><trkpt lat="44.24234" lon="11.4833083"><ele>482.25</ele><time>2026-04-04T09:50:58.237Z</time></trkpt><trkpt lat="44.242285" lon="11.4831517"><ele>479.5</ele><time>2026-04-04T09:50:59.236Z</time></trkpt><trkpt lat="44.2422217" lon="11.483"><ele>476.75</ele><time>2026-04-04T09:51:00.236Z</time></trkpt><trkpt lat="44.2421483" lon="11.482865"><ele>474.0</ele><time>2026-04-04T09:51:01.236Z</time></trkpt><trkpt lat="44.2420717" lon="11.4827317"><ele>474.0</ele><time>2026-04-04T09:51:02.236Z</time></trkpt><trkpt lat="44.2420033" lon="11.4825833"><ele>474.0</ele><time>2026-04-04T09:51:03.237Z</time></trkpt><trkpt lat="44.2419433" lon="11.4824367"><ele>474.0</ele><time>2026-04-04T09:51:04.237Z</time></trkpt><trkpt lat="44.24186" lon="11.4823033"><ele>474.0</ele><time>2026-04-04T09:51:05.237Z</time></trkpt><trkpt lat="44.24176" lon="11.48222"><ele>474.0</ele><time>2026-04-04T09:51:06.237Z</time></trkpt><trkpt lat="44.2416533" lon="11.4821667"><ele>474.0</ele><time>2026-04-04T09:51:07.237Z</time></trkpt><trkpt lat="44.241545" lon="11.4821233"><ele>474.0</ele><time>2026-04-04T09:51:08.237Z</time></trkpt><trkpt lat="44.2414367" lon="11.48207"><ele>474.0</ele><time>2026-04-04T09:51:09.237Z</time></trkpt><trkpt lat="44.241325" lon="11.4819867"><ele>476.2</ele><time>2026-04-04T09:51:10.236Z</time></trkpt><trkpt lat="44.24123" lon="11.4818867"><ele>478.4</ele><time>2026-04-04T09:51:11.236Z</time></trkpt><trkpt lat="44.2411617" lon="11.4817617"><ele>480.6</ele><time>2026-04-04T09:51:12.236Z</time></trkpt><trkpt lat="44.241115" lon="11.4816433"><ele>482.8</ele><time>2026-04-04T09:51:13.237Z</time></trkpt><trkpt lat="44.2411033" lon="11.4815283"><ele>485.0</ele><time>2026-04-04T09:51:14.237Z</time></trkpt><trkpt lat="44.2411117" lon="11.4814067"><ele>485.0</ele><time>2026-04-04T09:51:16.236Z</time></trkpt><trkpt lat="44.241015" lon="11.481385"><ele>485.0</ele><time>2026-04-04T09:51:19.236Z</time></trkpt><trkpt lat="44.2409567" lon="11.4812967"><ele>485.0</ele><time>2026-04-04T09:51:21.237Z</time></trkpt><trkpt lat="44.24092" lon="11.4811983"><ele>485.0</ele><time>2026-04-04T09:51:24.237Z</time></trkpt><trkpt lat="44.2408717" lon="11.481055"><ele>485.0</ele><time>2026-04-04T09:52:06.237Z</time></trkpt><trkpt lat="44.24082" lon="11.48097"><ele>485.4</ele><time>2026-04-04T09:52:07.237Z</time></trkpt><trkpt lat="44.2407617" lon="11.48087"><ele>485.8</ele><time>2026-04-04T09:52:08.237Z</time></trkpt><trkpt lat="44.24069" lon="11.4807667"><ele>486.20000000000005</ele><time>2026-04-04T09:52:09.236Z</time></trkpt><trkpt lat="44.2406133" lon="11.48066"><ele>486.6</ele><time>2026-04-04T09:52:10.237Z</time></trkpt><trkpt lat="44.2405267" lon="11.4805567"><ele>487.0</ele><time>2026-04-04T09:52:11.237Z</time></trkpt><trkpt lat="44.2404417" lon="11.48045"><ele>485.25</ele><time>2026-04-04T09:52:12.237Z</time></trkpt><trkpt lat="44.2403533" lon="11.480335"><ele>483.5</ele><time>2026-04-04T09:52:13.237Z</time></trkpt><trkpt lat="44.2402583" lon="11.48022"><ele>481.75</ele><time>2026-04-04T09:52:14.236Z</time></trkpt><trkpt lat="44.2401683" lon="11.4800967"><ele>480.0</ele><time>2026-04-04T09:52:15.237Z</time></trkpt><trkpt lat="44.240075" lon="11.4799667"><ele>480.0</ele><time>2026-04-04T09:52:16.237Z</time></trkpt><trkpt lat="44.2399817" lon="11.47983"><ele>480.0</ele><time>2026-04-04T09:52:17.237Z</time></trkpt><trkpt lat="44.2398883" lon="11.4796817"><ele>480.0</ele><time>2026-04-04T09:52:18.237Z</time></trkpt><trkpt lat="44.2397867" lon="11.479525"><ele>480.0</ele><time>2026-04-04T09:52:19.237Z</time></trkpt><trkpt lat="44.2396733" lon="11.4793717"><ele>481.0</ele><time>2026-04-04T09:52:20.237Z</time></trkpt><trkpt lat="44.2395467" lon="11.47925"><ele>482.0</ele><time>2026-04-04T09:52:21.236Z</time></trkpt><trkpt lat="44.239405" lon="11.479145"><ele>483.0</ele><time>2026-04-04T09:52:22.236Z</time></trkpt><trkpt lat="44.2392583" lon="11.4790633"><ele>483.0</ele><time>2026-04-04T09:52:23.237Z</time></trkpt><trkpt lat="44.2391067" lon="11.4789883"><ele>483.0</ele><time>2026-04-04T09:52:24.236Z</time></trkpt><trkpt lat="44.238965" lon="11.4789133"><ele>483.0</ele><time>2026-04-04T09:52:25.237Z</time></trkpt><trkpt lat="44.238845" lon="11.47884"><ele>483.0</ele><time>2026-04-04T09:52:26.236Z</time></trkpt><trkpt lat="44.2387683" lon="11.4787767"><ele>482.4</ele><time>2026-04-04T09:52:27.237Z</time></trkpt><trkpt lat="44.2386933" lon="11.4786433"><ele>481.79999999999995</ele><time>2026-04-04T09:52:29.237Z</time></trkpt><trkpt lat="44.2386583" lon="11.4785683"><ele>481.2</ele><time>2026-04-04T09:52:30.236Z</time></trkpt><trkpt lat="44.2386" lon="11.4784667"><ele>480.6</ele><time>2026-04-04T09:52:32.237Z</time></trkpt><trkpt lat="44.23866" lon="11.4782967"><ele>480.0</ele><time>2026-04-04T09:58:41.237Z</time></trkpt><trkpt lat="44.2387183" lon="11.478235"><ele>480.0</ele><time>2026-04-04T09:58:44.237Z</time></trkpt><trkpt lat="44.238795" lon="11.4781533"><ele>480.0</ele><time>2026-04-04T09:58:46.237Z</time></trkpt><trkpt lat="44.2388933" lon="11.4780433"><ele>480.0</ele><time>2026-04-04T09:58:48.236Z</time></trkpt><trkpt lat="44.2389533" lon="11.477975"><ele>480.0</ele><time>2026-04-04T09:58:49.237Z</time></trkpt><trkpt lat="44.2390333" lon="11.477885"><ele>480.0</ele><time>2026-04-04T09:58:50.237Z</time></trkpt><trkpt lat="44.2391167" lon="11.4777967"><ele>479.1666666666667</ele><time>2026-04-04T09:58:51.237Z</time></trkpt><trkpt lat="44.239185" lon="11.4777167"><ele>478.33333333333337</ele><time>2026-04-04T09:58:52.236Z</time></trkpt><trkpt lat="44.23925" lon="11.47765"><ele>477.5</ele><time>2026-04-04T09:58:53.236Z</time></trkpt><trkpt lat="44.23931" lon="11.477585"><ele>476.6666666666667</ele><time>2026-04-04T09:58:54.237Z</time></trkpt><trkpt lat="44.2393617" lon="11.47753"><ele>475.83333333333337</ele><time>2026-04-04T09:58:55.237Z</time></trkpt><trkpt lat="44.23942" lon="11.4774683"><ele>475.0</ele><time>2026-04-04T09:58:56.237Z</time></trkpt><trkpt lat="44.239485" lon="11.477395"><ele>475.0</ele><time>2026-04-04T09:58:57.236Z</time></trkpt><trkpt lat="44.2395567" lon="11.4773117"><ele>475.0</ele><time>2026-04-04T09:58:58.237Z</time></trkpt><trkpt lat="44.2396217" lon="11.4772167"><ele>475.0</ele><time>2026-04-04T09:58:59.237Z</time></trkpt><trkpt lat="44.2396833" lon="11.47712"><ele>475.0</ele><time>2026-04-04T09:59:00.237Z</time></trkpt><trkpt lat="44.239745" lon="11.47702"><ele>475.0</ele><time>2026-04-04T09:59:01.237Z</time></trkpt><trkpt lat="44.2397967" lon="11.4769333"><ele>473.6</ele><time>2026-04-04T09:59:02.236Z</time></trkpt><trkpt lat="44.2398467" lon="11.4768467"><ele>472.2</ele><time>2026-04-04T09:59:03.237Z</time></trkpt><trkpt lat="44.2398933" lon="11.4767667"><ele>470.79999999999995</ele><time>2026-04-04T09:59:04.237Z</time></trkpt><trkpt lat="44.239935" lon="11.4766983"><ele>469.4</ele><time>2026-04-04T09:59:05.236Z</time></trkpt><trkpt lat="44.2400217" lon="11.4765733"><ele>468.0</ele><time>2026-04-04T09:59:07.237Z</time></trkpt><trkpt lat="44.2401033" lon="11.476445"><ele>468.0</ele><time>2026-04-04T09:59:09.237Z</time></trkpt><trkpt lat="44.240155" lon="11.4763933"><ele>467.99999999999994</ele><time>2026-04-04T09:59:10.237Z</time></trkpt><trkpt lat="44.2402233" lon="11.4762633"><ele>467.99999999999994</ele><time>2026-04-04T09:59:12.237Z</time></trkpt><trkpt lat="44.2402717" lon="11.4761467"><ele>468.0</ele><time>2026-04-04T09:59:14.237Z</time></trkpt><trkpt lat="44.2403583" lon="11.4760333"><ele>468.0</ele><time>2026-04-04T09:59:16.236Z</time></trkpt><trkpt lat="44.240445" lon="11.4760167"><ele>465.5</ele><time>2026-04-04T09:59:18.236Z</time></trkpt><trkpt lat="44.2405117" lon="11.47604"><ele>463.0</ele><time>2026-04-04T09:59:19.236Z</time></trkpt><trkpt lat="44.2405917" lon="11.4760633"><ele>460.5</ele><time>2026-04-04T09:59:20.236Z</time></trkpt><trkpt lat="44.2406817" lon="11.4760967"><ele>458.0</ele><time>2026-04-04T09:59:21.237Z</time></trkpt><trkpt lat="44.2407767" lon="11.476125"><ele>455.5</ele><time>2026-04-04T09:59:22.236Z</time></trkpt><trkpt lat="44.240855" lon="11.4761433"><ele>453.0</ele><time>2026-04-04T09:59:23.237Z</time></trkpt><trkpt lat="44.2409217" lon="11.47618"><ele>452.59999999999997</ele><time>2026-04-04T09:59:24.236Z</time></trkpt><trkpt lat="44.2409817" lon="11.4762267"><ele>452.19999999999993</ele><time>2026-04-04T09:59:25.236Z</time></trkpt><trkpt lat="44.2410767" lon="11.476305"><ele>451.8</ele><time>2026-04-04T09:59:27.237Z</time></trkpt><trkpt lat="44.2411717" lon="11.4762483"><ele>451.4</ele><time>2026-04-04T09:59:29.236Z</time></trkpt><trkpt lat="44.24121" lon="11.476065"><ele>451.0</ele><time>2026-04-04T09:59:31.237Z</time></trkpt><trkpt lat="44.2412117" lon="11.4759367"><ele>451.0</ele><time>2026-04-04T09:59:32.236Z</time></trkpt><trkpt lat="44.241205" lon="11.4757967"><ele>451.0</ele><time>2026-04-04T09:59:33.237Z</time></trkpt><trkpt lat="44.2411967" lon="11.4756483"><ele>451.0</ele><time>2026-04-04T09:59:34.237Z</time></trkpt><trkpt lat="44.2411933" lon="11.4755"><ele>451.0</ele><time>2026-04-04T09:59:35.236Z</time></trkpt><trkpt lat="44.2411933" lon="11.47537"><ele>451.0</ele><time>2026-04-04T09:59:36.237Z</time></trkpt><trkpt lat="44.2412" lon="11.4752383"><ele>448.50000000000006</ele><time>2026-04-04T09:59:37.236Z</time></trkpt><trkpt lat="44.24119" lon="11.4751117"><ele>446.0</ele><time>2026-04-04T09:59:38.236Z</time></trkpt><trkpt lat="44.2411767" lon="11.4750033"><ele>443.5</ele><time>2026-04-04T09:59:39.237Z</time></trkpt><trkpt lat="44.2411433" lon="11.474895"><ele>441.0</ele><time>2026-04-04T09:59:40.237Z</time></trkpt><trkpt lat="44.24109" lon="11.4748167"><ele>438.50000000000006</ele><time>2026-04-04T09:59:41.237Z</time></trkpt><trkpt lat="44.241015" lon="11.4747583"><ele>436.0</ele><time>2026-04-04T09:59:42.237Z</time></trkpt><trkpt lat="44.240945" lon="11.4746983"><ele>436.0</ele><time>2026-04-04T09:59:43.237Z</time></trkpt><trkpt lat="44.24089" lon="11.47463"><ele>436.0</ele><time>2026-04-04T09:59:44.236Z</time></trkpt><trkpt lat="44.240885" lon="11.4744833"><ele>436.0</ele><time>2026-04-04T09:59:46.236Z</time></trkpt><trkpt lat="44.2409317" lon="11.4744067"><ele>436.0</ele><time>2026-04-04T09:59:47.237Z</time></trkpt><trkpt lat="44.241015" lon="11.4743383"><ele>436.0</ele><time>2026-04-04T09:59:48.236Z</time></trkpt><trkpt lat="44.24113" lon="11.4742817"><ele>432.75</ele><time>2026-04-04T09:59:49.236Z</time></trkpt><trkpt lat="44.241255" lon="11.4742383"><ele>429.5</ele><time>2026-04-04T09:59:50.237Z</time></trkpt><trkpt lat="44.2413917" lon="11.474205"><ele>426.25</ele><time>2026-04-04T09:59:51.237Z</time></trkpt><trkpt lat="44.2415317" lon="11.4741833"><ele>423.0</ele><time>2026-04-04T09:59:52.236Z</time></trkpt><trkpt lat="44.2416517" lon="11.47416"><ele>420.79999999999995</ele><time>2026-04-04T09:59:53.236Z</time></trkpt><trkpt lat="44.2417533" lon="11.4741433"><ele>418.6</ele><time>2026-04-04T09:59:54.237Z</time></trkpt><trkpt lat="44.241845" lon="11.4741217"><ele>416.4</ele><time>2026-04-04T09:59:55.237Z</time></trkpt><trkpt lat="44.241925" lon="11.4740833"><ele>414.20000000000005</ele><time>2026-04-04T09:59:56.237Z</time></trkpt><trkpt lat="44.2419867" lon="11.4739933"><ele>412.0</ele><time>2026-04-04T09:59:57.237Z</time></trkpt><trkpt lat="44.2420233" lon="11.4738517"><ele>409.75</ele><time>2026-04-04T09:59:58.237Z</time></trkpt><trkpt lat="44.2420583" lon="11.473695"><ele>407.5</ele><time>2026-04-04T09:59:59.236Z</time></trkpt><trkpt lat="44.24211" lon="11.4735133"><ele>405.25</ele><time>2026-04-04T10:00:00.237Z</time></trkpt><trkpt lat="44.2421717" lon="11.4733267"><ele>403.0</ele><time>2026-04-04T10:00:01.237Z</time></trkpt><trkpt lat="44.2422333" lon="11.473145"><ele>403.0</ele><time>2026-04-04T10:00:02.236Z</time></trkpt><trkpt lat="44.24229" lon="11.47298"><ele>403.0</ele><time>2026-04-04T10:00:03.237Z</time></trkpt><trkpt lat="44.242355" lon="11.4728367"><ele>403.0</ele><time>2026-04-04T10:00:04.237Z</time></trkpt><trkpt lat="44.24243" lon="11.47271"><ele>403.0</ele><time>2026-04-04T10:00:05.236Z</time></trkpt><trkpt lat="44.2425" lon="11.47261"><ele>402.4</ele><time>2026-04-04T10:00:06.236Z</time></trkpt><trkpt lat="44.2425717" lon="11.472535"><ele>401.79999999999995</ele><time>2026-04-04T10:00:07.236Z</time></trkpt><trkpt lat="44.2426333" lon="11.4724867"><ele>401.2</ele><time>2026-04-04T10:00:08.237Z</time></trkpt><trkpt lat="44.2427217" lon="11.4724283"><ele>400.6</ele><time>2026-04-04T10:00:10.236Z</time></trkpt><trkpt lat="44.2428233" lon="11.4723983"><ele>400.0</ele><time>2026-04-04T10:00:12.237Z</time></trkpt><trkpt lat="44.2429383" lon="11.4723867"><ele>400.0</ele><time>2026-04-04T10:00:14.236Z</time></trkpt><trkpt lat="44.24304" lon="11.4723383"><ele>400.0</ele><time>2026-04-04T10:00:16.236Z</time></trkpt><trkpt lat="44.24311" lon="11.4722133"><ele>400.0</ele><time>2026-04-04T10:00:18.237Z</time></trkpt><trkpt lat="44.2431633" lon="11.4721033"><ele>400.0</ele><time>2026-04-04T10:00:20.237Z</time></trkpt><trkpt lat="44.2432333" lon="11.4720733"><ele>400.0</ele><time>2026-04-04T10:00:22.237Z</time></trkpt><trkpt lat="44.2433217" lon="11.4720983"><ele>399.6666666666667</ele><time>2026-04-04T10:00:25.237Z</time></trkpt><trkpt lat="44.243405" lon="11.47216"><ele>399.33333333333337</ele><time>2026-04-04T10:00:28.237Z</time></trkpt><trkpt lat="44.2434733" lon="11.4722233"><ele>399.0</ele><time>2026-04-04T10:00:30.237Z</time></trkpt><trkpt lat="44.243545" lon="11.4723117"><ele>398.66666666666663</ele><time>2026-04-04T10:00:32.236Z</time></trkpt><trkpt lat="44.2435967" lon="11.4723967"><ele>398.3333333333333</ele><time>2026-04-04T10:00:34.237Z</time></trkpt><trkpt lat="44.24364" lon="11.4724817"><ele>398.0</ele><time>2026-04-04T10:00:36.237Z</time></trkpt><trkpt lat="44.2437117" lon="11.4725167"><ele>398.0</ele><time>2026-04-04T10:01:00.236Z</time></trkpt><trkpt lat="44.24379" lon="11.4725683"><ele>398.0</ele><time>2026-04-04T10:01:02.237Z</time></trkpt><trkpt lat="44.2439133" lon="11.4726167"><ele>398.0</ele><time>2026-04-04T10:01:04.236Z</time></trkpt><trkpt lat="44.2439783" lon="11.4726283"><ele>398.0</ele><time>2026-04-04T10:01:05.237Z</time></trkpt><trkpt lat="44.2441067" lon="11.4726467"><ele>398.0</ele><time>2026-04-04T10:01:07.236Z</time></trkpt><trkpt lat="44.2442217" lon="11.4726117"><ele>394.99999999999994</ele><time>2026-04-04T10:01:09.236Z</time></trkpt><trkpt lat="44.2442817" lon="11.4725617"><ele>392.0</ele><time>2026-04-04T10:01:10.237Z</time></trkpt><trkpt lat="44.2443467" lon="11.472505"><ele>389.0</ele><time>2026-04-04T10:01:11.237Z</time></trkpt><trkpt lat="44.24441" lon="11.472435"><ele>386.0</ele><time>2026-04-04T10:01:12.237Z</time></trkpt><trkpt lat="44.2444667" lon="11.4723517"><ele>383.0</ele><time>2026-04-04T10:01:13.236Z</time></trkpt><trkpt lat="44.2445167" lon="11.472265"><ele>380.0</ele><time>2026-04-04T10:01:14.237Z</time></trkpt><trkpt lat="44.2445683" lon="11.4721717"><ele>380.0</ele><time>2026-04-04T10:01:15.237Z</time></trkpt><trkpt lat="44.2446217" lon="11.47208"><ele>380.0</ele><time>2026-04-04T10:01:16.237Z</time></trkpt><trkpt lat="44.2446783" lon="11.4719833"><ele>380.0</ele><time>2026-04-04T10:01:17.237Z</time></trkpt><trkpt lat="44.2447517" lon="11.4718983"><ele>380.0</ele><time>2026-04-04T10:01:18.236Z</time></trkpt><trkpt lat="44.2448217" lon="11.4718317"><ele>380.0</ele><time>2026-04-04T10:01:19.237Z</time></trkpt><trkpt lat="44.2449033" lon="11.4717733"><ele>380.0</ele><time>2026-04-04T10:01:20.237Z</time></trkpt><trkpt lat="44.2449883" lon="11.4717167"><ele>377.0</ele><time>2026-04-04T10:01:21.236Z</time></trkpt><trkpt lat="44.2450667" lon="11.47166"><ele>374.0</ele><time>2026-04-04T10:01:22.237Z</time></trkpt><trkpt lat="44.2451467" lon="11.4716033"><ele>371.0</ele><time>2026-04-04T10:01:23.237Z</time></trkpt><trkpt lat="44.2452317" lon="11.4715417"><ele>368.0</ele><time>2026-04-04T10:01:24.236Z</time></trkpt><trkpt lat="44.2453133" lon="11.4714683"><ele>365.0</ele><time>2026-04-04T10:01:25.236Z</time></trkpt><trkpt lat="44.2453883" lon="11.4713817"><ele>365.0</ele><time>2026-04-04T10:01:26.237Z</time></trkpt><trkpt lat="44.2454483" lon="11.4712833"><ele>365.0</ele><time>2026-04-04T10:01:27.236Z</time></trkpt><trkpt lat="44.24549" lon="11.47119"><ele>365.0</ele><time>2026-04-04T10:01:28.236Z</time></trkpt><trkpt lat="44.2455167" lon="11.4710983"><ele>365.0</ele><time>2026-04-04T10:01:29.236Z</time></trkpt><trkpt lat="44.2455217" lon="11.4709867"><ele>365.0</ele><time>2026-04-04T10:01:30.237Z</time></trkpt><trkpt lat="44.2455133" lon="11.4708817"><ele>365.0</ele><time>2026-04-04T10:01:31.236Z</time></trkpt><trkpt lat="44.245495" lon="11.4707867"><ele>363.0</ele><time>2026-04-04T10:01:32.236Z</time></trkpt><trkpt lat="44.2454767" lon="11.470635"><ele>361.0</ele><time>2026-04-04T10:01:34.237Z</time></trkpt><trkpt lat="44.245545" lon="11.4705067"><ele>359.0</ele><time>2026-04-04T10:01:36.237Z</time></trkpt><trkpt lat="44.2456267" lon="11.47044"><ele>357.0</ele><time>2026-04-04T10:01:37.236Z</time></trkpt><trkpt lat="44.245715" lon="11.4703667"><ele>355.0</ele><time>2026-04-04T10:01:38.236Z</time></trkpt><trkpt lat="44.2458117" lon="11.4703133"><ele>351.8</ele><time>2026-04-04T10:01:39.236Z</time></trkpt><trkpt lat="44.2459017" lon="11.4702533"><ele>348.6</ele><time>2026-04-04T10:01:40.236Z</time></trkpt><trkpt lat="44.245995" lon="11.4701967"><ele>345.4</ele><time>2026-04-04T10:01:41.236Z</time></trkpt><trkpt lat="44.2460833" lon="11.4701433"><ele>342.2</ele><time>2026-04-04T10:01:42.236Z</time></trkpt><trkpt lat="44.246165" lon="11.4700983"><ele>339.0</ele><time>2026-04-04T10:01:43.236Z</time></trkpt><trkpt lat="44.24624" lon="11.47006"><ele>339.0</ele><time>2026-04-04T10:01:44.237Z</time></trkpt><trkpt lat="44.2463017" lon="11.4700333"><ele>339.0</ele><time>2026-04-04T10:01:45.237Z</time></trkpt><trkpt lat="44.2464033" lon="11.4699967"><ele>339.0</ele><time>2026-04-04T10:01:47.237Z</time></trkpt><trkpt lat="44.2464883" lon="11.4700333"><ele>339.0</ele><time>2026-04-04T10:01:49.237Z</time></trkpt><trkpt lat="44.246595" lon="11.4701133"><ele>339.0</ele><time>2026-04-04T10:01:51.237Z</time></trkpt><trkpt lat="44.2466567" lon="11.4701483"><ele>339.0</ele><time>2026-04-04T10:01:52.237Z</time></trkpt><trkpt lat="44.2467317" lon="11.470165"><ele>338.4285714285714</ele><time>2026-04-04T10:01:53.237Z</time></trkpt><trkpt lat="44.2468033" lon="11.470185"><ele>337.8571428571429</ele><time>2026-04-04T10:01:54.237Z</time></trkpt><trkpt lat="44.24687" lon="11.4701983"><ele>337.2857142857143</ele><time>2026-04-04T10:01:55.237Z</time></trkpt><trkpt lat="44.24694" lon="11.470215"><ele>336.71428571428567</ele><time>2026-04-04T10:01:56.236Z</time></trkpt><trkpt lat="44.2470133" lon="11.4702333"><ele>336.1428571428571</ele><time>2026-04-04T10:01:57.237Z</time></trkpt><trkpt lat="44.2470933" lon="11.47026"><ele>335.57142857142856</ele><time>2026-04-04T10:01:58.236Z</time></trkpt><trkpt lat="44.2471717" lon="11.47029"><ele>335.0</ele><time>2026-04-04T10:01:59.237Z</time></trkpt><trkpt lat="44.2472467" lon="11.4703233"><ele>333.6666666666667</ele><time>2026-04-04T10:02:00.237Z</time></trkpt><trkpt lat="44.2473217" lon="11.4703533"><ele>332.33333333333337</ele><time>2026-04-04T10:02:01.237Z</time></trkpt><trkpt lat="44.2473983" lon="11.4703783"><ele>331.0</ele><time>2026-04-04T10:02:02.237Z</time></trkpt><trkpt lat="44.247475" lon="11.47041"><ele>329.6666666666667</ele><time>2026-04-04T10:02:03.237Z</time></trkpt><trkpt lat="44.2475533" lon="11.4704467"><ele>328.3333333333333</ele><time>2026-04-04T10:02:04.237Z</time></trkpt><trkpt lat="44.24764" lon="11.47049"><ele>327.0</ele><time>2026-04-04T10:02:05.236Z</time></trkpt><trkpt lat="44.2477217" lon="11.4705433"><ele>327.0</ele><time>2026-04-04T10:02:06.237Z</time></trkpt><trkpt lat="44.247785" lon="11.4705933"><ele>327.0</ele><time>2026-04-04T10:02:07.236Z</time></trkpt><trkpt lat="44.2478517" lon="11.4706367"><ele>327.0</ele><time>2026-04-04T10:02:09.236Z</time></trkpt><trkpt lat="44.2479067" lon="11.4705467"><ele>327.0</ele><time>2026-04-04T10:02:16.236Z</time></trkpt><trkpt lat="44.2479567" lon="11.47041"><ele>327.0</ele><time>2026-04-04T10:02:18.236Z</time></trkpt><trkpt lat="44.2479867" lon="11.4703183"><ele>327.0</ele><time>2026-04-04T10:02:19.237Z</time></trkpt><trkpt lat="44.248015" lon="11.470225"><ele>326.8333333333333</ele><time>2026-04-04T10:02:20.236Z</time></trkpt><trkpt lat="44.2480367" lon="11.4701367"><ele>326.6666666666667</ele><time>2026-04-04T10:02:21.236Z</time></trkpt><trkpt lat="44.2480683" lon="11.4700483"><ele>326.5</ele><time>2026-04-04T10:02:22.237Z</time></trkpt><trkpt lat="44.2481033" lon="11.4699483"><ele>326.33333333333337</ele><time>2026-04-04T10:02:23.237Z</time></trkpt><trkpt lat="44.2481483" lon="11.4698417"><ele>326.1666666666667</ele><time>2026-04-04T10:02:24.236Z</time></trkpt><trkpt lat="44.2481917" lon="11.4697533"><ele>326.0</ele><time>2026-04-04T10:02:25.237Z</time></trkpt><trkpt lat="44.248235" lon="11.4696767"><ele>324.0</ele><time>2026-04-04T10:02:26.236Z</time></trkpt><trkpt lat="44.24829" lon="11.4696083"><ele>322.0</ele><time>2026-04-04T10:02:27.237Z</time></trkpt><trkpt lat="44.2483483" lon="11.4694983"><ele>320.0</ele><time>2026-04-04T10:02:29.237Z</time></trkpt><trkpt lat="44.248335" lon="11.469395"><ele>318.0</ele><time>2026-04-04T10:02:31.237Z</time></trkpt><trkpt lat="44.2482933" lon="11.469275"><ele>316.0</ele><time>2026-04-04T10:02:33.237Z</time></trkpt><trkpt lat="44.2482583" lon="11.4691283"><ele>316.00000000000006</ele><time>2026-04-04T10:02:35.237Z</time></trkpt><trkpt lat="44.2482323" lon="11.4690128"><ele>316.0</ele><time>2026-04-04T10:02:37.237Z</time></trkpt><trkpt lat="44.2482275" lon="11.4689205"><ele>316.0</ele><time>2026-04-04T10:02:39.237Z</time></trkpt><trkpt lat="44.2482679" lon="11.4688387"><ele>316.0</ele><time>2026-04-04T10:02:43.237Z</time></trkpt><trkpt lat="44.2483303" lon="11.4688068"><ele>316.0</ele><time>2026-04-04T10:02:55.237Z</time></trkpt><trkpt lat="44.2483896" lon="11.4687772"><ele>316.00000000000006</ele><time>2026-04-04T10:02:57.237Z</time></trkpt><trkpt lat="44.2484651" lon="11.4687581"><ele>316.0</ele><time>2026-04-04T10:02:59.237Z</time></trkpt><trkpt lat="44.2485549" lon="11.4687473"><ele>316.0</ele><time>2026-04-04T10:03:01.237Z</time></trkpt><trkpt lat="44.2486402" lon="11.4687451"><ele>316.0</ele><time>2026-04-04T10:03:03.237Z</time></trkpt><trkpt lat="44.2487301" lon="11.468749"><ele>316.0</ele><time>2026-04-04T10:03:05.236Z</time></trkpt><trkpt lat="44.2488342" lon="11.4687466"><ele>316.0</ele><time>2026-04-04T10:03:07.236Z</time></trkpt><trkpt lat="44.2489112" lon="11.4687397"><ele>316.0</ele><time>2026-04-04T10:03:09.237Z</time></trkpt><trkpt lat="44.2490083" lon="11.4687133"><ele>316.0</ele><time>2026-04-04T10:03:43.237Z</time></trkpt><trkpt lat="44.2490683" lon="11.4687517"><ele>316.0</ele><time>2026-04-04T10:03:45.237Z</time></trkpt><trkpt lat="44.2489783" lon="11.4687283"><ele>316.0</ele><time>2026-04-04T10:03:54.236Z</time></trkpt><trkpt lat="44.248845" lon="11.46876"><ele>316.0</ele><time>2026-04-04T10:03:56.237Z</time></trkpt><trkpt lat="44.248775" lon="11.46877"><ele>316.0</ele><time>2026-04-04T10:03:57.236Z</time></trkpt><trkpt lat="44.248705" lon="11.4687783"><ele>316.0</ele><time>2026-04-04T10:03:58.236Z</time></trkpt><trkpt lat="44.2485767" lon="11.4687733"><ele>316.0</ele><time>2026-04-04T10:04:00.236Z</time></trkpt><trkpt lat="44.2484617" lon="11.468765"><ele>316.0</ele><time>2026-04-04T10:04:02.237Z</time></trkpt><trkpt lat="44.2483667" lon="11.46878"><ele>316.0</ele><time>2026-04-04T10:04:04.237Z</time></trkpt><trkpt lat="44.2482933" lon="11.4687667"><ele>316.0</ele><time>2026-04-04T10:04:06.237Z</time></trkpt><trkpt lat="44.248265" lon="11.46868"><ele>316.0</ele><time>2026-04-04T10:04:08.236Z</time></trkpt><trkpt lat="44.2482567" lon="11.4685233"><ele>315.42857142857144</ele><time>2026-04-04T10:04:30.237Z</time></trkpt><trkpt lat="44.2482683" lon="11.468435"><ele>314.8571428571429</ele><time>2026-04-04T10:04:32.237Z</time></trkpt><trkpt lat="44.2482817" lon="11.468345"><ele>314.28571428571433</ele><time>2026-04-04T10:04:36.237Z</time></trkpt><trkpt lat="44.2482033" lon="11.46833"><ele>313.7142857142857</ele><time>2026-04-04T10:04:44.237Z</time></trkpt><trkpt lat="44.248255" lon="11.468385"><ele>313.1428571428571</ele><time>2026-04-04T10:04:51.237Z</time></trkpt><trkpt lat="44.2482467" lon="11.468485"><ele>312.5714285714286</ele><time>2026-04-04T10:04:59.237Z</time></trkpt><trkpt lat="44.248261" lon="11.4685844"><ele>312.0</ele><time>2026-04-04T10:05:02.236Z</time></trkpt><trkpt lat="44.2482666" lon="11.4686736"><ele>312.6666666666667</ele><time>2026-04-04T10:05:07.239Z</time></trkpt><trkpt lat="44.2482587" lon="11.4687994"><ele>313.3333333333333</ele><time>2026-04-04T10:05:17.289Z</time></trkpt><trkpt lat="44.2482115" lon="11.4688622"><ele>314.0</ele><time>2026-04-04T10:05:21.237Z</time></trkpt><trkpt lat="44.2481144" lon="11.4688761"><ele>314.66666666666663</ele><time>2026-04-04T10:05:23.237Z</time></trkpt><trkpt lat="44.2479992" lon="11.4688227"><ele>315.3333333333333</ele><time>2026-04-04T10:05:28.246Z</time></trkpt><trkpt lat="44.2479349" lon="11.4688008"><ele>316.0</ele><time>2026-04-04T10:05:31.262Z</time></trkpt><trkpt lat="44.2480359" lon="11.4688526"><ele>316.0</ele><time>2026-04-04T10:10:48.294Z</time></trkpt><trkpt lat="44.2481668" lon="11.4688735"><ele>316.0</ele><time>2026-04-04T10:10:53.32Z</time></trkpt><trkpt lat="44.2482744" lon="11.4688328"><ele>316.0</ele><time>2026-04-04T10:10:56.237Z</time></trkpt><trkpt lat="44.2483406" lon="11.4688045"><ele>316.0</ele><time>2026-04-04T10:10:58.246Z</time></trkpt><trkpt lat="44.248444" lon="11.4687748"><ele>316.0</ele><time>2026-04-04T10:11:00.237Z</time></trkpt><trkpt lat="44.2485126" lon="11.468758"><ele>316.0</ele><time>2026-04-04T10:11:01.236Z</time></trkpt><trkpt lat="44.248621" lon="11.4687467"><ele>316.0</ele><time>2026-04-04T10:11:03.237Z</time></trkpt><trkpt lat="44.2487317" lon="11.4687524"><ele>316.0</ele><time>2026-04-04T10:11:05.237Z</time></trkpt><trkpt lat="44.2488328" lon="11.4687413"><ele>316.0</ele><time>2026-04-04T10:11:07.237Z</time></trkpt><trkpt lat="44.2489124" lon="11.4687215"><ele>316.0</ele><time>2026-04-04T10:11:09.237Z</time></trkpt><trkpt lat="44.2489917" lon="11.4687059"><ele>316.0</ele><time>2026-04-04T10:11:12.237Z</time></trkpt><trkpt lat="44.2490539" lon="11.4686733"><ele>316.0</ele><time>2026-04-04T10:11:17.274Z</time></trkpt><trkpt lat="44.2490419" lon="11.4685637"><ele>316.0</ele><time>2026-04-04T10:11:20.288Z</time></trkpt><trkpt lat="44.2489905" lon="11.4684827"><ele>316.0</ele><time>2026-04-04T10:11:22.299Z</time></trkpt><trkpt lat="44.2488965" lon="11.4683823"><ele>316.0</ele><time>2026-04-04T10:11:25.237Z</time></trkpt><trkpt lat="44.2488347" lon="11.4683513"><ele>316.0</ele><time>2026-04-04T10:11:26.237Z</time></trkpt><trkpt lat="44.2487261" lon="11.4683268"><ele>315.3333333333333</ele><time>2026-04-04T10:11:28.237Z</time></trkpt><trkpt lat="44.2486375" lon="11.4682974"><ele>314.66666666666663</ele><time>2026-04-04T10:11:30.237Z</time></trkpt><trkpt lat="44.2485667" lon="11.4682799"><ele>314.0</ele><time>2026-04-04T10:11:32.236Z</time></trkpt><trkpt lat="44.248503" lon="11.4682627"><ele>313.3333333333333</ele><time>2026-04-04T10:11:34.236Z</time></trkpt><trkpt lat="44.2484369" lon="11.4682474"><ele>312.6666666666667</ele><time>2026-04-04T10:11:37.227Z</time></trkpt><trkpt lat="44.2483327" lon="11.468194"><ele>312.0</ele><time>2026-04-04T10:11:39.262Z</time></trkpt><trkpt lat="44.2482466" lon="11.4681582"><ele>312.0</ele><time>2026-04-04T10:11:41.272Z</time></trkpt><trkpt lat="44.2481713" lon="11.4681205"><ele>312.0</ele><time>2026-04-04T10:11:43.229Z</time></trkpt><trkpt lat="44.2480644" lon="11.4681182"><ele>312.0</ele><time>2026-04-04T10:11:45.237Z</time></trkpt><trkpt lat="44.2479484" lon="11.4680629"><ele>312.0</ele><time>2026-04-04T10:11:47.236Z</time></trkpt><trkpt lat="44.2478448" lon="11.4679845"><ele>312.0</ele><time>2026-04-04T10:11:49.237Z</time></trkpt><trkpt lat="44.2477854" lon="11.4679417"><ele>312.6666666666667</ele><time>2026-04-04T10:11:50.236Z</time></trkpt><trkpt lat="44.2477159" lon="11.4679095"><ele>313.3333333333333</ele><time>2026-04-04T10:11:51.236Z</time></trkpt><trkpt lat="44.2476475" lon="11.467878"><ele>314.0</ele><time>2026-04-04T10:11:52.237Z</time></trkpt><trkpt lat="44.2475801" lon="11.4678547"><ele>314.66666666666663</ele><time>2026-04-04T10:11:53.236Z</time></trkpt><trkpt lat="44.2475164" lon="11.4678348"><ele>315.3333333333333</ele><time>2026-04-04T10:11:54.237Z</time></trkpt><trkpt lat="44.2474055" lon="11.4678085"><ele>316.0</ele><time>2026-04-04T10:11:56.237Z</time></trkpt><trkpt lat="44.247323" lon="11.4677817"><ele>316.0</ele><time>2026-04-04T10:11:58.236Z</time></trkpt><trkpt lat="44.2472534" lon="11.4677519"><ele>316.0</ele><time>2026-04-04T10:12:00.236Z</time></trkpt><trkpt lat="44.247188" lon="11.4677376"><ele>316.0</ele><time>2026-04-04T10:12:02.236Z</time></trkpt><trkpt lat="44.2471105" lon="11.4677007"><ele>316.0</ele><time>2026-04-04T10:12:05.243Z</time></trkpt><trkpt lat="44.2470269" lon="11.4676869"><ele>316.0</ele><time>2026-04-04T10:12:08.345Z</time></trkpt><trkpt lat="44.2469576" lon="11.4677603"><ele>316.0</ele><time>2026-04-04T10:12:10.321Z</time></trkpt><trkpt lat="44.2469345" lon="11.4678564"><ele>315.8</ele><time>2026-04-04T10:12:12.291Z</time></trkpt><trkpt lat="44.2468916" lon="11.467971"><ele>315.6</ele><time>2026-04-04T10:12:14.301Z</time></trkpt><trkpt lat="44.2467897" lon="11.4680185"><ele>315.4</ele><time>2026-04-04T10:12:16.237Z</time></trkpt><trkpt lat="44.2467188" lon="11.4680871"><ele>315.2</ele><time>2026-04-04T10:12:18.237Z</time></trkpt><trkpt lat="44.2466766" lon="11.4681833"><ele>315.0</ele><time>2026-04-04T10:12:20.237Z</time></trkpt><trkpt lat="44.2466315" lon="11.4682903"><ele>315.0</ele><time>2026-04-04T10:12:22.237Z</time></trkpt><trkpt lat="44.2465324" lon="11.4683181"><ele>315.0</ele><time>2026-04-04T10:12:24.236Z</time></trkpt><trkpt lat="44.2464589" lon="11.4682742"><ele>315.0</ele><time>2026-04-04T10:12:25.236Z</time></trkpt><trkpt lat="44.2463737" lon="11.4681977"><ele>315.0</ele><time>2026-04-04T10:12:26.236Z</time></trkpt><trkpt lat="44.2462818" lon="11.4681003"><ele>315.0</ele><time>2026-04-04T10:12:27.236Z</time></trkpt><trkpt lat="44.246194" lon="11.4679956"><ele>315.0</ele><time>2026-04-04T10:12:28.236Z</time></trkpt><trkpt lat="44.2461146" lon="11.4679329"><ele>315.0</ele><time>2026-04-04T10:12:29.237Z</time></trkpt><trkpt lat="44.2460388" lon="11.4678959"><ele>315.0</ele><time>2026-04-04T10:12:30.237Z</time></trkpt><trkpt lat="44.2459677" lon="11.4678736"><ele>315.0</ele><time>2026-04-04T10:12:31.237Z</time></trkpt><trkpt lat="44.2459011" lon="11.4678698"><ele>315.0</ele><time>2026-04-04T10:12:32.237Z</time></trkpt><trkpt lat="44.245804" lon="11.4678883"><ele>315.0</ele><time>2026-04-04T10:12:34.237Z</time></trkpt><trkpt lat="44.2457316" lon="11.4678887"><ele>315.0</ele><time>2026-04-04T10:12:37.308Z</time></trkpt><trkpt lat="44.2456726" lon="11.4678488"><ele>315.0</ele><time>2026-04-04T10:12:39.318Z</time></trkpt><trkpt lat="44.2456061" lon="11.4677933"><ele>315.0</ele><time>2026-04-04T10:12:42.334Z</time></trkpt><trkpt lat="44.2455129" lon="11.4677348"><ele>315.0</ele><time>2026-04-04T10:12:44.237Z</time></trkpt><trkpt lat="44.2454542" lon="11.4676938"><ele>315.0</ele><time>2026-04-04T10:12:45.237Z</time></trkpt><trkpt lat="44.2453485" lon="11.4676035"><ele>315.0</ele><time>2026-04-04T10:12:47.237Z</time></trkpt><trkpt lat="44.2452607" lon="11.4675153"><ele>315.6666666666667</ele><time>2026-04-04T10:12:49.236Z</time></trkpt><trkpt lat="44.2451741" lon="11.4675358"><ele>316.3333333333333</ele><time>2026-04-04T10:12:51.237Z</time></trkpt><trkpt lat="44.2451212" lon="11.4676035"><ele>317.0</ele><time>2026-04-04T10:12:52.236Z</time></trkpt><trkpt lat="44.2450658" lon="11.4676713"><ele>317.66666666666663</ele><time>2026-04-04T10:12:53.237Z</time></trkpt><trkpt lat="44.2449609" lon="11.4677014"><ele>318.3333333333333</ele><time>2026-04-04T10:12:55.236Z</time></trkpt><trkpt lat="44.2448967" lon="11.4676668"><ele>319.0</ele><time>2026-04-04T10:12:56.237Z</time></trkpt><trkpt lat="44.2448232" lon="11.4676041"><ele>319.8333333333333</ele><time>2026-04-04T10:12:57.236Z</time></trkpt><trkpt lat="44.2447503" lon="11.4675383"><ele>320.66666666666663</ele><time>2026-04-04T10:12:58.236Z</time></trkpt><trkpt lat="44.2446865" lon="11.4674867"><ele>321.5</ele><time>2026-04-04T10:12:59.236Z</time></trkpt><trkpt lat="44.2446316" lon="11.4674271"><ele>322.3333333333333</ele><time>2026-04-04T10:13:00.237Z</time></trkpt><trkpt lat="44.2445797" lon="11.4673544"><ele>323.1666666666667</ele><time>2026-04-04T10:13:01.237Z</time></trkpt><trkpt lat="44.2445279" lon="11.4672873"><ele>324.0</ele><time>2026-04-04T10:13:02.236Z</time></trkpt><trkpt lat="44.2444173" lon="11.4671804"><ele>324.0</ele><time>2026-04-04T10:13:04.236Z</time></trkpt><trkpt lat="44.244332" lon="11.4671271"><ele>324.0</ele><time>2026-04-04T10:13:05.237Z</time></trkpt><trkpt lat="44.2442224" lon="11.4670816"><ele>324.0</ele><time>2026-04-04T10:13:06.237Z</time></trkpt><trkpt lat="44.2441086" lon="11.4670394"><ele>324.0</ele><time>2026-04-04T10:13:07.236Z</time></trkpt><trkpt lat="44.2440109" lon="11.467004"><ele>324.0</ele><time>2026-04-04T10:13:08.236Z</time></trkpt><trkpt lat="44.2439309" lon="11.4669651"><ele>323.6666666666667</ele><time>2026-04-04T10:13:09.237Z</time></trkpt><trkpt lat="44.2438607" lon="11.4669141"><ele>323.3333333333333</ele><time>2026-04-04T10:13:10.237Z</time></trkpt><trkpt lat="44.2437833" lon="11.4668848"><ele>323.0</ele><time>2026-04-04T10:13:11.237Z</time></trkpt><trkpt lat="44.2436901" lon="11.4668866"><ele>322.66666666666663</ele><time>2026-04-04T10:13:12.237Z</time></trkpt><trkpt lat="44.2435911" lon="11.4669067"><ele>322.3333333333333</ele><time>2026-04-04T10:13:13.237Z</time></trkpt><trkpt lat="44.243503" lon="11.4669302"><ele>322.0</ele><time>2026-04-04T10:13:14.237Z</time></trkpt><trkpt lat="44.243435" lon="11.4669494"><ele>322.0</ele><time>2026-04-04T10:13:15.237Z</time></trkpt><trkpt lat="44.2433557" lon="11.4669554"><ele>322.0</ele><time>2026-04-04T10:13:17.237Z</time></trkpt><trkpt lat="44.2433011" lon="11.4668859"><ele>322.0</ele><time>2026-04-04T10:13:19.237Z</time></trkpt><trkpt lat="44.2432859" lon="11.4667861"><ele>322.0</ele><time>2026-04-04T10:13:21.237Z</time></trkpt><trkpt lat="44.2432242" lon="11.4666569"><ele>322.0</ele><time>2026-04-04T10:13:25.252Z</time></trkpt><trkpt lat="44.2431427" lon="11.4665681"><ele>322.0</ele><time>2026-04-04T10:13:27.237Z</time></trkpt><trkpt lat="44.2430897" lon="11.4665181"><ele>322.40000000000003</ele><time>2026-04-04T10:13:28.237Z</time></trkpt><trkpt lat="44.2430151" lon="11.466471"><ele>322.8</ele><time>2026-04-04T10:13:30.237Z</time></trkpt><trkpt lat="44.242938" lon="11.4664203"><ele>323.2</ele><time>2026-04-04T10:15:20.237Z</time></trkpt><trkpt lat="44.2428424" lon="11.4663601"><ele>323.6</ele><time>2026-04-04T10:15:22.237Z</time></trkpt><trkpt lat="44.2427219" lon="11.4663779"><ele>324.0</ele><time>2026-04-04T10:15:24.237Z</time></trkpt><trkpt lat="44.2426224" lon="11.4664375"><ele>324.0</ele><time>2026-04-04T10:15:26.237Z</time></trkpt><trkpt lat="44.2425374" lon="11.4664914"><ele>324.0</ele><time>2026-04-04T10:15:28.237Z</time></trkpt><trkpt lat="44.2424509" lon="11.4665792"><ele>324.0</ele><time>2026-04-04T10:15:30.237Z</time></trkpt><trkpt lat="44.2423884" lon="11.466598"><ele>324.0</ele><time>2026-04-04T10:15:31.237Z</time></trkpt><trkpt lat="44.242279" lon="11.4664897"><ele>324.0</ele><time>2026-04-04T10:15:33.237Z</time></trkpt><trkpt lat="44.2422228" lon="11.466398"><ele>324.1666666666667</ele><time>2026-04-04T10:15:34.237Z</time></trkpt><trkpt lat="44.2421684" lon="11.4663431"><ele>324.3333333333333</ele><time>2026-04-04T10:15:35.237Z</time></trkpt><trkpt lat="44.242093" lon="11.4663163"><ele>324.5</ele><time>2026-04-04T10:15:36.237Z</time></trkpt><trkpt lat="44.2419996" lon="11.4663037"><ele>324.66666666666663</ele><time>2026-04-04T10:15:37.237Z</time></trkpt><trkpt lat="44.2418982" lon="11.4663023"><ele>324.8333333333333</ele><time>2026-04-04T10:15:38.237Z</time></trkpt><trkpt lat="44.2418001" lon="11.466295"><ele>325.0</ele><time>2026-04-04T10:15:39.237Z</time></trkpt><trkpt lat="44.2417121" lon="11.4662832"><ele>325.16666666666663</ele><time>2026-04-04T10:15:40.237Z</time></trkpt><trkpt lat="44.2416442" lon="11.4662578"><ele>325.3333333333333</ele><time>2026-04-04T10:15:41.237Z</time></trkpt><trkpt lat="44.2415779" lon="11.4662018"><ele>325.5</ele><time>2026-04-04T10:15:42.237Z</time></trkpt><trkpt lat="44.2415084" lon="11.4661637"><ele>325.6666666666667</ele><time>2026-04-04T10:15:43.237Z</time></trkpt><trkpt lat="44.2414289" lon="11.4661537"><ele>325.83333333333337</ele><time>2026-04-04T10:15:44.236Z</time></trkpt><trkpt lat="44.2413435" lon="11.4661408"><ele>326.0</ele><time>2026-04-04T10:15:45.236Z</time></trkpt><trkpt lat="44.2412623" lon="11.4661003"><ele>326.0</ele><time>2026-04-04T10:15:46.236Z</time></trkpt><trkpt lat="44.2411874" lon="11.4660421"><ele>326.0</ele><time>2026-04-04T10:15:47.237Z</time></trkpt><trkpt lat="44.2411104" lon="11.4659573"><ele>326.0</ele><time>2026-04-04T10:15:48.236Z</time></trkpt><trkpt lat="44.2410345" lon="11.4658513"><ele>326.0</ele><time>2026-04-04T10:15:49.236Z</time></trkpt><trkpt lat="44.2409622" lon="11.4657281"><ele>326.0</ele><time>2026-04-04T10:15:50.237Z</time></trkpt><trkpt lat="44.2408809" lon="11.4655988"><ele>326.0</ele><time>2026-04-04T10:15:51.237Z</time></trkpt><trkpt lat="44.2408057" lon="11.4654803"><ele>326.0</ele><time>2026-04-04T10:15:52.237Z</time></trkpt><trkpt lat="44.2407575" lon="11.465361"><ele>326.0</ele><time>2026-04-04T10:15:53.237Z</time></trkpt><trkpt lat="44.2407275" lon="11.4652565"><ele>326.0</ele><time>2026-04-04T10:15:54.237Z</time></trkpt><trkpt lat="44.2407123" lon="11.4651542"><ele>326.0</ele><time>2026-04-04T10:15:55.237Z</time></trkpt><trkpt lat="44.2407031" lon="11.4650001"><ele>326.5</ele><time>2026-04-04T10:15:57.236Z</time></trkpt><trkpt lat="44.2407171" lon="11.4648481"><ele>327.0</ele><time>2026-04-04T10:15:59.237Z</time></trkpt><trkpt lat="44.2407504" lon="11.4647594"><ele>327.5</ele><time>2026-04-04T10:16:00.236Z</time></trkpt><trkpt lat="44.2407908" lon="11.4646747"><ele>328.0</ele><time>2026-04-04T10:16:01.237Z</time></trkpt><trkpt lat="44.2408236" lon="11.4645868"><ele>328.5</ele><time>2026-04-04T10:16:02.237Z</time></trkpt><trkpt lat="44.2408429" lon="11.4644891"><ele>329.0</ele><time>2026-04-04T10:16:03.236Z</time></trkpt><trkpt lat="44.2408559" lon="11.464386"><ele>329.0</ele><time>2026-04-04T10:16:04.237Z</time></trkpt><trkpt lat="44.2408974" lon="11.4642589"><ele>329.0</ele><time>2026-04-04T10:16:06.236Z</time></trkpt><trkpt lat="44.2410003" lon="11.4641798"><ele>329.0</ele><time>2026-04-04T10:16:08.236Z</time></trkpt><trkpt lat="44.2410492" lon="11.4641235"><ele>329.0</ele><time>2026-04-04T10:16:09.237Z</time></trkpt><trkpt lat="44.2411091" lon="11.4640104"><ele>329.0</ele><time>2026-04-04T10:16:11.237Z</time></trkpt><trkpt lat="44.2411563" lon="11.463936"><ele>329.0</ele><time>2026-04-04T10:16:13.236Z</time></trkpt><trkpt lat="44.2411975" lon="11.4638502"><ele>329.0</ele><time>2026-04-04T10:16:16.237Z</time></trkpt><trkpt lat="44.2412624" lon="11.4638079"><ele>329.0</ele><time>2026-04-04T10:18:08.237Z</time></trkpt><trkpt lat="44.2413436" lon="11.4638484"><ele>329.0</ele><time>2026-04-04T10:18:11.237Z</time></trkpt><trkpt lat="44.2414315" lon="11.4638532"><ele>329.0</ele><time>2026-04-04T10:18:14.237Z</time></trkpt><trkpt lat="44.2415215" lon="11.463795"><ele>329.0</ele><time>2026-04-04T10:18:16.237Z</time></trkpt><trkpt lat="44.2416072" lon="11.4636635"><ele>330.5</ele><time>2026-04-04T10:18:18.237Z</time></trkpt><trkpt lat="44.2416546" lon="11.4635743"><ele>332.0</ele><time>2026-04-04T10:18:19.236Z</time></trkpt><trkpt lat="44.2417019" lon="11.4634864"><ele>333.5</ele><time>2026-04-04T10:18:20.237Z</time></trkpt><trkpt lat="44.2417476" lon="11.4633946"><ele>335.0</ele><time>2026-04-04T10:18:21.236Z</time></trkpt><trkpt lat="44.2417906" lon="11.4633026"><ele>336.5</ele><time>2026-04-04T10:18:22.237Z</time></trkpt><trkpt lat="44.241834" lon="11.4632263"><ele>338.0</ele><time>2026-04-04T10:18:23.236Z</time></trkpt><trkpt lat="44.2418767" lon="11.4631603"><ele>338.0</ele><time>2026-04-04T10:18:24.237Z</time></trkpt><trkpt lat="44.2419616" lon="11.4630446"><ele>338.0</ele><time>2026-04-04T10:18:26.236Z</time></trkpt><trkpt lat="44.2420418" lon="11.4629265"><ele>338.0</ele><time>2026-04-04T10:18:28.237Z</time></trkpt><trkpt lat="44.2421182" lon="11.4627913"><ele>338.0</ele><time>2026-04-04T10:18:30.236Z</time></trkpt><trkpt lat="44.2421866" lon="11.4626999"><ele>338.0</ele><time>2026-04-04T10:18:32.236Z</time></trkpt><trkpt lat="44.2422658" lon="11.4626766"><ele>338.0</ele><time>2026-04-04T10:18:34.236Z</time></trkpt><trkpt lat="44.2422058" lon="11.4627168"><ele>338.0</ele><time>2026-04-04T10:21:42.237Z</time></trkpt><trkpt lat="44.242148" lon="11.4627639"><ele>338.0</ele><time>2026-04-04T10:21:44.237Z</time></trkpt><trkpt lat="44.2421037" lon="11.4628319"><ele>338.0</ele><time>2026-04-04T10:21:46.237Z</time></trkpt><trkpt lat="44.2420545" lon="11.4629395"><ele>338.0</ele><time>2026-04-04T10:21:48.236Z</time></trkpt><trkpt lat="44.2419939" lon="11.4630196"><ele>338.0</ele><time>2026-04-04T10:21:50.237Z</time></trkpt><trkpt lat="44.2419501" lon="11.4630868"><ele>338.0</ele><time>2026-04-04T10:21:52.237Z</time></trkpt><trkpt lat="44.24189" lon="11.4631778"><ele>338.0</ele><time>2026-04-04T10:21:54.237Z</time></trkpt><trkpt lat="44.24182" lon="11.4632701"><ele>338.0</ele><time>2026-04-04T10:21:56.237Z</time></trkpt><trkpt lat="44.2417582" lon="11.4633813"><ele>338.0</ele><time>2026-04-04T10:21:58.236Z</time></trkpt><trkpt lat="44.2416846" lon="11.4635324"><ele>338.0</ele><time>2026-04-04T10:22:00.236Z</time></trkpt><trkpt lat="44.2416412" lon="11.4636176"><ele>338.0</ele><time>2026-04-04T10:22:01.237Z</time></trkpt><trkpt lat="44.2416001" lon="11.4636954"><ele>338.0</ele><time>2026-04-04T10:22:02.236Z</time></trkpt><trkpt lat="44.2415258" lon="11.4637995"><ele>338.0</ele><time>2026-04-04T10:22:04.237Z</time></trkpt><trkpt lat="44.2414463" lon="11.46385"><ele>338.0</ele><time>2026-04-04T10:22:07.237Z</time></trkpt><trkpt lat="44.2413791" lon="11.4638678"><ele>338.0</ele><time>2026-04-04T10:22:15.237Z</time></trkpt><trkpt lat="44.241309" lon="11.4638635"><ele>336.2</ele><time>2026-04-04T10:22:17.236Z</time></trkpt><trkpt lat="44.2412202" lon="11.4638448"><ele>334.4</ele><time>2026-04-04T10:22:19.236Z</time></trkpt><trkpt lat="44.241134" lon="11.4639217"><ele>332.59999999999997</ele><time>2026-04-04T10:22:21.236Z</time></trkpt><trkpt lat="44.2410678" lon="11.4640504"><ele>330.79999999999995</ele><time>2026-04-04T10:22:23.236Z</time></trkpt><trkpt lat="44.241014" lon="11.4641558"><ele>329.0</ele><time>2026-04-04T10:22:25.236Z</time></trkpt><trkpt lat="44.2409252" lon="11.4642227"><ele>329.0</ele><time>2026-04-04T10:22:27.237Z</time></trkpt><trkpt lat="44.2408605" lon="11.464189"><ele>329.0</ele><time>2026-04-04T10:22:29.237Z</time></trkpt><trkpt lat="44.2408506" lon="11.4640717"><ele>329.0</ele><time>2026-04-04T10:23:58.236Z</time></trkpt><trkpt lat="44.2408384" lon="11.4639749"><ele>329.0</ele><time>2026-04-04T10:23:59.237Z</time></trkpt><trkpt lat="44.2408221" lon="11.4638404"><ele>329.0</ele><time>2026-04-04T10:24:00.237Z</time></trkpt><trkpt lat="44.2407951" lon="11.4636719"><ele>329.0</ele><time>2026-04-04T10:24:01.237Z</time></trkpt><trkpt lat="44.2407563" lon="11.4635095"><ele>329.79999999999995</ele><time>2026-04-04T10:24:02.237Z</time></trkpt><trkpt lat="44.2407246" lon="11.4633665"><ele>330.59999999999997</ele><time>2026-04-04T10:24:03.237Z</time></trkpt><trkpt lat="44.2407034" lon="11.463237"><ele>331.4</ele><time>2026-04-04T10:24:04.236Z</time></trkpt><trkpt lat="44.2406866" lon="11.4631148"><ele>332.2</ele><time>2026-04-04T10:24:05.237Z</time></trkpt><trkpt lat="44.2406831" lon="11.4629955"><ele>333.0</ele><time>2026-04-04T10:24:06.237Z</time></trkpt><trkpt lat="44.2406729" lon="11.4628739"><ele>333.59999999999997</ele><time>2026-04-04T10:24:07.237Z</time></trkpt><trkpt lat="44.2406698" lon="11.4627391"><ele>334.2</ele><time>2026-04-04T10:24:08.237Z</time></trkpt><trkpt lat="44.2406751" lon="11.4625879"><ele>334.8</ele><time>2026-04-04T10:24:09.237Z</time></trkpt><trkpt lat="44.2406875" lon="11.462432"><ele>335.4</ele><time>2026-04-04T10:24:10.237Z</time></trkpt><trkpt lat="44.2407066" lon="11.4622648"><ele>336.0</ele><time>2026-04-04T10:24:11.237Z</time></trkpt><trkpt lat="44.2407196" lon="11.4620942"><ele>337.0</ele><time>2026-04-04T10:24:12.236Z</time></trkpt><trkpt lat="44.240725" lon="11.4619321"><ele>338.0</ele><time>2026-04-04T10:24:13.237Z</time></trkpt><trkpt lat="44.240741" lon="11.4617846"><ele>339.0</ele><time>2026-04-04T10:24:14.237Z</time></trkpt><trkpt lat="44.2407722" lon="11.4616426"><ele>340.0</ele><time>2026-04-04T10:24:15.237Z</time></trkpt><trkpt lat="44.2408058" lon="11.461506"><ele>341.0</ele><time>2026-04-04T10:24:16.236Z</time></trkpt><trkpt lat="44.2408283" lon="11.4613743"><ele>341.6</ele><time>2026-04-04T10:24:17.237Z</time></trkpt><trkpt lat="44.2408342" lon="11.4612292"><ele>342.20000000000005</ele><time>2026-04-04T10:24:18.236Z</time></trkpt><trkpt lat="44.2408365" lon="11.4610718"><ele>342.79999999999995</ele><time>2026-04-04T10:24:19.237Z</time></trkpt><trkpt lat="44.2408389" lon="11.460916"><ele>343.4</ele><time>2026-04-04T10:24:20.237Z</time></trkpt><trkpt lat="44.2408375" lon="11.4607761"><ele>344.0</ele><time>2026-04-04T10:24:21.237Z</time></trkpt><trkpt lat="44.2408329" lon="11.4606513"><ele>344.0</ele><time>2026-04-04T10:24:22.236Z</time></trkpt><trkpt lat="44.2408307" lon="11.4605386"><ele>344.0</ele><time>2026-04-04T10:24:23.236Z</time></trkpt><trkpt lat="44.2408462" lon="11.4604253"><ele>344.0</ele><time>2026-04-04T10:24:24.237Z</time></trkpt><trkpt lat="44.240875" lon="11.4603096"><ele>344.0</ele><time>2026-04-04T10:24:25.237Z</time></trkpt><trkpt lat="44.2409097" lon="11.4601856"><ele>344.0</ele><time>2026-04-04T10:24:26.237Z</time></trkpt><trkpt lat="44.2409448" lon="11.4600499"><ele>344.5</ele><time>2026-04-04T10:24:27.237Z</time></trkpt><trkpt lat="44.2409886" lon="11.4598914"><ele>345.0</ele><time>2026-04-04T10:24:28.236Z</time></trkpt><trkpt lat="44.2410301" lon="11.4597237"><ele>345.5</ele><time>2026-04-04T10:24:29.236Z</time></trkpt><trkpt lat="44.2410639" lon="11.4595712"><ele>346.0</ele><time>2026-04-04T10:24:30.236Z</time></trkpt><trkpt lat="44.2410977" lon="11.4594314"><ele>347.20000000000005</ele><time>2026-04-04T10:24:31.237Z</time></trkpt><trkpt lat="44.2411233" lon="11.4593114"><ele>348.40000000000003</ele><time>2026-04-04T10:24:32.237Z</time></trkpt><trkpt lat="44.2411568" lon="11.4592035"><ele>349.6</ele><time>2026-04-04T10:24:33.236Z</time></trkpt><trkpt lat="44.2412051" lon="11.4591032"><ele>350.8</ele><time>2026-04-04T10:24:34.236Z</time></trkpt><trkpt lat="44.2412755" lon="11.4590098"><ele>352.0</ele><time>2026-04-04T10:24:35.237Z</time></trkpt><trkpt lat="44.2413622" lon="11.4589221"><ele>352.0</ele><time>2026-04-04T10:24:36.237Z</time></trkpt><trkpt lat="44.2414463" lon="11.458836"><ele>352.0</ele><time>2026-04-04T10:24:37.236Z</time></trkpt><trkpt lat="44.2415163" lon="11.4587608"><ele>352.0</ele><time>2026-04-04T10:24:38.237Z</time></trkpt><trkpt lat="44.2415622" lon="11.4586869"><ele>352.0</ele><time>2026-04-04T10:24:39.236Z</time></trkpt><trkpt lat="44.2415945" lon="11.4586091"><ele>352.0</ele><time>2026-04-04T10:24:40.237Z</time></trkpt><trkpt lat="44.2416103" lon="11.4585187"><ele>352.0</ele><time>2026-04-04T10:24:41.236Z</time></trkpt><trkpt lat="44.241605" lon="11.4584213"><ele>352.66666666666663</ele><time>2026-04-04T10:24:42.237Z</time></trkpt><trkpt lat="44.2415788" lon="11.4583184"><ele>353.3333333333333</ele><time>2026-04-04T10:24:43.237Z</time></trkpt><trkpt lat="44.2415431" lon="11.4582249"><ele>354.0</ele><time>2026-04-04T10:24:44.237Z</time></trkpt><trkpt lat="44.2415059" lon="11.458147"><ele>354.6666666666667</ele><time>2026-04-04T10:24:45.236Z</time></trkpt><trkpt lat="44.2414573" lon="11.4580225"><ele>355.33333333333337</ele><time>2026-04-04T10:24:47.237Z</time></trkpt><trkpt lat="44.2414355" lon="11.457907"><ele>356.0</ele><time>2026-04-04T10:28:46.238Z</time></trkpt><trkpt lat="44.2414389" lon="11.4577957"><ele>356.0</ele><time>2026-04-04T10:28:48.237Z</time></trkpt><trkpt lat="44.2414314" lon="11.4579394"><ele>356.0</ele><time>2026-04-04T10:28:53.238Z</time></trkpt><trkpt lat="44.2414538" lon="11.4580281"><ele>356.0</ele><time>2026-04-04T10:28:54.238Z</time></trkpt><trkpt lat="44.2414797" lon="11.4581283"><ele>356.0</ele><time>2026-04-04T10:28:55.237Z</time></trkpt><trkpt lat="44.24151" lon="11.4582202"><ele>356.0</ele><time>2026-04-04T10:28:56.237Z</time></trkpt><trkpt lat="44.2415391" lon="11.4583008"><ele>356.0</ele><time>2026-04-04T10:28:57.237Z</time></trkpt><trkpt lat="44.2415845" lon="11.4584536"><ele>356.0</ele><time>2026-04-04T10:28:59.237Z</time></trkpt><trkpt lat="44.2415997" lon="11.4586117"><ele>356.0</ele><time>2026-04-04T10:29:01.238Z</time></trkpt><trkpt lat="44.2415353" lon="11.4587669"><ele>356.0</ele><time>2026-04-04T10:29:03.238Z</time></trkpt><trkpt lat="44.2414755" lon="11.4588299"><ele>356.0</ele><time>2026-04-04T10:29:04.237Z</time></trkpt><trkpt lat="44.2413999" lon="11.4588894"><ele>356.0</ele><time>2026-04-04T10:29:05.238Z</time></trkpt><trkpt lat="44.2413282" lon="11.4589529"><ele>355.33333333333337</ele><time>2026-04-04T10:29:06.238Z</time></trkpt><trkpt lat="44.2412634" lon="11.4590167"><ele>354.6666666666667</ele><time>2026-04-04T10:29:07.238Z</time></trkpt><trkpt lat="44.2412146" lon="11.4590844"><ele>354.0</ele><time>2026-04-04T10:29:08.237Z</time></trkpt><trkpt lat="44.2411467" lon="11.4592362"><ele>353.3333333333333</ele><time>2026-04-04T10:29:10.238Z</time></trkpt><trkpt lat="44.2411145" lon="11.4593355"><ele>352.66666666666663</ele><time>2026-04-04T10:29:11.237Z</time></trkpt><trkpt lat="44.2410868" lon="11.4594551"><ele>352.0</ele><time>2026-04-04T10:29:12.237Z</time></trkpt><trkpt lat="44.2410577" lon="11.4595961"><ele>350.5</ele><time>2026-04-04T10:29:13.238Z</time></trkpt><trkpt lat="44.2410242" lon="11.4597605"><ele>349.0</ele><time>2026-04-04T10:29:14.237Z</time></trkpt><trkpt lat="44.2409872" lon="11.459921"><ele>347.5</ele><time>2026-04-04T10:29:15.237Z</time></trkpt><trkpt lat="44.2409405" lon="11.4600679"><ele>346.0</ele><time>2026-04-04T10:29:16.237Z</time></trkpt><trkpt lat="44.2409014" lon="11.4602003"><ele>346.0</ele><time>2026-04-04T10:29:17.237Z</time></trkpt><trkpt lat="44.2408679" lon="11.4603288"><ele>346.0</ele><time>2026-04-04T10:29:18.237Z</time></trkpt><trkpt lat="44.2408357" lon="11.4604645"><ele>346.0</ele><time>2026-04-04T10:29:19.238Z</time></trkpt><trkpt lat="44.2408232" lon="11.4606016"><ele>346.0</ele><time>2026-04-04T10:29:20.237Z</time></trkpt><trkpt lat="44.2408312" lon="11.4607426"><ele>346.0</ele><time>2026-04-04T10:29:21.238Z</time></trkpt><trkpt lat="44.2408445" lon="11.4608988"><ele>345.6</ele><time>2026-04-04T10:29:22.238Z</time></trkpt><trkpt lat="44.24085" lon="11.4610603"><ele>345.20000000000005</ele><time>2026-04-04T10:29:23.238Z</time></trkpt><trkpt lat="44.2408468" lon="11.4612021"><ele>344.79999999999995</ele><time>2026-04-04T10:29:24.237Z</time></trkpt><trkpt lat="44.2408369" lon="11.4613346"><ele>344.4</ele><time>2026-04-04T10:29:25.238Z</time></trkpt><trkpt lat="44.2408182" lon="11.4614597"><ele>344.0</ele><time>2026-04-04T10:29:26.237Z</time></trkpt><trkpt lat="44.240795" lon="11.4615851"><ele>343.4</ele><time>2026-04-04T10:29:27.238Z</time></trkpt><trkpt lat="44.2407634" lon="11.4617184"><ele>342.79999999999995</ele><time>2026-04-04T10:29:28.238Z</time></trkpt><trkpt lat="44.2407405" lon="11.4618582"><ele>342.20000000000005</ele><time>2026-04-04T10:29:29.237Z</time></trkpt><trkpt lat="44.2407313" lon="11.462014"><ele>341.6</ele><time>2026-04-04T10:29:30.238Z</time></trkpt><trkpt lat="44.240727" lon="11.4621829"><ele>341.0</ele><time>2026-04-04T10:29:31.238Z</time></trkpt><trkpt lat="44.2407189" lon="11.4623311"><ele>340.1666666666667</ele><time>2026-04-04T10:29:32.238Z</time></trkpt><trkpt lat="44.2407089" lon="11.462439"><ele>339.33333333333337</ele><time>2026-04-04T10:29:33.237Z</time></trkpt><trkpt lat="44.2406791" lon="11.4625796"><ele>338.5</ele><time>2026-04-04T10:29:35.238Z</time></trkpt><trkpt lat="44.2406638" lon="11.462692"><ele>337.6666666666667</ele><time>2026-04-04T10:29:37.237Z</time></trkpt><trkpt lat="44.2406733" lon="11.46281"><ele>336.8333333333333</ele><time>2026-04-04T10:30:03.238Z</time></trkpt><trkpt lat="44.2406767" lon="11.46291"><ele>336.0</ele><time>2026-04-04T10:30:04.238Z</time></trkpt><trkpt lat="44.2406867" lon="11.4630333"><ele>335.6666666666667</ele><time>2026-04-04T10:30:05.238Z</time></trkpt><trkpt lat="44.2407" lon="11.463155"><ele>335.3333333333333</ele><time>2026-04-04T10:30:06.237Z</time></trkpt><trkpt lat="44.2407117" lon="11.4632517"><ele>335.0</ele><time>2026-04-04T10:30:07.238Z</time></trkpt><trkpt lat="44.2407233" lon="11.46341"><ele>334.66666666666663</ele><time>2026-04-04T10:30:09.238Z</time></trkpt><trkpt lat="44.240705" lon="11.46351"><ele>334.3333333333333</ele><time>2026-04-04T10:30:11.238Z</time></trkpt><trkpt lat="44.2406383" lon="11.4635267"><ele>334.0</ele><time>2026-04-04T10:30:13.238Z</time></trkpt><trkpt lat="44.2405817" lon="11.4634583"><ele>334.0</ele><time>2026-04-04T10:30:16.238Z</time></trkpt><trkpt lat="44.24061" lon="11.4635567"><ele>334.0</ele><time>2026-04-04T10:30:22.237Z</time></trkpt><trkpt lat="44.24068" lon="11.46366"><ele>334.0</ele><time>2026-04-04T10:30:24.237Z</time></trkpt><trkpt lat="44.240715" lon="11.4637683"><ele>334.0</ele><time>2026-04-04T10:30:26.237Z</time></trkpt><trkpt lat="44.240735" lon="11.46396"><ele>334.0</ele><time>2026-04-04T10:30:28.238Z</time></trkpt><trkpt lat="44.2407183" lon="11.4640767"><ele>333.3333333333333</ele><time>2026-04-04T10:30:29.238Z</time></trkpt><trkpt lat="44.2406767" lon="11.4641783"><ele>332.66666666666663</ele><time>2026-04-04T10:30:30.237Z</time></trkpt><trkpt lat="44.2406117" lon="11.4642567"><ele>332.0</ele><time>2026-04-04T10:30:31.238Z</time></trkpt><trkpt lat="44.240535" lon="11.4643133"><ele>331.3333333333333</ele><time>2026-04-04T10:30:32.238Z</time></trkpt><trkpt lat="44.24046" lon="11.4643467"><ele>330.6666666666667</ele><time>2026-04-04T10:30:33.237Z</time></trkpt><trkpt lat="44.2403783" lon="11.4643417"><ele>330.0</ele><time>2026-04-04T10:30:34.237Z</time></trkpt><trkpt lat="44.24031" lon="11.4643283"><ele>330.0</ele><time>2026-04-04T10:30:35.237Z</time></trkpt><trkpt lat="44.2402433" lon="11.4643083"><ele>330.0</ele><time>2026-04-04T10:30:36.238Z</time></trkpt><trkpt lat="44.2401683" lon="11.4643017"><ele>330.0</ele><time>2026-04-04T10:30:37.237Z</time></trkpt><trkpt lat="44.24009" lon="11.46431"><ele>330.0</ele><time>2026-04-04T10:30:38.238Z</time></trkpt><trkpt lat="44.24" lon="11.4643167"><ele>330.0</ele><time>2026-04-04T10:30:39.237Z</time></trkpt><trkpt lat="44.2399083" lon="11.46432"><ele>330.0</ele><time>2026-04-04T10:30:40.238Z</time></trkpt><trkpt lat="44.2398033" lon="11.4643233"><ele>330.0</ele><time>2026-04-04T10:30:41.238Z</time></trkpt><trkpt lat="44.2397" lon="11.4643233"><ele>330.0</ele><time>2026-04-04T10:30:42.237Z</time></trkpt><trkpt lat="44.2395833" lon="11.464325"><ele>330.0</ele><time>2026-04-04T10:30:43.238Z</time></trkpt><trkpt lat="44.2394483" lon="11.4643383"><ele>330.0</ele><time>2026-04-04T10:30:44.238Z</time></trkpt><trkpt lat="44.23931" lon="11.4643467"><ele>330.0</ele><time>2026-04-04T10:30:45.237Z</time></trkpt><trkpt lat="44.2391783" lon="11.4643583"><ele>330.0</ele><time>2026-04-04T10:30:46.238Z</time></trkpt><trkpt lat="44.2390517" lon="11.4643633"><ele>330.0</ele><time>2026-04-04T10:30:47.238Z</time></trkpt><trkpt lat="44.2389333" lon="11.4643867"><ele>330.0</ele><time>2026-04-04T10:30:48.238Z</time></trkpt><trkpt lat="44.2388017" lon="11.4644167"><ele>330.25</ele><time>2026-04-04T10:30:49.238Z</time></trkpt><trkpt lat="44.2386783" lon="11.4644367"><ele>330.5</ele><time>2026-04-04T10:30:50.238Z</time></trkpt><trkpt lat="44.23857" lon="11.4644183"><ele>330.75</ele><time>2026-04-04T10:30:51.238Z</time></trkpt><trkpt lat="44.2384667" lon="11.4643883"><ele>331.0</ele><time>2026-04-04T10:30:52.238Z</time></trkpt><trkpt lat="44.2383583" lon="11.4643317"><ele>331.0</ele><time>2026-04-04T10:30:53.238Z</time></trkpt><trkpt lat="44.2382383" lon="11.4642483"><ele>331.0</ele><time>2026-04-04T10:30:54.238Z</time></trkpt><trkpt lat="44.238105" lon="11.4641567"><ele>331.0</ele><time>2026-04-04T10:30:55.238Z</time></trkpt><trkpt lat="44.2379817" lon="11.4640633"><ele>331.0</ele><time>2026-04-04T10:30:56.238Z</time></trkpt><trkpt lat="44.23787" lon="11.46395"><ele>331.5</ele><time>2026-04-04T10:30:57.237Z</time></trkpt><trkpt lat="44.237755" lon="11.46383"><ele>332.0</ele><time>2026-04-04T10:30:58.238Z</time></trkpt><trkpt lat="44.2376433" lon="11.4637117"><ele>332.5</ele><time>2026-04-04T10:30:59.238Z</time></trkpt><trkpt lat="44.237545" lon="11.4636067"><ele>333.0</ele><time>2026-04-04T10:31:00.238Z</time></trkpt><trkpt lat="44.2374567" lon="11.4635033"><ele>333.2</ele><time>2026-04-04T10:31:01.237Z</time></trkpt><trkpt lat="44.2373783" lon="11.463415"><ele>333.4</ele><time>2026-04-04T10:31:02.238Z</time></trkpt><trkpt lat="44.23731" lon="11.4633333"><ele>333.59999999999997</ele><time>2026-04-04T10:31:03.238Z</time></trkpt><trkpt lat="44.237245" lon="11.4632417"><ele>333.79999999999995</ele><time>2026-04-04T10:31:04.237Z</time></trkpt><trkpt lat="44.23719" lon="11.46314"><ele>334.0</ele><time>2026-04-04T10:31:05.237Z</time></trkpt><trkpt lat="44.23715" lon="11.4630417"><ele>335.0</ele><time>2026-04-04T10:31:06.238Z</time></trkpt><trkpt lat="44.2371217" lon="11.4629383"><ele>336.0</ele><time>2026-04-04T10:31:07.237Z</time></trkpt><trkpt lat="44.2370983" lon="11.462845"><ele>337.0</ele><time>2026-04-04T10:31:08.238Z</time></trkpt><trkpt lat="44.2370667" lon="11.4627633"><ele>338.0</ele><time>2026-04-04T10:31:09.238Z</time></trkpt><trkpt lat="44.2369733" lon="11.4626917"><ele>339.0</ele><time>2026-04-04T10:31:11.237Z</time></trkpt><trkpt lat="44.23686" lon="11.4627783"><ele>339.0</ele><time>2026-04-04T10:31:13.238Z</time></trkpt><trkpt lat="44.23679" lon="11.4628767"><ele>339.0</ele><time>2026-04-04T10:31:14.238Z</time></trkpt><trkpt lat="44.2367167" lon="11.4629883"><ele>339.0</ele><time>2026-04-04T10:31:15.238Z</time></trkpt><trkpt lat="44.236625" lon="11.4630983"><ele>339.0</ele><time>2026-04-04T10:31:16.237Z</time></trkpt><trkpt lat="44.2365167" lon="11.4632083"><ele>340.79999999999995</ele><time>2026-04-04T10:31:17.238Z</time></trkpt><trkpt lat="44.2364083" lon="11.4632783"><ele>342.59999999999997</ele><time>2026-04-04T10:31:18.238Z</time></trkpt><trkpt lat="44.2363067" lon="11.4633017"><ele>344.4</ele><time>2026-04-04T10:31:19.238Z</time></trkpt><trkpt lat="44.23621" lon="11.4632833"><ele>346.2</ele><time>2026-04-04T10:31:20.238Z</time></trkpt><trkpt lat="44.2361233" lon="11.4632383"><ele>348.0</ele><time>2026-04-04T10:31:21.237Z</time></trkpt><trkpt lat="44.236045" lon="11.4631567"><ele>348.0</ele><time>2026-04-04T10:31:22.237Z</time></trkpt><trkpt lat="44.235955" lon="11.4630583"><ele>348.0</ele><time>2026-04-04T10:31:23.238Z</time></trkpt><trkpt lat="44.2358533" lon="11.4629533"><ele>348.0</ele><time>2026-04-04T10:31:24.238Z</time></trkpt><trkpt lat="44.2357467" lon="11.4628267"><ele>348.0</ele><time>2026-04-04T10:31:25.238Z</time></trkpt><trkpt lat="44.23562" lon="11.462695"><ele>349.0</ele><time>2026-04-04T10:31:26.238Z</time></trkpt><trkpt lat="44.235505" lon="11.4625583"><ele>350.0</ele><time>2026-04-04T10:31:27.237Z</time></trkpt><trkpt lat="44.2354" lon="11.4624417"><ele>351.0</ele><time>2026-04-04T10:31:28.238Z</time></trkpt><trkpt lat="44.2353033" lon="11.4623533"><ele>352.0</ele><time>2026-04-04T10:31:29.238Z</time></trkpt><trkpt lat="44.2351983" lon="11.4623133"><ele>352.0</ele><time>2026-04-04T10:31:30.238Z</time></trkpt><trkpt lat="44.235095" lon="11.462305"><ele>352.0</ele><time>2026-04-04T10:31:31.238Z</time></trkpt><trkpt lat="44.2349817" lon="11.46233"><ele>352.0</ele><time>2026-04-04T10:31:32.237Z</time></trkpt><trkpt lat="44.2348767" lon="11.4623917"><ele>352.0</ele><time>2026-04-04T10:31:33.238Z</time></trkpt><trkpt lat="44.234765" lon="11.4624783"><ele>353.75</ele><time>2026-04-04T10:31:34.238Z</time></trkpt><trkpt lat="44.2346667" lon="11.4625917"><ele>355.5</ele><time>2026-04-04T10:31:35.237Z</time></trkpt><trkpt lat="44.2345967" lon="11.4627367"><ele>357.25</ele><time>2026-04-04T10:31:36.237Z</time></trkpt><trkpt lat="44.23456" lon="11.4628867"><ele>359.0</ele><time>2026-04-04T10:31:37.237Z</time></trkpt><trkpt lat="44.234545" lon="11.4630433"><ele>360.75</ele><time>2026-04-04T10:31:38.238Z</time></trkpt><trkpt lat="44.2345483" lon="11.463205"><ele>362.5</ele><time>2026-04-04T10:31:39.238Z</time></trkpt><trkpt lat="44.2345767" lon="11.4633817"><ele>364.25</ele><time>2026-04-04T10:31:40.237Z</time></trkpt><trkpt lat="44.2346233" lon="11.4635467"><ele>366.0</ele><time>2026-04-04T10:31:41.237Z</time></trkpt><trkpt lat="44.234685" lon="11.463705"><ele>366.0</ele><time>2026-04-04T10:31:42.237Z</time></trkpt><trkpt lat="44.2347683" lon="11.463875"><ele>366.0</ele><time>2026-04-04T10:31:43.237Z</time></trkpt><trkpt lat="44.234845" lon="11.46405"><ele>366.0</ele><time>2026-04-04T10:31:44.238Z</time></trkpt><trkpt lat="44.2349233" lon="11.4642417"><ele>370.5</ele><time>2026-04-04T10:31:45.237Z</time></trkpt><trkpt lat="44.2350783" lon="11.4646383"><ele>375.0</ele><time>2026-04-04T10:31:47.237Z</time></trkpt><trkpt lat="44.2351467" lon="11.4648433"><ele>375.0</ele><time>2026-04-04T10:31:48.238Z</time></trkpt><trkpt lat="44.2352283" lon="11.4650483"><ele>375.0</ele><time>2026-04-04T10:31:49.238Z</time></trkpt><trkpt lat="44.2352917" lon="11.46525"><ele>375.0</ele><time>2026-04-04T10:31:50.238Z</time></trkpt><trkpt lat="44.2353383" lon="11.4654383"><ele>378.25</ele><time>2026-04-04T10:31:51.238Z</time></trkpt><trkpt lat="44.2353733" lon="11.4656317"><ele>381.5</ele><time>2026-04-04T10:31:52.238Z</time></trkpt><trkpt lat="44.23541" lon="11.4658367"><ele>384.75</ele><time>2026-04-04T10:31:53.238Z</time></trkpt><trkpt lat="44.2354417" lon="11.4660183"><ele>388.0</ele><time>2026-04-04T10:31:54.238Z</time></trkpt><trkpt lat="44.2354583" lon="11.46615"><ele>388.0</ele><time>2026-04-04T10:31:55.238Z</time></trkpt><trkpt lat="44.2354667" lon="11.4662767"><ele>388.0</ele><time>2026-04-04T10:31:57.238Z</time></trkpt><trkpt lat="44.2354817" lon="11.4663983"><ele>388.0</ele><time>2026-04-04T10:32:42.237Z</time></trkpt><trkpt lat="44.2355" lon="11.46656"><ele>388.0</ele><time>2026-04-04T10:32:44.237Z</time></trkpt><trkpt lat="44.2355367" lon="11.466665"><ele>388.0</ele><time>2026-04-04T10:32:45.238Z</time></trkpt><trkpt lat="44.2355933" lon="11.466775"><ele>386.5</ele><time>2026-04-04T10:32:46.238Z</time></trkpt><trkpt lat="44.235675" lon="11.466865"><ele>385.0</ele><time>2026-04-04T10:32:47.237Z</time></trkpt><trkpt lat="44.2357783" lon="11.4669533"><ele>383.5</ele><time>2026-04-04T10:32:48.237Z</time></trkpt><trkpt lat="44.2358917" lon="11.4670317"><ele>382.0</ele><time>2026-04-04T10:32:49.238Z</time></trkpt><trkpt lat="44.2360083" lon="11.4671033"><ele>385.0</ele><time>2026-04-04T10:32:50.238Z</time></trkpt><trkpt lat="44.2360933" lon="11.4671733"><ele>388.0</ele><time>2026-04-04T10:32:51.238Z</time></trkpt><trkpt lat="44.23616" lon="11.467255"><ele>391.0</ele><time>2026-04-04T10:32:52.237Z</time></trkpt><trkpt lat="44.2362183" lon="11.4673633"><ele>394.0</ele><time>2026-04-04T10:32:53.238Z</time></trkpt><trkpt lat="44.2362767" lon="11.4674917"><ele>397.0</ele><time>2026-04-04T10:32:54.237Z</time></trkpt><trkpt lat="44.23632" lon="11.4676133"><ele>397.00000000000006</ele><time>2026-04-04T10:32:55.237Z</time></trkpt><trkpt lat="44.236355" lon="11.467735"><ele>397.0</ele><time>2026-04-04T10:32:56.238Z</time></trkpt><trkpt lat="44.23638" lon="11.4678483"><ele>397.0</ele><time>2026-04-04T10:32:57.237Z</time></trkpt><trkpt lat="44.2363983" lon="11.4679417"><ele>397.0</ele><time>2026-04-04T10:32:58.238Z</time></trkpt><trkpt lat="44.2364217" lon="11.4680367"><ele>397.00000000000006</ele><time>2026-04-04T10:32:59.238Z</time></trkpt><trkpt lat="44.2364433" lon="11.4681233"><ele>397.0</ele><time>2026-04-04T10:33:00.238Z</time></trkpt><trkpt lat="44.23647" lon="11.46826"><ele>396.83333333333337</ele><time>2026-04-04T10:33:02.238Z</time></trkpt><trkpt lat="44.23648" lon="11.4683533"><ele>396.6666666666667</ele><time>2026-04-04T10:33:04.238Z</time></trkpt><trkpt lat="44.23647" lon="11.4684417"><ele>396.5</ele><time>2026-04-04T10:33:47.237Z</time></trkpt><trkpt lat="44.236485" lon="11.4683383"><ele>396.33333333333337</ele><time>2026-04-04T10:33:52.237Z</time></trkpt><trkpt lat="44.2364417" lon="11.4682017"><ele>396.1666666666667</ele><time>2026-04-04T10:33:54.238Z</time></trkpt><trkpt lat="44.2364167" lon="11.4680983"><ele>396.0</ele><time>2026-04-04T10:33:55.237Z</time></trkpt><trkpt lat="44.2363917" lon="11.4679783"><ele>396.1666666666667</ele><time>2026-04-04T10:33:56.238Z</time></trkpt><trkpt lat="44.2363683" lon="11.4678683"><ele>396.33333333333337</ele><time>2026-04-04T10:33:57.238Z</time></trkpt><trkpt lat="44.2363517" lon="11.4677667"><ele>396.5</ele><time>2026-04-04T10:33:58.237Z</time></trkpt><trkpt lat="44.2363233" lon="11.4676633"><ele>396.6666666666667</ele><time>2026-04-04T10:33:59.238Z</time></trkpt><trkpt lat="44.23628" lon="11.4675517"><ele>396.83333333333337</ele><time>2026-04-04T10:34:00.238Z</time></trkpt><trkpt lat="44.2362317" lon="11.4674683"><ele>397.0</ele><time>2026-04-04T10:34:01.238Z</time></trkpt><trkpt lat="44.2361867" lon="11.46739"><ele>397.00000000000006</ele><time>2026-04-04T10:34:02.237Z</time></trkpt><trkpt lat="44.2361517" lon="11.467315"><ele>397.0</ele><time>2026-04-04T10:34:03.237Z</time></trkpt><trkpt lat="44.2361083" lon="11.46725"><ele>397.0</ele><time>2026-04-04T10:34:04.238Z</time></trkpt><trkpt lat="44.2360617" lon="11.46718"><ele>397.0</ele><time>2026-04-04T10:34:05.238Z</time></trkpt><trkpt lat="44.2359933" lon="11.4671183"><ele>397.00000000000006</ele><time>2026-04-04T10:34:06.237Z</time></trkpt><trkpt lat="44.2359167" lon="11.4670533"><ele>397.0</ele><time>2026-04-04T10:34:07.237Z</time></trkpt><trkpt lat="44.2358267" lon="11.46699"><ele>396.6666666666667</ele><time>2026-04-04T10:34:08.237Z</time></trkpt><trkpt lat="44.235745" lon="11.4669267"><ele>396.33333333333337</ele><time>2026-04-04T10:34:09.237Z</time></trkpt><trkpt lat="44.2356717" lon="11.466875"><ele>396.0</ele><time>2026-04-04T10:34:10.238Z</time></trkpt><trkpt lat="44.2356083" lon="11.4668267"><ele>395.66666666666663</ele><time>2026-04-04T10:34:11.238Z</time></trkpt><trkpt lat="44.235545" lon="11.4667433"><ele>395.3333333333333</ele><time>2026-04-04T10:34:13.238Z</time></trkpt><trkpt lat="44.235505" lon="11.466675"><ele>395.0</ele><time>2026-04-04T10:34:16.237Z</time></trkpt><trkpt lat="44.2354633" lon="11.466595"><ele>395.0</ele><time>2026-04-04T10:34:53.238Z</time></trkpt><trkpt lat="44.2354417" lon="11.4664733"><ele>395.0</ele><time>2026-04-04T10:34:56.238Z</time></trkpt><trkpt lat="44.23543" lon="11.4663567"><ele>395.0</ele><time>2026-04-04T10:34:58.238Z</time></trkpt><trkpt lat="44.23542" lon="11.4662133"><ele>395.0</ele><time>2026-04-04T10:35:00.237Z</time></trkpt><trkpt lat="44.235405" lon="11.4660567"><ele>395.0</ele><time>2026-04-04T10:35:02.238Z</time></trkpt><trkpt lat="44.2353967" lon="11.465935"><ele>394.99999999999994</ele><time>2026-04-04T10:35:04.238Z</time></trkpt><trkpt lat="44.2353883" lon="11.4658467"><ele>395.0</ele><time>2026-04-04T10:35:07.237Z</time></trkpt><trkpt lat="44.2353717" lon="11.4657583"><ele>395.0</ele><time>2026-04-04T10:35:10.237Z</time></trkpt><trkpt lat="44.2354117" lon="11.4658433"><ele>395.0</ele><time>2026-04-04T10:37:06.237Z</time></trkpt><trkpt lat="44.235435" lon="11.4659733"><ele>394.99999999999994</ele><time>2026-04-04T10:37:08.237Z</time></trkpt><trkpt lat="44.2354433" lon="11.4661167"><ele>395.0</ele><time>2026-04-04T10:37:10.238Z</time></trkpt><trkpt lat="44.235455" lon="11.4662933"><ele>395.0</ele><time>2026-04-04T10:37:12.237Z</time></trkpt><trkpt lat="44.235475" lon="11.466465"><ele>395.0</ele><time>2026-04-04T10:37:14.238Z</time></trkpt><trkpt lat="44.2354967" lon="11.466555"><ele>395.0</ele><time>2026-04-04T10:37:15.238Z</time></trkpt><trkpt lat="44.2355383" lon="11.46665"><ele>395.0</ele><time>2026-04-04T10:37:16.237Z</time></trkpt><trkpt lat="44.235595" lon="11.4667417"><ele>395.0</ele><time>2026-04-04T10:37:17.238Z</time></trkpt><trkpt lat="44.2356617" lon="11.4668317"><ele>395.4</ele><time>2026-04-04T10:37:18.238Z</time></trkpt><trkpt lat="44.2357383" lon="11.4669133"><ele>395.8</ele><time>2026-04-04T10:37:19.238Z</time></trkpt><trkpt lat="44.2358383" lon="11.466985"><ele>396.20000000000005</ele><time>2026-04-04T10:37:20.238Z</time></trkpt><trkpt lat="44.2359383" lon="11.467055"><ele>396.6</ele><time>2026-04-04T10:37:21.237Z</time></trkpt><trkpt lat="44.2360333" lon="11.467115"><ele>397.0</ele><time>2026-04-04T10:37:22.238Z</time></trkpt><trkpt lat="44.2361133" lon="11.4671867"><ele>397.0</ele><time>2026-04-04T10:37:23.237Z</time></trkpt><trkpt lat="44.236175" lon="11.467275"><ele>397.0</ele><time>2026-04-04T10:37:24.237Z</time></trkpt><trkpt lat="44.236225" lon="11.4673833"><ele>397.0</ele><time>2026-04-04T10:37:25.237Z</time></trkpt><trkpt lat="44.2362767" lon="11.4675033"><ele>397.0</ele><time>2026-04-04T10:37:26.237Z</time></trkpt><trkpt lat="44.2363217" lon="11.4676433"><ele>397.0</ele><time>2026-04-04T10:37:27.238Z</time></trkpt><trkpt lat="44.236365" lon="11.467785"><ele>397.0</ele><time>2026-04-04T10:37:28.237Z</time></trkpt><trkpt lat="44.2363967" lon="11.467935"><ele>397.0</ele><time>2026-04-04T10:37:29.237Z</time></trkpt><trkpt lat="44.2364267" lon="11.4680767"><ele>397.0</ele><time>2026-04-04T10:37:30.238Z</time></trkpt><trkpt lat="44.236445" lon="11.4682067"><ele>397.0</ele><time>2026-04-04T10:37:31.238Z</time></trkpt><trkpt lat="44.23646" lon="11.468315"><ele>397.0</ele><time>2026-04-04T10:37:32.237Z</time></trkpt><trkpt lat="44.23643" lon="11.468455"><ele>399.6</ele><time>2026-04-04T10:37:34.237Z</time></trkpt><trkpt lat="44.2363183" lon="11.468485"><ele>402.20000000000005</ele><time>2026-04-04T10:37:36.238Z</time></trkpt><trkpt lat="44.2362517" lon="11.4684267"><ele>404.8</ele><time>2026-04-04T10:37:37.238Z</time></trkpt><trkpt lat="44.2361933" lon="11.46833"><ele>407.4</ele><time>2026-04-04T10:37:38.237Z</time></trkpt><trkpt lat="44.2361467" lon="11.4682117"><ele>410.0</ele><time>2026-04-04T10:37:39.238Z</time></trkpt><trkpt lat="44.23609" lon="11.4680917"><ele>410.0</ele><time>2026-04-04T10:37:40.238Z</time></trkpt><trkpt lat="44.2360167" lon="11.4679917"><ele>410.0</ele><time>2026-04-04T10:37:41.237Z</time></trkpt><trkpt lat="44.2359317" lon="11.4679233"><ele>410.0</ele><time>2026-04-04T10:37:42.238Z</time></trkpt><trkpt lat="44.2358417" lon="11.4678933"><ele>410.0</ele><time>2026-04-04T10:37:43.238Z</time></trkpt><trkpt lat="44.235735" lon="11.4678883"><ele>410.0</ele><time>2026-04-04T10:37:44.238Z</time></trkpt><trkpt lat="44.2356217" lon="11.4678917"><ele>408.75</ele><time>2026-04-04T10:37:45.237Z</time></trkpt><trkpt lat="44.2355" lon="11.46791"><ele>407.5</ele><time>2026-04-04T10:37:46.237Z</time></trkpt><trkpt lat="44.2353733" lon="11.467925"><ele>406.25</ele><time>2026-04-04T10:37:47.238Z</time></trkpt><trkpt lat="44.235245" lon="11.467945"><ele>405.0</ele><time>2026-04-04T10:37:48.238Z</time></trkpt><trkpt lat="44.2351167" lon="11.4679583"><ele>407.5</ele><time>2026-04-04T10:37:49.237Z</time></trkpt><trkpt lat="44.2349833" lon="11.467965"><ele>410.0</ele><time>2026-04-04T10:37:50.237Z</time></trkpt><trkpt lat="44.234845" lon="11.4679517"><ele>412.5</ele><time>2026-04-04T10:37:51.237Z</time></trkpt><trkpt lat="44.2347183" lon="11.4679133"><ele>415.0</ele><time>2026-04-04T10:37:52.238Z</time></trkpt><trkpt lat="44.2345917" lon="11.4678533"><ele>415.0</ele><time>2026-04-04T10:37:53.237Z</time></trkpt><trkpt lat="44.23446" lon="11.467805"><ele>415.0</ele><time>2026-04-04T10:37:54.238Z</time></trkpt><trkpt lat="44.234335" lon="11.4678033"><ele>415.0</ele><time>2026-04-04T10:37:55.237Z</time></trkpt><trkpt lat="44.2342133" lon="11.467845"><ele>415.0</ele><time>2026-04-04T10:37:56.237Z</time></trkpt><trkpt lat="44.2341083" lon="11.4679417"><ele>416.75</ele><time>2026-04-04T10:37:57.238Z</time></trkpt><trkpt lat="44.2340167" lon="11.46808"><ele>418.5</ele><time>2026-04-04T10:37:58.237Z</time></trkpt><trkpt lat="44.23392" lon="11.4682283"><ele>420.25</ele><time>2026-04-04T10:37:59.237Z</time></trkpt><trkpt lat="44.2338233" lon="11.4683683"><ele>422.0</ele><time>2026-04-04T10:38:00.237Z</time></trkpt><trkpt lat="44.2337233" lon="11.4684967"><ele>422.0</ele><time>2026-04-04T10:38:01.237Z</time></trkpt><trkpt lat="44.2336283" lon="11.4686283"><ele>422.0</ele><time>2026-04-04T10:38:02.238Z</time></trkpt><trkpt lat="44.2335317" lon="11.46876"><ele>422.0</ele><time>2026-04-04T10:38:03.238Z</time></trkpt><trkpt lat="44.2334383" lon="11.468885"><ele>422.0</ele><time>2026-04-04T10:38:04.238Z</time></trkpt><trkpt lat="44.23335" lon="11.4690017"><ele>423.75</ele><time>2026-04-04T10:38:05.237Z</time></trkpt><trkpt lat="44.2332567" lon="11.4691167"><ele>425.5</ele><time>2026-04-04T10:38:06.238Z</time></trkpt><trkpt lat="44.23315" lon="11.469225"><ele>427.25</ele><time>2026-04-04T10:38:07.237Z</time></trkpt><trkpt lat="44.2330317" lon="11.4693133"><ele>429.0</ele><time>2026-04-04T10:38:08.238Z</time></trkpt><trkpt lat="44.2329017" lon="11.4693783"><ele>429.0</ele><time>2026-04-04T10:38:09.238Z</time></trkpt><trkpt lat="44.2327533" lon="11.4694217"><ele>429.0</ele><time>2026-04-04T10:38:10.238Z</time></trkpt><trkpt lat="44.232595" lon="11.4694733"><ele>429.0</ele><time>2026-04-04T10:38:11.237Z</time></trkpt><trkpt lat="44.232435" lon="11.4695267"><ele>432.0</ele><time>2026-04-04T10:38:12.237Z</time></trkpt><trkpt lat="44.2322933" lon="11.4695783"><ele>435.0</ele><time>2026-04-04T10:38:13.238Z</time></trkpt><trkpt lat="44.23216" lon="11.4696133"><ele>438.0</ele><time>2026-04-04T10:38:14.237Z</time></trkpt><trkpt lat="44.2320317" lon="11.4696067"><ele>441.0</ele><time>2026-04-04T10:38:15.238Z</time></trkpt><trkpt lat="44.2319083" lon="11.4695633"><ele>441.0</ele><time>2026-04-04T10:38:16.237Z</time></trkpt><trkpt lat="44.2317983" lon="11.469475"><ele>441.0</ele><time>2026-04-04T10:38:17.238Z</time></trkpt><trkpt lat="44.2316917" lon="11.46935"><ele>441.0</ele><time>2026-04-04T10:38:18.237Z</time></trkpt><trkpt lat="44.2315817" lon="11.4692167"><ele>441.0</ele><time>2026-04-04T10:38:19.238Z</time></trkpt><trkpt lat="44.231465" lon="11.4690883"><ele>443.75</ele><time>2026-04-04T10:38:20.238Z</time></trkpt><trkpt lat="44.2313417" lon="11.4689933"><ele>446.5</ele><time>2026-04-04T10:38:21.238Z</time></trkpt><trkpt lat="44.2312233" lon="11.4689317"><ele>449.25</ele><time>2026-04-04T10:38:22.238Z</time></trkpt><trkpt lat="44.2311017" lon="11.46891"><ele>452.0</ele><time>2026-04-04T10:38:23.237Z</time></trkpt><trkpt lat="44.2309783" lon="11.4689283"><ele>452.0</ele><time>2026-04-04T10:38:24.238Z</time></trkpt><trkpt lat="44.2308583" lon="11.4689717"><ele>452.0</ele><time>2026-04-04T10:38:25.238Z</time></trkpt><trkpt lat="44.2307367" lon="11.4690417"><ele>452.0</ele><time>2026-04-04T10:38:26.237Z</time></trkpt><trkpt lat="44.2306117" lon="11.4691283"><ele>452.0</ele><time>2026-04-04T10:38:27.238Z</time></trkpt><trkpt lat="44.2304833" lon="11.46921"><ele>452.20000000000005</ele><time>2026-04-04T10:38:28.238Z</time></trkpt><trkpt lat="44.23036" lon="11.4692867"><ele>452.40000000000003</ele><time>2026-04-04T10:38:29.238Z</time></trkpt><trkpt lat="44.23026" lon="11.4693667"><ele>452.59999999999997</ele><time>2026-04-04T10:38:30.237Z</time></trkpt><trkpt lat="44.2301667" lon="11.4694283"><ele>452.79999999999995</ele><time>2026-04-04T10:38:31.238Z</time></trkpt><trkpt lat="44.2300817" lon="11.4694883"><ele>453.0</ele><time>2026-04-04T10:38:32.237Z</time></trkpt><trkpt lat="44.23001" lon="11.4695433"><ele>453.0</ele><time>2026-04-04T10:38:33.237Z</time></trkpt><trkpt lat="44.2299217" lon="11.469605"><ele>452.99999999999994</ele><time>2026-04-04T10:38:35.237Z</time></trkpt><trkpt lat="44.2298433" lon="11.4695733"><ele>452.99999999999994</ele><time>2026-04-04T10:38:37.238Z</time></trkpt><trkpt lat="44.2297783" lon="11.4695167"><ele>453.0</ele><time>2026-04-04T10:38:38.237Z</time></trkpt><trkpt lat="44.229695" lon="11.4694483"><ele>453.0</ele><time>2026-04-04T10:38:39.237Z</time></trkpt><trkpt lat="44.2295983" lon="11.46938"><ele>454.25</ele><time>2026-04-04T10:38:40.238Z</time></trkpt><trkpt lat="44.2294833" lon="11.46932"><ele>455.5</ele><time>2026-04-04T10:38:41.238Z</time></trkpt><trkpt lat="44.2293633" lon="11.4692617"><ele>456.75</ele><time>2026-04-04T10:38:42.237Z</time></trkpt><trkpt lat="44.22925" lon="11.4692217"><ele>458.0</ele><time>2026-04-04T10:38:43.237Z</time></trkpt><trkpt lat="44.2291183" lon="11.4692"><ele>458.0</ele><time>2026-04-04T10:38:44.238Z</time></trkpt><trkpt lat="44.2289967" lon="11.4691617"><ele>458.0</ele><time>2026-04-04T10:38:45.238Z</time></trkpt><trkpt lat="44.2288817" lon="11.4691367"><ele>458.0</ele><time>2026-04-04T10:38:46.238Z</time></trkpt><trkpt lat="44.2287633" lon="11.46913"><ele>458.0</ele><time>2026-04-04T10:38:47.238Z</time></trkpt><trkpt lat="44.228645" lon="11.46915"><ele>459.75</ele><time>2026-04-04T10:38:48.237Z</time></trkpt><trkpt lat="44.2285267" lon="11.469195"><ele>461.5</ele><time>2026-04-04T10:38:49.238Z</time></trkpt><trkpt lat="44.2284233" lon="11.46926"><ele>463.25</ele><time>2026-04-04T10:38:50.238Z</time></trkpt><trkpt lat="44.2283183" lon="11.4693217"><ele>465.0</ele><time>2026-04-04T10:38:51.237Z</time></trkpt><trkpt lat="44.2282017" lon="11.4693567"><ele>465.0</ele><time>2026-04-04T10:38:52.238Z</time></trkpt><trkpt lat="44.2280933" lon="11.469355"><ele>465.0</ele><time>2026-04-04T10:38:53.237Z</time></trkpt><trkpt lat="44.22798" lon="11.4693317"><ele>465.0</ele><time>2026-04-04T10:38:54.238Z</time></trkpt><trkpt lat="44.2278667" lon="11.4692883"><ele>465.0</ele><time>2026-04-04T10:38:55.238Z</time></trkpt><trkpt lat="44.2277533" lon="11.4692383"><ele>465.0</ele><time>2026-04-04T10:38:56.237Z</time></trkpt><trkpt lat="44.2276417" lon="11.46919"><ele>465.0</ele><time>2026-04-04T10:38:57.237Z</time></trkpt><trkpt lat="44.2273933" lon="11.46908"><ele>465.0</ele><time>2026-04-04T10:38:59.238Z</time></trkpt><trkpt lat="44.2272817" lon="11.4689967"><ele>464.25</ele><time>2026-04-04T10:39:00.238Z</time></trkpt><trkpt lat="44.227175" lon="11.4689033"><ele>463.5</ele><time>2026-04-04T10:39:01.237Z</time></trkpt><trkpt lat="44.22707" lon="11.4688"><ele>462.75</ele><time>2026-04-04T10:39:02.237Z</time></trkpt><trkpt lat="44.2269733" lon="11.4686883"><ele>462.0</ele><time>2026-04-04T10:39:03.238Z</time></trkpt><trkpt lat="44.2268767" lon="11.4685567"><ele>465.0</ele><time>2026-04-04T10:39:04.238Z</time></trkpt><trkpt lat="44.2267767" lon="11.468415"><ele>468.0</ele><time>2026-04-04T10:39:05.237Z</time></trkpt><trkpt lat="44.2266833" lon="11.468265"><ele>471.0</ele><time>2026-04-04T10:39:06.237Z</time></trkpt><trkpt lat="44.2265867" lon="11.4681167"><ele>474.0</ele><time>2026-04-04T10:39:07.238Z</time></trkpt><trkpt lat="44.2264883" lon="11.4679583"><ele>474.33333333333337</ele><time>2026-04-04T10:39:08.238Z</time></trkpt><trkpt lat="44.2263767" lon="11.467805"><ele>474.6666666666667</ele><time>2026-04-04T10:39:09.237Z</time></trkpt><trkpt lat="44.226265" lon="11.46764"><ele>475.0</ele><time>2026-04-04T10:39:10.238Z</time></trkpt><trkpt lat="44.226145" lon="11.46747"><ele>475.0</ele><time>2026-04-04T10:39:11.238Z</time></trkpt><trkpt lat="44.22602" lon="11.4673"><ele>475.0</ele><time>2026-04-04T10:39:12.238Z</time></trkpt><trkpt lat="44.2258917" lon="11.4671333"><ele>475.0</ele><time>2026-04-04T10:39:13.238Z</time></trkpt><trkpt lat="44.2257583" lon="11.4669683"><ele>478.0</ele><time>2026-04-04T10:39:14.237Z</time></trkpt><trkpt lat="44.2256183" lon="11.4668267"><ele>481.0</ele><time>2026-04-04T10:39:15.238Z</time></trkpt><trkpt lat="44.2254617" lon="11.4667167"><ele>484.0</ele><time>2026-04-04T10:39:16.238Z</time></trkpt><trkpt lat="44.225295" lon="11.466625"><ele>484.0</ele><time>2026-04-04T10:39:17.238Z</time></trkpt><trkpt lat="44.2251233" lon="11.466545"><ele>484.0</ele><time>2026-04-04T10:39:18.238Z</time></trkpt><trkpt lat="44.2249433" lon="11.4664883"><ele>484.0</ele><time>2026-04-04T10:39:19.237Z</time></trkpt><trkpt lat="44.224775" lon="11.466445"><ele>484.6666666666667</ele><time>2026-04-04T10:39:20.238Z</time></trkpt><trkpt lat="44.2246117" lon="11.4664083"><ele>485.33333333333337</ele><time>2026-04-04T10:39:21.238Z</time></trkpt><trkpt lat="44.2244633" lon="11.4663483"><ele>486.0</ele><time>2026-04-04T10:39:22.238Z</time></trkpt><trkpt lat="44.2243217" lon="11.4662583"><ele>488.66666666666663</ele><time>2026-04-04T10:39:23.238Z</time></trkpt><trkpt lat="44.224195" lon="11.4661333"><ele>491.3333333333333</ele><time>2026-04-04T10:39:24.238Z</time></trkpt><trkpt lat="44.224065" lon="11.4659917"><ele>494.0</ele><time>2026-04-04T10:39:25.237Z</time></trkpt><trkpt lat="44.2239333" lon="11.4658433"><ele>495.3333333333333</ele><time>2026-04-04T10:39:26.238Z</time></trkpt><trkpt lat="44.2237933" lon="11.4656917"><ele>496.66666666666663</ele><time>2026-04-04T10:39:27.237Z</time></trkpt><trkpt lat="44.2236433" lon="11.46555"><ele>498.0</ele><time>2026-04-04T10:39:28.237Z</time></trkpt><trkpt lat="44.2234783" lon="11.46541"><ele>498.0</ele><time>2026-04-04T10:39:29.238Z</time></trkpt><trkpt lat="44.2233083" lon="11.46528"><ele>498.0</ele><time>2026-04-04T10:39:30.238Z</time></trkpt><trkpt lat="44.223135" lon="11.46515"><ele>498.0</ele><time>2026-04-04T10:39:31.237Z</time></trkpt><trkpt lat="44.2229733" lon="11.4650017"><ele>500.0</ele><time>2026-04-04T10:39:32.237Z</time></trkpt><trkpt lat="44.2228317" lon="11.4648367"><ele>502.0</ele><time>2026-04-04T10:39:33.238Z</time></trkpt><trkpt lat="44.2226917" lon="11.4646633"><ele>504.0</ele><time>2026-04-04T10:39:34.237Z</time></trkpt><trkpt lat="44.2225517" lon="11.4644817"><ele>504.0</ele><time>2026-04-04T10:39:35.238Z</time></trkpt><trkpt lat="44.2224267" lon="11.4642917"><ele>504.0</ele><time>2026-04-04T10:39:36.238Z</time></trkpt><trkpt lat="44.2223217" lon="11.4641183"><ele>504.0</ele><time>2026-04-04T10:39:37.238Z</time></trkpt><trkpt lat="44.2222333" lon="11.4639667"><ele>508.4</ele><time>2026-04-04T10:39:38.237Z</time></trkpt><trkpt lat="44.2221683" lon="11.46384"><ele>512.8</ele><time>2026-04-04T10:39:39.238Z</time></trkpt><trkpt lat="44.2221283" lon="11.463705"><ele>517.2</ele><time>2026-04-04T10:39:40.238Z</time></trkpt><trkpt lat="44.2220983" lon="11.4635683"><ele>521.6</ele><time>2026-04-04T10:39:41.237Z</time></trkpt><trkpt lat="44.2220833" lon="11.4634317"><ele>526.0</ele><time>2026-04-04T10:39:42.238Z</time></trkpt><trkpt lat="44.2220817" lon="11.463285"><ele>526.0</ele><time>2026-04-04T10:39:43.238Z</time></trkpt><trkpt lat="44.2220967" lon="11.4631517"><ele>526.0</ele><time>2026-04-04T10:39:44.238Z</time></trkpt><trkpt lat="44.2221267" lon="11.4630133"><ele>526.0</ele><time>2026-04-04T10:39:45.237Z</time></trkpt><trkpt lat="44.222195" lon="11.4628917"><ele>526.0</ele><time>2026-04-04T10:39:46.238Z</time></trkpt><trkpt lat="44.2222883" lon="11.4627867"><ele>526.0</ele><time>2026-04-04T10:39:47.237Z</time></trkpt><trkpt lat="44.222405" lon="11.4626933"><ele>523.3333333333334</ele><time>2026-04-04T10:39:48.238Z</time></trkpt><trkpt lat="44.222545" lon="11.4626017"><ele>520.6666666666666</ele><time>2026-04-04T10:39:49.238Z</time></trkpt><trkpt lat="44.2227017" lon="11.4625033"><ele>518.0</ele><time>2026-04-04T10:39:50.238Z</time></trkpt><trkpt lat="44.2228433" lon="11.46239"><ele>524.3333333333333</ele><time>2026-04-04T10:39:51.238Z</time></trkpt><trkpt lat="44.2230083" lon="11.4620683"><ele>530.6666666666666</ele><time>2026-04-04T10:39:53.238Z</time></trkpt><trkpt lat="44.2230467" lon="11.46187"><ele>537.0</ele><time>2026-04-04T10:39:54.238Z</time></trkpt><trkpt lat="44.2230583" lon="11.46167"><ele>537.0</ele><time>2026-04-04T10:39:55.237Z</time></trkpt><trkpt lat="44.223045" lon="11.4614533"><ele>537.0</ele><time>2026-04-04T10:39:56.238Z</time></trkpt><trkpt lat="44.2230283" lon="11.46123"><ele>537.0</ele><time>2026-04-04T10:39:57.238Z</time></trkpt><trkpt lat="44.2230417" lon="11.4610167"><ele>536.75</ele><time>2026-04-04T10:39:58.238Z</time></trkpt><trkpt lat="44.2230367" lon="11.46081"><ele>536.5</ele><time>2026-04-04T10:39:59.238Z</time></trkpt><trkpt lat="44.223025" lon="11.4606233"><ele>536.25</ele><time>2026-04-04T10:40:00.238Z</time></trkpt><trkpt lat="44.223015" lon="11.46044"><ele>536.0</ele><time>2026-04-04T10:40:01.237Z</time></trkpt><trkpt lat="44.2230333" lon="11.4602733"><ele>536.8333333333333</ele><time>2026-04-04T10:40:02.238Z</time></trkpt><trkpt lat="44.2230683" lon="11.4601317"><ele>537.6666666666666</ele><time>2026-04-04T10:40:03.237Z</time></trkpt><trkpt lat="44.2231133" lon="11.4600233"><ele>538.5</ele><time>2026-04-04T10:40:04.238Z</time></trkpt><trkpt lat="44.2231533" lon="11.4599467"><ele>539.3333333333334</ele><time>2026-04-04T10:40:05.237Z</time></trkpt><trkpt lat="44.2232117" lon="11.4598783"><ele>540.1666666666667</ele><time>2026-04-04T10:40:07.238Z</time></trkpt><trkpt lat="44.2232717" lon="11.459785"><ele>541.0</ele><time>2026-04-04T10:41:22.238Z</time></trkpt><trkpt lat="44.223345" lon="11.4597167"><ele>539.75</ele><time>2026-04-04T10:41:23.237Z</time></trkpt><trkpt lat="44.2234333" lon="11.4596533"><ele>538.5</ele><time>2026-04-04T10:41:24.237Z</time></trkpt><trkpt lat="44.2235467" lon="11.459585"><ele>537.25</ele><time>2026-04-04T10:41:25.237Z</time></trkpt><trkpt lat="44.2236683" lon="11.4595183"><ele>536.0</ele><time>2026-04-04T10:41:26.238Z</time></trkpt><trkpt lat="44.2237983" lon="11.4594517"><ele>536.0</ele><time>2026-04-04T10:41:27.237Z</time></trkpt><trkpt lat="44.223935" lon="11.45937"><ele>536.0</ele><time>2026-04-04T10:41:28.238Z</time></trkpt><trkpt lat="44.22408" lon="11.4592683"><ele>536.0</ele><time>2026-04-04T10:41:29.238Z</time></trkpt><trkpt lat="44.22421" lon="11.4591667"><ele>529.5</ele><time>2026-04-04T10:41:30.238Z</time></trkpt><trkpt lat="44.22435" lon="11.459075"><ele>523.0</ele><time>2026-04-04T10:41:31.237Z</time></trkpt><trkpt lat="44.2244817" lon="11.459"><ele>516.5</ele><time>2026-04-04T10:41:32.238Z</time></trkpt><trkpt lat="44.2246117" lon="11.4589283"><ele>510.0</ele><time>2026-04-04T10:41:33.238Z</time></trkpt><trkpt lat="44.22474" lon="11.4588833"><ele>504.25</ele><time>2026-04-04T10:41:34.237Z</time></trkpt><trkpt lat="44.2248717" lon="11.4588367"><ele>498.5</ele><time>2026-04-04T10:41:35.238Z</time></trkpt><trkpt lat="44.2250117" lon="11.4588133"><ele>492.75</ele><time>2026-04-04T10:41:36.237Z</time></trkpt><trkpt lat="44.22516" lon="11.4587983"><ele>487.0</ele><time>2026-04-04T10:41:37.238Z</time></trkpt><trkpt lat="44.2252867" lon="11.458785"><ele>488.25</ele><time>2026-04-04T10:41:38.237Z</time></trkpt><trkpt lat="44.2253983" lon="11.45875"><ele>489.5</ele><time>2026-04-04T10:41:39.237Z</time></trkpt><trkpt lat="44.225495" lon="11.458685"><ele>490.75</ele><time>2026-04-04T10:41:40.237Z</time></trkpt><trkpt lat="44.2256717" lon="11.4585867"><ele>492.0</ele><time>2026-04-04T10:41:42.237Z</time></trkpt><trkpt lat="44.2257467" lon="11.4585117"><ele>492.0</ele><time>2026-04-04T10:41:43.238Z</time></trkpt><trkpt lat="44.2257983" lon="11.4584067"><ele>492.00000000000006</ele><time>2026-04-04T10:41:44.238Z</time></trkpt><trkpt lat="44.22582" lon="11.4582817"><ele>492.00000000000006</ele><time>2026-04-04T10:41:45.238Z</time></trkpt><trkpt lat="44.225805" lon="11.4581417"><ele>492.0</ele><time>2026-04-04T10:41:46.238Z</time></trkpt><trkpt lat="44.225755" lon="11.45798"><ele>492.0</ele><time>2026-04-04T10:41:47.238Z</time></trkpt><trkpt lat="44.22569" lon="11.4578467"><ele>494.0</ele><time>2026-04-04T10:41:48.238Z</time></trkpt><trkpt lat="44.2256333" lon="11.4577417"><ele>496.00000000000006</ele><time>2026-04-04T10:41:49.238Z</time></trkpt><trkpt lat="44.2255433" lon="11.4575683"><ele>498.00000000000006</ele><time>2026-04-04T10:41:51.237Z</time></trkpt><trkpt lat="44.22547" lon="11.4574917"><ele>500.0</ele><time>2026-04-04T10:41:53.238Z</time></trkpt><trkpt lat="44.2253933" lon="11.4574883"><ele>502.0</ele><time>2026-04-04T10:41:56.237Z</time></trkpt><trkpt lat="44.2252667" lon="11.45739"><ele>502.0</ele><time>2026-04-04T10:42:53.238Z</time></trkpt><trkpt lat="44.22516" lon="11.457205"><ele>502.0</ele><time>2026-04-04T10:42:55.237Z</time></trkpt><trkpt lat="44.2250033" lon="11.45704"><ele>502.0</ele><time>2026-04-04T10:42:57.238Z</time></trkpt><trkpt lat="44.22479" lon="11.4569033"><ele>505.0</ele><time>2026-04-04T10:42:59.239Z</time></trkpt><trkpt lat="44.224545" lon="11.45675"><ele>508.0</ele><time>2026-04-04T10:43:01.238Z</time></trkpt><trkpt lat="44.22429" lon="11.45659"><ele>508.0</ele><time>2026-04-04T10:43:03.238Z</time></trkpt><trkpt lat="44.2241717" lon="11.4565017"><ele>508.0</ele><time>2026-04-04T10:43:04.239Z</time></trkpt><trkpt lat="44.22406" lon="11.4564483"><ele>508.0</ele><time>2026-04-04T10:43:05.239Z</time></trkpt><trkpt lat="44.223955" lon="11.4564183"><ele>508.0</ele><time>2026-04-04T10:43:06.239Z</time></trkpt><trkpt lat="44.2238467" lon="11.4564217"><ele>510.75</ele><time>2026-04-04T10:43:07.239Z</time></trkpt><trkpt lat="44.2237283" lon="11.45645"><ele>513.5</ele><time>2026-04-04T10:43:08.238Z</time></trkpt><trkpt lat="44.2236" lon="11.45649"><ele>516.25</ele><time>2026-04-04T10:43:09.238Z</time></trkpt><trkpt lat="44.2234683" lon="11.4565133"><ele>519.0</ele><time>2026-04-04T10:43:10.238Z</time></trkpt><trkpt lat="44.2233433" lon="11.4565067"><ele>519.0</ele><time>2026-04-04T10:43:11.238Z</time></trkpt><trkpt lat="44.22324" lon="11.456465"><ele>519.0</ele><time>2026-04-04T10:43:12.238Z</time></trkpt><trkpt lat="44.223085" lon="11.4563117"><ele>519.0</ele><time>2026-04-04T10:43:14.239Z</time></trkpt><trkpt lat="44.2229333" lon="11.4561233"><ele>522.5</ele><time>2026-04-04T10:43:16.239Z</time></trkpt><trkpt lat="44.2227433" lon="11.45596"><ele>526.0</ele><time>2026-04-04T10:43:18.239Z</time></trkpt><trkpt lat="44.2225267" lon="11.455795"><ele>527.0</ele><time>2026-04-04T10:43:20.239Z</time></trkpt><trkpt lat="44.2222883" lon="11.4556167"><ele>528.0</ele><time>2026-04-04T10:43:22.239Z</time></trkpt><trkpt lat="44.22203" lon="11.4554283"><ele>528.0</ele><time>2026-04-04T10:43:24.239Z</time></trkpt><trkpt lat="44.2218917" lon="11.4553333"><ele>528.0</ele><time>2026-04-04T10:43:25.239Z</time></trkpt><trkpt lat="44.2217467" lon="11.4552283"><ele>528.0</ele><time>2026-04-04T10:43:26.239Z</time></trkpt><trkpt lat="44.2215983" lon="11.455125"><ele>534.3333333333334</ele><time>2026-04-04T10:43:27.239Z</time></trkpt><trkpt lat="44.2214367" lon="11.4550233"><ele>540.6666666666667</ele><time>2026-04-04T10:43:28.239Z</time></trkpt><trkpt lat="44.2212683" lon="11.45491"><ele>547.0</ele><time>2026-04-04T10:43:29.239Z</time></trkpt><trkpt lat="44.2210983" lon="11.4547883"><ele>547.0</ele><time>2026-04-04T10:43:30.239Z</time></trkpt><trkpt lat="44.220925" lon="11.4546617"><ele>547.0</ele><time>2026-04-04T10:43:31.239Z</time></trkpt><trkpt lat="44.2205967" lon="11.45442"><ele>550.5</ele><time>2026-04-04T10:43:33.238Z</time></trkpt><trkpt lat="44.2203133" lon="11.4542083"><ele>554.0</ele><time>2026-04-04T10:43:35.239Z</time></trkpt><trkpt lat="44.2201917" lon="11.4540983"><ele>554.0</ele><time>2026-04-04T10:43:36.239Z</time></trkpt><trkpt lat="44.2200783" lon="11.4539783"><ele>554.0</ele><time>2026-04-04T10:43:37.239Z</time></trkpt><trkpt lat="44.219975" lon="11.4538433"><ele>554.0</ele><time>2026-04-04T10:43:38.238Z</time></trkpt><trkpt lat="44.2198733" lon="11.453705"><ele>554.0</ele><time>2026-04-04T10:43:39.239Z</time></trkpt><trkpt lat="44.2197517" lon="11.4535917"><ele>554.3333333333333</ele><time>2026-04-04T10:43:40.239Z</time></trkpt><trkpt lat="44.21963" lon="11.4535083"><ele>554.6666666666666</ele><time>2026-04-04T10:43:41.238Z</time></trkpt><trkpt lat="44.2194967" lon="11.4534467"><ele>555.0</ele><time>2026-04-04T10:43:42.238Z</time></trkpt><trkpt lat="44.2192133" lon="11.4533617"><ele>555.0</ele><time>2026-04-04T10:43:44.238Z</time></trkpt><trkpt lat="44.2190667" lon="11.4533233"><ele>555.0</ele><time>2026-04-04T10:43:45.239Z</time></trkpt><trkpt lat="44.2189217" lon="11.4532917"><ele>555.0</ele><time>2026-04-04T10:43:46.238Z</time></trkpt><trkpt lat="44.2187783" lon="11.453255"><ele>555.0</ele><time>2026-04-04T10:43:47.238Z</time></trkpt><trkpt lat="44.2186317" lon="11.45321"><ele>558.5</ele><time>2026-04-04T10:43:48.238Z</time></trkpt><trkpt lat="44.2184833" lon="11.4531533"><ele>562.0</ele><time>2026-04-04T10:43:49.239Z</time></trkpt><trkpt lat="44.218355" lon="11.45308"><ele>565.5</ele><time>2026-04-04T10:43:50.239Z</time></trkpt><trkpt lat="44.2182367" lon="11.452975"><ele>569.0</ele><time>2026-04-04T10:43:51.238Z</time></trkpt><trkpt lat="44.2180133" lon="11.452695"><ele>572.6666666666666</ele><time>2026-04-04T10:43:53.239Z</time></trkpt><trkpt lat="44.2179033" lon="11.4525433"><ele>576.3333333333334</ele><time>2026-04-04T10:43:54.239Z</time></trkpt><trkpt lat="44.2177967" lon="11.4523917"><ele>580.0</ele><time>2026-04-04T10:43:55.239Z</time></trkpt><trkpt lat="44.2176933" lon="11.4522383"><ele>576.25</ele><time>2026-04-04T10:43:56.239Z</time></trkpt><trkpt lat="44.2176033" lon="11.4521067"><ele>572.5</ele><time>2026-04-04T10:43:57.238Z</time></trkpt><trkpt lat="44.21752" lon="11.452"><ele>568.75</ele><time>2026-04-04T10:43:58.239Z</time></trkpt><trkpt lat="44.2174417" lon="11.4519267"><ele>565.0</ele><time>2026-04-04T10:43:59.239Z</time></trkpt><trkpt lat="44.2173217" lon="11.4520417"><ele>568.0</ele><time>2026-04-04T10:44:02.239Z</time></trkpt><trkpt lat="44.2173383" lon="11.45214"><ele>571.0</ele><time>2026-04-04T10:44:03.238Z</time></trkpt><trkpt lat="44.2173783" lon="11.4522383"><ele>574.0</ele><time>2026-04-04T10:44:04.238Z</time></trkpt><trkpt lat="44.217435" lon="11.45235"><ele>577.0</ele><time>2026-04-04T10:44:05.239Z</time></trkpt><trkpt lat="44.2174867" lon="11.452465"><ele>580.0</ele><time>2026-04-04T10:44:06.239Z</time></trkpt><trkpt lat="44.2175233" lon="11.4526033"><ele>580.0</ele><time>2026-04-04T10:44:07.239Z</time></trkpt><trkpt lat="44.2175567" lon="11.4527567"><ele>580.0</ele><time>2026-04-04T10:44:08.238Z</time></trkpt><trkpt lat="44.2175917" lon="11.45293"><ele>580.0</ele><time>2026-04-04T10:44:09.239Z</time></trkpt><trkpt lat="44.2176717" lon="11.4533"><ele>583.6666666666667</ele><time>2026-04-04T10:44:11.239Z</time></trkpt><trkpt lat="44.2177733" lon="11.4536717"><ele>587.3333333333334</ele><time>2026-04-04T10:44:13.239Z</time></trkpt><trkpt lat="44.2178517" lon="11.4538517"><ele>591.0</ele><time>2026-04-04T10:44:14.238Z</time></trkpt><trkpt lat="44.2179467" lon="11.45404"><ele>589.3333333333334</ele><time>2026-04-04T10:44:15.238Z</time></trkpt><trkpt lat="44.2180433" lon="11.4542333"><ele>587.6666666666667</ele><time>2026-04-04T10:44:16.239Z</time></trkpt><trkpt lat="44.2181417" lon="11.45443"><ele>586.0</ele><time>2026-04-04T10:44:17.239Z</time></trkpt><trkpt lat="44.2182267" lon="11.4546033"><ele>589.0</ele><time>2026-04-04T10:44:18.238Z</time></trkpt><trkpt lat="44.2182983" lon="11.4547583"><ele>592.0</ele><time>2026-04-04T10:44:19.238Z</time></trkpt><trkpt lat="44.2183567" lon="11.4549267"><ele>595.0</ele><time>2026-04-04T10:44:20.239Z</time></trkpt><trkpt lat="44.218415" lon="11.4553417"><ele>599.0</ele><time>2026-04-04T10:44:22.238Z</time></trkpt><trkpt lat="44.2184983" lon="11.4558033"><ele>603.0</ele><time>2026-04-04T10:44:24.238Z</time></trkpt><trkpt lat="44.2185633" lon="11.4560267"><ele>603.0</ele><time>2026-04-04T10:44:25.239Z</time></trkpt><trkpt lat="44.21864" lon="11.456235"><ele>603.0</ele><time>2026-04-04T10:44:26.239Z</time></trkpt><trkpt lat="44.2187383" lon="11.4564217"><ele>603.0</ele><time>2026-04-04T10:44:27.239Z</time></trkpt><trkpt lat="44.2188467" lon="11.4565817"><ele>603.6666666666666</ele><time>2026-04-04T10:44:28.238Z</time></trkpt><trkpt lat="44.2189733" lon="11.4567367"><ele>604.3333333333333</ele><time>2026-04-04T10:44:29.239Z</time></trkpt><trkpt lat="44.21911" lon="11.4568767"><ele>605.0</ele><time>2026-04-04T10:44:30.239Z</time></trkpt><trkpt lat="44.21923" lon="11.4570183"><ele>609.0</ele><time>2026-04-04T10:44:31.239Z</time></trkpt><trkpt lat="44.2194017" lon="11.4573333"><ele>613.0</ele><time>2026-04-04T10:44:33.238Z</time></trkpt><trkpt lat="44.2194717" lon="11.45752"><ele>617.0</ele><time>2026-04-04T10:44:34.238Z</time></trkpt><trkpt lat="44.219545" lon="11.457715"><ele>617.0</ele><time>2026-04-04T10:44:35.238Z</time></trkpt><trkpt lat="44.21961" lon="11.457925"><ele>617.0</ele><time>2026-04-04T10:44:36.239Z</time></trkpt><trkpt lat="44.2196833" lon="11.4581267"><ele>617.0</ele><time>2026-04-04T10:44:37.238Z</time></trkpt><trkpt lat="44.2197583" lon="11.4583233"><ele>616.6666666666666</ele><time>2026-04-04T10:44:38.238Z</time></trkpt><trkpt lat="44.2198333" lon="11.4585067"><ele>616.3333333333334</ele><time>2026-04-04T10:44:39.239Z</time></trkpt><trkpt lat="44.2199067" lon="11.4586933"><ele>616.0</ele><time>2026-04-04T10:44:40.239Z</time></trkpt><trkpt lat="44.2199767" lon="11.4588817"><ele>618.75</ele><time>2026-04-04T10:44:41.239Z</time></trkpt><trkpt lat="44.2200467" lon="11.4590833"><ele>621.5</ele><time>2026-04-04T10:44:42.239Z</time></trkpt><trkpt lat="44.2201117" lon="11.4592633"><ele>624.25</ele><time>2026-04-04T10:44:43.238Z</time></trkpt><trkpt lat="44.2201483" lon="11.4593883"><ele>627.0</ele><time>2026-04-04T10:44:44.239Z</time></trkpt><trkpt lat="44.22011" lon="11.459525"><ele>627.0</ele><time>2026-04-04T10:44:46.238Z</time></trkpt><trkpt lat="44.2199867" lon="11.4594617"><ele>627.0</ele><time>2026-04-04T10:44:48.239Z</time></trkpt><trkpt lat="44.2199283" lon="11.45936"><ele>627.0</ele><time>2026-04-04T10:44:49.239Z</time></trkpt><trkpt lat="44.2198583" lon="11.4592417"><ele>627.0</ele><time>2026-04-04T10:44:50.239Z</time></trkpt><trkpt lat="44.2197733" lon="11.4591283"><ele>630.75</ele><time>2026-04-04T10:44:51.239Z</time></trkpt><trkpt lat="44.2196783" lon="11.459025"><ele>634.5</ele><time>2026-04-04T10:44:52.239Z</time></trkpt><trkpt lat="44.2195767" lon="11.4589267"><ele>638.25</ele><time>2026-04-04T10:44:53.238Z</time></trkpt><trkpt lat="44.219465" lon="11.4588433"><ele>642.0</ele><time>2026-04-04T10:44:54.239Z</time></trkpt><trkpt lat="44.2193367" lon="11.4587867"><ele>643.0</ele><time>2026-04-04T10:44:55.239Z</time></trkpt><trkpt lat="44.219195" lon="11.4587283"><ele>644.0</ele><time>2026-04-04T10:44:56.239Z</time></trkpt><trkpt lat="44.21904" lon="11.458665"><ele>645.0</ele><time>2026-04-04T10:44:57.239Z</time></trkpt><trkpt lat="44.2188767" lon="11.4585917"><ele>645.0</ele><time>2026-04-04T10:44:58.239Z</time></trkpt><trkpt lat="44.2185433" lon="11.4584133"><ele>645.0</ele><time>2026-04-04T10:45:00.239Z</time></trkpt><trkpt lat="44.218385" lon="11.458335"><ele>645.0</ele><time>2026-04-04T10:45:01.239Z</time></trkpt><trkpt lat="44.218225" lon="11.45828"><ele>645.0</ele><time>2026-04-04T10:45:02.239Z</time></trkpt><trkpt lat="44.2180633" lon="11.458235"><ele>645.0</ele><time>2026-04-04T10:45:03.239Z</time></trkpt><trkpt lat="44.2178967" lon="11.4582117"><ele>649.6666666666666</ele><time>2026-04-04T10:45:04.239Z</time></trkpt><trkpt lat="44.2177283" lon="11.4582083"><ele>654.3333333333333</ele><time>2026-04-04T10:45:05.239Z</time></trkpt><trkpt lat="44.2175683" lon="11.4582017"><ele>659.0</ele><time>2026-04-04T10:45:06.239Z</time></trkpt><trkpt lat="44.2174233" lon="11.4581933"><ele>658.6666666666666</ele><time>2026-04-04T10:45:07.239Z</time></trkpt><trkpt lat="44.2171833" lon="11.458085"><ele>658.3333333333334</ele><time>2026-04-04T10:45:09.239Z</time></trkpt><trkpt lat="44.217075" lon="11.45799"><ele>658.0</ele><time>2026-04-04T10:45:10.238Z</time></trkpt><trkpt lat="44.21698" lon="11.4578683"><ele>658.0</ele><time>2026-04-04T10:45:11.239Z</time></trkpt><trkpt lat="44.2168817" lon="11.45773"><ele>658.0</ele><time>2026-04-04T10:45:12.238Z</time></trkpt><trkpt lat="44.2167867" lon="11.4576183"><ele>658.0</ele><time>2026-04-04T10:45:13.239Z</time></trkpt><trkpt lat="44.216685" lon="11.4575433"><ele>658.0</ele><time>2026-04-04T10:45:14.238Z</time></trkpt><trkpt lat="44.2165633" lon="11.4574967"><ele>664.0</ele><time>2026-04-04T10:45:15.238Z</time></trkpt><trkpt lat="44.2164317" lon="11.45747"><ele>670.0</ele><time>2026-04-04T10:45:16.238Z</time></trkpt><trkpt lat="44.2161567" lon="11.457445"><ele>676.0</ele><time>2026-04-04T10:45:18.239Z</time></trkpt><trkpt lat="44.21603" lon="11.45741"><ele>676.0</ele><time>2026-04-04T10:45:19.239Z</time></trkpt><trkpt lat="44.2159217" lon="11.45734"><ele>676.0</ele><time>2026-04-04T10:45:20.239Z</time></trkpt><trkpt lat="44.2158283" lon="11.4572283"><ele>676.0</ele><time>2026-04-04T10:45:21.239Z</time></trkpt><trkpt lat="44.2157417" lon="11.4570917"><ele>676.0</ele><time>2026-04-04T10:45:22.238Z</time></trkpt><trkpt lat="44.21564" lon="11.45695"><ele>680.0</ele><time>2026-04-04T10:45:23.238Z</time></trkpt><trkpt lat="44.215535" lon="11.4568017"><ele>684.0</ele><time>2026-04-04T10:45:24.239Z</time></trkpt><trkpt lat="44.2154183" lon="11.4566533"><ele>688.0</ele><time>2026-04-04T10:45:25.239Z</time></trkpt><trkpt lat="44.2151933" lon="11.45634"><ele>686.0</ele><time>2026-04-04T10:45:27.239Z</time></trkpt><trkpt lat="44.2151033" lon="11.4562067"><ele>684.0</ele><time>2026-04-04T10:45:28.239Z</time></trkpt><trkpt lat="44.2150133" lon="11.4561"><ele>682.0</ele><time>2026-04-04T10:45:29.238Z</time></trkpt><trkpt lat="44.2149067" lon="11.4559917"><ele>680.0</ele><time>2026-04-04T10:45:30.239Z</time></trkpt><trkpt lat="44.2147933" lon="11.4558833"><ele>680.75</ele><time>2026-04-04T10:45:31.239Z</time></trkpt><trkpt lat="44.21467" lon="11.4557767"><ele>681.5</ele><time>2026-04-04T10:45:32.239Z</time></trkpt><trkpt lat="44.2145467" lon="11.4556767"><ele>682.25</ele><time>2026-04-04T10:45:33.238Z</time></trkpt><trkpt lat="44.2144233" lon="11.4555667"><ele>683.0</ele><time>2026-04-04T10:45:34.239Z</time></trkpt><trkpt lat="44.2141517" lon="11.45533"><ele>683.0</ele><time>2026-04-04T10:45:36.239Z</time></trkpt><trkpt lat="44.2140017" lon="11.4552067"><ele>683.0</ele><time>2026-04-04T10:45:37.239Z</time></trkpt><trkpt lat="44.2138533" lon="11.455085"><ele>683.0</ele><time>2026-04-04T10:45:38.239Z</time></trkpt><trkpt lat="44.213705" lon="11.454975"><ele>685.75</ele><time>2026-04-04T10:45:39.239Z</time></trkpt><trkpt lat="44.213565" lon="11.4548917"><ele>688.5</ele><time>2026-04-04T10:45:40.238Z</time></trkpt><trkpt lat="44.213425" lon="11.454835"><ele>691.25</ele><time>2026-04-04T10:45:41.239Z</time></trkpt><trkpt lat="44.2132883" lon="11.4548217"><ele>694.0</ele><time>2026-04-04T10:45:42.239Z</time></trkpt><trkpt lat="44.2131467" lon="11.4548433"><ele>696.5</ele><time>2026-04-04T10:45:43.238Z</time></trkpt><trkpt lat="44.2128583" lon="11.4549733"><ele>699.0</ele><time>2026-04-04T10:45:45.239Z</time></trkpt><trkpt lat="44.21271" lon="11.4550767"><ele>699.0</ele><time>2026-04-04T10:45:46.238Z</time></trkpt><trkpt lat="44.212555" lon="11.45519"><ele>699.0</ele><time>2026-04-04T10:45:47.239Z</time></trkpt><trkpt lat="44.2124033" lon="11.455295"><ele>699.0</ele><time>2026-04-04T10:45:48.239Z</time></trkpt><trkpt lat="44.2122483" lon="11.4553867"><ele>706.6666666666666</ele><time>2026-04-04T10:45:49.239Z</time></trkpt><trkpt lat="44.212085" lon="11.4554567"><ele>714.3333333333333</ele><time>2026-04-04T10:45:50.239Z</time></trkpt><trkpt lat="44.2119167" lon="11.4555117"><ele>722.0</ele><time>2026-04-04T10:45:51.238Z</time></trkpt><trkpt lat="44.2117533" lon="11.4555683"><ele>724.6666666666666</ele><time>2026-04-04T10:45:52.238Z</time></trkpt><trkpt lat="44.2114717" lon="11.4556333"><ele>727.3333333333334</ele><time>2026-04-04T10:45:54.238Z</time></trkpt><trkpt lat="44.211335" lon="11.4556083"><ele>730.0</ele><time>2026-04-04T10:45:55.239Z</time></trkpt><trkpt lat="44.2112017" lon="11.4555517"><ele>726.3333333333334</ele><time>2026-04-04T10:45:56.238Z</time></trkpt><trkpt lat="44.21107" lon="11.4554517"><ele>722.6666666666666</ele><time>2026-04-04T10:45:57.238Z</time></trkpt><trkpt lat="44.2109383" lon="11.4553467"><ele>719.0</ele><time>2026-04-04T10:45:58.239Z</time></trkpt><trkpt lat="44.2108" lon="11.4552183"><ele>724.6666666666666</ele><time>2026-04-04T10:45:59.238Z</time></trkpt><trkpt lat="44.2106467" lon="11.455085"><ele>730.3333333333334</ele><time>2026-04-04T10:46:00.239Z</time></trkpt><trkpt lat="44.2104933" lon="11.4549367"><ele>736.0</ele><time>2026-04-04T10:46:01.238Z</time></trkpt><trkpt lat="44.2101633" lon="11.4546467"><ele>738.3333333333334</ele><time>2026-04-04T10:46:03.238Z</time></trkpt><trkpt lat="44.2099933" lon="11.4545083"><ele>740.6666666666666</ele><time>2026-04-04T10:46:04.239Z</time></trkpt><trkpt lat="44.2098267" lon="11.4543767"><ele>743.0</ele><time>2026-04-04T10:46:05.239Z</time></trkpt><trkpt lat="44.2096883" lon="11.4542517"><ele>743.0</ele><time>2026-04-04T10:46:06.238Z</time></trkpt><trkpt lat="44.20957" lon="11.454125"><ele>743.0</ele><time>2026-04-04T10:46:07.238Z</time></trkpt><trkpt lat="44.2094617" lon="11.4539767"><ele>743.0</ele><time>2026-04-04T10:46:08.239Z</time></trkpt><trkpt lat="44.2093717" lon="11.45381"><ele>741.25</ele><time>2026-04-04T10:46:09.238Z</time></trkpt><trkpt lat="44.2092983" lon="11.453655"><ele>739.5</ele><time>2026-04-04T10:46:10.238Z</time></trkpt><trkpt lat="44.209185" lon="11.4534183"><ele>737.75</ele><time>2026-04-04T10:46:12.238Z</time></trkpt><trkpt lat="44.2091117" lon="11.4533067"><ele>736.0</ele><time>2026-04-04T10:46:13.239Z</time></trkpt><trkpt lat="44.2090233" lon="11.4532"><ele>737.0</ele><time>2026-04-04T10:46:14.239Z</time></trkpt><trkpt lat="44.2089267" lon="11.4530917"><ele>738.0</ele><time>2026-04-04T10:46:15.238Z</time></trkpt><trkpt lat="44.2088383" lon="11.4529717"><ele>739.0</ele><time>2026-04-04T10:46:16.239Z</time></trkpt><trkpt lat="44.2087333" lon="11.452855"><ele>740.0</ele><time>2026-04-04T10:46:17.239Z</time></trkpt><trkpt lat="44.2086183" lon="11.4527267"><ele>740.0</ele><time>2026-04-04T10:46:18.239Z</time></trkpt><trkpt lat="44.2085" lon="11.452595"><ele>740.0</ele><time>2026-04-04T10:46:19.238Z</time></trkpt><trkpt lat="44.2082783" lon="11.4523233"><ele>740.0</ele><time>2026-04-04T10:46:21.239Z</time></trkpt><trkpt lat="44.208195" lon="11.45216"><ele>743.5</ele><time>2026-04-04T10:46:22.239Z</time></trkpt><trkpt lat="44.2081333" lon="11.451965"><ele>747.0</ele><time>2026-04-04T10:46:23.239Z</time></trkpt><trkpt lat="44.2080817" lon="11.4517683"><ele>750.5</ele><time>2026-04-04T10:46:24.238Z</time></trkpt><trkpt lat="44.20804" lon="11.451585"><ele>754.0</ele><time>2026-04-04T10:46:25.238Z</time></trkpt><trkpt lat="44.2080117" lon="11.4513933"><ele>753.6666666666667</ele><time>2026-04-04T10:46:26.238Z</time></trkpt><trkpt lat="44.2079833" lon="11.4512067"><ele>753.3333333333334</ele><time>2026-04-04T10:46:27.239Z</time></trkpt><trkpt lat="44.2079483" lon="11.45101"><ele>753.0</ele><time>2026-04-04T10:46:28.239Z</time></trkpt><trkpt lat="44.207845" lon="11.4506217"><ele>753.6666666666666</ele><time>2026-04-04T10:46:30.239Z</time></trkpt><trkpt lat="44.2078017" lon="11.450415"><ele>754.3333333333333</ele><time>2026-04-04T10:46:31.239Z</time></trkpt><trkpt lat="44.2077533" lon="11.4502167"><ele>755.0</ele><time>2026-04-04T10:46:32.238Z</time></trkpt><trkpt lat="44.2077067" lon="11.45001"><ele>755.0</ele><time>2026-04-04T10:46:33.238Z</time></trkpt><trkpt lat="44.2076567" lon="11.449815"><ele>755.0</ele><time>2026-04-04T10:46:34.239Z</time></trkpt><trkpt lat="44.2075867" lon="11.4496217"><ele>755.0</ele><time>2026-04-04T10:46:35.239Z</time></trkpt><trkpt lat="44.2075133" lon="11.4494333"><ele>751.0</ele><time>2026-04-04T10:46:36.239Z</time></trkpt><trkpt lat="44.207435" lon="11.449245"><ele>747.0</ele><time>2026-04-04T10:46:37.239Z</time></trkpt><trkpt lat="44.2072267" lon="11.4488883"><ele>752.3333333333334</ele><time>2026-04-04T10:46:39.239Z</time></trkpt><trkpt lat="44.2070967" lon="11.448715"><ele>757.6666666666667</ele><time>2026-04-04T10:46:40.239Z</time></trkpt><trkpt lat="44.2069767" lon="11.4485367"><ele>763.0</ele><time>2026-04-04T10:46:41.238Z</time></trkpt><trkpt lat="44.2068583" lon="11.44836"><ele>763.0</ele><time>2026-04-04T10:46:42.239Z</time></trkpt><trkpt lat="44.2067533" lon="11.44818"><ele>763.0</ele><time>2026-04-04T10:46:43.239Z</time></trkpt><trkpt lat="44.2066583" lon="11.4480117"><ele>763.0</ele><time>2026-04-04T10:46:44.238Z</time></trkpt><trkpt lat="44.20657" lon="11.4478567"><ele>761.3333333333334</ele><time>2026-04-04T10:46:45.238Z</time></trkpt><trkpt lat="44.2064983" lon="11.4477117"><ele>759.6666666666666</ele><time>2026-04-04T10:46:46.239Z</time></trkpt><trkpt lat="44.2064433" lon="11.44738"><ele>758.0</ele><time>2026-04-04T10:46:48.238Z</time></trkpt><trkpt lat="44.2064617" lon="11.447215"><ele>759.0</ele><time>2026-04-04T10:46:49.238Z</time></trkpt><trkpt lat="44.2065067" lon="11.4470667"><ele>760.0</ele><time>2026-04-04T10:46:50.238Z</time></trkpt><trkpt lat="44.2065667" lon="11.44694"><ele>761.0</ele><time>2026-04-04T10:46:51.239Z</time></trkpt><trkpt lat="44.2066017" lon="11.446815"><ele>762.0</ele><time>2026-04-04T10:46:52.239Z</time></trkpt><trkpt lat="44.2066017" lon="11.446695"><ele>763.0</ele><time>2026-04-04T10:46:53.238Z</time></trkpt><trkpt lat="44.20658" lon="11.4465717"><ele>763.0</ele><time>2026-04-04T10:46:54.238Z</time></trkpt><trkpt lat="44.20655" lon="11.44644"><ele>763.0</ele><time>2026-04-04T10:46:55.239Z</time></trkpt><trkpt lat="44.2065733" lon="11.4461633"><ele>763.0</ele><time>2026-04-04T10:46:57.238Z</time></trkpt><trkpt lat="44.206595" lon="11.4460117"><ele>763.0</ele><time>2026-04-04T10:46:58.238Z</time></trkpt><trkpt lat="44.2065883" lon="11.4458683"><ele>763.75</ele><time>2026-04-04T10:46:59.239Z</time></trkpt><trkpt lat="44.20655" lon="11.4457233"><ele>764.5</ele><time>2026-04-04T10:47:00.239Z</time></trkpt><trkpt lat="44.20648" lon="11.445585"><ele>765.25</ele><time>2026-04-04T10:47:01.239Z</time></trkpt><trkpt lat="44.2064083" lon="11.4454283"><ele>766.0</ele><time>2026-04-04T10:47:02.239Z</time></trkpt><trkpt lat="44.2063467" lon="11.4452383"><ele>774.0</ele><time>2026-04-04T10:47:03.239Z</time></trkpt><trkpt lat="44.2063083" lon="11.4450567"><ele>782.0</ele><time>2026-04-04T10:47:04.238Z</time></trkpt><trkpt lat="44.2062317" lon="11.4447667"><ele>790.0</ele><time>2026-04-04T10:47:06.239Z</time></trkpt><trkpt lat="44.2061867" lon="11.44463"><ele>787.8</ele><time>2026-04-04T10:47:07.238Z</time></trkpt><trkpt lat="44.206145" lon="11.4445067"><ele>785.6</ele><time>2026-04-04T10:47:08.238Z</time></trkpt><trkpt lat="44.2060983" lon="11.4443867"><ele>783.4000000000001</ele><time>2026-04-04T10:47:09.239Z</time></trkpt><trkpt lat="44.20604" lon="11.4442733"><ele>781.2</ele><time>2026-04-04T10:47:10.239Z</time></trkpt><trkpt lat="44.2059667" lon="11.4441617"><ele>779.0</ele><time>2026-04-04T10:47:11.238Z</time></trkpt><trkpt lat="44.2058917" lon="11.4440483"><ele>779.0</ele><time>2026-04-04T10:47:12.239Z</time></trkpt><trkpt lat="44.205805" lon="11.4439317"><ele>779.0</ele><time>2026-04-04T10:47:13.239Z</time></trkpt><trkpt lat="44.2056067" lon="11.443685"><ele>779.0</ele><time>2026-04-04T10:47:15.239Z</time></trkpt><trkpt lat="44.20544" lon="11.4434367"><ele>782.0</ele><time>2026-04-04T10:47:17.239Z</time></trkpt><trkpt lat="44.2053833" lon="11.4433217"><ele>785.0</ele><time>2026-04-04T10:47:18.239Z</time></trkpt><trkpt lat="44.2053567" lon="11.443175"><ele>788.0</ele><time>2026-04-04T10:47:19.238Z</time></trkpt><trkpt lat="44.20535" lon="11.4430117"><ele>791.0</ele><time>2026-04-04T10:47:20.239Z</time></trkpt><trkpt lat="44.205365" lon="11.4428433"><ele>794.0</ele><time>2026-04-04T10:47:21.238Z</time></trkpt><trkpt lat="44.2053833" lon="11.44268"><ele>796.75</ele><time>2026-04-04T10:47:22.239Z</time></trkpt><trkpt lat="44.2054317" lon="11.4425483"><ele>799.5</ele><time>2026-04-04T10:47:23.238Z</time></trkpt><trkpt lat="44.2055067" lon="11.44245"><ele>802.25</ele><time>2026-04-04T10:47:24.239Z</time></trkpt><trkpt lat="44.2057283" lon="11.4423333"><ele>805.0</ele><time>2026-04-04T10:47:26.238Z</time></trkpt><trkpt lat="44.2058733" lon="11.442295"><ele>801.4</ele><time>2026-04-04T10:47:27.239Z</time></trkpt><trkpt lat="44.2059967" lon="11.4422567"><ele>797.8</ele><time>2026-04-04T10:47:28.239Z</time></trkpt><trkpt lat="44.2061" lon="11.4422133"><ele>794.2</ele><time>2026-04-04T10:47:29.238Z</time></trkpt><trkpt lat="44.2061717" lon="11.4421533"><ele>790.6</ele><time>2026-04-04T10:47:30.239Z</time></trkpt><trkpt lat="44.2062283" lon="11.4420617"><ele>787.0</ele><time>2026-04-04T10:47:31.239Z</time></trkpt><trkpt lat="44.206255" lon="11.441945"><ele>787.0</ele><time>2026-04-04T10:47:32.239Z</time></trkpt><trkpt lat="44.206255" lon="11.4418167"><ele>787.0</ele><time>2026-04-04T10:47:33.238Z</time></trkpt><trkpt lat="44.206185" lon="11.4415367"><ele>787.0</ele><time>2026-04-04T10:47:35.239Z</time></trkpt><trkpt lat="44.20612" lon="11.4412167"><ele>784.5</ele><time>2026-04-04T10:47:37.238Z</time></trkpt><trkpt lat="44.2060983" lon="11.4410333"><ele>782.0</ele><time>2026-04-04T10:47:38.239Z</time></trkpt><trkpt lat="44.2060483" lon="11.44084"><ele>779.5</ele><time>2026-04-04T10:47:39.239Z</time></trkpt><trkpt lat="44.2059767" lon="11.4406317"><ele>777.0</ele><time>2026-04-04T10:47:40.238Z</time></trkpt><trkpt lat="44.2059217" lon="11.4404217"><ele>775.3333333333333</ele><time>2026-04-04T10:47:41.239Z</time></trkpt><trkpt lat="44.2058833" lon="11.44019"><ele>773.6666666666666</ele><time>2026-04-04T10:47:42.238Z</time></trkpt><trkpt lat="44.2058567" lon="11.43996"><ele>772.0</ele><time>2026-04-04T10:47:43.238Z</time></trkpt><trkpt lat="44.2058317" lon="11.4397433"><ele>770.0</ele><time>2026-04-04T10:47:44.239Z</time></trkpt><trkpt lat="44.2058017" lon="11.4393383"><ele>768.0</ele><time>2026-04-04T10:47:46.238Z</time></trkpt><trkpt lat="44.2058033" lon="11.439135"><ele>766.0</ele><time>2026-04-04T10:47:47.239Z</time></trkpt><trkpt lat="44.20581" lon="11.438945"><ele>764.75</ele><time>2026-04-04T10:47:48.239Z</time></trkpt><trkpt lat="44.2058133" lon="11.438755"><ele>763.5</ele><time>2026-04-04T10:47:49.239Z</time></trkpt><trkpt lat="44.2058183" lon="11.4385833"><ele>762.25</ele><time>2026-04-04T10:47:50.239Z</time></trkpt><trkpt lat="44.20582" lon="11.4384233"><ele>761.0</ele><time>2026-04-04T10:47:51.239Z</time></trkpt><trkpt lat="44.2058133" lon="11.4382667"><ele>761.0</ele><time>2026-04-04T10:47:52.239Z</time></trkpt><trkpt lat="44.2058267" lon="11.4381133"><ele>761.0</ele><time>2026-04-04T10:47:53.238Z</time></trkpt><trkpt lat="44.20594" lon="11.4378267"><ele>761.0</ele><time>2026-04-04T10:47:55.239Z</time></trkpt><trkpt lat="44.2060217" lon="11.4376667"><ele>760.75</ele><time>2026-04-04T10:47:56.238Z</time></trkpt><trkpt lat="44.2060967" lon="11.437485"><ele>760.5</ele><time>2026-04-04T10:47:57.239Z</time></trkpt><trkpt lat="44.206145" lon="11.4373"><ele>760.25</ele><time>2026-04-04T10:47:58.239Z</time></trkpt><trkpt lat="44.2061667" lon="11.4371233"><ele>760.0</ele><time>2026-04-04T10:47:59.238Z</time></trkpt><trkpt lat="44.2061633" lon="11.43695"><ele>758.6666666666667</ele><time>2026-04-04T10:48:00.239Z</time></trkpt><trkpt lat="44.2061167" lon="11.4367883"><ele>757.3333333333334</ele><time>2026-04-04T10:48:01.239Z</time></trkpt><trkpt lat="44.20604" lon="11.4366433"><ele>756.0</ele><time>2026-04-04T10:48:02.239Z</time></trkpt><trkpt lat="44.2059317" lon="11.4363283"><ele>754.75</ele><time>2026-04-04T10:48:04.239Z</time></trkpt><trkpt lat="44.2059433" lon="11.436155"><ele>753.5</ele><time>2026-04-04T10:48:05.238Z</time></trkpt><trkpt lat="44.2059717" lon="11.43598"><ele>752.25</ele><time>2026-04-04T10:48:06.238Z</time></trkpt><trkpt lat="44.20599" lon="11.4358167"><ele>751.0</ele><time>2026-04-04T10:48:07.239Z</time></trkpt><trkpt lat="44.205975" lon="11.43565"><ele>751.0</ele><time>2026-04-04T10:48:08.239Z</time></trkpt><trkpt lat="44.2059333" lon="11.435475"><ele>751.0</ele><time>2026-04-04T10:48:09.239Z</time></trkpt><trkpt lat="44.205865" lon="11.4352917"><ele>751.0</ele><time>2026-04-04T10:48:10.238Z</time></trkpt><trkpt lat="44.2057833" lon="11.43509"><ele>751.0</ele><time>2026-04-04T10:48:11.239Z</time></trkpt><trkpt lat="44.205635" lon="11.434695"><ele>752.5999999999999</ele><time>2026-04-04T10:48:13.239Z</time></trkpt><trkpt lat="44.2055767" lon="11.434525"><ele>754.2</ele><time>2026-04-04T10:48:14.238Z</time></trkpt><trkpt lat="44.2055383" lon="11.43438"><ele>755.8</ele><time>2026-04-04T10:48:15.239Z</time></trkpt><trkpt lat="44.2055133" lon="11.434255"><ele>757.4000000000001</ele><time>2026-04-04T10:48:16.239Z</time></trkpt><trkpt lat="44.2054917" lon="11.434145"><ele>759.0</ele><time>2026-04-04T10:48:17.238Z</time></trkpt><trkpt lat="44.2054667" lon="11.4340333"><ele>759.0</ele><time>2026-04-04T10:48:18.238Z</time></trkpt><trkpt lat="44.2054517" lon="11.4339067"><ele>759.0</ele><time>2026-04-04T10:48:19.238Z</time></trkpt><trkpt lat="44.20544" lon="11.4337517"><ele>759.0</ele><time>2026-04-04T10:48:20.238Z</time></trkpt><trkpt lat="44.2054717" lon="11.4334167"><ele>759.0</ele><time>2026-04-04T10:48:22.239Z</time></trkpt><trkpt lat="44.20548" lon="11.4332617"><ele>756.75</ele><time>2026-04-04T10:48:23.239Z</time></trkpt><trkpt lat="44.205485" lon="11.4331067"><ele>754.5</ele><time>2026-04-04T10:48:24.238Z</time></trkpt><trkpt lat="44.205445" lon="11.4329533"><ele>752.25</ele><time>2026-04-04T10:48:25.238Z</time></trkpt><trkpt lat="44.2053683" lon="11.432805"><ele>750.0</ele><time>2026-04-04T10:48:26.239Z</time></trkpt><trkpt lat="44.20529" lon="11.43266"><ele>745.3333333333334</ele><time>2026-04-04T10:48:27.238Z</time></trkpt><trkpt lat="44.2052417" lon="11.43251"><ele>740.6666666666667</ele><time>2026-04-04T10:48:28.239Z</time></trkpt><trkpt lat="44.20522" lon="11.4323117"><ele>736.0</ele><time>2026-04-04T10:48:29.239Z</time></trkpt><trkpt lat="44.2052" lon="11.431875"><ele>731.0</ele><time>2026-04-04T10:48:31.239Z</time></trkpt><trkpt lat="44.205205" lon="11.4314767"><ele>726.0</ele><time>2026-04-04T10:48:33.239Z</time></trkpt><trkpt lat="44.2052017" lon="11.4310983"><ele>726.0</ele><time>2026-04-04T10:48:35.238Z</time></trkpt><trkpt lat="44.20529" lon="11.4307933"><ele>726.0</ele><time>2026-04-04T10:48:37.238Z</time></trkpt><trkpt lat="44.20549" lon="11.4305667"><ele>730.0</ele><time>2026-04-04T10:48:39.238Z</time></trkpt><trkpt lat="44.2056267" lon="11.43028"><ele>734.0</ele><time>2026-04-04T10:48:41.239Z</time></trkpt><trkpt lat="44.2056217" lon="11.4299567"><ele>734.0</ele><time>2026-04-04T10:48:43.238Z</time></trkpt><trkpt lat="44.205615" lon="11.4297933"><ele>734.0</ele><time>2026-04-04T10:48:44.239Z</time></trkpt><trkpt lat="44.205635" lon="11.4296283"><ele>734.0</ele><time>2026-04-04T10:48:45.239Z</time></trkpt><trkpt lat="44.2057017" lon="11.4294683"><ele>734.0</ele><time>2026-04-04T10:48:46.239Z</time></trkpt><trkpt lat="44.205785" lon="11.4293183"><ele>729.5</ele><time>2026-04-04T10:48:47.239Z</time></trkpt><trkpt lat="44.2058417" lon="11.4291683"><ele>725.0</ele><time>2026-04-04T10:48:48.238Z</time></trkpt><trkpt lat="44.205875" lon="11.4290017"><ele>720.5</ele><time>2026-04-04T10:48:49.239Z</time></trkpt><trkpt lat="44.2058833" lon="11.4287883"><ele>716.0</ele><time>2026-04-04T10:48:50.239Z</time></trkpt><trkpt lat="44.205885" lon="11.4283067"><ele>710.0</ele><time>2026-04-04T10:48:52.239Z</time></trkpt><trkpt lat="44.2058967" lon="11.4278233"><ele>704.0</ele><time>2026-04-04T10:48:54.239Z</time></trkpt><trkpt lat="44.205895" lon="11.4274117"><ele>704.0</ele><time>2026-04-04T10:48:56.239Z</time></trkpt><trkpt lat="44.2058933" lon="11.427235"><ele>704.0</ele><time>2026-04-04T10:48:57.238Z</time></trkpt><trkpt lat="44.2059" lon="11.4270617"><ele>704.0</ele><time>2026-04-04T10:48:58.239Z</time></trkpt><trkpt lat="44.2059117" lon="11.4269083"><ele>704.0</ele><time>2026-04-04T10:48:59.238Z</time></trkpt><trkpt lat="44.20592" lon="11.4267633"><ele>700.6</ele><time>2026-04-04T10:49:00.238Z</time></trkpt><trkpt lat="44.2059417" lon="11.4266517"><ele>697.2</ele><time>2026-04-04T10:49:01.239Z</time></trkpt><trkpt lat="44.20597" lon="11.4265683"><ele>693.8000000000001</ele><time>2026-04-04T10:49:02.239Z</time></trkpt><trkpt lat="44.2060183" lon="11.4265067"><ele>690.4000000000001</ele><time>2026-04-04T10:49:03.239Z</time></trkpt><trkpt lat="44.2061717" lon="11.4264417"><ele>687.0</ele><time>2026-04-04T10:49:05.239Z</time></trkpt><trkpt lat="44.2063633" lon="11.426545"><ele>687.0</ele><time>2026-04-04T10:49:07.239Z</time></trkpt><trkpt lat="44.2064667" lon="11.4266567"><ele>687.0</ele><time>2026-04-04T10:49:08.239Z</time></trkpt><trkpt lat="44.2065667" lon="11.426765"><ele>687.0</ele><time>2026-04-04T10:49:09.239Z</time></trkpt><trkpt lat="44.2066567" lon="11.4268833"><ele>687.0</ele><time>2026-04-04T10:49:10.239Z</time></trkpt><trkpt lat="44.2067367" lon="11.42699"><ele>683.5</ele><time>2026-04-04T10:49:11.239Z</time></trkpt><trkpt lat="44.2068067" lon="11.4271233"><ele>680.0</ele><time>2026-04-04T10:49:12.239Z</time></trkpt><trkpt lat="44.20686" lon="11.42727"><ele>676.5</ele><time>2026-04-04T10:49:13.239Z</time></trkpt><trkpt lat="44.2069017" lon="11.4274417"><ele>673.0</ele><time>2026-04-04T10:49:14.238Z</time></trkpt><trkpt lat="44.2070183" lon="11.427825"><ele>675.0</ele><time>2026-04-04T10:49:16.239Z</time></trkpt><trkpt lat="44.2071083" lon="11.4280183"><ele>677.0</ele><time>2026-04-04T10:49:17.239Z</time></trkpt><trkpt lat="44.2072" lon="11.428195"><ele>679.0</ele><time>2026-04-04T10:49:18.238Z</time></trkpt><trkpt lat="44.20727" lon="11.4283583"><ele>672.25</ele><time>2026-04-04T10:49:19.239Z</time></trkpt><trkpt lat="44.20733" lon="11.428535"><ele>665.5</ele><time>2026-04-04T10:49:20.239Z</time></trkpt><trkpt lat="44.2073633" lon="11.428715"><ele>658.75</ele><time>2026-04-04T10:49:21.239Z</time></trkpt><trkpt lat="44.2073867" lon="11.4288833"><ele>652.0</ele><time>2026-04-04T10:49:22.239Z</time></trkpt><trkpt lat="44.2074317" lon="11.4290417"><ele>651.3333333333334</ele><time>2026-04-04T10:49:23.239Z</time></trkpt><trkpt lat="44.207595" lon="11.4292983"><ele>650.6666666666666</ele><time>2026-04-04T10:49:25.238Z</time></trkpt><trkpt lat="44.2077167" lon="11.42938"><ele>650.0</ele><time>2026-04-04T10:49:26.239Z</time></trkpt><trkpt lat="44.2078633" lon="11.4294117"><ele>650.0</ele><time>2026-04-04T10:49:27.239Z</time></trkpt><trkpt lat="44.2080217" lon="11.4294233"><ele>650.0</ele><time>2026-04-04T10:49:28.239Z</time></trkpt><trkpt lat="44.20818" lon="11.4294217"><ele>650.0</ele><time>2026-04-04T10:49:29.238Z</time></trkpt><trkpt lat="44.20831" lon="11.4294233"><ele>650.0</ele><time>2026-04-04T10:49:30.238Z</time></trkpt><trkpt lat="44.20843" lon="11.4294283"><ele>648.6666666666666</ele><time>2026-04-04T10:49:31.238Z</time></trkpt><trkpt lat="44.2085417" lon="11.4294633"><ele>647.3333333333334</ele><time>2026-04-04T10:49:32.239Z</time></trkpt><trkpt lat="44.2087333" lon="11.4296483"><ele>646.0</ele><time>2026-04-04T10:49:34.239Z</time></trkpt><trkpt lat="44.2088317" lon="11.4297733"><ele>646.0</ele><time>2026-04-04T10:49:35.239Z</time></trkpt><trkpt lat="44.2089267" lon="11.4299"><ele>646.0</ele><time>2026-04-04T10:49:36.238Z</time></trkpt><trkpt lat="44.209015" lon="11.4300033"><ele>646.0</ele><time>2026-04-04T10:49:37.239Z</time></trkpt><trkpt lat="44.20908" lon="11.4300717"><ele>646.0</ele><time>2026-04-04T10:49:38.238Z</time></trkpt><trkpt lat="44.2091483" lon="11.4300767"><ele>646.0</ele><time>2026-04-04T10:49:39.238Z</time></trkpt><trkpt lat="44.2092017" lon="11.43002"><ele>638.0</ele><time>2026-04-04T10:49:40.239Z</time></trkpt><trkpt lat="44.2092233" lon="11.429925"><ele>630.0</ele><time>2026-04-04T10:49:41.238Z</time></trkpt><trkpt lat="44.209145" lon="11.4296117"><ele>622.0</ele><time>2026-04-04T10:49:43.238Z</time></trkpt><trkpt lat="44.20911" lon="11.429265"><ele>621.2</ele><time>2026-04-04T10:49:45.239Z</time></trkpt><trkpt lat="44.20913" lon="11.4291083"><ele>620.4000000000001</ele><time>2026-04-04T10:49:46.238Z</time></trkpt><trkpt lat="44.2091717" lon="11.4289633"><ele>619.5999999999999</ele><time>2026-04-04T10:49:47.238Z</time></trkpt><trkpt lat="44.209245" lon="11.428845"><ele>618.8</ele><time>2026-04-04T10:49:48.238Z</time></trkpt><trkpt lat="44.2093067" lon="11.4287367"><ele>618.0</ele><time>2026-04-04T10:49:49.239Z</time></trkpt><trkpt lat="44.2093433" lon="11.4286233"><ele>617.0</ele><time>2026-04-04T10:49:50.239Z</time></trkpt><trkpt lat="44.2093567" lon="11.4285067"><ele>616.0</ele><time>2026-04-04T10:49:51.239Z</time></trkpt><trkpt lat="44.2093433" lon="11.4283833"><ele>615.0</ele><time>2026-04-04T10:49:52.239Z</time></trkpt><trkpt lat="44.2092783" lon="11.4282067"><ele>614.0</ele><time>2026-04-04T10:49:54.239Z</time></trkpt><trkpt lat="44.2092183" lon="11.4281467"><ele>613.0</ele><time>2026-04-04T10:49:55.238Z</time></trkpt><trkpt lat="44.2091417" lon="11.4281017"><ele>613.0</ele><time>2026-04-04T10:49:56.239Z</time></trkpt><trkpt lat="44.209055" lon="11.428045"><ele>613.0</ele><time>2026-04-04T10:49:57.238Z</time></trkpt><trkpt lat="44.2089583" lon="11.4279833"><ele>613.0</ele><time>2026-04-04T10:49:58.239Z</time></trkpt><trkpt lat="44.2088767" lon="11.4278683"><ele>613.0</ele><time>2026-04-04T10:49:59.24Z</time></trkpt><trkpt lat="44.2088067" lon="11.4277383"><ele>613.0</ele><time>2026-04-04T10:50:00.24Z</time></trkpt><trkpt lat="44.2087467" lon="11.4275817"><ele>615.0</ele><time>2026-04-04T10:50:01.239Z</time></trkpt><trkpt lat="44.2087017" lon="11.4272383"><ele>617.0</ele><time>2026-04-04T10:50:03.239Z</time></trkpt><trkpt lat="44.2087183" lon="11.4270817"><ele>619.0</ele><time>2026-04-04T10:50:04.24Z</time></trkpt><trkpt lat="44.2087233" lon="11.4269267"><ele>619.0</ele><time>2026-04-04T10:50:05.239Z</time></trkpt><trkpt lat="44.2087017" lon="11.4267783"><ele>619.0</ele><time>2026-04-04T10:50:06.239Z</time></trkpt><trkpt lat="44.2086417" lon="11.4266517"><ele>619.0</ele><time>2026-04-04T10:50:07.239Z</time></trkpt><trkpt lat="44.2085367" lon="11.4265317"><ele>619.0</ele><time>2026-04-04T10:50:08.239Z</time></trkpt><trkpt lat="44.208445" lon="11.4264167"><ele>612.6666666666667</ele><time>2026-04-04T10:50:09.24Z</time></trkpt><trkpt lat="44.2083683" lon="11.426255"><ele>606.3333333333334</ele><time>2026-04-04T10:50:10.239Z</time></trkpt><trkpt lat="44.2083233" lon="11.42586"><ele>600.0</ele><time>2026-04-04T10:50:12.24Z</time></trkpt><trkpt lat="44.2083867" lon="11.4254567"><ele>601.0</ele><time>2026-04-04T10:50:14.24Z</time></trkpt><trkpt lat="44.2083733" lon="11.4251483"><ele>602.0</ele><time>2026-04-04T10:50:16.239Z</time></trkpt><trkpt lat="44.2083017" lon="11.4250283"><ele>603.0</ele><time>2026-04-04T10:50:17.239Z</time></trkpt><trkpt lat="44.20821" lon="11.4249383"><ele>604.0</ele><time>2026-04-04T10:50:18.239Z</time></trkpt><trkpt lat="44.208105" lon="11.4247717"><ele>600.0</ele><time>2026-04-04T10:50:20.24Z</time></trkpt><trkpt lat="44.2081733" lon="11.42467"><ele>596.0</ele><time>2026-04-04T10:50:22.239Z</time></trkpt><trkpt lat="44.208245" lon="11.4247"><ele>592.0</ele><time>2026-04-04T10:50:23.24Z</time></trkpt><trkpt lat="44.2083467" lon="11.424805"><ele>588.0</ele><time>2026-04-04T10:50:24.24Z</time></trkpt><trkpt lat="44.2084633" lon="11.42493"><ele>584.0</ele><time>2026-04-04T10:50:25.24Z</time></trkpt><trkpt lat="44.208705" lon="11.4251783"><ele>584.0</ele><time>2026-04-04T10:50:27.24Z</time></trkpt><trkpt lat="44.20877" lon="11.4253117"><ele>584.0</ele><time>2026-04-04T10:50:28.24Z</time></trkpt><trkpt lat="44.2087867" lon="11.4254417"><ele>584.0</ele><time>2026-04-04T10:50:29.24Z</time></trkpt><trkpt lat="44.208805" lon="11.4255667"><ele>584.0</ele><time>2026-04-04T10:50:30.24Z</time></trkpt><trkpt lat="44.2088367" lon="11.425645"><ele>584.0</ele><time>2026-04-04T10:50:31.24Z</time></trkpt><trkpt lat="44.2089417" lon="11.4255683"><ele>584.0</ele><time>2026-04-04T10:50:33.24Z</time></trkpt><trkpt lat="44.2089767" lon="11.4254533"><ele>584.0</ele><time>2026-04-04T10:50:34.24Z</time></trkpt><trkpt lat="44.208975" lon="11.4251767"><ele>584.0</ele><time>2026-04-04T10:50:36.24Z</time></trkpt><trkpt lat="44.208915" lon="11.4250533"><ele>584.0</ele><time>2026-04-04T10:50:37.24Z</time></trkpt><trkpt lat="44.2088317" lon="11.4249283"><ele>584.0</ele><time>2026-04-04T10:50:38.239Z</time></trkpt><trkpt lat="44.2087317" lon="11.4247983"><ele>584.0</ele><time>2026-04-04T10:50:39.239Z</time></trkpt><trkpt lat="44.2086233" lon="11.42466"><ele>584.0</ele><time>2026-04-04T10:50:40.24Z</time></trkpt><trkpt lat="44.208525" lon="11.4245417"><ele>584.0</ele><time>2026-04-04T10:50:41.24Z</time></trkpt><trkpt lat="44.2084583" lon="11.4244333"><ele>582.4</ele><time>2026-04-04T10:50:42.239Z</time></trkpt><trkpt lat="44.2084283" lon="11.424335"><ele>580.8</ele><time>2026-04-04T10:50:43.24Z</time></trkpt><trkpt lat="44.2084517" lon="11.4241983"><ele>579.2</ele><time>2026-04-04T10:50:45.24Z</time></trkpt><trkpt lat="44.2085033" lon="11.4240567"><ele>577.6</ele><time>2026-04-04T10:50:47.24Z</time></trkpt><trkpt lat="44.2085367" lon="11.4239417"><ele>576.0</ele><time>2026-04-04T10:50:48.24Z</time></trkpt><trkpt lat="44.2085667" lon="11.4238317"><ele>576.0</ele><time>2026-04-04T10:50:49.24Z</time></trkpt><trkpt lat="44.208585" lon="11.423745"><ele>576.0</ele><time>2026-04-04T10:50:50.24Z</time></trkpt><trkpt lat="44.208595" lon="11.4236117"><ele>576.0</ele><time>2026-04-04T10:50:52.24Z</time></trkpt><trkpt lat="44.2085817" lon="11.423435"><ele>576.0</ele><time>2026-04-04T10:50:54.24Z</time></trkpt><trkpt lat="44.20857" lon="11.4233217"><ele>576.0</ele><time>2026-04-04T10:50:55.239Z</time></trkpt><trkpt lat="44.2085633" lon="11.4231933"><ele>576.0</ele><time>2026-04-04T10:50:56.24Z</time></trkpt><trkpt lat="44.2085533" lon="11.4230483"><ele>576.0</ele><time>2026-04-04T10:50:57.239Z</time></trkpt><trkpt lat="44.2085167" lon="11.4227283"><ele>576.0</ele><time>2026-04-04T10:50:59.24Z</time></trkpt><trkpt lat="44.20848" lon="11.4224033"><ele>571.25</ele><time>2026-04-04T10:51:01.24Z</time></trkpt><trkpt lat="44.20843" lon="11.42209"><ele>566.5</ele><time>2026-04-04T10:51:03.24Z</time></trkpt><trkpt lat="44.20841" lon="11.4219367"><ele>561.75</ele><time>2026-04-04T10:51:04.239Z</time></trkpt><trkpt lat="44.2083983" lon="11.421795"><ele>557.0</ele><time>2026-04-04T10:51:05.24Z</time></trkpt><trkpt lat="44.20839" lon="11.421655"><ele>557.0</ele><time>2026-04-04T10:51:06.24Z</time></trkpt><trkpt lat="44.2083783" lon="11.421525"><ele>557.0</ele><time>2026-04-04T10:51:07.24Z</time></trkpt><trkpt lat="44.2083683" lon="11.4213883"><ele>557.0</ele><time>2026-04-04T10:51:08.239Z</time></trkpt><trkpt lat="44.2083767" lon="11.421245"><ele>557.0</ele><time>2026-04-04T10:51:09.24Z</time></trkpt><trkpt lat="44.20839" lon="11.421085"><ele>557.0</ele><time>2026-04-04T10:51:10.24Z</time></trkpt><trkpt lat="44.2084133" lon="11.420795"><ele>556.0</ele><time>2026-04-04T10:51:12.24Z</time></trkpt><trkpt lat="44.2084067" lon="11.4204833"><ele>555.0</ele><time>2026-04-04T10:51:14.24Z</time></trkpt><trkpt lat="44.208385" lon="11.4202067"><ele>554.0</ele><time>2026-04-04T10:51:16.24Z</time></trkpt><trkpt lat="44.20834" lon="11.4199967"><ele>554.0</ele><time>2026-04-04T10:51:18.24Z</time></trkpt><trkpt lat="44.2083283" lon="11.4199067"><ele>554.0</ele><time>2026-04-04T10:51:19.24Z</time></trkpt><trkpt lat="44.2083533" lon="11.4197733"><ele>554.0</ele><time>2026-04-04T10:51:21.239Z</time></trkpt><trkpt lat="44.2083883" lon="11.4196817"><ele>554.0</ele><time>2026-04-04T10:51:23.239Z</time></trkpt><trkpt lat="44.20852" lon="11.4196617"><ele>554.0</ele><time>2026-04-04T10:53:14.239Z</time></trkpt><trkpt lat="44.2086033" lon="11.41962"><ele>554.0</ele><time>2026-04-04T10:53:16.24Z</time></trkpt><trkpt lat="44.2086917" lon="11.4195083"><ele>554.0</ele><time>2026-04-04T10:53:18.24Z</time></trkpt><trkpt lat="44.2087433" lon="11.4194467"><ele>554.0</ele><time>2026-04-04T10:53:19.239Z</time></trkpt><trkpt lat="44.2088117" lon="11.419425"><ele>554.0</ele><time>2026-04-04T10:53:20.239Z</time></trkpt><trkpt lat="44.2089533" lon="11.4195017"><ele>554.0</ele><time>2026-04-04T10:53:22.239Z</time></trkpt><trkpt lat="44.2090033" lon="11.41957"><ele>553.3333333333333</ele><time>2026-04-04T10:53:23.24Z</time></trkpt><trkpt lat="44.2090183" lon="11.4196583"><ele>552.6666666666666</ele><time>2026-04-04T10:53:24.24Z</time></trkpt><trkpt lat="44.2089983" lon="11.41975"><ele>552.0</ele><time>2026-04-04T10:53:25.239Z</time></trkpt><trkpt lat="44.208965" lon="11.419855"><ele>551.3333333333334</ele><time>2026-04-04T10:53:26.24Z</time></trkpt><trkpt lat="44.2089367" lon="11.4199917"><ele>550.6666666666667</ele><time>2026-04-04T10:53:27.24Z</time></trkpt><trkpt lat="44.2089136" lon="11.4201188"><ele>550.0</ele><time>2026-04-04T10:53:28.239Z</time></trkpt><trkpt lat="44.2089168" lon="11.4202414"><ele>550.0</ele><time>2026-04-04T10:53:29.24Z</time></trkpt><trkpt lat="44.2089454" lon="11.4203494"><ele>550.0</ele><time>2026-04-04T10:53:30.239Z</time></trkpt><trkpt lat="44.2090038" lon="11.4204366"><ele>550.0</ele><time>2026-04-04T10:53:31.239Z</time></trkpt><trkpt lat="44.2090941" lon="11.4205179"><ele>550.0</ele><time>2026-04-04T10:53:32.24Z</time></trkpt><trkpt lat="44.2091967" lon="11.4205835"><ele>550.0</ele><time>2026-04-04T10:53:33.239Z</time></trkpt><trkpt lat="44.2093016" lon="11.4206157"><ele>549.0</ele><time>2026-04-04T10:53:34.24Z</time></trkpt><trkpt lat="44.2094099" lon="11.4206252"><ele>548.0</ele><time>2026-04-04T10:53:35.239Z</time></trkpt><trkpt lat="44.2095212" lon="11.4206247"><ele>547.0</ele><time>2026-04-04T10:53:36.24Z</time></trkpt><trkpt lat="44.2096368" lon="11.4206392"><ele>546.0</ele><time>2026-04-04T10:53:37.24Z</time></trkpt><trkpt lat="44.2097525" lon="11.4206999"><ele>550.5</ele><time>2026-04-04T10:53:38.24Z</time></trkpt><trkpt lat="44.2098621" lon="11.4207977"><ele>555.0</ele><time>2026-04-04T10:53:39.24Z</time></trkpt><trkpt lat="44.2099619" lon="11.4209155"><ele>559.5</ele><time>2026-04-04T10:53:40.24Z</time></trkpt><trkpt lat="44.2100497" lon="11.4210482"><ele>564.0</ele><time>2026-04-04T10:53:41.24Z</time></trkpt><trkpt lat="44.2101268" lon="11.4211458"><ele>564.0</ele><time>2026-04-04T10:53:42.24Z</time></trkpt><trkpt lat="44.2102976" lon="11.4212458"><ele>564.0</ele><time>2026-04-04T10:53:44.239Z</time></trkpt><trkpt lat="44.210391" lon="11.4212769"><ele>564.0</ele><time>2026-04-04T10:53:45.239Z</time></trkpt><trkpt lat="44.2104895" lon="11.4212836"><ele>564.0</ele><time>2026-04-04T10:53:46.239Z</time></trkpt><trkpt lat="44.2105809" lon="11.4212661"><ele>566.8</ele><time>2026-04-04T10:53:47.239Z</time></trkpt><trkpt lat="44.2106699" lon="11.4212181"><ele>569.5999999999999</ele><time>2026-04-04T10:53:48.24Z</time></trkpt><trkpt lat="44.2107489" lon="11.4211443"><ele>572.4</ele><time>2026-04-04T10:53:49.239Z</time></trkpt><trkpt lat="44.2108137" lon="11.4210547"><ele>575.1999999999999</ele><time>2026-04-04T10:53:50.24Z</time></trkpt><trkpt lat="44.2108677" lon="11.4209374"><ele>578.0</ele><time>2026-04-04T10:53:51.24Z</time></trkpt><trkpt lat="44.2109214" lon="11.420802"><ele>578.0</ele><time>2026-04-04T10:53:52.24Z</time></trkpt><trkpt lat="44.2109747" lon="11.4206873"><ele>578.0</ele><time>2026-04-04T10:53:53.24Z</time></trkpt><trkpt lat="44.2110447" lon="11.4205905"><ele>578.0</ele><time>2026-04-04T10:53:54.239Z</time></trkpt><trkpt lat="44.2111372" lon="11.4205129"><ele>578.0</ele><time>2026-04-04T10:53:55.239Z</time></trkpt><trkpt lat="44.2112408" lon="11.4204405"><ele>578.0</ele><time>2026-04-04T10:53:56.24Z</time></trkpt><trkpt lat="44.2113553" lon="11.4203686"><ele>579.8</ele><time>2026-04-04T10:53:57.239Z</time></trkpt><trkpt lat="44.2114686" lon="11.4202923"><ele>581.5999999999999</ele><time>2026-04-04T10:53:58.239Z</time></trkpt><trkpt lat="44.2115633" lon="11.4202469"><ele>583.4000000000001</ele><time>2026-04-04T10:53:59.24Z</time></trkpt><trkpt lat="44.2116488" lon="11.4202455"><ele>585.2</ele><time>2026-04-04T10:54:00.24Z</time></trkpt><trkpt lat="44.2117401" lon="11.4202721"><ele>587.0</ele><time>2026-04-04T10:54:01.24Z</time></trkpt><trkpt lat="44.2118302" lon="11.4203157"><ele>589.8000000000001</ele><time>2026-04-04T10:54:02.24Z</time></trkpt><trkpt lat="44.2119257" lon="11.4203537"><ele>592.6</ele><time>2026-04-04T10:54:03.24Z</time></trkpt><trkpt lat="44.2120266" lon="11.420373"><ele>595.4000000000001</ele><time>2026-04-04T10:54:04.24Z</time></trkpt><trkpt lat="44.2121301" lon="11.4203659"><ele>598.2</ele><time>2026-04-04T10:54:05.239Z</time></trkpt><trkpt lat="44.2122389" lon="11.4203197"><ele>601.0</ele><time>2026-04-04T10:54:06.24Z</time></trkpt><trkpt lat="44.2123518" lon="11.420245"><ele>603.0</ele><time>2026-04-04T10:54:07.239Z</time></trkpt><trkpt lat="44.2124691" lon="11.420153"><ele>605.0</ele><time>2026-04-04T10:54:08.24Z</time></trkpt><trkpt lat="44.2125876" lon="11.4200434"><ele>607.0</ele><time>2026-04-04T10:54:09.239Z</time></trkpt><trkpt lat="44.2127" lon="11.419916"><ele>609.0</ele><time>2026-04-04T10:54:10.239Z</time></trkpt><trkpt lat="44.2128112" lon="11.4197742"><ele>610.6666666666666</ele><time>2026-04-04T10:54:11.24Z</time></trkpt><trkpt lat="44.2129258" lon="11.419623"><ele>612.3333333333333</ele><time>2026-04-04T10:54:12.239Z</time></trkpt><trkpt lat="44.2130463" lon="11.4194752"><ele>614.0</ele><time>2026-04-04T10:54:13.24Z</time></trkpt><trkpt lat="44.2131569" lon="11.4193228"><ele>614.5</ele><time>2026-04-04T10:54:14.239Z</time></trkpt><trkpt lat="44.2132555" lon="11.4191705"><ele>615.0</ele><time>2026-04-04T10:54:15.239Z</time></trkpt><trkpt lat="44.213331" lon="11.4190165"><ele>615.5</ele><time>2026-04-04T10:54:16.24Z</time></trkpt><trkpt lat="44.2133864" lon="11.4188434"><ele>616.0</ele><time>2026-04-04T10:54:17.24Z</time></trkpt><trkpt lat="44.2134381" lon="11.4186573"><ele>617.5</ele><time>2026-04-04T10:54:18.239Z</time></trkpt><trkpt lat="44.2134911" lon="11.4184955"><ele>619.0</ele><time>2026-04-04T10:54:19.239Z</time></trkpt><trkpt lat="44.2135628" lon="11.4183604"><ele>620.5</ele><time>2026-04-04T10:54:20.24Z</time></trkpt><trkpt lat="44.2136575" lon="11.4182571"><ele>622.0</ele><time>2026-04-04T10:54:21.24Z</time></trkpt><trkpt lat="44.2137597" lon="11.4181677"><ele>622.0</ele><time>2026-04-04T10:54:22.24Z</time></trkpt><trkpt lat="44.2138682" lon="11.4180819"><ele>622.0</ele><time>2026-04-04T10:54:23.24Z</time></trkpt><trkpt lat="44.2139757" lon="11.4179887"><ele>622.0</ele><time>2026-04-04T10:54:24.239Z</time></trkpt><trkpt lat="44.2140871" lon="11.417881"><ele>622.0</ele><time>2026-04-04T10:54:25.24Z</time></trkpt><trkpt lat="44.2143122" lon="11.4176357"><ele>627.6666666666667</ele><time>2026-04-04T10:54:27.239Z</time></trkpt><trkpt lat="44.2144178" lon="11.417488"><ele>633.3333333333334</ele><time>2026-04-04T10:54:28.239Z</time></trkpt><trkpt lat="44.2145222" lon="11.4173193"><ele>639.0</ele><time>2026-04-04T10:54:29.24Z</time></trkpt><trkpt lat="44.2146351" lon="11.4171565"><ele>642.5</ele><time>2026-04-04T10:54:30.24Z</time></trkpt><trkpt lat="44.2147528" lon="11.417019"><ele>646.0</ele><time>2026-04-04T10:54:31.24Z</time></trkpt><trkpt lat="44.2148817" lon="11.4169031"><ele>649.5</ele><time>2026-04-04T10:54:32.239Z</time></trkpt><trkpt lat="44.2150094" lon="11.4168223"><ele>653.0</ele><time>2026-04-04T10:54:33.24Z</time></trkpt><trkpt lat="44.2151172" lon="11.4167471"><ele>653.3333333333333</ele><time>2026-04-04T10:54:34.239Z</time></trkpt><trkpt lat="44.2152465" lon="11.4165642"><ele>653.6666666666666</ele><time>2026-04-04T10:54:36.24Z</time></trkpt><trkpt lat="44.215322" lon="11.4163152"><ele>654.0</ele><time>2026-04-04T10:54:38.24Z</time></trkpt><trkpt lat="44.2153672" lon="11.4161922"><ele>656.0</ele><time>2026-04-04T10:54:39.239Z</time></trkpt><trkpt lat="44.2154283" lon="11.4160662"><ele>658.0</ele><time>2026-04-04T10:54:40.24Z</time></trkpt><trkpt lat="44.2155076" lon="11.415945"><ele>660.0</ele><time>2026-04-04T10:54:41.24Z</time></trkpt><trkpt lat="44.2155926" lon="11.4158373"><ele>662.0</ele><time>2026-04-04T10:54:42.24Z</time></trkpt><trkpt lat="44.2156635" lon="11.4157472"><ele>664.0</ele><time>2026-04-04T10:54:43.24Z</time></trkpt><trkpt lat="44.2157047" lon="11.4156604"><ele>664.0</ele><time>2026-04-04T10:54:44.24Z</time></trkpt><trkpt lat="44.2157144" lon="11.4155707"><ele>664.0</ele><time>2026-04-04T10:54:45.24Z</time></trkpt><trkpt lat="44.2156349" lon="11.4154864"><ele>664.0</ele><time>2026-04-04T10:54:47.24Z</time></trkpt><trkpt lat="44.2155552" lon="11.4155207"><ele>664.0</ele><time>2026-04-04T10:54:48.24Z</time></trkpt><trkpt lat="44.2154672" lon="11.4155942"><ele>664.0</ele><time>2026-04-04T10:54:49.239Z</time></trkpt><trkpt lat="44.2153682" lon="11.4156799"><ele>665.75</ele><time>2026-04-04T10:54:50.24Z</time></trkpt><trkpt lat="44.2152523" lon="11.4157424"><ele>667.5</ele><time>2026-04-04T10:54:51.24Z</time></trkpt><trkpt lat="44.2151346" lon="11.4157656"><ele>669.25</ele><time>2026-04-04T10:54:52.24Z</time></trkpt><trkpt lat="44.2150173" lon="11.4157609"><ele>671.0</ele><time>2026-04-04T10:54:53.24Z</time></trkpt><trkpt lat="44.2148927" lon="11.4157411"><ele>669.75</ele><time>2026-04-04T10:54:54.24Z</time></trkpt><trkpt lat="44.2147661" lon="11.41572"><ele>668.5</ele><time>2026-04-04T10:54:55.239Z</time></trkpt><trkpt lat="44.2146394" lon="11.4157116"><ele>667.25</ele><time>2026-04-04T10:54:56.24Z</time></trkpt><trkpt lat="44.2145251" lon="11.4157149"><ele>666.0</ele><time>2026-04-04T10:54:57.24Z</time></trkpt><trkpt lat="44.2144179" lon="11.4156663"><ele>666.0</ele><time>2026-04-04T10:54:59.24Z</time></trkpt><trkpt lat="44.2144473" lon="11.4155322"><ele>666.0</ele><time>2026-04-04T10:55:01.24Z</time></trkpt><trkpt lat="44.214511" lon="11.4154531"><ele>666.0</ele><time>2026-04-04T10:55:02.24Z</time></trkpt><trkpt lat="44.2146024" lon="11.4153624"><ele>666.0</ele><time>2026-04-04T10:55:03.24Z</time></trkpt><trkpt lat="44.2147072" lon="11.4152677"><ele>666.0</ele><time>2026-04-04T10:55:04.239Z</time></trkpt><trkpt lat="44.2148149" lon="11.4151611"><ele>669.75</ele><time>2026-04-04T10:55:05.239Z</time></trkpt><trkpt lat="44.2149156" lon="11.4150442"><ele>673.5</ele><time>2026-04-04T10:55:06.239Z</time></trkpt><trkpt lat="44.2150202" lon="11.4149312"><ele>677.25</ele><time>2026-04-04T10:55:07.24Z</time></trkpt><trkpt lat="44.2151256" lon="11.4148087"><ele>681.0</ele><time>2026-04-04T10:55:08.24Z</time></trkpt><trkpt lat="44.2152319" lon="11.4146768"><ele>680.5</ele><time>2026-04-04T10:55:09.24Z</time></trkpt><trkpt lat="44.215343" lon="11.4145404"><ele>680.0</ele><time>2026-04-04T10:55:10.24Z</time></trkpt><trkpt lat="44.2154469" lon="11.4144013"><ele>679.5</ele><time>2026-04-04T10:55:11.239Z</time></trkpt><trkpt lat="44.2155456" lon="11.414271"><ele>679.0</ele><time>2026-04-04T10:55:12.24Z</time></trkpt><trkpt lat="44.2156277" lon="11.4141419"><ele>680.25</ele><time>2026-04-04T10:55:13.24Z</time></trkpt><trkpt lat="44.2156846" lon="11.4139847"><ele>681.5</ele><time>2026-04-04T10:55:14.24Z</time></trkpt><trkpt lat="44.2157312" lon="11.4138017"><ele>682.75</ele><time>2026-04-04T10:55:15.239Z</time></trkpt><trkpt lat="44.2157718" lon="11.413602"><ele>684.0</ele><time>2026-04-04T10:55:16.24Z</time></trkpt><trkpt lat="44.2158105" lon="11.4134229"><ele>684.75</ele><time>2026-04-04T10:55:17.24Z</time></trkpt><trkpt lat="44.2158688" lon="11.4132708"><ele>685.5</ele><time>2026-04-04T10:55:18.239Z</time></trkpt><trkpt lat="44.2159515" lon="11.4131405"><ele>686.25</ele><time>2026-04-04T10:55:19.24Z</time></trkpt><trkpt lat="44.216052" lon="11.4130115"><ele>687.0</ele><time>2026-04-04T10:55:20.24Z</time></trkpt><trkpt lat="44.2161675" lon="11.412877"><ele>687.0</ele><time>2026-04-04T10:55:21.24Z</time></trkpt><trkpt lat="44.2162897" lon="11.4127492"><ele>687.0</ele><time>2026-04-04T10:55:22.239Z</time></trkpt><trkpt lat="44.2164148" lon="11.4126311"><ele>687.0</ele><time>2026-04-04T10:55:23.24Z</time></trkpt><trkpt lat="44.2165335" lon="11.412541"><ele>687.0</ele><time>2026-04-04T10:55:24.24Z</time></trkpt><trkpt lat="44.2166574" lon="11.4124795"><ele>688.5</ele><time>2026-04-04T10:55:25.24Z</time></trkpt><trkpt lat="44.2167879" lon="11.4124252"><ele>690.0</ele><time>2026-04-04T10:55:26.239Z</time></trkpt><trkpt lat="44.2169158" lon="11.4123715"><ele>691.5</ele><time>2026-04-04T10:55:27.24Z</time></trkpt><trkpt lat="44.217051" lon="11.4123039"><ele>693.0</ele><time>2026-04-04T10:55:28.24Z</time></trkpt><trkpt lat="44.2171778" lon="11.4122177"><ele>692.5</ele><time>2026-04-04T10:55:29.24Z</time></trkpt><trkpt lat="44.2172884" lon="11.4121184"><ele>692.0</ele><time>2026-04-04T10:55:30.24Z</time></trkpt><trkpt lat="44.2173728" lon="11.4120137"><ele>691.5</ele><time>2026-04-04T10:55:31.24Z</time></trkpt><trkpt lat="44.2174333" lon="11.4118883"><ele>691.0</ele><time>2026-04-04T10:55:32.24Z</time></trkpt><trkpt lat="44.2174774" lon="11.4117436"><ele>694.0</ele><time>2026-04-04T10:55:33.239Z</time></trkpt><trkpt lat="44.2175297" lon="11.4115807"><ele>697.0</ele><time>2026-04-04T10:55:34.24Z</time></trkpt><trkpt lat="44.2175961" lon="11.4114037"><ele>700.0</ele><time>2026-04-04T10:55:35.24Z</time></trkpt><trkpt lat="44.2176601" lon="11.4112303"><ele>703.0</ele><time>2026-04-04T10:55:36.239Z</time></trkpt><trkpt lat="44.2177263" lon="11.4110526"><ele>703.6666666666667</ele><time>2026-04-04T10:55:37.24Z</time></trkpt><trkpt lat="44.2177935" lon="11.4108706"><ele>704.3333333333334</ele><time>2026-04-04T10:55:38.24Z</time></trkpt><trkpt lat="44.2178685" lon="11.4106744"><ele>705.0</ele><time>2026-04-04T10:55:39.24Z</time></trkpt><trkpt lat="44.217948" lon="11.4104738"><ele>705.0</ele><time>2026-04-04T10:55:40.24Z</time></trkpt><trkpt lat="44.2180227" lon="11.4102865"><ele>705.0</ele><time>2026-04-04T10:55:41.24Z</time></trkpt><trkpt lat="44.2181018" lon="11.410085"><ele>705.0</ele><time>2026-04-04T10:55:42.24Z</time></trkpt><trkpt lat="44.2181733" lon="11.4098925"><ele>707.75</ele><time>2026-04-04T10:55:43.24Z</time></trkpt><trkpt lat="44.2182516" lon="11.4097315"><ele>710.5</ele><time>2026-04-04T10:55:44.24Z</time></trkpt><trkpt lat="44.218338" lon="11.4096009"><ele>713.25</ele><time>2026-04-04T10:55:45.24Z</time></trkpt><trkpt lat="44.2184355" lon="11.4094809"><ele>716.0</ele><time>2026-04-04T10:55:46.24Z</time></trkpt><trkpt lat="44.2185351" lon="11.4093533"><ele>716.0</ele><time>2026-04-04T10:55:47.239Z</time></trkpt><trkpt lat="44.2186288" lon="11.4092134"><ele>716.0</ele><time>2026-04-04T10:55:48.239Z</time></trkpt><trkpt lat="44.2187275" lon="11.4090728"><ele>716.0</ele><time>2026-04-04T10:55:49.239Z</time></trkpt><trkpt lat="44.2188295" lon="11.408927"><ele>716.0</ele><time>2026-04-04T10:55:50.239Z</time></trkpt><trkpt lat="44.2189254" lon="11.4087812"><ele>719.5</ele><time>2026-04-04T10:55:51.239Z</time></trkpt><trkpt lat="44.219019" lon="11.4086444"><ele>723.0</ele><time>2026-04-04T10:55:52.24Z</time></trkpt><trkpt lat="44.2191065" lon="11.4085089"><ele>726.5</ele><time>2026-04-04T10:55:53.24Z</time></trkpt><trkpt lat="44.2192022" lon="11.4083686"><ele>730.0</ele><time>2026-04-04T10:55:54.239Z</time></trkpt><trkpt lat="44.2192984" lon="11.4082293"><ele>730.0</ele><time>2026-04-04T10:55:55.24Z</time></trkpt><trkpt lat="44.2193962" lon="11.4080848"><ele>730.0</ele><time>2026-04-04T10:55:56.239Z</time></trkpt><trkpt lat="44.2194839" lon="11.40795"><ele>730.0</ele><time>2026-04-04T10:55:57.24Z</time></trkpt><trkpt lat="44.2195577" lon="11.407851"><ele>730.0</ele><time>2026-04-04T10:55:58.24Z</time></trkpt><trkpt lat="44.2196146" lon="11.4077884"><ele>730.0</ele><time>2026-04-04T10:55:59.239Z</time></trkpt><trkpt lat="44.2196793" lon="11.4076686"><ele>730.1428571428572</ele><time>2026-04-04T10:56:01.239Z</time></trkpt><trkpt lat="44.2197011" lon="11.4075844"><ele>730.2857142857143</ele><time>2026-04-04T10:56:02.24Z</time></trkpt><trkpt lat="44.2197202" lon="11.4074989"><ele>730.4285714285714</ele><time>2026-04-04T10:56:03.239Z</time></trkpt><trkpt lat="44.2197386" lon="11.4074091"><ele>730.5714285714287</ele><time>2026-04-04T10:56:04.24Z</time></trkpt><trkpt lat="44.2197597" lon="11.4073087"><ele>730.7142857142857</ele><time>2026-04-04T10:56:05.24Z</time></trkpt><trkpt lat="44.219785" lon="11.4072061"><ele>730.8571428571429</ele><time>2026-04-04T10:56:06.239Z</time></trkpt><trkpt lat="44.2198097" lon="11.4071227"><ele>731.0</ele><time>2026-04-04T10:56:07.24Z</time></trkpt><trkpt lat="44.2198326" lon="11.407015"><ele>732.3333333333333</ele><time>2026-04-04T10:56:09.24Z</time></trkpt><trkpt lat="44.2198556" lon="11.4069061"><ele>733.6666666666666</ele><time>2026-04-04T10:56:13.24Z</time></trkpt><trkpt lat="44.2198755" lon="11.4067746"><ele>735.0</ele><time>2026-04-04T10:56:16.239Z</time></trkpt><trkpt lat="44.2199018" lon="11.4066461"><ele>736.3333333333334</ele><time>2026-04-04T10:56:18.239Z</time></trkpt><trkpt lat="44.219929" lon="11.406558"><ele>737.6666666666667</ele><time>2026-04-04T10:56:19.24Z</time></trkpt><trkpt lat="44.2199611" lon="11.4064506"><ele>739.0</ele><time>2026-04-04T10:56:20.24Z</time></trkpt><trkpt lat="44.2199975" lon="11.4063157"><ele>739.8000000000001</ele><time>2026-04-04T10:56:21.24Z</time></trkpt><trkpt lat="44.220032" lon="11.4061778"><ele>740.6</ele><time>2026-04-04T10:56:22.24Z</time></trkpt><trkpt lat="44.2200605" lon="11.4060423"><ele>741.4</ele><time>2026-04-04T10:56:23.239Z</time></trkpt><trkpt lat="44.2200912" lon="11.4059023"><ele>742.2</ele><time>2026-04-04T10:56:24.24Z</time></trkpt><trkpt lat="44.2201261" lon="11.4057614"><ele>743.0</ele><time>2026-04-04T10:56:25.24Z</time></trkpt><trkpt lat="44.2201649" lon="11.405619"><ele>744.0</ele><time>2026-04-04T10:56:26.24Z</time></trkpt><trkpt lat="44.2202028" lon="11.4054855"><ele>745.0</ele><time>2026-04-04T10:56:27.239Z</time></trkpt><trkpt lat="44.2202307" lon="11.4053557"><ele>746.0</ele><time>2026-04-04T10:56:28.24Z</time></trkpt><trkpt lat="44.2202635" lon="11.4052385"><ele>747.0</ele><time>2026-04-04T10:56:29.24Z</time></trkpt><trkpt lat="44.220292" lon="11.4051262"><ele>748.0</ele><time>2026-04-04T10:56:30.24Z</time></trkpt><trkpt lat="44.2203189" lon="11.405021"><ele>748.0</ele><time>2026-04-04T10:56:31.24Z</time></trkpt><trkpt lat="44.2203476" lon="11.4049245"><ele>748.0</ele><time>2026-04-04T10:56:32.24Z</time></trkpt><trkpt lat="44.2203765" lon="11.4048285"><ele>748.0</ele><time>2026-04-04T10:56:33.239Z</time></trkpt><trkpt lat="44.220412" lon="11.4047299"><ele>748.0</ele><time>2026-04-04T10:56:34.239Z</time></trkpt><trkpt lat="44.2204571" lon="11.4046346"><ele>748.0</ele><time>2026-04-04T10:56:35.24Z</time></trkpt><trkpt lat="44.2205067" lon="11.4045613"><ele>748.0</ele><time>2026-04-04T10:56:36.24Z</time></trkpt><trkpt lat="44.2205488" lon="11.4044904"><ele>748.0</ele><time>2026-04-04T10:56:37.24Z</time></trkpt><trkpt lat="44.2205842" lon="11.4044102"><ele>747.8571428571428</ele><time>2026-04-04T10:56:38.24Z</time></trkpt><trkpt lat="44.2206118" lon="11.4043212"><ele>747.7142857142858</ele><time>2026-04-04T10:56:39.24Z</time></trkpt><trkpt lat="44.2206426" lon="11.4042262"><ele>747.5714285714286</ele><time>2026-04-04T10:56:40.239Z</time></trkpt><trkpt lat="44.2206786" lon="11.4041217"><ele>747.4285714285713</ele><time>2026-04-04T10:56:41.239Z</time></trkpt><trkpt lat="44.2207158" lon="11.4040265"><ele>747.2857142857142</ele><time>2026-04-04T10:56:42.24Z</time></trkpt><trkpt lat="44.2207508" lon="11.4039359"><ele>747.1428571428571</ele><time>2026-04-04T10:56:43.239Z</time></trkpt><trkpt lat="44.2207863" lon="11.4038564"><ele>747.0</ele><time>2026-04-04T10:56:44.24Z</time></trkpt><trkpt lat="44.220822" lon="11.4037768"><ele>750.5</ele><time>2026-04-04T10:56:45.239Z</time></trkpt><trkpt lat="44.220857" lon="11.4036852"><ele>754.0</ele><time>2026-04-04T10:56:46.24Z</time></trkpt><trkpt lat="44.2208923" lon="11.4035762"><ele>757.5</ele><time>2026-04-04T10:56:47.24Z</time></trkpt><trkpt lat="44.2209243" lon="11.4034588"><ele>761.0</ele><time>2026-04-04T10:56:48.24Z</time></trkpt><trkpt lat="44.2209533" lon="11.4033568"><ele>764.5</ele><time>2026-04-04T10:56:49.239Z</time></trkpt><trkpt lat="44.2209684" lon="11.4031985"><ele>768.0</ele><time>2026-04-04T10:56:51.24Z</time></trkpt><trkpt lat="44.2209602" lon="11.4030938"><ele>769.0</ele><time>2026-04-04T10:56:52.24Z</time></trkpt><trkpt lat="44.2209495" lon="11.4029779"><ele>770.0</ele><time>2026-04-04T10:56:53.239Z</time></trkpt><trkpt lat="44.2209374" lon="11.4028625"><ele>771.0</ele><time>2026-04-04T10:56:54.24Z</time></trkpt><trkpt lat="44.2209245" lon="11.4027432"><ele>772.0</ele><time>2026-04-04T10:56:55.239Z</time></trkpt><trkpt lat="44.2209172" lon="11.4026482"><ele>773.0</ele><time>2026-04-04T10:56:56.24Z</time></trkpt><trkpt lat="44.2209627" lon="11.4025247"><ele>774.0</ele><time>2026-04-04T10:56:58.24Z</time></trkpt><trkpt lat="44.2209844" lon="11.4024046"><ele>774.0</ele><time>2026-04-04T10:57:00.24Z</time></trkpt><trkpt lat="44.220911" lon="11.4022961"><ele>774.0</ele><time>2026-04-04T10:57:02.24Z</time></trkpt><trkpt lat="44.2208527" lon="11.4022591"><ele>774.0</ele><time>2026-04-04T10:57:03.24Z</time></trkpt><trkpt lat="44.220747" lon="11.4021949"><ele>774.0</ele><time>2026-04-04T10:57:05.239Z</time></trkpt><trkpt lat="44.2206459" lon="11.4021126"><ele>774.0</ele><time>2026-04-04T10:57:07.24Z</time></trkpt><trkpt lat="44.2205933" lon="11.4020419"><ele>773.0</ele><time>2026-04-04T10:57:08.24Z</time></trkpt><trkpt lat="44.2205521" lon="11.4019639"><ele>772.0</ele><time>2026-04-04T10:57:09.24Z</time></trkpt><trkpt lat="44.2205213" lon="11.4018616"><ele>771.0</ele><time>2026-04-04T10:57:10.24Z</time></trkpt><trkpt lat="44.2205061" lon="11.4017666"><ele>770.0</ele><time>2026-04-04T10:57:11.239Z</time></trkpt><trkpt lat="44.2205119" lon="11.4016149"><ele>769.0</ele><time>2026-04-04T10:57:13.239Z</time></trkpt><trkpt lat="44.2205054" lon="11.4015241"><ele>768.0</ele><time>2026-04-04T10:57:16.239Z</time></trkpt><trkpt lat="44.220492" lon="11.4013987"><ele>768.0</ele><time>2026-04-04T10:57:20.24Z</time></trkpt><trkpt lat="44.2205012" lon="11.4012845"><ele>768.0</ele><time>2026-04-04T10:57:28.24Z</time></trkpt><trkpt lat="44.2205274" lon="11.4011763"><ele>768.0</ele><time>2026-04-04T10:57:47.24Z</time></trkpt><trkpt lat="44.2205461" lon="11.401026"><ele>768.0</ele><time>2026-04-04T10:57:50.24Z</time></trkpt><trkpt lat="44.2205783" lon="11.4008772"><ele>768.0</ele><time>2026-04-04T10:57:52.24Z</time></trkpt><trkpt lat="44.2205862" lon="11.4007849"><ele>768.0</ele><time>2026-04-04T10:57:53.24Z</time></trkpt><trkpt lat="44.2205854" lon="11.4006481"><ele>768.0</ele><time>2026-04-04T10:57:55.24Z</time></trkpt><trkpt lat="44.2206006" lon="11.40055"><ele>768.0</ele><time>2026-04-04T10:57:57.24Z</time></trkpt><trkpt lat="44.2206392" lon="11.4004045"><ele>768.0</ele><time>2026-04-04T10:57:59.239Z</time></trkpt><trkpt lat="44.2206756" lon="11.4003066"><ele>768.0</ele><time>2026-04-04T10:58:00.239Z</time></trkpt><trkpt lat="44.220703" lon="11.4002086"><ele>768.0</ele><time>2026-04-04T10:58:01.24Z</time></trkpt><trkpt lat="44.2207152" lon="11.4001175"><ele>769.4</ele><time>2026-04-04T10:58:02.24Z</time></trkpt><trkpt lat="44.2206706" lon="11.3999685"><ele>770.8</ele><time>2026-04-04T10:58:04.24Z</time></trkpt><trkpt lat="44.2206205" lon="11.3999139"><ele>772.2</ele><time>2026-04-04T10:58:05.239Z</time></trkpt><trkpt lat="44.2205624" lon="11.399873"><ele>773.6</ele><time>2026-04-04T10:58:06.239Z</time></trkpt><trkpt lat="44.22045" lon="11.399848"><ele>775.0</ele><time>2026-04-04T10:58:08.241Z</time></trkpt><trkpt lat="44.2203489" lon="11.3997932"><ele>775.0</ele><time>2026-04-04T10:58:10.24Z</time></trkpt><trkpt lat="44.2202873" lon="11.3996864"><ele>775.0</ele><time>2026-04-04T10:58:12.241Z</time></trkpt><trkpt lat="44.2202295" lon="11.3995828"><ele>775.0</ele><time>2026-04-04T10:58:14.241Z</time></trkpt><trkpt lat="44.2201672" lon="11.3994475"><ele>775.0</ele><time>2026-04-04T10:58:16.24Z</time></trkpt><trkpt lat="44.2201262" lon="11.3992978"><ele>775.0</ele><time>2026-04-04T10:58:18.241Z</time></trkpt><trkpt lat="44.2201427" lon="11.3991689"><ele>777.8</ele><time>2026-04-04T10:58:20.24Z</time></trkpt><trkpt lat="44.2202326" lon="11.3990849"><ele>780.6</ele><time>2026-04-04T10:58:22.24Z</time></trkpt><trkpt lat="44.2203008" lon="11.3989643"><ele>783.4000000000001</ele><time>2026-04-04T10:58:24.24Z</time></trkpt><trkpt lat="44.2203641" lon="11.3988656"><ele>786.2</ele><time>2026-04-04T10:58:26.24Z</time></trkpt><trkpt lat="44.2204785" lon="11.3988096"><ele>789.0</ele><time>2026-04-04T10:58:28.241Z</time></trkpt><trkpt lat="44.220562" lon="11.3986694"><ele>791.4000000000001</ele><time>2026-04-04T10:58:30.241Z</time></trkpt><trkpt lat="44.2205917" lon="11.3985687"><ele>793.8</ele><time>2026-04-04T10:58:31.24Z</time></trkpt><trkpt lat="44.2206133" lon="11.3984575"><ele>796.2</ele><time>2026-04-04T10:58:32.241Z</time></trkpt><trkpt lat="44.2206245" lon="11.3983281"><ele>798.5999999999999</ele><time>2026-04-04T10:58:33.241Z</time></trkpt><trkpt lat="44.2206288" lon="11.3981844"><ele>801.0</ele><time>2026-04-04T10:58:34.241Z</time></trkpt><trkpt lat="44.2206295" lon="11.398052"><ele>801.0</ele><time>2026-04-04T10:58:35.241Z</time></trkpt><trkpt lat="44.220625" lon="11.3979373"><ele>801.0</ele><time>2026-04-04T10:58:36.241Z</time></trkpt><trkpt lat="44.2206102" lon="11.397825"><ele>801.0</ele><time>2026-04-04T10:58:37.241Z</time></trkpt><trkpt lat="44.2205792" lon="11.3977145"><ele>801.0</ele><time>2026-04-04T10:58:38.24Z</time></trkpt><trkpt lat="44.2205334" lon="11.3975961"><ele>801.0</ele><time>2026-04-04T10:58:39.241Z</time></trkpt><trkpt lat="44.2204898" lon="11.3974766"><ele>801.0</ele><time>2026-04-04T10:58:40.24Z</time></trkpt><trkpt lat="44.2204635" lon="11.3973549"><ele>801.0</ele><time>2026-04-04T10:58:41.241Z</time></trkpt><trkpt lat="44.2204529" lon="11.3972159"><ele>801.0</ele><time>2026-04-04T10:58:42.241Z</time></trkpt><trkpt lat="44.2204444" lon="11.3970697"><ele>801.0</ele><time>2026-04-04T10:58:43.241Z</time></trkpt><trkpt lat="44.2204284" lon="11.3969231"><ele>801.0</ele><time>2026-04-04T10:58:44.241Z</time></trkpt><trkpt lat="44.2204003" lon="11.3967538"><ele>801.0</ele><time>2026-04-04T10:58:45.24Z</time></trkpt><trkpt lat="44.2203657" lon="11.3965893"><ele>801.5</ele><time>2026-04-04T10:58:46.241Z</time></trkpt><trkpt lat="44.2203369" lon="11.3964563"><ele>802.0</ele><time>2026-04-04T10:58:47.24Z</time></trkpt><trkpt lat="44.220317" lon="11.3963508"><ele>802.5</ele><time>2026-04-04T10:58:48.241Z</time></trkpt><trkpt lat="44.2202958" lon="11.3962587"><ele>803.0</ele><time>2026-04-04T10:58:49.24Z</time></trkpt><trkpt lat="44.2202605" lon="11.3961697"><ele>803.5</ele><time>2026-04-04T10:58:50.241Z</time></trkpt><trkpt lat="44.2201942" lon="11.3960253"><ele>804.0</ele><time>2026-04-04T10:58:52.241Z</time></trkpt><trkpt lat="44.2201529" lon="11.3959146"><ele>804.7142857142857</ele><time>2026-04-04T10:58:54.241Z</time></trkpt><trkpt lat="44.2201412" lon="11.3958086"><ele>805.4285714285714</ele><time>2026-04-04T10:58:56.24Z</time></trkpt><trkpt lat="44.2201554" lon="11.3957146"><ele>806.1428571428571</ele><time>2026-04-04T10:58:58.241Z</time></trkpt><trkpt lat="44.220164" lon="11.3956272"><ele>806.8571428571429</ele><time>2026-04-04T10:59:00.24Z</time></trkpt><trkpt lat="44.220172" lon="11.3955378"><ele>807.5714285714287</ele><time>2026-04-04T10:59:02.241Z</time></trkpt><trkpt lat="44.2201443" lon="11.3954323"><ele>808.2857142857143</ele><time>2026-04-04T10:59:04.24Z</time></trkpt><trkpt lat="44.2201392" lon="11.3953434"><ele>809.0</ele><time>2026-04-04T11:10:12.241Z</time></trkpt><trkpt lat="44.2201087" lon="11.3952268"><ele>809.0</ele><time>2026-04-04T11:10:14.241Z</time></trkpt><trkpt lat="44.2200695" lon="11.3951298"><ele>809.0</ele><time>2026-04-04T11:10:16.24Z</time></trkpt><trkpt lat="44.2200118" lon="11.3949981"><ele>809.0</ele><time>2026-04-04T11:10:18.241Z</time></trkpt><trkpt lat="44.2199793" lon="11.3949105"><ele>809.0</ele><time>2026-04-04T11:10:19.241Z</time></trkpt><trkpt lat="44.2199573" lon="11.3947677"><ele>809.0</ele><time>2026-04-04T11:10:21.241Z</time></trkpt><trkpt lat="44.2199354" lon="11.3946095"><ele>809.0000000000001</ele><time>2026-04-04T11:10:23.241Z</time></trkpt><trkpt lat="44.2198502" lon="11.3945055"><ele>809.0</ele><time>2026-04-04T11:10:25.24Z</time></trkpt><trkpt lat="44.2197759" lon="11.3944801"><ele>809.0</ele><time>2026-04-04T11:10:26.241Z</time></trkpt><trkpt lat="44.2196947" lon="11.3944672"><ele>809.0</ele><time>2026-04-04T11:10:27.24Z</time></trkpt><trkpt lat="44.2196124" lon="11.3944448"><ele>809.0000000000001</ele><time>2026-04-04T11:10:28.24Z</time></trkpt><trkpt lat="44.2195368" lon="11.3944077"><ele>809.0</ele><time>2026-04-04T11:10:29.241Z</time></trkpt><trkpt lat="44.2194551" lon="11.3943698"><ele>809.0000000000001</ele><time>2026-04-04T11:10:30.24Z</time></trkpt><trkpt lat="44.2193654" lon="11.3943406"><ele>809.0</ele><time>2026-04-04T11:10:31.241Z</time></trkpt><trkpt lat="44.2192736" lon="11.3943261"><ele>809.0</ele><time>2026-04-04T11:10:32.24Z</time></trkpt><trkpt lat="44.2191863" lon="11.3943227"><ele>809.0</ele><time>2026-04-04T11:10:33.24Z</time></trkpt><trkpt lat="44.2191016" lon="11.3943261"><ele>809.0000000000001</ele><time>2026-04-04T11:10:34.241Z</time></trkpt><trkpt lat="44.2190266" lon="11.3943318"><ele>809.0</ele><time>2026-04-04T11:10:35.241Z</time></trkpt><trkpt lat="44.2189604" lon="11.3943404"><ele>810.4000000000001</ele><time>2026-04-04T11:10:36.241Z</time></trkpt><trkpt lat="44.2188596" lon="11.3943323"><ele>811.8</ele><time>2026-04-04T11:10:38.24Z</time></trkpt><trkpt lat="44.2187527" lon="11.3943246"><ele>813.2</ele><time>2026-04-04T11:10:40.24Z</time></trkpt><trkpt lat="44.2186344" lon="11.3943502"><ele>814.5999999999999</ele><time>2026-04-04T11:10:42.24Z</time></trkpt><trkpt lat="44.2185217" lon="11.3943968"><ele>816.0</ele><time>2026-04-04T11:10:44.24Z</time></trkpt><trkpt lat="44.2184652" lon="11.3944409"><ele>816.0</ele><time>2026-04-04T11:10:45.241Z</time></trkpt><trkpt lat="44.2184039" lon="11.3945084"><ele>816.0</ele><time>2026-04-04T11:10:46.24Z</time></trkpt><trkpt lat="44.2183373" lon="11.3945838"><ele>816.0</ele><time>2026-04-04T11:10:47.241Z</time></trkpt><trkpt lat="44.2182696" lon="11.3946627"><ele>816.0</ele><time>2026-04-04T11:10:48.241Z</time></trkpt><trkpt lat="44.2182041" lon="11.3947226"><ele>816.0</ele><time>2026-04-04T11:10:49.241Z</time></trkpt><trkpt lat="44.2181392" lon="11.3947664"><ele>816.0</ele><time>2026-04-04T11:10:50.24Z</time></trkpt><trkpt lat="44.2180741" lon="11.3947679"><ele>817.4</ele><time>2026-04-04T11:10:51.24Z</time></trkpt><trkpt lat="44.2180037" lon="11.3947329"><ele>818.8</ele><time>2026-04-04T11:10:52.24Z</time></trkpt><trkpt lat="44.2179421" lon="11.3946778"><ele>820.1999999999999</ele><time>2026-04-04T11:10:53.241Z</time></trkpt><trkpt lat="44.2178331" lon="11.3946314"><ele>821.5999999999999</ele><time>2026-04-04T11:10:55.241Z</time></trkpt><trkpt lat="44.2177162" lon="11.3946055"><ele>823.0</ele><time>2026-04-04T11:10:57.241Z</time></trkpt><trkpt lat="44.217652" lon="11.3945667"><ele>823.9999999999999</ele><time>2026-04-04T11:10:58.241Z</time></trkpt><trkpt lat="44.2175857" lon="11.3945251"><ele>825.0</ele><time>2026-04-04T11:10:59.241Z</time></trkpt><trkpt lat="44.2175228" lon="11.3945001"><ele>826.0</ele><time>2026-04-04T11:11:00.24Z</time></trkpt><trkpt lat="44.2174202" lon="11.3944821"><ele>827.0</ele><time>2026-04-04T11:11:02.24Z</time></trkpt><trkpt lat="44.2173034" lon="11.3944791"><ele>827.9999999999999</ele><time>2026-04-04T11:11:04.241Z</time></trkpt><trkpt lat="44.2172125" lon="11.3944796"><ele>829.0</ele><time>2026-04-04T11:11:05.24Z</time></trkpt><trkpt lat="44.2171019" lon="11.3944952"><ele>829.5</ele><time>2026-04-04T11:11:06.241Z</time></trkpt><trkpt lat="44.2169857" lon="11.394505"><ele>830.0</ele><time>2026-04-04T11:11:07.24Z</time></trkpt><trkpt lat="44.2168738" lon="11.3944789"><ele>830.5</ele><time>2026-04-04T11:11:08.241Z</time></trkpt><trkpt lat="44.2167625" lon="11.3944295"><ele>831.0</ele><time>2026-04-04T11:11:09.241Z</time></trkpt><trkpt lat="44.2166523" lon="11.394368"><ele>831.0</ele><time>2026-04-04T11:11:10.241Z</time></trkpt><trkpt lat="44.2165497" lon="11.3942958"><ele>831.0</ele><time>2026-04-04T11:11:11.24Z</time></trkpt><trkpt lat="44.2164559" lon="11.3942219"><ele>831.0</ele><time>2026-04-04T11:11:12.241Z</time></trkpt><trkpt lat="44.2163938" lon="11.3941414"><ele>831.0</ele><time>2026-04-04T11:11:13.241Z</time></trkpt><trkpt lat="44.2163585" lon="11.3940539"><ele>831.0</ele><time>2026-04-04T11:11:14.241Z</time></trkpt><trkpt lat="44.2163353" lon="11.39397"><ele>831.0</ele><time>2026-04-04T11:11:15.241Z</time></trkpt><trkpt lat="44.21631" lon="11.3938034"><ele>833.5</ele><time>2026-04-04T11:11:17.241Z</time></trkpt><trkpt lat="44.2162534" lon="11.393661"><ele>836.0</ele><time>2026-04-04T11:11:19.241Z</time></trkpt><trkpt lat="44.2162065" lon="11.3935918"><ele>838.5</ele><time>2026-04-04T11:11:20.24Z</time></trkpt><trkpt lat="44.2161464" lon="11.3935303"><ele>841.0</ele><time>2026-04-04T11:11:21.241Z</time></trkpt><trkpt lat="44.2160816" lon="11.393467"><ele>843.5</ele><time>2026-04-04T11:11:22.24Z</time></trkpt><trkpt lat="44.2160152" lon="11.3933893"><ele>846.0</ele><time>2026-04-04T11:11:23.241Z</time></trkpt><trkpt lat="44.2159584" lon="11.3932805"><ele>846.0</ele><time>2026-04-04T11:11:24.24Z</time></trkpt><trkpt lat="44.2158987" lon="11.3931483"><ele>846.0</ele><time>2026-04-04T11:11:25.241Z</time></trkpt><trkpt lat="44.2158392" lon="11.3930004"><ele>846.0</ele><time>2026-04-04T11:11:26.241Z</time></trkpt><trkpt lat="44.2157723" lon="11.3928349"><ele>846.0</ele><time>2026-04-04T11:11:27.241Z</time></trkpt><trkpt lat="44.2157002" lon="11.3926592"><ele>847.8</ele><time>2026-04-04T11:11:28.241Z</time></trkpt><trkpt lat="44.2156349" lon="11.3925207"><ele>849.5999999999999</ele><time>2026-04-04T11:11:29.24Z</time></trkpt><trkpt lat="44.2155788" lon="11.3924163"><ele>851.4</ele><time>2026-04-04T11:11:30.24Z</time></trkpt><trkpt lat="44.2155215" lon="11.3923325"><ele>853.2</ele><time>2026-04-04T11:11:31.24Z</time></trkpt><trkpt lat="44.215465" lon="11.3922591"><ele>855.0</ele><time>2026-04-04T11:11:32.241Z</time></trkpt><trkpt lat="44.2154034" lon="11.3921828"><ele>853.1666666666666</ele><time>2026-04-04T11:11:33.24Z</time></trkpt><trkpt lat="44.215343" lon="11.3921245"><ele>851.3333333333333</ele><time>2026-04-04T11:11:34.241Z</time></trkpt><trkpt lat="44.2152703" lon="11.3920716"><ele>849.5</ele><time>2026-04-04T11:11:35.241Z</time></trkpt><trkpt lat="44.2151877" lon="11.3920202"><ele>847.6666666666666</ele><time>2026-04-04T11:11:36.241Z</time></trkpt><trkpt lat="44.2151042" lon="11.3919593"><ele>845.8333333333333</ele><time>2026-04-04T11:11:37.241Z</time></trkpt><trkpt lat="44.2150276" lon="11.3918885"><ele>844.0</ele><time>2026-04-04T11:11:38.24Z</time></trkpt><trkpt lat="44.214944" lon="11.3918217"><ele>844.0</ele><time>2026-04-04T11:11:39.241Z</time></trkpt><trkpt lat="44.2148636" lon="11.3917551"><ele>844.0</ele><time>2026-04-04T11:11:40.24Z</time></trkpt><trkpt lat="44.2147737" lon="11.3916769"><ele>844.0</ele><time>2026-04-04T11:11:41.24Z</time></trkpt><trkpt lat="44.2147002" lon="11.3915832"><ele>844.0</ele><time>2026-04-04T11:11:42.24Z</time></trkpt><trkpt lat="44.214624" lon="11.3915054"><ele>844.0</ele><time>2026-04-04T11:11:43.241Z</time></trkpt><trkpt lat="44.2145404" lon="11.3914424"><ele>846.0</ele><time>2026-04-04T11:11:44.24Z</time></trkpt><trkpt lat="44.2144384" lon="11.3913877"><ele>848.0</ele><time>2026-04-04T11:11:45.24Z</time></trkpt><trkpt lat="44.214332" lon="11.3913545"><ele>850.0</ele><time>2026-04-04T11:11:46.241Z</time></trkpt><trkpt lat="44.2142176" lon="11.391358"><ele>852.0</ele><time>2026-04-04T11:11:47.241Z</time></trkpt><trkpt lat="44.2140934" lon="11.3913811"><ele>852.4000000000001</ele><time>2026-04-04T11:11:48.24Z</time></trkpt><trkpt lat="44.2139709" lon="11.3913643"><ele>852.8000000000001</ele><time>2026-04-04T11:11:49.24Z</time></trkpt><trkpt lat="44.2138534" lon="11.391337"><ele>853.2</ele><time>2026-04-04T11:11:50.241Z</time></trkpt><trkpt lat="44.2137447" lon="11.3913189"><ele>853.6</ele><time>2026-04-04T11:11:51.24Z</time></trkpt><trkpt lat="44.2136479" lon="11.3913133"><ele>854.0</ele><time>2026-04-04T11:11:52.24Z</time></trkpt><trkpt lat="44.2135668" lon="11.391299"><ele>854.0</ele><time>2026-04-04T11:11:53.241Z</time></trkpt><trkpt lat="44.2134918" lon="11.3912536"><ele>854.0000000000001</ele><time>2026-04-04T11:11:54.241Z</time></trkpt><trkpt lat="44.213415" lon="11.3911773"><ele>854.0000000000001</ele><time>2026-04-04T11:11:55.241Z</time></trkpt><trkpt lat="44.213338" lon="11.3910762"><ele>854.0</ele><time>2026-04-04T11:11:56.241Z</time></trkpt><trkpt lat="44.2132483" lon="11.3909735"><ele>854.0</ele><time>2026-04-04T11:11:57.24Z</time></trkpt><trkpt lat="44.2131593" lon="11.3908737"><ele>852.75</ele><time>2026-04-04T11:11:58.241Z</time></trkpt><trkpt lat="44.2130602" lon="11.390774"><ele>851.5</ele><time>2026-04-04T11:11:59.24Z</time></trkpt><trkpt lat="44.212958" lon="11.390665"><ele>850.25</ele><time>2026-04-04T11:12:00.241Z</time></trkpt><trkpt lat="44.2128587" lon="11.3905545"><ele>849.0</ele><time>2026-04-04T11:12:01.241Z</time></trkpt><trkpt lat="44.2127819" lon="11.3904655"><ele>851.0</ele><time>2026-04-04T11:12:02.241Z</time></trkpt><trkpt lat="44.2127231" lon="11.3904063"><ele>853.0</ele><time>2026-04-04T11:12:03.241Z</time></trkpt><trkpt lat="44.2126321" lon="11.3903205"><ele>855.0000000000001</ele><time>2026-04-04T11:12:05.24Z</time></trkpt><trkpt lat="44.2125577" lon="11.3902281"><ele>857.0</ele><time>2026-04-04T11:12:07.241Z</time></trkpt><trkpt lat="44.212487" lon="11.3901158"><ele>859.0</ele><time>2026-04-04T11:12:09.241Z</time></trkpt><trkpt lat="44.2124183" lon="11.3900032"><ele>858.9999999999999</ele><time>2026-04-04T11:12:11.24Z</time></trkpt><trkpt lat="44.2123651" lon="11.3898865"><ele>859.0</ele><time>2026-04-04T11:12:13.241Z</time></trkpt><trkpt lat="44.2123313" lon="11.389808"><ele>859.0</ele><time>2026-04-04T11:12:14.241Z</time></trkpt><trkpt lat="44.2122831" lon="11.3897253"><ele>859.0</ele><time>2026-04-04T11:12:15.241Z</time></trkpt><trkpt lat="44.2122296" lon="11.389644"><ele>858.9999999999999</ele><time>2026-04-04T11:12:16.241Z</time></trkpt><trkpt lat="44.2121603" lon="11.3895608"><ele>859.0</ele><time>2026-04-04T11:12:17.24Z</time></trkpt><trkpt lat="44.2120796" lon="11.3894735"><ele>860.0</ele><time>2026-04-04T11:12:18.241Z</time></trkpt><trkpt lat="44.2119811" lon="11.389372"><ele>861.0</ele><time>2026-04-04T11:12:19.24Z</time></trkpt><trkpt lat="44.2118633" lon="11.3892642"><ele>862.0</ele><time>2026-04-04T11:12:20.241Z</time></trkpt><trkpt lat="44.2117308" lon="11.3891788"><ele>863.0</ele><time>2026-04-04T11:12:21.241Z</time></trkpt><trkpt lat="44.2115795" lon="11.3891058"><ele>859.6666666666667</ele><time>2026-04-04T11:12:22.24Z</time></trkpt><trkpt lat="44.2114319" lon="11.3890391"><ele>856.3333333333333</ele><time>2026-04-04T11:12:23.241Z</time></trkpt><trkpt lat="44.211284" lon="11.3889649"><ele>853.0</ele><time>2026-04-04T11:12:24.241Z</time></trkpt><trkpt lat="44.2111336" lon="11.3888976"><ele>854.5</ele><time>2026-04-04T11:12:25.24Z</time></trkpt><trkpt lat="44.2109913" lon="11.3888353"><ele>856.0</ele><time>2026-04-04T11:12:26.24Z</time></trkpt><trkpt lat="44.2108485" lon="11.3887744"><ele>857.5</ele><time>2026-04-04T11:12:27.24Z</time></trkpt><trkpt lat="44.2107212" lon="11.3887012"><ele>859.0</ele><time>2026-04-04T11:12:28.24Z</time></trkpt><trkpt lat="44.210601" lon="11.3886185"><ele>859.3333333333333</ele><time>2026-04-04T11:12:29.24Z</time></trkpt><trkpt lat="44.2104996" lon="11.3885388"><ele>859.6666666666666</ele><time>2026-04-04T11:12:30.241Z</time></trkpt><trkpt lat="44.2104117" lon="11.3884671"><ele>860.0</ele><time>2026-04-04T11:12:31.241Z</time></trkpt><trkpt lat="44.2103496" lon="11.3884117"><ele>860.3333333333333</ele><time>2026-04-04T11:12:32.241Z</time></trkpt><trkpt lat="44.2102978" lon="11.3883531"><ele>860.6666666666666</ele><time>2026-04-04T11:12:33.241Z</time></trkpt><trkpt lat="44.2102353" lon="11.3883043"><ele>861.0</ele><time>2026-04-04T11:12:34.241Z</time></trkpt><trkpt lat="44.2101573" lon="11.3882554"><ele>861.0</ele><time>2026-04-04T11:12:35.24Z</time></trkpt><trkpt lat="44.2100629" lon="11.3882105"><ele>861.0</ele><time>2026-04-04T11:12:36.241Z</time></trkpt><trkpt lat="44.209954" lon="11.3881705"><ele>861.0</ele><time>2026-04-04T11:12:37.241Z</time></trkpt><trkpt lat="44.2098338" lon="11.3881384"><ele>861.0</ele><time>2026-04-04T11:12:38.24Z</time></trkpt><trkpt lat="44.2097002" lon="11.3881045"><ele>861.3333333333333</ele><time>2026-04-04T11:12:39.241Z</time></trkpt><trkpt lat="44.2095471" lon="11.3880719"><ele>861.6666666666666</ele><time>2026-04-04T11:12:40.24Z</time></trkpt><trkpt lat="44.2093798" lon="11.388038"><ele>862.0</ele><time>2026-04-04T11:12:41.241Z</time></trkpt><trkpt lat="44.2092046" lon="11.3879945"><ele>862.0</ele><time>2026-04-04T11:12:42.241Z</time></trkpt><trkpt lat="44.2090283" lon="11.3879502"><ele>862.0</ele><time>2026-04-04T11:12:43.241Z</time></trkpt><trkpt lat="44.2088627" lon="11.3879083"><ele>862.0</ele><time>2026-04-04T11:12:44.241Z</time></trkpt><trkpt lat="44.2087128" lon="11.3878848"><ele>864.0</ele><time>2026-04-04T11:12:45.241Z</time></trkpt><trkpt lat="44.2085617" lon="11.387877"><ele>866.0</ele><time>2026-04-04T11:12:46.241Z</time></trkpt><trkpt lat="44.2084055" lon="11.3878837"><ele>868.0</ele><time>2026-04-04T11:12:47.24Z</time></trkpt><trkpt lat="44.2082508" lon="11.3879081"><ele>870.0</ele><time>2026-04-04T11:12:48.24Z</time></trkpt><trkpt lat="44.2080999" lon="11.3879348"><ele>872.0</ele><time>2026-04-04T11:12:49.24Z</time></trkpt><trkpt lat="44.207955" lon="11.387958"><ele>874.0</ele><time>2026-04-04T11:12:50.241Z</time></trkpt><trkpt lat="44.2078174" lon="11.3879813"><ele>876.0</ele><time>2026-04-04T11:12:51.241Z</time></trkpt><trkpt lat="44.2077026" lon="11.3880085"><ele>876.8333333333334</ele><time>2026-04-04T11:12:52.24Z</time></trkpt><trkpt lat="44.2076079" lon="11.3880554"><ele>877.6666666666667</ele><time>2026-04-04T11:12:53.24Z</time></trkpt><trkpt lat="44.2075388" lon="11.3881157"><ele>878.5</ele><time>2026-04-04T11:12:54.241Z</time></trkpt><trkpt lat="44.2074872" lon="11.3881759"><ele>879.3333333333334</ele><time>2026-04-04T11:12:55.241Z</time></trkpt><trkpt lat="44.207387" lon="11.3882346"><ele>880.1666666666667</ele><time>2026-04-04T11:12:57.241Z</time></trkpt><trkpt lat="44.2073203" lon="11.3882348"><ele>881.0</ele><time>2026-04-04T11:12:58.241Z</time></trkpt><trkpt lat="44.2072495" lon="11.388217"><ele>882.1666666666667</ele><time>2026-04-04T11:12:59.24Z</time></trkpt><trkpt lat="44.207176" lon="11.3881891"><ele>883.3333333333334</ele><time>2026-04-04T11:13:00.241Z</time></trkpt><trkpt lat="44.2070983" lon="11.3881478"><ele>884.5</ele><time>2026-04-04T11:13:01.24Z</time></trkpt><trkpt lat="44.2070054" lon="11.3881138"><ele>885.6666666666667</ele><time>2026-04-04T11:13:02.24Z</time></trkpt><trkpt lat="44.2069223" lon="11.3880973"><ele>886.8333333333334</ele><time>2026-04-04T11:13:03.24Z</time></trkpt><trkpt lat="44.2068355" lon="11.3880752"><ele>888.0</ele><time>2026-04-04T11:13:04.241Z</time></trkpt><trkpt lat="44.2067411" lon="11.3880343"><ele>887.4</ele><time>2026-04-04T11:13:05.24Z</time></trkpt><trkpt lat="44.2066388" lon="11.3880038"><ele>886.8</ele><time>2026-04-04T11:13:06.241Z</time></trkpt><trkpt lat="44.2065311" lon="11.3879905"><ele>886.2</ele><time>2026-04-04T11:13:07.241Z</time></trkpt><trkpt lat="44.2064237" lon="11.3879981"><ele>885.6</ele><time>2026-04-04T11:13:08.241Z</time></trkpt><trkpt lat="44.2063102" lon="11.3880067"><ele>885.0</ele><time>2026-04-04T11:13:09.24Z</time></trkpt><trkpt lat="44.2061903" lon="11.3880025"><ele>887.5</ele><time>2026-04-04T11:13:10.24Z</time></trkpt><trkpt lat="44.2060639" lon="11.3879755"><ele>890.0</ele><time>2026-04-04T11:13:11.24Z</time></trkpt><trkpt lat="44.2059228" lon="11.3879442"><ele>892.5</ele><time>2026-04-04T11:13:12.241Z</time></trkpt><trkpt lat="44.2057983" lon="11.387923"><ele>895.0</ele><time>2026-04-04T11:13:13.24Z</time></trkpt><trkpt lat="44.2056997" lon="11.3879001"><ele>897.3333333333333</ele><time>2026-04-04T11:13:14.241Z</time></trkpt><trkpt lat="44.205627" lon="11.3878578"><ele>899.6666666666666</ele><time>2026-04-04T11:13:15.24Z</time></trkpt><trkpt lat="44.2055538" lon="11.3877897"><ele>902.0</ele><time>2026-04-04T11:13:16.241Z</time></trkpt><trkpt lat="44.2054941" lon="11.387714"><ele>904.3333333333333</ele><time>2026-04-04T11:13:17.241Z</time></trkpt><trkpt lat="44.2054332" lon="11.3876464"><ele>906.6666666666666</ele><time>2026-04-04T11:13:18.24Z</time></trkpt><trkpt lat="44.2053566" lon="11.3875729"><ele>909.0</ele><time>2026-04-04T11:13:19.24Z</time></trkpt><trkpt lat="44.205262" lon="11.3874987"><ele>909.0</ele><time>2026-04-04T11:13:20.241Z</time></trkpt><trkpt lat="44.2051657" lon="11.3874258"><ele>909.0000000000001</ele><time>2026-04-04T11:13:21.241Z</time></trkpt><trkpt lat="44.2050734" lon="11.3873518"><ele>909.0000000000001</ele><time>2026-04-04T11:13:22.241Z</time></trkpt><trkpt lat="44.20499" lon="11.3872828"><ele>909.0</ele><time>2026-04-04T11:13:23.24Z</time></trkpt><trkpt lat="44.2049162" lon="11.3872256"><ele>909.0</ele><time>2026-04-04T11:13:24.241Z</time></trkpt><trkpt lat="44.2048551" lon="11.3871941"><ele>909.5</ele><time>2026-04-04T11:13:25.241Z</time></trkpt><trkpt lat="44.2047907" lon="11.3871848"><ele>910.0</ele><time>2026-04-04T11:13:26.241Z</time></trkpt><trkpt lat="44.2047207" lon="11.3871924"><ele>910.5</ele><time>2026-04-04T11:13:27.241Z</time></trkpt><trkpt lat="44.2046492" lon="11.3872"><ele>911.0</ele><time>2026-04-04T11:13:28.241Z</time></trkpt><trkpt lat="44.2045441" lon="11.3871507"><ele>911.5</ele><time>2026-04-04T11:13:30.241Z</time></trkpt><trkpt lat="44.2045031" lon="11.3869939"><ele>912.0</ele><time>2026-04-04T11:13:32.24Z</time></trkpt><trkpt lat="44.2044381" lon="11.3868384"><ele>913.3333333333334</ele><time>2026-04-04T11:13:34.241Z</time></trkpt><trkpt lat="44.2043815" lon="11.3867455"><ele>914.6666666666667</ele><time>2026-04-04T11:13:35.241Z</time></trkpt><trkpt lat="44.2043285" lon="11.3866485"><ele>916.0</ele><time>2026-04-04T11:13:36.241Z</time></trkpt><trkpt lat="44.2042947" lon="11.3865633"><ele>917.3333333333334</ele><time>2026-04-04T11:13:37.241Z</time></trkpt><trkpt lat="44.2042575" lon="11.3864832"><ele>918.6666666666667</ele><time>2026-04-04T11:13:38.241Z</time></trkpt><trkpt lat="44.2042201" lon="11.3863918"><ele>920.0</ele><time>2026-04-04T11:13:39.24Z</time></trkpt><trkpt lat="44.2041812" lon="11.3863065"><ele>920.0000000000001</ele><time>2026-04-04T11:13:40.24Z</time></trkpt><trkpt lat="44.2041241" lon="11.386202"><ele>920.0</ele><time>2026-04-04T11:13:42.241Z</time></trkpt><trkpt lat="44.2040786" lon="11.3861187"><ele>920.0</ele><time>2026-04-04T11:13:44.241Z</time></trkpt><trkpt lat="44.2040361" lon="11.3860408"><ele>920.0</ele><time>2026-04-04T11:13:46.242Z</time></trkpt><trkpt lat="44.2039665" lon="11.3859671"><ele>920.0000000000001</ele><time>2026-04-04T11:13:48.242Z</time></trkpt><trkpt lat="44.2039135" lon="11.3859119"><ele>920.0</ele><time>2026-04-04T11:13:49.242Z</time></trkpt><trkpt lat="44.2038527" lon="11.3858569"><ele>920.6666666666667</ele><time>2026-04-04T11:13:50.241Z</time></trkpt><trkpt lat="44.2037578" lon="11.385749"><ele>921.3333333333334</ele><time>2026-04-04T11:13:52.242Z</time></trkpt><trkpt lat="44.2037126" lon="11.385678"><ele>922.0</ele><time>2026-04-04T11:13:53.242Z</time></trkpt><trkpt lat="44.203675" lon="11.3856066"><ele>922.6666666666667</ele><time>2026-04-04T11:13:54.242Z</time></trkpt><trkpt lat="44.2035937" lon="11.3854753"><ele>923.3333333333334</ele><time>2026-04-04T11:13:56.241Z</time></trkpt><trkpt lat="44.20354" lon="11.3854199"><ele>924.0</ele><time>2026-04-04T11:13:57.241Z</time></trkpt><trkpt lat="44.2034809" lon="11.3853783"><ele>924.1666666666666</ele><time>2026-04-04T11:13:58.242Z</time></trkpt><trkpt lat="44.2033753" lon="11.3853151"><ele>924.3333333333333</ele><time>2026-04-04T11:14:00.242Z</time></trkpt><trkpt lat="44.2033122" lon="11.3852981"><ele>924.5</ele><time>2026-04-04T11:14:01.242Z</time></trkpt><trkpt lat="44.2032137" lon="11.3852147"><ele>924.6666666666666</ele><time>2026-04-04T11:14:03.241Z</time></trkpt><trkpt lat="44.2031744" lon="11.385133"><ele>924.8333333333333</ele><time>2026-04-04T11:14:04.242Z</time></trkpt><trkpt lat="44.2031334" lon="11.3850583"><ele>925.0</ele><time>2026-04-04T11:14:05.241Z</time></trkpt><trkpt lat="44.2030336" lon="11.3849603"><ele>925.4</ele><time>2026-04-04T11:14:07.242Z</time></trkpt><trkpt lat="44.2029334" lon="11.3848715"><ele>925.8</ele><time>2026-04-04T11:14:09.242Z</time></trkpt><trkpt lat="44.2028192" lon="11.3847876"><ele>926.2</ele><time>2026-04-04T11:14:11.242Z</time></trkpt><trkpt lat="44.2027603" lon="11.3847348"><ele>926.6</ele><time>2026-04-04T11:14:12.242Z</time></trkpt><trkpt lat="44.2026988" lon="11.3846624"><ele>927.0</ele><time>2026-04-04T11:14:13.241Z</time></trkpt><trkpt lat="44.2026405" lon="11.3845779"><ele>927.8</ele><time>2026-04-04T11:14:14.242Z</time></trkpt><trkpt lat="44.2025907" lon="11.3844861"><ele>928.6</ele><time>2026-04-04T11:14:15.242Z</time></trkpt><trkpt lat="44.2025451" lon="11.384348"><ele>929.3999999999999</ele><time>2026-04-04T11:14:17.242Z</time></trkpt><trkpt lat="44.2024875" lon="11.3842361"><ele>930.1999999999999</ele><time>2026-04-04T11:14:19.241Z</time></trkpt><trkpt lat="44.2024453" lon="11.3840984"><ele>931.0</ele><time>2026-04-04T11:14:21.241Z</time></trkpt><trkpt lat="44.2024207" lon="11.3840114"><ele>930.9999999999999</ele><time>2026-04-04T11:14:22.241Z</time></trkpt><trkpt lat="44.2023828" lon="11.3839233"><ele>931.0</ele><time>2026-04-04T11:14:23.242Z</time></trkpt><trkpt lat="44.2023316" lon="11.3838434"><ele>931.0</ele><time>2026-04-04T11:14:24.241Z</time></trkpt><trkpt lat="44.2022715" lon="11.3837707"><ele>931.0</ele><time>2026-04-04T11:14:25.241Z</time></trkpt><trkpt lat="44.2022232" lon="11.3836881"><ele>930.9999999999999</ele><time>2026-04-04T11:14:26.242Z</time></trkpt><trkpt lat="44.2021869" lon="11.3835911"><ele>931.0</ele><time>2026-04-04T11:14:27.241Z</time></trkpt><trkpt lat="44.2021467" lon="11.383495"><ele>931.4999999999999</ele><time>2026-04-04T11:14:28.242Z</time></trkpt><trkpt lat="44.2021032" lon="11.3834003"><ele>932.0</ele><time>2026-04-04T11:14:29.241Z</time></trkpt><trkpt lat="44.2020746" lon="11.3833078"><ele>932.5</ele><time>2026-04-04T11:14:30.241Z</time></trkpt><trkpt lat="44.202049" lon="11.3832061"><ele>933.0</ele><time>2026-04-04T11:14:31.241Z</time></trkpt><trkpt lat="44.2020199" lon="11.3831121"><ele>933.4999999999999</ele><time>2026-04-04T11:14:32.241Z</time></trkpt><trkpt lat="44.2019715" lon="11.3830362"><ele>934.0</ele><time>2026-04-04T11:14:33.241Z</time></trkpt><trkpt lat="44.2018996" lon="11.382957"><ele>933.9999999999999</ele><time>2026-04-04T11:14:34.242Z</time></trkpt><trkpt lat="44.2018361" lon="11.3828868"><ele>934.0</ele><time>2026-04-04T11:14:35.242Z</time></trkpt><trkpt lat="44.2017798" lon="11.3828315"><ele>934.0</ele><time>2026-04-04T11:14:36.241Z</time></trkpt><trkpt lat="44.2017259" lon="11.3827655"><ele>934.0</ele><time>2026-04-04T11:14:37.242Z</time></trkpt><trkpt lat="44.2016789" lon="11.3826842"><ele>933.9999999999999</ele><time>2026-04-04T11:14:38.242Z</time></trkpt><trkpt lat="44.2016313" lon="11.3826069"><ele>934.0</ele><time>2026-04-04T11:14:39.241Z</time></trkpt><trkpt lat="44.2015607" lon="11.3825403"><ele>934.3333333333333</ele><time>2026-04-04T11:14:41.242Z</time></trkpt><trkpt lat="44.2014842" lon="11.3825139"><ele>934.6666666666666</ele><time>2026-04-04T11:14:43.242Z</time></trkpt><trkpt lat="44.2014076" lon="11.3824204"><ele>935.0</ele><time>2026-04-04T11:14:45.242Z</time></trkpt><trkpt lat="44.2013613" lon="11.3823448"><ele>935.3333333333333</ele><time>2026-04-04T11:14:46.241Z</time></trkpt><trkpt lat="44.2013183" lon="11.3822733"><ele>935.6666666666666</ele><time>2026-04-04T11:14:47.242Z</time></trkpt><trkpt lat="44.2012663" lon="11.3821322"><ele>936.0</ele><time>2026-04-04T11:14:49.241Z</time></trkpt><trkpt lat="44.2011987" lon="11.3820057"><ele>936.0</ele><time>2026-04-04T11:14:51.242Z</time></trkpt><trkpt lat="44.2011103" lon="11.3819242"><ele>935.9999999999999</ele><time>2026-04-04T11:14:53.242Z</time></trkpt><trkpt lat="44.2010097" lon="11.3818551"><ele>935.9999999999999</ele><time>2026-04-04T11:14:55.241Z</time></trkpt><trkpt lat="44.2009277" lon="11.3817544"><ele>936.0</ele><time>2026-04-04T11:14:57.241Z</time></trkpt><trkpt lat="44.2008789" lon="11.381693"><ele>936.0</ele><time>2026-04-04T11:14:58.242Z</time></trkpt><trkpt lat="44.2008223" lon="11.3816329"><ele>936.0</ele><time>2026-04-04T11:14:59.242Z</time></trkpt><trkpt lat="44.2007683" lon="11.3815817"><ele>936.0</ele><time>2026-04-04T11:15:00.242Z</time></trkpt><trkpt lat="44.2007104" lon="11.3815146"><ele>936.0</ele><time>2026-04-04T11:15:01.241Z</time></trkpt><trkpt lat="44.2006365" lon="11.3814381"><ele>936.0</ele><time>2026-04-04T11:15:02.242Z</time></trkpt><trkpt lat="44.2005595" lon="11.3813585"><ele>936.0</ele><time>2026-04-04T11:15:03.242Z</time></trkpt><trkpt lat="44.2004993" lon="11.3812884"><ele>936.0</ele><time>2026-04-04T11:15:04.242Z</time></trkpt><trkpt lat="44.200438" lon="11.3812227"><ele>936.6666666666666</ele><time>2026-04-04T11:15:05.241Z</time></trkpt><trkpt lat="44.2003865" lon="11.3811605"><ele>937.3333333333333</ele><time>2026-04-04T11:15:06.241Z</time></trkpt><trkpt lat="44.200338" lon="11.3811025"><ele>938.0</ele><time>2026-04-04T11:15:07.242Z</time></trkpt><trkpt lat="44.2002791" lon="11.3810422"><ele>938.6666666666666</ele><time>2026-04-04T11:15:08.242Z</time></trkpt><trkpt lat="44.200212" lon="11.3809727"><ele>939.3333333333333</ele><time>2026-04-04T11:15:09.242Z</time></trkpt><trkpt lat="44.2001401" lon="11.3808968"><ele>940.0</ele><time>2026-04-04T11:15:10.241Z</time></trkpt><trkpt lat="44.2000746" lon="11.3808223"><ele>940.0</ele><time>2026-04-04T11:15:11.242Z</time></trkpt><trkpt lat="44.2000116" lon="11.3807454"><ele>940.0</ele><time>2026-04-04T11:15:12.242Z</time></trkpt><trkpt lat="44.1999539" lon="11.3806804"><ele>940.0</ele><time>2026-04-04T11:15:13.241Z</time></trkpt><trkpt lat="44.19991" lon="11.3806076"><ele>940.0</ele><time>2026-04-04T11:15:14.241Z</time></trkpt><trkpt lat="44.1998445" lon="11.3804811"><ele>940.0</ele><time>2026-04-04T11:15:16.241Z</time></trkpt><trkpt lat="44.1997711" lon="11.3803501"><ele>941.1666666666666</ele><time>2026-04-04T11:15:18.241Z</time></trkpt><trkpt lat="44.1997115" lon="11.3802084"><ele>942.3333333333333</ele><time>2026-04-04T11:15:20.241Z</time></trkpt><trkpt lat="44.1996815" lon="11.3801263"><ele>943.5</ele><time>2026-04-04T11:15:21.242Z</time></trkpt><trkpt lat="44.1996535" lon="11.3800286"><ele>944.6666666666667</ele><time>2026-04-04T11:15:22.242Z</time></trkpt><trkpt lat="44.1996144" lon="11.3799404"><ele>945.8333333333334</ele><time>2026-04-04T11:15:23.242Z</time></trkpt><trkpt lat="44.1995759" lon="11.3798598"><ele>947.0</ele><time>2026-04-04T11:15:24.242Z</time></trkpt><trkpt lat="44.1995452" lon="11.3797808"><ele>947.0000000000001</ele><time>2026-04-04T11:15:25.242Z</time></trkpt><trkpt lat="44.1995194" lon="11.3796878"><ele>947.0</ele><time>2026-04-04T11:15:26.241Z</time></trkpt><trkpt lat="44.1994935" lon="11.3795954"><ele>947.0</ele><time>2026-04-04T11:15:27.241Z</time></trkpt><trkpt lat="44.1994321" lon="11.3794614"><ele>947.0</ele><time>2026-04-04T11:15:29.241Z</time></trkpt><trkpt lat="44.1993726" lon="11.37934"><ele>947.0000000000001</ele><time>2026-04-04T11:15:31.242Z</time></trkpt><trkpt lat="44.1993406" lon="11.3792534"><ele>947.0</ele><time>2026-04-04T11:15:32.242Z</time></trkpt><trkpt lat="44.1993124" lon="11.3791716"><ele>948.0</ele><time>2026-04-04T11:15:33.241Z</time></trkpt><trkpt lat="44.1992898" lon="11.3790374"><ele>949.0</ele><time>2026-04-04T11:15:35.241Z</time></trkpt><trkpt lat="44.199272" lon="11.3789049"><ele>950.0</ele><time>2026-04-04T11:15:37.241Z</time></trkpt><trkpt lat="44.1992206" lon="11.378778"><ele>951.0</ele><time>2026-04-04T11:15:39.242Z</time></trkpt><trkpt lat="44.1991998" lon="11.3786716"><ele>952.0</ele><time>2026-04-04T11:15:42.242Z</time></trkpt><trkpt lat="44.1991656" lon="11.3785719"><ele>952.4999999999999</ele><time>2026-04-04T11:15:45.242Z</time></trkpt><trkpt lat="44.1991383" lon="11.378405"><ele>953.0</ele><time>2026-04-04T11:15:47.242Z</time></trkpt><trkpt lat="44.19913" lon="11.3783013"><ele>953.5</ele><time>2026-04-04T11:15:49.242Z</time></trkpt><trkpt lat="44.19909" lon="11.378211"><ele>954.0</ele><time>2026-04-04T11:16:00.242Z</time></trkpt><trkpt lat="44.199062" lon="11.3781191"><ele>954.4999999999999</ele><time>2026-04-04T11:16:08.241Z</time></trkpt><trkpt lat="44.199001" lon="11.3780587"><ele>955.0</ele><time>2026-04-04T11:16:12.241Z</time></trkpt><trkpt lat="44.1989725" lon="11.3779755"><ele>953.8333333333333</ele><time>2026-04-04T11:23:47.242Z</time></trkpt><trkpt lat="44.1989059" lon="11.377879"><ele>952.6666666666666</ele><time>2026-04-04T11:23:50.242Z</time></trkpt><trkpt lat="44.1988513" lon="11.3778208"><ele>951.5</ele><time>2026-04-04T11:23:52.243Z</time></trkpt><trkpt lat="44.1987926" lon="11.3777704"><ele>950.3333333333333</ele><time>2026-04-04T11:23:54.243Z</time></trkpt><trkpt lat="44.1987157" lon="11.3776805"><ele>949.1666666666666</ele><time>2026-04-04T11:23:56.243Z</time></trkpt><trkpt lat="44.1986679" lon="11.3775672"><ele>948.0</ele><time>2026-04-04T11:23:58.242Z</time></trkpt><trkpt lat="44.1986257" lon="11.3775007"><ele>948.0</ele><time>2026-04-04T11:24:00.243Z</time></trkpt><trkpt lat="44.1985727" lon="11.3774046"><ele>948.0</ele><time>2026-04-04T11:24:03.243Z</time></trkpt><trkpt lat="44.1985155" lon="11.377313"><ele>948.0</ele><time>2026-04-04T11:24:05.243Z</time></trkpt><trkpt lat="44.1984668" lon="11.3772557"><ele>948.0</ele><time>2026-04-04T11:24:06.243Z</time></trkpt><trkpt lat="44.1983706" lon="11.3771388"><ele>948.0</ele><time>2026-04-04T11:24:08.243Z</time></trkpt><trkpt lat="44.1983254" lon="11.377073"><ele>948.0</ele><time>2026-04-04T11:24:09.242Z</time></trkpt><trkpt lat="44.1982519" lon="11.3769519"><ele>947.8333333333334</ele><time>2026-04-04T11:24:11.243Z</time></trkpt><trkpt lat="44.1981841" lon="11.3768704"><ele>947.6666666666667</ele><time>2026-04-04T11:24:15.324Z</time></trkpt><trkpt lat="44.1981399" lon="11.3767992"><ele>947.5</ele><time>2026-04-04T11:24:17.317Z</time></trkpt><trkpt lat="44.198112" lon="11.3767001"><ele>947.3333333333334</ele><time>2026-04-04T11:24:19.327Z</time></trkpt><trkpt lat="44.1980492" lon="11.3766033"><ele>947.1666666666667</ele><time>2026-04-04T11:24:22.345Z</time></trkpt><trkpt lat="44.1979953" lon="11.3765507"><ele>947.0</ele><time>2026-04-04T11:24:24.252Z</time></trkpt><trkpt lat="44.1979399" lon="11.3764919"><ele>945.6</ele><time>2026-04-04T11:24:27.267Z</time></trkpt><trkpt lat="44.1978531" lon="11.3764721"><ele>944.2</ele><time>2026-04-04T11:24:45.257Z</time></trkpt><trkpt lat="44.1977231" lon="11.3764791"><ele>942.8</ele><time>2026-04-04T11:24:48.203Z</time></trkpt><trkpt lat="44.1976167" lon="11.3764498"><ele>941.4</ele><time>2026-04-04T11:24:49.243Z</time></trkpt><trkpt lat="44.1975374" lon="11.3764244"><ele>940.0</ele><time>2026-04-04T11:24:50.243Z</time></trkpt><trkpt lat="44.1974643" lon="11.3763956"><ele>938.2</ele><time>2026-04-04T11:24:51.243Z</time></trkpt><trkpt lat="44.1973507" lon="11.3763527"><ele>936.4</ele><time>2026-04-04T11:24:53.243Z</time></trkpt><trkpt lat="44.1972443" lon="11.3763395"><ele>934.5999999999999</ele><time>2026-04-04T11:24:55.243Z</time></trkpt><trkpt lat="44.1971377" lon="11.3763481"><ele>932.8</ele><time>2026-04-04T11:24:57.243Z</time></trkpt><trkpt lat="44.1970428" lon="11.3763463"><ele>931.0</ele><time>2026-04-04T11:24:59.243Z</time></trkpt><trkpt lat="44.1969592" lon="11.3762962"><ele>930.9999999999999</ele><time>2026-04-04T11:25:01.243Z</time></trkpt><trkpt lat="44.1968806" lon="11.3762061"><ele>931.0</ele><time>2026-04-04T11:25:03.243Z</time></trkpt><trkpt lat="44.1967779" lon="11.3760883"><ele>931.0</ele><time>2026-04-04T11:25:05.243Z</time></trkpt><trkpt lat="44.196717" lon="11.3760309"><ele>931.0</ele><time>2026-04-04T11:25:06.243Z</time></trkpt><trkpt lat="44.1966635" lon="11.3759821"><ele>930.9999999999999</ele><time>2026-04-04T11:25:07.243Z</time></trkpt><trkpt lat="44.1966051" lon="11.3759411"><ele>931.0</ele><time>2026-04-04T11:25:08.243Z</time></trkpt><trkpt lat="44.19654" lon="11.3758949"><ele>933.0</ele><time>2026-04-04T11:25:09.243Z</time></trkpt><trkpt lat="44.1964609" lon="11.3758422"><ele>934.9999999999999</ele><time>2026-04-04T11:25:10.243Z</time></trkpt><trkpt lat="44.1963768" lon="11.375803"><ele>936.9999999999999</ele><time>2026-04-04T11:25:11.243Z</time></trkpt><trkpt lat="44.1962894" lon="11.3757797"><ele>939.0</ele><time>2026-04-04T11:25:12.243Z</time></trkpt><trkpt lat="44.1962088" lon="11.3757688"><ele>941.0</ele><time>2026-04-04T11:25:13.243Z</time></trkpt><trkpt lat="44.1961007" lon="11.3757458"><ele>941.0</ele><time>2026-04-04T11:25:15.243Z</time></trkpt><trkpt lat="44.1960168" lon="11.3756979"><ele>940.9999999999999</ele><time>2026-04-04T11:25:17.243Z</time></trkpt><trkpt lat="44.1959367" lon="11.3756785"><ele>940.9999999999999</ele><time>2026-04-04T11:25:19.242Z</time></trkpt><trkpt lat="44.1958197" lon="11.3756263"><ele>941.0</ele><time>2026-04-04T11:25:21.243Z</time></trkpt><trkpt lat="44.1957484" lon="11.3756006"><ele>941.0</ele><time>2026-04-04T11:25:22.243Z</time></trkpt><trkpt lat="44.1956644" lon="11.3755932"><ele>941.1666666666667</ele><time>2026-04-04T11:25:23.243Z</time></trkpt><trkpt lat="44.1955731" lon="11.3755999"><ele>941.3333333333334</ele><time>2026-04-04T11:25:24.243Z</time></trkpt><trkpt lat="44.1954905" lon="11.3755924"><ele>941.5</ele><time>2026-04-04T11:25:25.243Z</time></trkpt><trkpt lat="44.1954143" lon="11.3755734"><ele>941.6666666666667</ele><time>2026-04-04T11:25:26.243Z</time></trkpt><trkpt lat="44.1953414" lon="11.3755381"><ele>941.8333333333334</ele><time>2026-04-04T11:25:27.243Z</time></trkpt><trkpt lat="44.1952671" lon="11.3755022"><ele>942.0</ele><time>2026-04-04T11:25:28.243Z</time></trkpt><trkpt lat="44.1951905" lon="11.3754688"><ele>942.0</ele><time>2026-04-04T11:25:29.242Z</time></trkpt><trkpt lat="44.1951236" lon="11.3754465"><ele>942.0</ele><time>2026-04-04T11:25:30.243Z</time></trkpt><trkpt lat="44.1950179" lon="11.3754152"><ele>942.0</ele><time>2026-04-04T11:25:32.243Z</time></trkpt><trkpt lat="44.1949145" lon="11.3753638"><ele>942.0</ele><time>2026-04-04T11:25:34.243Z</time></trkpt><trkpt lat="44.1948679" lon="11.3753003"><ele>942.0</ele><time>2026-04-04T11:25:35.242Z</time></trkpt><trkpt lat="44.1948188" lon="11.3752144"><ele>942.0</ele><time>2026-04-04T11:25:36.243Z</time></trkpt><trkpt lat="44.1947724" lon="11.3751278"><ele>941.5</ele><time>2026-04-04T11:25:37.243Z</time></trkpt><trkpt lat="44.1947281" lon="11.3750311"><ele>941.0</ele><time>2026-04-04T11:25:38.242Z</time></trkpt><trkpt lat="44.1946894" lon="11.3749268"><ele>940.5</ele><time>2026-04-04T11:25:39.243Z</time></trkpt><trkpt lat="44.1946594" lon="11.3748272"><ele>940.0</ele><time>2026-04-04T11:25:40.243Z</time></trkpt><trkpt lat="44.194638" lon="11.3747216"><ele>939.5</ele><time>2026-04-04T11:25:41.243Z</time></trkpt><trkpt lat="44.1946241" lon="11.3746196"><ele>939.0</ele><time>2026-04-04T11:25:42.243Z</time></trkpt><trkpt lat="44.1946031" lon="11.3745285"><ele>939.0</ele><time>2026-04-04T11:25:43.242Z</time></trkpt><trkpt lat="44.1945764" lon="11.374445"><ele>939.0</ele><time>2026-04-04T11:25:44.242Z</time></trkpt><trkpt lat="44.1945379" lon="11.3743614"><ele>939.0</ele><time>2026-04-04T11:25:45.243Z</time></trkpt><trkpt lat="44.1944944" lon="11.3742826"><ele>939.0</ele><time>2026-04-04T11:25:46.242Z</time></trkpt><trkpt lat="44.1944415" lon="11.3742121"><ele>939.0</ele><time>2026-04-04T11:25:47.243Z</time></trkpt><trkpt lat="44.1943857" lon="11.3741665"><ele>939.0</ele><time>2026-04-04T11:25:48.242Z</time></trkpt><trkpt lat="44.1943208" lon="11.3741327"><ele>939.0</ele><time>2026-04-04T11:25:49.242Z</time></trkpt><trkpt lat="44.1942562" lon="11.3740925"><ele>939.0</ele><time>2026-04-04T11:25:50.242Z</time></trkpt><trkpt lat="44.1941709" lon="11.3739698"><ele>939.0000000000001</ele><time>2026-04-04T11:25:52.242Z</time></trkpt><trkpt lat="44.1941399" lon="11.3738847"><ele>939.0000000000001</ele><time>2026-04-04T11:25:53.243Z</time></trkpt><trkpt lat="44.1940985" lon="11.3737893"><ele>939.0</ele><time>2026-04-04T11:25:54.243Z</time></trkpt><trkpt lat="44.1940582" lon="11.3736765"><ele>939.0</ele><time>2026-04-04T11:25:55.243Z</time></trkpt><trkpt lat="44.1940072" lon="11.3735535"><ele>936.4000000000001</ele><time>2026-04-04T11:25:56.243Z</time></trkpt><trkpt lat="44.1939437" lon="11.3734459"><ele>933.8000000000001</ele><time>2026-04-04T11:25:57.243Z</time></trkpt><trkpt lat="44.19387" lon="11.3733561"><ele>931.1999999999999</ele><time>2026-04-04T11:25:58.243Z</time></trkpt><trkpt lat="44.1937942" lon="11.3732806"><ele>928.5999999999999</ele><time>2026-04-04T11:25:59.243Z</time></trkpt><trkpt lat="44.1937321" lon="11.3732022"><ele>926.0</ele><time>2026-04-04T11:26:00.242Z</time></trkpt><trkpt lat="44.1936816" lon="11.3731227"><ele>926.0000000000001</ele><time>2026-04-04T11:26:01.242Z</time></trkpt><trkpt lat="44.1936413" lon="11.3730421"><ele>926.0</ele><time>2026-04-04T11:26:02.242Z</time></trkpt><trkpt lat="44.1935978" lon="11.3729767"><ele>926.0</ele><time>2026-04-04T11:26:03.243Z</time></trkpt><trkpt lat="44.193534" lon="11.3729221"><ele>926.0</ele><time>2026-04-04T11:26:04.242Z</time></trkpt><trkpt lat="44.1934504" lon="11.3728753"><ele>926.0000000000001</ele><time>2026-04-04T11:26:05.243Z</time></trkpt><trkpt lat="44.1933616" lon="11.3728157"><ele>926.0</ele><time>2026-04-04T11:26:06.243Z</time></trkpt><trkpt lat="44.1932603" lon="11.3727454"><ele>925.8</ele><time>2026-04-04T11:26:07.242Z</time></trkpt><trkpt lat="44.1931555" lon="11.3726581"><ele>925.5999999999999</ele><time>2026-04-04T11:26:08.242Z</time></trkpt><trkpt lat="44.1930617" lon="11.3725687"><ele>925.4</ele><time>2026-04-04T11:26:09.242Z</time></trkpt><trkpt lat="44.1929883" lon="11.3724793"><ele>925.2</ele><time>2026-04-04T11:26:10.243Z</time></trkpt><trkpt lat="44.1929245" lon="11.3723948"><ele>925.0</ele><time>2026-04-04T11:26:11.242Z</time></trkpt><trkpt lat="44.1928647" lon="11.3723067"><ele>925.0</ele><time>2026-04-04T11:26:12.243Z</time></trkpt><trkpt lat="44.1927967" lon="11.3722309"><ele>925.0</ele><time>2026-04-04T11:26:13.243Z</time></trkpt><trkpt lat="44.1927187" lon="11.372151"><ele>925.0</ele><time>2026-04-04T11:26:14.243Z</time></trkpt><trkpt lat="44.192637" lon="11.3720682"><ele>925.0</ele><time>2026-04-04T11:26:15.242Z</time></trkpt><trkpt lat="44.192566" lon="11.3719773"><ele>925.0</ele><time>2026-04-04T11:26:16.243Z</time></trkpt><trkpt lat="44.1924955" lon="11.3718692"><ele>925.2</ele><time>2026-04-04T11:26:17.242Z</time></trkpt><trkpt lat="44.1924161" lon="11.3717466"><ele>925.4</ele><time>2026-04-04T11:26:18.243Z</time></trkpt><trkpt lat="44.1923503" lon="11.3716215"><ele>925.5999999999999</ele><time>2026-04-04T11:26:19.242Z</time></trkpt><trkpt lat="44.1922922" lon="11.3714999"><ele>925.8</ele><time>2026-04-04T11:26:20.243Z</time></trkpt><trkpt lat="44.192237" lon="11.3713939"><ele>926.0</ele><time>2026-04-04T11:26:21.242Z</time></trkpt><trkpt lat="44.1921936" lon="11.3712935"><ele>923.5000000000001</ele><time>2026-04-04T11:26:22.243Z</time></trkpt><trkpt lat="44.1921495" lon="11.3711884"><ele>921.0</ele><time>2026-04-04T11:26:23.243Z</time></trkpt><trkpt lat="44.1920966" lon="11.3710729"><ele>918.5</ele><time>2026-04-04T11:26:24.243Z</time></trkpt><trkpt lat="44.192041" lon="11.37097"><ele>916.0</ele><time>2026-04-04T11:26:25.242Z</time></trkpt><trkpt lat="44.1919933" lon="11.3708807"><ele>913.5000000000001</ele><time>2026-04-04T11:26:26.243Z</time></trkpt><trkpt lat="44.1919537" lon="11.370792"><ele>911.0</ele><time>2026-04-04T11:26:27.242Z</time></trkpt><trkpt lat="44.191908" lon="11.3706743"><ele>911.0000000000001</ele><time>2026-04-04T11:26:28.243Z</time></trkpt><trkpt lat="44.191855" lon="11.3705378"><ele>911.0</ele><time>2026-04-04T11:26:29.243Z</time></trkpt><trkpt lat="44.1918054" lon="11.3704158"><ele>911.0</ele><time>2026-04-04T11:26:30.243Z</time></trkpt><trkpt lat="44.1917676" lon="11.3703164"><ele>911.0</ele><time>2026-04-04T11:26:31.243Z</time></trkpt><trkpt lat="44.191732" lon="11.3702384"><ele>911.0000000000001</ele><time>2026-04-04T11:26:32.243Z</time></trkpt><trkpt lat="44.191684" lon="11.3701751"><ele>911.0</ele><time>2026-04-04T11:26:33.243Z</time></trkpt><trkpt lat="44.1916262" lon="11.3701262"><ele>911.5000000000001</ele><time>2026-04-04T11:26:34.242Z</time></trkpt><trkpt lat="44.1915613" lon="11.3700891"><ele>912.0</ele><time>2026-04-04T11:26:35.243Z</time></trkpt><trkpt lat="44.1914991" lon="11.3700359"><ele>912.5</ele><time>2026-04-04T11:26:36.243Z</time></trkpt><trkpt lat="44.1914311" lon="11.369941"><ele>913.0</ele><time>2026-04-04T11:26:37.243Z</time></trkpt><trkpt lat="44.1913623" lon="11.3698249"><ele>913.5000000000001</ele><time>2026-04-04T11:26:38.242Z</time></trkpt><trkpt lat="44.1912965" lon="11.3697186"><ele>914.0</ele><time>2026-04-04T11:26:39.242Z</time></trkpt><trkpt lat="44.1912369" lon="11.3696296"><ele>912.5714285714287</ele><time>2026-04-04T11:26:40.243Z</time></trkpt><trkpt lat="44.1911851" lon="11.3695497"><ele>911.1428571428571</ele><time>2026-04-04T11:26:41.243Z</time></trkpt><trkpt lat="44.1911356" lon="11.3694736"><ele>909.7142857142858</ele><time>2026-04-04T11:26:42.242Z</time></trkpt><trkpt lat="44.1910896" lon="11.3693963"><ele>908.2857142857143</ele><time>2026-04-04T11:26:43.243Z</time></trkpt><trkpt lat="44.1910458" lon="11.3693221"><ele>906.8571428571429</ele><time>2026-04-04T11:26:44.243Z</time></trkpt><trkpt lat="44.1909989" lon="11.3692457"><ele>905.4285714285714</ele><time>2026-04-04T11:26:45.243Z</time></trkpt><trkpt lat="44.1909378" lon="11.369168"><ele>904.0</ele><time>2026-04-04T11:26:46.243Z</time></trkpt><trkpt lat="44.1908739" lon="11.3690877"><ele>903.9999999999999</ele><time>2026-04-04T11:26:47.243Z</time></trkpt><trkpt lat="44.1908259" lon="11.3689924"><ele>904.0</ele><time>2026-04-04T11:26:48.242Z</time></trkpt><trkpt lat="44.1907863" lon="11.3688885"><ele>904.0</ele><time>2026-04-04T11:26:49.242Z</time></trkpt><trkpt lat="44.1907521" lon="11.3688077"><ele>904.0</ele><time>2026-04-04T11:26:50.242Z</time></trkpt><trkpt lat="44.1906655" lon="11.3687194"><ele>903.9999999999999</ele><time>2026-04-04T11:26:52.242Z</time></trkpt><trkpt lat="44.1905935" lon="11.3686672"><ele>904.0</ele><time>2026-04-04T11:26:54.243Z</time></trkpt><trkpt lat="44.1905026" lon="11.3685572"><ele>901.6666666666666</ele><time>2026-04-04T11:26:56.243Z</time></trkpt><trkpt lat="44.1904498" lon="11.3684913"><ele>899.3333333333333</ele><time>2026-04-04T11:26:57.242Z</time></trkpt><trkpt lat="44.1903949" lon="11.3684308"><ele>897.0</ele><time>2026-04-04T11:26:58.243Z</time></trkpt><trkpt lat="44.1903119" lon="11.3683881"><ele>894.6666666666667</ele><time>2026-04-04T11:27:00.243Z</time></trkpt><trkpt lat="44.1902475" lon="11.3683369"><ele>892.3333333333334</ele><time>2026-04-04T11:27:02.243Z</time></trkpt><trkpt lat="44.1901668" lon="11.3682751"><ele>890.0</ele><time>2026-04-04T11:27:04.243Z</time></trkpt><trkpt lat="44.1900767" lon="11.3682782"><ele>890.0000000000001</ele><time>2026-04-04T11:27:08.242Z</time></trkpt><trkpt lat="44.1900039" lon="11.3682451"><ele>890.0</ele><time>2026-04-04T11:27:13.267Z</time></trkpt><trkpt lat="44.1899472" lon="11.3681983"><ele>890.0</ele><time>2026-04-04T11:27:16.283Z</time></trkpt><trkpt lat="44.1898832" lon="11.3681568"><ele>890.0</ele><time>2026-04-04T11:27:18.293Z</time></trkpt><trkpt lat="44.1898056" lon="11.368109"><ele>890.0000000000001</ele><time>2026-04-04T11:27:20.302Z</time></trkpt><trkpt lat="44.1897038" lon="11.3680187"><ele>890.0</ele><time>2026-04-04T11:27:22.242Z</time></trkpt><trkpt lat="44.1896398" lon="11.3679798"><ele>888.8</ele><time>2026-04-04T11:27:23.242Z</time></trkpt><trkpt lat="44.1895718" lon="11.3679502"><ele>887.6</ele><time>2026-04-04T11:27:24.243Z</time></trkpt><trkpt lat="44.1894725" lon="11.3679149"><ele>886.4000000000001</ele><time>2026-04-04T11:27:26.242Z</time></trkpt><trkpt lat="44.189408" lon="11.3678529"><ele>885.2</ele><time>2026-04-04T11:27:28.242Z</time></trkpt><trkpt lat="44.1893135" lon="11.3677816"><ele>884.0</ele><time>2026-04-04T11:27:30.243Z</time></trkpt><trkpt lat="44.1891995" lon="11.3677438"><ele>884.0</ele><time>2026-04-04T11:27:32.243Z</time></trkpt><trkpt lat="44.1890989" lon="11.3677055"><ele>884.0</ele><time>2026-04-04T11:27:34.243Z</time></trkpt><trkpt lat="44.1889871" lon="11.3676395"><ele>884.0</ele><time>2026-04-04T11:27:36.242Z</time></trkpt><trkpt lat="44.188882" lon="11.367553"><ele>884.0</ele><time>2026-04-04T11:27:38.242Z</time></trkpt><trkpt lat="44.1887903" lon="11.3674529"><ele>884.4000000000001</ele><time>2026-04-04T11:27:40.243Z</time></trkpt><trkpt lat="44.1887365" lon="11.3673495"><ele>884.8000000000001</ele><time>2026-04-04T11:27:42.243Z</time></trkpt><trkpt lat="44.1886958" lon="11.3672517"><ele>885.1999999999999</ele><time>2026-04-04T11:27:44.243Z</time></trkpt><trkpt lat="44.1886426" lon="11.367129"><ele>885.5999999999999</ele><time>2026-04-04T11:27:46.243Z</time></trkpt><trkpt lat="44.1885477" lon="11.3670383"><ele>886.0</ele><time>2026-04-04T11:27:48.243Z</time></trkpt><trkpt lat="44.1884808" lon="11.366975"><ele>886.0</ele><time>2026-04-04T11:27:49.242Z</time></trkpt><trkpt lat="44.1883867" lon="11.3669127"><ele>885.9999999999999</ele><time>2026-04-04T11:27:50.243Z</time></trkpt><trkpt lat="44.1882788" lon="11.366867"><ele>885.9999999999999</ele><time>2026-04-04T11:27:51.242Z</time></trkpt><trkpt lat="44.1881849" lon="11.3668481"><ele>886.0</ele><time>2026-04-04T11:27:52.242Z</time></trkpt><trkpt lat="44.1881044" lon="11.3668382"><ele>886.0</ele><time>2026-04-04T11:27:53.243Z</time></trkpt><trkpt lat="44.1880347" lon="11.3668386"><ele>885.8</ele><time>2026-04-04T11:27:54.242Z</time></trkpt><trkpt lat="44.187927" lon="11.366803"><ele>885.5999999999999</ele><time>2026-04-04T11:27:56.243Z</time></trkpt><trkpt lat="44.1878449" lon="11.3667034"><ele>885.4</ele><time>2026-04-04T11:27:58.242Z</time></trkpt><trkpt lat="44.1877595" lon="11.3665965"><ele>885.2</ele><time>2026-04-04T11:28:00.243Z</time></trkpt><trkpt lat="44.1877142" lon="11.366528"><ele>885.0</ele><time>2026-04-04T11:28:01.243Z</time></trkpt><trkpt lat="44.1876533" lon="11.3664408"><ele>886.3333333333334</ele><time>2026-04-04T11:28:02.243Z</time></trkpt><trkpt lat="44.1875955" lon="11.3663414"><ele>887.6666666666667</ele><time>2026-04-04T11:28:03.243Z</time></trkpt><trkpt lat="44.1875386" lon="11.3662385"><ele>889.0</ele><time>2026-04-04T11:28:04.243Z</time></trkpt><trkpt lat="44.1874862" lon="11.366145"><ele>890.3333333333334</ele><time>2026-04-04T11:28:05.242Z</time></trkpt><trkpt lat="44.1874344" lon="11.3660666"><ele>891.6666666666667</ele><time>2026-04-04T11:28:06.242Z</time></trkpt><trkpt lat="44.1873722" lon="11.3660087"><ele>893.0</ele><time>2026-04-04T11:28:07.243Z</time></trkpt><trkpt lat="44.1873045" lon="11.3659814"><ele>893.0000000000001</ele><time>2026-04-04T11:28:08.243Z</time></trkpt><trkpt lat="44.187231" lon="11.3659659"><ele>893.0</ele><time>2026-04-04T11:28:09.243Z</time></trkpt><trkpt lat="44.1871604" lon="11.3659336"><ele>893.0</ele><time>2026-04-04T11:28:10.242Z</time></trkpt><trkpt lat="44.1870932" lon="11.3658923"><ele>893.0</ele><time>2026-04-04T11:28:11.243Z</time></trkpt><trkpt lat="44.1870268" lon="11.3658425"><ele>893.0000000000001</ele><time>2026-04-04T11:28:12.243Z</time></trkpt><trkpt lat="44.1869577" lon="11.3657957"><ele>893.0</ele><time>2026-04-04T11:28:13.243Z</time></trkpt><trkpt lat="44.1868833" lon="11.3657579"><ele>893.0</ele><time>2026-04-04T11:28:14.242Z</time></trkpt><trkpt lat="44.1868234" lon="11.3657201"><ele>893.0</ele><time>2026-04-04T11:28:15.243Z</time></trkpt><trkpt lat="44.1867178" lon="11.3656565"><ele>893.0</ele><time>2026-04-04T11:28:17.243Z</time></trkpt><trkpt lat="44.186605" lon="11.3655892"><ele>893.0</ele><time>2026-04-04T11:28:19.243Z</time></trkpt><trkpt lat="44.1865443" lon="11.3655202"><ele>893.0</ele><time>2026-04-04T11:28:20.243Z</time></trkpt><trkpt lat="44.1864882" lon="11.3654377"><ele>892.4</ele><time>2026-04-04T11:28:21.243Z</time></trkpt><trkpt lat="44.1864373" lon="11.365336"><ele>891.8</ele><time>2026-04-04T11:28:22.242Z</time></trkpt><trkpt lat="44.1863904" lon="11.3652277"><ele>891.2</ele><time>2026-04-04T11:28:23.243Z</time></trkpt><trkpt lat="44.1863431" lon="11.3651124"><ele>890.6</ele><time>2026-04-04T11:28:24.243Z</time></trkpt><trkpt lat="44.1862934" lon="11.3649895"><ele>890.0</ele><time>2026-04-04T11:28:25.243Z</time></trkpt><trkpt lat="44.186241" lon="11.3648709"><ele>890.0</ele><time>2026-04-04T11:28:26.243Z</time></trkpt><trkpt lat="44.1861931" lon="11.3647449"><ele>890.0</ele><time>2026-04-04T11:28:27.243Z</time></trkpt><trkpt lat="44.1861545" lon="11.3646241"><ele>890.0</ele><time>2026-04-04T11:28:28.242Z</time></trkpt><trkpt lat="44.1861131" lon="11.3645161"><ele>890.0</ele><time>2026-04-04T11:28:29.242Z</time></trkpt><trkpt lat="44.1860619" lon="11.3644262"><ele>890.0</ele><time>2026-04-04T11:28:30.243Z</time></trkpt><trkpt lat="44.1859996" lon="11.3643456"><ele>889.8</ele><time>2026-04-04T11:28:31.242Z</time></trkpt><trkpt lat="44.1859191" lon="11.3642797"><ele>889.6</ele><time>2026-04-04T11:28:32.242Z</time></trkpt><trkpt lat="44.1858287" lon="11.3642285"><ele>889.4000000000001</ele><time>2026-04-04T11:28:33.242Z</time></trkpt><trkpt lat="44.1857433" lon="11.3641695"><ele>889.2</ele><time>2026-04-04T11:28:34.243Z</time></trkpt><trkpt lat="44.185667" lon="11.3641009"><ele>889.0</ele><time>2026-04-04T11:28:35.242Z</time></trkpt><trkpt lat="44.1855976" lon="11.3640418"><ele>888.9999999999999</ele><time>2026-04-04T11:28:36.243Z</time></trkpt><trkpt lat="44.18554" lon="11.3639817"><ele>889.0</ele><time>2026-04-04T11:28:37.242Z</time></trkpt><trkpt lat="44.1854716" lon="11.3638485"><ele>889.0</ele><time>2026-04-04T11:28:39.243Z</time></trkpt><trkpt lat="44.1854463" lon="11.3637655"><ele>889.0</ele><time>2026-04-04T11:28:40.242Z</time></trkpt><trkpt lat="44.1854037" lon="11.3636755"><ele>888.9999999999999</ele><time>2026-04-04T11:28:41.243Z</time></trkpt><trkpt lat="44.1853398" lon="11.363577"><ele>889.0</ele><time>2026-04-04T11:28:42.243Z</time></trkpt><trkpt lat="44.1852567" lon="11.3634642"><ele>891.5</ele><time>2026-04-04T11:28:43.243Z</time></trkpt><trkpt lat="44.18517" lon="11.3633551"><ele>894.0</ele><time>2026-04-04T11:28:44.242Z</time></trkpt><trkpt lat="44.1850971" lon="11.3632323"><ele>896.5</ele><time>2026-04-04T11:28:45.243Z</time></trkpt><trkpt lat="44.1850222" lon="11.3630887"><ele>899.0</ele><time>2026-04-04T11:28:46.243Z</time></trkpt><trkpt lat="44.1849495" lon="11.3629301"><ele>899.5</ele><time>2026-04-04T11:28:47.243Z</time></trkpt><trkpt lat="44.1848899" lon="11.3627556"><ele>900.0</ele><time>2026-04-04T11:28:48.242Z</time></trkpt><trkpt lat="44.1848383" lon="11.3625704"><ele>900.5</ele><time>2026-04-04T11:28:49.243Z</time></trkpt><trkpt lat="44.1847893" lon="11.3623809"><ele>901.0</ele><time>2026-04-04T11:28:50.243Z</time></trkpt><trkpt lat="44.1847491" lon="11.3621883"><ele>907.5</ele><time>2026-04-04T11:28:51.242Z</time></trkpt><trkpt lat="44.1847189" lon="11.3619983"><ele>914.0</ele><time>2026-04-04T11:28:52.242Z</time></trkpt><trkpt lat="44.1846934" lon="11.3618064"><ele>920.5</ele><time>2026-04-04T11:28:53.243Z</time></trkpt><trkpt lat="44.1846744" lon="11.3616091"><ele>927.0</ele><time>2026-04-04T11:28:54.243Z</time></trkpt><trkpt lat="44.1846646" lon="11.3613966"><ele>930.6666666666667</ele><time>2026-04-04T11:28:55.243Z</time></trkpt><trkpt lat="44.18467" lon="11.3611653"><ele>934.3333333333334</ele><time>2026-04-04T11:28:56.243Z</time></trkpt><trkpt lat="44.184691" lon="11.3609171"><ele>938.0</ele><time>2026-04-04T11:28:57.243Z</time></trkpt><trkpt lat="44.1847253" lon="11.3606749"><ele>942.0</ele><time>2026-04-04T11:28:58.242Z</time></trkpt><trkpt lat="44.1847707" lon="11.3604357"><ele>946.0</ele><time>2026-04-04T11:28:59.243Z</time></trkpt><trkpt lat="44.1848193" lon="11.3602069"><ele>950.0</ele><time>2026-04-04T11:29:00.243Z</time></trkpt><trkpt lat="44.1848674" lon="11.3599845"><ele>937.3333333333334</ele><time>2026-04-04T11:29:01.243Z</time></trkpt><trkpt lat="44.1849194" lon="11.3597616"><ele>924.6666666666667</ele><time>2026-04-04T11:29:02.242Z</time></trkpt><trkpt lat="44.1849702" lon="11.3595466"><ele>912.0</ele><time>2026-04-04T11:29:03.243Z</time></trkpt><trkpt lat="44.1850125" lon="11.3593408"><ele>912.0</ele><time>2026-04-04T11:29:04.243Z</time></trkpt><trkpt lat="44.1850509" lon="11.359132"><ele>912.0</ele><time>2026-04-04T11:29:05.243Z</time></trkpt><trkpt lat="44.185081" lon="11.3589161"><ele>912.0</ele><time>2026-04-04T11:29:06.243Z</time></trkpt><trkpt lat="44.1851086" lon="11.3586934"><ele>914.3333333333333</ele><time>2026-04-04T11:29:07.242Z</time></trkpt><trkpt lat="44.1851328" lon="11.358466"><ele>916.6666666666666</ele><time>2026-04-04T11:29:08.243Z</time></trkpt><trkpt lat="44.1851501" lon="11.3582378"><ele>919.0</ele><time>2026-04-04T11:29:09.242Z</time></trkpt><trkpt lat="44.1851613" lon="11.3580319"><ele>920.25</ele><time>2026-04-04T11:29:10.242Z</time></trkpt><trkpt lat="44.1851845" lon="11.3578455"><ele>921.5</ele><time>2026-04-04T11:29:11.243Z</time></trkpt><trkpt lat="44.1852326" lon="11.3576902"><ele>922.75</ele><time>2026-04-04T11:29:12.243Z</time></trkpt><trkpt lat="44.1853166" lon="11.3575678"><ele>924.0</ele><time>2026-04-04T11:29:13.242Z</time></trkpt><trkpt lat="44.1854328" lon="11.3574764"><ele>924.0</ele><time>2026-04-04T11:29:14.243Z</time></trkpt><trkpt lat="44.1855462" lon="11.3573899"><ele>924.0</ele><time>2026-04-04T11:29:15.243Z</time></trkpt><trkpt lat="44.1856281" lon="11.3572624"><ele>924.0</ele><time>2026-04-04T11:29:16.242Z</time></trkpt><trkpt lat="44.1856675" lon="11.3570891"><ele>924.0</ele><time>2026-04-04T11:29:17.242Z</time></trkpt><trkpt lat="44.185667" lon="11.3568838"><ele>922.6666666666667</ele><time>2026-04-04T11:29:18.243Z</time></trkpt><trkpt lat="44.1856351" lon="11.3566689"><ele>921.3333333333334</ele><time>2026-04-04T11:29:19.243Z</time></trkpt><trkpt lat="44.1855661" lon="11.3564588"><ele>920.0</ele><time>2026-04-04T11:29:20.243Z</time></trkpt><trkpt lat="44.1854684" lon="11.3562634"><ele>916.3333333333334</ele><time>2026-04-04T11:29:21.242Z</time></trkpt><trkpt lat="44.1853455" lon="11.3560914"><ele>912.6666666666667</ele><time>2026-04-04T11:29:22.242Z</time></trkpt><trkpt lat="44.1852006" lon="11.3559401"><ele>909.0</ele><time>2026-04-04T11:29:23.243Z</time></trkpt><trkpt lat="44.1850316" lon="11.3558109"><ele>909.0</ele><time>2026-04-04T11:29:24.242Z</time></trkpt><trkpt lat="44.1848526" lon="11.3556776"><ele>909.0</ele><time>2026-04-04T11:29:25.243Z</time></trkpt><trkpt lat="44.18468" lon="11.3555367"><ele>909.0</ele><time>2026-04-04T11:29:26.243Z</time></trkpt><trkpt lat="44.1845214" lon="11.3553848"><ele>908.3333333333333</ele><time>2026-04-04T11:29:27.243Z</time></trkpt><trkpt lat="44.1843787" lon="11.3552021"><ele>907.6666666666666</ele><time>2026-04-04T11:29:28.242Z</time></trkpt><trkpt lat="44.1842584" lon="11.3549788"><ele>907.0</ele><time>2026-04-04T11:29:29.243Z</time></trkpt><trkpt lat="44.1841503" lon="11.354726"><ele>906.0</ele><time>2026-04-04T11:29:30.243Z</time></trkpt><trkpt lat="44.1840479" lon="11.3544583"><ele>905.0</ele><time>2026-04-04T11:29:31.242Z</time></trkpt><trkpt lat="44.1839401" lon="11.3541887"><ele>904.0</ele><time>2026-04-04T11:29:32.243Z</time></trkpt><trkpt lat="44.1838339" lon="11.353932"><ele>906.0</ele><time>2026-04-04T11:29:33.243Z</time></trkpt><trkpt lat="44.1837334" lon="11.353676"><ele>908.0</ele><time>2026-04-04T11:29:34.242Z</time></trkpt><trkpt lat="44.183631" lon="11.3534242"><ele>910.0</ele><time>2026-04-04T11:29:35.243Z</time></trkpt><trkpt lat="44.1835332" lon="11.3531832"><ele>905.3333333333333</ele><time>2026-04-04T11:29:36.243Z</time></trkpt><trkpt lat="44.1834354" lon="11.3529625"><ele>900.6666666666667</ele><time>2026-04-04T11:29:37.242Z</time></trkpt><trkpt lat="44.1833338" lon="11.3527473"><ele>896.0</ele><time>2026-04-04T11:29:38.243Z</time></trkpt><trkpt lat="44.1832115" lon="11.3525619"><ele>901.0</ele><time>2026-04-04T11:29:39.242Z</time></trkpt><trkpt lat="44.1830555" lon="11.3524183"><ele>906.0</ele><time>2026-04-04T11:29:40.242Z</time></trkpt><trkpt lat="44.182884" lon="11.3523257"><ele>911.0</ele><time>2026-04-04T11:29:41.243Z</time></trkpt><trkpt lat="44.1827175" lon="11.3522388"><ele>907.0</ele><time>2026-04-04T11:29:42.242Z</time></trkpt><trkpt lat="44.1825825" lon="11.3521094"><ele>903.0</ele><time>2026-04-04T11:29:43.242Z</time></trkpt><trkpt lat="44.1824949" lon="11.3519336"><ele>899.0</ele><time>2026-04-04T11:29:44.242Z</time></trkpt><trkpt lat="44.1824633" lon="11.3517093"><ele>899.0</ele><time>2026-04-04T11:29:45.243Z</time></trkpt><trkpt lat="44.182483" lon="11.3514648"><ele>899.0</ele><time>2026-04-04T11:29:46.243Z</time></trkpt><trkpt lat="44.1825173" lon="11.3512225"><ele>899.0</ele><time>2026-04-04T11:29:47.243Z</time></trkpt><trkpt lat="44.1825264" lon="11.3509924"><ele>897.3333333333334</ele><time>2026-04-04T11:29:48.242Z</time></trkpt><trkpt lat="44.1824853" lon="11.3507772"><ele>895.6666666666667</ele><time>2026-04-04T11:29:49.242Z</time></trkpt><trkpt lat="44.1823938" lon="11.3505812"><ele>894.0</ele><time>2026-04-04T11:29:50.242Z</time></trkpt><trkpt lat="44.1822882" lon="11.3503868"><ele>898.3333333333333</ele><time>2026-04-04T11:29:51.242Z</time></trkpt><trkpt lat="44.1822029" lon="11.3501619"><ele>902.6666666666666</ele><time>2026-04-04T11:29:52.243Z</time></trkpt><trkpt lat="44.1821545" lon="11.3499116"><ele>907.0</ele><time>2026-04-04T11:29:53.243Z</time></trkpt><trkpt lat="44.1821403" lon="11.3496438"><ele>907.0</ele><time>2026-04-04T11:29:54.243Z</time></trkpt><trkpt lat="44.1821373" lon="11.3493784"><ele>907.0</ele><time>2026-04-04T11:29:55.243Z</time></trkpt><trkpt lat="44.1821283" lon="11.3491343"><ele>907.0</ele><time>2026-04-04T11:29:56.243Z</time></trkpt><trkpt lat="44.1820948" lon="11.3489169"><ele>901.3333333333333</ele><time>2026-04-04T11:29:57.243Z</time></trkpt><trkpt lat="44.1820327" lon="11.3487238"><ele>895.6666666666667</ele><time>2026-04-04T11:29:58.243Z</time></trkpt><trkpt lat="44.1819399" lon="11.3485499"><ele>890.0</ele><time>2026-04-04T11:29:59.242Z</time></trkpt><trkpt lat="44.1818148" lon="11.3484104"><ele>890.0</ele><time>2026-04-04T11:30:00.242Z</time></trkpt><trkpt lat="44.1816656" lon="11.3482917"><ele>890.0</ele><time>2026-04-04T11:30:01.243Z</time></trkpt><trkpt lat="44.1815036" lon="11.3481761"><ele>890.0</ele><time>2026-04-04T11:30:02.242Z</time></trkpt><trkpt lat="44.181342" lon="11.3480425"><ele>888.6666666666667</ele><time>2026-04-04T11:30:03.243Z</time></trkpt><trkpt lat="44.1811777" lon="11.3479011"><ele>887.3333333333333</ele><time>2026-04-04T11:30:04.243Z</time></trkpt><trkpt lat="44.1809981" lon="11.3477726"><ele>886.0</ele><time>2026-04-04T11:30:05.242Z</time></trkpt><trkpt lat="44.1808122" lon="11.3476721"><ele>890.0</ele><time>2026-04-04T11:30:06.243Z</time></trkpt><trkpt lat="44.1806063" lon="11.3476238"><ele>894.0</ele><time>2026-04-04T11:30:07.243Z</time></trkpt><trkpt lat="44.1803934" lon="11.3476136"><ele>898.0</ele><time>2026-04-04T11:30:08.244Z</time></trkpt><trkpt lat="44.1801858" lon="11.3476229"><ele>898.0</ele><time>2026-04-04T11:30:09.244Z</time></trkpt><trkpt lat="44.1800035" lon="11.3476149"><ele>898.0</ele><time>2026-04-04T11:30:10.244Z</time></trkpt><trkpt lat="44.1798468" lon="11.3475589"><ele>898.0</ele><time>2026-04-04T11:30:11.244Z</time></trkpt><trkpt lat="44.1797316" lon="11.3474505"><ele>899.0</ele><time>2026-04-04T11:30:12.243Z</time></trkpt><trkpt lat="44.1796537" lon="11.3472951"><ele>900.0</ele><time>2026-04-04T11:30:13.244Z</time></trkpt><trkpt lat="44.1795984" lon="11.3471126"><ele>901.0</ele><time>2026-04-04T11:30:14.243Z</time></trkpt><trkpt lat="44.1795124" lon="11.3469586"><ele>902.0</ele><time>2026-04-04T11:30:15.243Z</time></trkpt><trkpt lat="44.1793847" lon="11.346867"><ele>902.0</ele><time>2026-04-04T11:30:16.243Z</time></trkpt><trkpt lat="44.17923" lon="11.3468221"><ele>902.0</ele><time>2026-04-04T11:30:17.244Z</time></trkpt><trkpt lat="44.179063" lon="11.3468081"><ele>902.0</ele><time>2026-04-04T11:30:18.243Z</time></trkpt><trkpt lat="44.1788889" lon="11.3468018"><ele>907.3333333333334</ele><time>2026-04-04T11:30:19.244Z</time></trkpt><trkpt lat="44.1787244" lon="11.3467619"><ele>912.6666666666667</ele><time>2026-04-04T11:30:20.244Z</time></trkpt><trkpt lat="44.1785797" lon="11.3466763"><ele>918.0</ele><time>2026-04-04T11:30:21.244Z</time></trkpt><trkpt lat="44.1784739" lon="11.3465202"><ele>918.5</ele><time>2026-04-04T11:30:22.243Z</time></trkpt><trkpt lat="44.1784088" lon="11.3463258"><ele>919.0</ele><time>2026-04-04T11:30:23.244Z</time></trkpt><trkpt lat="44.1783548" lon="11.3461233"><ele>919.5</ele><time>2026-04-04T11:30:24.244Z</time></trkpt><trkpt lat="44.1782804" lon="11.3459585"><ele>920.0</ele><time>2026-04-04T11:30:25.244Z</time></trkpt><trkpt lat="44.1781721" lon="11.3458543"><ele>920.0</ele><time>2026-04-04T11:30:26.243Z</time></trkpt><trkpt lat="44.1780313" lon="11.345797"><ele>920.0</ele><time>2026-04-04T11:30:27.243Z</time></trkpt><trkpt lat="44.1778783" lon="11.3457781"><ele>920.0</ele><time>2026-04-04T11:30:28.244Z</time></trkpt><trkpt lat="44.1777209" lon="11.3457754"><ele>920.0</ele><time>2026-04-04T11:30:29.243Z</time></trkpt><trkpt lat="44.1775609" lon="11.3457656"><ele>920.0</ele><time>2026-04-04T11:30:30.244Z</time></trkpt><trkpt lat="44.1773935" lon="11.3457194"><ele>920.0</ele><time>2026-04-04T11:30:31.244Z</time></trkpt><trkpt lat="44.1772372" lon="11.3456212"><ele>922.3333333333334</ele><time>2026-04-04T11:30:32.244Z</time></trkpt><trkpt lat="44.177099" lon="11.3454673"><ele>924.6666666666667</ele><time>2026-04-04T11:30:33.243Z</time></trkpt><trkpt lat="44.1769716" lon="11.3452818"><ele>927.0</ele><time>2026-04-04T11:30:34.244Z</time></trkpt><trkpt lat="44.1768307" lon="11.3451075"><ele>927.0</ele><time>2026-04-04T11:30:35.243Z</time></trkpt><trkpt lat="44.1766786" lon="11.3449514"><ele>927.0</ele><time>2026-04-04T11:30:36.244Z</time></trkpt><trkpt lat="44.1765115" lon="11.3448188"><ele>927.0</ele><time>2026-04-04T11:30:37.243Z</time></trkpt><trkpt lat="44.1763407" lon="11.3446916"><ele>926.3333333333333</ele><time>2026-04-04T11:30:38.244Z</time></trkpt><trkpt lat="44.1761661" lon="11.3445781"><ele>925.6666666666666</ele><time>2026-04-04T11:30:39.244Z</time></trkpt><trkpt lat="44.175992" lon="11.3444724"><ele>925.0</ele><time>2026-04-04T11:30:40.244Z</time></trkpt><trkpt lat="44.1758125" lon="11.344383"><ele>928.6666666666666</ele><time>2026-04-04T11:30:41.243Z</time></trkpt><trkpt lat="44.1756276" lon="11.3443155"><ele>932.3333333333333</ele><time>2026-04-04T11:30:42.243Z</time></trkpt><trkpt lat="44.1754375" lon="11.3442654"><ele>936.0</ele><time>2026-04-04T11:30:43.244Z</time></trkpt><trkpt lat="44.1752459" lon="11.3442264"><ele>936.0</ele><time>2026-04-04T11:30:44.244Z</time></trkpt><trkpt lat="44.1750533" lon="11.3441858"><ele>936.0</ele><time>2026-04-04T11:30:45.244Z</time></trkpt><trkpt lat="44.1748596" lon="11.3441374"><ele>936.0</ele><time>2026-04-04T11:30:46.243Z</time></trkpt><trkpt lat="44.1746645" lon="11.3440779"><ele>936.3333333333333</ele><time>2026-04-04T11:30:47.244Z</time></trkpt><trkpt lat="44.1744729" lon="11.3440068"><ele>936.6666666666666</ele><time>2026-04-04T11:30:48.244Z</time></trkpt><trkpt lat="44.1742918" lon="11.3439017"><ele>937.0</ele><time>2026-04-04T11:30:49.244Z</time></trkpt><trkpt lat="44.1741174" lon="11.3437662"><ele>943.6666666666666</ele><time>2026-04-04T11:30:50.243Z</time></trkpt><trkpt lat="44.173962" lon="11.343591"><ele>950.3333333333333</ele><time>2026-04-04T11:30:51.244Z</time></trkpt><trkpt lat="44.1738211" lon="11.3433789"><ele>957.0</ele><time>2026-04-04T11:30:52.243Z</time></trkpt><trkpt lat="44.1736922" lon="11.3431454"><ele>956.0</ele><time>2026-04-04T11:30:53.243Z</time></trkpt><trkpt lat="44.1735868" lon="11.3429087"><ele>955.0</ele><time>2026-04-04T11:30:54.243Z</time></trkpt><trkpt lat="44.1735014" lon="11.3426911"><ele>954.0</ele><time>2026-04-04T11:30:55.243Z</time></trkpt><trkpt lat="44.1734285" lon="11.3424965"><ele>954.0</ele><time>2026-04-04T11:30:56.244Z</time></trkpt><trkpt lat="44.1733632" lon="11.342328"><ele>954.0000000000001</ele><time>2026-04-04T11:30:57.243Z</time></trkpt><trkpt lat="44.1733119" lon="11.3421832"><ele>954.0000000000001</ele><time>2026-04-04T11:30:58.244Z</time></trkpt><trkpt lat="44.1732774" lon="11.3420737"><ele>954.0</ele><time>2026-04-04T11:30:59.243Z</time></trkpt><trkpt lat="44.1732536" lon="11.3419895"><ele>954.0</ele><time>2026-04-04T11:31:00.244Z</time></trkpt><trkpt lat="44.1732394" lon="11.3418631"><ele>954.0</ele><time>2026-04-04T11:31:02.244Z</time></trkpt><trkpt lat="44.173197" lon="11.3417894"><ele>954.0</ele><time>2026-04-04T11:31:04.244Z</time></trkpt><trkpt lat="44.1731019" lon="11.3417624"><ele>954.0</ele><time>2026-04-04T11:31:06.243Z</time></trkpt><trkpt lat="44.1730351" lon="11.3417721"><ele>954.0</ele><time>2026-04-04T11:31:07.243Z</time></trkpt><trkpt lat="44.1729543" lon="11.341796"><ele>954.0</ele><time>2026-04-04T11:31:08.244Z</time></trkpt><trkpt lat="44.1728723" lon="11.3418075"><ele>954.0</ele><time>2026-04-04T11:31:09.244Z</time></trkpt><trkpt lat="44.1727831" lon="11.3418166"><ele>956.4000000000001</ele><time>2026-04-04T11:31:10.244Z</time></trkpt><trkpt lat="44.172689" lon="11.3418252"><ele>958.8000000000001</ele><time>2026-04-04T11:31:11.243Z</time></trkpt><trkpt lat="44.1725975" lon="11.3418421"><ele>961.1999999999999</ele><time>2026-04-04T11:31:12.244Z</time></trkpt><trkpt lat="44.1725187" lon="11.3418627"><ele>963.5999999999999</ele><time>2026-04-04T11:31:13.243Z</time></trkpt><trkpt lat="44.1724131" lon="11.3418626"><ele>966.0</ele><time>2026-04-04T11:31:15.244Z</time></trkpt><trkpt lat="44.1724349" lon="11.3417474"><ele>966.0</ele><time>2026-04-04T11:31:19.324Z</time></trkpt><trkpt lat="44.1724873" lon="11.3416565"><ele>966.0</ele><time>2026-04-04T11:31:21.333Z</time></trkpt><trkpt lat="44.1725257" lon="11.3415401"><ele>966.0</ele><time>2026-04-04T11:31:23.239Z</time></trkpt><trkpt lat="44.1725343" lon="11.3414517"><ele>966.0</ele><time>2026-04-04T11:31:24.243Z</time></trkpt><trkpt lat="44.1725506" lon="11.34136"><ele>966.0</ele><time>2026-04-04T11:31:25.243Z</time></trkpt><trkpt lat="44.1725817" lon="11.34124"><ele>966.0</ele><time>2026-04-04T11:31:27.243Z</time></trkpt><trkpt lat="44.1725678" lon="11.3411366"><ele>967.0</ele><time>2026-04-04T11:31:29.244Z</time></trkpt><trkpt lat="44.172548" lon="11.3410422"><ele>967.9999999999999</ele><time>2026-04-04T11:31:31.244Z</time></trkpt><trkpt lat="44.1725024" lon="11.3408933"><ele>968.9999999999999</ele><time>2026-04-04T11:31:33.244Z</time></trkpt><trkpt lat="44.1725044" lon="11.3408027"><ele>970.0</ele><time>2026-04-04T11:31:36.311Z</time></trkpt><trkpt lat="44.17257" lon="11.3407157"><ele>971.0</ele><time>2026-04-04T11:31:37.308Z</time></trkpt><trkpt lat="44.172656" lon="11.3406056"><ele>970.8</ele><time>2026-04-04T11:31:39.244Z</time></trkpt><trkpt lat="44.1727082" lon="11.3405057"><ele>970.5999999999999</ele><time>2026-04-04T11:31:41.243Z</time></trkpt><trkpt lat="44.172743" lon="11.3404023"><ele>970.4</ele><time>2026-04-04T11:31:43.244Z</time></trkpt><trkpt lat="44.172825" lon="11.3402817"><ele>970.2</ele><time>2026-04-04T11:31:45.243Z</time></trkpt><trkpt lat="44.172875" lon="11.3402117"><ele>970.0</ele><time>2026-04-04T11:31:46.244Z</time></trkpt><trkpt lat="44.1729267" lon="11.3400733"><ele>970.0</ele><time>2026-04-04T11:31:48.243Z</time></trkpt><trkpt lat="44.1729333" lon="11.33994"><ele>970.0</ele><time>2026-04-04T11:31:50.244Z</time></trkpt><trkpt lat="44.1729333" lon="11.339805"><ele>970.0</ele><time>2026-04-04T11:31:52.244Z</time></trkpt><trkpt lat="44.17292" lon="11.3396767"><ele>970.0</ele><time>2026-04-04T11:31:54.243Z</time></trkpt><trkpt lat="44.1729017" lon="11.33954"><ele>970.0</ele><time>2026-04-04T11:31:56.243Z</time></trkpt><trkpt lat="44.1729033" lon="11.339405"><ele>969.1666666666666</ele><time>2026-04-04T11:31:58.244Z</time></trkpt><trkpt lat="44.1728967" lon="11.3392683"><ele>968.3333333333333</ele><time>2026-04-04T11:32:00.244Z</time></trkpt><trkpt lat="44.1728833" lon="11.3391617"><ele>967.5</ele><time>2026-04-04T11:32:02.244Z</time></trkpt><trkpt lat="44.172905" lon="11.3390583"><ele>966.6666666666667</ele><time>2026-04-04T11:32:05.244Z</time></trkpt><trkpt lat="44.1729783" lon="11.3390167"><ele>965.8333333333334</ele><time>2026-04-04T11:32:08.244Z</time></trkpt><trkpt lat="44.1729767" lon="11.3389233"><ele>965.0</ele><time>2026-04-04T11:33:33.244Z</time></trkpt><trkpt lat="44.172935" lon="11.3388467"><ele>961.0</ele><time>2026-04-04T11:33:41.244Z</time></trkpt><trkpt lat="44.1728417" lon="11.3389217"><ele>965.0</ele><time>2026-04-04T11:34:02.244Z</time></trkpt><trkpt lat="44.172715" lon="11.3388383"><ele>961.0</ele><time>2026-04-04T11:34:40.244Z</time></trkpt><trkpt lat="44.1726817" lon="11.3389767"><ele>965.0</ele><time>2026-04-04T11:34:53.244Z</time></trkpt></trkseg></trk></gpx>